<?xml version="1.0" encoding="UTF-8" standalone="no" ?>
<gpx xmlns="http://www.topografix.com/GPX/1/1" xmlns:xsi="http://www.w3.org/2001/XMLSchema-instance" xsi:schemaLocation="http://www.topografix.com/GPX/1/1 http://www.topografix.com/GPX/1/1/gpx.xsd" version="1.1" creator="VisuGPX - https://www.visugpx.com">
  <metadata>
    <name>83 - Me - Carcès </name>
    <desc><![CDATA[83 - Me - Carcès : sur la piste du pont neuf - Nord Carcès 
2024-03-27]]></desc>
  </metadata>
  <trk>
    <name><![CDATA[Carcès sur la piste du pont neuf - Nord carcès 2024-03-27-01]]></name>
    <trkseg>
      <trkpt lat="43.4778" lon="6.18344">
        <ele>132.2</ele>
        <time>2024-03-27T12:55:03Z</time>
      </trkpt>
      <trkpt lat="43.47779" lon="6.18344">
        <ele>132.2</ele>
        <time>2024-03-27T12:55:04Z</time>
      </trkpt>
      <trkpt lat="43.47779" lon="6.18344">
        <ele>132.2</ele>
        <time>2024-03-27T12:55:05Z</time>
      </trkpt>
      <trkpt lat="43.47779" lon="6.18344">
        <ele>132.1</ele>
        <time>2024-03-27T12:55:06Z</time>
      </trkpt>
      <trkpt lat="43.4778" lon="6.18343">
        <ele>132</ele>
        <time>2024-03-27T12:55:07Z</time>
      </trkpt>
      <trkpt lat="43.4778" lon="6.18342">
        <ele>132</ele>
        <time>2024-03-27T12:55:08Z</time>
      </trkpt>
      <trkpt lat="43.4778" lon="6.18343">
        <ele>132</ele>
        <time>2024-03-27T12:55:09Z</time>
      </trkpt>
      <trkpt lat="43.4778" lon="6.18342">
        <ele>132</ele>
        <time>2024-03-27T12:55:10Z</time>
      </trkpt>
      <trkpt lat="43.47779" lon="6.18342">
        <ele>132</ele>
        <time>2024-03-27T12:55:11Z</time>
      </trkpt>
      <trkpt lat="43.47779" lon="6.18342">
        <ele>132.1</ele>
        <time>2024-03-27T12:55:12Z</time>
      </trkpt>
      <trkpt lat="43.47779" lon="6.18342">
        <ele>132.1</ele>
        <time>2024-03-27T12:55:13Z</time>
      </trkpt>
      <trkpt lat="43.47779" lon="6.18342">
        <ele>132.1</ele>
        <time>2024-03-27T12:55:14Z</time>
      </trkpt>
      <trkpt lat="43.47779" lon="6.18342">
        <ele>132.1</ele>
        <time>2024-03-27T12:55:15Z</time>
      </trkpt>
      <trkpt lat="43.47779" lon="6.18341">
        <ele>132.1</ele>
        <time>2024-03-27T12:55:16Z</time>
      </trkpt>
      <trkpt lat="43.47778" lon="6.18341">
        <ele>132.1</ele>
        <time>2024-03-27T12:55:17Z</time>
      </trkpt>
      <trkpt lat="43.47778" lon="6.18341">
        <ele>132</ele>
        <time>2024-03-27T12:55:18Z</time>
      </trkpt>
      <trkpt lat="43.47778" lon="6.18341">
        <ele>132</ele>
        <time>2024-03-27T12:55:19Z</time>
      </trkpt>
      <trkpt lat="43.47778" lon="6.18341">
        <ele>132</ele>
        <time>2024-03-27T12:55:20Z</time>
      </trkpt>
      <trkpt lat="43.47777" lon="6.18341">
        <ele>132</ele>
        <time>2024-03-27T12:55:21Z</time>
      </trkpt>
      <trkpt lat="43.47776" lon="6.1834">
        <ele>131.9</ele>
        <time>2024-03-27T12:55:22Z</time>
      </trkpt>
      <trkpt lat="43.47776" lon="6.1834">
        <ele>131.8</ele>
        <time>2024-03-27T12:55:23Z</time>
      </trkpt>
      <trkpt lat="43.47776" lon="6.1834">
        <ele>131.8</ele>
        <time>2024-03-27T12:55:24Z</time>
      </trkpt>
      <trkpt lat="43.47775" lon="6.18339">
        <ele>131.7</ele>
        <time>2024-03-27T12:55:25Z</time>
      </trkpt>
      <trkpt lat="43.47775" lon="6.18339">
        <ele>131.8</ele>
        <time>2024-03-27T12:55:26Z</time>
      </trkpt>
      <trkpt lat="43.47775" lon="6.18339">
        <ele>131.8</ele>
        <time>2024-03-27T12:55:27Z</time>
      </trkpt>
      <trkpt lat="43.47775" lon="6.18339">
        <ele>131.9</ele>
        <time>2024-03-27T12:55:28Z</time>
      </trkpt>
      <trkpt lat="43.47775" lon="6.18339">
        <ele>131.9</ele>
        <time>2024-03-27T12:55:29Z</time>
      </trkpt>
      <trkpt lat="43.47775" lon="6.18339">
        <ele>131.9</ele>
        <time>2024-03-27T12:55:30Z</time>
      </trkpt>
      <trkpt lat="43.47775" lon="6.18339">
        <ele>131.8</ele>
        <time>2024-03-27T12:55:31Z</time>
      </trkpt>
      <trkpt lat="43.47774" lon="6.18338">
        <ele>131.7</ele>
        <time>2024-03-27T12:55:32Z</time>
      </trkpt>
      <trkpt lat="43.47774" lon="6.18338">
        <ele>131.6</ele>
        <time>2024-03-27T12:55:33Z</time>
      </trkpt>
      <trkpt lat="43.47774" lon="6.18338">
        <ele>131.6</ele>
        <time>2024-03-27T12:55:34Z</time>
      </trkpt>
      <trkpt lat="43.47774" lon="6.18338">
        <ele>131.7</ele>
        <time>2024-03-27T12:55:35Z</time>
      </trkpt>
      <trkpt lat="43.47774" lon="6.18338">
        <ele>131.7</ele>
        <time>2024-03-27T12:55:36Z</time>
      </trkpt>
      <trkpt lat="43.47774" lon="6.18338">
        <ele>131.7</ele>
        <time>2024-03-27T12:55:37Z</time>
      </trkpt>
      <trkpt lat="43.47774" lon="6.18338">
        <ele>131.7</ele>
        <time>2024-03-27T12:55:38Z</time>
      </trkpt>
      <trkpt lat="43.47774" lon="6.18338">
        <ele>131.8</ele>
        <time>2024-03-27T12:55:39Z</time>
      </trkpt>
      <trkpt lat="43.47774" lon="6.18337">
        <ele>131.8</ele>
        <time>2024-03-27T12:55:40Z</time>
      </trkpt>
      <trkpt lat="43.47774" lon="6.18338">
        <ele>131.8</ele>
        <time>2024-03-27T12:55:41Z</time>
      </trkpt>
      <trkpt lat="43.47773" lon="6.18338">
        <ele>131.8</ele>
        <time>2024-03-27T12:55:42Z</time>
      </trkpt>
      <trkpt lat="43.47773" lon="6.18338">
        <ele>131.7</ele>
        <time>2024-03-27T12:55:43Z</time>
      </trkpt>
      <trkpt lat="43.47773" lon="6.18338">
        <ele>132.1</ele>
        <time>2024-03-27T12:55:44Z</time>
      </trkpt>
      <trkpt lat="43.47774" lon="6.18338">
        <ele>132</ele>
        <time>2024-03-27T12:55:45Z</time>
      </trkpt>
      <trkpt lat="43.47774" lon="6.18338">
        <ele>131.9</ele>
        <time>2024-03-27T12:55:46Z</time>
      </trkpt>
      <trkpt lat="43.47774" lon="6.18338">
        <ele>131.8</ele>
        <time>2024-03-27T12:55:47Z</time>
      </trkpt>
      <trkpt lat="43.47774" lon="6.18338">
        <ele>131.9</ele>
        <time>2024-03-27T12:55:48Z</time>
      </trkpt>
      <trkpt lat="43.47774" lon="6.18337">
        <ele>132</ele>
        <time>2024-03-27T12:55:49Z</time>
      </trkpt>
      <trkpt lat="43.47774" lon="6.18338">
        <ele>132</ele>
        <time>2024-03-27T12:55:50Z</time>
      </trkpt>
      <trkpt lat="43.47775" lon="6.18338">
        <ele>132.2</ele>
        <time>2024-03-27T12:55:51Z</time>
      </trkpt>
      <trkpt lat="43.47775" lon="6.18338">
        <ele>130.8</ele>
        <time>2024-03-27T12:55:52Z</time>
      </trkpt>
      <trkpt lat="43.47775" lon="6.18338">
        <ele>131</ele>
        <time>2024-03-27T12:55:53Z</time>
      </trkpt>
      <trkpt lat="43.47775" lon="6.18338">
        <ele>131.1</ele>
        <time>2024-03-27T12:55:54Z</time>
      </trkpt>
      <trkpt lat="43.47775" lon="6.18338">
        <ele>131.2</ele>
        <time>2024-03-27T12:55:55Z</time>
      </trkpt>
      <trkpt lat="43.47775" lon="6.18337">
        <ele>131.3</ele>
        <time>2024-03-27T12:55:56Z</time>
      </trkpt>
      <trkpt lat="43.47775" lon="6.18337">
        <ele>131.3</ele>
        <time>2024-03-27T12:55:57Z</time>
      </trkpt>
      <trkpt lat="43.47775" lon="6.18337">
        <ele>131.3</ele>
        <time>2024-03-27T12:55:58Z</time>
      </trkpt>
      <trkpt lat="43.47775" lon="6.18337">
        <ele>131.4</ele>
        <time>2024-03-27T12:55:59Z</time>
      </trkpt>
      <trkpt lat="43.47775" lon="6.18337">
        <ele>131.4</ele>
        <time>2024-03-27T12:56:00Z</time>
      </trkpt>
      <trkpt lat="43.47775" lon="6.18337">
        <ele>131.5</ele>
        <time>2024-03-27T12:56:01Z</time>
      </trkpt>
      <trkpt lat="43.47775" lon="6.18337">
        <ele>131.5</ele>
        <time>2024-03-27T12:56:02Z</time>
      </trkpt>
      <trkpt lat="43.47775" lon="6.18337">
        <ele>131.6</ele>
        <time>2024-03-27T12:56:03Z</time>
      </trkpt>
      <trkpt lat="43.47775" lon="6.18336">
        <ele>131.6</ele>
        <time>2024-03-27T12:56:04Z</time>
      </trkpt>
      <trkpt lat="43.47776" lon="6.18336">
        <ele>131.6</ele>
        <time>2024-03-27T12:56:05Z</time>
      </trkpt>
      <trkpt lat="43.47776" lon="6.18336">
        <ele>131.6</ele>
        <time>2024-03-27T12:56:06Z</time>
      </trkpt>
      <trkpt lat="43.47776" lon="6.18336">
        <ele>131.7</ele>
        <time>2024-03-27T12:56:07Z</time>
      </trkpt>
      <trkpt lat="43.47776" lon="6.18336">
        <ele>131.8</ele>
        <time>2024-03-27T12:56:08Z</time>
      </trkpt>
      <trkpt lat="43.47776" lon="6.18336">
        <ele>131.9</ele>
        <time>2024-03-27T12:56:09Z</time>
      </trkpt>
      <trkpt lat="43.47776" lon="6.18336">
        <ele>132</ele>
        <time>2024-03-27T12:56:10Z</time>
      </trkpt>
      <trkpt lat="43.47776" lon="6.18335">
        <ele>132.1</ele>
        <time>2024-03-27T12:56:11Z</time>
      </trkpt>
      <trkpt lat="43.47776" lon="6.18335">
        <ele>132.1</ele>
        <time>2024-03-27T12:56:12Z</time>
      </trkpt>
      <trkpt lat="43.47776" lon="6.18335">
        <ele>132.1</ele>
        <time>2024-03-27T12:56:13Z</time>
      </trkpt>
      <trkpt lat="43.47776" lon="6.18335">
        <ele>132.1</ele>
        <time>2024-03-27T12:56:14Z</time>
      </trkpt>
      <trkpt lat="43.47776" lon="6.18335">
        <ele>132.2</ele>
        <time>2024-03-27T12:56:15Z</time>
      </trkpt>
      <trkpt lat="43.47776" lon="6.18335">
        <ele>132.2</ele>
        <time>2024-03-27T12:56:16Z</time>
      </trkpt>
      <trkpt lat="43.47776" lon="6.18335">
        <ele>132.2</ele>
        <time>2024-03-27T12:56:17Z</time>
      </trkpt>
      <trkpt lat="43.47776" lon="6.18335">
        <ele>132.1</ele>
        <time>2024-03-27T12:56:18Z</time>
      </trkpt>
      <trkpt lat="43.47776" lon="6.18335">
        <ele>132.1</ele>
        <time>2024-03-27T12:56:19Z</time>
      </trkpt>
      <trkpt lat="43.47776" lon="6.18335">
        <ele>132.1</ele>
        <time>2024-03-27T12:56:20Z</time>
      </trkpt>
      <trkpt lat="43.47775" lon="6.18335">
        <ele>132.1</ele>
        <time>2024-03-27T12:56:21Z</time>
      </trkpt>
      <trkpt lat="43.47775" lon="6.18335">
        <ele>132.1</ele>
        <time>2024-03-27T12:56:22Z</time>
      </trkpt>
      <trkpt lat="43.47774" lon="6.18335">
        <ele>132.1</ele>
        <time>2024-03-27T12:56:23Z</time>
      </trkpt>
      <trkpt lat="43.47774" lon="6.18337">
        <ele>132.1</ele>
        <time>2024-03-27T12:56:24Z</time>
      </trkpt>
      <trkpt lat="43.47774" lon="6.18339">
        <ele>132.2</ele>
        <time>2024-03-27T12:56:25Z</time>
      </trkpt>
      <trkpt lat="43.47773" lon="6.1834">
        <ele>132.1</ele>
        <time>2024-03-27T12:56:26Z</time>
      </trkpt>
      <trkpt lat="43.47772" lon="6.1834">
        <ele>132.1</ele>
        <time>2024-03-27T12:56:27Z</time>
      </trkpt>
      <trkpt lat="43.47772" lon="6.18341">
        <ele>132.1</ele>
        <time>2024-03-27T12:56:28Z</time>
      </trkpt>
      <trkpt lat="43.47772" lon="6.18342">
        <ele>132.2</ele>
        <time>2024-03-27T12:56:29Z</time>
      </trkpt>
      <trkpt lat="43.47771" lon="6.18342">
        <ele>132.2</ele>
        <time>2024-03-27T12:56:30Z</time>
      </trkpt>
      <trkpt lat="43.47771" lon="6.18343">
        <ele>132.3</ele>
        <time>2024-03-27T12:56:31Z</time>
      </trkpt>
      <trkpt lat="43.47771" lon="6.18343">
        <ele>132.3</ele>
        <time>2024-03-27T12:56:32Z</time>
      </trkpt>
      <trkpt lat="43.47771" lon="6.18343">
        <ele>132.3</ele>
        <time>2024-03-27T12:56:33Z</time>
      </trkpt>
      <trkpt lat="43.47771" lon="6.18343">
        <ele>132.3</ele>
        <time>2024-03-27T12:56:34Z</time>
      </trkpt>
      <trkpt lat="43.47771" lon="6.18343">
        <ele>132.3</ele>
        <time>2024-03-27T12:56:35Z</time>
      </trkpt>
      <trkpt lat="43.47772" lon="6.18343">
        <ele>132.3</ele>
        <time>2024-03-27T12:56:36Z</time>
      </trkpt>
      <trkpt lat="43.47772" lon="6.18343">
        <ele>132.3</ele>
        <time>2024-03-27T12:56:37Z</time>
      </trkpt>
      <trkpt lat="43.47773" lon="6.18343">
        <ele>132.3</ele>
        <time>2024-03-27T12:56:38Z</time>
      </trkpt>
      <trkpt lat="43.47773" lon="6.18343">
        <ele>132.3</ele>
        <time>2024-03-27T12:56:39Z</time>
      </trkpt>
      <trkpt lat="43.47773" lon="6.18343">
        <ele>132.4</ele>
        <time>2024-03-27T12:56:40Z</time>
      </trkpt>
      <trkpt lat="43.47773" lon="6.18343">
        <ele>132.4</ele>
        <time>2024-03-27T12:56:41Z</time>
      </trkpt>
      <trkpt lat="43.47773" lon="6.18342">
        <ele>132.4</ele>
        <time>2024-03-27T12:56:42Z</time>
      </trkpt>
      <trkpt lat="43.47773" lon="6.18342">
        <ele>132.5</ele>
        <time>2024-03-27T12:56:43Z</time>
      </trkpt>
      <trkpt lat="43.47774" lon="6.18341">
        <ele>132.5</ele>
        <time>2024-03-27T12:56:44Z</time>
      </trkpt>
      <trkpt lat="43.47774" lon="6.1834">
        <ele>132.5</ele>
        <time>2024-03-27T12:56:45Z</time>
      </trkpt>
      <trkpt lat="43.47774" lon="6.1834">
        <ele>132.5</ele>
        <time>2024-03-27T12:56:46Z</time>
      </trkpt>
      <trkpt lat="43.47775" lon="6.18339">
        <ele>132.4</ele>
        <time>2024-03-27T12:56:47Z</time>
      </trkpt>
      <trkpt lat="43.47776" lon="6.18339">
        <ele>132.4</ele>
        <time>2024-03-27T12:56:48Z</time>
      </trkpt>
      <trkpt lat="43.47776" lon="6.18338">
        <ele>132.4</ele>
        <time>2024-03-27T12:56:49Z</time>
      </trkpt>
      <trkpt lat="43.47777" lon="6.18337">
        <ele>132.3</ele>
        <time>2024-03-27T12:56:50Z</time>
      </trkpt>
      <trkpt lat="43.47777" lon="6.18337">
        <ele>132.3</ele>
        <time>2024-03-27T12:56:51Z</time>
      </trkpt>
      <trkpt lat="43.47777" lon="6.18337">
        <ele>132.3</ele>
        <time>2024-03-27T12:56:52Z</time>
      </trkpt>
      <trkpt lat="43.47777" lon="6.18337">
        <ele>132.2</ele>
        <time>2024-03-27T12:56:53Z</time>
      </trkpt>
      <trkpt lat="43.47777" lon="6.18337">
        <ele>132.1</ele>
        <time>2024-03-27T12:56:54Z</time>
      </trkpt>
      <trkpt lat="43.47777" lon="6.18337">
        <ele>132</ele>
        <time>2024-03-27T12:56:55Z</time>
      </trkpt>
      <trkpt lat="43.47778" lon="6.18337">
        <ele>132</ele>
        <time>2024-03-27T12:56:56Z</time>
      </trkpt>
      <trkpt lat="43.47778" lon="6.18337">
        <ele>131.9</ele>
        <time>2024-03-27T12:56:57Z</time>
      </trkpt>
      <trkpt lat="43.47778" lon="6.18337">
        <ele>131.9</ele>
        <time>2024-03-27T12:56:58Z</time>
      </trkpt>
      <trkpt lat="43.47778" lon="6.18337">
        <ele>131.9</ele>
        <time>2024-03-27T12:56:59Z</time>
      </trkpt>
      <trkpt lat="43.47778" lon="6.18338">
        <ele>131.8</ele>
        <time>2024-03-27T12:57:00Z</time>
      </trkpt>
      <trkpt lat="43.47778" lon="6.18338">
        <ele>131.7</ele>
        <time>2024-03-27T12:57:01Z</time>
      </trkpt>
      <trkpt lat="43.47778" lon="6.18338">
        <ele>131.7</ele>
        <time>2024-03-27T12:57:02Z</time>
      </trkpt>
      <trkpt lat="43.47778" lon="6.18338">
        <ele>131.5</ele>
        <time>2024-03-27T12:57:03Z</time>
      </trkpt>
      <trkpt lat="43.47778" lon="6.18338">
        <ele>131.4</ele>
        <time>2024-03-27T12:57:04Z</time>
      </trkpt>
      <trkpt lat="43.47778" lon="6.18338">
        <ele>131.3</ele>
        <time>2024-03-27T12:57:05Z</time>
      </trkpt>
      <trkpt lat="43.47778" lon="6.18338">
        <ele>131.3</ele>
        <time>2024-03-27T12:57:06Z</time>
      </trkpt>
      <trkpt lat="43.47778" lon="6.18338">
        <ele>131.3</ele>
        <time>2024-03-27T12:57:07Z</time>
      </trkpt>
      <trkpt lat="43.47778" lon="6.18338">
        <ele>131.3</ele>
        <time>2024-03-27T12:57:08Z</time>
      </trkpt>
      <trkpt lat="43.47778" lon="6.18338">
        <ele>131.3</ele>
        <time>2024-03-27T12:57:09Z</time>
      </trkpt>
      <trkpt lat="43.47778" lon="6.18338">
        <ele>131.2</ele>
        <time>2024-03-27T12:57:10Z</time>
      </trkpt>
      <trkpt lat="43.47778" lon="6.18338">
        <ele>131.1</ele>
        <time>2024-03-27T12:57:11Z</time>
      </trkpt>
      <trkpt lat="43.47778" lon="6.18338">
        <ele>131.1</ele>
        <time>2024-03-27T12:57:12Z</time>
      </trkpt>
      <trkpt lat="43.47778" lon="6.18338">
        <ele>131.1</ele>
        <time>2024-03-27T12:57:13Z</time>
      </trkpt>
      <trkpt lat="43.47778" lon="6.18338">
        <ele>131.1</ele>
        <time>2024-03-27T12:57:14Z</time>
      </trkpt>
      <trkpt lat="43.47778" lon="6.18338">
        <ele>131</ele>
        <time>2024-03-27T12:57:15Z</time>
      </trkpt>
      <trkpt lat="43.47778" lon="6.18338">
        <ele>131.1</ele>
        <time>2024-03-27T12:57:16Z</time>
      </trkpt>
      <trkpt lat="43.47778" lon="6.18338">
        <ele>131.2</ele>
        <time>2024-03-27T12:57:17Z</time>
      </trkpt>
      <trkpt lat="43.47778" lon="6.18338">
        <ele>131.2</ele>
        <time>2024-03-27T12:57:18Z</time>
      </trkpt>
      <trkpt lat="43.47778" lon="6.18338">
        <ele>131.3</ele>
        <time>2024-03-27T12:57:19Z</time>
      </trkpt>
      <trkpt lat="43.47778" lon="6.18338">
        <ele>131.4</ele>
        <time>2024-03-27T12:57:20Z</time>
      </trkpt>
      <trkpt lat="43.47778" lon="6.18338">
        <ele>131.5</ele>
        <time>2024-03-27T12:57:21Z</time>
      </trkpt>
      <trkpt lat="43.47778" lon="6.18338">
        <ele>131.6</ele>
        <time>2024-03-27T12:57:22Z</time>
      </trkpt>
      <trkpt lat="43.47778" lon="6.18338">
        <ele>131.6</ele>
        <time>2024-03-27T12:57:23Z</time>
      </trkpt>
      <trkpt lat="43.47778" lon="6.18338">
        <ele>131.6</ele>
        <time>2024-03-27T12:57:24Z</time>
      </trkpt>
      <trkpt lat="43.47778" lon="6.18338">
        <ele>131.5</ele>
        <time>2024-03-27T12:57:25Z</time>
      </trkpt>
      <trkpt lat="43.47778" lon="6.18338">
        <ele>131.5</ele>
        <time>2024-03-27T12:57:26Z</time>
      </trkpt>
      <trkpt lat="43.47778" lon="6.18338">
        <ele>131.5</ele>
        <time>2024-03-27T12:57:27Z</time>
      </trkpt>
      <trkpt lat="43.47778" lon="6.18338">
        <ele>131.5</ele>
        <time>2024-03-27T12:57:28Z</time>
      </trkpt>
      <trkpt lat="43.47777" lon="6.18338">
        <ele>131.5</ele>
        <time>2024-03-27T12:57:29Z</time>
      </trkpt>
      <trkpt lat="43.47777" lon="6.18339">
        <ele>131.5</ele>
        <time>2024-03-27T12:57:30Z</time>
      </trkpt>
      <trkpt lat="43.47777" lon="6.18339">
        <ele>131.5</ele>
        <time>2024-03-27T12:57:31Z</time>
      </trkpt>
      <trkpt lat="43.47777" lon="6.18339">
        <ele>131.5</ele>
        <time>2024-03-27T12:57:32Z</time>
      </trkpt>
      <trkpt lat="43.47777" lon="6.1834">
        <ele>131.5</ele>
        <time>2024-03-27T12:57:33Z</time>
      </trkpt>
      <trkpt lat="43.47777" lon="6.18341">
        <ele>131.5</ele>
        <time>2024-03-27T12:57:34Z</time>
      </trkpt>
      <trkpt lat="43.47776" lon="6.18342">
        <ele>131.5</ele>
        <time>2024-03-27T12:57:35Z</time>
      </trkpt>
      <trkpt lat="43.47776" lon="6.18344">
        <ele>131.5</ele>
        <time>2024-03-27T12:57:36Z</time>
      </trkpt>
      <trkpt lat="43.47775" lon="6.18345">
        <ele>131.5</ele>
        <time>2024-03-27T12:57:37Z</time>
      </trkpt>
      <trkpt lat="43.47774" lon="6.18346">
        <ele>131.4</ele>
        <time>2024-03-27T12:57:38Z</time>
      </trkpt>
      <trkpt lat="43.47773" lon="6.18346">
        <ele>131.4</ele>
        <time>2024-03-27T12:57:39Z</time>
      </trkpt>
      <trkpt lat="43.47773" lon="6.18347">
        <ele>131.5</ele>
        <time>2024-03-27T12:57:40Z</time>
      </trkpt>
      <trkpt lat="43.47773" lon="6.18347">
        <ele>131.5</ele>
        <time>2024-03-27T12:57:41Z</time>
      </trkpt>
      <trkpt lat="43.47773" lon="6.18347">
        <ele>131.6</ele>
        <time>2024-03-27T12:57:42Z</time>
      </trkpt>
      <trkpt lat="43.47773" lon="6.18347">
        <ele>131.7</ele>
        <time>2024-03-27T12:57:43Z</time>
      </trkpt>
      <trkpt lat="43.47774" lon="6.18346">
        <ele>131.7</ele>
        <time>2024-03-27T12:57:44Z</time>
      </trkpt>
      <trkpt lat="43.47774" lon="6.18345">
        <ele>131.8</ele>
        <time>2024-03-27T12:57:45Z</time>
      </trkpt>
      <trkpt lat="43.47775" lon="6.18344">
        <ele>131.8</ele>
        <time>2024-03-27T12:57:46Z</time>
      </trkpt>
      <trkpt lat="43.47775" lon="6.18343">
        <ele>131.9</ele>
        <time>2024-03-27T12:57:47Z</time>
      </trkpt>
      <trkpt lat="43.47776" lon="6.18342">
        <ele>131.9</ele>
        <time>2024-03-27T12:57:48Z</time>
      </trkpt>
      <trkpt lat="43.47777" lon="6.18342">
        <ele>131.9</ele>
        <time>2024-03-27T12:57:49Z</time>
      </trkpt>
      <trkpt lat="43.47777" lon="6.18341">
        <ele>131.8</ele>
        <time>2024-03-27T12:57:50Z</time>
      </trkpt>
      <trkpt lat="43.47777" lon="6.18341">
        <ele>131.8</ele>
        <time>2024-03-27T12:57:51Z</time>
      </trkpt>
      <trkpt lat="43.47777" lon="6.18341">
        <ele>131.7</ele>
        <time>2024-03-27T12:57:52Z</time>
      </trkpt>
      <trkpt lat="43.47777" lon="6.18341">
        <ele>131.7</ele>
        <time>2024-03-27T12:57:53Z</time>
      </trkpt>
      <trkpt lat="43.47778" lon="6.18341">
        <ele>131.6</ele>
        <time>2024-03-27T12:57:54Z</time>
      </trkpt>
      <trkpt lat="43.47777" lon="6.18341">
        <ele>131.6</ele>
        <time>2024-03-27T12:57:55Z</time>
      </trkpt>
      <trkpt lat="43.47777" lon="6.18341">
        <ele>131.6</ele>
        <time>2024-03-27T12:57:56Z</time>
      </trkpt>
      <trkpt lat="43.47777" lon="6.18341">
        <ele>131.5</ele>
        <time>2024-03-27T12:57:57Z</time>
      </trkpt>
      <trkpt lat="43.47777" lon="6.18341">
        <ele>131.6</ele>
        <time>2024-03-27T12:57:58Z</time>
      </trkpt>
      <trkpt lat="43.47777" lon="6.18341">
        <ele>131.6</ele>
        <time>2024-03-27T12:57:59Z</time>
      </trkpt>
      <trkpt lat="43.47777" lon="6.18341">
        <ele>131.5</ele>
        <time>2024-03-27T12:58:00Z</time>
      </trkpt>
      <trkpt lat="43.47777" lon="6.18341">
        <ele>131.5</ele>
        <time>2024-03-27T12:58:01Z</time>
      </trkpt>
      <trkpt lat="43.47777" lon="6.18341">
        <ele>131.6</ele>
        <time>2024-03-27T12:58:02Z</time>
      </trkpt>
      <trkpt lat="43.47777" lon="6.18341">
        <ele>131.6</ele>
        <time>2024-03-27T12:58:03Z</time>
      </trkpt>
      <trkpt lat="43.47777" lon="6.18341">
        <ele>131.6</ele>
        <time>2024-03-27T12:58:04Z</time>
      </trkpt>
      <trkpt lat="43.47777" lon="6.18341">
        <ele>131.5</ele>
        <time>2024-03-27T12:58:05Z</time>
      </trkpt>
      <trkpt lat="43.47777" lon="6.18341">
        <ele>131.4</ele>
        <time>2024-03-27T12:58:06Z</time>
      </trkpt>
      <trkpt lat="43.47777" lon="6.18341">
        <ele>131.3</ele>
        <time>2024-03-27T12:58:07Z</time>
      </trkpt>
      <trkpt lat="43.47777" lon="6.18341">
        <ele>131.3</ele>
        <time>2024-03-27T12:58:08Z</time>
      </trkpt>
      <trkpt lat="43.47777" lon="6.18341">
        <ele>131.2</ele>
        <time>2024-03-27T12:58:09Z</time>
      </trkpt>
      <trkpt lat="43.47776" lon="6.18341">
        <ele>131.1</ele>
        <time>2024-03-27T12:58:10Z</time>
      </trkpt>
      <trkpt lat="43.47776" lon="6.18341">
        <ele>131.1</ele>
        <time>2024-03-27T12:58:11Z</time>
      </trkpt>
      <trkpt lat="43.47776" lon="6.18341">
        <ele>131.1</ele>
        <time>2024-03-27T12:58:12Z</time>
      </trkpt>
      <trkpt lat="43.47776" lon="6.18341">
        <ele>131.2</ele>
        <time>2024-03-27T12:58:13Z</time>
      </trkpt>
      <trkpt lat="43.47776" lon="6.18341">
        <ele>131.2</ele>
        <time>2024-03-27T12:58:14Z</time>
      </trkpt>
      <trkpt lat="43.47776" lon="6.18341">
        <ele>131.2</ele>
        <time>2024-03-27T12:58:15Z</time>
      </trkpt>
      <trkpt lat="43.47776" lon="6.18341">
        <ele>131.2</ele>
        <time>2024-03-27T12:58:16Z</time>
      </trkpt>
      <trkpt lat="43.47776" lon="6.18341">
        <ele>131.3</ele>
        <time>2024-03-27T12:58:17Z</time>
      </trkpt>
      <trkpt lat="43.47775" lon="6.18342">
        <ele>131.3</ele>
        <time>2024-03-27T12:58:18Z</time>
      </trkpt>
      <trkpt lat="43.47775" lon="6.18342">
        <ele>131.3</ele>
        <time>2024-03-27T12:58:19Z</time>
      </trkpt>
      <trkpt lat="43.47774" lon="6.18343">
        <ele>131.3</ele>
        <time>2024-03-27T12:58:20Z</time>
      </trkpt>
      <trkpt lat="43.47774" lon="6.18343">
        <ele>131.3</ele>
        <time>2024-03-27T12:58:21Z</time>
      </trkpt>
      <trkpt lat="43.47773" lon="6.18342">
        <ele>131.3</ele>
        <time>2024-03-27T12:58:22Z</time>
      </trkpt>
      <trkpt lat="43.47773" lon="6.18342">
        <ele>131.3</ele>
        <time>2024-03-27T12:58:23Z</time>
      </trkpt>
      <trkpt lat="43.47772" lon="6.18341">
        <ele>131.3</ele>
        <time>2024-03-27T12:58:24Z</time>
      </trkpt>
      <trkpt lat="43.47772" lon="6.1834">
        <ele>131.4</ele>
        <time>2024-03-27T12:58:25Z</time>
      </trkpt>
      <trkpt lat="43.47771" lon="6.1834">
        <ele>131.5</ele>
        <time>2024-03-27T12:58:26Z</time>
      </trkpt>
      <trkpt lat="43.4777" lon="6.18339">
        <ele>131.6</ele>
        <time>2024-03-27T12:58:27Z</time>
      </trkpt>
      <trkpt lat="43.4777" lon="6.18338">
        <ele>131.6</ele>
        <time>2024-03-27T12:58:28Z</time>
      </trkpt>
      <trkpt lat="43.47769" lon="6.18338">
        <ele>131.7</ele>
        <time>2024-03-27T12:58:29Z</time>
      </trkpt>
      <trkpt lat="43.47768" lon="6.18338">
        <ele>131.7</ele>
        <time>2024-03-27T12:58:30Z</time>
      </trkpt>
      <trkpt lat="43.47768" lon="6.18338">
        <ele>131.8</ele>
        <time>2024-03-27T12:58:31Z</time>
      </trkpt>
      <trkpt lat="43.47767" lon="6.18338">
        <ele>131.9</ele>
        <time>2024-03-27T12:58:32Z</time>
      </trkpt>
      <trkpt lat="43.47767" lon="6.18337">
        <ele>131.8</ele>
        <time>2024-03-27T12:58:33Z</time>
      </trkpt>
      <trkpt lat="43.47766" lon="6.18336">
        <ele>131.7</ele>
        <time>2024-03-27T12:58:34Z</time>
      </trkpt>
      <trkpt lat="43.47766" lon="6.18336">
        <ele>131.6</ele>
        <time>2024-03-27T12:58:35Z</time>
      </trkpt>
      <trkpt lat="43.47765" lon="6.18336">
        <ele>131.5</ele>
        <time>2024-03-27T12:58:36Z</time>
      </trkpt>
      <trkpt lat="43.47764" lon="6.18335">
        <ele>131.5</ele>
        <time>2024-03-27T12:58:37Z</time>
      </trkpt>
      <trkpt lat="43.47764" lon="6.18335">
        <ele>131.7</ele>
        <time>2024-03-27T12:58:38Z</time>
      </trkpt>
      <trkpt lat="43.47763" lon="6.18335">
        <ele>131.8</ele>
        <time>2024-03-27T12:58:39Z</time>
      </trkpt>
      <trkpt lat="43.47763" lon="6.18335">
        <ele>132</ele>
        <time>2024-03-27T12:58:40Z</time>
      </trkpt>
      <trkpt lat="43.47763" lon="6.18334">
        <ele>132.2</ele>
        <time>2024-03-27T12:58:41Z</time>
      </trkpt>
      <trkpt lat="43.47762" lon="6.18333">
        <ele>132.4</ele>
        <time>2024-03-27T12:58:42Z</time>
      </trkpt>
      <trkpt lat="43.47762" lon="6.18332">
        <ele>132.5</ele>
        <time>2024-03-27T12:58:43Z</time>
      </trkpt>
      <trkpt lat="43.47761" lon="6.18331">
        <ele>132.6</ele>
        <time>2024-03-27T12:58:44Z</time>
      </trkpt>
      <trkpt lat="43.4776" lon="6.1833">
        <ele>132.7</ele>
        <time>2024-03-27T12:58:45Z</time>
      </trkpt>
      <trkpt lat="43.47759" lon="6.18329">
        <ele>132.7</ele>
        <time>2024-03-27T12:58:46Z</time>
      </trkpt>
      <trkpt lat="43.47759" lon="6.18327">
        <ele>132.8</ele>
        <time>2024-03-27T12:58:47Z</time>
      </trkpt>
      <trkpt lat="43.47759" lon="6.18326">
        <ele>132.8</ele>
        <time>2024-03-27T12:58:48Z</time>
      </trkpt>
      <trkpt lat="43.47759" lon="6.18324">
        <ele>132.8</ele>
        <time>2024-03-27T12:58:49Z</time>
      </trkpt>
      <trkpt lat="43.47759" lon="6.18323">
        <ele>132.8</ele>
        <time>2024-03-27T12:58:50Z</time>
      </trkpt>
      <trkpt lat="43.47759" lon="6.18322">
        <ele>132.8</ele>
        <time>2024-03-27T12:58:51Z</time>
      </trkpt>
      <trkpt lat="43.47759" lon="6.18321">
        <ele>132.8</ele>
        <time>2024-03-27T12:58:52Z</time>
      </trkpt>
      <trkpt lat="43.47759" lon="6.1832">
        <ele>132.8</ele>
        <time>2024-03-27T12:58:53Z</time>
      </trkpt>
      <trkpt lat="43.47758" lon="6.18319">
        <ele>132.7</ele>
        <time>2024-03-27T12:58:54Z</time>
      </trkpt>
      <trkpt lat="43.47758" lon="6.18318">
        <ele>132.6</ele>
        <time>2024-03-27T12:58:55Z</time>
      </trkpt>
      <trkpt lat="43.47758" lon="6.18316">
        <ele>132.6</ele>
        <time>2024-03-27T12:58:56Z</time>
      </trkpt>
      <trkpt lat="43.47758" lon="6.18316">
        <ele>132.6</ele>
        <time>2024-03-27T12:58:57Z</time>
      </trkpt>
      <trkpt lat="43.47758" lon="6.18314">
        <ele>132.6</ele>
        <time>2024-03-27T12:58:58Z</time>
      </trkpt>
      <trkpt lat="43.47759" lon="6.18313">
        <ele>132.6</ele>
        <time>2024-03-27T12:58:59Z</time>
      </trkpt>
      <trkpt lat="43.47758" lon="6.18312">
        <ele>132.5</ele>
        <time>2024-03-27T12:59:00Z</time>
      </trkpt>
      <trkpt lat="43.47758" lon="6.18312">
        <ele>132.5</ele>
        <time>2024-03-27T12:59:01Z</time>
      </trkpt>
      <trkpt lat="43.47758" lon="6.1831">
        <ele>132.4</ele>
        <time>2024-03-27T12:59:02Z</time>
      </trkpt>
      <trkpt lat="43.47758" lon="6.18309">
        <ele>132.5</ele>
        <time>2024-03-27T12:59:03Z</time>
      </trkpt>
      <trkpt lat="43.47758" lon="6.18307">
        <ele>132.5</ele>
        <time>2024-03-27T12:59:04Z</time>
      </trkpt>
      <trkpt lat="43.47758" lon="6.18306">
        <ele>132.5</ele>
        <time>2024-03-27T12:59:05Z</time>
      </trkpt>
      <trkpt lat="43.47758" lon="6.18304">
        <ele>132.5</ele>
        <time>2024-03-27T12:59:06Z</time>
      </trkpt>
      <trkpt lat="43.47758" lon="6.18303">
        <ele>132.5</ele>
        <time>2024-03-27T12:59:07Z</time>
      </trkpt>
      <trkpt lat="43.47759" lon="6.18301">
        <ele>132.5</ele>
        <time>2024-03-27T12:59:08Z</time>
      </trkpt>
      <trkpt lat="43.47758" lon="6.183">
        <ele>132.5</ele>
        <time>2024-03-27T12:59:09Z</time>
      </trkpt>
      <trkpt lat="43.47759" lon="6.18298">
        <ele>132.5</ele>
        <time>2024-03-27T12:59:10Z</time>
      </trkpt>
      <trkpt lat="43.47759" lon="6.18296">
        <ele>132.5</ele>
        <time>2024-03-27T12:59:11Z</time>
      </trkpt>
      <trkpt lat="43.47759" lon="6.18295">
        <ele>132.6</ele>
        <time>2024-03-27T12:59:12Z</time>
      </trkpt>
      <trkpt lat="43.47759" lon="6.18294">
        <ele>132.6</ele>
        <time>2024-03-27T12:59:13Z</time>
      </trkpt>
      <trkpt lat="43.47759" lon="6.18292">
        <ele>132.7</ele>
        <time>2024-03-27T12:59:14Z</time>
      </trkpt>
      <trkpt lat="43.4776" lon="6.18291">
        <ele>132.7</ele>
        <time>2024-03-27T12:59:15Z</time>
      </trkpt>
      <trkpt lat="43.4776" lon="6.18289">
        <ele>132.7</ele>
        <time>2024-03-27T12:59:16Z</time>
      </trkpt>
      <trkpt lat="43.4776" lon="6.18288">
        <ele>132.7</ele>
        <time>2024-03-27T12:59:17Z</time>
      </trkpt>
      <trkpt lat="43.4776" lon="6.18287">
        <ele>132.9</ele>
        <time>2024-03-27T12:59:18Z</time>
      </trkpt>
      <trkpt lat="43.4776" lon="6.18285">
        <ele>133</ele>
        <time>2024-03-27T12:59:19Z</time>
      </trkpt>
      <trkpt lat="43.4776" lon="6.18284">
        <ele>133.1</ele>
        <time>2024-03-27T12:59:20Z</time>
      </trkpt>
      <trkpt lat="43.4776" lon="6.18283">
        <ele>133.1</ele>
        <time>2024-03-27T12:59:21Z</time>
      </trkpt>
      <trkpt lat="43.47761" lon="6.18281">
        <ele>133.1</ele>
        <time>2024-03-27T12:59:22Z</time>
      </trkpt>
      <trkpt lat="43.47761" lon="6.1828">
        <ele>133.1</ele>
        <time>2024-03-27T12:59:23Z</time>
      </trkpt>
      <trkpt lat="43.47761" lon="6.18278">
        <ele>133.1</ele>
        <time>2024-03-27T12:59:24Z</time>
      </trkpt>
      <trkpt lat="43.47761" lon="6.18277">
        <ele>133.1</ele>
        <time>2024-03-27T12:59:25Z</time>
      </trkpt>
      <trkpt lat="43.47761" lon="6.18275">
        <ele>133.3</ele>
        <time>2024-03-27T12:59:26Z</time>
      </trkpt>
      <trkpt lat="43.47761" lon="6.18274">
        <ele>133.3</ele>
        <time>2024-03-27T12:59:27Z</time>
      </trkpt>
      <trkpt lat="43.47761" lon="6.18273">
        <ele>133.3</ele>
        <time>2024-03-27T12:59:28Z</time>
      </trkpt>
      <trkpt lat="43.47761" lon="6.18271">
        <ele>133.3</ele>
        <time>2024-03-27T12:59:29Z</time>
      </trkpt>
      <trkpt lat="43.4776" lon="6.18269">
        <ele>133.3</ele>
        <time>2024-03-27T12:59:30Z</time>
      </trkpt>
      <trkpt lat="43.4776" lon="6.18268">
        <ele>133.2</ele>
        <time>2024-03-27T12:59:31Z</time>
      </trkpt>
      <trkpt lat="43.4776" lon="6.18266">
        <ele>133.1</ele>
        <time>2024-03-27T12:59:32Z</time>
      </trkpt>
      <trkpt lat="43.4776" lon="6.18264">
        <ele>133.1</ele>
        <time>2024-03-27T12:59:33Z</time>
      </trkpt>
      <trkpt lat="43.4776" lon="6.18263">
        <ele>133.1</ele>
        <time>2024-03-27T12:59:34Z</time>
      </trkpt>
      <trkpt lat="43.47759" lon="6.18261">
        <ele>133</ele>
        <time>2024-03-27T12:59:35Z</time>
      </trkpt>
      <trkpt lat="43.47759" lon="6.1826">
        <ele>133</ele>
        <time>2024-03-27T12:59:36Z</time>
      </trkpt>
      <trkpt lat="43.47759" lon="6.18258">
        <ele>133</ele>
        <time>2024-03-27T12:59:37Z</time>
      </trkpt>
      <trkpt lat="43.47758" lon="6.18257">
        <ele>133</ele>
        <time>2024-03-27T12:59:38Z</time>
      </trkpt>
      <trkpt lat="43.47757" lon="6.18255">
        <ele>133</ele>
        <time>2024-03-27T12:59:39Z</time>
      </trkpt>
      <trkpt lat="43.47757" lon="6.18253">
        <ele>133</ele>
        <time>2024-03-27T12:59:40Z</time>
      </trkpt>
      <trkpt lat="43.47756" lon="6.18252">
        <ele>132.9</ele>
        <time>2024-03-27T12:59:41Z</time>
      </trkpt>
      <trkpt lat="43.47755" lon="6.1825">
        <ele>133.1</ele>
        <time>2024-03-27T12:59:42Z</time>
      </trkpt>
      <trkpt lat="43.47755" lon="6.18249">
        <ele>133.2</ele>
        <time>2024-03-27T12:59:43Z</time>
      </trkpt>
      <trkpt lat="43.47754" lon="6.18247">
        <ele>133.3</ele>
        <time>2024-03-27T12:59:44Z</time>
      </trkpt>
      <trkpt lat="43.47754" lon="6.18245">
        <ele>133.4</ele>
        <time>2024-03-27T12:59:45Z</time>
      </trkpt>
      <trkpt lat="43.47754" lon="6.18244">
        <ele>133.5</ele>
        <time>2024-03-27T12:59:46Z</time>
      </trkpt>
      <trkpt lat="43.47753" lon="6.18242">
        <ele>133.6</ele>
        <time>2024-03-27T12:59:47Z</time>
      </trkpt>
      <trkpt lat="43.47753" lon="6.18241">
        <ele>133.6</ele>
        <time>2024-03-27T12:59:48Z</time>
      </trkpt>
      <trkpt lat="43.47752" lon="6.18239">
        <ele>133.5</ele>
        <time>2024-03-27T12:59:49Z</time>
      </trkpt>
      <trkpt lat="43.47751" lon="6.18237">
        <ele>133.6</ele>
        <time>2024-03-27T12:59:50Z</time>
      </trkpt>
      <trkpt lat="43.47751" lon="6.18236">
        <ele>133.6</ele>
        <time>2024-03-27T12:59:51Z</time>
      </trkpt>
      <trkpt lat="43.4775" lon="6.18234">
        <ele>133.6</ele>
        <time>2024-03-27T12:59:52Z</time>
      </trkpt>
      <trkpt lat="43.47749" lon="6.18232">
        <ele>133.5</ele>
        <time>2024-03-27T12:59:53Z</time>
      </trkpt>
      <trkpt lat="43.47748" lon="6.18231">
        <ele>133.4</ele>
        <time>2024-03-27T12:59:54Z</time>
      </trkpt>
      <trkpt lat="43.47747" lon="6.18229">
        <ele>133.3</ele>
        <time>2024-03-27T12:59:55Z</time>
      </trkpt>
      <trkpt lat="43.47746" lon="6.18228">
        <ele>133.2</ele>
        <time>2024-03-27T12:59:56Z</time>
      </trkpt>
      <trkpt lat="43.47746" lon="6.18227">
        <ele>133.3</ele>
        <time>2024-03-27T12:59:57Z</time>
      </trkpt>
      <trkpt lat="43.47745" lon="6.18226">
        <ele>133.3</ele>
        <time>2024-03-27T12:59:58Z</time>
      </trkpt>
      <trkpt lat="43.47745" lon="6.18225">
        <ele>133.4</ele>
        <time>2024-03-27T12:59:59Z</time>
      </trkpt>
      <trkpt lat="43.47744" lon="6.18224">
        <ele>133.6</ele>
        <time>2024-03-27T13:00:00Z</time>
      </trkpt>
      <trkpt lat="43.47744" lon="6.18222">
        <ele>133.9</ele>
        <time>2024-03-27T13:00:01Z</time>
      </trkpt>
      <trkpt lat="43.47744" lon="6.18221">
        <ele>134</ele>
        <time>2024-03-27T13:00:02Z</time>
      </trkpt>
      <trkpt lat="43.47743" lon="6.1822">
        <ele>134.2</ele>
        <time>2024-03-27T13:00:03Z</time>
      </trkpt>
      <trkpt lat="43.47743" lon="6.18218">
        <ele>134.3</ele>
        <time>2024-03-27T13:00:04Z</time>
      </trkpt>
      <trkpt lat="43.47742" lon="6.18217">
        <ele>134.5</ele>
        <time>2024-03-27T13:00:05Z</time>
      </trkpt>
      <trkpt lat="43.47742" lon="6.18215">
        <ele>134.6</ele>
        <time>2024-03-27T13:00:06Z</time>
      </trkpt>
      <trkpt lat="43.47742" lon="6.18213">
        <ele>134.7</ele>
        <time>2024-03-27T13:00:07Z</time>
      </trkpt>
      <trkpt lat="43.47741" lon="6.18212">
        <ele>134.9</ele>
        <time>2024-03-27T13:00:08Z</time>
      </trkpt>
      <trkpt lat="43.47741" lon="6.1821">
        <ele>135</ele>
        <time>2024-03-27T13:00:09Z</time>
      </trkpt>
      <trkpt lat="43.47741" lon="6.18208">
        <ele>135</ele>
        <time>2024-03-27T13:00:10Z</time>
      </trkpt>
      <trkpt lat="43.47741" lon="6.18206">
        <ele>135</ele>
        <time>2024-03-27T13:00:11Z</time>
      </trkpt>
      <trkpt lat="43.47741" lon="6.18205">
        <ele>134.9</ele>
        <time>2024-03-27T13:00:12Z</time>
      </trkpt>
      <trkpt lat="43.47741" lon="6.18203">
        <ele>134.8</ele>
        <time>2024-03-27T13:00:13Z</time>
      </trkpt>
      <trkpt lat="43.47741" lon="6.18202">
        <ele>134.8</ele>
        <time>2024-03-27T13:00:14Z</time>
      </trkpt>
      <trkpt lat="43.47741" lon="6.182">
        <ele>134.7</ele>
        <time>2024-03-27T13:00:15Z</time>
      </trkpt>
      <trkpt lat="43.47741" lon="6.18198">
        <ele>134.7</ele>
        <time>2024-03-27T13:00:16Z</time>
      </trkpt>
      <trkpt lat="43.47741" lon="6.18197">
        <ele>134.7</ele>
        <time>2024-03-27T13:00:17Z</time>
      </trkpt>
      <trkpt lat="43.4774" lon="6.18195">
        <ele>134.7</ele>
        <time>2024-03-27T13:00:18Z</time>
      </trkpt>
      <trkpt lat="43.47739" lon="6.18194">
        <ele>134.8</ele>
        <time>2024-03-27T13:00:19Z</time>
      </trkpt>
      <trkpt lat="43.47739" lon="6.18193">
        <ele>134.8</ele>
        <time>2024-03-27T13:00:20Z</time>
      </trkpt>
      <trkpt lat="43.47738" lon="6.18191">
        <ele>134.8</ele>
        <time>2024-03-27T13:00:21Z</time>
      </trkpt>
      <trkpt lat="43.47737" lon="6.18189">
        <ele>134.8</ele>
        <time>2024-03-27T13:00:22Z</time>
      </trkpt>
      <trkpt lat="43.47737" lon="6.18188">
        <ele>134.8</ele>
        <time>2024-03-27T13:00:23Z</time>
      </trkpt>
      <trkpt lat="43.47737" lon="6.18187">
        <ele>134.8</ele>
        <time>2024-03-27T13:00:24Z</time>
      </trkpt>
      <trkpt lat="43.47736" lon="6.18186">
        <ele>134.8</ele>
        <time>2024-03-27T13:00:25Z</time>
      </trkpt>
      <trkpt lat="43.47736" lon="6.18184">
        <ele>134.8</ele>
        <time>2024-03-27T13:00:26Z</time>
      </trkpt>
      <trkpt lat="43.47736" lon="6.18182">
        <ele>134.8</ele>
        <time>2024-03-27T13:00:27Z</time>
      </trkpt>
      <trkpt lat="43.47736" lon="6.18181">
        <ele>134.8</ele>
        <time>2024-03-27T13:00:28Z</time>
      </trkpt>
      <trkpt lat="43.47735" lon="6.18179">
        <ele>134.8</ele>
        <time>2024-03-27T13:00:29Z</time>
      </trkpt>
      <trkpt lat="43.47735" lon="6.18178">
        <ele>134.9</ele>
        <time>2024-03-27T13:00:30Z</time>
      </trkpt>
      <trkpt lat="43.47735" lon="6.18176">
        <ele>134.9</ele>
        <time>2024-03-27T13:00:31Z</time>
      </trkpt>
      <trkpt lat="43.47734" lon="6.18174">
        <ele>135</ele>
        <time>2024-03-27T13:00:32Z</time>
      </trkpt>
      <trkpt lat="43.47734" lon="6.18172">
        <ele>135</ele>
        <time>2024-03-27T13:00:33Z</time>
      </trkpt>
      <trkpt lat="43.47734" lon="6.18171">
        <ele>135.1</ele>
        <time>2024-03-27T13:00:34Z</time>
      </trkpt>
      <trkpt lat="43.47734" lon="6.18169">
        <ele>135.1</ele>
        <time>2024-03-27T13:00:35Z</time>
      </trkpt>
      <trkpt lat="43.47734" lon="6.18168">
        <ele>135.2</ele>
        <time>2024-03-27T13:00:36Z</time>
      </trkpt>
      <trkpt lat="43.47733" lon="6.18166">
        <ele>135.2</ele>
        <time>2024-03-27T13:00:37Z</time>
      </trkpt>
      <trkpt lat="43.47733" lon="6.18164">
        <ele>135.3</ele>
        <time>2024-03-27T13:00:38Z</time>
      </trkpt>
      <trkpt lat="43.47733" lon="6.18162">
        <ele>135.4</ele>
        <time>2024-03-27T13:00:39Z</time>
      </trkpt>
      <trkpt lat="43.47733" lon="6.1816">
        <ele>135.5</ele>
        <time>2024-03-27T13:00:40Z</time>
      </trkpt>
      <trkpt lat="43.47732" lon="6.18159">
        <ele>135.7</ele>
        <time>2024-03-27T13:00:41Z</time>
      </trkpt>
      <trkpt lat="43.47732" lon="6.18157">
        <ele>135.9</ele>
        <time>2024-03-27T13:00:42Z</time>
      </trkpt>
      <trkpt lat="43.47732" lon="6.18155">
        <ele>136</ele>
        <time>2024-03-27T13:00:43Z</time>
      </trkpt>
      <trkpt lat="43.47731" lon="6.18153">
        <ele>136.1</ele>
        <time>2024-03-27T13:00:44Z</time>
      </trkpt>
      <trkpt lat="43.47731" lon="6.18152">
        <ele>136.1</ele>
        <time>2024-03-27T13:00:45Z</time>
      </trkpt>
      <trkpt lat="43.47731" lon="6.1815">
        <ele>136.1</ele>
        <time>2024-03-27T13:00:46Z</time>
      </trkpt>
      <trkpt lat="43.47731" lon="6.18149">
        <ele>136.2</ele>
        <time>2024-03-27T13:00:47Z</time>
      </trkpt>
      <trkpt lat="43.47731" lon="6.18147">
        <ele>136.2</ele>
        <time>2024-03-27T13:00:48Z</time>
      </trkpt>
      <trkpt lat="43.4773" lon="6.18145">
        <ele>136.2</ele>
        <time>2024-03-27T13:00:49Z</time>
      </trkpt>
      <trkpt lat="43.4773" lon="6.18144">
        <ele>136.2</ele>
        <time>2024-03-27T13:00:50Z</time>
      </trkpt>
      <trkpt lat="43.47731" lon="6.18142">
        <ele>136.3</ele>
        <time>2024-03-27T13:00:51Z</time>
      </trkpt>
      <trkpt lat="43.47731" lon="6.18141">
        <ele>136.3</ele>
        <time>2024-03-27T13:00:52Z</time>
      </trkpt>
      <trkpt lat="43.47731" lon="6.18139">
        <ele>136.3</ele>
        <time>2024-03-27T13:00:53Z</time>
      </trkpt>
      <trkpt lat="43.47731" lon="6.18138">
        <ele>136.4</ele>
        <time>2024-03-27T13:00:54Z</time>
      </trkpt>
      <trkpt lat="43.47731" lon="6.18136">
        <ele>136.5</ele>
        <time>2024-03-27T13:00:55Z</time>
      </trkpt>
      <trkpt lat="43.47731" lon="6.18135">
        <ele>136.5</ele>
        <time>2024-03-27T13:00:56Z</time>
      </trkpt>
      <trkpt lat="43.47732" lon="6.18134">
        <ele>136.6</ele>
        <time>2024-03-27T13:00:57Z</time>
      </trkpt>
      <trkpt lat="43.47732" lon="6.18132">
        <ele>136.6</ele>
        <time>2024-03-27T13:00:58Z</time>
      </trkpt>
      <trkpt lat="43.47732" lon="6.18131">
        <ele>136.7</ele>
        <time>2024-03-27T13:00:59Z</time>
      </trkpt>
      <trkpt lat="43.47733" lon="6.1813">
        <ele>136.8</ele>
        <time>2024-03-27T13:01:00Z</time>
      </trkpt>
      <trkpt lat="43.47733" lon="6.18128">
        <ele>136.8</ele>
        <time>2024-03-27T13:01:01Z</time>
      </trkpt>
      <trkpt lat="43.47734" lon="6.18127">
        <ele>136.8</ele>
        <time>2024-03-27T13:01:02Z</time>
      </trkpt>
      <trkpt lat="43.47735" lon="6.18125">
        <ele>136.8</ele>
        <time>2024-03-27T13:01:03Z</time>
      </trkpt>
      <trkpt lat="43.47736" lon="6.18124">
        <ele>136.8</ele>
        <time>2024-03-27T13:01:04Z</time>
      </trkpt>
      <trkpt lat="43.47737" lon="6.18123">
        <ele>136.8</ele>
        <time>2024-03-27T13:01:05Z</time>
      </trkpt>
      <trkpt lat="43.47737" lon="6.18121">
        <ele>136.7</ele>
        <time>2024-03-27T13:01:06Z</time>
      </trkpt>
      <trkpt lat="43.47737" lon="6.18119">
        <ele>136.7</ele>
        <time>2024-03-27T13:01:07Z</time>
      </trkpt>
      <trkpt lat="43.47738" lon="6.18118">
        <ele>136.7</ele>
        <time>2024-03-27T13:01:08Z</time>
      </trkpt>
      <trkpt lat="43.47738" lon="6.18117">
        <ele>136.7</ele>
        <time>2024-03-27T13:01:09Z</time>
      </trkpt>
      <trkpt lat="43.47738" lon="6.18115">
        <ele>136.7</ele>
        <time>2024-03-27T13:01:10Z</time>
      </trkpt>
      <trkpt lat="43.47738" lon="6.18114">
        <ele>136.8</ele>
        <time>2024-03-27T13:01:11Z</time>
      </trkpt>
      <trkpt lat="43.47738" lon="6.18112">
        <ele>136.8</ele>
        <time>2024-03-27T13:01:12Z</time>
      </trkpt>
      <trkpt lat="43.47739" lon="6.1811">
        <ele>136.8</ele>
        <time>2024-03-27T13:01:13Z</time>
      </trkpt>
      <trkpt lat="43.47739" lon="6.18109">
        <ele>136.8</ele>
        <time>2024-03-27T13:01:14Z</time>
      </trkpt>
      <trkpt lat="43.4774" lon="6.18107">
        <ele>136.7</ele>
        <time>2024-03-27T13:01:15Z</time>
      </trkpt>
      <trkpt lat="43.47741" lon="6.18105">
        <ele>136.7</ele>
        <time>2024-03-27T13:01:16Z</time>
      </trkpt>
      <trkpt lat="43.47741" lon="6.18104">
        <ele>136.7</ele>
        <time>2024-03-27T13:01:17Z</time>
      </trkpt>
      <trkpt lat="43.47741" lon="6.18102">
        <ele>136.7</ele>
        <time>2024-03-27T13:01:18Z</time>
      </trkpt>
      <trkpt lat="43.47741" lon="6.181">
        <ele>136.8</ele>
        <time>2024-03-27T13:01:19Z</time>
      </trkpt>
      <trkpt lat="43.47741" lon="6.18099">
        <ele>136.8</ele>
        <time>2024-03-27T13:01:20Z</time>
      </trkpt>
      <trkpt lat="43.47741" lon="6.18097">
        <ele>136.8</ele>
        <time>2024-03-27T13:01:21Z</time>
      </trkpt>
      <trkpt lat="43.47741" lon="6.18096">
        <ele>136.8</ele>
        <time>2024-03-27T13:01:22Z</time>
      </trkpt>
      <trkpt lat="43.4774" lon="6.18094">
        <ele>136.8</ele>
        <time>2024-03-27T13:01:23Z</time>
      </trkpt>
      <trkpt lat="43.4774" lon="6.18092">
        <ele>136.9</ele>
        <time>2024-03-27T13:01:24Z</time>
      </trkpt>
      <trkpt lat="43.4774" lon="6.18091">
        <ele>136.9</ele>
        <time>2024-03-27T13:01:25Z</time>
      </trkpt>
      <trkpt lat="43.47739" lon="6.18089">
        <ele>137</ele>
        <time>2024-03-27T13:01:26Z</time>
      </trkpt>
      <trkpt lat="43.47739" lon="6.18088">
        <ele>137.1</ele>
        <time>2024-03-27T13:01:27Z</time>
      </trkpt>
      <trkpt lat="43.47739" lon="6.18086">
        <ele>137.1</ele>
        <time>2024-03-27T13:01:28Z</time>
      </trkpt>
      <trkpt lat="43.47739" lon="6.18084">
        <ele>137.2</ele>
        <time>2024-03-27T13:01:29Z</time>
      </trkpt>
      <trkpt lat="43.47738" lon="6.18083">
        <ele>137.3</ele>
        <time>2024-03-27T13:01:30Z</time>
      </trkpt>
      <trkpt lat="43.47738" lon="6.18081">
        <ele>137.3</ele>
        <time>2024-03-27T13:01:31Z</time>
      </trkpt>
      <trkpt lat="43.47738" lon="6.18079">
        <ele>137.5</ele>
        <time>2024-03-27T13:01:32Z</time>
      </trkpt>
      <trkpt lat="43.47738" lon="6.18078">
        <ele>137.6</ele>
        <time>2024-03-27T13:01:33Z</time>
      </trkpt>
      <trkpt lat="43.47738" lon="6.18076">
        <ele>137.7</ele>
        <time>2024-03-27T13:01:34Z</time>
      </trkpt>
      <trkpt lat="43.47737" lon="6.18075">
        <ele>137.8</ele>
        <time>2024-03-27T13:01:35Z</time>
      </trkpt>
      <trkpt lat="43.47737" lon="6.18073">
        <ele>137.8</ele>
        <time>2024-03-27T13:01:36Z</time>
      </trkpt>
      <trkpt lat="43.47736" lon="6.18072">
        <ele>137.8</ele>
        <time>2024-03-27T13:01:37Z</time>
      </trkpt>
      <trkpt lat="43.47735" lon="6.18071">
        <ele>137.8</ele>
        <time>2024-03-27T13:01:38Z</time>
      </trkpt>
      <trkpt lat="43.47735" lon="6.18071">
        <ele>137.9</ele>
        <time>2024-03-27T13:01:39Z</time>
      </trkpt>
      <trkpt lat="43.47736" lon="6.1807">
        <ele>137.9</ele>
        <time>2024-03-27T13:01:40Z</time>
      </trkpt>
      <trkpt lat="43.47734" lon="6.1807">
        <ele>137.8</ele>
        <time>2024-03-27T13:01:41Z</time>
      </trkpt>
      <trkpt lat="43.47734" lon="6.1807">
        <ele>137.9</ele>
        <time>2024-03-27T13:01:42Z</time>
      </trkpt>
      <trkpt lat="43.47733" lon="6.1807">
        <ele>137.9</ele>
        <time>2024-03-27T13:01:43Z</time>
      </trkpt>
      <trkpt lat="43.47732" lon="6.1807">
        <ele>137.9</ele>
        <time>2024-03-27T13:01:44Z</time>
      </trkpt>
      <trkpt lat="43.47731" lon="6.18069">
        <ele>138.1</ele>
        <time>2024-03-27T13:01:45Z</time>
      </trkpt>
      <trkpt lat="43.4773" lon="6.18069">
        <ele>138.2</ele>
        <time>2024-03-27T13:01:46Z</time>
      </trkpt>
      <trkpt lat="43.47729" lon="6.18068">
        <ele>138.1</ele>
        <time>2024-03-27T13:01:47Z</time>
      </trkpt>
      <trkpt lat="43.47727" lon="6.18067">
        <ele>138</ele>
        <time>2024-03-27T13:01:48Z</time>
      </trkpt>
      <trkpt lat="43.47726" lon="6.18066">
        <ele>137.9</ele>
        <time>2024-03-27T13:01:49Z</time>
      </trkpt>
      <trkpt lat="43.47725" lon="6.18065">
        <ele>137.9</ele>
        <time>2024-03-27T13:01:50Z</time>
      </trkpt>
      <trkpt lat="43.47725" lon="6.18064">
        <ele>137.9</ele>
        <time>2024-03-27T13:01:51Z</time>
      </trkpt>
      <trkpt lat="43.47725" lon="6.18063">
        <ele>137.9</ele>
        <time>2024-03-27T13:01:52Z</time>
      </trkpt>
      <trkpt lat="43.47724" lon="6.18063">
        <ele>137.9</ele>
        <time>2024-03-27T13:01:53Z</time>
      </trkpt>
      <trkpt lat="43.47723" lon="6.18063">
        <ele>137.9</ele>
        <time>2024-03-27T13:01:54Z</time>
      </trkpt>
      <trkpt lat="43.47722" lon="6.18064">
        <ele>137.9</ele>
        <time>2024-03-27T13:01:55Z</time>
      </trkpt>
      <trkpt lat="43.47721" lon="6.18063">
        <ele>137.8</ele>
        <time>2024-03-27T13:01:56Z</time>
      </trkpt>
      <trkpt lat="43.47722" lon="6.18062">
        <ele>137.8</ele>
        <time>2024-03-27T13:01:57Z</time>
      </trkpt>
      <trkpt lat="43.47721" lon="6.18062">
        <ele>137.7</ele>
        <time>2024-03-27T13:01:58Z</time>
      </trkpt>
      <trkpt lat="43.47721" lon="6.18061">
        <ele>137.6</ele>
        <time>2024-03-27T13:01:59Z</time>
      </trkpt>
      <trkpt lat="43.4772" lon="6.18061">
        <ele>137.6</ele>
        <time>2024-03-27T13:02:00Z</time>
      </trkpt>
      <trkpt lat="43.47719" lon="6.18061">
        <ele>137.5</ele>
        <time>2024-03-27T13:02:01Z</time>
      </trkpt>
      <trkpt lat="43.47718" lon="6.1806">
        <ele>137.5</ele>
        <time>2024-03-27T13:02:02Z</time>
      </trkpt>
      <trkpt lat="43.47718" lon="6.18059">
        <ele>137.5</ele>
        <time>2024-03-27T13:02:03Z</time>
      </trkpt>
      <trkpt lat="43.47716" lon="6.18059">
        <ele>137.5</ele>
        <time>2024-03-27T13:02:04Z</time>
      </trkpt>
      <trkpt lat="43.47715" lon="6.18059">
        <ele>137.5</ele>
        <time>2024-03-27T13:02:05Z</time>
      </trkpt>
      <trkpt lat="43.47714" lon="6.18059">
        <ele>137.6</ele>
        <time>2024-03-27T13:02:06Z</time>
      </trkpt>
      <trkpt lat="43.47713" lon="6.18059">
        <ele>137.6</ele>
        <time>2024-03-27T13:02:07Z</time>
      </trkpt>
      <trkpt lat="43.47712" lon="6.18058">
        <ele>137.6</ele>
        <time>2024-03-27T13:02:08Z</time>
      </trkpt>
      <trkpt lat="43.47711" lon="6.18058">
        <ele>137.6</ele>
        <time>2024-03-27T13:02:09Z</time>
      </trkpt>
      <trkpt lat="43.47711" lon="6.18057">
        <ele>137.5</ele>
        <time>2024-03-27T13:02:10Z</time>
      </trkpt>
      <trkpt lat="43.4771" lon="6.18056">
        <ele>137.5</ele>
        <time>2024-03-27T13:02:11Z</time>
      </trkpt>
      <trkpt lat="43.4771" lon="6.18055">
        <ele>137.5</ele>
        <time>2024-03-27T13:02:12Z</time>
      </trkpt>
      <trkpt lat="43.47709" lon="6.18053">
        <ele>137.5</ele>
        <time>2024-03-27T13:02:13Z</time>
      </trkpt>
      <trkpt lat="43.47709" lon="6.18052">
        <ele>137.5</ele>
        <time>2024-03-27T13:02:14Z</time>
      </trkpt>
      <trkpt lat="43.47708" lon="6.18051">
        <ele>137.5</ele>
        <time>2024-03-27T13:02:15Z</time>
      </trkpt>
      <trkpt lat="43.47708" lon="6.1805">
        <ele>137.3</ele>
        <time>2024-03-27T13:02:16Z</time>
      </trkpt>
      <trkpt lat="43.47707" lon="6.18049">
        <ele>137.3</ele>
        <time>2024-03-27T13:02:17Z</time>
      </trkpt>
      <trkpt lat="43.47705" lon="6.18048">
        <ele>137.3</ele>
        <time>2024-03-27T13:02:18Z</time>
      </trkpt>
      <trkpt lat="43.47704" lon="6.18047">
        <ele>137.4</ele>
        <time>2024-03-27T13:02:19Z</time>
      </trkpt>
      <trkpt lat="43.47702" lon="6.18046">
        <ele>137.4</ele>
        <time>2024-03-27T13:02:20Z</time>
      </trkpt>
      <trkpt lat="43.47701" lon="6.18045">
        <ele>137.4</ele>
        <time>2024-03-27T13:02:21Z</time>
      </trkpt>
      <trkpt lat="43.477" lon="6.18044">
        <ele>137.4</ele>
        <time>2024-03-27T13:02:22Z</time>
      </trkpt>
      <trkpt lat="43.47699" lon="6.18043">
        <ele>137.4</ele>
        <time>2024-03-27T13:02:23Z</time>
      </trkpt>
      <trkpt lat="43.47698" lon="6.18042">
        <ele>137.5</ele>
        <time>2024-03-27T13:02:24Z</time>
      </trkpt>
      <trkpt lat="43.47698" lon="6.18041">
        <ele>137.6</ele>
        <time>2024-03-27T13:02:25Z</time>
      </trkpt>
      <trkpt lat="43.47698" lon="6.18039">
        <ele>137.6</ele>
        <time>2024-03-27T13:02:26Z</time>
      </trkpt>
      <trkpt lat="43.47697" lon="6.18037">
        <ele>137.7</ele>
        <time>2024-03-27T13:02:27Z</time>
      </trkpt>
      <trkpt lat="43.47696" lon="6.18036">
        <ele>137.7</ele>
        <time>2024-03-27T13:02:28Z</time>
      </trkpt>
      <trkpt lat="43.47696" lon="6.18034">
        <ele>137.6</ele>
        <time>2024-03-27T13:02:29Z</time>
      </trkpt>
      <trkpt lat="43.47695" lon="6.18033">
        <ele>137.6</ele>
        <time>2024-03-27T13:02:30Z</time>
      </trkpt>
      <trkpt lat="43.47694" lon="6.18032">
        <ele>137.7</ele>
        <time>2024-03-27T13:02:31Z</time>
      </trkpt>
      <trkpt lat="43.47693" lon="6.18031">
        <ele>137.8</ele>
        <time>2024-03-27T13:02:32Z</time>
      </trkpt>
      <trkpt lat="43.47693" lon="6.1803">
        <ele>137.9</ele>
        <time>2024-03-27T13:02:33Z</time>
      </trkpt>
      <trkpt lat="43.47692" lon="6.18029">
        <ele>138</ele>
        <time>2024-03-27T13:02:34Z</time>
      </trkpt>
      <trkpt lat="43.47691" lon="6.18027">
        <ele>138</ele>
        <time>2024-03-27T13:02:35Z</time>
      </trkpt>
      <trkpt lat="43.4769" lon="6.18026">
        <ele>138</ele>
        <time>2024-03-27T13:02:36Z</time>
      </trkpt>
      <trkpt lat="43.47689" lon="6.18025">
        <ele>138</ele>
        <time>2024-03-27T13:02:37Z</time>
      </trkpt>
      <trkpt lat="43.47688" lon="6.18023">
        <ele>138</ele>
        <time>2024-03-27T13:02:38Z</time>
      </trkpt>
      <trkpt lat="43.47687" lon="6.18022">
        <ele>138</ele>
        <time>2024-03-27T13:02:39Z</time>
      </trkpt>
      <trkpt lat="43.47686" lon="6.18021">
        <ele>138.2</ele>
        <time>2024-03-27T13:02:40Z</time>
      </trkpt>
      <trkpt lat="43.47685" lon="6.18021">
        <ele>138.4</ele>
        <time>2024-03-27T13:02:41Z</time>
      </trkpt>
      <trkpt lat="43.47684" lon="6.1802">
        <ele>138.5</ele>
        <time>2024-03-27T13:02:42Z</time>
      </trkpt>
      <trkpt lat="43.47683" lon="6.1802">
        <ele>138.6</ele>
        <time>2024-03-27T13:02:43Z</time>
      </trkpt>
      <trkpt lat="43.47682" lon="6.18019">
        <ele>138.6</ele>
        <time>2024-03-27T13:02:44Z</time>
      </trkpt>
      <trkpt lat="43.4768" lon="6.18019">
        <ele>138.7</ele>
        <time>2024-03-27T13:02:45Z</time>
      </trkpt>
      <trkpt lat="43.4768" lon="6.18018">
        <ele>138.7</ele>
        <time>2024-03-27T13:02:46Z</time>
      </trkpt>
      <trkpt lat="43.47679" lon="6.18018">
        <ele>138.9</ele>
        <time>2024-03-27T13:02:47Z</time>
      </trkpt>
      <trkpt lat="43.47678" lon="6.18017">
        <ele>139.2</ele>
        <time>2024-03-27T13:02:48Z</time>
      </trkpt>
      <trkpt lat="43.47677" lon="6.18015">
        <ele>139.3</ele>
        <time>2024-03-27T13:02:49Z</time>
      </trkpt>
      <trkpt lat="43.47676" lon="6.18014">
        <ele>139.3</ele>
        <time>2024-03-27T13:02:50Z</time>
      </trkpt>
      <trkpt lat="43.47676" lon="6.18013">
        <ele>139.4</ele>
        <time>2024-03-27T13:02:51Z</time>
      </trkpt>
      <trkpt lat="43.47675" lon="6.18012">
        <ele>139.5</ele>
        <time>2024-03-27T13:02:52Z</time>
      </trkpt>
      <trkpt lat="43.47674" lon="6.1801">
        <ele>139.6</ele>
        <time>2024-03-27T13:02:53Z</time>
      </trkpt>
      <trkpt lat="43.47674" lon="6.18009">
        <ele>139.6</ele>
        <time>2024-03-27T13:02:54Z</time>
      </trkpt>
      <trkpt lat="43.47673" lon="6.18009">
        <ele>139.7</ele>
        <time>2024-03-27T13:02:55Z</time>
      </trkpt>
      <trkpt lat="43.47672" lon="6.18007">
        <ele>139.8</ele>
        <time>2024-03-27T13:02:56Z</time>
      </trkpt>
      <trkpt lat="43.47672" lon="6.18006">
        <ele>139.9</ele>
        <time>2024-03-27T13:02:57Z</time>
      </trkpt>
      <trkpt lat="43.47671" lon="6.18005">
        <ele>139.9</ele>
        <time>2024-03-27T13:02:58Z</time>
      </trkpt>
      <trkpt lat="43.4767" lon="6.18003">
        <ele>139.9</ele>
        <time>2024-03-27T13:02:59Z</time>
      </trkpt>
      <trkpt lat="43.4767" lon="6.18002">
        <ele>140</ele>
        <time>2024-03-27T13:03:00Z</time>
      </trkpt>
      <trkpt lat="43.47669" lon="6.18001">
        <ele>140</ele>
        <time>2024-03-27T13:03:01Z</time>
      </trkpt>
      <trkpt lat="43.47669" lon="6.18">
        <ele>140</ele>
        <time>2024-03-27T13:03:02Z</time>
      </trkpt>
      <trkpt lat="43.47669" lon="6.17999">
        <ele>140</ele>
        <time>2024-03-27T13:03:03Z</time>
      </trkpt>
      <trkpt lat="43.47669" lon="6.17998">
        <ele>140.1</ele>
        <time>2024-03-27T13:03:04Z</time>
      </trkpt>
      <trkpt lat="43.47668" lon="6.17996">
        <ele>140</ele>
        <time>2024-03-27T13:03:05Z</time>
      </trkpt>
      <trkpt lat="43.47667" lon="6.17995">
        <ele>140</ele>
        <time>2024-03-27T13:03:06Z</time>
      </trkpt>
      <trkpt lat="43.47667" lon="6.17994">
        <ele>140</ele>
        <time>2024-03-27T13:03:07Z</time>
      </trkpt>
      <trkpt lat="43.47668" lon="6.17992">
        <ele>140</ele>
        <time>2024-03-27T13:03:08Z</time>
      </trkpt>
      <trkpt lat="43.47668" lon="6.17991">
        <ele>140</ele>
        <time>2024-03-27T13:03:09Z</time>
      </trkpt>
      <trkpt lat="43.47667" lon="6.17989">
        <ele>140.1</ele>
        <time>2024-03-27T13:03:10Z</time>
      </trkpt>
      <trkpt lat="43.47666" lon="6.17988">
        <ele>140.2</ele>
        <time>2024-03-27T13:03:11Z</time>
      </trkpt>
      <trkpt lat="43.47665" lon="6.17987">
        <ele>140.2</ele>
        <time>2024-03-27T13:03:12Z</time>
      </trkpt>
      <trkpt lat="43.47664" lon="6.17986">
        <ele>140</ele>
        <time>2024-03-27T13:03:13Z</time>
      </trkpt>
      <trkpt lat="43.47663" lon="6.17986">
        <ele>139.9</ele>
        <time>2024-03-27T13:03:14Z</time>
      </trkpt>
      <trkpt lat="43.47663" lon="6.17985">
        <ele>139.8</ele>
        <time>2024-03-27T13:03:15Z</time>
      </trkpt>
      <trkpt lat="43.47662" lon="6.17984">
        <ele>139.7</ele>
        <time>2024-03-27T13:03:16Z</time>
      </trkpt>
      <trkpt lat="43.47662" lon="6.17983">
        <ele>139.7</ele>
        <time>2024-03-27T13:03:17Z</time>
      </trkpt>
      <trkpt lat="43.47662" lon="6.17982">
        <ele>139.7</ele>
        <time>2024-03-27T13:03:18Z</time>
      </trkpt>
      <trkpt lat="43.47661" lon="6.17981">
        <ele>139.7</ele>
        <time>2024-03-27T13:03:19Z</time>
      </trkpt>
      <trkpt lat="43.47661" lon="6.17979">
        <ele>139.7</ele>
        <time>2024-03-27T13:03:20Z</time>
      </trkpt>
      <trkpt lat="43.47663" lon="6.17977">
        <ele>139.7</ele>
        <time>2024-03-27T13:03:21Z</time>
      </trkpt>
      <trkpt lat="43.47664" lon="6.17976">
        <ele>139.7</ele>
        <time>2024-03-27T13:03:22Z</time>
      </trkpt>
      <trkpt lat="43.47665" lon="6.17975">
        <ele>139.6</ele>
        <time>2024-03-27T13:03:23Z</time>
      </trkpt>
      <trkpt lat="43.47665" lon="6.17973">
        <ele>139.6</ele>
        <time>2024-03-27T13:03:24Z</time>
      </trkpt>
      <trkpt lat="43.47665" lon="6.17971">
        <ele>139.5</ele>
        <time>2024-03-27T13:03:25Z</time>
      </trkpt>
      <trkpt lat="43.47665" lon="6.17971">
        <ele>139.3</ele>
        <time>2024-03-27T13:03:26Z</time>
      </trkpt>
      <trkpt lat="43.47665" lon="6.1797">
        <ele>139.2</ele>
        <time>2024-03-27T13:03:27Z</time>
      </trkpt>
      <trkpt lat="43.47665" lon="6.17969">
        <ele>139.1</ele>
        <time>2024-03-27T13:03:28Z</time>
      </trkpt>
      <trkpt lat="43.47663" lon="6.17968">
        <ele>139</ele>
        <time>2024-03-27T13:03:29Z</time>
      </trkpt>
      <trkpt lat="43.47663" lon="6.17967">
        <ele>138.9</ele>
        <time>2024-03-27T13:03:30Z</time>
      </trkpt>
      <trkpt lat="43.47662" lon="6.17965">
        <ele>138.8</ele>
        <time>2024-03-27T13:03:31Z</time>
      </trkpt>
      <trkpt lat="43.47661" lon="6.17964">
        <ele>138.6</ele>
        <time>2024-03-27T13:03:32Z</time>
      </trkpt>
      <trkpt lat="43.47661" lon="6.17963">
        <ele>138.5</ele>
        <time>2024-03-27T13:03:33Z</time>
      </trkpt>
      <trkpt lat="43.4766" lon="6.17962">
        <ele>138.3</ele>
        <time>2024-03-27T13:03:34Z</time>
      </trkpt>
      <trkpt lat="43.47659" lon="6.17961">
        <ele>138.3</ele>
        <time>2024-03-27T13:03:35Z</time>
      </trkpt>
      <trkpt lat="43.47658" lon="6.1796">
        <ele>138.1</ele>
        <time>2024-03-27T13:03:36Z</time>
      </trkpt>
      <trkpt lat="43.47657" lon="6.17959">
        <ele>137.9</ele>
        <time>2024-03-27T13:03:37Z</time>
      </trkpt>
      <trkpt lat="43.47656" lon="6.17957">
        <ele>137.8</ele>
        <time>2024-03-27T13:03:38Z</time>
      </trkpt>
      <trkpt lat="43.47655" lon="6.17957">
        <ele>137.5</ele>
        <time>2024-03-27T13:03:39Z</time>
      </trkpt>
      <trkpt lat="43.47654" lon="6.17955">
        <ele>137.3</ele>
        <time>2024-03-27T13:03:40Z</time>
      </trkpt>
      <trkpt lat="43.47654" lon="6.17952">
        <ele>137.1</ele>
        <time>2024-03-27T13:03:41Z</time>
      </trkpt>
      <trkpt lat="43.47654" lon="6.1795">
        <ele>136.9</ele>
        <time>2024-03-27T13:03:42Z</time>
      </trkpt>
      <trkpt lat="43.47654" lon="6.17948">
        <ele>136.7</ele>
        <time>2024-03-27T13:03:43Z</time>
      </trkpt>
      <trkpt lat="43.47654" lon="6.17946">
        <ele>136.6</ele>
        <time>2024-03-27T13:03:44Z</time>
      </trkpt>
      <trkpt lat="43.47654" lon="6.17944">
        <ele>136.5</ele>
        <time>2024-03-27T13:03:45Z</time>
      </trkpt>
      <trkpt lat="43.47653" lon="6.17943">
        <ele>136.3</ele>
        <time>2024-03-27T13:03:46Z</time>
      </trkpt>
      <trkpt lat="43.47652" lon="6.17941">
        <ele>136.2</ele>
        <time>2024-03-27T13:03:47Z</time>
      </trkpt>
      <trkpt lat="43.47652" lon="6.1794">
        <ele>136.1</ele>
        <time>2024-03-27T13:03:48Z</time>
      </trkpt>
      <trkpt lat="43.47652" lon="6.17939">
        <ele>136</ele>
        <time>2024-03-27T13:03:49Z</time>
      </trkpt>
      <trkpt lat="43.47652" lon="6.17937">
        <ele>135.9</ele>
        <time>2024-03-27T13:03:50Z</time>
      </trkpt>
      <trkpt lat="43.47651" lon="6.17936">
        <ele>135.8</ele>
        <time>2024-03-27T13:03:51Z</time>
      </trkpt>
      <trkpt lat="43.4765" lon="6.17934">
        <ele>135.7</ele>
        <time>2024-03-27T13:03:52Z</time>
      </trkpt>
      <trkpt lat="43.47649" lon="6.17933">
        <ele>135.6</ele>
        <time>2024-03-27T13:03:53Z</time>
      </trkpt>
      <trkpt lat="43.47648" lon="6.17932">
        <ele>135.5</ele>
        <time>2024-03-27T13:03:54Z</time>
      </trkpt>
      <trkpt lat="43.47647" lon="6.17931">
        <ele>135.5</ele>
        <time>2024-03-27T13:03:55Z</time>
      </trkpt>
      <trkpt lat="43.47646" lon="6.1793">
        <ele>135.4</ele>
        <time>2024-03-27T13:03:56Z</time>
      </trkpt>
      <trkpt lat="43.47646" lon="6.17928">
        <ele>135.2</ele>
        <time>2024-03-27T13:03:57Z</time>
      </trkpt>
      <trkpt lat="43.47645" lon="6.17926">
        <ele>135.2</ele>
        <time>2024-03-27T13:03:58Z</time>
      </trkpt>
      <trkpt lat="43.47644" lon="6.17924">
        <ele>135.2</ele>
        <time>2024-03-27T13:03:59Z</time>
      </trkpt>
      <trkpt lat="43.47644" lon="6.17922">
        <ele>135.2</ele>
        <time>2024-03-27T13:04:00Z</time>
      </trkpt>
      <trkpt lat="43.47643" lon="6.17921">
        <ele>135.1</ele>
        <time>2024-03-27T13:04:01Z</time>
      </trkpt>
      <trkpt lat="43.47643" lon="6.17919">
        <ele>135.2</ele>
        <time>2024-03-27T13:04:02Z</time>
      </trkpt>
      <trkpt lat="43.47642" lon="6.17918">
        <ele>135.2</ele>
        <time>2024-03-27T13:04:03Z</time>
      </trkpt>
      <trkpt lat="43.47642" lon="6.17917">
        <ele>135.2</ele>
        <time>2024-03-27T13:04:04Z</time>
      </trkpt>
      <trkpt lat="43.47641" lon="6.17915">
        <ele>135.1</ele>
        <time>2024-03-27T13:04:05Z</time>
      </trkpt>
      <trkpt lat="43.47641" lon="6.17914">
        <ele>135.2</ele>
        <time>2024-03-27T13:04:06Z</time>
      </trkpt>
      <trkpt lat="43.4764" lon="6.17913">
        <ele>135.1</ele>
        <time>2024-03-27T13:04:07Z</time>
      </trkpt>
      <trkpt lat="43.47639" lon="6.17911">
        <ele>135.1</ele>
        <time>2024-03-27T13:04:08Z</time>
      </trkpt>
      <trkpt lat="43.47639" lon="6.1791">
        <ele>135.1</ele>
        <time>2024-03-27T13:04:09Z</time>
      </trkpt>
      <trkpt lat="43.47638" lon="6.17908">
        <ele>134.9</ele>
        <time>2024-03-27T13:04:10Z</time>
      </trkpt>
      <trkpt lat="43.47637" lon="6.17906">
        <ele>134.9</ele>
        <time>2024-03-27T13:04:11Z</time>
      </trkpt>
      <trkpt lat="43.47637" lon="6.17905">
        <ele>134.8</ele>
        <time>2024-03-27T13:04:12Z</time>
      </trkpt>
      <trkpt lat="43.47636" lon="6.17903">
        <ele>134.8</ele>
        <time>2024-03-27T13:04:13Z</time>
      </trkpt>
      <trkpt lat="43.47635" lon="6.17902">
        <ele>134.6</ele>
        <time>2024-03-27T13:04:14Z</time>
      </trkpt>
      <trkpt lat="43.47635" lon="6.179">
        <ele>134.5</ele>
        <time>2024-03-27T13:04:15Z</time>
      </trkpt>
      <trkpt lat="43.47634" lon="6.17898">
        <ele>134.5</ele>
        <time>2024-03-27T13:04:16Z</time>
      </trkpt>
      <trkpt lat="43.47634" lon="6.17897">
        <ele>134.4</ele>
        <time>2024-03-27T13:04:17Z</time>
      </trkpt>
      <trkpt lat="43.47633" lon="6.17895">
        <ele>134.4</ele>
        <time>2024-03-27T13:04:18Z</time>
      </trkpt>
      <trkpt lat="43.47633" lon="6.17894">
        <ele>134.3</ele>
        <time>2024-03-27T13:04:19Z</time>
      </trkpt>
      <trkpt lat="43.47633" lon="6.17892">
        <ele>134.2</ele>
        <time>2024-03-27T13:04:20Z</time>
      </trkpt>
      <trkpt lat="43.47632" lon="6.17891">
        <ele>134.1</ele>
        <time>2024-03-27T13:04:21Z</time>
      </trkpt>
      <trkpt lat="43.47631" lon="6.17889">
        <ele>134.1</ele>
        <time>2024-03-27T13:04:22Z</time>
      </trkpt>
      <trkpt lat="43.4763" lon="6.17888">
        <ele>134.1</ele>
        <time>2024-03-27T13:04:23Z</time>
      </trkpt>
      <trkpt lat="43.47629" lon="6.17886">
        <ele>134.1</ele>
        <time>2024-03-27T13:04:24Z</time>
      </trkpt>
      <trkpt lat="43.47628" lon="6.17885">
        <ele>134.3</ele>
        <time>2024-03-27T13:04:25Z</time>
      </trkpt>
      <trkpt lat="43.47628" lon="6.17884">
        <ele>134.4</ele>
        <time>2024-03-27T13:04:26Z</time>
      </trkpt>
      <trkpt lat="43.47627" lon="6.17882">
        <ele>134.5</ele>
        <time>2024-03-27T13:04:27Z</time>
      </trkpt>
      <trkpt lat="43.47627" lon="6.17881">
        <ele>134.6</ele>
        <time>2024-03-27T13:04:28Z</time>
      </trkpt>
      <trkpt lat="43.47626" lon="6.1788">
        <ele>134.5</ele>
        <time>2024-03-27T13:04:29Z</time>
      </trkpt>
      <trkpt lat="43.47626" lon="6.17878">
        <ele>134.4</ele>
        <time>2024-03-27T13:04:30Z</time>
      </trkpt>
      <trkpt lat="43.47625" lon="6.17877">
        <ele>134.3</ele>
        <time>2024-03-27T13:04:31Z</time>
      </trkpt>
      <trkpt lat="43.47625" lon="6.17875">
        <ele>134.3</ele>
        <time>2024-03-27T13:04:32Z</time>
      </trkpt>
      <trkpt lat="43.47625" lon="6.17874">
        <ele>134.3</ele>
        <time>2024-03-27T13:04:33Z</time>
      </trkpt>
      <trkpt lat="43.47624" lon="6.17872">
        <ele>134.3</ele>
        <time>2024-03-27T13:04:34Z</time>
      </trkpt>
      <trkpt lat="43.47624" lon="6.17871">
        <ele>134.3</ele>
        <time>2024-03-27T13:04:35Z</time>
      </trkpt>
      <trkpt lat="43.47623" lon="6.17869">
        <ele>134.2</ele>
        <time>2024-03-27T13:04:36Z</time>
      </trkpt>
      <trkpt lat="43.47623" lon="6.17867">
        <ele>134.2</ele>
        <time>2024-03-27T13:04:37Z</time>
      </trkpt>
      <trkpt lat="43.47623" lon="6.17866">
        <ele>134.1</ele>
        <time>2024-03-27T13:04:38Z</time>
      </trkpt>
      <trkpt lat="43.47622" lon="6.17865">
        <ele>134</ele>
        <time>2024-03-27T13:04:39Z</time>
      </trkpt>
      <trkpt lat="43.47622" lon="6.17863">
        <ele>134.1</ele>
        <time>2024-03-27T13:04:40Z</time>
      </trkpt>
      <trkpt lat="43.47621" lon="6.17862">
        <ele>134.3</ele>
        <time>2024-03-27T13:04:41Z</time>
      </trkpt>
      <trkpt lat="43.47621" lon="6.17861">
        <ele>134.4</ele>
        <time>2024-03-27T13:04:42Z</time>
      </trkpt>
      <trkpt lat="43.47621" lon="6.17859">
        <ele>134.5</ele>
        <time>2024-03-27T13:04:43Z</time>
      </trkpt>
      <trkpt lat="43.47621" lon="6.17858">
        <ele>134.6</ele>
        <time>2024-03-27T13:04:44Z</time>
      </trkpt>
      <trkpt lat="43.47621" lon="6.17857">
        <ele>134.7</ele>
        <time>2024-03-27T13:04:45Z</time>
      </trkpt>
      <trkpt lat="43.4762" lon="6.17856">
        <ele>134.7</ele>
        <time>2024-03-27T13:04:46Z</time>
      </trkpt>
      <trkpt lat="43.4762" lon="6.17855">
        <ele>134.6</ele>
        <time>2024-03-27T13:04:47Z</time>
      </trkpt>
      <trkpt lat="43.4762" lon="6.17853">
        <ele>134.6</ele>
        <time>2024-03-27T13:04:48Z</time>
      </trkpt>
      <trkpt lat="43.4762" lon="6.17852">
        <ele>134.6</ele>
        <time>2024-03-27T13:04:49Z</time>
      </trkpt>
      <trkpt lat="43.47619" lon="6.17851">
        <ele>134.6</ele>
        <time>2024-03-27T13:04:50Z</time>
      </trkpt>
      <trkpt lat="43.47619" lon="6.17849">
        <ele>134.5</ele>
        <time>2024-03-27T13:04:51Z</time>
      </trkpt>
      <trkpt lat="43.47618" lon="6.17847">
        <ele>134.5</ele>
        <time>2024-03-27T13:04:52Z</time>
      </trkpt>
      <trkpt lat="43.47618" lon="6.17846">
        <ele>134.5</ele>
        <time>2024-03-27T13:04:53Z</time>
      </trkpt>
      <trkpt lat="43.47618" lon="6.17845">
        <ele>134.4</ele>
        <time>2024-03-27T13:04:54Z</time>
      </trkpt>
      <trkpt lat="43.47618" lon="6.17843">
        <ele>134.5</ele>
        <time>2024-03-27T13:04:55Z</time>
      </trkpt>
      <trkpt lat="43.47617" lon="6.17841">
        <ele>134.7</ele>
        <time>2024-03-27T13:04:56Z</time>
      </trkpt>
      <trkpt lat="43.47617" lon="6.1784">
        <ele>134.7</ele>
        <time>2024-03-27T13:04:57Z</time>
      </trkpt>
      <trkpt lat="43.47616" lon="6.17839">
        <ele>134.8</ele>
        <time>2024-03-27T13:04:58Z</time>
      </trkpt>
      <trkpt lat="43.47616" lon="6.17838">
        <ele>134.8</ele>
        <time>2024-03-27T13:04:59Z</time>
      </trkpt>
      <trkpt lat="43.47616" lon="6.17836">
        <ele>134.9</ele>
        <time>2024-03-27T13:05:00Z</time>
      </trkpt>
      <trkpt lat="43.47615" lon="6.17834">
        <ele>135</ele>
        <time>2024-03-27T13:05:01Z</time>
      </trkpt>
      <trkpt lat="43.47615" lon="6.17833">
        <ele>135</ele>
        <time>2024-03-27T13:05:02Z</time>
      </trkpt>
      <trkpt lat="43.47614" lon="6.17831">
        <ele>135</ele>
        <time>2024-03-27T13:05:03Z</time>
      </trkpt>
      <trkpt lat="43.47614" lon="6.1783">
        <ele>134.9</ele>
        <time>2024-03-27T13:05:04Z</time>
      </trkpt>
      <trkpt lat="43.47613" lon="6.17828">
        <ele>134.8</ele>
        <time>2024-03-27T13:05:05Z</time>
      </trkpt>
      <trkpt lat="43.47613" lon="6.17827">
        <ele>134.8</ele>
        <time>2024-03-27T13:05:06Z</time>
      </trkpt>
      <trkpt lat="43.47613" lon="6.17825">
        <ele>134.8</ele>
        <time>2024-03-27T13:05:07Z</time>
      </trkpt>
      <trkpt lat="43.47612" lon="6.17824">
        <ele>134.7</ele>
        <time>2024-03-27T13:05:08Z</time>
      </trkpt>
      <trkpt lat="43.47612" lon="6.17822">
        <ele>134.7</ele>
        <time>2024-03-27T13:05:09Z</time>
      </trkpt>
      <trkpt lat="43.47611" lon="6.1782">
        <ele>134.7</ele>
        <time>2024-03-27T13:05:10Z</time>
      </trkpt>
      <trkpt lat="43.47611" lon="6.17819">
        <ele>134.7</ele>
        <time>2024-03-27T13:05:11Z</time>
      </trkpt>
      <trkpt lat="43.4761" lon="6.17817">
        <ele>134.7</ele>
        <time>2024-03-27T13:05:12Z</time>
      </trkpt>
      <trkpt lat="43.4761" lon="6.17816">
        <ele>134.8</ele>
        <time>2024-03-27T13:05:13Z</time>
      </trkpt>
      <trkpt lat="43.47609" lon="6.17814">
        <ele>134.9</ele>
        <time>2024-03-27T13:05:14Z</time>
      </trkpt>
      <trkpt lat="43.47609" lon="6.17812">
        <ele>134.8</ele>
        <time>2024-03-27T13:05:15Z</time>
      </trkpt>
      <trkpt lat="43.47609" lon="6.17811">
        <ele>134.8</ele>
        <time>2024-03-27T13:05:16Z</time>
      </trkpt>
      <trkpt lat="43.47608" lon="6.17809">
        <ele>134.8</ele>
        <time>2024-03-27T13:05:17Z</time>
      </trkpt>
      <trkpt lat="43.47608" lon="6.17808">
        <ele>134.8</ele>
        <time>2024-03-27T13:05:18Z</time>
      </trkpt>
      <trkpt lat="43.47607" lon="6.17806">
        <ele>134.9</ele>
        <time>2024-03-27T13:05:19Z</time>
      </trkpt>
      <trkpt lat="43.47607" lon="6.17805">
        <ele>134.9</ele>
        <time>2024-03-27T13:05:20Z</time>
      </trkpt>
      <trkpt lat="43.47607" lon="6.17804">
        <ele>134.9</ele>
        <time>2024-03-27T13:05:21Z</time>
      </trkpt>
      <trkpt lat="43.47606" lon="6.17802">
        <ele>135</ele>
        <time>2024-03-27T13:05:22Z</time>
      </trkpt>
      <trkpt lat="43.47606" lon="6.17801">
        <ele>134.9</ele>
        <time>2024-03-27T13:05:23Z</time>
      </trkpt>
      <trkpt lat="43.47606" lon="6.178">
        <ele>134.9</ele>
        <time>2024-03-27T13:05:24Z</time>
      </trkpt>
      <trkpt lat="43.47605" lon="6.17798">
        <ele>134.9</ele>
        <time>2024-03-27T13:05:25Z</time>
      </trkpt>
      <trkpt lat="43.47605" lon="6.17797">
        <ele>134.9</ele>
        <time>2024-03-27T13:05:26Z</time>
      </trkpt>
      <trkpt lat="43.47605" lon="6.17795">
        <ele>134.9</ele>
        <time>2024-03-27T13:05:27Z</time>
      </trkpt>
      <trkpt lat="43.47604" lon="6.17793">
        <ele>134.9</ele>
        <time>2024-03-27T13:05:28Z</time>
      </trkpt>
      <trkpt lat="43.47604" lon="6.17792">
        <ele>134.9</ele>
        <time>2024-03-27T13:05:29Z</time>
      </trkpt>
      <trkpt lat="43.47603" lon="6.1779">
        <ele>135</ele>
        <time>2024-03-27T13:05:30Z</time>
      </trkpt>
      <trkpt lat="43.47603" lon="6.17789">
        <ele>135</ele>
        <time>2024-03-27T13:05:31Z</time>
      </trkpt>
      <trkpt lat="43.47603" lon="6.17787">
        <ele>135</ele>
        <time>2024-03-27T13:05:32Z</time>
      </trkpt>
      <trkpt lat="43.47602" lon="6.17786">
        <ele>135</ele>
        <time>2024-03-27T13:05:33Z</time>
      </trkpt>
      <trkpt lat="43.47602" lon="6.17784">
        <ele>135</ele>
        <time>2024-03-27T13:05:34Z</time>
      </trkpt>
      <trkpt lat="43.47601" lon="6.17782">
        <ele>135</ele>
        <time>2024-03-27T13:05:35Z</time>
      </trkpt>
      <trkpt lat="43.47601" lon="6.1778">
        <ele>134.9</ele>
        <time>2024-03-27T13:05:36Z</time>
      </trkpt>
      <trkpt lat="43.47601" lon="6.17778">
        <ele>135</ele>
        <time>2024-03-27T13:05:37Z</time>
      </trkpt>
      <trkpt lat="43.47601" lon="6.17777">
        <ele>134.9</ele>
        <time>2024-03-27T13:05:38Z</time>
      </trkpt>
      <trkpt lat="43.476" lon="6.17775">
        <ele>134.9</ele>
        <time>2024-03-27T13:05:39Z</time>
      </trkpt>
      <trkpt lat="43.476" lon="6.17774">
        <ele>134.9</ele>
        <time>2024-03-27T13:05:40Z</time>
      </trkpt>
      <trkpt lat="43.476" lon="6.17772">
        <ele>134.9</ele>
        <time>2024-03-27T13:05:41Z</time>
      </trkpt>
      <trkpt lat="43.47599" lon="6.1777">
        <ele>134.9</ele>
        <time>2024-03-27T13:05:42Z</time>
      </trkpt>
      <trkpt lat="43.47599" lon="6.17769">
        <ele>134.9</ele>
        <time>2024-03-27T13:05:43Z</time>
      </trkpt>
      <trkpt lat="43.47599" lon="6.17767">
        <ele>135</ele>
        <time>2024-03-27T13:05:44Z</time>
      </trkpt>
      <trkpt lat="43.47599" lon="6.17766">
        <ele>135</ele>
        <time>2024-03-27T13:05:45Z</time>
      </trkpt>
      <trkpt lat="43.47599" lon="6.17765">
        <ele>135.1</ele>
        <time>2024-03-27T13:05:46Z</time>
      </trkpt>
      <trkpt lat="43.47598" lon="6.17764">
        <ele>135.1</ele>
        <time>2024-03-27T13:05:47Z</time>
      </trkpt>
      <trkpt lat="43.47598" lon="6.17762">
        <ele>135.1</ele>
        <time>2024-03-27T13:05:48Z</time>
      </trkpt>
      <trkpt lat="43.47598" lon="6.1776">
        <ele>135.1</ele>
        <time>2024-03-27T13:05:49Z</time>
      </trkpt>
      <trkpt lat="43.47598" lon="6.17759">
        <ele>135.1</ele>
        <time>2024-03-27T13:05:50Z</time>
      </trkpt>
      <trkpt lat="43.47598" lon="6.17757">
        <ele>135.1</ele>
        <time>2024-03-27T13:05:51Z</time>
      </trkpt>
      <trkpt lat="43.47598" lon="6.17756">
        <ele>135.1</ele>
        <time>2024-03-27T13:05:52Z</time>
      </trkpt>
      <trkpt lat="43.47597" lon="6.17755">
        <ele>135.1</ele>
        <time>2024-03-27T13:05:53Z</time>
      </trkpt>
      <trkpt lat="43.47597" lon="6.17754">
        <ele>135</ele>
        <time>2024-03-27T13:05:54Z</time>
      </trkpt>
      <trkpt lat="43.47597" lon="6.17752">
        <ele>135</ele>
        <time>2024-03-27T13:05:55Z</time>
      </trkpt>
      <trkpt lat="43.47597" lon="6.1775">
        <ele>135</ele>
        <time>2024-03-27T13:05:56Z</time>
      </trkpt>
      <trkpt lat="43.47596" lon="6.17748">
        <ele>135.1</ele>
        <time>2024-03-27T13:05:57Z</time>
      </trkpt>
      <trkpt lat="43.47596" lon="6.17747">
        <ele>135.1</ele>
        <time>2024-03-27T13:05:58Z</time>
      </trkpt>
      <trkpt lat="43.47595" lon="6.17745">
        <ele>135.1</ele>
        <time>2024-03-27T13:05:59Z</time>
      </trkpt>
      <trkpt lat="43.47595" lon="6.17744">
        <ele>135.1</ele>
        <time>2024-03-27T13:06:00Z</time>
      </trkpt>
      <trkpt lat="43.47594" lon="6.17742">
        <ele>135</ele>
        <time>2024-03-27T13:06:01Z</time>
      </trkpt>
      <trkpt lat="43.47594" lon="6.1774">
        <ele>135</ele>
        <time>2024-03-27T13:06:02Z</time>
      </trkpt>
      <trkpt lat="43.47593" lon="6.17738">
        <ele>135</ele>
        <time>2024-03-27T13:06:03Z</time>
      </trkpt>
      <trkpt lat="43.47593" lon="6.17737">
        <ele>135</ele>
        <time>2024-03-27T13:06:04Z</time>
      </trkpt>
      <trkpt lat="43.47593" lon="6.17735">
        <ele>134.9</ele>
        <time>2024-03-27T13:06:05Z</time>
      </trkpt>
      <trkpt lat="43.47593" lon="6.17733">
        <ele>134.9</ele>
        <time>2024-03-27T13:06:06Z</time>
      </trkpt>
      <trkpt lat="43.47593" lon="6.17732">
        <ele>134.9</ele>
        <time>2024-03-27T13:06:07Z</time>
      </trkpt>
      <trkpt lat="43.47593" lon="6.1773">
        <ele>134.8</ele>
        <time>2024-03-27T13:06:08Z</time>
      </trkpt>
      <trkpt lat="43.47593" lon="6.17729">
        <ele>134.8</ele>
        <time>2024-03-27T13:06:09Z</time>
      </trkpt>
      <trkpt lat="43.47592" lon="6.17728">
        <ele>134.8</ele>
        <time>2024-03-27T13:06:10Z</time>
      </trkpt>
      <trkpt lat="43.47591" lon="6.17726">
        <ele>134.8</ele>
        <time>2024-03-27T13:06:11Z</time>
      </trkpt>
      <trkpt lat="43.47591" lon="6.17725">
        <ele>134.9</ele>
        <time>2024-03-27T13:06:12Z</time>
      </trkpt>
      <trkpt lat="43.4759" lon="6.17724">
        <ele>135</ele>
        <time>2024-03-27T13:06:13Z</time>
      </trkpt>
      <trkpt lat="43.4759" lon="6.17722">
        <ele>135</ele>
        <time>2024-03-27T13:06:14Z</time>
      </trkpt>
      <trkpt lat="43.47589" lon="6.1772">
        <ele>135</ele>
        <time>2024-03-27T13:06:15Z</time>
      </trkpt>
      <trkpt lat="43.47589" lon="6.17718">
        <ele>135</ele>
        <time>2024-03-27T13:06:16Z</time>
      </trkpt>
      <trkpt lat="43.47589" lon="6.17717">
        <ele>134.9</ele>
        <time>2024-03-27T13:06:17Z</time>
      </trkpt>
      <trkpt lat="43.47589" lon="6.17715">
        <ele>134.9</ele>
        <time>2024-03-27T13:06:18Z</time>
      </trkpt>
      <trkpt lat="43.47588" lon="6.17714">
        <ele>134.9</ele>
        <time>2024-03-27T13:06:19Z</time>
      </trkpt>
      <trkpt lat="43.47588" lon="6.17712">
        <ele>134.9</ele>
        <time>2024-03-27T13:06:20Z</time>
      </trkpt>
      <trkpt lat="43.47588" lon="6.17711">
        <ele>134.9</ele>
        <time>2024-03-27T13:06:21Z</time>
      </trkpt>
      <trkpt lat="43.47588" lon="6.17709">
        <ele>134.8</ele>
        <time>2024-03-27T13:06:22Z</time>
      </trkpt>
      <trkpt lat="43.47587" lon="6.17707">
        <ele>134.9</ele>
        <time>2024-03-27T13:06:23Z</time>
      </trkpt>
      <trkpt lat="43.47587" lon="6.17705">
        <ele>134.9</ele>
        <time>2024-03-27T13:06:24Z</time>
      </trkpt>
      <trkpt lat="43.47586" lon="6.17703">
        <ele>134.8</ele>
        <time>2024-03-27T13:06:25Z</time>
      </trkpt>
      <trkpt lat="43.47586" lon="6.17702">
        <ele>134.9</ele>
        <time>2024-03-27T13:06:26Z</time>
      </trkpt>
      <trkpt lat="43.47585" lon="6.177">
        <ele>135</ele>
        <time>2024-03-27T13:06:27Z</time>
      </trkpt>
      <trkpt lat="43.47585" lon="6.17698">
        <ele>135</ele>
        <time>2024-03-27T13:06:28Z</time>
      </trkpt>
      <trkpt lat="43.47585" lon="6.17696">
        <ele>135</ele>
        <time>2024-03-27T13:06:29Z</time>
      </trkpt>
      <trkpt lat="43.47585" lon="6.17694">
        <ele>135</ele>
        <time>2024-03-27T13:06:30Z</time>
      </trkpt>
      <trkpt lat="43.47585" lon="6.17693">
        <ele>135</ele>
        <time>2024-03-27T13:06:31Z</time>
      </trkpt>
      <trkpt lat="43.47584" lon="6.17691">
        <ele>134.9</ele>
        <time>2024-03-27T13:06:32Z</time>
      </trkpt>
      <trkpt lat="43.47584" lon="6.17689">
        <ele>134.8</ele>
        <time>2024-03-27T13:06:33Z</time>
      </trkpt>
      <trkpt lat="43.47584" lon="6.17688">
        <ele>134.7</ele>
        <time>2024-03-27T13:06:34Z</time>
      </trkpt>
      <trkpt lat="43.47584" lon="6.17686">
        <ele>134.6</ele>
        <time>2024-03-27T13:06:35Z</time>
      </trkpt>
      <trkpt lat="43.47583" lon="6.17684">
        <ele>134.5</ele>
        <time>2024-03-27T13:06:36Z</time>
      </trkpt>
      <trkpt lat="43.47583" lon="6.17682">
        <ele>134.4</ele>
        <time>2024-03-27T13:06:37Z</time>
      </trkpt>
      <trkpt lat="43.47582" lon="6.17681">
        <ele>134.4</ele>
        <time>2024-03-27T13:06:38Z</time>
      </trkpt>
      <trkpt lat="43.47582" lon="6.17679">
        <ele>134.4</ele>
        <time>2024-03-27T13:06:39Z</time>
      </trkpt>
      <trkpt lat="43.47581" lon="6.17678">
        <ele>134.4</ele>
        <time>2024-03-27T13:06:40Z</time>
      </trkpt>
      <trkpt lat="43.47581" lon="6.17676">
        <ele>134.3</ele>
        <time>2024-03-27T13:06:41Z</time>
      </trkpt>
      <trkpt lat="43.4758" lon="6.17674">
        <ele>134.3</ele>
        <time>2024-03-27T13:06:42Z</time>
      </trkpt>
      <trkpt lat="43.4758" lon="6.17673">
        <ele>134.4</ele>
        <time>2024-03-27T13:06:43Z</time>
      </trkpt>
      <trkpt lat="43.4758" lon="6.17671">
        <ele>134.5</ele>
        <time>2024-03-27T13:06:44Z</time>
      </trkpt>
      <trkpt lat="43.4758" lon="6.1767">
        <ele>134.5</ele>
        <time>2024-03-27T13:06:45Z</time>
      </trkpt>
      <trkpt lat="43.47579" lon="6.17669">
        <ele>134.7</ele>
        <time>2024-03-27T13:06:46Z</time>
      </trkpt>
      <trkpt lat="43.47579" lon="6.17667">
        <ele>134.6</ele>
        <time>2024-03-27T13:06:47Z</time>
      </trkpt>
      <trkpt lat="43.47578" lon="6.17666">
        <ele>134.6</ele>
        <time>2024-03-27T13:06:48Z</time>
      </trkpt>
      <trkpt lat="43.47578" lon="6.17664">
        <ele>134.7</ele>
        <time>2024-03-27T13:06:49Z</time>
      </trkpt>
      <trkpt lat="43.47578" lon="6.17662">
        <ele>134.8</ele>
        <time>2024-03-27T13:06:50Z</time>
      </trkpt>
      <trkpt lat="43.47577" lon="6.17661">
        <ele>134.8</ele>
        <time>2024-03-27T13:06:51Z</time>
      </trkpt>
      <trkpt lat="43.47577" lon="6.17659">
        <ele>134.8</ele>
        <time>2024-03-27T13:06:52Z</time>
      </trkpt>
      <trkpt lat="43.47576" lon="6.17657">
        <ele>134.8</ele>
        <time>2024-03-27T13:06:53Z</time>
      </trkpt>
      <trkpt lat="43.47576" lon="6.17656">
        <ele>134.8</ele>
        <time>2024-03-27T13:06:54Z</time>
      </trkpt>
      <trkpt lat="43.47575" lon="6.17654">
        <ele>134.7</ele>
        <time>2024-03-27T13:06:55Z</time>
      </trkpt>
      <trkpt lat="43.47575" lon="6.17653">
        <ele>134.6</ele>
        <time>2024-03-27T13:06:56Z</time>
      </trkpt>
      <trkpt lat="43.47574" lon="6.17651">
        <ele>134.7</ele>
        <time>2024-03-27T13:06:57Z</time>
      </trkpt>
      <trkpt lat="43.47574" lon="6.17649">
        <ele>134.7</ele>
        <time>2024-03-27T13:06:58Z</time>
      </trkpt>
      <trkpt lat="43.47574" lon="6.17648">
        <ele>134.8</ele>
        <time>2024-03-27T13:06:59Z</time>
      </trkpt>
      <trkpt lat="43.47573" lon="6.17646">
        <ele>134.9</ele>
        <time>2024-03-27T13:07:00Z</time>
      </trkpt>
      <trkpt lat="43.47573" lon="6.17644">
        <ele>135</ele>
        <time>2024-03-27T13:07:01Z</time>
      </trkpt>
      <trkpt lat="43.47572" lon="6.17643">
        <ele>135.1</ele>
        <time>2024-03-27T13:07:02Z</time>
      </trkpt>
      <trkpt lat="43.47572" lon="6.17641">
        <ele>135.2</ele>
        <time>2024-03-27T13:07:03Z</time>
      </trkpt>
      <trkpt lat="43.47572" lon="6.1764">
        <ele>135.3</ele>
        <time>2024-03-27T13:07:04Z</time>
      </trkpt>
      <trkpt lat="43.47571" lon="6.17638">
        <ele>135.3</ele>
        <time>2024-03-27T13:07:05Z</time>
      </trkpt>
      <trkpt lat="43.47571" lon="6.17637">
        <ele>135.4</ele>
        <time>2024-03-27T13:07:06Z</time>
      </trkpt>
      <trkpt lat="43.47571" lon="6.17636">
        <ele>135.5</ele>
        <time>2024-03-27T13:07:07Z</time>
      </trkpt>
      <trkpt lat="43.47571" lon="6.17635">
        <ele>135.5</ele>
        <time>2024-03-27T13:07:08Z</time>
      </trkpt>
      <trkpt lat="43.47571" lon="6.17633">
        <ele>135.4</ele>
        <time>2024-03-27T13:07:09Z</time>
      </trkpt>
      <trkpt lat="43.47571" lon="6.17632">
        <ele>135.3</ele>
        <time>2024-03-27T13:07:10Z</time>
      </trkpt>
      <trkpt lat="43.47571" lon="6.17631">
        <ele>135.3</ele>
        <time>2024-03-27T13:07:11Z</time>
      </trkpt>
      <trkpt lat="43.47571" lon="6.17631">
        <ele>135.3</ele>
        <time>2024-03-27T13:07:12Z</time>
      </trkpt>
      <trkpt lat="43.47571" lon="6.1763">
        <ele>135.2</ele>
        <time>2024-03-27T13:07:13Z</time>
      </trkpt>
      <trkpt lat="43.47572" lon="6.17629">
        <ele>135.1</ele>
        <time>2024-03-27T13:07:14Z</time>
      </trkpt>
      <trkpt lat="43.47572" lon="6.17628">
        <ele>134.9</ele>
        <time>2024-03-27T13:07:15Z</time>
      </trkpt>
      <trkpt lat="43.47573" lon="6.17627">
        <ele>134.8</ele>
        <time>2024-03-27T13:07:16Z</time>
      </trkpt>
      <trkpt lat="43.47574" lon="6.17627">
        <ele>134.7</ele>
        <time>2024-03-27T13:07:17Z</time>
      </trkpt>
      <trkpt lat="43.47575" lon="6.17626">
        <ele>134.6</ele>
        <time>2024-03-27T13:07:18Z</time>
      </trkpt>
      <trkpt lat="43.47576" lon="6.17626">
        <ele>134.5</ele>
        <time>2024-03-27T13:07:19Z</time>
      </trkpt>
      <trkpt lat="43.47577" lon="6.17626">
        <ele>134.4</ele>
        <time>2024-03-27T13:07:20Z</time>
      </trkpt>
      <trkpt lat="43.47578" lon="6.17625">
        <ele>134.2</ele>
        <time>2024-03-27T13:07:21Z</time>
      </trkpt>
      <trkpt lat="43.47579" lon="6.17625">
        <ele>134.2</ele>
        <time>2024-03-27T13:07:22Z</time>
      </trkpt>
      <trkpt lat="43.47579" lon="6.17625">
        <ele>134.1</ele>
        <time>2024-03-27T13:07:23Z</time>
      </trkpt>
      <trkpt lat="43.4758" lon="6.17624">
        <ele>134</ele>
        <time>2024-03-27T13:07:24Z</time>
      </trkpt>
      <trkpt lat="43.4758" lon="6.17624">
        <ele>133.8</ele>
        <time>2024-03-27T13:07:25Z</time>
      </trkpt>
      <trkpt lat="43.47581" lon="6.17623">
        <ele>133.7</ele>
        <time>2024-03-27T13:07:26Z</time>
      </trkpt>
      <trkpt lat="43.47582" lon="6.17623">
        <ele>133.6</ele>
        <time>2024-03-27T13:07:27Z</time>
      </trkpt>
      <trkpt lat="43.47583" lon="6.17623">
        <ele>133.6</ele>
        <time>2024-03-27T13:07:28Z</time>
      </trkpt>
      <trkpt lat="43.47584" lon="6.17623">
        <ele>133.6</ele>
        <time>2024-03-27T13:07:29Z</time>
      </trkpt>
      <trkpt lat="43.47585" lon="6.17622">
        <ele>133.6</ele>
        <time>2024-03-27T13:07:30Z</time>
      </trkpt>
      <trkpt lat="43.47586" lon="6.17622">
        <ele>133.7</ele>
        <time>2024-03-27T13:07:31Z</time>
      </trkpt>
      <trkpt lat="43.47587" lon="6.17622">
        <ele>133.6</ele>
        <time>2024-03-27T13:07:32Z</time>
      </trkpt>
      <trkpt lat="43.47587" lon="6.17622">
        <ele>133.6</ele>
        <time>2024-03-27T13:07:33Z</time>
      </trkpt>
      <trkpt lat="43.47588" lon="6.17622">
        <ele>133.6</ele>
        <time>2024-03-27T13:07:34Z</time>
      </trkpt>
      <trkpt lat="43.47589" lon="6.17621">
        <ele>133.6</ele>
        <time>2024-03-27T13:07:35Z</time>
      </trkpt>
      <trkpt lat="43.4759" lon="6.17621">
        <ele>133.5</ele>
        <time>2024-03-27T13:07:36Z</time>
      </trkpt>
      <trkpt lat="43.47591" lon="6.1762">
        <ele>133.4</ele>
        <time>2024-03-27T13:07:37Z</time>
      </trkpt>
      <trkpt lat="43.47592" lon="6.1762">
        <ele>133.5</ele>
        <time>2024-03-27T13:07:38Z</time>
      </trkpt>
      <trkpt lat="43.47593" lon="6.1762">
        <ele>133.6</ele>
        <time>2024-03-27T13:07:39Z</time>
      </trkpt>
      <trkpt lat="43.47593" lon="6.17619">
        <ele>133.6</ele>
        <time>2024-03-27T13:07:40Z</time>
      </trkpt>
      <trkpt lat="43.47594" lon="6.17619">
        <ele>133.6</ele>
        <time>2024-03-27T13:07:41Z</time>
      </trkpt>
      <trkpt lat="43.47595" lon="6.17619">
        <ele>133.6</ele>
        <time>2024-03-27T13:07:42Z</time>
      </trkpt>
      <trkpt lat="43.47595" lon="6.17619">
        <ele>133.7</ele>
        <time>2024-03-27T13:07:43Z</time>
      </trkpt>
      <trkpt lat="43.47596" lon="6.17618">
        <ele>133.6</ele>
        <time>2024-03-27T13:07:44Z</time>
      </trkpt>
      <trkpt lat="43.47598" lon="6.17618">
        <ele>133.6</ele>
        <time>2024-03-27T13:07:45Z</time>
      </trkpt>
      <trkpt lat="43.47598" lon="6.17617">
        <ele>133.7</ele>
        <time>2024-03-27T13:07:46Z</time>
      </trkpt>
      <trkpt lat="43.47599" lon="6.17617">
        <ele>133.8</ele>
        <time>2024-03-27T13:07:47Z</time>
      </trkpt>
      <trkpt lat="43.476" lon="6.17617">
        <ele>133.9</ele>
        <time>2024-03-27T13:07:48Z</time>
      </trkpt>
      <trkpt lat="43.47602" lon="6.17616">
        <ele>133.9</ele>
        <time>2024-03-27T13:07:49Z</time>
      </trkpt>
      <trkpt lat="43.47602" lon="6.17616">
        <ele>134</ele>
        <time>2024-03-27T13:07:50Z</time>
      </trkpt>
      <trkpt lat="43.47603" lon="6.17616">
        <ele>134</ele>
        <time>2024-03-27T13:07:51Z</time>
      </trkpt>
      <trkpt lat="43.47604" lon="6.17616">
        <ele>134</ele>
        <time>2024-03-27T13:07:52Z</time>
      </trkpt>
      <trkpt lat="43.47605" lon="6.17615">
        <ele>134</ele>
        <time>2024-03-27T13:07:53Z</time>
      </trkpt>
      <trkpt lat="43.47606" lon="6.17615">
        <ele>134</ele>
        <time>2024-03-27T13:07:54Z</time>
      </trkpt>
      <trkpt lat="43.47607" lon="6.17614">
        <ele>134.1</ele>
        <time>2024-03-27T13:07:55Z</time>
      </trkpt>
      <trkpt lat="43.47607" lon="6.17614">
        <ele>134.1</ele>
        <time>2024-03-27T13:07:56Z</time>
      </trkpt>
      <trkpt lat="43.47608" lon="6.17613">
        <ele>134.1</ele>
        <time>2024-03-27T13:07:57Z</time>
      </trkpt>
      <trkpt lat="43.47609" lon="6.17613">
        <ele>134.1</ele>
        <time>2024-03-27T13:07:58Z</time>
      </trkpt>
      <trkpt lat="43.4761" lon="6.17612">
        <ele>134</ele>
        <time>2024-03-27T13:07:59Z</time>
      </trkpt>
      <trkpt lat="43.47611" lon="6.17612">
        <ele>133.8</ele>
        <time>2024-03-27T13:08:00Z</time>
      </trkpt>
      <trkpt lat="43.47612" lon="6.17611">
        <ele>133.7</ele>
        <time>2024-03-27T13:08:01Z</time>
      </trkpt>
      <trkpt lat="43.47613" lon="6.17611">
        <ele>133.7</ele>
        <time>2024-03-27T13:08:02Z</time>
      </trkpt>
      <trkpt lat="43.47613" lon="6.1761">
        <ele>133.6</ele>
        <time>2024-03-27T13:08:03Z</time>
      </trkpt>
      <trkpt lat="43.47614" lon="6.1761">
        <ele>133.6</ele>
        <time>2024-03-27T13:08:04Z</time>
      </trkpt>
      <trkpt lat="43.47615" lon="6.17609">
        <ele>133.5</ele>
        <time>2024-03-27T13:08:05Z</time>
      </trkpt>
      <trkpt lat="43.47616" lon="6.17609">
        <ele>133.3</ele>
        <time>2024-03-27T13:08:06Z</time>
      </trkpt>
      <trkpt lat="43.47617" lon="6.17608">
        <ele>133.2</ele>
        <time>2024-03-27T13:08:07Z</time>
      </trkpt>
      <trkpt lat="43.47618" lon="6.17608">
        <ele>133.1</ele>
        <time>2024-03-27T13:08:08Z</time>
      </trkpt>
      <trkpt lat="43.47619" lon="6.17607">
        <ele>133.1</ele>
        <time>2024-03-27T13:08:09Z</time>
      </trkpt>
      <trkpt lat="43.47619" lon="6.17606">
        <ele>133</ele>
        <time>2024-03-27T13:08:10Z</time>
      </trkpt>
      <trkpt lat="43.4762" lon="6.17606">
        <ele>132.9</ele>
        <time>2024-03-27T13:08:11Z</time>
      </trkpt>
      <trkpt lat="43.4762" lon="6.17606">
        <ele>132.8</ele>
        <time>2024-03-27T13:08:12Z</time>
      </trkpt>
      <trkpt lat="43.4762" lon="6.17605">
        <ele>132.8</ele>
        <time>2024-03-27T13:08:13Z</time>
      </trkpt>
      <trkpt lat="43.47619" lon="6.17605">
        <ele>132.8</ele>
        <time>2024-03-27T13:08:14Z</time>
      </trkpt>
      <trkpt lat="43.47619" lon="6.17604">
        <ele>132.8</ele>
        <time>2024-03-27T13:08:15Z</time>
      </trkpt>
      <trkpt lat="43.4762" lon="6.17604">
        <ele>132.8</ele>
        <time>2024-03-27T13:08:16Z</time>
      </trkpt>
      <trkpt lat="43.4762" lon="6.17603">
        <ele>132.8</ele>
        <time>2024-03-27T13:08:17Z</time>
      </trkpt>
      <trkpt lat="43.4762" lon="6.17603">
        <ele>132.8</ele>
        <time>2024-03-27T13:08:18Z</time>
      </trkpt>
      <trkpt lat="43.4762" lon="6.17602">
        <ele>132.7</ele>
        <time>2024-03-27T13:08:19Z</time>
      </trkpt>
      <trkpt lat="43.4762" lon="6.17602">
        <ele>132.7</ele>
        <time>2024-03-27T13:08:20Z</time>
      </trkpt>
      <trkpt lat="43.4762" lon="6.17602">
        <ele>132.6</ele>
        <time>2024-03-27T13:08:21Z</time>
      </trkpt>
      <trkpt lat="43.47621" lon="6.17601">
        <ele>132.6</ele>
        <time>2024-03-27T13:08:22Z</time>
      </trkpt>
      <trkpt lat="43.47621" lon="6.17601">
        <ele>132.6</ele>
        <time>2024-03-27T13:08:23Z</time>
      </trkpt>
      <trkpt lat="43.47621" lon="6.176">
        <ele>132.5</ele>
        <time>2024-03-27T13:08:24Z</time>
      </trkpt>
      <trkpt lat="43.47621" lon="6.176">
        <ele>132.5</ele>
        <time>2024-03-27T13:08:25Z</time>
      </trkpt>
      <trkpt lat="43.47621" lon="6.17601">
        <ele>132.5</ele>
        <time>2024-03-27T13:08:26Z</time>
      </trkpt>
      <trkpt lat="43.47621" lon="6.17601">
        <ele>132.3</ele>
        <time>2024-03-27T13:08:27Z</time>
      </trkpt>
      <trkpt lat="43.47621" lon="6.17601">
        <ele>132.3</ele>
        <time>2024-03-27T13:08:28Z</time>
      </trkpt>
      <trkpt lat="43.47622" lon="6.17601">
        <ele>132.5</ele>
        <time>2024-03-27T13:08:29Z</time>
      </trkpt>
      <trkpt lat="43.47622" lon="6.176">
        <ele>132.5</ele>
        <time>2024-03-27T13:08:30Z</time>
      </trkpt>
      <trkpt lat="43.47622" lon="6.176">
        <ele>132.5</ele>
        <time>2024-03-27T13:08:31Z</time>
      </trkpt>
      <trkpt lat="43.47622" lon="6.176">
        <ele>132.4</ele>
        <time>2024-03-27T13:08:32Z</time>
      </trkpt>
      <trkpt lat="43.47622" lon="6.176">
        <ele>132.4</ele>
        <time>2024-03-27T13:08:33Z</time>
      </trkpt>
      <trkpt lat="43.47622" lon="6.176">
        <ele>132.4</ele>
        <time>2024-03-27T13:08:34Z</time>
      </trkpt>
      <trkpt lat="43.47622" lon="6.17599">
        <ele>132.3</ele>
        <time>2024-03-27T13:08:35Z</time>
      </trkpt>
      <trkpt lat="43.47622" lon="6.17599">
        <ele>132.3</ele>
        <time>2024-03-27T13:08:36Z</time>
      </trkpt>
      <trkpt lat="43.47623" lon="6.17599">
        <ele>132.3</ele>
        <time>2024-03-27T13:08:37Z</time>
      </trkpt>
      <trkpt lat="43.47623" lon="6.17599">
        <ele>132.3</ele>
        <time>2024-03-27T13:08:38Z</time>
      </trkpt>
      <trkpt lat="43.47623" lon="6.17599">
        <ele>132.3</ele>
        <time>2024-03-27T13:08:39Z</time>
      </trkpt>
      <trkpt lat="43.47623" lon="6.17599">
        <ele>132.2</ele>
        <time>2024-03-27T13:08:40Z</time>
      </trkpt>
      <trkpt lat="43.47623" lon="6.17599">
        <ele>132.2</ele>
        <time>2024-03-27T13:08:41Z</time>
      </trkpt>
      <trkpt lat="43.47623" lon="6.17599">
        <ele>132.1</ele>
        <time>2024-03-27T13:08:42Z</time>
      </trkpt>
      <trkpt lat="43.47623" lon="6.17599">
        <ele>132.1</ele>
        <time>2024-03-27T13:08:43Z</time>
      </trkpt>
      <trkpt lat="43.47623" lon="6.17599">
        <ele>132</ele>
        <time>2024-03-27T13:08:44Z</time>
      </trkpt>
      <trkpt lat="43.47623" lon="6.17599">
        <ele>132</ele>
        <time>2024-03-27T13:08:45Z</time>
      </trkpt>
      <trkpt lat="43.47623" lon="6.17599">
        <ele>132</ele>
        <time>2024-03-27T13:08:46Z</time>
      </trkpt>
      <trkpt lat="43.47623" lon="6.17598">
        <ele>132</ele>
        <time>2024-03-27T13:08:47Z</time>
      </trkpt>
      <trkpt lat="43.47623" lon="6.17598">
        <ele>132.1</ele>
        <time>2024-03-27T13:08:48Z</time>
      </trkpt>
      <trkpt lat="43.47623" lon="6.17598">
        <ele>132.1</ele>
        <time>2024-03-27T13:08:49Z</time>
      </trkpt>
      <trkpt lat="43.47623" lon="6.17598">
        <ele>132.2</ele>
        <time>2024-03-27T13:08:50Z</time>
      </trkpt>
      <trkpt lat="43.47624" lon="6.17598">
        <ele>132.2</ele>
        <time>2024-03-27T13:08:51Z</time>
      </trkpt>
      <trkpt lat="43.47624" lon="6.17598">
        <ele>132.2</ele>
        <time>2024-03-27T13:08:52Z</time>
      </trkpt>
      <trkpt lat="43.47624" lon="6.17598">
        <ele>132.2</ele>
        <time>2024-03-27T13:08:53Z</time>
      </trkpt>
      <trkpt lat="43.47624" lon="6.17598">
        <ele>132.1</ele>
        <time>2024-03-27T13:08:54Z</time>
      </trkpt>
      <trkpt lat="43.47624" lon="6.17598">
        <ele>132.1</ele>
        <time>2024-03-27T13:08:55Z</time>
      </trkpt>
      <trkpt lat="43.47624" lon="6.17598">
        <ele>132</ele>
        <time>2024-03-27T13:08:56Z</time>
      </trkpt>
      <trkpt lat="43.47624" lon="6.17598">
        <ele>132</ele>
        <time>2024-03-27T13:08:57Z</time>
      </trkpt>
      <trkpt lat="43.47624" lon="6.17598">
        <ele>131.9</ele>
        <time>2024-03-27T13:08:58Z</time>
      </trkpt>
      <trkpt lat="43.47624" lon="6.17598">
        <ele>131.8</ele>
        <time>2024-03-27T13:08:59Z</time>
      </trkpt>
      <trkpt lat="43.47624" lon="6.17598">
        <ele>131.7</ele>
        <time>2024-03-27T13:09:00Z</time>
      </trkpt>
      <trkpt lat="43.47624" lon="6.17598">
        <ele>131.7</ele>
        <time>2024-03-27T13:09:01Z</time>
      </trkpt>
      <trkpt lat="43.47624" lon="6.17598">
        <ele>131.6</ele>
        <time>2024-03-27T13:09:02Z</time>
      </trkpt>
      <trkpt lat="43.47624" lon="6.17598">
        <ele>131.6</ele>
        <time>2024-03-27T13:09:03Z</time>
      </trkpt>
      <trkpt lat="43.47624" lon="6.17598">
        <ele>131.6</ele>
        <time>2024-03-27T13:09:04Z</time>
      </trkpt>
      <trkpt lat="43.47624" lon="6.17598">
        <ele>131.6</ele>
        <time>2024-03-27T13:09:05Z</time>
      </trkpt>
      <trkpt lat="43.47623" lon="6.17598">
        <ele>131.6</ele>
        <time>2024-03-27T13:09:06Z</time>
      </trkpt>
      <trkpt lat="43.47624" lon="6.17598">
        <ele>131.7</ele>
        <time>2024-03-27T13:09:07Z</time>
      </trkpt>
      <trkpt lat="43.47624" lon="6.17598">
        <ele>131.7</ele>
        <time>2024-03-27T13:09:08Z</time>
      </trkpt>
      <trkpt lat="43.47624" lon="6.17598">
        <ele>131.7</ele>
        <time>2024-03-27T13:09:09Z</time>
      </trkpt>
      <trkpt lat="43.47624" lon="6.17598">
        <ele>131.6</ele>
        <time>2024-03-27T13:09:10Z</time>
      </trkpt>
      <trkpt lat="43.47624" lon="6.17598">
        <ele>131.6</ele>
        <time>2024-03-27T13:09:11Z</time>
      </trkpt>
      <trkpt lat="43.47624" lon="6.17598">
        <ele>131.6</ele>
        <time>2024-03-27T13:09:12Z</time>
      </trkpt>
      <trkpt lat="43.47624" lon="6.17598">
        <ele>131.5</ele>
        <time>2024-03-27T13:09:13Z</time>
      </trkpt>
      <trkpt lat="43.47624" lon="6.17598">
        <ele>131.5</ele>
        <time>2024-03-27T13:09:14Z</time>
      </trkpt>
      <trkpt lat="43.47624" lon="6.17598">
        <ele>131.5</ele>
        <time>2024-03-27T13:09:15Z</time>
      </trkpt>
      <trkpt lat="43.47624" lon="6.17598">
        <ele>131.6</ele>
        <time>2024-03-27T13:09:16Z</time>
      </trkpt>
      <trkpt lat="43.47624" lon="6.17598">
        <ele>131.5</ele>
        <time>2024-03-27T13:09:17Z</time>
      </trkpt>
      <trkpt lat="43.47624" lon="6.17598">
        <ele>131.5</ele>
        <time>2024-03-27T13:09:18Z</time>
      </trkpt>
      <trkpt lat="43.47624" lon="6.17598">
        <ele>131.4</ele>
        <time>2024-03-27T13:09:19Z</time>
      </trkpt>
      <trkpt lat="43.47624" lon="6.17598">
        <ele>131.4</ele>
        <time>2024-03-27T13:09:20Z</time>
      </trkpt>
      <trkpt lat="43.47624" lon="6.17598">
        <ele>131.4</ele>
        <time>2024-03-27T13:09:21Z</time>
      </trkpt>
      <trkpt lat="43.47624" lon="6.17598">
        <ele>131.3</ele>
        <time>2024-03-27T13:09:22Z</time>
      </trkpt>
      <trkpt lat="43.47624" lon="6.17598">
        <ele>131.4</ele>
        <time>2024-03-27T13:09:23Z</time>
      </trkpt>
      <trkpt lat="43.47624" lon="6.17598">
        <ele>131.5</ele>
        <time>2024-03-27T13:09:24Z</time>
      </trkpt>
      <trkpt lat="43.47624" lon="6.17598">
        <ele>131.6</ele>
        <time>2024-03-27T13:09:25Z</time>
      </trkpt>
      <trkpt lat="43.47624" lon="6.17598">
        <ele>131.7</ele>
        <time>2024-03-27T13:09:26Z</time>
      </trkpt>
      <trkpt lat="43.47624" lon="6.17598">
        <ele>131.8</ele>
        <time>2024-03-27T13:09:27Z</time>
      </trkpt>
      <trkpt lat="43.47624" lon="6.17598">
        <ele>131.8</ele>
        <time>2024-03-27T13:09:28Z</time>
      </trkpt>
      <trkpt lat="43.47624" lon="6.17598">
        <ele>131.9</ele>
        <time>2024-03-27T13:09:29Z</time>
      </trkpt>
      <trkpt lat="43.47624" lon="6.17598">
        <ele>131.9</ele>
        <time>2024-03-27T13:09:30Z</time>
      </trkpt>
      <trkpt lat="43.47624" lon="6.17597">
        <ele>132</ele>
        <time>2024-03-27T13:09:31Z</time>
      </trkpt>
      <trkpt lat="43.47624" lon="6.17597">
        <ele>132</ele>
        <time>2024-03-27T13:09:32Z</time>
      </trkpt>
      <trkpt lat="43.47624" lon="6.17597">
        <ele>132.1</ele>
        <time>2024-03-27T13:09:33Z</time>
      </trkpt>
      <trkpt lat="43.47624" lon="6.17597">
        <ele>132.1</ele>
        <time>2024-03-27T13:09:34Z</time>
      </trkpt>
      <trkpt lat="43.47624" lon="6.17597">
        <ele>131.9</ele>
        <time>2024-03-27T13:09:35Z</time>
      </trkpt>
      <trkpt lat="43.47624" lon="6.17597">
        <ele>131.8</ele>
        <time>2024-03-27T13:09:36Z</time>
      </trkpt>
      <trkpt lat="43.47624" lon="6.17597">
        <ele>131.8</ele>
        <time>2024-03-27T13:09:37Z</time>
      </trkpt>
      <trkpt lat="43.47624" lon="6.17597">
        <ele>131.7</ele>
        <time>2024-03-27T13:09:38Z</time>
      </trkpt>
      <trkpt lat="43.47624" lon="6.17597">
        <ele>131.7</ele>
        <time>2024-03-27T13:09:39Z</time>
      </trkpt>
      <trkpt lat="43.47624" lon="6.17597">
        <ele>131.8</ele>
        <time>2024-03-27T13:09:40Z</time>
      </trkpt>
      <trkpt lat="43.47624" lon="6.17597">
        <ele>131.9</ele>
        <time>2024-03-27T13:09:41Z</time>
      </trkpt>
      <trkpt lat="43.47624" lon="6.17597">
        <ele>131.9</ele>
        <time>2024-03-27T13:09:42Z</time>
      </trkpt>
      <trkpt lat="43.47624" lon="6.17597">
        <ele>131.8</ele>
        <time>2024-03-27T13:09:43Z</time>
      </trkpt>
      <trkpt lat="43.47624" lon="6.17597">
        <ele>131.8</ele>
        <time>2024-03-27T13:09:44Z</time>
      </trkpt>
      <trkpt lat="43.47624" lon="6.17597">
        <ele>131.9</ele>
        <time>2024-03-27T13:09:45Z</time>
      </trkpt>
      <trkpt lat="43.47624" lon="6.17597">
        <ele>131.9</ele>
        <time>2024-03-27T13:09:46Z</time>
      </trkpt>
      <trkpt lat="43.47624" lon="6.17597">
        <ele>132</ele>
        <time>2024-03-27T13:09:47Z</time>
      </trkpt>
      <trkpt lat="43.47624" lon="6.17597">
        <ele>131.9</ele>
        <time>2024-03-27T13:09:48Z</time>
      </trkpt>
      <trkpt lat="43.47624" lon="6.17597">
        <ele>131.9</ele>
        <time>2024-03-27T13:09:49Z</time>
      </trkpt>
      <trkpt lat="43.47624" lon="6.17596">
        <ele>131.9</ele>
        <time>2024-03-27T13:09:50Z</time>
      </trkpt>
      <trkpt lat="43.47624" lon="6.17597">
        <ele>131.9</ele>
        <time>2024-03-27T13:09:51Z</time>
      </trkpt>
      <trkpt lat="43.47624" lon="6.17596">
        <ele>131.9</ele>
        <time>2024-03-27T13:09:52Z</time>
      </trkpt>
      <trkpt lat="43.47625" lon="6.17596">
        <ele>131.9</ele>
        <time>2024-03-27T13:09:53Z</time>
      </trkpt>
      <trkpt lat="43.47625" lon="6.17596">
        <ele>131.8</ele>
        <time>2024-03-27T13:09:54Z</time>
      </trkpt>
      <trkpt lat="43.47625" lon="6.17596">
        <ele>131.7</ele>
        <time>2024-03-27T13:09:55Z</time>
      </trkpt>
      <trkpt lat="43.47624" lon="6.17596">
        <ele>131.7</ele>
        <time>2024-03-27T13:09:56Z</time>
      </trkpt>
      <trkpt lat="43.47625" lon="6.17596">
        <ele>131.7</ele>
        <time>2024-03-27T13:09:57Z</time>
      </trkpt>
      <trkpt lat="43.47625" lon="6.17596">
        <ele>131.6</ele>
        <time>2024-03-27T13:09:58Z</time>
      </trkpt>
      <trkpt lat="43.47625" lon="6.17596">
        <ele>131.5</ele>
        <time>2024-03-27T13:09:59Z</time>
      </trkpt>
      <trkpt lat="43.47625" lon="6.17596">
        <ele>131.5</ele>
        <time>2024-03-27T13:10:00Z</time>
      </trkpt>
      <trkpt lat="43.47625" lon="6.17596">
        <ele>131.4</ele>
        <time>2024-03-27T13:10:01Z</time>
      </trkpt>
      <trkpt lat="43.47625" lon="6.17596">
        <ele>131.3</ele>
        <time>2024-03-27T13:10:02Z</time>
      </trkpt>
      <trkpt lat="43.47625" lon="6.17596">
        <ele>131.3</ele>
        <time>2024-03-27T13:10:03Z</time>
      </trkpt>
      <trkpt lat="43.47625" lon="6.17596">
        <ele>131.3</ele>
        <time>2024-03-27T13:10:04Z</time>
      </trkpt>
      <trkpt lat="43.47625" lon="6.17596">
        <ele>131.3</ele>
        <time>2024-03-27T13:10:05Z</time>
      </trkpt>
      <trkpt lat="43.47625" lon="6.17596">
        <ele>131.2</ele>
        <time>2024-03-27T13:10:06Z</time>
      </trkpt>
      <trkpt lat="43.47625" lon="6.17596">
        <ele>131.2</ele>
        <time>2024-03-27T13:10:07Z</time>
      </trkpt>
      <trkpt lat="43.47625" lon="6.17596">
        <ele>131.3</ele>
        <time>2024-03-27T13:10:08Z</time>
      </trkpt>
      <trkpt lat="43.47625" lon="6.17596">
        <ele>131.3</ele>
        <time>2024-03-27T13:10:09Z</time>
      </trkpt>
      <trkpt lat="43.47625" lon="6.17596">
        <ele>131.3</ele>
        <time>2024-03-27T13:10:10Z</time>
      </trkpt>
      <trkpt lat="43.47625" lon="6.17596">
        <ele>131.4</ele>
        <time>2024-03-27T13:10:11Z</time>
      </trkpt>
      <trkpt lat="43.47625" lon="6.17596">
        <ele>131.5</ele>
        <time>2024-03-27T13:10:12Z</time>
      </trkpt>
      <trkpt lat="43.47625" lon="6.17596">
        <ele>131.5</ele>
        <time>2024-03-27T13:10:13Z</time>
      </trkpt>
      <trkpt lat="43.47625" lon="6.17596">
        <ele>131.5</ele>
        <time>2024-03-27T13:10:14Z</time>
      </trkpt>
      <trkpt lat="43.47625" lon="6.17596">
        <ele>131.5</ele>
        <time>2024-03-27T13:10:15Z</time>
      </trkpt>
      <trkpt lat="43.47625" lon="6.17596">
        <ele>131.4</ele>
        <time>2024-03-27T13:10:16Z</time>
      </trkpt>
      <trkpt lat="43.47625" lon="6.17596">
        <ele>131.4</ele>
        <time>2024-03-27T13:10:17Z</time>
      </trkpt>
      <trkpt lat="43.47625" lon="6.17596">
        <ele>131.4</ele>
        <time>2024-03-27T13:10:18Z</time>
      </trkpt>
      <trkpt lat="43.47625" lon="6.17596">
        <ele>131.3</ele>
        <time>2024-03-27T13:10:19Z</time>
      </trkpt>
      <trkpt lat="43.47625" lon="6.17596">
        <ele>131.2</ele>
        <time>2024-03-27T13:10:20Z</time>
      </trkpt>
      <trkpt lat="43.47626" lon="6.17596">
        <ele>131.1</ele>
        <time>2024-03-27T13:10:21Z</time>
      </trkpt>
      <trkpt lat="43.47626" lon="6.17596">
        <ele>131.2</ele>
        <time>2024-03-27T13:10:22Z</time>
      </trkpt>
      <trkpt lat="43.47626" lon="6.17596">
        <ele>131.3</ele>
        <time>2024-03-27T13:10:23Z</time>
      </trkpt>
      <trkpt lat="43.47626" lon="6.17596">
        <ele>131.3</ele>
        <time>2024-03-27T13:10:24Z</time>
      </trkpt>
      <trkpt lat="43.47626" lon="6.17596">
        <ele>131.3</ele>
        <time>2024-03-27T13:10:25Z</time>
      </trkpt>
      <trkpt lat="43.47626" lon="6.17596">
        <ele>131.3</ele>
        <time>2024-03-27T13:10:26Z</time>
      </trkpt>
      <trkpt lat="43.47626" lon="6.17596">
        <ele>131.3</ele>
        <time>2024-03-27T13:10:27Z</time>
      </trkpt>
      <trkpt lat="43.47626" lon="6.17596">
        <ele>131.2</ele>
        <time>2024-03-27T13:10:28Z</time>
      </trkpt>
      <trkpt lat="43.47626" lon="6.17596">
        <ele>131.3</ele>
        <time>2024-03-27T13:10:29Z</time>
      </trkpt>
      <trkpt lat="43.47626" lon="6.17596">
        <ele>131.3</ele>
        <time>2024-03-27T13:10:30Z</time>
      </trkpt>
      <trkpt lat="43.47626" lon="6.17596">
        <ele>131.3</ele>
        <time>2024-03-27T13:10:31Z</time>
      </trkpt>
      <trkpt lat="43.47626" lon="6.17596">
        <ele>131.3</ele>
        <time>2024-03-27T13:10:32Z</time>
      </trkpt>
      <trkpt lat="43.47626" lon="6.17596">
        <ele>131.3</ele>
        <time>2024-03-27T13:10:33Z</time>
      </trkpt>
      <trkpt lat="43.47626" lon="6.17596">
        <ele>131.3</ele>
        <time>2024-03-27T13:10:34Z</time>
      </trkpt>
      <trkpt lat="43.47626" lon="6.17595">
        <ele>131.3</ele>
        <time>2024-03-27T13:10:35Z</time>
      </trkpt>
      <trkpt lat="43.47626" lon="6.17595">
        <ele>131.3</ele>
        <time>2024-03-27T13:10:36Z</time>
      </trkpt>
      <trkpt lat="43.47626" lon="6.17595">
        <ele>131.3</ele>
        <time>2024-03-27T13:10:37Z</time>
      </trkpt>
      <trkpt lat="43.47626" lon="6.17595">
        <ele>131.4</ele>
        <time>2024-03-27T13:10:38Z</time>
      </trkpt>
      <trkpt lat="43.47626" lon="6.17595">
        <ele>131.5</ele>
        <time>2024-03-27T13:10:39Z</time>
      </trkpt>
      <trkpt lat="43.47626" lon="6.17595">
        <ele>131.4</ele>
        <time>2024-03-27T13:10:40Z</time>
      </trkpt>
      <trkpt lat="43.47626" lon="6.17595">
        <ele>131.4</ele>
        <time>2024-03-27T13:10:41Z</time>
      </trkpt>
      <trkpt lat="43.47626" lon="6.17595">
        <ele>131.4</ele>
        <time>2024-03-27T13:10:42Z</time>
      </trkpt>
      <trkpt lat="43.47626" lon="6.17595">
        <ele>131.4</ele>
        <time>2024-03-27T13:10:43Z</time>
      </trkpt>
      <trkpt lat="43.47626" lon="6.17595">
        <ele>131.3</ele>
        <time>2024-03-27T13:10:44Z</time>
      </trkpt>
      <trkpt lat="43.47626" lon="6.17595">
        <ele>131.3</ele>
        <time>2024-03-27T13:10:45Z</time>
      </trkpt>
      <trkpt lat="43.47626" lon="6.17595">
        <ele>131.3</ele>
        <time>2024-03-27T13:10:46Z</time>
      </trkpt>
      <trkpt lat="43.47626" lon="6.17595">
        <ele>131.3</ele>
        <time>2024-03-27T13:10:47Z</time>
      </trkpt>
      <trkpt lat="43.47626" lon="6.17595">
        <ele>131.3</ele>
        <time>2024-03-27T13:10:48Z</time>
      </trkpt>
      <trkpt lat="43.47626" lon="6.17595">
        <ele>131.3</ele>
        <time>2024-03-27T13:10:49Z</time>
      </trkpt>
      <trkpt lat="43.47626" lon="6.17595">
        <ele>131.3</ele>
        <time>2024-03-27T13:10:50Z</time>
      </trkpt>
      <trkpt lat="43.47626" lon="6.17595">
        <ele>131.4</ele>
        <time>2024-03-27T13:10:51Z</time>
      </trkpt>
      <trkpt lat="43.47626" lon="6.17595">
        <ele>131.4</ele>
        <time>2024-03-27T13:10:52Z</time>
      </trkpt>
      <trkpt lat="43.47626" lon="6.17595">
        <ele>131.3</ele>
        <time>2024-03-27T13:10:53Z</time>
      </trkpt>
      <trkpt lat="43.47626" lon="6.17595">
        <ele>131.3</ele>
        <time>2024-03-27T13:10:54Z</time>
      </trkpt>
      <trkpt lat="43.47626" lon="6.17595">
        <ele>131.2</ele>
        <time>2024-03-27T13:10:55Z</time>
      </trkpt>
      <trkpt lat="43.47626" lon="6.17595">
        <ele>131.2</ele>
        <time>2024-03-27T13:10:56Z</time>
      </trkpt>
      <trkpt lat="43.47626" lon="6.17595">
        <ele>131.2</ele>
        <time>2024-03-27T13:10:57Z</time>
      </trkpt>
      <trkpt lat="43.47626" lon="6.17595">
        <ele>131.1</ele>
        <time>2024-03-27T13:10:58Z</time>
      </trkpt>
      <trkpt lat="43.47626" lon="6.17595">
        <ele>131.1</ele>
        <time>2024-03-27T13:10:59Z</time>
      </trkpt>
      <trkpt lat="43.47626" lon="6.17595">
        <ele>131.1</ele>
        <time>2024-03-27T13:11:00Z</time>
      </trkpt>
      <trkpt lat="43.47626" lon="6.17595">
        <ele>131.2</ele>
        <time>2024-03-27T13:11:01Z</time>
      </trkpt>
      <trkpt lat="43.47626" lon="6.17595">
        <ele>131.2</ele>
        <time>2024-03-27T13:11:02Z</time>
      </trkpt>
      <trkpt lat="43.47626" lon="6.17595">
        <ele>131.2</ele>
        <time>2024-03-27T13:11:03Z</time>
      </trkpt>
      <trkpt lat="43.47626" lon="6.17595">
        <ele>131.3</ele>
        <time>2024-03-27T13:11:04Z</time>
      </trkpt>
      <trkpt lat="43.47626" lon="6.17595">
        <ele>131.3</ele>
        <time>2024-03-27T13:11:05Z</time>
      </trkpt>
      <trkpt lat="43.47626" lon="6.17595">
        <ele>131.2</ele>
        <time>2024-03-27T13:11:06Z</time>
      </trkpt>
      <trkpt lat="43.47626" lon="6.17595">
        <ele>131.2</ele>
        <time>2024-03-27T13:11:07Z</time>
      </trkpt>
      <trkpt lat="43.47626" lon="6.17596">
        <ele>131.2</ele>
        <time>2024-03-27T13:11:08Z</time>
      </trkpt>
      <trkpt lat="43.47626" lon="6.17596">
        <ele>131.2</ele>
        <time>2024-03-27T13:11:09Z</time>
      </trkpt>
      <trkpt lat="43.47626" lon="6.17596">
        <ele>131.2</ele>
        <time>2024-03-27T13:11:10Z</time>
      </trkpt>
      <trkpt lat="43.47626" lon="6.17596">
        <ele>131.3</ele>
        <time>2024-03-27T13:11:11Z</time>
      </trkpt>
      <trkpt lat="43.47626" lon="6.17596">
        <ele>131.3</ele>
        <time>2024-03-27T13:11:12Z</time>
      </trkpt>
      <trkpt lat="43.47626" lon="6.17596">
        <ele>131.4</ele>
        <time>2024-03-27T13:11:13Z</time>
      </trkpt>
      <trkpt lat="43.47626" lon="6.17596">
        <ele>131.4</ele>
        <time>2024-03-27T13:11:14Z</time>
      </trkpt>
      <trkpt lat="43.47626" lon="6.17596">
        <ele>131.3</ele>
        <time>2024-03-27T13:11:15Z</time>
      </trkpt>
      <trkpt lat="43.47626" lon="6.17596">
        <ele>131.3</ele>
        <time>2024-03-27T13:11:16Z</time>
      </trkpt>
      <trkpt lat="43.47626" lon="6.17596">
        <ele>131.3</ele>
        <time>2024-03-27T13:11:17Z</time>
      </trkpt>
      <trkpt lat="43.47626" lon="6.17596">
        <ele>131.3</ele>
        <time>2024-03-27T13:11:18Z</time>
      </trkpt>
      <trkpt lat="43.47626" lon="6.17596">
        <ele>131.3</ele>
        <time>2024-03-27T13:11:19Z</time>
      </trkpt>
      <trkpt lat="43.47626" lon="6.17596">
        <ele>131.3</ele>
        <time>2024-03-27T13:11:20Z</time>
      </trkpt>
      <trkpt lat="43.47626" lon="6.17596">
        <ele>131.2</ele>
        <time>2024-03-27T13:11:21Z</time>
      </trkpt>
      <trkpt lat="43.47626" lon="6.17596">
        <ele>131.3</ele>
        <time>2024-03-27T13:11:22Z</time>
      </trkpt>
      <trkpt lat="43.47626" lon="6.17596">
        <ele>131.3</ele>
        <time>2024-03-27T13:11:23Z</time>
      </trkpt>
      <trkpt lat="43.47626" lon="6.17596">
        <ele>131.3</ele>
        <time>2024-03-27T13:11:24Z</time>
      </trkpt>
      <trkpt lat="43.47626" lon="6.17596">
        <ele>131.2</ele>
        <time>2024-03-27T13:11:25Z</time>
      </trkpt>
      <trkpt lat="43.47626" lon="6.17596">
        <ele>131.2</ele>
        <time>2024-03-27T13:11:26Z</time>
      </trkpt>
      <trkpt lat="43.47626" lon="6.17596">
        <ele>131.2</ele>
        <time>2024-03-27T13:11:27Z</time>
      </trkpt>
      <trkpt lat="43.47627" lon="6.17596">
        <ele>131.2</ele>
        <time>2024-03-27T13:11:28Z</time>
      </trkpt>
      <trkpt lat="43.47627" lon="6.17595">
        <ele>131.2</ele>
        <time>2024-03-27T13:11:29Z</time>
      </trkpt>
      <trkpt lat="43.47628" lon="6.17594">
        <ele>131.3</ele>
        <time>2024-03-27T13:11:30Z</time>
      </trkpt>
      <trkpt lat="43.47628" lon="6.17593">
        <ele>131.3</ele>
        <time>2024-03-27T13:11:31Z</time>
      </trkpt>
      <trkpt lat="43.47629" lon="6.17593">
        <ele>131.2</ele>
        <time>2024-03-27T13:11:32Z</time>
      </trkpt>
      <trkpt lat="43.47629" lon="6.17592">
        <ele>131.1</ele>
        <time>2024-03-27T13:11:33Z</time>
      </trkpt>
      <trkpt lat="43.4763" lon="6.17592">
        <ele>130.9</ele>
        <time>2024-03-27T13:11:34Z</time>
      </trkpt>
      <trkpt lat="43.47631" lon="6.17591">
        <ele>130.7</ele>
        <time>2024-03-27T13:11:35Z</time>
      </trkpt>
      <trkpt lat="43.47632" lon="6.17591">
        <ele>130.5</ele>
        <time>2024-03-27T13:11:36Z</time>
      </trkpt>
      <trkpt lat="43.47632" lon="6.17591">
        <ele>130.3</ele>
        <time>2024-03-27T13:11:37Z</time>
      </trkpt>
      <trkpt lat="43.47633" lon="6.1759">
        <ele>130.1</ele>
        <time>2024-03-27T13:11:38Z</time>
      </trkpt>
      <trkpt lat="43.47634" lon="6.17589">
        <ele>129.8</ele>
        <time>2024-03-27T13:11:39Z</time>
      </trkpt>
      <trkpt lat="43.47635" lon="6.17589">
        <ele>129.6</ele>
        <time>2024-03-27T13:11:40Z</time>
      </trkpt>
      <trkpt lat="43.47635" lon="6.17587">
        <ele>129.4</ele>
        <time>2024-03-27T13:11:41Z</time>
      </trkpt>
      <trkpt lat="43.47636" lon="6.17587">
        <ele>129.2</ele>
        <time>2024-03-27T13:11:42Z</time>
      </trkpt>
      <trkpt lat="43.47636" lon="6.17587">
        <ele>129.1</ele>
        <time>2024-03-27T13:11:43Z</time>
      </trkpt>
      <trkpt lat="43.47637" lon="6.17586">
        <ele>129</ele>
        <time>2024-03-27T13:11:44Z</time>
      </trkpt>
      <trkpt lat="43.47637" lon="6.17585">
        <ele>128.9</ele>
        <time>2024-03-27T13:11:45Z</time>
      </trkpt>
      <trkpt lat="43.47637" lon="6.17585">
        <ele>128.8</ele>
        <time>2024-03-27T13:11:46Z</time>
      </trkpt>
      <trkpt lat="43.47637" lon="6.17584">
        <ele>128.7</ele>
        <time>2024-03-27T13:11:47Z</time>
      </trkpt>
      <trkpt lat="43.47637" lon="6.17584">
        <ele>128.6</ele>
        <time>2024-03-27T13:11:48Z</time>
      </trkpt>
      <trkpt lat="43.47637" lon="6.17584">
        <ele>128.5</ele>
        <time>2024-03-27T13:11:49Z</time>
      </trkpt>
      <trkpt lat="43.47637" lon="6.17583">
        <ele>128.4</ele>
        <time>2024-03-27T13:11:50Z</time>
      </trkpt>
      <trkpt lat="43.47637" lon="6.17584">
        <ele>128.3</ele>
        <time>2024-03-27T13:11:51Z</time>
      </trkpt>
      <trkpt lat="43.47637" lon="6.17584">
        <ele>128.3</ele>
        <time>2024-03-27T13:11:52Z</time>
      </trkpt>
      <trkpt lat="43.47637" lon="6.17584">
        <ele>128.2</ele>
        <time>2024-03-27T13:11:53Z</time>
      </trkpt>
      <trkpt lat="43.47637" lon="6.17584">
        <ele>128.2</ele>
        <time>2024-03-27T13:11:54Z</time>
      </trkpt>
      <trkpt lat="43.47638" lon="6.17583">
        <ele>128</ele>
        <time>2024-03-27T13:11:55Z</time>
      </trkpt>
      <trkpt lat="43.47638" lon="6.17583">
        <ele>127.9</ele>
        <time>2024-03-27T13:11:56Z</time>
      </trkpt>
      <trkpt lat="43.47638" lon="6.17583">
        <ele>127.9</ele>
        <time>2024-03-27T13:11:57Z</time>
      </trkpt>
      <trkpt lat="43.47638" lon="6.17583">
        <ele>127.9</ele>
        <time>2024-03-27T13:11:58Z</time>
      </trkpt>
      <trkpt lat="43.47638" lon="6.17583">
        <ele>127.9</ele>
        <time>2024-03-27T13:11:59Z</time>
      </trkpt>
      <trkpt lat="43.47638" lon="6.17583">
        <ele>127.7</ele>
        <time>2024-03-27T13:12:00Z</time>
      </trkpt>
      <trkpt lat="43.47638" lon="6.17583">
        <ele>127.7</ele>
        <time>2024-03-27T13:12:01Z</time>
      </trkpt>
      <trkpt lat="43.47638" lon="6.17583">
        <ele>127.6</ele>
        <time>2024-03-27T13:12:02Z</time>
      </trkpt>
      <trkpt lat="43.47638" lon="6.17583">
        <ele>127.7</ele>
        <time>2024-03-27T13:12:03Z</time>
      </trkpt>
      <trkpt lat="43.47638" lon="6.17583">
        <ele>127.8</ele>
        <time>2024-03-27T13:12:04Z</time>
      </trkpt>
      <trkpt lat="43.47638" lon="6.17582">
        <ele>127.7</ele>
        <time>2024-03-27T13:12:05Z</time>
      </trkpt>
      <trkpt lat="43.47638" lon="6.17582">
        <ele>127.7</ele>
        <time>2024-03-27T13:12:06Z</time>
      </trkpt>
      <trkpt lat="43.47638" lon="6.17582">
        <ele>127.7</ele>
        <time>2024-03-27T13:12:07Z</time>
      </trkpt>
      <trkpt lat="43.47639" lon="6.17582">
        <ele>127.7</ele>
        <time>2024-03-27T13:12:08Z</time>
      </trkpt>
      <trkpt lat="43.47639" lon="6.17582">
        <ele>127.7</ele>
        <time>2024-03-27T13:12:09Z</time>
      </trkpt>
      <trkpt lat="43.47639" lon="6.17582">
        <ele>127.7</ele>
        <time>2024-03-27T13:12:10Z</time>
      </trkpt>
      <trkpt lat="43.47639" lon="6.17583">
        <ele>127.6</ele>
        <time>2024-03-27T13:12:11Z</time>
      </trkpt>
      <trkpt lat="43.47639" lon="6.17583">
        <ele>127.5</ele>
        <time>2024-03-27T13:12:12Z</time>
      </trkpt>
      <trkpt lat="43.47639" lon="6.17583">
        <ele>127.5</ele>
        <time>2024-03-27T13:12:13Z</time>
      </trkpt>
      <trkpt lat="43.47639" lon="6.17583">
        <ele>127.6</ele>
        <time>2024-03-27T13:12:14Z</time>
      </trkpt>
      <trkpt lat="43.47639" lon="6.17583">
        <ele>127.5</ele>
        <time>2024-03-27T13:12:15Z</time>
      </trkpt>
      <trkpt lat="43.47639" lon="6.17583">
        <ele>127.6</ele>
        <time>2024-03-27T13:12:16Z</time>
      </trkpt>
      <trkpt lat="43.47639" lon="6.17583">
        <ele>127.6</ele>
        <time>2024-03-27T13:12:17Z</time>
      </trkpt>
      <trkpt lat="43.47639" lon="6.17583">
        <ele>127.5</ele>
        <time>2024-03-27T13:12:18Z</time>
      </trkpt>
      <trkpt lat="43.47639" lon="6.17583">
        <ele>127.5</ele>
        <time>2024-03-27T13:12:19Z</time>
      </trkpt>
      <trkpt lat="43.47639" lon="6.17583">
        <ele>127.5</ele>
        <time>2024-03-27T13:12:20Z</time>
      </trkpt>
      <trkpt lat="43.47638" lon="6.17583">
        <ele>127.5</ele>
        <time>2024-03-27T13:12:21Z</time>
      </trkpt>
      <trkpt lat="43.47638" lon="6.17582">
        <ele>127.4</ele>
        <time>2024-03-27T13:12:22Z</time>
      </trkpt>
      <trkpt lat="43.47638" lon="6.17582">
        <ele>127.3</ele>
        <time>2024-03-27T13:12:23Z</time>
      </trkpt>
      <trkpt lat="43.47639" lon="6.17582">
        <ele>127.4</ele>
        <time>2024-03-27T13:12:24Z</time>
      </trkpt>
      <trkpt lat="43.47639" lon="6.17582">
        <ele>127.4</ele>
        <time>2024-03-27T13:12:25Z</time>
      </trkpt>
      <trkpt lat="43.47639" lon="6.17582">
        <ele>127.3</ele>
        <time>2024-03-27T13:12:26Z</time>
      </trkpt>
      <trkpt lat="43.47638" lon="6.17583">
        <ele>127.3</ele>
        <time>2024-03-27T13:12:27Z</time>
      </trkpt>
      <trkpt lat="43.47638" lon="6.17582">
        <ele>127.3</ele>
        <time>2024-03-27T13:12:28Z</time>
      </trkpt>
      <trkpt lat="43.47638" lon="6.17582">
        <ele>127.3</ele>
        <time>2024-03-27T13:12:29Z</time>
      </trkpt>
      <trkpt lat="43.47638" lon="6.17583">
        <ele>127.3</ele>
        <time>2024-03-27T13:12:30Z</time>
      </trkpt>
      <trkpt lat="43.47638" lon="6.17583">
        <ele>127.3</ele>
        <time>2024-03-27T13:12:31Z</time>
      </trkpt>
      <trkpt lat="43.47638" lon="6.17583">
        <ele>127.3</ele>
        <time>2024-03-27T13:12:32Z</time>
      </trkpt>
      <trkpt lat="43.47638" lon="6.17583">
        <ele>127.3</ele>
        <time>2024-03-27T13:12:33Z</time>
      </trkpt>
      <trkpt lat="43.47638" lon="6.17583">
        <ele>127.4</ele>
        <time>2024-03-27T13:12:34Z</time>
      </trkpt>
      <trkpt lat="43.47638" lon="6.17583">
        <ele>127.4</ele>
        <time>2024-03-27T13:12:35Z</time>
      </trkpt>
      <trkpt lat="43.47638" lon="6.17583">
        <ele>127.5</ele>
        <time>2024-03-27T13:12:36Z</time>
      </trkpt>
      <trkpt lat="43.47638" lon="6.17583">
        <ele>127.5</ele>
        <time>2024-03-27T13:12:37Z</time>
      </trkpt>
      <trkpt lat="43.47638" lon="6.17583">
        <ele>127.6</ele>
        <time>2024-03-27T13:12:38Z</time>
      </trkpt>
      <trkpt lat="43.47638" lon="6.17583">
        <ele>127.6</ele>
        <time>2024-03-27T13:12:39Z</time>
      </trkpt>
      <trkpt lat="43.47638" lon="6.17583">
        <ele>127.6</ele>
        <time>2024-03-27T13:12:40Z</time>
      </trkpt>
      <trkpt lat="43.47637" lon="6.17583">
        <ele>127.6</ele>
        <time>2024-03-27T13:12:41Z</time>
      </trkpt>
      <trkpt lat="43.47636" lon="6.17583">
        <ele>127.7</ele>
        <time>2024-03-27T13:12:42Z</time>
      </trkpt>
      <trkpt lat="43.47636" lon="6.17584">
        <ele>127.9</ele>
        <time>2024-03-27T13:12:43Z</time>
      </trkpt>
      <trkpt lat="43.47636" lon="6.17585">
        <ele>127.9</ele>
        <time>2024-03-27T13:12:44Z</time>
      </trkpt>
      <trkpt lat="43.47635" lon="6.17585">
        <ele>128</ele>
        <time>2024-03-27T13:12:45Z</time>
      </trkpt>
      <trkpt lat="43.47635" lon="6.17586">
        <ele>128.1</ele>
        <time>2024-03-27T13:12:46Z</time>
      </trkpt>
      <trkpt lat="43.47634" lon="6.17586">
        <ele>128.3</ele>
        <time>2024-03-27T13:12:47Z</time>
      </trkpt>
      <trkpt lat="43.47633" lon="6.17587">
        <ele>128.5</ele>
        <time>2024-03-27T13:12:48Z</time>
      </trkpt>
      <trkpt lat="43.47633" lon="6.17587">
        <ele>128.6</ele>
        <time>2024-03-27T13:12:49Z</time>
      </trkpt>
      <trkpt lat="43.47632" lon="6.17587">
        <ele>128.8</ele>
        <time>2024-03-27T13:12:50Z</time>
      </trkpt>
      <trkpt lat="43.47632" lon="6.17587">
        <ele>129</ele>
        <time>2024-03-27T13:12:51Z</time>
      </trkpt>
      <trkpt lat="43.47631" lon="6.17588">
        <ele>129.2</ele>
        <time>2024-03-27T13:12:52Z</time>
      </trkpt>
      <trkpt lat="43.47631" lon="6.17588">
        <ele>129.4</ele>
        <time>2024-03-27T13:12:53Z</time>
      </trkpt>
      <trkpt lat="43.47631" lon="6.17588">
        <ele>129.5</ele>
        <time>2024-03-27T13:12:54Z</time>
      </trkpt>
      <trkpt lat="43.4763" lon="6.17589">
        <ele>129.6</ele>
        <time>2024-03-27T13:12:55Z</time>
      </trkpt>
      <trkpt lat="43.4763" lon="6.17589">
        <ele>129.9</ele>
        <time>2024-03-27T13:12:56Z</time>
      </trkpt>
      <trkpt lat="43.47629" lon="6.1759">
        <ele>130.1</ele>
        <time>2024-03-27T13:12:57Z</time>
      </trkpt>
      <trkpt lat="43.47629" lon="6.1759">
        <ele>130.4</ele>
        <time>2024-03-27T13:12:58Z</time>
      </trkpt>
      <trkpt lat="43.47629" lon="6.1759">
        <ele>130.6</ele>
        <time>2024-03-27T13:12:59Z</time>
      </trkpt>
      <trkpt lat="43.47629" lon="6.17591">
        <ele>130.8</ele>
        <time>2024-03-27T13:13:00Z</time>
      </trkpt>
      <trkpt lat="43.47629" lon="6.17591">
        <ele>130.9</ele>
        <time>2024-03-27T13:13:01Z</time>
      </trkpt>
      <trkpt lat="43.47628" lon="6.17591">
        <ele>130.9</ele>
        <time>2024-03-27T13:13:02Z</time>
      </trkpt>
      <trkpt lat="43.47628" lon="6.17591">
        <ele>131</ele>
        <time>2024-03-27T13:13:03Z</time>
      </trkpt>
      <trkpt lat="43.47629" lon="6.17592">
        <ele>131.1</ele>
        <time>2024-03-27T13:13:04Z</time>
      </trkpt>
      <trkpt lat="43.47629" lon="6.17591">
        <ele>131.1</ele>
        <time>2024-03-27T13:13:05Z</time>
      </trkpt>
      <trkpt lat="43.47629" lon="6.17591">
        <ele>131.1</ele>
        <time>2024-03-27T13:13:06Z</time>
      </trkpt>
      <trkpt lat="43.47629" lon="6.17591">
        <ele>131.1</ele>
        <time>2024-03-27T13:13:07Z</time>
      </trkpt>
      <trkpt lat="43.47628" lon="6.17591">
        <ele>131.1</ele>
        <time>2024-03-27T13:13:08Z</time>
      </trkpt>
      <trkpt lat="43.47628" lon="6.17592">
        <ele>131.2</ele>
        <time>2024-03-27T13:13:09Z</time>
      </trkpt>
      <trkpt lat="43.47628" lon="6.17593">
        <ele>131.3</ele>
        <time>2024-03-27T13:13:10Z</time>
      </trkpt>
      <trkpt lat="43.47629" lon="6.17595">
        <ele>131.4</ele>
        <time>2024-03-27T13:13:11Z</time>
      </trkpt>
      <trkpt lat="43.4763" lon="6.17596">
        <ele>131.5</ele>
        <time>2024-03-27T13:13:12Z</time>
      </trkpt>
      <trkpt lat="43.47631" lon="6.17598">
        <ele>131.6</ele>
        <time>2024-03-27T13:13:13Z</time>
      </trkpt>
      <trkpt lat="43.47632" lon="6.17599">
        <ele>131.6</ele>
        <time>2024-03-27T13:13:14Z</time>
      </trkpt>
      <trkpt lat="43.47633" lon="6.176">
        <ele>131.5</ele>
        <time>2024-03-27T13:13:15Z</time>
      </trkpt>
      <trkpt lat="43.47634" lon="6.17601">
        <ele>131.5</ele>
        <time>2024-03-27T13:13:16Z</time>
      </trkpt>
      <trkpt lat="43.47634" lon="6.17602">
        <ele>131.5</ele>
        <time>2024-03-27T13:13:17Z</time>
      </trkpt>
      <trkpt lat="43.47635" lon="6.17604">
        <ele>131.6</ele>
        <time>2024-03-27T13:13:18Z</time>
      </trkpt>
      <trkpt lat="43.47635" lon="6.17605">
        <ele>131.5</ele>
        <time>2024-03-27T13:13:19Z</time>
      </trkpt>
      <trkpt lat="43.47636" lon="6.17607">
        <ele>131.5</ele>
        <time>2024-03-27T13:13:20Z</time>
      </trkpt>
      <trkpt lat="43.47636" lon="6.17609">
        <ele>131.5</ele>
        <time>2024-03-27T13:13:21Z</time>
      </trkpt>
      <trkpt lat="43.47637" lon="6.17611">
        <ele>131.6</ele>
        <time>2024-03-27T13:13:22Z</time>
      </trkpt>
      <trkpt lat="43.47636" lon="6.17612">
        <ele>131.6</ele>
        <time>2024-03-27T13:13:23Z</time>
      </trkpt>
      <trkpt lat="43.47637" lon="6.17614">
        <ele>131.6</ele>
        <time>2024-03-27T13:13:24Z</time>
      </trkpt>
      <trkpt lat="43.47638" lon="6.17615">
        <ele>131.6</ele>
        <time>2024-03-27T13:13:25Z</time>
      </trkpt>
      <trkpt lat="43.47639" lon="6.17617">
        <ele>131.6</ele>
        <time>2024-03-27T13:13:26Z</time>
      </trkpt>
      <trkpt lat="43.4764" lon="6.17618">
        <ele>131.7</ele>
        <time>2024-03-27T13:13:27Z</time>
      </trkpt>
      <trkpt lat="43.47641" lon="6.1762">
        <ele>131.7</ele>
        <time>2024-03-27T13:13:28Z</time>
      </trkpt>
      <trkpt lat="43.47641" lon="6.17622">
        <ele>131.7</ele>
        <time>2024-03-27T13:13:29Z</time>
      </trkpt>
      <trkpt lat="43.47642" lon="6.17624">
        <ele>131.7</ele>
        <time>2024-03-27T13:13:30Z</time>
      </trkpt>
      <trkpt lat="43.47643" lon="6.17626">
        <ele>131.6</ele>
        <time>2024-03-27T13:13:31Z</time>
      </trkpt>
      <trkpt lat="43.47644" lon="6.17627">
        <ele>131.7</ele>
        <time>2024-03-27T13:13:32Z</time>
      </trkpt>
      <trkpt lat="43.47644" lon="6.17629">
        <ele>131.7</ele>
        <time>2024-03-27T13:13:33Z</time>
      </trkpt>
      <trkpt lat="43.47645" lon="6.1763">
        <ele>131.7</ele>
        <time>2024-03-27T13:13:34Z</time>
      </trkpt>
      <trkpt lat="43.47646" lon="6.1763">
        <ele>131.7</ele>
        <time>2024-03-27T13:13:35Z</time>
      </trkpt>
      <trkpt lat="43.47646" lon="6.17631">
        <ele>131.8</ele>
        <time>2024-03-27T13:13:36Z</time>
      </trkpt>
      <trkpt lat="43.47646" lon="6.17631">
        <ele>131.8</ele>
        <time>2024-03-27T13:13:37Z</time>
      </trkpt>
      <trkpt lat="43.47646" lon="6.17631">
        <ele>131.8</ele>
        <time>2024-03-27T13:13:38Z</time>
      </trkpt>
      <trkpt lat="43.47646" lon="6.17632">
        <ele>131.8</ele>
        <time>2024-03-27T13:13:39Z</time>
      </trkpt>
      <trkpt lat="43.47646" lon="6.17632">
        <ele>131.7</ele>
        <time>2024-03-27T13:13:40Z</time>
      </trkpt>
      <trkpt lat="43.47646" lon="6.17632">
        <ele>131.7</ele>
        <time>2024-03-27T13:13:41Z</time>
      </trkpt>
      <trkpt lat="43.47646" lon="6.17631">
        <ele>131.7</ele>
        <time>2024-03-27T13:13:42Z</time>
      </trkpt>
      <trkpt lat="43.47644" lon="6.1763">
        <ele>131.7</ele>
        <time>2024-03-27T13:13:43Z</time>
      </trkpt>
      <trkpt lat="43.47644" lon="6.1763">
        <ele>131.8</ele>
        <time>2024-03-27T13:13:44Z</time>
      </trkpt>
      <trkpt lat="43.47643" lon="6.17629">
        <ele>131.7</ele>
        <time>2024-03-27T13:13:45Z</time>
      </trkpt>
      <trkpt lat="43.47642" lon="6.17628">
        <ele>131.7</ele>
        <time>2024-03-27T13:13:46Z</time>
      </trkpt>
      <trkpt lat="43.47642" lon="6.17628">
        <ele>131.7</ele>
        <time>2024-03-27T13:13:47Z</time>
      </trkpt>
      <trkpt lat="43.47642" lon="6.17627">
        <ele>131.6</ele>
        <time>2024-03-27T13:13:48Z</time>
      </trkpt>
      <trkpt lat="43.47642" lon="6.17626">
        <ele>131.6</ele>
        <time>2024-03-27T13:13:49Z</time>
      </trkpt>
      <trkpt lat="43.47641" lon="6.17626">
        <ele>131.7</ele>
        <time>2024-03-27T13:13:50Z</time>
      </trkpt>
      <trkpt lat="43.47641" lon="6.17625">
        <ele>131.7</ele>
        <time>2024-03-27T13:13:51Z</time>
      </trkpt>
      <trkpt lat="43.4764" lon="6.17624">
        <ele>131.7</ele>
        <time>2024-03-27T13:13:52Z</time>
      </trkpt>
      <trkpt lat="43.4764" lon="6.17623">
        <ele>131.8</ele>
        <time>2024-03-27T13:13:53Z</time>
      </trkpt>
      <trkpt lat="43.47639" lon="6.17622">
        <ele>131.8</ele>
        <time>2024-03-27T13:13:54Z</time>
      </trkpt>
      <trkpt lat="43.47639" lon="6.1762">
        <ele>131.9</ele>
        <time>2024-03-27T13:13:55Z</time>
      </trkpt>
      <trkpt lat="43.47639" lon="6.17619">
        <ele>131.8</ele>
        <time>2024-03-27T13:13:56Z</time>
      </trkpt>
      <trkpt lat="43.47639" lon="6.17617">
        <ele>131.8</ele>
        <time>2024-03-27T13:13:57Z</time>
      </trkpt>
      <trkpt lat="43.47638" lon="6.17617">
        <ele>131.8</ele>
        <time>2024-03-27T13:13:58Z</time>
      </trkpt>
      <trkpt lat="43.47637" lon="6.17616">
        <ele>131.8</ele>
        <time>2024-03-27T13:13:59Z</time>
      </trkpt>
      <trkpt lat="43.47637" lon="6.17614">
        <ele>131.7</ele>
        <time>2024-03-27T13:14:00Z</time>
      </trkpt>
      <trkpt lat="43.47637" lon="6.17612">
        <ele>131.6</ele>
        <time>2024-03-27T13:14:01Z</time>
      </trkpt>
      <trkpt lat="43.47637" lon="6.17611">
        <ele>131.6</ele>
        <time>2024-03-27T13:14:02Z</time>
      </trkpt>
      <trkpt lat="43.47636" lon="6.1761">
        <ele>131.7</ele>
        <time>2024-03-27T13:14:03Z</time>
      </trkpt>
      <trkpt lat="43.47637" lon="6.17608">
        <ele>131.8</ele>
        <time>2024-03-27T13:14:04Z</time>
      </trkpt>
      <trkpt lat="43.47637" lon="6.17606">
        <ele>131.8</ele>
        <time>2024-03-27T13:14:05Z</time>
      </trkpt>
      <trkpt lat="43.47636" lon="6.17605">
        <ele>131.8</ele>
        <time>2024-03-27T13:14:06Z</time>
      </trkpt>
      <trkpt lat="43.47636" lon="6.17604">
        <ele>131.8</ele>
        <time>2024-03-27T13:14:07Z</time>
      </trkpt>
      <trkpt lat="43.47635" lon="6.17604">
        <ele>131.8</ele>
        <time>2024-03-27T13:14:08Z</time>
      </trkpt>
      <trkpt lat="43.47635" lon="6.17603">
        <ele>131.9</ele>
        <time>2024-03-27T13:14:09Z</time>
      </trkpt>
      <trkpt lat="43.47635" lon="6.17602">
        <ele>131.9</ele>
        <time>2024-03-27T13:14:10Z</time>
      </trkpt>
      <trkpt lat="43.47634" lon="6.17601">
        <ele>131.9</ele>
        <time>2024-03-27T13:14:11Z</time>
      </trkpt>
      <trkpt lat="43.47633" lon="6.17601">
        <ele>131.9</ele>
        <time>2024-03-27T13:14:12Z</time>
      </trkpt>
      <trkpt lat="43.47632" lon="6.17601">
        <ele>131.9</ele>
        <time>2024-03-27T13:14:13Z</time>
      </trkpt>
      <trkpt lat="43.47632" lon="6.17601">
        <ele>131.9</ele>
        <time>2024-03-27T13:14:14Z</time>
      </trkpt>
      <trkpt lat="43.47631" lon="6.17601">
        <ele>131.9</ele>
        <time>2024-03-27T13:14:15Z</time>
      </trkpt>
      <trkpt lat="43.4763" lon="6.17601">
        <ele>131.9</ele>
        <time>2024-03-27T13:14:16Z</time>
      </trkpt>
      <trkpt lat="43.47629" lon="6.17601">
        <ele>131.8</ele>
        <time>2024-03-27T13:14:17Z</time>
      </trkpt>
      <trkpt lat="43.47627" lon="6.17601">
        <ele>131.9</ele>
        <time>2024-03-27T13:14:18Z</time>
      </trkpt>
      <trkpt lat="43.47626" lon="6.17602">
        <ele>131.9</ele>
        <time>2024-03-27T13:14:19Z</time>
      </trkpt>
      <trkpt lat="43.47625" lon="6.17602">
        <ele>132</ele>
        <time>2024-03-27T13:14:20Z</time>
      </trkpt>
      <trkpt lat="43.47624" lon="6.17603">
        <ele>132</ele>
        <time>2024-03-27T13:14:21Z</time>
      </trkpt>
      <trkpt lat="43.47623" lon="6.17604">
        <ele>132</ele>
        <time>2024-03-27T13:14:22Z</time>
      </trkpt>
      <trkpt lat="43.47622" lon="6.17605">
        <ele>132.1</ele>
        <time>2024-03-27T13:14:23Z</time>
      </trkpt>
      <trkpt lat="43.4762" lon="6.17605">
        <ele>132.1</ele>
        <time>2024-03-27T13:14:24Z</time>
      </trkpt>
      <trkpt lat="43.47619" lon="6.17605">
        <ele>132.1</ele>
        <time>2024-03-27T13:14:25Z</time>
      </trkpt>
      <trkpt lat="43.47618" lon="6.17606">
        <ele>132.1</ele>
        <time>2024-03-27T13:14:26Z</time>
      </trkpt>
      <trkpt lat="43.47617" lon="6.17606">
        <ele>132.2</ele>
        <time>2024-03-27T13:14:27Z</time>
      </trkpt>
      <trkpt lat="43.47616" lon="6.17606">
        <ele>132.2</ele>
        <time>2024-03-27T13:14:28Z</time>
      </trkpt>
      <trkpt lat="43.47615" lon="6.17606">
        <ele>132.2</ele>
        <time>2024-03-27T13:14:29Z</time>
      </trkpt>
      <trkpt lat="43.47613" lon="6.17606">
        <ele>132.2</ele>
        <time>2024-03-27T13:14:30Z</time>
      </trkpt>
      <trkpt lat="43.47612" lon="6.17606">
        <ele>132.3</ele>
        <time>2024-03-27T13:14:31Z</time>
      </trkpt>
      <trkpt lat="43.47611" lon="6.17606">
        <ele>132.4</ele>
        <time>2024-03-27T13:14:32Z</time>
      </trkpt>
      <trkpt lat="43.4761" lon="6.17606">
        <ele>132.5</ele>
        <time>2024-03-27T13:14:33Z</time>
      </trkpt>
      <trkpt lat="43.47609" lon="6.17606">
        <ele>132.5</ele>
        <time>2024-03-27T13:14:34Z</time>
      </trkpt>
      <trkpt lat="43.47607" lon="6.17606">
        <ele>132.6</ele>
        <time>2024-03-27T13:14:35Z</time>
      </trkpt>
      <trkpt lat="43.47606" lon="6.17606">
        <ele>132.7</ele>
        <time>2024-03-27T13:14:36Z</time>
      </trkpt>
      <trkpt lat="43.47605" lon="6.17606">
        <ele>132.7</ele>
        <time>2024-03-27T13:14:37Z</time>
      </trkpt>
      <trkpt lat="43.47604" lon="6.17607">
        <ele>132.7</ele>
        <time>2024-03-27T13:14:38Z</time>
      </trkpt>
      <trkpt lat="43.47603" lon="6.17607">
        <ele>132.8</ele>
        <time>2024-03-27T13:14:39Z</time>
      </trkpt>
      <trkpt lat="43.47601" lon="6.17606">
        <ele>132.8</ele>
        <time>2024-03-27T13:14:40Z</time>
      </trkpt>
      <trkpt lat="43.476" lon="6.17606">
        <ele>132.8</ele>
        <time>2024-03-27T13:14:41Z</time>
      </trkpt>
      <trkpt lat="43.47599" lon="6.17606">
        <ele>132.8</ele>
        <time>2024-03-27T13:14:42Z</time>
      </trkpt>
      <trkpt lat="43.47598" lon="6.17606">
        <ele>132.9</ele>
        <time>2024-03-27T13:14:43Z</time>
      </trkpt>
      <trkpt lat="43.47596" lon="6.17606">
        <ele>132.9</ele>
        <time>2024-03-27T13:14:44Z</time>
      </trkpt>
      <trkpt lat="43.47595" lon="6.17606">
        <ele>132.9</ele>
        <time>2024-03-27T13:14:45Z</time>
      </trkpt>
      <trkpt lat="43.47594" lon="6.17606">
        <ele>132.8</ele>
        <time>2024-03-27T13:14:46Z</time>
      </trkpt>
      <trkpt lat="43.47593" lon="6.17606">
        <ele>132.8</ele>
        <time>2024-03-27T13:14:47Z</time>
      </trkpt>
      <trkpt lat="43.47592" lon="6.17607">
        <ele>132.8</ele>
        <time>2024-03-27T13:14:48Z</time>
      </trkpt>
      <trkpt lat="43.47591" lon="6.17607">
        <ele>132.9</ele>
        <time>2024-03-27T13:14:49Z</time>
      </trkpt>
      <trkpt lat="43.4759" lon="6.17607">
        <ele>133.1</ele>
        <time>2024-03-27T13:14:50Z</time>
      </trkpt>
      <trkpt lat="43.47589" lon="6.17607">
        <ele>133.1</ele>
        <time>2024-03-27T13:14:51Z</time>
      </trkpt>
      <trkpt lat="43.47587" lon="6.17607">
        <ele>133.2</ele>
        <time>2024-03-27T13:14:52Z</time>
      </trkpt>
      <trkpt lat="43.47586" lon="6.17607">
        <ele>133.2</ele>
        <time>2024-03-27T13:14:53Z</time>
      </trkpt>
      <trkpt lat="43.47584" lon="6.17608">
        <ele>133.2</ele>
        <time>2024-03-27T13:14:54Z</time>
      </trkpt>
      <trkpt lat="43.47584" lon="6.17608">
        <ele>133.2</ele>
        <time>2024-03-27T13:14:55Z</time>
      </trkpt>
      <trkpt lat="43.47582" lon="6.17608">
        <ele>133.2</ele>
        <time>2024-03-27T13:14:56Z</time>
      </trkpt>
      <trkpt lat="43.47581" lon="6.17609">
        <ele>133.2</ele>
        <time>2024-03-27T13:14:57Z</time>
      </trkpt>
      <trkpt lat="43.4758" lon="6.17609">
        <ele>133.1</ele>
        <time>2024-03-27T13:14:58Z</time>
      </trkpt>
      <trkpt lat="43.47579" lon="6.1761">
        <ele>133.1</ele>
        <time>2024-03-27T13:14:59Z</time>
      </trkpt>
      <trkpt lat="43.47577" lon="6.17609">
        <ele>133.2</ele>
        <time>2024-03-27T13:15:00Z</time>
      </trkpt>
      <trkpt lat="43.47576" lon="6.1761">
        <ele>133.2</ele>
        <time>2024-03-27T13:15:01Z</time>
      </trkpt>
      <trkpt lat="43.47575" lon="6.1761">
        <ele>133.2</ele>
        <time>2024-03-27T13:15:02Z</time>
      </trkpt>
      <trkpt lat="43.47574" lon="6.1761">
        <ele>133.2</ele>
        <time>2024-03-27T13:15:03Z</time>
      </trkpt>
      <trkpt lat="43.47573" lon="6.17611">
        <ele>133.2</ele>
        <time>2024-03-27T13:15:04Z</time>
      </trkpt>
      <trkpt lat="43.47572" lon="6.17611">
        <ele>133.3</ele>
        <time>2024-03-27T13:15:05Z</time>
      </trkpt>
      <trkpt lat="43.47571" lon="6.17611">
        <ele>133.2</ele>
        <time>2024-03-27T13:15:06Z</time>
      </trkpt>
      <trkpt lat="43.47571" lon="6.17611">
        <ele>133.3</ele>
        <time>2024-03-27T13:15:07Z</time>
      </trkpt>
      <trkpt lat="43.4757" lon="6.17611">
        <ele>133.4</ele>
        <time>2024-03-27T13:15:08Z</time>
      </trkpt>
      <trkpt lat="43.4757" lon="6.17611">
        <ele>133.4</ele>
        <time>2024-03-27T13:15:09Z</time>
      </trkpt>
      <trkpt lat="43.4757" lon="6.17612">
        <ele>133.3</ele>
        <time>2024-03-27T13:15:10Z</time>
      </trkpt>
      <trkpt lat="43.4757" lon="6.17612">
        <ele>133.3</ele>
        <time>2024-03-27T13:15:11Z</time>
      </trkpt>
      <trkpt lat="43.4757" lon="6.17612">
        <ele>133.4</ele>
        <time>2024-03-27T13:15:12Z</time>
      </trkpt>
      <trkpt lat="43.47571" lon="6.17612">
        <ele>133.4</ele>
        <time>2024-03-27T13:15:13Z</time>
      </trkpt>
      <trkpt lat="43.47571" lon="6.17613">
        <ele>133.4</ele>
        <time>2024-03-27T13:15:14Z</time>
      </trkpt>
      <trkpt lat="43.4757" lon="6.17613">
        <ele>133.5</ele>
        <time>2024-03-27T13:15:15Z</time>
      </trkpt>
      <trkpt lat="43.4757" lon="6.17614">
        <ele>133.5</ele>
        <time>2024-03-27T13:15:16Z</time>
      </trkpt>
      <trkpt lat="43.47569" lon="6.17614">
        <ele>133.4</ele>
        <time>2024-03-27T13:15:17Z</time>
      </trkpt>
      <trkpt lat="43.47567" lon="6.17615">
        <ele>133.4</ele>
        <time>2024-03-27T13:15:18Z</time>
      </trkpt>
      <trkpt lat="43.47566" lon="6.17615">
        <ele>133.4</ele>
        <time>2024-03-27T13:15:19Z</time>
      </trkpt>
      <trkpt lat="43.47565" lon="6.17615">
        <ele>133.4</ele>
        <time>2024-03-27T13:15:20Z</time>
      </trkpt>
      <trkpt lat="43.47564" lon="6.17616">
        <ele>133.5</ele>
        <time>2024-03-27T13:15:21Z</time>
      </trkpt>
      <trkpt lat="43.47562" lon="6.17616">
        <ele>133.5</ele>
        <time>2024-03-27T13:15:22Z</time>
      </trkpt>
      <trkpt lat="43.47561" lon="6.17616">
        <ele>133.5</ele>
        <time>2024-03-27T13:15:23Z</time>
      </trkpt>
      <trkpt lat="43.4756" lon="6.17617">
        <ele>133.5</ele>
        <time>2024-03-27T13:15:24Z</time>
      </trkpt>
      <trkpt lat="43.47558" lon="6.17617">
        <ele>133.4</ele>
        <time>2024-03-27T13:15:25Z</time>
      </trkpt>
      <trkpt lat="43.47557" lon="6.17617">
        <ele>133.3</ele>
        <time>2024-03-27T13:15:26Z</time>
      </trkpt>
      <trkpt lat="43.47556" lon="6.17618">
        <ele>133.4</ele>
        <time>2024-03-27T13:15:27Z</time>
      </trkpt>
      <trkpt lat="43.47555" lon="6.17618">
        <ele>133.4</ele>
        <time>2024-03-27T13:15:28Z</time>
      </trkpt>
      <trkpt lat="43.47554" lon="6.17618">
        <ele>133.5</ele>
        <time>2024-03-27T13:15:29Z</time>
      </trkpt>
      <trkpt lat="43.47553" lon="6.17619">
        <ele>133.6</ele>
        <time>2024-03-27T13:15:30Z</time>
      </trkpt>
      <trkpt lat="43.47552" lon="6.1762">
        <ele>133.6</ele>
        <time>2024-03-27T13:15:31Z</time>
      </trkpt>
      <trkpt lat="43.47551" lon="6.1762">
        <ele>133.6</ele>
        <time>2024-03-27T13:15:32Z</time>
      </trkpt>
      <trkpt lat="43.4755" lon="6.17621">
        <ele>133.6</ele>
        <time>2024-03-27T13:15:33Z</time>
      </trkpt>
      <trkpt lat="43.47549" lon="6.17622">
        <ele>133.7</ele>
        <time>2024-03-27T13:15:34Z</time>
      </trkpt>
      <trkpt lat="43.47548" lon="6.17622">
        <ele>133.7</ele>
        <time>2024-03-27T13:15:35Z</time>
      </trkpt>
      <trkpt lat="43.47547" lon="6.17622">
        <ele>133.9</ele>
        <time>2024-03-27T13:15:36Z</time>
      </trkpt>
      <trkpt lat="43.47546" lon="6.17622">
        <ele>134</ele>
        <time>2024-03-27T13:15:37Z</time>
      </trkpt>
      <trkpt lat="43.47545" lon="6.17623">
        <ele>134.1</ele>
        <time>2024-03-27T13:15:38Z</time>
      </trkpt>
      <trkpt lat="43.47544" lon="6.17623">
        <ele>134.2</ele>
        <time>2024-03-27T13:15:39Z</time>
      </trkpt>
      <trkpt lat="43.47543" lon="6.17624">
        <ele>134.3</ele>
        <time>2024-03-27T13:15:40Z</time>
      </trkpt>
      <trkpt lat="43.47542" lon="6.17625">
        <ele>134.3</ele>
        <time>2024-03-27T13:15:41Z</time>
      </trkpt>
      <trkpt lat="43.47542" lon="6.17626">
        <ele>134.5</ele>
        <time>2024-03-27T13:15:42Z</time>
      </trkpt>
      <trkpt lat="43.47541" lon="6.17627">
        <ele>134.5</ele>
        <time>2024-03-27T13:15:43Z</time>
      </trkpt>
      <trkpt lat="43.4754" lon="6.17628">
        <ele>134.7</ele>
        <time>2024-03-27T13:15:44Z</time>
      </trkpt>
      <trkpt lat="43.47539" lon="6.17628">
        <ele>134.8</ele>
        <time>2024-03-27T13:15:45Z</time>
      </trkpt>
      <trkpt lat="43.47539" lon="6.17629">
        <ele>134.9</ele>
        <time>2024-03-27T13:15:46Z</time>
      </trkpt>
      <trkpt lat="43.47539" lon="6.17629">
        <ele>135</ele>
        <time>2024-03-27T13:15:47Z</time>
      </trkpt>
      <trkpt lat="43.47539" lon="6.1763">
        <ele>135.2</ele>
        <time>2024-03-27T13:15:48Z</time>
      </trkpt>
      <trkpt lat="43.47539" lon="6.1763">
        <ele>135.3</ele>
        <time>2024-03-27T13:15:49Z</time>
      </trkpt>
      <trkpt lat="43.47539" lon="6.1763">
        <ele>135.3</ele>
        <time>2024-03-27T13:15:50Z</time>
      </trkpt>
      <trkpt lat="43.47538" lon="6.1763">
        <ele>135.4</ele>
        <time>2024-03-27T13:15:51Z</time>
      </trkpt>
      <trkpt lat="43.47537" lon="6.17631">
        <ele>135.4</ele>
        <time>2024-03-27T13:15:52Z</time>
      </trkpt>
      <trkpt lat="43.47537" lon="6.17632">
        <ele>135.5</ele>
        <time>2024-03-27T13:15:53Z</time>
      </trkpt>
      <trkpt lat="43.47536" lon="6.17633">
        <ele>135.7</ele>
        <time>2024-03-27T13:15:54Z</time>
      </trkpt>
      <trkpt lat="43.47535" lon="6.17634">
        <ele>135.8</ele>
        <time>2024-03-27T13:15:55Z</time>
      </trkpt>
      <trkpt lat="43.47534" lon="6.17635">
        <ele>135.9</ele>
        <time>2024-03-27T13:15:56Z</time>
      </trkpt>
      <trkpt lat="43.47534" lon="6.17636">
        <ele>136</ele>
        <time>2024-03-27T13:15:57Z</time>
      </trkpt>
      <trkpt lat="43.47534" lon="6.17636">
        <ele>136.2</ele>
        <time>2024-03-27T13:15:58Z</time>
      </trkpt>
      <trkpt lat="43.47535" lon="6.17636">
        <ele>136.4</ele>
        <time>2024-03-27T13:15:59Z</time>
      </trkpt>
      <trkpt lat="43.47535" lon="6.17637">
        <ele>136.5</ele>
        <time>2024-03-27T13:16:00Z</time>
      </trkpt>
      <trkpt lat="43.47535" lon="6.17637">
        <ele>136.6</ele>
        <time>2024-03-27T13:16:01Z</time>
      </trkpt>
      <trkpt lat="43.47535" lon="6.17638">
        <ele>136.7</ele>
        <time>2024-03-27T13:16:02Z</time>
      </trkpt>
      <trkpt lat="43.47535" lon="6.17638">
        <ele>136.8</ele>
        <time>2024-03-27T13:16:03Z</time>
      </trkpt>
      <trkpt lat="43.47535" lon="6.17638">
        <ele>136.8</ele>
        <time>2024-03-27T13:16:04Z</time>
      </trkpt>
      <trkpt lat="43.47536" lon="6.17639">
        <ele>137</ele>
        <time>2024-03-27T13:16:05Z</time>
      </trkpt>
      <trkpt lat="43.47536" lon="6.17639">
        <ele>137.1</ele>
        <time>2024-03-27T13:16:06Z</time>
      </trkpt>
      <trkpt lat="43.47536" lon="6.17639">
        <ele>137.2</ele>
        <time>2024-03-27T13:16:07Z</time>
      </trkpt>
      <trkpt lat="43.47536" lon="6.17639">
        <ele>137.3</ele>
        <time>2024-03-27T13:16:08Z</time>
      </trkpt>
      <trkpt lat="43.47536" lon="6.17639">
        <ele>137.3</ele>
        <time>2024-03-27T13:16:09Z</time>
      </trkpt>
      <trkpt lat="43.47536" lon="6.17639">
        <ele>137.4</ele>
        <time>2024-03-27T13:16:10Z</time>
      </trkpt>
      <trkpt lat="43.47536" lon="6.17639">
        <ele>137.3</ele>
        <time>2024-03-27T13:16:11Z</time>
      </trkpt>
      <trkpt lat="43.47536" lon="6.17639">
        <ele>137.5</ele>
        <time>2024-03-27T13:16:12Z</time>
      </trkpt>
      <trkpt lat="43.47536" lon="6.17639">
        <ele>137.6</ele>
        <time>2024-03-27T13:16:13Z</time>
      </trkpt>
      <trkpt lat="43.47536" lon="6.17639">
        <ele>137.7</ele>
        <time>2024-03-27T13:16:14Z</time>
      </trkpt>
      <trkpt lat="43.47537" lon="6.1764">
        <ele>137.7</ele>
        <time>2024-03-27T13:16:15Z</time>
      </trkpt>
      <trkpt lat="43.47537" lon="6.1764">
        <ele>137.6</ele>
        <time>2024-03-27T13:16:16Z</time>
      </trkpt>
      <trkpt lat="43.47537" lon="6.1764">
        <ele>137.6</ele>
        <time>2024-03-27T13:16:17Z</time>
      </trkpt>
      <trkpt lat="43.47537" lon="6.1764">
        <ele>137.6</ele>
        <time>2024-03-27T13:16:18Z</time>
      </trkpt>
      <trkpt lat="43.47537" lon="6.1764">
        <ele>137.5</ele>
        <time>2024-03-27T13:16:19Z</time>
      </trkpt>
      <trkpt lat="43.47537" lon="6.1764">
        <ele>137.5</ele>
        <time>2024-03-27T13:16:20Z</time>
      </trkpt>
      <trkpt lat="43.47537" lon="6.1764">
        <ele>137.4</ele>
        <time>2024-03-27T13:16:21Z</time>
      </trkpt>
      <trkpt lat="43.47537" lon="6.1764">
        <ele>137.5</ele>
        <time>2024-03-27T13:16:22Z</time>
      </trkpt>
      <trkpt lat="43.47537" lon="6.1764">
        <ele>137.5</ele>
        <time>2024-03-27T13:16:23Z</time>
      </trkpt>
      <trkpt lat="43.47537" lon="6.1764">
        <ele>137.5</ele>
        <time>2024-03-27T13:16:24Z</time>
      </trkpt>
      <trkpt lat="43.47536" lon="6.17641">
        <ele>137.6</ele>
        <time>2024-03-27T13:16:25Z</time>
      </trkpt>
      <trkpt lat="43.47536" lon="6.17641">
        <ele>137.6</ele>
        <time>2024-03-27T13:16:26Z</time>
      </trkpt>
      <trkpt lat="43.47536" lon="6.17641">
        <ele>137.7</ele>
        <time>2024-03-27T13:16:27Z</time>
      </trkpt>
      <trkpt lat="43.47537" lon="6.17642">
        <ele>137.8</ele>
        <time>2024-03-27T13:16:28Z</time>
      </trkpt>
      <trkpt lat="43.47537" lon="6.17642">
        <ele>138</ele>
        <time>2024-03-27T13:16:29Z</time>
      </trkpt>
      <trkpt lat="43.47536" lon="6.17642">
        <ele>138.2</ele>
        <time>2024-03-27T13:16:30Z</time>
      </trkpt>
      <trkpt lat="43.47536" lon="6.17642">
        <ele>138.3</ele>
        <time>2024-03-27T13:16:31Z</time>
      </trkpt>
      <trkpt lat="43.47536" lon="6.17642">
        <ele>138.6</ele>
        <time>2024-03-27T13:16:32Z</time>
      </trkpt>
      <trkpt lat="43.47535" lon="6.17641">
        <ele>138.9</ele>
        <time>2024-03-27T13:16:33Z</time>
      </trkpt>
      <trkpt lat="43.47535" lon="6.17641">
        <ele>139.2</ele>
        <time>2024-03-27T13:16:34Z</time>
      </trkpt>
      <trkpt lat="43.47534" lon="6.1764">
        <ele>139.4</ele>
        <time>2024-03-27T13:16:35Z</time>
      </trkpt>
      <trkpt lat="43.47534" lon="6.1764">
        <ele>139.8</ele>
        <time>2024-03-27T13:16:36Z</time>
      </trkpt>
      <trkpt lat="43.47533" lon="6.1764">
        <ele>140.2</ele>
        <time>2024-03-27T13:16:37Z</time>
      </trkpt>
      <trkpt lat="43.47534" lon="6.17641">
        <ele>140.5</ele>
        <time>2024-03-27T13:16:38Z</time>
      </trkpt>
      <trkpt lat="43.47534" lon="6.17641">
        <ele>140.7</ele>
        <time>2024-03-27T13:16:39Z</time>
      </trkpt>
      <trkpt lat="43.47534" lon="6.17641">
        <ele>140.8</ele>
        <time>2024-03-27T13:16:40Z</time>
      </trkpt>
      <trkpt lat="43.47534" lon="6.17642">
        <ele>140.9</ele>
        <time>2024-03-27T13:16:41Z</time>
      </trkpt>
      <trkpt lat="43.47534" lon="6.17641">
        <ele>140.9</ele>
        <time>2024-03-27T13:16:42Z</time>
      </trkpt>
      <trkpt lat="43.47533" lon="6.17642">
        <ele>140.9</ele>
        <time>2024-03-27T13:16:43Z</time>
      </trkpt>
      <trkpt lat="43.47533" lon="6.17642">
        <ele>140.9</ele>
        <time>2024-03-27T13:16:44Z</time>
      </trkpt>
      <trkpt lat="43.47533" lon="6.17642">
        <ele>140.8</ele>
        <time>2024-03-27T13:16:45Z</time>
      </trkpt>
      <trkpt lat="43.47533" lon="6.17642">
        <ele>140.8</ele>
        <time>2024-03-27T13:16:46Z</time>
      </trkpt>
      <trkpt lat="43.47533" lon="6.17642">
        <ele>140.7</ele>
        <time>2024-03-27T13:16:47Z</time>
      </trkpt>
      <trkpt lat="43.47533" lon="6.17642">
        <ele>140.6</ele>
        <time>2024-03-27T13:16:48Z</time>
      </trkpt>
      <trkpt lat="43.47533" lon="6.17642">
        <ele>140.6</ele>
        <time>2024-03-27T13:16:49Z</time>
      </trkpt>
      <trkpt lat="43.47533" lon="6.17642">
        <ele>140.6</ele>
        <time>2024-03-27T13:16:50Z</time>
      </trkpt>
      <trkpt lat="43.47533" lon="6.17642">
        <ele>140.5</ele>
        <time>2024-03-27T13:16:51Z</time>
      </trkpt>
      <trkpt lat="43.47533" lon="6.17642">
        <ele>140.5</ele>
        <time>2024-03-27T13:16:52Z</time>
      </trkpt>
      <trkpt lat="43.47533" lon="6.17642">
        <ele>140.5</ele>
        <time>2024-03-27T13:16:53Z</time>
      </trkpt>
      <trkpt lat="43.47533" lon="6.17642">
        <ele>140.4</ele>
        <time>2024-03-27T13:16:54Z</time>
      </trkpt>
      <trkpt lat="43.47532" lon="6.17643">
        <ele>140.4</ele>
        <time>2024-03-27T13:16:55Z</time>
      </trkpt>
      <trkpt lat="43.47532" lon="6.17643">
        <ele>140.4</ele>
        <time>2024-03-27T13:16:56Z</time>
      </trkpt>
      <trkpt lat="43.47532" lon="6.17643">
        <ele>140.4</ele>
        <time>2024-03-27T13:16:57Z</time>
      </trkpt>
      <trkpt lat="43.47532" lon="6.17643">
        <ele>140.4</ele>
        <time>2024-03-27T13:16:58Z</time>
      </trkpt>
      <trkpt lat="43.47531" lon="6.17643">
        <ele>140.5</ele>
        <time>2024-03-27T13:16:59Z</time>
      </trkpt>
      <trkpt lat="43.47531" lon="6.17643">
        <ele>140.5</ele>
        <time>2024-03-27T13:17:00Z</time>
      </trkpt>
      <trkpt lat="43.47531" lon="6.17643">
        <ele>140.4</ele>
        <time>2024-03-27T13:17:01Z</time>
      </trkpt>
      <trkpt lat="43.47531" lon="6.17643">
        <ele>140.4</ele>
        <time>2024-03-27T13:17:02Z</time>
      </trkpt>
      <trkpt lat="43.47531" lon="6.17644">
        <ele>140.2</ele>
        <time>2024-03-27T13:17:03Z</time>
      </trkpt>
      <trkpt lat="43.47531" lon="6.17643">
        <ele>140.1</ele>
        <time>2024-03-27T13:17:04Z</time>
      </trkpt>
      <trkpt lat="43.47531" lon="6.17644">
        <ele>140</ele>
        <time>2024-03-27T13:17:05Z</time>
      </trkpt>
      <trkpt lat="43.4753" lon="6.17644">
        <ele>139.9</ele>
        <time>2024-03-27T13:17:06Z</time>
      </trkpt>
      <trkpt lat="43.4753" lon="6.17644">
        <ele>139.9</ele>
        <time>2024-03-27T13:17:07Z</time>
      </trkpt>
      <trkpt lat="43.47531" lon="6.17644">
        <ele>139.8</ele>
        <time>2024-03-27T13:17:08Z</time>
      </trkpt>
      <trkpt lat="43.47531" lon="6.17643">
        <ele>139.7</ele>
        <time>2024-03-27T13:17:09Z</time>
      </trkpt>
      <trkpt lat="43.4753" lon="6.17643">
        <ele>139.7</ele>
        <time>2024-03-27T13:17:10Z</time>
      </trkpt>
      <trkpt lat="43.4753" lon="6.17643">
        <ele>139.6</ele>
        <time>2024-03-27T13:17:11Z</time>
      </trkpt>
      <trkpt lat="43.4753" lon="6.17643">
        <ele>139.5</ele>
        <time>2024-03-27T13:17:12Z</time>
      </trkpt>
      <trkpt lat="43.4753" lon="6.17643">
        <ele>139.4</ele>
        <time>2024-03-27T13:17:13Z</time>
      </trkpt>
      <trkpt lat="43.4753" lon="6.17644">
        <ele>139.4</ele>
        <time>2024-03-27T13:17:14Z</time>
      </trkpt>
      <trkpt lat="43.4753" lon="6.17644">
        <ele>139.4</ele>
        <time>2024-03-27T13:17:15Z</time>
      </trkpt>
      <trkpt lat="43.4753" lon="6.17644">
        <ele>139.5</ele>
        <time>2024-03-27T13:17:16Z</time>
      </trkpt>
      <trkpt lat="43.4753" lon="6.17644">
        <ele>139.6</ele>
        <time>2024-03-27T13:17:17Z</time>
      </trkpt>
      <trkpt lat="43.4753" lon="6.17644">
        <ele>139.7</ele>
        <time>2024-03-27T13:17:18Z</time>
      </trkpt>
      <trkpt lat="43.4753" lon="6.17644">
        <ele>139.7</ele>
        <time>2024-03-27T13:17:19Z</time>
      </trkpt>
      <trkpt lat="43.4753" lon="6.17644">
        <ele>139.8</ele>
        <time>2024-03-27T13:17:20Z</time>
      </trkpt>
      <trkpt lat="43.4753" lon="6.17644">
        <ele>139.8</ele>
        <time>2024-03-27T13:17:21Z</time>
      </trkpt>
      <trkpt lat="43.4753" lon="6.17644">
        <ele>139.8</ele>
        <time>2024-03-27T13:17:22Z</time>
      </trkpt>
      <trkpt lat="43.4753" lon="6.17645">
        <ele>139.7</ele>
        <time>2024-03-27T13:17:23Z</time>
      </trkpt>
      <trkpt lat="43.4753" lon="6.17645">
        <ele>139.6</ele>
        <time>2024-03-27T13:17:24Z</time>
      </trkpt>
      <trkpt lat="43.4753" lon="6.17645">
        <ele>139.5</ele>
        <time>2024-03-27T13:17:25Z</time>
      </trkpt>
      <trkpt lat="43.47529" lon="6.17645">
        <ele>139.5</ele>
        <time>2024-03-27T13:17:26Z</time>
      </trkpt>
      <trkpt lat="43.47529" lon="6.17645">
        <ele>139.4</ele>
        <time>2024-03-27T13:17:27Z</time>
      </trkpt>
      <trkpt lat="43.47529" lon="6.17645">
        <ele>139.4</ele>
        <time>2024-03-27T13:17:28Z</time>
      </trkpt>
      <trkpt lat="43.47529" lon="6.17645">
        <ele>139.3</ele>
        <time>2024-03-27T13:17:29Z</time>
      </trkpt>
      <trkpt lat="43.47529" lon="6.17645">
        <ele>139.3</ele>
        <time>2024-03-27T13:17:30Z</time>
      </trkpt>
      <trkpt lat="43.47529" lon="6.17645">
        <ele>139.3</ele>
        <time>2024-03-27T13:17:31Z</time>
      </trkpt>
      <trkpt lat="43.47529" lon="6.17645">
        <ele>139.3</ele>
        <time>2024-03-27T13:17:32Z</time>
      </trkpt>
      <trkpt lat="43.47529" lon="6.17646">
        <ele>139.3</ele>
        <time>2024-03-27T13:17:33Z</time>
      </trkpt>
      <trkpt lat="43.47529" lon="6.17646">
        <ele>139.3</ele>
        <time>2024-03-27T13:17:34Z</time>
      </trkpt>
      <trkpt lat="43.47529" lon="6.17646">
        <ele>139.4</ele>
        <time>2024-03-27T13:17:35Z</time>
      </trkpt>
      <trkpt lat="43.47529" lon="6.17645">
        <ele>139.4</ele>
        <time>2024-03-27T13:17:36Z</time>
      </trkpt>
      <trkpt lat="43.47529" lon="6.17645">
        <ele>139.5</ele>
        <time>2024-03-27T13:17:37Z</time>
      </trkpt>
      <trkpt lat="43.47529" lon="6.17645">
        <ele>139.6</ele>
        <time>2024-03-27T13:17:38Z</time>
      </trkpt>
      <trkpt lat="43.47529" lon="6.17645">
        <ele>139.6</ele>
        <time>2024-03-27T13:17:39Z</time>
      </trkpt>
      <trkpt lat="43.47529" lon="6.17645">
        <ele>139.6</ele>
        <time>2024-03-27T13:17:40Z</time>
      </trkpt>
      <trkpt lat="43.47529" lon="6.17645">
        <ele>139.7</ele>
        <time>2024-03-27T13:17:41Z</time>
      </trkpt>
      <trkpt lat="43.47529" lon="6.17646">
        <ele>139.8</ele>
        <time>2024-03-27T13:17:42Z</time>
      </trkpt>
      <trkpt lat="43.47529" lon="6.17646">
        <ele>139.9</ele>
        <time>2024-03-27T13:17:43Z</time>
      </trkpt>
      <trkpt lat="43.47529" lon="6.17646">
        <ele>140</ele>
        <time>2024-03-27T13:17:44Z</time>
      </trkpt>
      <trkpt lat="43.47529" lon="6.17646">
        <ele>140</ele>
        <time>2024-03-27T13:17:45Z</time>
      </trkpt>
      <trkpt lat="43.47529" lon="6.17646">
        <ele>140</ele>
        <time>2024-03-27T13:17:46Z</time>
      </trkpt>
      <trkpt lat="43.47529" lon="6.17646">
        <ele>140</ele>
        <time>2024-03-27T13:17:47Z</time>
      </trkpt>
      <trkpt lat="43.47529" lon="6.17646">
        <ele>140</ele>
        <time>2024-03-27T13:17:48Z</time>
      </trkpt>
      <trkpt lat="43.47529" lon="6.17646">
        <ele>140</ele>
        <time>2024-03-27T13:17:49Z</time>
      </trkpt>
      <trkpt lat="43.47529" lon="6.17646">
        <ele>140</ele>
        <time>2024-03-27T13:17:50Z</time>
      </trkpt>
      <trkpt lat="43.47529" lon="6.17646">
        <ele>139.9</ele>
        <time>2024-03-27T13:17:51Z</time>
      </trkpt>
      <trkpt lat="43.47529" lon="6.17646">
        <ele>139.8</ele>
        <time>2024-03-27T13:17:52Z</time>
      </trkpt>
      <trkpt lat="43.47528" lon="6.17646">
        <ele>139.7</ele>
        <time>2024-03-27T13:17:53Z</time>
      </trkpt>
      <trkpt lat="43.47528" lon="6.17646">
        <ele>139.7</ele>
        <time>2024-03-27T13:17:54Z</time>
      </trkpt>
      <trkpt lat="43.47528" lon="6.17646">
        <ele>139.7</ele>
        <time>2024-03-27T13:17:55Z</time>
      </trkpt>
      <trkpt lat="43.47528" lon="6.17646">
        <ele>139.7</ele>
        <time>2024-03-27T13:17:56Z</time>
      </trkpt>
      <trkpt lat="43.47528" lon="6.17646">
        <ele>139.7</ele>
        <time>2024-03-27T13:17:57Z</time>
      </trkpt>
      <trkpt lat="43.47529" lon="6.17646">
        <ele>139.8</ele>
        <time>2024-03-27T13:17:58Z</time>
      </trkpt>
      <trkpt lat="43.47529" lon="6.17646">
        <ele>139.9</ele>
        <time>2024-03-27T13:17:59Z</time>
      </trkpt>
      <trkpt lat="43.47529" lon="6.17646">
        <ele>139.8</ele>
        <time>2024-03-27T13:18:00Z</time>
      </trkpt>
      <trkpt lat="43.47529" lon="6.17645">
        <ele>139.7</ele>
        <time>2024-03-27T13:18:01Z</time>
      </trkpt>
      <trkpt lat="43.47529" lon="6.17645">
        <ele>139.7</ele>
        <time>2024-03-27T13:18:02Z</time>
      </trkpt>
      <trkpt lat="43.47529" lon="6.17645">
        <ele>139.6</ele>
        <time>2024-03-27T13:18:03Z</time>
      </trkpt>
      <trkpt lat="43.47529" lon="6.17645">
        <ele>139.5</ele>
        <time>2024-03-27T13:18:04Z</time>
      </trkpt>
      <trkpt lat="43.4753" lon="6.17645">
        <ele>139.4</ele>
        <time>2024-03-27T13:18:05Z</time>
      </trkpt>
      <trkpt lat="43.4753" lon="6.17645">
        <ele>139.3</ele>
        <time>2024-03-27T13:18:06Z</time>
      </trkpt>
      <trkpt lat="43.4753" lon="6.17645">
        <ele>139.2</ele>
        <time>2024-03-27T13:18:07Z</time>
      </trkpt>
      <trkpt lat="43.47529" lon="6.17645">
        <ele>139.1</ele>
        <time>2024-03-27T13:18:08Z</time>
      </trkpt>
      <trkpt lat="43.47529" lon="6.17645">
        <ele>139</ele>
        <time>2024-03-27T13:18:09Z</time>
      </trkpt>
      <trkpt lat="43.47529" lon="6.17645">
        <ele>139</ele>
        <time>2024-03-27T13:18:10Z</time>
      </trkpt>
      <trkpt lat="43.47528" lon="6.17645">
        <ele>139</ele>
        <time>2024-03-27T13:18:11Z</time>
      </trkpt>
      <trkpt lat="43.47528" lon="6.17645">
        <ele>138.9</ele>
        <time>2024-03-27T13:18:12Z</time>
      </trkpt>
      <trkpt lat="43.47528" lon="6.17645">
        <ele>138.9</ele>
        <time>2024-03-27T13:18:13Z</time>
      </trkpt>
      <trkpt lat="43.47528" lon="6.17645">
        <ele>138.9</ele>
        <time>2024-03-27T13:18:14Z</time>
      </trkpt>
      <trkpt lat="43.47528" lon="6.17645">
        <ele>138.9</ele>
        <time>2024-03-27T13:18:15Z</time>
      </trkpt>
      <trkpt lat="43.47528" lon="6.17646">
        <ele>138.9</ele>
        <time>2024-03-27T13:18:16Z</time>
      </trkpt>
      <trkpt lat="43.47528" lon="6.17646">
        <ele>138.9</ele>
        <time>2024-03-27T13:18:17Z</time>
      </trkpt>
      <trkpt lat="43.47528" lon="6.17646">
        <ele>138.9</ele>
        <time>2024-03-27T13:18:18Z</time>
      </trkpt>
      <trkpt lat="43.47528" lon="6.17646">
        <ele>138.9</ele>
        <time>2024-03-27T13:18:19Z</time>
      </trkpt>
      <trkpt lat="43.47528" lon="6.17646">
        <ele>138.9</ele>
        <time>2024-03-27T13:18:20Z</time>
      </trkpt>
      <trkpt lat="43.47528" lon="6.17646">
        <ele>139.1</ele>
        <time>2024-03-27T13:18:21Z</time>
      </trkpt>
      <trkpt lat="43.47528" lon="6.17646">
        <ele>139.1</ele>
        <time>2024-03-27T13:18:22Z</time>
      </trkpt>
      <trkpt lat="43.47528" lon="6.17646">
        <ele>139.2</ele>
        <time>2024-03-27T13:18:23Z</time>
      </trkpt>
      <trkpt lat="43.47528" lon="6.17646">
        <ele>139.3</ele>
        <time>2024-03-27T13:18:24Z</time>
      </trkpt>
      <trkpt lat="43.47528" lon="6.17646">
        <ele>139.4</ele>
        <time>2024-03-27T13:18:25Z</time>
      </trkpt>
      <trkpt lat="43.47528" lon="6.17646">
        <ele>139.6</ele>
        <time>2024-03-27T13:18:26Z</time>
      </trkpt>
      <trkpt lat="43.47528" lon="6.17646">
        <ele>139.7</ele>
        <time>2024-03-27T13:18:27Z</time>
      </trkpt>
      <trkpt lat="43.47528" lon="6.17646">
        <ele>139.8</ele>
        <time>2024-03-27T13:18:28Z</time>
      </trkpt>
      <trkpt lat="43.47528" lon="6.17646">
        <ele>139.9</ele>
        <time>2024-03-27T13:18:29Z</time>
      </trkpt>
      <trkpt lat="43.47528" lon="6.17646">
        <ele>139.9</ele>
        <time>2024-03-27T13:18:30Z</time>
      </trkpt>
      <trkpt lat="43.47528" lon="6.17646">
        <ele>139.9</ele>
        <time>2024-03-27T13:18:31Z</time>
      </trkpt>
      <trkpt lat="43.47528" lon="6.17646">
        <ele>139.9</ele>
        <time>2024-03-27T13:18:32Z</time>
      </trkpt>
      <trkpt lat="43.47528" lon="6.17646">
        <ele>139.9</ele>
        <time>2024-03-27T13:18:33Z</time>
      </trkpt>
      <trkpt lat="43.47528" lon="6.17646">
        <ele>139.9</ele>
        <time>2024-03-27T13:18:34Z</time>
      </trkpt>
      <trkpt lat="43.47528" lon="6.17646">
        <ele>139.9</ele>
        <time>2024-03-27T13:18:35Z</time>
      </trkpt>
      <trkpt lat="43.47528" lon="6.17646">
        <ele>139.9</ele>
        <time>2024-03-27T13:18:36Z</time>
      </trkpt>
      <trkpt lat="43.47528" lon="6.17646">
        <ele>139.9</ele>
        <time>2024-03-27T13:18:37Z</time>
      </trkpt>
      <trkpt lat="43.47528" lon="6.17646">
        <ele>139.8</ele>
        <time>2024-03-27T13:18:38Z</time>
      </trkpt>
      <trkpt lat="43.47528" lon="6.17646">
        <ele>139.8</ele>
        <time>2024-03-27T13:18:39Z</time>
      </trkpt>
      <trkpt lat="43.47528" lon="6.17646">
        <ele>139.9</ele>
        <time>2024-03-27T13:18:40Z</time>
      </trkpt>
      <trkpt lat="43.47528" lon="6.17647">
        <ele>139.9</ele>
        <time>2024-03-27T13:18:41Z</time>
      </trkpt>
      <trkpt lat="43.47528" lon="6.17647">
        <ele>139.9</ele>
        <time>2024-03-27T13:18:42Z</time>
      </trkpt>
      <trkpt lat="43.47528" lon="6.17647">
        <ele>139.8</ele>
        <time>2024-03-27T13:18:43Z</time>
      </trkpt>
      <trkpt lat="43.47528" lon="6.17647">
        <ele>139.8</ele>
        <time>2024-03-27T13:18:44Z</time>
      </trkpt>
      <trkpt lat="43.47528" lon="6.17647">
        <ele>139.8</ele>
        <time>2024-03-27T13:18:45Z</time>
      </trkpt>
      <trkpt lat="43.47528" lon="6.17647">
        <ele>139.7</ele>
        <time>2024-03-27T13:18:46Z</time>
      </trkpt>
      <trkpt lat="43.47527" lon="6.17647">
        <ele>139.9</ele>
        <time>2024-03-27T13:18:47Z</time>
      </trkpt>
      <trkpt lat="43.47528" lon="6.17648">
        <ele>139.9</ele>
        <time>2024-03-27T13:18:48Z</time>
      </trkpt>
      <trkpt lat="43.47527" lon="6.17648">
        <ele>139.9</ele>
        <time>2024-03-27T13:18:49Z</time>
      </trkpt>
      <trkpt lat="43.47527" lon="6.17649">
        <ele>139.9</ele>
        <time>2024-03-27T13:18:50Z</time>
      </trkpt>
      <trkpt lat="43.47527" lon="6.17649">
        <ele>139.9</ele>
        <time>2024-03-27T13:18:51Z</time>
      </trkpt>
      <trkpt lat="43.47527" lon="6.1765">
        <ele>139.9</ele>
        <time>2024-03-27T13:18:52Z</time>
      </trkpt>
      <trkpt lat="43.47527" lon="6.1765">
        <ele>140</ele>
        <time>2024-03-27T13:18:53Z</time>
      </trkpt>
      <trkpt lat="43.47527" lon="6.17649">
        <ele>139.9</ele>
        <time>2024-03-27T13:18:54Z</time>
      </trkpt>
      <trkpt lat="43.47527" lon="6.17649">
        <ele>140</ele>
        <time>2024-03-27T13:18:55Z</time>
      </trkpt>
      <trkpt lat="43.47527" lon="6.17649">
        <ele>139.9</ele>
        <time>2024-03-27T13:18:56Z</time>
      </trkpt>
      <trkpt lat="43.47527" lon="6.17649">
        <ele>139.6</ele>
        <time>2024-03-27T13:18:57Z</time>
      </trkpt>
      <trkpt lat="43.47527" lon="6.17649">
        <ele>139.5</ele>
        <time>2024-03-27T13:18:58Z</time>
      </trkpt>
      <trkpt lat="43.47527" lon="6.17649">
        <ele>139.3</ele>
        <time>2024-03-27T13:18:59Z</time>
      </trkpt>
      <trkpt lat="43.47527" lon="6.17649">
        <ele>139.3</ele>
        <time>2024-03-27T13:19:00Z</time>
      </trkpt>
      <trkpt lat="43.47527" lon="6.17649">
        <ele>139.3</ele>
        <time>2024-03-27T13:19:01Z</time>
      </trkpt>
      <trkpt lat="43.47527" lon="6.17649">
        <ele>139.2</ele>
        <time>2024-03-27T13:19:02Z</time>
      </trkpt>
      <trkpt lat="43.47527" lon="6.17649">
        <ele>139.2</ele>
        <time>2024-03-27T13:19:03Z</time>
      </trkpt>
      <trkpt lat="43.47527" lon="6.17649">
        <ele>139.1</ele>
        <time>2024-03-27T13:19:04Z</time>
      </trkpt>
      <trkpt lat="43.47527" lon="6.17649">
        <ele>139</ele>
        <time>2024-03-27T13:19:05Z</time>
      </trkpt>
      <trkpt lat="43.47527" lon="6.17648">
        <ele>139</ele>
        <time>2024-03-27T13:19:06Z</time>
      </trkpt>
      <trkpt lat="43.47527" lon="6.17648">
        <ele>139.1</ele>
        <time>2024-03-27T13:19:07Z</time>
      </trkpt>
      <trkpt lat="43.47527" lon="6.17648">
        <ele>139.1</ele>
        <time>2024-03-27T13:19:08Z</time>
      </trkpt>
      <trkpt lat="43.47527" lon="6.17648">
        <ele>139.1</ele>
        <time>2024-03-27T13:19:09Z</time>
      </trkpt>
      <trkpt lat="43.47527" lon="6.17648">
        <ele>139.1</ele>
        <time>2024-03-27T13:19:10Z</time>
      </trkpt>
      <trkpt lat="43.47527" lon="6.17648">
        <ele>139.2</ele>
        <time>2024-03-27T13:19:11Z</time>
      </trkpt>
      <trkpt lat="43.47527" lon="6.17648">
        <ele>139.2</ele>
        <time>2024-03-27T13:19:12Z</time>
      </trkpt>
      <trkpt lat="43.47527" lon="6.17648">
        <ele>139.2</ele>
        <time>2024-03-27T13:19:13Z</time>
      </trkpt>
      <trkpt lat="43.47527" lon="6.17648">
        <ele>139.2</ele>
        <time>2024-03-27T13:19:14Z</time>
      </trkpt>
      <trkpt lat="43.47527" lon="6.17648">
        <ele>139.2</ele>
        <time>2024-03-27T13:19:15Z</time>
      </trkpt>
      <trkpt lat="43.47527" lon="6.17648">
        <ele>139.2</ele>
        <time>2024-03-27T13:19:16Z</time>
      </trkpt>
      <trkpt lat="43.47527" lon="6.17648">
        <ele>139.2</ele>
        <time>2024-03-27T13:19:17Z</time>
      </trkpt>
      <trkpt lat="43.47527" lon="6.17648">
        <ele>139.2</ele>
        <time>2024-03-27T13:19:18Z</time>
      </trkpt>
      <trkpt lat="43.47527" lon="6.17648">
        <ele>139.2</ele>
        <time>2024-03-27T13:19:19Z</time>
      </trkpt>
      <trkpt lat="43.47527" lon="6.17648">
        <ele>139.2</ele>
        <time>2024-03-27T13:19:20Z</time>
      </trkpt>
      <trkpt lat="43.47527" lon="6.17648">
        <ele>139.1</ele>
        <time>2024-03-27T13:19:21Z</time>
      </trkpt>
      <trkpt lat="43.47527" lon="6.17648">
        <ele>139.1</ele>
        <time>2024-03-27T13:19:22Z</time>
      </trkpt>
      <trkpt lat="43.47527" lon="6.17648">
        <ele>139</ele>
        <time>2024-03-27T13:19:23Z</time>
      </trkpt>
      <trkpt lat="43.47527" lon="6.17648">
        <ele>138.9</ele>
        <time>2024-03-27T13:19:24Z</time>
      </trkpt>
      <trkpt lat="43.47527" lon="6.17648">
        <ele>139</ele>
        <time>2024-03-27T13:19:25Z</time>
      </trkpt>
      <trkpt lat="43.47527" lon="6.17648">
        <ele>139</ele>
        <time>2024-03-27T13:19:26Z</time>
      </trkpt>
      <trkpt lat="43.47527" lon="6.17648">
        <ele>139.1</ele>
        <time>2024-03-27T13:19:27Z</time>
      </trkpt>
      <trkpt lat="43.47527" lon="6.17648">
        <ele>139.1</ele>
        <time>2024-03-27T13:19:28Z</time>
      </trkpt>
      <trkpt lat="43.47527" lon="6.17648">
        <ele>139.1</ele>
        <time>2024-03-27T13:19:29Z</time>
      </trkpt>
      <trkpt lat="43.47527" lon="6.17648">
        <ele>139.2</ele>
        <time>2024-03-27T13:19:30Z</time>
      </trkpt>
      <trkpt lat="43.47527" lon="6.17649">
        <ele>139.2</ele>
        <time>2024-03-27T13:19:31Z</time>
      </trkpt>
      <trkpt lat="43.47527" lon="6.17649">
        <ele>139.2</ele>
        <time>2024-03-27T13:19:32Z</time>
      </trkpt>
      <trkpt lat="43.47527" lon="6.17649">
        <ele>139.2</ele>
        <time>2024-03-27T13:19:33Z</time>
      </trkpt>
      <trkpt lat="43.47527" lon="6.17649">
        <ele>139.2</ele>
        <time>2024-03-27T13:19:34Z</time>
      </trkpt>
      <trkpt lat="43.47527" lon="6.17649">
        <ele>139.2</ele>
        <time>2024-03-27T13:19:35Z</time>
      </trkpt>
      <trkpt lat="43.47527" lon="6.17649">
        <ele>139.4</ele>
        <time>2024-03-27T13:19:36Z</time>
      </trkpt>
      <trkpt lat="43.47527" lon="6.17649">
        <ele>139.6</ele>
        <time>2024-03-27T13:19:37Z</time>
      </trkpt>
      <trkpt lat="43.47527" lon="6.17649">
        <ele>139.7</ele>
        <time>2024-03-27T13:19:38Z</time>
      </trkpt>
      <trkpt lat="43.47527" lon="6.17648">
        <ele>139.8</ele>
        <time>2024-03-27T13:19:39Z</time>
      </trkpt>
      <trkpt lat="43.47527" lon="6.17649">
        <ele>139.8</ele>
        <time>2024-03-27T13:19:40Z</time>
      </trkpt>
      <trkpt lat="43.47527" lon="6.17648">
        <ele>139.9</ele>
        <time>2024-03-27T13:19:41Z</time>
      </trkpt>
      <trkpt lat="43.47527" lon="6.17648">
        <ele>139.9</ele>
        <time>2024-03-27T13:19:42Z</time>
      </trkpt>
      <trkpt lat="43.47527" lon="6.17648">
        <ele>139.9</ele>
        <time>2024-03-27T13:19:43Z</time>
      </trkpt>
      <trkpt lat="43.47527" lon="6.17649">
        <ele>140</ele>
        <time>2024-03-27T13:19:44Z</time>
      </trkpt>
      <trkpt lat="43.47527" lon="6.17648">
        <ele>140</ele>
        <time>2024-03-27T13:19:45Z</time>
      </trkpt>
      <trkpt lat="43.47527" lon="6.17649">
        <ele>140</ele>
        <time>2024-03-27T13:19:46Z</time>
      </trkpt>
      <trkpt lat="43.47527" lon="6.17649">
        <ele>140.1</ele>
        <time>2024-03-27T13:19:47Z</time>
      </trkpt>
      <trkpt lat="43.47527" lon="6.17648">
        <ele>140</ele>
        <time>2024-03-27T13:19:48Z</time>
      </trkpt>
      <trkpt lat="43.47527" lon="6.17647">
        <ele>140</ele>
        <time>2024-03-27T13:19:49Z</time>
      </trkpt>
      <trkpt lat="43.47527" lon="6.17647">
        <ele>140.1</ele>
        <time>2024-03-27T13:19:50Z</time>
      </trkpt>
      <trkpt lat="43.47527" lon="6.17647">
        <ele>140.1</ele>
        <time>2024-03-27T13:19:51Z</time>
      </trkpt>
      <trkpt lat="43.47526" lon="6.17647">
        <ele>140.2</ele>
        <time>2024-03-27T13:19:52Z</time>
      </trkpt>
      <trkpt lat="43.47526" lon="6.17646">
        <ele>140.3</ele>
        <time>2024-03-27T13:19:53Z</time>
      </trkpt>
      <trkpt lat="43.47525" lon="6.17646">
        <ele>140.4</ele>
        <time>2024-03-27T13:19:54Z</time>
      </trkpt>
      <trkpt lat="43.47525" lon="6.17646">
        <ele>140.4</ele>
        <time>2024-03-27T13:19:55Z</time>
      </trkpt>
      <trkpt lat="43.47524" lon="6.17646">
        <ele>140.6</ele>
        <time>2024-03-27T13:19:56Z</time>
      </trkpt>
      <trkpt lat="43.47523" lon="6.17646">
        <ele>140.8</ele>
        <time>2024-03-27T13:19:57Z</time>
      </trkpt>
      <trkpt lat="43.47522" lon="6.17646">
        <ele>140.9</ele>
        <time>2024-03-27T13:19:58Z</time>
      </trkpt>
      <trkpt lat="43.47522" lon="6.17647">
        <ele>141.1</ele>
        <time>2024-03-27T13:19:59Z</time>
      </trkpt>
      <trkpt lat="43.47521" lon="6.17647">
        <ele>141.3</ele>
        <time>2024-03-27T13:20:00Z</time>
      </trkpt>
      <trkpt lat="43.4752" lon="6.17647">
        <ele>141.6</ele>
        <time>2024-03-27T13:20:01Z</time>
      </trkpt>
      <trkpt lat="43.4752" lon="6.17647">
        <ele>142</ele>
        <time>2024-03-27T13:20:02Z</time>
      </trkpt>
      <trkpt lat="43.4752" lon="6.17648">
        <ele>142.3</ele>
        <time>2024-03-27T13:20:03Z</time>
      </trkpt>
      <trkpt lat="43.47519" lon="6.17648">
        <ele>142.6</ele>
        <time>2024-03-27T13:20:04Z</time>
      </trkpt>
      <trkpt lat="43.47519" lon="6.17649">
        <ele>142.8</ele>
        <time>2024-03-27T13:20:05Z</time>
      </trkpt>
      <trkpt lat="43.47519" lon="6.17649">
        <ele>143</ele>
        <time>2024-03-27T13:20:06Z</time>
      </trkpt>
      <trkpt lat="43.47518" lon="6.17649">
        <ele>143.3</ele>
        <time>2024-03-27T13:20:07Z</time>
      </trkpt>
      <trkpt lat="43.47518" lon="6.17649">
        <ele>143.5</ele>
        <time>2024-03-27T13:20:08Z</time>
      </trkpt>
      <trkpt lat="43.47518" lon="6.17649">
        <ele>143.6</ele>
        <time>2024-03-27T13:20:09Z</time>
      </trkpt>
      <trkpt lat="43.47517" lon="6.17649">
        <ele>143.8</ele>
        <time>2024-03-27T13:20:10Z</time>
      </trkpt>
      <trkpt lat="43.47518" lon="6.17649">
        <ele>143.9</ele>
        <time>2024-03-27T13:20:11Z</time>
      </trkpt>
      <trkpt lat="43.47517" lon="6.17649">
        <ele>143.9</ele>
        <time>2024-03-27T13:20:12Z</time>
      </trkpt>
      <trkpt lat="43.47517" lon="6.17649">
        <ele>144</ele>
        <time>2024-03-27T13:20:13Z</time>
      </trkpt>
      <trkpt lat="43.47517" lon="6.17649">
        <ele>144</ele>
        <time>2024-03-27T13:20:14Z</time>
      </trkpt>
      <trkpt lat="43.47517" lon="6.1765">
        <ele>144</ele>
        <time>2024-03-27T13:20:15Z</time>
      </trkpt>
      <trkpt lat="43.47518" lon="6.1765">
        <ele>144.1</ele>
        <time>2024-03-27T13:20:16Z</time>
      </trkpt>
      <trkpt lat="43.47518" lon="6.1765">
        <ele>144.1</ele>
        <time>2024-03-27T13:20:17Z</time>
      </trkpt>
      <trkpt lat="43.47518" lon="6.17649">
        <ele>144.1</ele>
        <time>2024-03-27T13:20:18Z</time>
      </trkpt>
      <trkpt lat="43.47518" lon="6.17649">
        <ele>144.2</ele>
        <time>2024-03-27T13:20:19Z</time>
      </trkpt>
      <trkpt lat="43.47518" lon="6.17649">
        <ele>144.3</ele>
        <time>2024-03-27T13:20:20Z</time>
      </trkpt>
      <trkpt lat="43.47518" lon="6.17649">
        <ele>144.4</ele>
        <time>2024-03-27T13:20:21Z</time>
      </trkpt>
      <trkpt lat="43.47518" lon="6.1765">
        <ele>144.4</ele>
        <time>2024-03-27T13:20:22Z</time>
      </trkpt>
      <trkpt lat="43.47518" lon="6.1765">
        <ele>144.4</ele>
        <time>2024-03-27T13:20:23Z</time>
      </trkpt>
      <trkpt lat="43.47518" lon="6.17651">
        <ele>144.5</ele>
        <time>2024-03-27T13:20:24Z</time>
      </trkpt>
      <trkpt lat="43.47518" lon="6.17651">
        <ele>144.5</ele>
        <time>2024-03-27T13:20:25Z</time>
      </trkpt>
      <trkpt lat="43.47519" lon="6.17652">
        <ele>144.6</ele>
        <time>2024-03-27T13:20:26Z</time>
      </trkpt>
      <trkpt lat="43.47519" lon="6.17654">
        <ele>144.6</ele>
        <time>2024-03-27T13:20:27Z</time>
      </trkpt>
      <trkpt lat="43.47519" lon="6.17654">
        <ele>144.6</ele>
        <time>2024-03-27T13:20:28Z</time>
      </trkpt>
      <trkpt lat="43.47519" lon="6.17655">
        <ele>144.7</ele>
        <time>2024-03-27T13:20:29Z</time>
      </trkpt>
      <trkpt lat="43.4752" lon="6.17656">
        <ele>144.8</ele>
        <time>2024-03-27T13:20:30Z</time>
      </trkpt>
      <trkpt lat="43.4752" lon="6.17656">
        <ele>145</ele>
        <time>2024-03-27T13:20:31Z</time>
      </trkpt>
      <trkpt lat="43.4752" lon="6.17656">
        <ele>145.2</ele>
        <time>2024-03-27T13:20:32Z</time>
      </trkpt>
      <trkpt lat="43.4752" lon="6.17656">
        <ele>145.3</ele>
        <time>2024-03-27T13:20:33Z</time>
      </trkpt>
      <trkpt lat="43.4752" lon="6.17656">
        <ele>145.4</ele>
        <time>2024-03-27T13:20:34Z</time>
      </trkpt>
      <trkpt lat="43.4752" lon="6.17657">
        <ele>145.5</ele>
        <time>2024-03-27T13:20:35Z</time>
      </trkpt>
      <trkpt lat="43.4752" lon="6.17657">
        <ele>145.5</ele>
        <time>2024-03-27T13:20:36Z</time>
      </trkpt>
      <trkpt lat="43.47521" lon="6.17658">
        <ele>145.5</ele>
        <time>2024-03-27T13:20:37Z</time>
      </trkpt>
      <trkpt lat="43.47521" lon="6.17659">
        <ele>145.5</ele>
        <time>2024-03-27T13:20:38Z</time>
      </trkpt>
      <trkpt lat="43.47521" lon="6.17659">
        <ele>145.5</ele>
        <time>2024-03-27T13:20:39Z</time>
      </trkpt>
      <trkpt lat="43.47522" lon="6.1766">
        <ele>145.5</ele>
        <time>2024-03-27T13:20:40Z</time>
      </trkpt>
      <trkpt lat="43.47522" lon="6.17661">
        <ele>145.6</ele>
        <time>2024-03-27T13:20:41Z</time>
      </trkpt>
      <trkpt lat="43.47522" lon="6.17662">
        <ele>145.6</ele>
        <time>2024-03-27T13:20:42Z</time>
      </trkpt>
      <trkpt lat="43.47522" lon="6.17663">
        <ele>145.6</ele>
        <time>2024-03-27T13:20:43Z</time>
      </trkpt>
      <trkpt lat="43.47523" lon="6.17664">
        <ele>145.5</ele>
        <time>2024-03-27T13:20:44Z</time>
      </trkpt>
      <trkpt lat="43.47523" lon="6.17665">
        <ele>145.5</ele>
        <time>2024-03-27T13:20:45Z</time>
      </trkpt>
      <trkpt lat="43.47523" lon="6.17666">
        <ele>145.7</ele>
        <time>2024-03-27T13:20:46Z</time>
      </trkpt>
      <trkpt lat="43.47523" lon="6.17666">
        <ele>145.6</ele>
        <time>2024-03-27T13:20:47Z</time>
      </trkpt>
      <trkpt lat="43.47523" lon="6.17666">
        <ele>145.6</ele>
        <time>2024-03-27T13:20:48Z</time>
      </trkpt>
      <trkpt lat="43.47523" lon="6.17666">
        <ele>145.6</ele>
        <time>2024-03-27T13:20:49Z</time>
      </trkpt>
      <trkpt lat="43.47523" lon="6.17667">
        <ele>145.6</ele>
        <time>2024-03-27T13:20:50Z</time>
      </trkpt>
      <trkpt lat="43.47524" lon="6.17668">
        <ele>145.6</ele>
        <time>2024-03-27T13:20:51Z</time>
      </trkpt>
      <trkpt lat="43.47524" lon="6.17669">
        <ele>145.7</ele>
        <time>2024-03-27T13:20:52Z</time>
      </trkpt>
      <trkpt lat="43.47524" lon="6.17669">
        <ele>145.7</ele>
        <time>2024-03-27T13:20:53Z</time>
      </trkpt>
      <trkpt lat="43.47524" lon="6.1767">
        <ele>145.8</ele>
        <time>2024-03-27T13:20:54Z</time>
      </trkpt>
      <trkpt lat="43.47525" lon="6.1767">
        <ele>145.8</ele>
        <time>2024-03-27T13:20:55Z</time>
      </trkpt>
      <trkpt lat="43.47525" lon="6.17671">
        <ele>145.7</ele>
        <time>2024-03-27T13:20:56Z</time>
      </trkpt>
      <trkpt lat="43.47525" lon="6.17672">
        <ele>145.6</ele>
        <time>2024-03-27T13:20:57Z</time>
      </trkpt>
      <trkpt lat="43.47526" lon="6.17673">
        <ele>145.5</ele>
        <time>2024-03-27T13:20:58Z</time>
      </trkpt>
      <trkpt lat="43.47526" lon="6.17674">
        <ele>145.5</ele>
        <time>2024-03-27T13:20:59Z</time>
      </trkpt>
      <trkpt lat="43.47526" lon="6.17674">
        <ele>145.5</ele>
        <time>2024-03-27T13:21:00Z</time>
      </trkpt>
      <trkpt lat="43.47525" lon="6.17675">
        <ele>145.4</ele>
        <time>2024-03-27T13:21:01Z</time>
      </trkpt>
      <trkpt lat="43.47525" lon="6.17676">
        <ele>145.4</ele>
        <time>2024-03-27T13:21:02Z</time>
      </trkpt>
      <trkpt lat="43.47525" lon="6.17677">
        <ele>145.4</ele>
        <time>2024-03-27T13:21:03Z</time>
      </trkpt>
      <trkpt lat="43.47525" lon="6.17679">
        <ele>145.4</ele>
        <time>2024-03-27T13:21:04Z</time>
      </trkpt>
      <trkpt lat="43.47525" lon="6.1768">
        <ele>145.4</ele>
        <time>2024-03-27T13:21:05Z</time>
      </trkpt>
      <trkpt lat="43.47525" lon="6.17681">
        <ele>145.4</ele>
        <time>2024-03-27T13:21:06Z</time>
      </trkpt>
      <trkpt lat="43.47525" lon="6.17682">
        <ele>145.4</ele>
        <time>2024-03-27T13:21:07Z</time>
      </trkpt>
      <trkpt lat="43.47525" lon="6.17684">
        <ele>145.4</ele>
        <time>2024-03-27T13:21:08Z</time>
      </trkpt>
      <trkpt lat="43.47524" lon="6.17685">
        <ele>145.4</ele>
        <time>2024-03-27T13:21:09Z</time>
      </trkpt>
      <trkpt lat="43.47524" lon="6.17686">
        <ele>145.5</ele>
        <time>2024-03-27T13:21:10Z</time>
      </trkpt>
      <trkpt lat="43.47525" lon="6.17687">
        <ele>145.6</ele>
        <time>2024-03-27T13:21:11Z</time>
      </trkpt>
      <trkpt lat="43.47526" lon="6.17687">
        <ele>145.6</ele>
        <time>2024-03-27T13:21:12Z</time>
      </trkpt>
      <trkpt lat="43.47526" lon="6.17689">
        <ele>145.8</ele>
        <time>2024-03-27T13:21:13Z</time>
      </trkpt>
      <trkpt lat="43.47526" lon="6.1769">
        <ele>145.9</ele>
        <time>2024-03-27T13:21:14Z</time>
      </trkpt>
      <trkpt lat="43.47526" lon="6.17692">
        <ele>145.9</ele>
        <time>2024-03-27T13:21:15Z</time>
      </trkpt>
      <trkpt lat="43.47527" lon="6.17693">
        <ele>146</ele>
        <time>2024-03-27T13:21:16Z</time>
      </trkpt>
      <trkpt lat="43.47526" lon="6.17695">
        <ele>146</ele>
        <time>2024-03-27T13:21:17Z</time>
      </trkpt>
      <trkpt lat="43.47527" lon="6.17696">
        <ele>145.9</ele>
        <time>2024-03-27T13:21:18Z</time>
      </trkpt>
      <trkpt lat="43.47526" lon="6.17697">
        <ele>145.9</ele>
        <time>2024-03-27T13:21:19Z</time>
      </trkpt>
      <trkpt lat="43.47526" lon="6.17698">
        <ele>145.9</ele>
        <time>2024-03-27T13:21:20Z</time>
      </trkpt>
      <trkpt lat="43.47526" lon="6.177">
        <ele>145.8</ele>
        <time>2024-03-27T13:21:21Z</time>
      </trkpt>
      <trkpt lat="43.47526" lon="6.17701">
        <ele>145.9</ele>
        <time>2024-03-27T13:21:22Z</time>
      </trkpt>
      <trkpt lat="43.47526" lon="6.17702">
        <ele>146.1</ele>
        <time>2024-03-27T13:21:23Z</time>
      </trkpt>
      <trkpt lat="43.47525" lon="6.17703">
        <ele>146.3</ele>
        <time>2024-03-27T13:21:24Z</time>
      </trkpt>
      <trkpt lat="43.47525" lon="6.17704">
        <ele>146.5</ele>
        <time>2024-03-27T13:21:25Z</time>
      </trkpt>
      <trkpt lat="43.47525" lon="6.17705">
        <ele>146.6</ele>
        <time>2024-03-27T13:21:26Z</time>
      </trkpt>
      <trkpt lat="43.47525" lon="6.17707">
        <ele>146.7</ele>
        <time>2024-03-27T13:21:27Z</time>
      </trkpt>
      <trkpt lat="43.47525" lon="6.17708">
        <ele>146.6</ele>
        <time>2024-03-27T13:21:28Z</time>
      </trkpt>
      <trkpt lat="43.47525" lon="6.17709">
        <ele>146.6</ele>
        <time>2024-03-27T13:21:29Z</time>
      </trkpt>
      <trkpt lat="43.47525" lon="6.1771">
        <ele>146.5</ele>
        <time>2024-03-27T13:21:30Z</time>
      </trkpt>
      <trkpt lat="43.47525" lon="6.17711">
        <ele>146.5</ele>
        <time>2024-03-27T13:21:31Z</time>
      </trkpt>
      <trkpt lat="43.47525" lon="6.17712">
        <ele>146.4</ele>
        <time>2024-03-27T13:21:32Z</time>
      </trkpt>
      <trkpt lat="43.47525" lon="6.17712">
        <ele>146.3</ele>
        <time>2024-03-27T13:21:33Z</time>
      </trkpt>
      <trkpt lat="43.47526" lon="6.17712">
        <ele>146.2</ele>
        <time>2024-03-27T13:21:34Z</time>
      </trkpt>
      <trkpt lat="43.47526" lon="6.17712">
        <ele>146.2</ele>
        <time>2024-03-27T13:21:35Z</time>
      </trkpt>
      <trkpt lat="43.47526" lon="6.17713">
        <ele>146.2</ele>
        <time>2024-03-27T13:21:36Z</time>
      </trkpt>
      <trkpt lat="43.47526" lon="6.17713">
        <ele>146.2</ele>
        <time>2024-03-27T13:21:37Z</time>
      </trkpt>
      <trkpt lat="43.47526" lon="6.17713">
        <ele>146.2</ele>
        <time>2024-03-27T13:21:38Z</time>
      </trkpt>
      <trkpt lat="43.47526" lon="6.17714">
        <ele>146.2</ele>
        <time>2024-03-27T13:21:39Z</time>
      </trkpt>
      <trkpt lat="43.47525" lon="6.17715">
        <ele>146.1</ele>
        <time>2024-03-27T13:21:40Z</time>
      </trkpt>
      <trkpt lat="43.47524" lon="6.17715">
        <ele>146.1</ele>
        <time>2024-03-27T13:21:41Z</time>
      </trkpt>
      <trkpt lat="43.47523" lon="6.17716">
        <ele>146.1</ele>
        <time>2024-03-27T13:21:42Z</time>
      </trkpt>
      <trkpt lat="43.47523" lon="6.17717">
        <ele>146.1</ele>
        <time>2024-03-27T13:21:43Z</time>
      </trkpt>
      <trkpt lat="43.47522" lon="6.17718">
        <ele>146.2</ele>
        <time>2024-03-27T13:21:44Z</time>
      </trkpt>
      <trkpt lat="43.47522" lon="6.17719">
        <ele>146.2</ele>
        <time>2024-03-27T13:21:45Z</time>
      </trkpt>
      <trkpt lat="43.47522" lon="6.1772">
        <ele>146.2</ele>
        <time>2024-03-27T13:21:46Z</time>
      </trkpt>
      <trkpt lat="43.47521" lon="6.17721">
        <ele>146.2</ele>
        <time>2024-03-27T13:21:47Z</time>
      </trkpt>
      <trkpt lat="43.4752" lon="6.17722">
        <ele>146.3</ele>
        <time>2024-03-27T13:21:48Z</time>
      </trkpt>
      <trkpt lat="43.47519" lon="6.17723">
        <ele>146.4</ele>
        <time>2024-03-27T13:21:49Z</time>
      </trkpt>
      <trkpt lat="43.47519" lon="6.17724">
        <ele>146.4</ele>
        <time>2024-03-27T13:21:50Z</time>
      </trkpt>
      <trkpt lat="43.47518" lon="6.17724">
        <ele>146.4</ele>
        <time>2024-03-27T13:21:51Z</time>
      </trkpt>
      <trkpt lat="43.47517" lon="6.17725">
        <ele>146.4</ele>
        <time>2024-03-27T13:21:52Z</time>
      </trkpt>
      <trkpt lat="43.47516" lon="6.17726">
        <ele>146.5</ele>
        <time>2024-03-27T13:21:53Z</time>
      </trkpt>
      <trkpt lat="43.47515" lon="6.17727">
        <ele>146.4</ele>
        <time>2024-03-27T13:21:54Z</time>
      </trkpt>
      <trkpt lat="43.47515" lon="6.17728">
        <ele>146.5</ele>
        <time>2024-03-27T13:21:55Z</time>
      </trkpt>
      <trkpt lat="43.47514" lon="6.17729">
        <ele>146.6</ele>
        <time>2024-03-27T13:21:56Z</time>
      </trkpt>
      <trkpt lat="43.47513" lon="6.1773">
        <ele>146.6</ele>
        <time>2024-03-27T13:21:57Z</time>
      </trkpt>
      <trkpt lat="43.47513" lon="6.17731">
        <ele>146.7</ele>
        <time>2024-03-27T13:21:58Z</time>
      </trkpt>
      <trkpt lat="43.47512" lon="6.17732">
        <ele>146.7</ele>
        <time>2024-03-27T13:21:59Z</time>
      </trkpt>
      <trkpt lat="43.47512" lon="6.17733">
        <ele>146.9</ele>
        <time>2024-03-27T13:22:00Z</time>
      </trkpt>
      <trkpt lat="43.47512" lon="6.17735">
        <ele>147.1</ele>
        <time>2024-03-27T13:22:01Z</time>
      </trkpt>
      <trkpt lat="43.47512" lon="6.17736">
        <ele>147.1</ele>
        <time>2024-03-27T13:22:02Z</time>
      </trkpt>
      <trkpt lat="43.47512" lon="6.17736">
        <ele>147.1</ele>
        <time>2024-03-27T13:22:03Z</time>
      </trkpt>
      <trkpt lat="43.47512" lon="6.17736">
        <ele>147.1</ele>
        <time>2024-03-27T13:22:04Z</time>
      </trkpt>
      <trkpt lat="43.47512" lon="6.17737">
        <ele>147.1</ele>
        <time>2024-03-27T13:22:05Z</time>
      </trkpt>
      <trkpt lat="43.47512" lon="6.17737">
        <ele>147.2</ele>
        <time>2024-03-27T13:22:06Z</time>
      </trkpt>
      <trkpt lat="43.47511" lon="6.17738">
        <ele>147.2</ele>
        <time>2024-03-27T13:22:07Z</time>
      </trkpt>
      <trkpt lat="43.4751" lon="6.17739">
        <ele>147.3</ele>
        <time>2024-03-27T13:22:08Z</time>
      </trkpt>
      <trkpt lat="43.4751" lon="6.1774">
        <ele>147.3</ele>
        <time>2024-03-27T13:22:09Z</time>
      </trkpt>
      <trkpt lat="43.4751" lon="6.17742">
        <ele>147.3</ele>
        <time>2024-03-27T13:22:10Z</time>
      </trkpt>
      <trkpt lat="43.47509" lon="6.17743">
        <ele>147.3</ele>
        <time>2024-03-27T13:22:11Z</time>
      </trkpt>
      <trkpt lat="43.47508" lon="6.17745">
        <ele>147.2</ele>
        <time>2024-03-27T13:22:12Z</time>
      </trkpt>
      <trkpt lat="43.47508" lon="6.17746">
        <ele>147.3</ele>
        <time>2024-03-27T13:22:13Z</time>
      </trkpt>
      <trkpt lat="43.47508" lon="6.17747">
        <ele>147.4</ele>
        <time>2024-03-27T13:22:14Z</time>
      </trkpt>
      <trkpt lat="43.47507" lon="6.17748">
        <ele>147.4</ele>
        <time>2024-03-27T13:22:15Z</time>
      </trkpt>
      <trkpt lat="43.47507" lon="6.17749">
        <ele>147.3</ele>
        <time>2024-03-27T13:22:16Z</time>
      </trkpt>
      <trkpt lat="43.47506" lon="6.17751">
        <ele>147.2</ele>
        <time>2024-03-27T13:22:17Z</time>
      </trkpt>
      <trkpt lat="43.47505" lon="6.17752">
        <ele>147.2</ele>
        <time>2024-03-27T13:22:18Z</time>
      </trkpt>
      <trkpt lat="43.47505" lon="6.17753">
        <ele>147.2</ele>
        <time>2024-03-27T13:22:19Z</time>
      </trkpt>
      <trkpt lat="43.47504" lon="6.17754">
        <ele>147.2</ele>
        <time>2024-03-27T13:22:20Z</time>
      </trkpt>
      <trkpt lat="43.47503" lon="6.17755">
        <ele>147.2</ele>
        <time>2024-03-27T13:22:21Z</time>
      </trkpt>
      <trkpt lat="43.47503" lon="6.17756">
        <ele>147.2</ele>
        <time>2024-03-27T13:22:22Z</time>
      </trkpt>
      <trkpt lat="43.47502" lon="6.17758">
        <ele>147.2</ele>
        <time>2024-03-27T13:22:23Z</time>
      </trkpt>
      <trkpt lat="43.47501" lon="6.17759">
        <ele>147.2</ele>
        <time>2024-03-27T13:22:24Z</time>
      </trkpt>
      <trkpt lat="43.47501" lon="6.1776">
        <ele>147.2</ele>
        <time>2024-03-27T13:22:25Z</time>
      </trkpt>
      <trkpt lat="43.47502" lon="6.17762">
        <ele>147.2</ele>
        <time>2024-03-27T13:22:26Z</time>
      </trkpt>
      <trkpt lat="43.47502" lon="6.17763">
        <ele>147.3</ele>
        <time>2024-03-27T13:22:27Z</time>
      </trkpt>
      <trkpt lat="43.47501" lon="6.17765">
        <ele>147.3</ele>
        <time>2024-03-27T13:22:28Z</time>
      </trkpt>
      <trkpt lat="43.47501" lon="6.17766">
        <ele>147.5</ele>
        <time>2024-03-27T13:22:29Z</time>
      </trkpt>
      <trkpt lat="43.47501" lon="6.17767">
        <ele>147.5</ele>
        <time>2024-03-27T13:22:30Z</time>
      </trkpt>
      <trkpt lat="43.47501" lon="6.17767">
        <ele>147.4</ele>
        <time>2024-03-27T13:22:31Z</time>
      </trkpt>
      <trkpt lat="43.47501" lon="6.17767">
        <ele>147.4</ele>
        <time>2024-03-27T13:22:32Z</time>
      </trkpt>
      <trkpt lat="43.47502" lon="6.17767">
        <ele>147.5</ele>
        <time>2024-03-27T13:22:33Z</time>
      </trkpt>
      <trkpt lat="43.47502" lon="6.17768">
        <ele>147.6</ele>
        <time>2024-03-27T13:22:34Z</time>
      </trkpt>
      <trkpt lat="43.47502" lon="6.17768">
        <ele>147.5</ele>
        <time>2024-03-27T13:22:35Z</time>
      </trkpt>
      <trkpt lat="43.47502" lon="6.17768">
        <ele>147.4</ele>
        <time>2024-03-27T13:22:36Z</time>
      </trkpt>
      <trkpt lat="43.47502" lon="6.17768">
        <ele>147.3</ele>
        <time>2024-03-27T13:22:37Z</time>
      </trkpt>
      <trkpt lat="43.47503" lon="6.17769">
        <ele>147.3</ele>
        <time>2024-03-27T13:22:38Z</time>
      </trkpt>
      <trkpt lat="43.47503" lon="6.17769">
        <ele>147.2</ele>
        <time>2024-03-27T13:22:39Z</time>
      </trkpt>
      <trkpt lat="43.47503" lon="6.17769">
        <ele>147.3</ele>
        <time>2024-03-27T13:22:40Z</time>
      </trkpt>
      <trkpt lat="43.47503" lon="6.17769">
        <ele>147.3</ele>
        <time>2024-03-27T13:22:41Z</time>
      </trkpt>
      <trkpt lat="43.47503" lon="6.1777">
        <ele>147.3</ele>
        <time>2024-03-27T13:22:42Z</time>
      </trkpt>
      <trkpt lat="43.47503" lon="6.1777">
        <ele>147.3</ele>
        <time>2024-03-27T13:22:43Z</time>
      </trkpt>
      <trkpt lat="43.47503" lon="6.1777">
        <ele>147.3</ele>
        <time>2024-03-27T13:22:44Z</time>
      </trkpt>
      <trkpt lat="43.47504" lon="6.1777">
        <ele>147.4</ele>
        <time>2024-03-27T13:22:45Z</time>
      </trkpt>
      <trkpt lat="43.47504" lon="6.17771">
        <ele>147.4</ele>
        <time>2024-03-27T13:22:46Z</time>
      </trkpt>
      <trkpt lat="43.47505" lon="6.17771">
        <ele>147.4</ele>
        <time>2024-03-27T13:22:47Z</time>
      </trkpt>
      <trkpt lat="43.47505" lon="6.17771">
        <ele>147.3</ele>
        <time>2024-03-27T13:22:48Z</time>
      </trkpt>
      <trkpt lat="43.47506" lon="6.17771">
        <ele>147.3</ele>
        <time>2024-03-27T13:22:49Z</time>
      </trkpt>
      <trkpt lat="43.47506" lon="6.17771">
        <ele>147.3</ele>
        <time>2024-03-27T13:22:50Z</time>
      </trkpt>
      <trkpt lat="43.47506" lon="6.17772">
        <ele>147.3</ele>
        <time>2024-03-27T13:22:51Z</time>
      </trkpt>
      <trkpt lat="43.47506" lon="6.17772">
        <ele>147.3</ele>
        <time>2024-03-27T13:22:52Z</time>
      </trkpt>
      <trkpt lat="43.47507" lon="6.17773">
        <ele>147.2</ele>
        <time>2024-03-27T13:22:53Z</time>
      </trkpt>
      <trkpt lat="43.47507" lon="6.17773">
        <ele>147.2</ele>
        <time>2024-03-27T13:22:54Z</time>
      </trkpt>
      <trkpt lat="43.47507" lon="6.17773">
        <ele>147.1</ele>
        <time>2024-03-27T13:22:55Z</time>
      </trkpt>
      <trkpt lat="43.47507" lon="6.17773">
        <ele>147</ele>
        <time>2024-03-27T13:22:56Z</time>
      </trkpt>
      <trkpt lat="43.47507" lon="6.17774">
        <ele>147</ele>
        <time>2024-03-27T13:22:57Z</time>
      </trkpt>
      <trkpt lat="43.47507" lon="6.17774">
        <ele>147</ele>
        <time>2024-03-27T13:22:58Z</time>
      </trkpt>
      <trkpt lat="43.47507" lon="6.17774">
        <ele>146.9</ele>
        <time>2024-03-27T13:22:59Z</time>
      </trkpt>
      <trkpt lat="43.47507" lon="6.17774">
        <ele>146.9</ele>
        <time>2024-03-27T13:23:00Z</time>
      </trkpt>
      <trkpt lat="43.47507" lon="6.17774">
        <ele>146.9</ele>
        <time>2024-03-27T13:23:01Z</time>
      </trkpt>
      <trkpt lat="43.47507" lon="6.17774">
        <ele>146.9</ele>
        <time>2024-03-27T13:23:02Z</time>
      </trkpt>
      <trkpt lat="43.47506" lon="6.17774">
        <ele>146.8</ele>
        <time>2024-03-27T13:23:03Z</time>
      </trkpt>
      <trkpt lat="43.47506" lon="6.17774">
        <ele>146.8</ele>
        <time>2024-03-27T13:23:04Z</time>
      </trkpt>
      <trkpt lat="43.47506" lon="6.17774">
        <ele>146.8</ele>
        <time>2024-03-27T13:23:05Z</time>
      </trkpt>
      <trkpt lat="43.47506" lon="6.17774">
        <ele>146.8</ele>
        <time>2024-03-27T13:23:06Z</time>
      </trkpt>
      <trkpt lat="43.47506" lon="6.17774">
        <ele>146.8</ele>
        <time>2024-03-27T13:23:07Z</time>
      </trkpt>
      <trkpt lat="43.47506" lon="6.17775">
        <ele>146.7</ele>
        <time>2024-03-27T13:23:08Z</time>
      </trkpt>
      <trkpt lat="43.47507" lon="6.17775">
        <ele>146.8</ele>
        <time>2024-03-27T13:23:09Z</time>
      </trkpt>
      <trkpt lat="43.47507" lon="6.17775">
        <ele>146.7</ele>
        <time>2024-03-27T13:23:10Z</time>
      </trkpt>
      <trkpt lat="43.47507" lon="6.17775">
        <ele>146.6</ele>
        <time>2024-03-27T13:23:11Z</time>
      </trkpt>
      <trkpt lat="43.47507" lon="6.17775">
        <ele>146.5</ele>
        <time>2024-03-27T13:23:12Z</time>
      </trkpt>
      <trkpt lat="43.47507" lon="6.17775">
        <ele>146.4</ele>
        <time>2024-03-27T13:23:13Z</time>
      </trkpt>
      <trkpt lat="43.47507" lon="6.17776">
        <ele>146.4</ele>
        <time>2024-03-27T13:23:14Z</time>
      </trkpt>
      <trkpt lat="43.47507" lon="6.17777">
        <ele>146.3</ele>
        <time>2024-03-27T13:23:15Z</time>
      </trkpt>
      <trkpt lat="43.47507" lon="6.17778">
        <ele>146.3</ele>
        <time>2024-03-27T13:23:16Z</time>
      </trkpt>
      <trkpt lat="43.47507" lon="6.17779">
        <ele>146.2</ele>
        <time>2024-03-27T13:23:17Z</time>
      </trkpt>
      <trkpt lat="43.47508" lon="6.1778">
        <ele>146.2</ele>
        <time>2024-03-27T13:23:18Z</time>
      </trkpt>
      <trkpt lat="43.47508" lon="6.17781">
        <ele>146.1</ele>
        <time>2024-03-27T13:23:19Z</time>
      </trkpt>
      <trkpt lat="43.47509" lon="6.17782">
        <ele>146.1</ele>
        <time>2024-03-27T13:23:20Z</time>
      </trkpt>
      <trkpt lat="43.47509" lon="6.17783">
        <ele>146</ele>
        <time>2024-03-27T13:23:21Z</time>
      </trkpt>
      <trkpt lat="43.4751" lon="6.17784">
        <ele>145.8</ele>
        <time>2024-03-27T13:23:22Z</time>
      </trkpt>
      <trkpt lat="43.4751" lon="6.17786">
        <ele>145.6</ele>
        <time>2024-03-27T13:23:23Z</time>
      </trkpt>
      <trkpt lat="43.47511" lon="6.17787">
        <ele>145.4</ele>
        <time>2024-03-27T13:23:24Z</time>
      </trkpt>
      <trkpt lat="43.47511" lon="6.17789">
        <ele>145.2</ele>
        <time>2024-03-27T13:23:25Z</time>
      </trkpt>
      <trkpt lat="43.47512" lon="6.1779">
        <ele>145</ele>
        <time>2024-03-27T13:23:26Z</time>
      </trkpt>
      <trkpt lat="43.47513" lon="6.17791">
        <ele>144.8</ele>
        <time>2024-03-27T13:23:27Z</time>
      </trkpt>
      <trkpt lat="43.47513" lon="6.17792">
        <ele>144.6</ele>
        <time>2024-03-27T13:23:28Z</time>
      </trkpt>
      <trkpt lat="43.47514" lon="6.17794">
        <ele>144.4</ele>
        <time>2024-03-27T13:23:29Z</time>
      </trkpt>
      <trkpt lat="43.47514" lon="6.17795">
        <ele>144.2</ele>
        <time>2024-03-27T13:23:30Z</time>
      </trkpt>
      <trkpt lat="43.47515" lon="6.17796">
        <ele>144.1</ele>
        <time>2024-03-27T13:23:31Z</time>
      </trkpt>
      <trkpt lat="43.47515" lon="6.17797">
        <ele>144</ele>
        <time>2024-03-27T13:23:32Z</time>
      </trkpt>
      <trkpt lat="43.47515" lon="6.17798">
        <ele>143.9</ele>
        <time>2024-03-27T13:23:33Z</time>
      </trkpt>
      <trkpt lat="43.47516" lon="6.17799">
        <ele>143.7</ele>
        <time>2024-03-27T13:23:34Z</time>
      </trkpt>
      <trkpt lat="43.47517" lon="6.178">
        <ele>143.6</ele>
        <time>2024-03-27T13:23:35Z</time>
      </trkpt>
      <trkpt lat="43.47517" lon="6.17801">
        <ele>143.3</ele>
        <time>2024-03-27T13:23:36Z</time>
      </trkpt>
      <trkpt lat="43.47518" lon="6.17802">
        <ele>143</ele>
        <time>2024-03-27T13:23:37Z</time>
      </trkpt>
      <trkpt lat="43.47518" lon="6.17803">
        <ele>142.8</ele>
        <time>2024-03-27T13:23:38Z</time>
      </trkpt>
      <trkpt lat="43.47519" lon="6.17804">
        <ele>142.7</ele>
        <time>2024-03-27T13:23:39Z</time>
      </trkpt>
      <trkpt lat="43.4752" lon="6.17806">
        <ele>142.6</ele>
        <time>2024-03-27T13:23:40Z</time>
      </trkpt>
      <trkpt lat="43.4752" lon="6.17806">
        <ele>142.3</ele>
        <time>2024-03-27T13:23:41Z</time>
      </trkpt>
      <trkpt lat="43.4752" lon="6.17807">
        <ele>142.1</ele>
        <time>2024-03-27T13:23:42Z</time>
      </trkpt>
      <trkpt lat="43.4752" lon="6.17809">
        <ele>141.8</ele>
        <time>2024-03-27T13:23:43Z</time>
      </trkpt>
      <trkpt lat="43.4752" lon="6.1781">
        <ele>141.7</ele>
        <time>2024-03-27T13:23:44Z</time>
      </trkpt>
      <trkpt lat="43.47521" lon="6.17811">
        <ele>141.5</ele>
        <time>2024-03-27T13:23:45Z</time>
      </trkpt>
      <trkpt lat="43.47521" lon="6.17813">
        <ele>141.2</ele>
        <time>2024-03-27T13:23:46Z</time>
      </trkpt>
      <trkpt lat="43.47521" lon="6.17814">
        <ele>141</ele>
        <time>2024-03-27T13:23:47Z</time>
      </trkpt>
      <trkpt lat="43.47521" lon="6.17816">
        <ele>140.8</ele>
        <time>2024-03-27T13:23:48Z</time>
      </trkpt>
      <trkpt lat="43.47522" lon="6.17817">
        <ele>140.6</ele>
        <time>2024-03-27T13:23:49Z</time>
      </trkpt>
      <trkpt lat="43.47522" lon="6.17818">
        <ele>140.5</ele>
        <time>2024-03-27T13:23:50Z</time>
      </trkpt>
      <trkpt lat="43.47523" lon="6.17819">
        <ele>140.4</ele>
        <time>2024-03-27T13:23:51Z</time>
      </trkpt>
      <trkpt lat="43.47523" lon="6.17821">
        <ele>140.2</ele>
        <time>2024-03-27T13:23:52Z</time>
      </trkpt>
      <trkpt lat="43.47524" lon="6.17822">
        <ele>140.1</ele>
        <time>2024-03-27T13:23:53Z</time>
      </trkpt>
      <trkpt lat="43.47524" lon="6.17824">
        <ele>139.9</ele>
        <time>2024-03-27T13:23:54Z</time>
      </trkpt>
      <trkpt lat="43.47525" lon="6.17825">
        <ele>139.8</ele>
        <time>2024-03-27T13:23:55Z</time>
      </trkpt>
      <trkpt lat="43.47525" lon="6.17826">
        <ele>139.7</ele>
        <time>2024-03-27T13:23:56Z</time>
      </trkpt>
      <trkpt lat="43.47526" lon="6.17828">
        <ele>139.6</ele>
        <time>2024-03-27T13:23:57Z</time>
      </trkpt>
      <trkpt lat="43.47526" lon="6.17829">
        <ele>139.5</ele>
        <time>2024-03-27T13:23:58Z</time>
      </trkpt>
      <trkpt lat="43.47526" lon="6.1783">
        <ele>139.4</ele>
        <time>2024-03-27T13:23:59Z</time>
      </trkpt>
      <trkpt lat="43.47527" lon="6.17831">
        <ele>139.3</ele>
        <time>2024-03-27T13:24:00Z</time>
      </trkpt>
      <trkpt lat="43.47527" lon="6.17832">
        <ele>139.3</ele>
        <time>2024-03-27T13:24:01Z</time>
      </trkpt>
      <trkpt lat="43.47527" lon="6.17834">
        <ele>139.3</ele>
        <time>2024-03-27T13:24:02Z</time>
      </trkpt>
      <trkpt lat="43.47527" lon="6.17836">
        <ele>139.1</ele>
        <time>2024-03-27T13:24:03Z</time>
      </trkpt>
      <trkpt lat="43.47527" lon="6.17837">
        <ele>139</ele>
        <time>2024-03-27T13:24:04Z</time>
      </trkpt>
      <trkpt lat="43.47528" lon="6.17839">
        <ele>138.8</ele>
        <time>2024-03-27T13:24:05Z</time>
      </trkpt>
      <trkpt lat="43.47528" lon="6.17839">
        <ele>138.7</ele>
        <time>2024-03-27T13:24:06Z</time>
      </trkpt>
      <trkpt lat="43.47528" lon="6.17841">
        <ele>138.6</ele>
        <time>2024-03-27T13:24:07Z</time>
      </trkpt>
      <trkpt lat="43.47528" lon="6.17842">
        <ele>138.6</ele>
        <time>2024-03-27T13:24:08Z</time>
      </trkpt>
      <trkpt lat="43.47528" lon="6.17844">
        <ele>138.5</ele>
        <time>2024-03-27T13:24:09Z</time>
      </trkpt>
      <trkpt lat="43.47529" lon="6.17845">
        <ele>138.5</ele>
        <time>2024-03-27T13:24:10Z</time>
      </trkpt>
      <trkpt lat="43.47529" lon="6.17847">
        <ele>138.5</ele>
        <time>2024-03-27T13:24:11Z</time>
      </trkpt>
      <trkpt lat="43.47529" lon="6.17848">
        <ele>138.4</ele>
        <time>2024-03-27T13:24:12Z</time>
      </trkpt>
      <trkpt lat="43.47529" lon="6.1785">
        <ele>138.4</ele>
        <time>2024-03-27T13:24:13Z</time>
      </trkpt>
      <trkpt lat="43.4753" lon="6.17852">
        <ele>138.3</ele>
        <time>2024-03-27T13:24:14Z</time>
      </trkpt>
      <trkpt lat="43.4753" lon="6.17853">
        <ele>138.3</ele>
        <time>2024-03-27T13:24:15Z</time>
      </trkpt>
      <trkpt lat="43.4753" lon="6.17855">
        <ele>138.3</ele>
        <time>2024-03-27T13:24:16Z</time>
      </trkpt>
      <trkpt lat="43.47531" lon="6.17856">
        <ele>138.2</ele>
        <time>2024-03-27T13:24:17Z</time>
      </trkpt>
      <trkpt lat="43.47531" lon="6.17857">
        <ele>138</ele>
        <time>2024-03-27T13:24:18Z</time>
      </trkpt>
      <trkpt lat="43.47531" lon="6.17859">
        <ele>137.9</ele>
        <time>2024-03-27T13:24:19Z</time>
      </trkpt>
      <trkpt lat="43.47531" lon="6.17861">
        <ele>137.8</ele>
        <time>2024-03-27T13:24:20Z</time>
      </trkpt>
      <trkpt lat="43.47532" lon="6.17862">
        <ele>137.8</ele>
        <time>2024-03-27T13:24:21Z</time>
      </trkpt>
      <trkpt lat="43.47533" lon="6.17863">
        <ele>137.8</ele>
        <time>2024-03-27T13:24:22Z</time>
      </trkpt>
      <trkpt lat="43.47533" lon="6.17865">
        <ele>137.7</ele>
        <time>2024-03-27T13:24:23Z</time>
      </trkpt>
      <trkpt lat="43.47534" lon="6.17865">
        <ele>137.6</ele>
        <time>2024-03-27T13:24:24Z</time>
      </trkpt>
      <trkpt lat="43.47534" lon="6.17866">
        <ele>137.5</ele>
        <time>2024-03-27T13:24:25Z</time>
      </trkpt>
      <trkpt lat="43.47534" lon="6.17866">
        <ele>137.4</ele>
        <time>2024-03-27T13:24:26Z</time>
      </trkpt>
      <trkpt lat="43.47534" lon="6.17866">
        <ele>137.3</ele>
        <time>2024-03-27T13:24:27Z</time>
      </trkpt>
      <trkpt lat="43.47534" lon="6.17867">
        <ele>137.3</ele>
        <time>2024-03-27T13:24:28Z</time>
      </trkpt>
      <trkpt lat="43.47534" lon="6.17867">
        <ele>137.3</ele>
        <time>2024-03-27T13:24:29Z</time>
      </trkpt>
      <trkpt lat="43.47534" lon="6.17867">
        <ele>137.3</ele>
        <time>2024-03-27T13:24:30Z</time>
      </trkpt>
      <trkpt lat="43.47534" lon="6.17867">
        <ele>137.3</ele>
        <time>2024-03-27T13:24:31Z</time>
      </trkpt>
      <trkpt lat="43.47534" lon="6.17868">
        <ele>137.3</ele>
        <time>2024-03-27T13:24:32Z</time>
      </trkpt>
      <trkpt lat="43.47533" lon="6.17868">
        <ele>137.2</ele>
        <time>2024-03-27T13:24:33Z</time>
      </trkpt>
      <trkpt lat="43.47533" lon="6.17868">
        <ele>137.2</ele>
        <time>2024-03-27T13:24:34Z</time>
      </trkpt>
      <trkpt lat="43.47533" lon="6.17869">
        <ele>137.1</ele>
        <time>2024-03-27T13:24:35Z</time>
      </trkpt>
      <trkpt lat="43.47533" lon="6.17869">
        <ele>137.1</ele>
        <time>2024-03-27T13:24:36Z</time>
      </trkpt>
      <trkpt lat="43.47533" lon="6.17869">
        <ele>137.1</ele>
        <time>2024-03-27T13:24:37Z</time>
      </trkpt>
      <trkpt lat="43.47533" lon="6.17869">
        <ele>137.1</ele>
        <time>2024-03-27T13:24:38Z</time>
      </trkpt>
      <trkpt lat="43.47533" lon="6.17869">
        <ele>137.1</ele>
        <time>2024-03-27T13:24:39Z</time>
      </trkpt>
      <trkpt lat="43.47533" lon="6.17869">
        <ele>137.1</ele>
        <time>2024-03-27T13:24:40Z</time>
      </trkpt>
      <trkpt lat="43.47533" lon="6.1787">
        <ele>137.1</ele>
        <time>2024-03-27T13:24:41Z</time>
      </trkpt>
      <trkpt lat="43.47533" lon="6.1787">
        <ele>137.1</ele>
        <time>2024-03-27T13:24:42Z</time>
      </trkpt>
      <trkpt lat="43.47533" lon="6.1787">
        <ele>137.2</ele>
        <time>2024-03-27T13:24:43Z</time>
      </trkpt>
      <trkpt lat="43.47532" lon="6.1787">
        <ele>137.2</ele>
        <time>2024-03-27T13:24:44Z</time>
      </trkpt>
      <trkpt lat="43.47532" lon="6.1787">
        <ele>137.2</ele>
        <time>2024-03-27T13:24:45Z</time>
      </trkpt>
      <trkpt lat="43.47532" lon="6.1787">
        <ele>137.2</ele>
        <time>2024-03-27T13:24:46Z</time>
      </trkpt>
      <trkpt lat="43.47532" lon="6.1787">
        <ele>137.1</ele>
        <time>2024-03-27T13:24:47Z</time>
      </trkpt>
      <trkpt lat="43.47532" lon="6.1787">
        <ele>137.1</ele>
        <time>2024-03-27T13:24:48Z</time>
      </trkpt>
      <trkpt lat="43.47532" lon="6.1787">
        <ele>137.1</ele>
        <time>2024-03-27T13:24:49Z</time>
      </trkpt>
      <trkpt lat="43.47532" lon="6.1787">
        <ele>137.2</ele>
        <time>2024-03-27T13:24:50Z</time>
      </trkpt>
      <trkpt lat="43.47533" lon="6.1787">
        <ele>137.1</ele>
        <time>2024-03-27T13:24:51Z</time>
      </trkpt>
      <trkpt lat="43.47533" lon="6.1787">
        <ele>137.1</ele>
        <time>2024-03-27T13:24:52Z</time>
      </trkpt>
      <trkpt lat="43.47533" lon="6.1787">
        <ele>137.1</ele>
        <time>2024-03-27T13:24:53Z</time>
      </trkpt>
      <trkpt lat="43.47533" lon="6.1787">
        <ele>137.1</ele>
        <time>2024-03-27T13:24:54Z</time>
      </trkpt>
      <trkpt lat="43.47533" lon="6.1787">
        <ele>137.1</ele>
        <time>2024-03-27T13:24:55Z</time>
      </trkpt>
      <trkpt lat="43.47532" lon="6.1787">
        <ele>137.1</ele>
        <time>2024-03-27T13:24:56Z</time>
      </trkpt>
      <trkpt lat="43.47532" lon="6.1787">
        <ele>137.1</ele>
        <time>2024-03-27T13:24:57Z</time>
      </trkpt>
      <trkpt lat="43.47532" lon="6.1787">
        <ele>137.1</ele>
        <time>2024-03-27T13:24:58Z</time>
      </trkpt>
      <trkpt lat="43.47532" lon="6.17871">
        <ele>137.1</ele>
        <time>2024-03-27T13:24:59Z</time>
      </trkpt>
      <trkpt lat="43.47532" lon="6.17871">
        <ele>137.1</ele>
        <time>2024-03-27T13:25:00Z</time>
      </trkpt>
      <trkpt lat="43.47532" lon="6.17871">
        <ele>137.2</ele>
        <time>2024-03-27T13:25:01Z</time>
      </trkpt>
      <trkpt lat="43.47532" lon="6.17871">
        <ele>137.1</ele>
        <time>2024-03-27T13:25:02Z</time>
      </trkpt>
      <trkpt lat="43.47532" lon="6.17871">
        <ele>137.1</ele>
        <time>2024-03-27T13:25:03Z</time>
      </trkpt>
      <trkpt lat="43.47532" lon="6.17871">
        <ele>137</ele>
        <time>2024-03-27T13:25:04Z</time>
      </trkpt>
      <trkpt lat="43.47532" lon="6.17871">
        <ele>137</ele>
        <time>2024-03-27T13:25:05Z</time>
      </trkpt>
      <trkpt lat="43.47532" lon="6.17871">
        <ele>137</ele>
        <time>2024-03-27T13:25:06Z</time>
      </trkpt>
      <trkpt lat="43.47532" lon="6.17871">
        <ele>137</ele>
        <time>2024-03-27T13:25:07Z</time>
      </trkpt>
      <trkpt lat="43.47532" lon="6.17871">
        <ele>137.1</ele>
        <time>2024-03-27T13:25:08Z</time>
      </trkpt>
      <trkpt lat="43.47532" lon="6.17871">
        <ele>137.1</ele>
        <time>2024-03-27T13:25:09Z</time>
      </trkpt>
      <trkpt lat="43.47532" lon="6.17871">
        <ele>137.1</ele>
        <time>2024-03-27T13:25:10Z</time>
      </trkpt>
      <trkpt lat="43.47532" lon="6.17871">
        <ele>137</ele>
        <time>2024-03-27T13:25:11Z</time>
      </trkpt>
      <trkpt lat="43.47532" lon="6.17872">
        <ele>137.1</ele>
        <time>2024-03-27T13:25:12Z</time>
      </trkpt>
      <trkpt lat="43.47532" lon="6.17872">
        <ele>137.1</ele>
        <time>2024-03-27T13:25:13Z</time>
      </trkpt>
      <trkpt lat="43.47532" lon="6.17872">
        <ele>137.1</ele>
        <time>2024-03-27T13:25:14Z</time>
      </trkpt>
      <trkpt lat="43.47532" lon="6.17872">
        <ele>137.1</ele>
        <time>2024-03-27T13:25:15Z</time>
      </trkpt>
      <trkpt lat="43.47532" lon="6.17872">
        <ele>137.2</ele>
        <time>2024-03-27T13:25:16Z</time>
      </trkpt>
      <trkpt lat="43.47532" lon="6.17872">
        <ele>137.2</ele>
        <time>2024-03-27T13:25:17Z</time>
      </trkpt>
      <trkpt lat="43.47532" lon="6.17872">
        <ele>137.2</ele>
        <time>2024-03-27T13:25:18Z</time>
      </trkpt>
      <trkpt lat="43.47532" lon="6.17872">
        <ele>137.2</ele>
        <time>2024-03-27T13:25:19Z</time>
      </trkpt>
      <trkpt lat="43.47532" lon="6.17872">
        <ele>137.2</ele>
        <time>2024-03-27T13:25:20Z</time>
      </trkpt>
      <trkpt lat="43.47532" lon="6.17872">
        <ele>137.2</ele>
        <time>2024-03-27T13:25:21Z</time>
      </trkpt>
      <trkpt lat="43.47532" lon="6.17872">
        <ele>137.1</ele>
        <time>2024-03-27T13:25:22Z</time>
      </trkpt>
      <trkpt lat="43.47532" lon="6.17872">
        <ele>137.1</ele>
        <time>2024-03-27T13:25:23Z</time>
      </trkpt>
      <trkpt lat="43.47532" lon="6.17872">
        <ele>137.2</ele>
        <time>2024-03-27T13:25:24Z</time>
      </trkpt>
      <trkpt lat="43.47532" lon="6.17872">
        <ele>137.1</ele>
        <time>2024-03-27T13:25:25Z</time>
      </trkpt>
      <trkpt lat="43.47532" lon="6.17872">
        <ele>137.1</ele>
        <time>2024-03-27T13:25:26Z</time>
      </trkpt>
      <trkpt lat="43.47532" lon="6.17872">
        <ele>137.1</ele>
        <time>2024-03-27T13:25:27Z</time>
      </trkpt>
      <trkpt lat="43.47532" lon="6.17872">
        <ele>137.2</ele>
        <time>2024-03-27T13:25:28Z</time>
      </trkpt>
      <trkpt lat="43.47532" lon="6.17872">
        <ele>137.3</ele>
        <time>2024-03-27T13:25:29Z</time>
      </trkpt>
      <trkpt lat="43.47532" lon="6.17872">
        <ele>137.4</ele>
        <time>2024-03-27T13:25:30Z</time>
      </trkpt>
      <trkpt lat="43.47532" lon="6.17872">
        <ele>137.4</ele>
        <time>2024-03-27T13:25:31Z</time>
      </trkpt>
      <trkpt lat="43.47532" lon="6.17872">
        <ele>137.5</ele>
        <time>2024-03-27T13:25:32Z</time>
      </trkpt>
      <trkpt lat="43.47532" lon="6.17872">
        <ele>137.5</ele>
        <time>2024-03-27T13:25:33Z</time>
      </trkpt>
      <trkpt lat="43.47532" lon="6.17872">
        <ele>137.5</ele>
        <time>2024-03-27T13:25:34Z</time>
      </trkpt>
      <trkpt lat="43.47532" lon="6.17872">
        <ele>137.6</ele>
        <time>2024-03-27T13:25:35Z</time>
      </trkpt>
      <trkpt lat="43.47532" lon="6.17872">
        <ele>137.6</ele>
        <time>2024-03-27T13:25:36Z</time>
      </trkpt>
      <trkpt lat="43.47532" lon="6.17872">
        <ele>137.6</ele>
        <time>2024-03-27T13:25:37Z</time>
      </trkpt>
      <trkpt lat="43.47532" lon="6.17872">
        <ele>137.7</ele>
        <time>2024-03-27T13:25:38Z</time>
      </trkpt>
      <trkpt lat="43.47532" lon="6.17872">
        <ele>137.6</ele>
        <time>2024-03-27T13:25:39Z</time>
      </trkpt>
      <trkpt lat="43.47532" lon="6.17872">
        <ele>137.6</ele>
        <time>2024-03-27T13:25:40Z</time>
      </trkpt>
      <trkpt lat="43.47532" lon="6.17872">
        <ele>137.5</ele>
        <time>2024-03-27T13:25:41Z</time>
      </trkpt>
      <trkpt lat="43.47532" lon="6.17872">
        <ele>137.4</ele>
        <time>2024-03-27T13:25:42Z</time>
      </trkpt>
      <trkpt lat="43.47532" lon="6.17872">
        <ele>137.3</ele>
        <time>2024-03-27T13:25:43Z</time>
      </trkpt>
      <trkpt lat="43.47531" lon="6.17872">
        <ele>137.3</ele>
        <time>2024-03-27T13:25:44Z</time>
      </trkpt>
      <trkpt lat="43.47531" lon="6.17872">
        <ele>137.3</ele>
        <time>2024-03-27T13:25:45Z</time>
      </trkpt>
      <trkpt lat="43.47532" lon="6.17872">
        <ele>137.3</ele>
        <time>2024-03-27T13:25:46Z</time>
      </trkpt>
      <trkpt lat="43.47532" lon="6.17872">
        <ele>137.2</ele>
        <time>2024-03-27T13:25:47Z</time>
      </trkpt>
      <trkpt lat="43.47532" lon="6.17872">
        <ele>137.2</ele>
        <time>2024-03-27T13:25:48Z</time>
      </trkpt>
      <trkpt lat="43.47532" lon="6.17872">
        <ele>137.1</ele>
        <time>2024-03-27T13:25:49Z</time>
      </trkpt>
      <trkpt lat="43.47532" lon="6.17873">
        <ele>137.1</ele>
        <time>2024-03-27T13:25:50Z</time>
      </trkpt>
      <trkpt lat="43.47532" lon="6.17872">
        <ele>137</ele>
        <time>2024-03-27T13:25:51Z</time>
      </trkpt>
      <trkpt lat="43.47532" lon="6.17872">
        <ele>137.1</ele>
        <time>2024-03-27T13:25:52Z</time>
      </trkpt>
      <trkpt lat="43.47532" lon="6.17872">
        <ele>137.1</ele>
        <time>2024-03-27T13:25:53Z</time>
      </trkpt>
      <trkpt lat="43.47532" lon="6.17872">
        <ele>137.1</ele>
        <time>2024-03-27T13:25:54Z</time>
      </trkpt>
      <trkpt lat="43.47532" lon="6.17872">
        <ele>137.1</ele>
        <time>2024-03-27T13:25:55Z</time>
      </trkpt>
      <trkpt lat="43.47532" lon="6.17872">
        <ele>137.2</ele>
        <time>2024-03-27T13:25:56Z</time>
      </trkpt>
      <trkpt lat="43.47532" lon="6.17872">
        <ele>137.2</ele>
        <time>2024-03-27T13:25:57Z</time>
      </trkpt>
      <trkpt lat="43.47532" lon="6.17872">
        <ele>137.3</ele>
        <time>2024-03-27T13:25:58Z</time>
      </trkpt>
      <trkpt lat="43.47532" lon="6.17873">
        <ele>137.3</ele>
        <time>2024-03-27T13:25:59Z</time>
      </trkpt>
      <trkpt lat="43.47532" lon="6.17873">
        <ele>137.3</ele>
        <time>2024-03-27T13:26:00Z</time>
      </trkpt>
      <trkpt lat="43.47532" lon="6.17873">
        <ele>137.3</ele>
        <time>2024-03-27T13:26:01Z</time>
      </trkpt>
      <trkpt lat="43.47532" lon="6.17873">
        <ele>137.3</ele>
        <time>2024-03-27T13:26:02Z</time>
      </trkpt>
      <trkpt lat="43.47532" lon="6.17873">
        <ele>137.3</ele>
        <time>2024-03-27T13:26:03Z</time>
      </trkpt>
      <trkpt lat="43.47532" lon="6.17873">
        <ele>137.4</ele>
        <time>2024-03-27T13:26:04Z</time>
      </trkpt>
      <trkpt lat="43.47532" lon="6.17873">
        <ele>137.3</ele>
        <time>2024-03-27T13:26:05Z</time>
      </trkpt>
      <trkpt lat="43.47532" lon="6.17873">
        <ele>137.3</ele>
        <time>2024-03-27T13:26:06Z</time>
      </trkpt>
      <trkpt lat="43.47532" lon="6.17873">
        <ele>137.3</ele>
        <time>2024-03-27T13:26:07Z</time>
      </trkpt>
      <trkpt lat="43.47532" lon="6.17873">
        <ele>137.3</ele>
        <time>2024-03-27T13:26:08Z</time>
      </trkpt>
      <trkpt lat="43.47532" lon="6.17873">
        <ele>137.3</ele>
        <time>2024-03-27T13:26:09Z</time>
      </trkpt>
      <trkpt lat="43.47532" lon="6.17873">
        <ele>137.3</ele>
        <time>2024-03-27T13:26:10Z</time>
      </trkpt>
      <trkpt lat="43.47532" lon="6.17873">
        <ele>137.3</ele>
        <time>2024-03-27T13:26:11Z</time>
      </trkpt>
      <trkpt lat="43.47532" lon="6.17873">
        <ele>137.3</ele>
        <time>2024-03-27T13:26:12Z</time>
      </trkpt>
      <trkpt lat="43.47532" lon="6.17873">
        <ele>137.3</ele>
        <time>2024-03-27T13:26:13Z</time>
      </trkpt>
      <trkpt lat="43.47532" lon="6.17873">
        <ele>137.3</ele>
        <time>2024-03-27T13:26:14Z</time>
      </trkpt>
      <trkpt lat="43.47532" lon="6.17873">
        <ele>137.2</ele>
        <time>2024-03-27T13:26:15Z</time>
      </trkpt>
      <trkpt lat="43.47532" lon="6.17873">
        <ele>137.2</ele>
        <time>2024-03-27T13:26:16Z</time>
      </trkpt>
      <trkpt lat="43.47532" lon="6.17873">
        <ele>137.2</ele>
        <time>2024-03-27T13:26:17Z</time>
      </trkpt>
      <trkpt lat="43.47532" lon="6.17873">
        <ele>137.1</ele>
        <time>2024-03-27T13:26:18Z</time>
      </trkpt>
      <trkpt lat="43.47532" lon="6.17873">
        <ele>137.1</ele>
        <time>2024-03-27T13:26:19Z</time>
      </trkpt>
      <trkpt lat="43.47532" lon="6.17873">
        <ele>137.2</ele>
        <time>2024-03-27T13:26:20Z</time>
      </trkpt>
      <trkpt lat="43.47532" lon="6.17873">
        <ele>137.2</ele>
        <time>2024-03-27T13:26:21Z</time>
      </trkpt>
      <trkpt lat="43.47532" lon="6.17874">
        <ele>137.2</ele>
        <time>2024-03-27T13:26:22Z</time>
      </trkpt>
      <trkpt lat="43.47532" lon="6.17874">
        <ele>137.2</ele>
        <time>2024-03-27T13:26:23Z</time>
      </trkpt>
      <trkpt lat="43.47532" lon="6.17874">
        <ele>137.2</ele>
        <time>2024-03-27T13:26:24Z</time>
      </trkpt>
      <trkpt lat="43.47532" lon="6.17874">
        <ele>137.2</ele>
        <time>2024-03-27T13:26:25Z</time>
      </trkpt>
      <trkpt lat="43.47532" lon="6.17874">
        <ele>137.3</ele>
        <time>2024-03-27T13:26:26Z</time>
      </trkpt>
      <trkpt lat="43.47532" lon="6.17874">
        <ele>137.3</ele>
        <time>2024-03-27T13:26:27Z</time>
      </trkpt>
      <trkpt lat="43.47532" lon="6.17874">
        <ele>137.3</ele>
        <time>2024-03-27T13:26:28Z</time>
      </trkpt>
      <trkpt lat="43.47532" lon="6.17874">
        <ele>137.4</ele>
        <time>2024-03-27T13:26:29Z</time>
      </trkpt>
      <trkpt lat="43.47532" lon="6.17874">
        <ele>137.4</ele>
        <time>2024-03-27T13:26:30Z</time>
      </trkpt>
      <trkpt lat="43.47532" lon="6.17874">
        <ele>137.5</ele>
        <time>2024-03-27T13:26:31Z</time>
      </trkpt>
      <trkpt lat="43.47532" lon="6.17874">
        <ele>137.4</ele>
        <time>2024-03-27T13:26:32Z</time>
      </trkpt>
      <trkpt lat="43.47532" lon="6.17874">
        <ele>137.3</ele>
        <time>2024-03-27T13:26:33Z</time>
      </trkpt>
      <trkpt lat="43.47532" lon="6.17874">
        <ele>137.3</ele>
        <time>2024-03-27T13:26:34Z</time>
      </trkpt>
      <trkpt lat="43.47532" lon="6.17874">
        <ele>137.2</ele>
        <time>2024-03-27T13:26:35Z</time>
      </trkpt>
      <trkpt lat="43.47532" lon="6.17874">
        <ele>137.1</ele>
        <time>2024-03-27T13:26:36Z</time>
      </trkpt>
      <trkpt lat="43.47532" lon="6.17874">
        <ele>137.1</ele>
        <time>2024-03-27T13:26:37Z</time>
      </trkpt>
      <trkpt lat="43.47532" lon="6.17874">
        <ele>137</ele>
        <time>2024-03-27T13:26:38Z</time>
      </trkpt>
      <trkpt lat="43.47532" lon="6.17874">
        <ele>136.9</ele>
        <time>2024-03-27T13:26:39Z</time>
      </trkpt>
      <trkpt lat="43.47532" lon="6.17875">
        <ele>136.8</ele>
        <time>2024-03-27T13:26:40Z</time>
      </trkpt>
      <trkpt lat="43.47532" lon="6.17875">
        <ele>136.7</ele>
        <time>2024-03-27T13:26:41Z</time>
      </trkpt>
      <trkpt lat="43.47532" lon="6.17875">
        <ele>136.6</ele>
        <time>2024-03-27T13:26:42Z</time>
      </trkpt>
      <trkpt lat="43.47532" lon="6.17875">
        <ele>136.6</ele>
        <time>2024-03-27T13:26:43Z</time>
      </trkpt>
      <trkpt lat="43.47532" lon="6.17875">
        <ele>136.5</ele>
        <time>2024-03-27T13:26:44Z</time>
      </trkpt>
      <trkpt lat="43.47532" lon="6.17875">
        <ele>136.5</ele>
        <time>2024-03-27T13:26:45Z</time>
      </trkpt>
      <trkpt lat="43.47532" lon="6.17875">
        <ele>136.4</ele>
        <time>2024-03-27T13:26:46Z</time>
      </trkpt>
      <trkpt lat="43.47532" lon="6.17875">
        <ele>136.3</ele>
        <time>2024-03-27T13:26:47Z</time>
      </trkpt>
      <trkpt lat="43.47532" lon="6.17876">
        <ele>136.2</ele>
        <time>2024-03-27T13:26:48Z</time>
      </trkpt>
      <trkpt lat="43.47532" lon="6.17875">
        <ele>136</ele>
        <time>2024-03-27T13:26:49Z</time>
      </trkpt>
      <trkpt lat="43.47532" lon="6.17875">
        <ele>136.1</ele>
        <time>2024-03-27T13:26:50Z</time>
      </trkpt>
      <trkpt lat="43.47532" lon="6.17876">
        <ele>136.2</ele>
        <time>2024-03-27T13:26:51Z</time>
      </trkpt>
      <trkpt lat="43.47532" lon="6.17876">
        <ele>136.3</ele>
        <time>2024-03-27T13:26:52Z</time>
      </trkpt>
      <trkpt lat="43.47532" lon="6.17875">
        <ele>136.4</ele>
        <time>2024-03-27T13:26:53Z</time>
      </trkpt>
      <trkpt lat="43.47532" lon="6.17875">
        <ele>136.5</ele>
        <time>2024-03-27T13:26:54Z</time>
      </trkpt>
      <trkpt lat="43.47532" lon="6.17875">
        <ele>136.5</ele>
        <time>2024-03-27T13:26:55Z</time>
      </trkpt>
      <trkpt lat="43.47532" lon="6.17875">
        <ele>136.6</ele>
        <time>2024-03-27T13:26:56Z</time>
      </trkpt>
      <trkpt lat="43.47532" lon="6.17875">
        <ele>136.6</ele>
        <time>2024-03-27T13:26:57Z</time>
      </trkpt>
      <trkpt lat="43.47532" lon="6.17876">
        <ele>136.7</ele>
        <time>2024-03-27T13:26:58Z</time>
      </trkpt>
      <trkpt lat="43.47532" lon="6.17876">
        <ele>136.6</ele>
        <time>2024-03-27T13:26:59Z</time>
      </trkpt>
      <trkpt lat="43.47532" lon="6.17876">
        <ele>136.6</ele>
        <time>2024-03-27T13:27:00Z</time>
      </trkpt>
      <trkpt lat="43.47532" lon="6.17876">
        <ele>136.6</ele>
        <time>2024-03-27T13:27:01Z</time>
      </trkpt>
      <trkpt lat="43.47532" lon="6.17876">
        <ele>136.6</ele>
        <time>2024-03-27T13:27:02Z</time>
      </trkpt>
      <trkpt lat="43.47532" lon="6.17876">
        <ele>136.6</ele>
        <time>2024-03-27T13:27:03Z</time>
      </trkpt>
      <trkpt lat="43.47532" lon="6.17876">
        <ele>136.7</ele>
        <time>2024-03-27T13:27:04Z</time>
      </trkpt>
      <trkpt lat="43.47532" lon="6.17876">
        <ele>136.7</ele>
        <time>2024-03-27T13:27:05Z</time>
      </trkpt>
      <trkpt lat="43.47532" lon="6.17876">
        <ele>136.7</ele>
        <time>2024-03-27T13:27:06Z</time>
      </trkpt>
      <trkpt lat="43.47532" lon="6.17876">
        <ele>136.7</ele>
        <time>2024-03-27T13:27:07Z</time>
      </trkpt>
      <trkpt lat="43.47532" lon="6.17876">
        <ele>136.6</ele>
        <time>2024-03-27T13:27:08Z</time>
      </trkpt>
      <trkpt lat="43.47532" lon="6.17876">
        <ele>136.6</ele>
        <time>2024-03-27T13:27:09Z</time>
      </trkpt>
      <trkpt lat="43.47532" lon="6.17876">
        <ele>136.6</ele>
        <time>2024-03-27T13:27:10Z</time>
      </trkpt>
      <trkpt lat="43.47532" lon="6.17876">
        <ele>136.6</ele>
        <time>2024-03-27T13:27:11Z</time>
      </trkpt>
      <trkpt lat="43.47532" lon="6.17876">
        <ele>136.6</ele>
        <time>2024-03-27T13:27:12Z</time>
      </trkpt>
      <trkpt lat="43.47532" lon="6.17876">
        <ele>136.6</ele>
        <time>2024-03-27T13:27:13Z</time>
      </trkpt>
      <trkpt lat="43.47532" lon="6.17876">
        <ele>136.7</ele>
        <time>2024-03-27T13:27:14Z</time>
      </trkpt>
      <trkpt lat="43.47532" lon="6.17876">
        <ele>136.7</ele>
        <time>2024-03-27T13:27:15Z</time>
      </trkpt>
      <trkpt lat="43.47532" lon="6.17876">
        <ele>136.7</ele>
        <time>2024-03-27T13:27:16Z</time>
      </trkpt>
      <trkpt lat="43.47532" lon="6.17876">
        <ele>136.7</ele>
        <time>2024-03-27T13:27:17Z</time>
      </trkpt>
      <trkpt lat="43.47532" lon="6.17876">
        <ele>136.7</ele>
        <time>2024-03-27T13:27:18Z</time>
      </trkpt>
      <trkpt lat="43.47532" lon="6.17876">
        <ele>136.6</ele>
        <time>2024-03-27T13:27:19Z</time>
      </trkpt>
      <trkpt lat="43.47532" lon="6.17876">
        <ele>136.7</ele>
        <time>2024-03-27T13:27:20Z</time>
      </trkpt>
      <trkpt lat="43.47533" lon="6.17876">
        <ele>136.7</ele>
        <time>2024-03-27T13:27:21Z</time>
      </trkpt>
      <trkpt lat="43.47533" lon="6.17876">
        <ele>136.7</ele>
        <time>2024-03-27T13:27:22Z</time>
      </trkpt>
      <trkpt lat="43.47533" lon="6.17876">
        <ele>136.7</ele>
        <time>2024-03-27T13:27:23Z</time>
      </trkpt>
      <trkpt lat="43.47533" lon="6.17876">
        <ele>136.5</ele>
        <time>2024-03-27T13:27:24Z</time>
      </trkpt>
      <trkpt lat="43.47533" lon="6.17876">
        <ele>136.5</ele>
        <time>2024-03-27T13:27:25Z</time>
      </trkpt>
      <trkpt lat="43.47533" lon="6.17876">
        <ele>136.4</ele>
        <time>2024-03-27T13:27:26Z</time>
      </trkpt>
      <trkpt lat="43.47533" lon="6.17876">
        <ele>136.4</ele>
        <time>2024-03-27T13:27:27Z</time>
      </trkpt>
      <trkpt lat="43.47533" lon="6.17876">
        <ele>136.4</ele>
        <time>2024-03-27T13:27:28Z</time>
      </trkpt>
      <trkpt lat="43.47533" lon="6.17876">
        <ele>136.4</ele>
        <time>2024-03-27T13:27:29Z</time>
      </trkpt>
      <trkpt lat="43.47533" lon="6.17876">
        <ele>136.4</ele>
        <time>2024-03-27T13:27:30Z</time>
      </trkpt>
      <trkpt lat="43.47533" lon="6.17876">
        <ele>136.5</ele>
        <time>2024-03-27T13:27:31Z</time>
      </trkpt>
      <trkpt lat="43.47533" lon="6.17876">
        <ele>136.7</ele>
        <time>2024-03-27T13:27:32Z</time>
      </trkpt>
      <trkpt lat="43.47533" lon="6.17876">
        <ele>136.7</ele>
        <time>2024-03-27T13:27:33Z</time>
      </trkpt>
      <trkpt lat="43.47534" lon="6.17876">
        <ele>136.8</ele>
        <time>2024-03-27T13:27:34Z</time>
      </trkpt>
      <trkpt lat="43.47533" lon="6.17876">
        <ele>136.8</ele>
        <time>2024-03-27T13:27:35Z</time>
      </trkpt>
      <trkpt lat="43.47533" lon="6.17876">
        <ele>136.9</ele>
        <time>2024-03-27T13:27:36Z</time>
      </trkpt>
      <trkpt lat="43.47533" lon="6.17876">
        <ele>136.9</ele>
        <time>2024-03-27T13:27:37Z</time>
      </trkpt>
      <trkpt lat="43.47533" lon="6.17876">
        <ele>137</ele>
        <time>2024-03-27T13:27:38Z</time>
      </trkpt>
      <trkpt lat="43.47533" lon="6.17876">
        <ele>137</ele>
        <time>2024-03-27T13:27:39Z</time>
      </trkpt>
      <trkpt lat="43.47533" lon="6.17875">
        <ele>137</ele>
        <time>2024-03-27T13:27:40Z</time>
      </trkpt>
      <trkpt lat="43.47533" lon="6.17875">
        <ele>137</ele>
        <time>2024-03-27T13:27:41Z</time>
      </trkpt>
      <trkpt lat="43.47533" lon="6.17875">
        <ele>136.9</ele>
        <time>2024-03-27T13:27:42Z</time>
      </trkpt>
      <trkpt lat="43.47533" lon="6.17875">
        <ele>136.9</ele>
        <time>2024-03-27T13:27:43Z</time>
      </trkpt>
      <trkpt lat="43.47533" lon="6.17876">
        <ele>136.9</ele>
        <time>2024-03-27T13:27:44Z</time>
      </trkpt>
      <trkpt lat="43.47532" lon="6.17876">
        <ele>136.9</ele>
        <time>2024-03-27T13:27:45Z</time>
      </trkpt>
      <trkpt lat="43.47532" lon="6.17876">
        <ele>136.9</ele>
        <time>2024-03-27T13:27:46Z</time>
      </trkpt>
      <trkpt lat="43.47532" lon="6.17876">
        <ele>136.9</ele>
        <time>2024-03-27T13:27:47Z</time>
      </trkpt>
      <trkpt lat="43.47533" lon="6.17877">
        <ele>137</ele>
        <time>2024-03-27T13:27:48Z</time>
      </trkpt>
      <trkpt lat="43.47534" lon="6.17878">
        <ele>137</ele>
        <time>2024-03-27T13:27:49Z</time>
      </trkpt>
      <trkpt lat="43.47535" lon="6.17879">
        <ele>136.9</ele>
        <time>2024-03-27T13:27:50Z</time>
      </trkpt>
      <trkpt lat="43.47535" lon="6.1788">
        <ele>136.9</ele>
        <time>2024-03-27T13:27:51Z</time>
      </trkpt>
      <trkpt lat="43.47536" lon="6.17881">
        <ele>137</ele>
        <time>2024-03-27T13:27:52Z</time>
      </trkpt>
      <trkpt lat="43.47536" lon="6.17881">
        <ele>136.9</ele>
        <time>2024-03-27T13:27:53Z</time>
      </trkpt>
      <trkpt lat="43.47536" lon="6.17881">
        <ele>136.8</ele>
        <time>2024-03-27T13:27:54Z</time>
      </trkpt>
      <trkpt lat="43.47537" lon="6.17882">
        <ele>136.8</ele>
        <time>2024-03-27T13:27:55Z</time>
      </trkpt>
      <trkpt lat="43.47536" lon="6.17882">
        <ele>136.8</ele>
        <time>2024-03-27T13:27:56Z</time>
      </trkpt>
      <trkpt lat="43.47537" lon="6.17882">
        <ele>136.8</ele>
        <time>2024-03-27T13:27:57Z</time>
      </trkpt>
      <trkpt lat="43.47537" lon="6.17883">
        <ele>136.7</ele>
        <time>2024-03-27T13:27:58Z</time>
      </trkpt>
      <trkpt lat="43.47537" lon="6.17883">
        <ele>136.7</ele>
        <time>2024-03-27T13:27:59Z</time>
      </trkpt>
      <trkpt lat="43.47538" lon="6.17883">
        <ele>136.8</ele>
        <time>2024-03-27T13:28:00Z</time>
      </trkpt>
      <trkpt lat="43.47538" lon="6.17884">
        <ele>136.8</ele>
        <time>2024-03-27T13:28:01Z</time>
      </trkpt>
      <trkpt lat="43.47538" lon="6.17884">
        <ele>136.8</ele>
        <time>2024-03-27T13:28:02Z</time>
      </trkpt>
      <trkpt lat="43.47539" lon="6.17885">
        <ele>136.8</ele>
        <time>2024-03-27T13:28:03Z</time>
      </trkpt>
      <trkpt lat="43.4754" lon="6.17886">
        <ele>136.7</ele>
        <time>2024-03-27T13:28:04Z</time>
      </trkpt>
      <trkpt lat="43.47541" lon="6.17887">
        <ele>136.6</ele>
        <time>2024-03-27T13:28:05Z</time>
      </trkpt>
      <trkpt lat="43.47541" lon="6.17888">
        <ele>136.5</ele>
        <time>2024-03-27T13:28:06Z</time>
      </trkpt>
      <trkpt lat="43.47542" lon="6.17889">
        <ele>136.5</ele>
        <time>2024-03-27T13:28:07Z</time>
      </trkpt>
      <trkpt lat="43.47543" lon="6.17889">
        <ele>136.4</ele>
        <time>2024-03-27T13:28:08Z</time>
      </trkpt>
      <trkpt lat="43.47544" lon="6.1789">
        <ele>136.4</ele>
        <time>2024-03-27T13:28:09Z</time>
      </trkpt>
      <trkpt lat="43.47545" lon="6.17891">
        <ele>136.4</ele>
        <time>2024-03-27T13:28:10Z</time>
      </trkpt>
      <trkpt lat="43.47545" lon="6.17891">
        <ele>136.4</ele>
        <time>2024-03-27T13:28:11Z</time>
      </trkpt>
      <trkpt lat="43.47546" lon="6.17892">
        <ele>136.3</ele>
        <time>2024-03-27T13:28:12Z</time>
      </trkpt>
      <trkpt lat="43.47546" lon="6.17892">
        <ele>136.3</ele>
        <time>2024-03-27T13:28:13Z</time>
      </trkpt>
      <trkpt lat="43.47547" lon="6.17893">
        <ele>136.3</ele>
        <time>2024-03-27T13:28:14Z</time>
      </trkpt>
      <trkpt lat="43.47547" lon="6.17894">
        <ele>136.3</ele>
        <time>2024-03-27T13:28:15Z</time>
      </trkpt>
      <trkpt lat="43.47547" lon="6.17894">
        <ele>136.2</ele>
        <time>2024-03-27T13:28:16Z</time>
      </trkpt>
      <trkpt lat="43.47548" lon="6.17895">
        <ele>136.1</ele>
        <time>2024-03-27T13:28:17Z</time>
      </trkpt>
      <trkpt lat="43.47548" lon="6.17895">
        <ele>136.1</ele>
        <time>2024-03-27T13:28:18Z</time>
      </trkpt>
      <trkpt lat="43.47548" lon="6.17896">
        <ele>136.1</ele>
        <time>2024-03-27T13:28:19Z</time>
      </trkpt>
      <trkpt lat="43.47549" lon="6.17896">
        <ele>136</ele>
        <time>2024-03-27T13:28:20Z</time>
      </trkpt>
      <trkpt lat="43.4755" lon="6.17897">
        <ele>135.9</ele>
        <time>2024-03-27T13:28:21Z</time>
      </trkpt>
      <trkpt lat="43.4755" lon="6.17897">
        <ele>135.9</ele>
        <time>2024-03-27T13:28:22Z</time>
      </trkpt>
      <trkpt lat="43.47551" lon="6.17898">
        <ele>135.8</ele>
        <time>2024-03-27T13:28:23Z</time>
      </trkpt>
      <trkpt lat="43.47551" lon="6.17899">
        <ele>135.8</ele>
        <time>2024-03-27T13:28:24Z</time>
      </trkpt>
      <trkpt lat="43.47552" lon="6.17899">
        <ele>135.8</ele>
        <time>2024-03-27T13:28:25Z</time>
      </trkpt>
      <trkpt lat="43.47553" lon="6.17901">
        <ele>135.9</ele>
        <time>2024-03-27T13:28:26Z</time>
      </trkpt>
      <trkpt lat="43.47554" lon="6.17902">
        <ele>136.1</ele>
        <time>2024-03-27T13:28:27Z</time>
      </trkpt>
      <trkpt lat="43.47554" lon="6.17903">
        <ele>136.3</ele>
        <time>2024-03-27T13:28:28Z</time>
      </trkpt>
      <trkpt lat="43.47555" lon="6.17905">
        <ele>136.5</ele>
        <time>2024-03-27T13:28:29Z</time>
      </trkpt>
      <trkpt lat="43.47555" lon="6.17906">
        <ele>136.7</ele>
        <time>2024-03-27T13:28:30Z</time>
      </trkpt>
      <trkpt lat="43.47556" lon="6.17907">
        <ele>136.8</ele>
        <time>2024-03-27T13:28:31Z</time>
      </trkpt>
      <trkpt lat="43.47556" lon="6.17908">
        <ele>137</ele>
        <time>2024-03-27T13:28:32Z</time>
      </trkpt>
      <trkpt lat="43.47557" lon="6.1791">
        <ele>137.1</ele>
        <time>2024-03-27T13:28:33Z</time>
      </trkpt>
      <trkpt lat="43.47558" lon="6.1791">
        <ele>137.2</ele>
        <time>2024-03-27T13:28:34Z</time>
      </trkpt>
      <trkpt lat="43.47559" lon="6.17911">
        <ele>137.2</ele>
        <time>2024-03-27T13:28:35Z</time>
      </trkpt>
      <trkpt lat="43.47559" lon="6.17912">
        <ele>137.3</ele>
        <time>2024-03-27T13:28:36Z</time>
      </trkpt>
      <trkpt lat="43.4756" lon="6.17913">
        <ele>137.3</ele>
        <time>2024-03-27T13:28:37Z</time>
      </trkpt>
      <trkpt lat="43.47561" lon="6.17914">
        <ele>137.3</ele>
        <time>2024-03-27T13:28:38Z</time>
      </trkpt>
      <trkpt lat="43.47561" lon="6.17915">
        <ele>137.2</ele>
        <time>2024-03-27T13:28:39Z</time>
      </trkpt>
      <trkpt lat="43.47562" lon="6.17917">
        <ele>137.2</ele>
        <time>2024-03-27T13:28:40Z</time>
      </trkpt>
      <trkpt lat="43.47563" lon="6.17918">
        <ele>137.3</ele>
        <time>2024-03-27T13:28:41Z</time>
      </trkpt>
      <trkpt lat="43.47564" lon="6.17919">
        <ele>137.3</ele>
        <time>2024-03-27T13:28:42Z</time>
      </trkpt>
      <trkpt lat="43.47564" lon="6.1792">
        <ele>137.4</ele>
        <time>2024-03-27T13:28:43Z</time>
      </trkpt>
      <trkpt lat="43.47565" lon="6.17921">
        <ele>137.4</ele>
        <time>2024-03-27T13:28:44Z</time>
      </trkpt>
      <trkpt lat="43.47566" lon="6.17922">
        <ele>137.4</ele>
        <time>2024-03-27T13:28:45Z</time>
      </trkpt>
      <trkpt lat="43.47567" lon="6.17923">
        <ele>137.5</ele>
        <time>2024-03-27T13:28:46Z</time>
      </trkpt>
      <trkpt lat="43.47568" lon="6.17925">
        <ele>137.5</ele>
        <time>2024-03-27T13:28:47Z</time>
      </trkpt>
      <trkpt lat="43.47568" lon="6.17926">
        <ele>137.7</ele>
        <time>2024-03-27T13:28:48Z</time>
      </trkpt>
      <trkpt lat="43.47569" lon="6.17927">
        <ele>137.8</ele>
        <time>2024-03-27T13:28:49Z</time>
      </trkpt>
      <trkpt lat="43.4757" lon="6.17928">
        <ele>138</ele>
        <time>2024-03-27T13:28:50Z</time>
      </trkpt>
      <trkpt lat="43.4757" lon="6.17929">
        <ele>138.2</ele>
        <time>2024-03-27T13:28:51Z</time>
      </trkpt>
      <trkpt lat="43.47571" lon="6.1793">
        <ele>138.3</ele>
        <time>2024-03-27T13:28:52Z</time>
      </trkpt>
      <trkpt lat="43.47572" lon="6.17931">
        <ele>138.4</ele>
        <time>2024-03-27T13:28:53Z</time>
      </trkpt>
      <trkpt lat="43.47573" lon="6.17932">
        <ele>138.5</ele>
        <time>2024-03-27T13:28:54Z</time>
      </trkpt>
      <trkpt lat="43.47574" lon="6.17933">
        <ele>138.6</ele>
        <time>2024-03-27T13:28:55Z</time>
      </trkpt>
      <trkpt lat="43.47575" lon="6.17934">
        <ele>138.7</ele>
        <time>2024-03-27T13:28:56Z</time>
      </trkpt>
      <trkpt lat="43.47576" lon="6.17935">
        <ele>138.8</ele>
        <time>2024-03-27T13:28:57Z</time>
      </trkpt>
      <trkpt lat="43.47576" lon="6.17936">
        <ele>138.8</ele>
        <time>2024-03-27T13:28:58Z</time>
      </trkpt>
      <trkpt lat="43.47577" lon="6.17938">
        <ele>138.9</ele>
        <time>2024-03-27T13:28:59Z</time>
      </trkpt>
      <trkpt lat="43.47578" lon="6.17939">
        <ele>138.9</ele>
        <time>2024-03-27T13:29:00Z</time>
      </trkpt>
      <trkpt lat="43.47578" lon="6.1794">
        <ele>139</ele>
        <time>2024-03-27T13:29:01Z</time>
      </trkpt>
      <trkpt lat="43.47578" lon="6.17941">
        <ele>139.1</ele>
        <time>2024-03-27T13:29:02Z</time>
      </trkpt>
      <trkpt lat="43.47579" lon="6.17942">
        <ele>139.1</ele>
        <time>2024-03-27T13:29:03Z</time>
      </trkpt>
      <trkpt lat="43.4758" lon="6.17943">
        <ele>139.2</ele>
        <time>2024-03-27T13:29:04Z</time>
      </trkpt>
      <trkpt lat="43.4758" lon="6.17944">
        <ele>139.4</ele>
        <time>2024-03-27T13:29:05Z</time>
      </trkpt>
      <trkpt lat="43.47581" lon="6.17944">
        <ele>139.5</ele>
        <time>2024-03-27T13:29:06Z</time>
      </trkpt>
      <trkpt lat="43.47581" lon="6.17945">
        <ele>139.5</ele>
        <time>2024-03-27T13:29:07Z</time>
      </trkpt>
      <trkpt lat="43.47582" lon="6.17945">
        <ele>139.6</ele>
        <time>2024-03-27T13:29:08Z</time>
      </trkpt>
      <trkpt lat="43.47582" lon="6.17946">
        <ele>139.7</ele>
        <time>2024-03-27T13:29:09Z</time>
      </trkpt>
      <trkpt lat="43.47583" lon="6.17947">
        <ele>139.7</ele>
        <time>2024-03-27T13:29:10Z</time>
      </trkpt>
      <trkpt lat="43.47583" lon="6.17947">
        <ele>139.7</ele>
        <time>2024-03-27T13:29:11Z</time>
      </trkpt>
      <trkpt lat="43.47584" lon="6.17948">
        <ele>139.8</ele>
        <time>2024-03-27T13:29:12Z</time>
      </trkpt>
      <trkpt lat="43.47584" lon="6.17949">
        <ele>139.8</ele>
        <time>2024-03-27T13:29:13Z</time>
      </trkpt>
      <trkpt lat="43.47585" lon="6.1795">
        <ele>139.9</ele>
        <time>2024-03-27T13:29:14Z</time>
      </trkpt>
      <trkpt lat="43.47585" lon="6.1795">
        <ele>139.9</ele>
        <time>2024-03-27T13:29:15Z</time>
      </trkpt>
      <trkpt lat="43.47586" lon="6.17951">
        <ele>139.9</ele>
        <time>2024-03-27T13:29:16Z</time>
      </trkpt>
      <trkpt lat="43.47586" lon="6.17952">
        <ele>140</ele>
        <time>2024-03-27T13:29:17Z</time>
      </trkpt>
      <trkpt lat="43.47586" lon="6.17953">
        <ele>140.1</ele>
        <time>2024-03-27T13:29:18Z</time>
      </trkpt>
      <trkpt lat="43.47586" lon="6.17953">
        <ele>140.3</ele>
        <time>2024-03-27T13:29:19Z</time>
      </trkpt>
      <trkpt lat="43.47586" lon="6.17954">
        <ele>140.4</ele>
        <time>2024-03-27T13:29:20Z</time>
      </trkpt>
      <trkpt lat="43.47585" lon="6.17954">
        <ele>140.5</ele>
        <time>2024-03-27T13:29:21Z</time>
      </trkpt>
      <trkpt lat="43.47585" lon="6.17954">
        <ele>140.7</ele>
        <time>2024-03-27T13:29:22Z</time>
      </trkpt>
      <trkpt lat="43.47585" lon="6.17955">
        <ele>140.9</ele>
        <time>2024-03-27T13:29:23Z</time>
      </trkpt>
      <trkpt lat="43.47585" lon="6.17955">
        <ele>141</ele>
        <time>2024-03-27T13:29:24Z</time>
      </trkpt>
      <trkpt lat="43.47584" lon="6.17955">
        <ele>141.1</ele>
        <time>2024-03-27T13:29:25Z</time>
      </trkpt>
      <trkpt lat="43.47584" lon="6.17956">
        <ele>141.3</ele>
        <time>2024-03-27T13:29:26Z</time>
      </trkpt>
      <trkpt lat="43.47583" lon="6.17957">
        <ele>141.5</ele>
        <time>2024-03-27T13:29:27Z</time>
      </trkpt>
      <trkpt lat="43.47582" lon="6.17957">
        <ele>141.6</ele>
        <time>2024-03-27T13:29:28Z</time>
      </trkpt>
      <trkpt lat="43.47582" lon="6.17958">
        <ele>141.7</ele>
        <time>2024-03-27T13:29:29Z</time>
      </trkpt>
      <trkpt lat="43.47581" lon="6.17958">
        <ele>141.9</ele>
        <time>2024-03-27T13:29:30Z</time>
      </trkpt>
      <trkpt lat="43.4758" lon="6.1796">
        <ele>142.1</ele>
        <time>2024-03-27T13:29:31Z</time>
      </trkpt>
      <trkpt lat="43.47579" lon="6.1796">
        <ele>142.2</ele>
        <time>2024-03-27T13:29:32Z</time>
      </trkpt>
      <trkpt lat="43.47579" lon="6.17961">
        <ele>142.4</ele>
        <time>2024-03-27T13:29:33Z</time>
      </trkpt>
      <trkpt lat="43.47578" lon="6.17962">
        <ele>142.6</ele>
        <time>2024-03-27T13:29:34Z</time>
      </trkpt>
      <trkpt lat="43.47578" lon="6.17964">
        <ele>142.8</ele>
        <time>2024-03-27T13:29:35Z</time>
      </trkpt>
      <trkpt lat="43.47578" lon="6.17965">
        <ele>143</ele>
        <time>2024-03-27T13:29:36Z</time>
      </trkpt>
      <trkpt lat="43.47577" lon="6.17965">
        <ele>143.1</ele>
        <time>2024-03-27T13:29:37Z</time>
      </trkpt>
      <trkpt lat="43.47577" lon="6.17966">
        <ele>143.2</ele>
        <time>2024-03-27T13:29:38Z</time>
      </trkpt>
      <trkpt lat="43.47577" lon="6.17967">
        <ele>143.5</ele>
        <time>2024-03-27T13:29:39Z</time>
      </trkpt>
      <trkpt lat="43.47576" lon="6.17968">
        <ele>143.7</ele>
        <time>2024-03-27T13:29:40Z</time>
      </trkpt>
      <trkpt lat="43.47576" lon="6.17969">
        <ele>143.9</ele>
        <time>2024-03-27T13:29:41Z</time>
      </trkpt>
      <trkpt lat="43.47577" lon="6.1797">
        <ele>144</ele>
        <time>2024-03-27T13:29:42Z</time>
      </trkpt>
      <trkpt lat="43.47577" lon="6.17971">
        <ele>144.2</ele>
        <time>2024-03-27T13:29:43Z</time>
      </trkpt>
      <trkpt lat="43.47578" lon="6.17972">
        <ele>144.3</ele>
        <time>2024-03-27T13:29:44Z</time>
      </trkpt>
      <trkpt lat="43.47579" lon="6.17972">
        <ele>144.4</ele>
        <time>2024-03-27T13:29:45Z</time>
      </trkpt>
      <trkpt lat="43.47579" lon="6.17973">
        <ele>144.7</ele>
        <time>2024-03-27T13:29:46Z</time>
      </trkpt>
      <trkpt lat="43.47579" lon="6.17974">
        <ele>144.9</ele>
        <time>2024-03-27T13:29:47Z</time>
      </trkpt>
      <trkpt lat="43.4758" lon="6.17974">
        <ele>145</ele>
        <time>2024-03-27T13:29:48Z</time>
      </trkpt>
      <trkpt lat="43.4758" lon="6.17975">
        <ele>145.3</ele>
        <time>2024-03-27T13:29:49Z</time>
      </trkpt>
      <trkpt lat="43.4758" lon="6.17976">
        <ele>145.5</ele>
        <time>2024-03-27T13:29:50Z</time>
      </trkpt>
      <trkpt lat="43.4758" lon="6.17976">
        <ele>145.8</ele>
        <time>2024-03-27T13:29:51Z</time>
      </trkpt>
      <trkpt lat="43.4758" lon="6.17976">
        <ele>146.1</ele>
        <time>2024-03-27T13:29:52Z</time>
      </trkpt>
      <trkpt lat="43.47581" lon="6.17977">
        <ele>146.3</ele>
        <time>2024-03-27T13:29:53Z</time>
      </trkpt>
      <trkpt lat="43.47581" lon="6.17978">
        <ele>146.5</ele>
        <time>2024-03-27T13:29:54Z</time>
      </trkpt>
      <trkpt lat="43.47581" lon="6.17979">
        <ele>146.7</ele>
        <time>2024-03-27T13:29:55Z</time>
      </trkpt>
      <trkpt lat="43.47581" lon="6.17979">
        <ele>146.9</ele>
        <time>2024-03-27T13:29:56Z</time>
      </trkpt>
      <trkpt lat="43.47581" lon="6.17979">
        <ele>147.1</ele>
        <time>2024-03-27T13:29:57Z</time>
      </trkpt>
      <trkpt lat="43.4758" lon="6.1798">
        <ele>147.3</ele>
        <time>2024-03-27T13:29:58Z</time>
      </trkpt>
      <trkpt lat="43.4758" lon="6.1798">
        <ele>147.7</ele>
        <time>2024-03-27T13:29:59Z</time>
      </trkpt>
      <trkpt lat="43.4758" lon="6.17981">
        <ele>148</ele>
        <time>2024-03-27T13:30:00Z</time>
      </trkpt>
      <trkpt lat="43.4758" lon="6.17982">
        <ele>148.3</ele>
        <time>2024-03-27T13:30:01Z</time>
      </trkpt>
      <trkpt lat="43.4758" lon="6.17983">
        <ele>148.5</ele>
        <time>2024-03-27T13:30:02Z</time>
      </trkpt>
      <trkpt lat="43.4758" lon="6.17984">
        <ele>148.7</ele>
        <time>2024-03-27T13:30:03Z</time>
      </trkpt>
      <trkpt lat="43.4758" lon="6.17984">
        <ele>148.8</ele>
        <time>2024-03-27T13:30:04Z</time>
      </trkpt>
      <trkpt lat="43.4758" lon="6.17984">
        <ele>148.9</ele>
        <time>2024-03-27T13:30:05Z</time>
      </trkpt>
      <trkpt lat="43.47581" lon="6.17985">
        <ele>149</ele>
        <time>2024-03-27T13:30:06Z</time>
      </trkpt>
      <trkpt lat="43.47581" lon="6.17986">
        <ele>149.1</ele>
        <time>2024-03-27T13:30:07Z</time>
      </trkpt>
      <trkpt lat="43.47581" lon="6.17986">
        <ele>149.1</ele>
        <time>2024-03-27T13:30:08Z</time>
      </trkpt>
      <trkpt lat="43.47581" lon="6.17986">
        <ele>149.2</ele>
        <time>2024-03-27T13:30:09Z</time>
      </trkpt>
      <trkpt lat="43.47582" lon="6.17986">
        <ele>149.2</ele>
        <time>2024-03-27T13:30:10Z</time>
      </trkpt>
      <trkpt lat="43.47583" lon="6.17986">
        <ele>149.3</ele>
        <time>2024-03-27T13:30:11Z</time>
      </trkpt>
      <trkpt lat="43.47583" lon="6.17986">
        <ele>149.3</ele>
        <time>2024-03-27T13:30:12Z</time>
      </trkpt>
      <trkpt lat="43.47583" lon="6.17986">
        <ele>149.3</ele>
        <time>2024-03-27T13:30:13Z</time>
      </trkpt>
      <trkpt lat="43.47584" lon="6.17986">
        <ele>149.3</ele>
        <time>2024-03-27T13:30:14Z</time>
      </trkpt>
      <trkpt lat="43.47585" lon="6.17986">
        <ele>149.4</ele>
        <time>2024-03-27T13:30:15Z</time>
      </trkpt>
      <trkpt lat="43.47585" lon="6.17986">
        <ele>149.4</ele>
        <time>2024-03-27T13:30:16Z</time>
      </trkpt>
      <trkpt lat="43.47587" lon="6.17986">
        <ele>149.4</ele>
        <time>2024-03-27T13:30:17Z</time>
      </trkpt>
      <trkpt lat="43.47587" lon="6.17986">
        <ele>149.5</ele>
        <time>2024-03-27T13:30:18Z</time>
      </trkpt>
      <trkpt lat="43.47587" lon="6.17986">
        <ele>149.6</ele>
        <time>2024-03-27T13:30:19Z</time>
      </trkpt>
      <trkpt lat="43.47588" lon="6.17986">
        <ele>149.7</ele>
        <time>2024-03-27T13:30:20Z</time>
      </trkpt>
      <trkpt lat="43.47589" lon="6.17986">
        <ele>149.8</ele>
        <time>2024-03-27T13:30:21Z</time>
      </trkpt>
      <trkpt lat="43.4759" lon="6.17986">
        <ele>149.9</ele>
        <time>2024-03-27T13:30:22Z</time>
      </trkpt>
      <trkpt lat="43.4759" lon="6.17987">
        <ele>150</ele>
        <time>2024-03-27T13:30:23Z</time>
      </trkpt>
      <trkpt lat="43.47591" lon="6.17987">
        <ele>150.1</ele>
        <time>2024-03-27T13:30:24Z</time>
      </trkpt>
      <trkpt lat="43.47591" lon="6.17988">
        <ele>150.2</ele>
        <time>2024-03-27T13:30:25Z</time>
      </trkpt>
      <trkpt lat="43.47591" lon="6.17987">
        <ele>150.3</ele>
        <time>2024-03-27T13:30:26Z</time>
      </trkpt>
      <trkpt lat="43.47591" lon="6.17988">
        <ele>150.4</ele>
        <time>2024-03-27T13:30:27Z</time>
      </trkpt>
      <trkpt lat="43.47591" lon="6.17988">
        <ele>150.6</ele>
        <time>2024-03-27T13:30:28Z</time>
      </trkpt>
      <trkpt lat="43.47592" lon="6.17988">
        <ele>150.7</ele>
        <time>2024-03-27T13:30:29Z</time>
      </trkpt>
      <trkpt lat="43.47592" lon="6.17988">
        <ele>150.8</ele>
        <time>2024-03-27T13:30:30Z</time>
      </trkpt>
      <trkpt lat="43.47592" lon="6.17988">
        <ele>150.9</ele>
        <time>2024-03-27T13:30:31Z</time>
      </trkpt>
      <trkpt lat="43.47593" lon="6.17989">
        <ele>151</ele>
        <time>2024-03-27T13:30:32Z</time>
      </trkpt>
      <trkpt lat="43.47593" lon="6.17989">
        <ele>151.2</ele>
        <time>2024-03-27T13:30:33Z</time>
      </trkpt>
      <trkpt lat="43.47594" lon="6.1799">
        <ele>151.3</ele>
        <time>2024-03-27T13:30:34Z</time>
      </trkpt>
      <trkpt lat="43.47595" lon="6.1799">
        <ele>151.4</ele>
        <time>2024-03-27T13:30:35Z</time>
      </trkpt>
      <trkpt lat="43.47595" lon="6.17991">
        <ele>151.5</ele>
        <time>2024-03-27T13:30:36Z</time>
      </trkpt>
      <trkpt lat="43.47596" lon="6.17991">
        <ele>151.6</ele>
        <time>2024-03-27T13:30:37Z</time>
      </trkpt>
      <trkpt lat="43.47596" lon="6.17991">
        <ele>151.7</ele>
        <time>2024-03-27T13:30:38Z</time>
      </trkpt>
      <trkpt lat="43.47597" lon="6.17992">
        <ele>151.8</ele>
        <time>2024-03-27T13:30:39Z</time>
      </trkpt>
      <trkpt lat="43.47598" lon="6.17992">
        <ele>151.9</ele>
        <time>2024-03-27T13:30:40Z</time>
      </trkpt>
      <trkpt lat="43.47599" lon="6.17993">
        <ele>152</ele>
        <time>2024-03-27T13:30:41Z</time>
      </trkpt>
      <trkpt lat="43.47599" lon="6.17994">
        <ele>152.1</ele>
        <time>2024-03-27T13:30:42Z</time>
      </trkpt>
      <trkpt lat="43.47601" lon="6.17996">
        <ele>152.2</ele>
        <time>2024-03-27T13:30:43Z</time>
      </trkpt>
      <trkpt lat="43.47602" lon="6.17997">
        <ele>152.3</ele>
        <time>2024-03-27T13:30:44Z</time>
      </trkpt>
      <trkpt lat="43.47603" lon="6.17997">
        <ele>152.3</ele>
        <time>2024-03-27T13:30:45Z</time>
      </trkpt>
      <trkpt lat="43.47604" lon="6.17997">
        <ele>152.4</ele>
        <time>2024-03-27T13:30:46Z</time>
      </trkpt>
      <trkpt lat="43.47605" lon="6.17998">
        <ele>152.4</ele>
        <time>2024-03-27T13:30:47Z</time>
      </trkpt>
      <trkpt lat="43.47607" lon="6.17998">
        <ele>152.4</ele>
        <time>2024-03-27T13:30:48Z</time>
      </trkpt>
      <trkpt lat="43.47608" lon="6.17998">
        <ele>152.4</ele>
        <time>2024-03-27T13:30:49Z</time>
      </trkpt>
      <trkpt lat="43.47609" lon="6.17998">
        <ele>152.4</ele>
        <time>2024-03-27T13:30:50Z</time>
      </trkpt>
      <trkpt lat="43.47609" lon="6.17996">
        <ele>152.4</ele>
        <time>2024-03-27T13:30:51Z</time>
      </trkpt>
      <trkpt lat="43.4761" lon="6.17995">
        <ele>152.4</ele>
        <time>2024-03-27T13:30:52Z</time>
      </trkpt>
      <trkpt lat="43.4761" lon="6.17994">
        <ele>152.4</ele>
        <time>2024-03-27T13:30:53Z</time>
      </trkpt>
      <trkpt lat="43.47611" lon="6.17994">
        <ele>152.4</ele>
        <time>2024-03-27T13:30:54Z</time>
      </trkpt>
      <trkpt lat="43.47611" lon="6.17993">
        <ele>152.3</ele>
        <time>2024-03-27T13:30:55Z</time>
      </trkpt>
      <trkpt lat="43.47611" lon="6.17993">
        <ele>152.4</ele>
        <time>2024-03-27T13:30:56Z</time>
      </trkpt>
      <trkpt lat="43.47612" lon="6.17992">
        <ele>152.5</ele>
        <time>2024-03-27T13:30:57Z</time>
      </trkpt>
      <trkpt lat="43.47612" lon="6.17992">
        <ele>152.6</ele>
        <time>2024-03-27T13:30:58Z</time>
      </trkpt>
      <trkpt lat="43.47612" lon="6.17992">
        <ele>152.7</ele>
        <time>2024-03-27T13:30:59Z</time>
      </trkpt>
      <trkpt lat="43.47612" lon="6.17992">
        <ele>152.8</ele>
        <time>2024-03-27T13:31:00Z</time>
      </trkpt>
      <trkpt lat="43.47613" lon="6.17992">
        <ele>152.9</ele>
        <time>2024-03-27T13:31:01Z</time>
      </trkpt>
      <trkpt lat="43.47613" lon="6.17991">
        <ele>153</ele>
        <time>2024-03-27T13:31:02Z</time>
      </trkpt>
      <trkpt lat="43.47613" lon="6.17991">
        <ele>153.1</ele>
        <time>2024-03-27T13:31:03Z</time>
      </trkpt>
      <trkpt lat="43.47613" lon="6.17991">
        <ele>153.2</ele>
        <time>2024-03-27T13:31:04Z</time>
      </trkpt>
      <trkpt lat="43.47614" lon="6.17991">
        <ele>153.2</ele>
        <time>2024-03-27T13:31:05Z</time>
      </trkpt>
      <trkpt lat="43.47614" lon="6.17991">
        <ele>153.3</ele>
        <time>2024-03-27T13:31:06Z</time>
      </trkpt>
      <trkpt lat="43.47614" lon="6.17991">
        <ele>153.4</ele>
        <time>2024-03-27T13:31:07Z</time>
      </trkpt>
      <trkpt lat="43.47614" lon="6.17991">
        <ele>153.4</ele>
        <time>2024-03-27T13:31:08Z</time>
      </trkpt>
      <trkpt lat="43.47614" lon="6.17991">
        <ele>153.5</ele>
        <time>2024-03-27T13:31:09Z</time>
      </trkpt>
      <trkpt lat="43.47614" lon="6.17991">
        <ele>153.5</ele>
        <time>2024-03-27T13:31:10Z</time>
      </trkpt>
      <trkpt lat="43.47615" lon="6.17991">
        <ele>153.5</ele>
        <time>2024-03-27T13:31:11Z</time>
      </trkpt>
      <trkpt lat="43.47615" lon="6.17991">
        <ele>153.5</ele>
        <time>2024-03-27T13:31:12Z</time>
      </trkpt>
      <trkpt lat="43.47615" lon="6.17991">
        <ele>153.4</ele>
        <time>2024-03-27T13:31:13Z</time>
      </trkpt>
      <trkpt lat="43.47615" lon="6.17991">
        <ele>153.4</ele>
        <time>2024-03-27T13:31:14Z</time>
      </trkpt>
      <trkpt lat="43.47615" lon="6.17991">
        <ele>153.4</ele>
        <time>2024-03-27T13:31:15Z</time>
      </trkpt>
      <trkpt lat="43.47615" lon="6.17991">
        <ele>153.5</ele>
        <time>2024-03-27T13:31:16Z</time>
      </trkpt>
      <trkpt lat="43.47615" lon="6.17992">
        <ele>153.5</ele>
        <time>2024-03-27T13:31:17Z</time>
      </trkpt>
      <trkpt lat="43.47615" lon="6.17992">
        <ele>153.7</ele>
        <time>2024-03-27T13:31:18Z</time>
      </trkpt>
      <trkpt lat="43.47616" lon="6.17992">
        <ele>153.8</ele>
        <time>2024-03-27T13:31:19Z</time>
      </trkpt>
      <trkpt lat="43.47616" lon="6.17992">
        <ele>153.8</ele>
        <time>2024-03-27T13:31:20Z</time>
      </trkpt>
      <trkpt lat="43.47616" lon="6.17992">
        <ele>153.8</ele>
        <time>2024-03-27T13:31:21Z</time>
      </trkpt>
      <trkpt lat="43.47616" lon="6.17993">
        <ele>153.7</ele>
        <time>2024-03-27T13:31:22Z</time>
      </trkpt>
      <trkpt lat="43.47617" lon="6.17993">
        <ele>153.7</ele>
        <time>2024-03-27T13:31:23Z</time>
      </trkpt>
      <trkpt lat="43.47617" lon="6.17993">
        <ele>153.7</ele>
        <time>2024-03-27T13:31:24Z</time>
      </trkpt>
      <trkpt lat="43.47617" lon="6.17993">
        <ele>153.5</ele>
        <time>2024-03-27T13:31:25Z</time>
      </trkpt>
      <trkpt lat="43.47617" lon="6.17993">
        <ele>153.5</ele>
        <time>2024-03-27T13:31:26Z</time>
      </trkpt>
      <trkpt lat="43.47617" lon="6.17993">
        <ele>153.4</ele>
        <time>2024-03-27T13:31:27Z</time>
      </trkpt>
      <trkpt lat="43.47617" lon="6.17994">
        <ele>153.1</ele>
        <time>2024-03-27T13:31:28Z</time>
      </trkpt>
      <trkpt lat="43.47617" lon="6.17994">
        <ele>153</ele>
        <time>2024-03-27T13:31:29Z</time>
      </trkpt>
      <trkpt lat="43.47617" lon="6.17994">
        <ele>152.8</ele>
        <time>2024-03-27T13:31:30Z</time>
      </trkpt>
      <trkpt lat="43.47617" lon="6.17993">
        <ele>152.6</ele>
        <time>2024-03-27T13:31:31Z</time>
      </trkpt>
      <trkpt lat="43.47617" lon="6.17993">
        <ele>152.5</ele>
        <time>2024-03-27T13:31:32Z</time>
      </trkpt>
      <trkpt lat="43.47617" lon="6.17993">
        <ele>152.4</ele>
        <time>2024-03-27T13:31:33Z</time>
      </trkpt>
      <trkpt lat="43.47617" lon="6.17994">
        <ele>152.4</ele>
        <time>2024-03-27T13:31:34Z</time>
      </trkpt>
      <trkpt lat="43.47617" lon="6.17994">
        <ele>152.5</ele>
        <time>2024-03-27T13:31:35Z</time>
      </trkpt>
      <trkpt lat="43.47617" lon="6.17994">
        <ele>152.4</ele>
        <time>2024-03-27T13:31:36Z</time>
      </trkpt>
      <trkpt lat="43.47617" lon="6.17994">
        <ele>152.5</ele>
        <time>2024-03-27T13:31:37Z</time>
      </trkpt>
      <trkpt lat="43.47616" lon="6.17994">
        <ele>152.6</ele>
        <time>2024-03-27T13:31:38Z</time>
      </trkpt>
      <trkpt lat="43.47616" lon="6.17994">
        <ele>152.7</ele>
        <time>2024-03-27T13:31:39Z</time>
      </trkpt>
      <trkpt lat="43.47616" lon="6.17995">
        <ele>152.8</ele>
        <time>2024-03-27T13:31:40Z</time>
      </trkpt>
      <trkpt lat="43.47615" lon="6.17996">
        <ele>152.9</ele>
        <time>2024-03-27T13:31:41Z</time>
      </trkpt>
      <trkpt lat="43.47615" lon="6.17996">
        <ele>152.9</ele>
        <time>2024-03-27T13:31:42Z</time>
      </trkpt>
      <trkpt lat="43.47615" lon="6.17996">
        <ele>152.9</ele>
        <time>2024-03-27T13:31:43Z</time>
      </trkpt>
      <trkpt lat="43.47615" lon="6.17996">
        <ele>152.9</ele>
        <time>2024-03-27T13:31:44Z</time>
      </trkpt>
      <trkpt lat="43.47615" lon="6.17997">
        <ele>153.1</ele>
        <time>2024-03-27T13:31:45Z</time>
      </trkpt>
      <trkpt lat="43.47615" lon="6.17997">
        <ele>153.2</ele>
        <time>2024-03-27T13:31:46Z</time>
      </trkpt>
      <trkpt lat="43.47615" lon="6.17997">
        <ele>153</ele>
        <time>2024-03-27T13:31:47Z</time>
      </trkpt>
      <trkpt lat="43.47615" lon="6.17998">
        <ele>153.1</ele>
        <time>2024-03-27T13:31:48Z</time>
      </trkpt>
      <trkpt lat="43.47615" lon="6.17998">
        <ele>153</ele>
        <time>2024-03-27T13:31:49Z</time>
      </trkpt>
      <trkpt lat="43.47615" lon="6.17999">
        <ele>152.9</ele>
        <time>2024-03-27T13:31:50Z</time>
      </trkpt>
      <trkpt lat="43.47615" lon="6.17999">
        <ele>152.8</ele>
        <time>2024-03-27T13:31:51Z</time>
      </trkpt>
      <trkpt lat="43.47615" lon="6.17999">
        <ele>152.7</ele>
        <time>2024-03-27T13:31:52Z</time>
      </trkpt>
      <trkpt lat="43.47615" lon="6.17999">
        <ele>152.6</ele>
        <time>2024-03-27T13:31:53Z</time>
      </trkpt>
      <trkpt lat="43.47615" lon="6.17999">
        <ele>152.6</ele>
        <time>2024-03-27T13:31:54Z</time>
      </trkpt>
      <trkpt lat="43.47615" lon="6.17999">
        <ele>152.5</ele>
        <time>2024-03-27T13:31:55Z</time>
      </trkpt>
      <trkpt lat="43.47615" lon="6.17999">
        <ele>152.6</ele>
        <time>2024-03-27T13:31:56Z</time>
      </trkpt>
      <trkpt lat="43.47616" lon="6.17999">
        <ele>152.7</ele>
        <time>2024-03-27T13:31:57Z</time>
      </trkpt>
      <trkpt lat="43.47616" lon="6.17999">
        <ele>152.7</ele>
        <time>2024-03-27T13:31:58Z</time>
      </trkpt>
      <trkpt lat="43.47616" lon="6.17999">
        <ele>152.8</ele>
        <time>2024-03-27T13:31:59Z</time>
      </trkpt>
      <trkpt lat="43.47616" lon="6.17999">
        <ele>152.9</ele>
        <time>2024-03-27T13:32:00Z</time>
      </trkpt>
      <trkpt lat="43.47615" lon="6.17999">
        <ele>153</ele>
        <time>2024-03-27T13:32:01Z</time>
      </trkpt>
      <trkpt lat="43.47616" lon="6.17999">
        <ele>152.9</ele>
        <time>2024-03-27T13:32:02Z</time>
      </trkpt>
      <trkpt lat="43.47616" lon="6.17999">
        <ele>153.1</ele>
        <time>2024-03-27T13:32:03Z</time>
      </trkpt>
      <trkpt lat="43.47616" lon="6.17999">
        <ele>153.1</ele>
        <time>2024-03-27T13:32:04Z</time>
      </trkpt>
      <trkpt lat="43.47616" lon="6.17999">
        <ele>153.1</ele>
        <time>2024-03-27T13:32:05Z</time>
      </trkpt>
      <trkpt lat="43.47616" lon="6.17998">
        <ele>153.1</ele>
        <time>2024-03-27T13:32:06Z</time>
      </trkpt>
      <trkpt lat="43.47616" lon="6.17998">
        <ele>153.2</ele>
        <time>2024-03-27T13:32:07Z</time>
      </trkpt>
      <trkpt lat="43.47615" lon="6.17998">
        <ele>153.3</ele>
        <time>2024-03-27T13:32:08Z</time>
      </trkpt>
      <trkpt lat="43.47616" lon="6.17998">
        <ele>153.2</ele>
        <time>2024-03-27T13:32:09Z</time>
      </trkpt>
      <trkpt lat="43.47615" lon="6.17999">
        <ele>153.1</ele>
        <time>2024-03-27T13:32:10Z</time>
      </trkpt>
      <trkpt lat="43.47614" lon="6.17998">
        <ele>153.1</ele>
        <time>2024-03-27T13:32:11Z</time>
      </trkpt>
      <trkpt lat="43.47614" lon="6.17998">
        <ele>153.2</ele>
        <time>2024-03-27T13:32:12Z</time>
      </trkpt>
      <trkpt lat="43.47614" lon="6.17998">
        <ele>153.2</ele>
        <time>2024-03-27T13:32:13Z</time>
      </trkpt>
      <trkpt lat="43.47614" lon="6.17998">
        <ele>153.2</ele>
        <time>2024-03-27T13:32:14Z</time>
      </trkpt>
      <trkpt lat="43.47615" lon="6.17998">
        <ele>153.2</ele>
        <time>2024-03-27T13:32:15Z</time>
      </trkpt>
      <trkpt lat="43.47614" lon="6.17999">
        <ele>153.3</ele>
        <time>2024-03-27T13:32:16Z</time>
      </trkpt>
      <trkpt lat="43.47614" lon="6.17999">
        <ele>153.3</ele>
        <time>2024-03-27T13:32:17Z</time>
      </trkpt>
      <trkpt lat="43.47614" lon="6.17999">
        <ele>153.3</ele>
        <time>2024-03-27T13:32:18Z</time>
      </trkpt>
      <trkpt lat="43.47614" lon="6.17998">
        <ele>153.4</ele>
        <time>2024-03-27T13:32:19Z</time>
      </trkpt>
      <trkpt lat="43.47614" lon="6.17998">
        <ele>153.4</ele>
        <time>2024-03-27T13:32:20Z</time>
      </trkpt>
      <trkpt lat="43.47615" lon="6.17998">
        <ele>153.5</ele>
        <time>2024-03-27T13:32:21Z</time>
      </trkpt>
      <trkpt lat="43.47615" lon="6.17998">
        <ele>153.5</ele>
        <time>2024-03-27T13:32:22Z</time>
      </trkpt>
      <trkpt lat="43.47615" lon="6.17999">
        <ele>153.5</ele>
        <time>2024-03-27T13:32:23Z</time>
      </trkpt>
      <trkpt lat="43.47615" lon="6.17999">
        <ele>153.5</ele>
        <time>2024-03-27T13:32:24Z</time>
      </trkpt>
      <trkpt lat="43.47615" lon="6.17999">
        <ele>153.5</ele>
        <time>2024-03-27T13:32:25Z</time>
      </trkpt>
      <trkpt lat="43.47615" lon="6.17999">
        <ele>153.4</ele>
        <time>2024-03-27T13:32:26Z</time>
      </trkpt>
      <trkpt lat="43.47615" lon="6.17999">
        <ele>153.3</ele>
        <time>2024-03-27T13:32:27Z</time>
      </trkpt>
      <trkpt lat="43.47614" lon="6.17999">
        <ele>153.2</ele>
        <time>2024-03-27T13:32:28Z</time>
      </trkpt>
      <trkpt lat="43.47614" lon="6.17998">
        <ele>153.1</ele>
        <time>2024-03-27T13:32:29Z</time>
      </trkpt>
      <trkpt lat="43.47614" lon="6.17998">
        <ele>153</ele>
        <time>2024-03-27T13:32:30Z</time>
      </trkpt>
      <trkpt lat="43.47614" lon="6.17998">
        <ele>152.9</ele>
        <time>2024-03-27T13:32:31Z</time>
      </trkpt>
      <trkpt lat="43.47613" lon="6.17997">
        <ele>152.8</ele>
        <time>2024-03-27T13:32:32Z</time>
      </trkpt>
      <trkpt lat="43.47613" lon="6.17997">
        <ele>152.7</ele>
        <time>2024-03-27T13:32:33Z</time>
      </trkpt>
      <trkpt lat="43.47614" lon="6.17998">
        <ele>152.7</ele>
        <time>2024-03-27T13:32:34Z</time>
      </trkpt>
      <trkpt lat="43.47614" lon="6.17998">
        <ele>152.7</ele>
        <time>2024-03-27T13:32:35Z</time>
      </trkpt>
      <trkpt lat="43.47615" lon="6.17998">
        <ele>152.7</ele>
        <time>2024-03-27T13:32:36Z</time>
      </trkpt>
      <trkpt lat="43.47615" lon="6.17998">
        <ele>152.8</ele>
        <time>2024-03-27T13:32:37Z</time>
      </trkpt>
      <trkpt lat="43.47616" lon="6.17999">
        <ele>152.9</ele>
        <time>2024-03-27T13:32:38Z</time>
      </trkpt>
      <trkpt lat="43.47615" lon="6.17999">
        <ele>152.9</ele>
        <time>2024-03-27T13:32:39Z</time>
      </trkpt>
      <trkpt lat="43.47616" lon="6.17999">
        <ele>153</ele>
        <time>2024-03-27T13:32:40Z</time>
      </trkpt>
      <trkpt lat="43.47615" lon="6.17999">
        <ele>153</ele>
        <time>2024-03-27T13:32:41Z</time>
      </trkpt>
      <trkpt lat="43.47616" lon="6.18">
        <ele>153</ele>
        <time>2024-03-27T13:32:42Z</time>
      </trkpt>
      <trkpt lat="43.47616" lon="6.18001">
        <ele>153</ele>
        <time>2024-03-27T13:32:43Z</time>
      </trkpt>
      <trkpt lat="43.47616" lon="6.18001">
        <ele>153</ele>
        <time>2024-03-27T13:32:44Z</time>
      </trkpt>
      <trkpt lat="43.47616" lon="6.18001">
        <ele>152.9</ele>
        <time>2024-03-27T13:32:45Z</time>
      </trkpt>
      <trkpt lat="43.47616" lon="6.18001">
        <ele>152.8</ele>
        <time>2024-03-27T13:32:46Z</time>
      </trkpt>
      <trkpt lat="43.47616" lon="6.18001">
        <ele>152.8</ele>
        <time>2024-03-27T13:32:47Z</time>
      </trkpt>
      <trkpt lat="43.47616" lon="6.18001">
        <ele>152.7</ele>
        <time>2024-03-27T13:32:48Z</time>
      </trkpt>
      <trkpt lat="43.47616" lon="6.18001">
        <ele>152.8</ele>
        <time>2024-03-27T13:32:49Z</time>
      </trkpt>
      <trkpt lat="43.47616" lon="6.18001">
        <ele>152.9</ele>
        <time>2024-03-27T13:32:50Z</time>
      </trkpt>
      <trkpt lat="43.47616" lon="6.18001">
        <ele>153</ele>
        <time>2024-03-27T13:32:51Z</time>
      </trkpt>
      <trkpt lat="43.47616" lon="6.18001">
        <ele>153.1</ele>
        <time>2024-03-27T13:32:52Z</time>
      </trkpt>
      <trkpt lat="43.47617" lon="6.18002">
        <ele>153.1</ele>
        <time>2024-03-27T13:32:53Z</time>
      </trkpt>
      <trkpt lat="43.47618" lon="6.18002">
        <ele>153.1</ele>
        <time>2024-03-27T13:32:54Z</time>
      </trkpt>
      <trkpt lat="43.47618" lon="6.18002">
        <ele>153.1</ele>
        <time>2024-03-27T13:32:55Z</time>
      </trkpt>
      <trkpt lat="43.47617" lon="6.18003">
        <ele>153.1</ele>
        <time>2024-03-27T13:32:56Z</time>
      </trkpt>
      <trkpt lat="43.47617" lon="6.18002">
        <ele>153.2</ele>
        <time>2024-03-27T13:32:58Z</time>
      </trkpt>
      <trkpt lat="43.47617" lon="6.18003">
        <ele>153.3</ele>
        <time>2024-03-27T13:33:01Z</time>
      </trkpt>
      <trkpt lat="43.47617" lon="6.18004">
        <ele>153.1</ele>
        <time>2024-03-27T13:33:02Z</time>
      </trkpt>
      <trkpt lat="43.47616" lon="6.18004">
        <ele>153</ele>
        <time>2024-03-27T13:33:03Z</time>
      </trkpt>
      <trkpt lat="43.47616" lon="6.18004">
        <ele>152.9</ele>
        <time>2024-03-27T13:33:04Z</time>
      </trkpt>
      <trkpt lat="43.47616" lon="6.18004">
        <ele>153</ele>
        <time>2024-03-27T13:33:05Z</time>
      </trkpt>
      <trkpt lat="43.47616" lon="6.18004">
        <ele>153.1</ele>
        <time>2024-03-27T13:33:06Z</time>
      </trkpt>
      <trkpt lat="43.47616" lon="6.18004">
        <ele>153.2</ele>
        <time>2024-03-27T13:33:07Z</time>
      </trkpt>
      <trkpt lat="43.47615" lon="6.18003">
        <ele>153.2</ele>
        <time>2024-03-27T13:33:08Z</time>
      </trkpt>
      <trkpt lat="43.47615" lon="6.18002">
        <ele>153.2</ele>
        <time>2024-03-27T13:33:09Z</time>
      </trkpt>
      <trkpt lat="43.47615" lon="6.18003">
        <ele>153.3</ele>
        <time>2024-03-27T13:33:10Z</time>
      </trkpt>
      <trkpt lat="43.47615" lon="6.18003">
        <ele>153.3</ele>
        <time>2024-03-27T13:33:11Z</time>
      </trkpt>
      <trkpt lat="43.47615" lon="6.18003">
        <ele>153.3</ele>
        <time>2024-03-27T13:33:12Z</time>
      </trkpt>
      <trkpt lat="43.47615" lon="6.18004">
        <ele>153.2</ele>
        <time>2024-03-27T13:33:13Z</time>
      </trkpt>
      <trkpt lat="43.47615" lon="6.18004">
        <ele>153.1</ele>
        <time>2024-03-27T13:33:14Z</time>
      </trkpt>
      <trkpt lat="43.47615" lon="6.18004">
        <ele>153</ele>
        <time>2024-03-27T13:33:15Z</time>
      </trkpt>
      <trkpt lat="43.47616" lon="6.18004">
        <ele>153.2</ele>
        <time>2024-03-27T13:33:17Z</time>
      </trkpt>
      <trkpt lat="43.47616" lon="6.18004">
        <ele>153.3</ele>
        <time>2024-03-27T13:33:18Z</time>
      </trkpt>
      <trkpt lat="43.47616" lon="6.18003">
        <ele>153.3</ele>
        <time>2024-03-27T13:33:19Z</time>
      </trkpt>
      <trkpt lat="43.47616" lon="6.18003">
        <ele>153.5</ele>
        <time>2024-03-27T13:33:20Z</time>
      </trkpt>
      <trkpt lat="43.47615" lon="6.18003">
        <ele>153.5</ele>
        <time>2024-03-27T13:33:21Z</time>
      </trkpt>
      <trkpt lat="43.47615" lon="6.18004">
        <ele>153.6</ele>
        <time>2024-03-27T13:33:22Z</time>
      </trkpt>
      <trkpt lat="43.47615" lon="6.18004">
        <ele>153.5</ele>
        <time>2024-03-27T13:33:23Z</time>
      </trkpt>
      <trkpt lat="43.47614" lon="6.18005">
        <ele>153.5</ele>
        <time>2024-03-27T13:33:24Z</time>
      </trkpt>
      <trkpt lat="43.47615" lon="6.18006">
        <ele>153.7</ele>
        <time>2024-03-27T13:33:25Z</time>
      </trkpt>
      <trkpt lat="43.47614" lon="6.18007">
        <ele>153.9</ele>
        <time>2024-03-27T13:33:26Z</time>
      </trkpt>
      <trkpt lat="43.47614" lon="6.18008">
        <ele>154.1</ele>
        <time>2024-03-27T13:33:27Z</time>
      </trkpt>
      <trkpt lat="43.47614" lon="6.18009">
        <ele>154.4</ele>
        <time>2024-03-27T13:33:28Z</time>
      </trkpt>
      <trkpt lat="43.47613" lon="6.18009">
        <ele>154.6</ele>
        <time>2024-03-27T13:33:29Z</time>
      </trkpt>
      <trkpt lat="43.47613" lon="6.18009">
        <ele>154.8</ele>
        <time>2024-03-27T13:33:30Z</time>
      </trkpt>
      <trkpt lat="43.47613" lon="6.1801">
        <ele>154.9</ele>
        <time>2024-03-27T13:33:31Z</time>
      </trkpt>
      <trkpt lat="43.47613" lon="6.18011">
        <ele>155.1</ele>
        <time>2024-03-27T13:33:32Z</time>
      </trkpt>
      <trkpt lat="43.47613" lon="6.18011">
        <ele>155.2</ele>
        <time>2024-03-27T13:33:33Z</time>
      </trkpt>
      <trkpt lat="43.47613" lon="6.18012">
        <ele>155.4</ele>
        <time>2024-03-27T13:33:34Z</time>
      </trkpt>
      <trkpt lat="43.47612" lon="6.18012">
        <ele>155.4</ele>
        <time>2024-03-27T13:33:35Z</time>
      </trkpt>
      <trkpt lat="43.47611" lon="6.18012">
        <ele>155.4</ele>
        <time>2024-03-27T13:33:36Z</time>
      </trkpt>
      <trkpt lat="43.47611" lon="6.18012">
        <ele>155.6</ele>
        <time>2024-03-27T13:33:37Z</time>
      </trkpt>
      <trkpt lat="43.4761" lon="6.18011">
        <ele>155.7</ele>
        <time>2024-03-27T13:33:38Z</time>
      </trkpt>
      <trkpt lat="43.47609" lon="6.18011">
        <ele>156</ele>
        <time>2024-03-27T13:33:39Z</time>
      </trkpt>
      <trkpt lat="43.47609" lon="6.1801">
        <ele>156.3</ele>
        <time>2024-03-27T13:33:40Z</time>
      </trkpt>
      <trkpt lat="43.47608" lon="6.18009">
        <ele>156.3</ele>
        <time>2024-03-27T13:33:41Z</time>
      </trkpt>
      <trkpt lat="43.47608" lon="6.18009">
        <ele>156.3</ele>
        <time>2024-03-27T13:33:42Z</time>
      </trkpt>
      <trkpt lat="43.47608" lon="6.18009">
        <ele>156.4</ele>
        <time>2024-03-27T13:33:43Z</time>
      </trkpt>
      <trkpt lat="43.47608" lon="6.18009">
        <ele>156.6</ele>
        <time>2024-03-27T13:33:44Z</time>
      </trkpt>
      <trkpt lat="43.47608" lon="6.1801">
        <ele>156.9</ele>
        <time>2024-03-27T13:33:45Z</time>
      </trkpt>
      <trkpt lat="43.47608" lon="6.1801">
        <ele>157.1</ele>
        <time>2024-03-27T13:33:46Z</time>
      </trkpt>
      <trkpt lat="43.47608" lon="6.18011">
        <ele>157.4</ele>
        <time>2024-03-27T13:33:47Z</time>
      </trkpt>
      <trkpt lat="43.47607" lon="6.18011">
        <ele>157.6</ele>
        <time>2024-03-27T13:33:48Z</time>
      </trkpt>
      <trkpt lat="43.47607" lon="6.18012">
        <ele>157.9</ele>
        <time>2024-03-27T13:33:49Z</time>
      </trkpt>
      <trkpt lat="43.47606" lon="6.18012">
        <ele>158.2</ele>
        <time>2024-03-27T13:33:50Z</time>
      </trkpt>
      <trkpt lat="43.47611" lon="6.18017">
        <ele>158.4</ele>
        <time>2024-03-27T13:33:51Z</time>
      </trkpt>
      <trkpt lat="43.47611" lon="6.18018">
        <ele>158.6</ele>
        <time>2024-03-27T13:33:52Z</time>
      </trkpt>
      <trkpt lat="43.47611" lon="6.18018">
        <ele>158.9</ele>
        <time>2024-03-27T13:33:53Z</time>
      </trkpt>
      <trkpt lat="43.47611" lon="6.18018">
        <ele>159</ele>
        <time>2024-03-27T13:33:54Z</time>
      </trkpt>
      <trkpt lat="43.47611" lon="6.18018">
        <ele>159.2</ele>
        <time>2024-03-27T13:33:55Z</time>
      </trkpt>
      <trkpt lat="43.4761" lon="6.18019">
        <ele>159.3</ele>
        <time>2024-03-27T13:33:56Z</time>
      </trkpt>
      <trkpt lat="43.4761" lon="6.18019">
        <ele>159.4</ele>
        <time>2024-03-27T13:33:57Z</time>
      </trkpt>
      <trkpt lat="43.47608" lon="6.1802">
        <ele>159.6</ele>
        <time>2024-03-27T13:33:58Z</time>
      </trkpt>
      <trkpt lat="43.47609" lon="6.18021">
        <ele>159.7</ele>
        <time>2024-03-27T13:33:59Z</time>
      </trkpt>
      <trkpt lat="43.47609" lon="6.18022">
        <ele>159.9</ele>
        <time>2024-03-27T13:34:00Z</time>
      </trkpt>
      <trkpt lat="43.47609" lon="6.18024">
        <ele>160</ele>
        <time>2024-03-27T13:34:01Z</time>
      </trkpt>
      <trkpt lat="43.47608" lon="6.18024">
        <ele>160.2</ele>
        <time>2024-03-27T13:34:02Z</time>
      </trkpt>
      <trkpt lat="43.47608" lon="6.18024">
        <ele>160.4</ele>
        <time>2024-03-27T13:34:03Z</time>
      </trkpt>
      <trkpt lat="43.47608" lon="6.18026">
        <ele>160.5</ele>
        <time>2024-03-27T13:34:04Z</time>
      </trkpt>
      <trkpt lat="43.47607" lon="6.18027">
        <ele>160.6</ele>
        <time>2024-03-27T13:34:05Z</time>
      </trkpt>
      <trkpt lat="43.47607" lon="6.18027">
        <ele>160.7</ele>
        <time>2024-03-27T13:34:06Z</time>
      </trkpt>
      <trkpt lat="43.47607" lon="6.18028">
        <ele>160.8</ele>
        <time>2024-03-27T13:34:07Z</time>
      </trkpt>
      <trkpt lat="43.47607" lon="6.1803">
        <ele>160.9</ele>
        <time>2024-03-27T13:34:08Z</time>
      </trkpt>
      <trkpt lat="43.47608" lon="6.1803">
        <ele>161.2</ele>
        <time>2024-03-27T13:34:09Z</time>
      </trkpt>
      <trkpt lat="43.47608" lon="6.18031">
        <ele>161.3</ele>
        <time>2024-03-27T13:34:10Z</time>
      </trkpt>
      <trkpt lat="43.47609" lon="6.18032">
        <ele>161.5</ele>
        <time>2024-03-27T13:34:11Z</time>
      </trkpt>
      <trkpt lat="43.47609" lon="6.18032">
        <ele>161.6</ele>
        <time>2024-03-27T13:34:12Z</time>
      </trkpt>
      <trkpt lat="43.47609" lon="6.18032">
        <ele>161.7</ele>
        <time>2024-03-27T13:34:13Z</time>
      </trkpt>
      <trkpt lat="43.47609" lon="6.18033">
        <ele>161.7</ele>
        <time>2024-03-27T13:34:14Z</time>
      </trkpt>
      <trkpt lat="43.47609" lon="6.18032">
        <ele>161.6</ele>
        <time>2024-03-27T13:34:15Z</time>
      </trkpt>
      <trkpt lat="43.47608" lon="6.18032">
        <ele>161.7</ele>
        <time>2024-03-27T13:34:16Z</time>
      </trkpt>
      <trkpt lat="43.47608" lon="6.18032">
        <ele>161.7</ele>
        <time>2024-03-27T13:34:17Z</time>
      </trkpt>
      <trkpt lat="43.47608" lon="6.18031">
        <ele>161.6</ele>
        <time>2024-03-27T13:34:18Z</time>
      </trkpt>
      <trkpt lat="43.47608" lon="6.18031">
        <ele>161.6</ele>
        <time>2024-03-27T13:34:19Z</time>
      </trkpt>
      <trkpt lat="43.47609" lon="6.18031">
        <ele>161.8</ele>
        <time>2024-03-27T13:34:20Z</time>
      </trkpt>
      <trkpt lat="43.47609" lon="6.18031">
        <ele>161.8</ele>
        <time>2024-03-27T13:34:21Z</time>
      </trkpt>
      <trkpt lat="43.4761" lon="6.1803">
        <ele>161.8</ele>
        <time>2024-03-27T13:34:22Z</time>
      </trkpt>
      <trkpt lat="43.4761" lon="6.18031">
        <ele>161.7</ele>
        <time>2024-03-27T13:34:23Z</time>
      </trkpt>
      <trkpt lat="43.4761" lon="6.18032">
        <ele>161.8</ele>
        <time>2024-03-27T13:34:24Z</time>
      </trkpt>
      <trkpt lat="43.4761" lon="6.18036">
        <ele>161.9</ele>
        <time>2024-03-27T13:34:25Z</time>
      </trkpt>
      <trkpt lat="43.47608" lon="6.18041">
        <ele>162</ele>
        <time>2024-03-27T13:34:26Z</time>
      </trkpt>
      <trkpt lat="43.47608" lon="6.18045">
        <ele>162.3</ele>
        <time>2024-03-27T13:34:27Z</time>
      </trkpt>
      <trkpt lat="43.47609" lon="6.18061">
        <ele>162.4</ele>
        <time>2024-03-27T13:34:33Z</time>
      </trkpt>
      <trkpt lat="43.4761" lon="6.18056">
        <ele>162.7</ele>
        <time>2024-03-27T13:34:34Z</time>
      </trkpt>
      <trkpt lat="43.47611" lon="6.18055">
        <ele>163</ele>
        <time>2024-03-27T13:34:35Z</time>
      </trkpt>
      <trkpt lat="43.47614" lon="6.18054">
        <ele>163.3</ele>
        <time>2024-03-27T13:34:36Z</time>
      </trkpt>
      <trkpt lat="43.47614" lon="6.18054">
        <ele>163.6</ele>
        <time>2024-03-27T13:34:37Z</time>
      </trkpt>
      <trkpt lat="43.47615" lon="6.18054">
        <ele>163.8</ele>
        <time>2024-03-27T13:34:38Z</time>
      </trkpt>
      <trkpt lat="43.47615" lon="6.18055">
        <ele>163.9</ele>
        <time>2024-03-27T13:34:39Z</time>
      </trkpt>
      <trkpt lat="43.47618" lon="6.18055">
        <ele>164.1</ele>
        <time>2024-03-27T13:34:40Z</time>
      </trkpt>
      <trkpt lat="43.47618" lon="6.18056">
        <ele>164.2</ele>
        <time>2024-03-27T13:34:41Z</time>
      </trkpt>
      <trkpt lat="43.47616" lon="6.18056">
        <ele>164.3</ele>
        <time>2024-03-27T13:34:42Z</time>
      </trkpt>
      <trkpt lat="43.47616" lon="6.18056">
        <ele>164.3</ele>
        <time>2024-03-27T13:34:43Z</time>
      </trkpt>
      <trkpt lat="43.47617" lon="6.18055">
        <ele>164.3</ele>
        <time>2024-03-27T13:34:44Z</time>
      </trkpt>
      <trkpt lat="43.47616" lon="6.18055">
        <ele>164.3</ele>
        <time>2024-03-27T13:34:45Z</time>
      </trkpt>
      <trkpt lat="43.47615" lon="6.18056">
        <ele>164.3</ele>
        <time>2024-03-27T13:34:46Z</time>
      </trkpt>
      <trkpt lat="43.47616" lon="6.18057">
        <ele>164.3</ele>
        <time>2024-03-27T13:34:47Z</time>
      </trkpt>
      <trkpt lat="43.47615" lon="6.18058">
        <ele>164.2</ele>
        <time>2024-03-27T13:34:48Z</time>
      </trkpt>
      <trkpt lat="43.47614" lon="6.18059">
        <ele>164.2</ele>
        <time>2024-03-27T13:34:49Z</time>
      </trkpt>
      <trkpt lat="43.47611" lon="6.18059">
        <ele>164.2</ele>
        <time>2024-03-27T13:34:50Z</time>
      </trkpt>
      <trkpt lat="43.4761" lon="6.18059">
        <ele>164.2</ele>
        <time>2024-03-27T13:34:51Z</time>
      </trkpt>
      <trkpt lat="43.4761" lon="6.1806">
        <ele>164.3</ele>
        <time>2024-03-27T13:34:52Z</time>
      </trkpt>
      <trkpt lat="43.4761" lon="6.1806">
        <ele>164.3</ele>
        <time>2024-03-27T13:34:53Z</time>
      </trkpt>
      <trkpt lat="43.47611" lon="6.18061">
        <ele>164.4</ele>
        <time>2024-03-27T13:34:54Z</time>
      </trkpt>
      <trkpt lat="43.47611" lon="6.18061">
        <ele>164.4</ele>
        <time>2024-03-27T13:34:55Z</time>
      </trkpt>
      <trkpt lat="43.4761" lon="6.18061">
        <ele>164.4</ele>
        <time>2024-03-27T13:34:56Z</time>
      </trkpt>
      <trkpt lat="43.4761" lon="6.18061">
        <ele>164.4</ele>
        <time>2024-03-27T13:34:57Z</time>
      </trkpt>
      <trkpt lat="43.47609" lon="6.18061">
        <ele>164.4</ele>
        <time>2024-03-27T13:34:58Z</time>
      </trkpt>
      <trkpt lat="43.47609" lon="6.18061">
        <ele>164.4</ele>
        <time>2024-03-27T13:34:59Z</time>
      </trkpt>
      <trkpt lat="43.47609" lon="6.1806">
        <ele>164.3</ele>
        <time>2024-03-27T13:35:00Z</time>
      </trkpt>
      <trkpt lat="43.47609" lon="6.18059">
        <ele>164.3</ele>
        <time>2024-03-27T13:35:01Z</time>
      </trkpt>
      <trkpt lat="43.47609" lon="6.18059">
        <ele>164.2</ele>
        <time>2024-03-27T13:35:02Z</time>
      </trkpt>
      <trkpt lat="43.47609" lon="6.18058">
        <ele>164.2</ele>
        <time>2024-03-27T13:35:03Z</time>
      </trkpt>
      <trkpt lat="43.47609" lon="6.18059">
        <ele>164.3</ele>
        <time>2024-03-27T13:35:04Z</time>
      </trkpt>
      <trkpt lat="43.47609" lon="6.18059">
        <ele>164.4</ele>
        <time>2024-03-27T13:35:05Z</time>
      </trkpt>
      <trkpt lat="43.47609" lon="6.18058">
        <ele>164.5</ele>
        <time>2024-03-27T13:35:06Z</time>
      </trkpt>
      <trkpt lat="43.4761" lon="6.18058">
        <ele>164.5</ele>
        <time>2024-03-27T13:35:07Z</time>
      </trkpt>
      <trkpt lat="43.4761" lon="6.18058">
        <ele>164.6</ele>
        <time>2024-03-27T13:35:08Z</time>
      </trkpt>
      <trkpt lat="43.4761" lon="6.18058">
        <ele>164.6</ele>
        <time>2024-03-27T13:35:09Z</time>
      </trkpt>
      <trkpt lat="43.4761" lon="6.18058">
        <ele>164.6</ele>
        <time>2024-03-27T13:35:10Z</time>
      </trkpt>
      <trkpt lat="43.4761" lon="6.18059">
        <ele>164.6</ele>
        <time>2024-03-27T13:35:11Z</time>
      </trkpt>
      <trkpt lat="43.47609" lon="6.18058">
        <ele>164.6</ele>
        <time>2024-03-27T13:35:12Z</time>
      </trkpt>
      <trkpt lat="43.47609" lon="6.18059">
        <ele>164.5</ele>
        <time>2024-03-27T13:35:13Z</time>
      </trkpt>
      <trkpt lat="43.47608" lon="6.1806">
        <ele>164.4</ele>
        <time>2024-03-27T13:35:14Z</time>
      </trkpt>
      <trkpt lat="43.47608" lon="6.1806">
        <ele>164.4</ele>
        <time>2024-03-27T13:35:15Z</time>
      </trkpt>
      <trkpt lat="43.47608" lon="6.18061">
        <ele>164.5</ele>
        <time>2024-03-27T13:35:16Z</time>
      </trkpt>
      <trkpt lat="43.47608" lon="6.18062">
        <ele>164.5</ele>
        <time>2024-03-27T13:35:17Z</time>
      </trkpt>
      <trkpt lat="43.47607" lon="6.18063">
        <ele>164.5</ele>
        <time>2024-03-27T13:35:18Z</time>
      </trkpt>
      <trkpt lat="43.47607" lon="6.18064">
        <ele>164.5</ele>
        <time>2024-03-27T13:35:19Z</time>
      </trkpt>
      <trkpt lat="43.47607" lon="6.18065">
        <ele>164.5</ele>
        <time>2024-03-27T13:35:20Z</time>
      </trkpt>
      <trkpt lat="43.47607" lon="6.18065">
        <ele>164.6</ele>
        <time>2024-03-27T13:35:21Z</time>
      </trkpt>
      <trkpt lat="43.47607" lon="6.18066">
        <ele>164.6</ele>
        <time>2024-03-27T13:35:22Z</time>
      </trkpt>
      <trkpt lat="43.47607" lon="6.18066">
        <ele>164.7</ele>
        <time>2024-03-27T13:35:23Z</time>
      </trkpt>
      <trkpt lat="43.47608" lon="6.18067">
        <ele>164.7</ele>
        <time>2024-03-27T13:35:24Z</time>
      </trkpt>
      <trkpt lat="43.47607" lon="6.18067">
        <ele>164.8</ele>
        <time>2024-03-27T13:35:25Z</time>
      </trkpt>
      <trkpt lat="43.47608" lon="6.18067">
        <ele>164.8</ele>
        <time>2024-03-27T13:35:26Z</time>
      </trkpt>
      <trkpt lat="43.47608" lon="6.18067">
        <ele>164.9</ele>
        <time>2024-03-27T13:35:27Z</time>
      </trkpt>
      <trkpt lat="43.47608" lon="6.18067">
        <ele>164.9</ele>
        <time>2024-03-27T13:35:28Z</time>
      </trkpt>
      <trkpt lat="43.47608" lon="6.18067">
        <ele>165</ele>
        <time>2024-03-27T13:35:29Z</time>
      </trkpt>
      <trkpt lat="43.47608" lon="6.18067">
        <ele>165</ele>
        <time>2024-03-27T13:35:30Z</time>
      </trkpt>
      <trkpt lat="43.47608" lon="6.18067">
        <ele>165</ele>
        <time>2024-03-27T13:35:31Z</time>
      </trkpt>
      <trkpt lat="43.47609" lon="6.18067">
        <ele>165</ele>
        <time>2024-03-27T13:35:32Z</time>
      </trkpt>
      <trkpt lat="43.47609" lon="6.18068">
        <ele>165</ele>
        <time>2024-03-27T13:35:33Z</time>
      </trkpt>
      <trkpt lat="43.4761" lon="6.18069">
        <ele>165.1</ele>
        <time>2024-03-27T13:35:34Z</time>
      </trkpt>
      <trkpt lat="43.4761" lon="6.18069">
        <ele>165.1</ele>
        <time>2024-03-27T13:35:35Z</time>
      </trkpt>
      <trkpt lat="43.4761" lon="6.1807">
        <ele>165.2</ele>
        <time>2024-03-27T13:35:36Z</time>
      </trkpt>
      <trkpt lat="43.4761" lon="6.1807">
        <ele>165.3</ele>
        <time>2024-03-27T13:35:37Z</time>
      </trkpt>
      <trkpt lat="43.4761" lon="6.18071">
        <ele>165.2</ele>
        <time>2024-03-27T13:35:38Z</time>
      </trkpt>
      <trkpt lat="43.47611" lon="6.18072">
        <ele>165.1</ele>
        <time>2024-03-27T13:35:39Z</time>
      </trkpt>
      <trkpt lat="43.47611" lon="6.18073">
        <ele>165</ele>
        <time>2024-03-27T13:35:40Z</time>
      </trkpt>
      <trkpt lat="43.47612" lon="6.18073">
        <ele>164.9</ele>
        <time>2024-03-27T13:35:41Z</time>
      </trkpt>
      <trkpt lat="43.47613" lon="6.18073">
        <ele>164.9</ele>
        <time>2024-03-27T13:35:42Z</time>
      </trkpt>
      <trkpt lat="43.47613" lon="6.18073">
        <ele>164.8</ele>
        <time>2024-03-27T13:35:43Z</time>
      </trkpt>
      <trkpt lat="43.47613" lon="6.18073">
        <ele>164.9</ele>
        <time>2024-03-27T13:35:44Z</time>
      </trkpt>
      <trkpt lat="43.47613" lon="6.18075">
        <ele>165</ele>
        <time>2024-03-27T13:35:45Z</time>
      </trkpt>
      <trkpt lat="43.47613" lon="6.18076">
        <ele>165.1</ele>
        <time>2024-03-27T13:35:46Z</time>
      </trkpt>
      <trkpt lat="43.47613" lon="6.18076">
        <ele>165.1</ele>
        <time>2024-03-27T13:35:47Z</time>
      </trkpt>
      <trkpt lat="43.47613" lon="6.18077">
        <ele>165.2</ele>
        <time>2024-03-27T13:35:48Z</time>
      </trkpt>
      <trkpt lat="43.47613" lon="6.18078">
        <ele>165.2</ele>
        <time>2024-03-27T13:35:49Z</time>
      </trkpt>
      <trkpt lat="43.47613" lon="6.18079">
        <ele>165.2</ele>
        <time>2024-03-27T13:35:50Z</time>
      </trkpt>
      <trkpt lat="43.47613" lon="6.18079">
        <ele>165.2</ele>
        <time>2024-03-27T13:35:51Z</time>
      </trkpt>
      <trkpt lat="43.47613" lon="6.18079">
        <ele>165.2</ele>
        <time>2024-03-27T13:35:52Z</time>
      </trkpt>
      <trkpt lat="43.47613" lon="6.1808">
        <ele>165.2</ele>
        <time>2024-03-27T13:35:53Z</time>
      </trkpt>
      <trkpt lat="43.47614" lon="6.18081">
        <ele>165.2</ele>
        <time>2024-03-27T13:35:54Z</time>
      </trkpt>
      <trkpt lat="43.47614" lon="6.18081">
        <ele>165.1</ele>
        <time>2024-03-27T13:35:55Z</time>
      </trkpt>
      <trkpt lat="43.47614" lon="6.18082">
        <ele>165</ele>
        <time>2024-03-27T13:35:56Z</time>
      </trkpt>
      <trkpt lat="43.47613" lon="6.18081">
        <ele>165</ele>
        <time>2024-03-27T13:35:57Z</time>
      </trkpt>
      <trkpt lat="43.47614" lon="6.1808">
        <ele>164.9</ele>
        <time>2024-03-27T13:35:58Z</time>
      </trkpt>
      <trkpt lat="43.47613" lon="6.1808">
        <ele>164.9</ele>
        <time>2024-03-27T13:35:59Z</time>
      </trkpt>
      <trkpt lat="43.47614" lon="6.18079">
        <ele>164.9</ele>
        <time>2024-03-27T13:36:00Z</time>
      </trkpt>
      <trkpt lat="43.47614" lon="6.18078">
        <ele>165</ele>
        <time>2024-03-27T13:36:01Z</time>
      </trkpt>
      <trkpt lat="43.47614" lon="6.18077">
        <ele>165.1</ele>
        <time>2024-03-27T13:36:02Z</time>
      </trkpt>
      <trkpt lat="43.47614" lon="6.18076">
        <ele>165.1</ele>
        <time>2024-03-27T13:36:03Z</time>
      </trkpt>
      <trkpt lat="43.47614" lon="6.18075">
        <ele>165</ele>
        <time>2024-03-27T13:36:04Z</time>
      </trkpt>
      <trkpt lat="43.47614" lon="6.18074">
        <ele>164.9</ele>
        <time>2024-03-27T13:36:05Z</time>
      </trkpt>
      <trkpt lat="43.47614" lon="6.18074">
        <ele>164.8</ele>
        <time>2024-03-27T13:36:06Z</time>
      </trkpt>
      <trkpt lat="43.47614" lon="6.18073">
        <ele>164.9</ele>
        <time>2024-03-27T13:36:07Z</time>
      </trkpt>
      <trkpt lat="43.47614" lon="6.18073">
        <ele>164.9</ele>
        <time>2024-03-27T13:36:08Z</time>
      </trkpt>
      <trkpt lat="43.47614" lon="6.18072">
        <ele>165</ele>
        <time>2024-03-27T13:36:09Z</time>
      </trkpt>
      <trkpt lat="43.47613" lon="6.18072">
        <ele>164.9</ele>
        <time>2024-03-27T13:36:10Z</time>
      </trkpt>
      <trkpt lat="43.47614" lon="6.18071">
        <ele>164.8</ele>
        <time>2024-03-27T13:36:11Z</time>
      </trkpt>
      <trkpt lat="43.47614" lon="6.18071">
        <ele>164.9</ele>
        <time>2024-03-27T13:36:12Z</time>
      </trkpt>
      <trkpt lat="43.47614" lon="6.1807">
        <ele>164.9</ele>
        <time>2024-03-27T13:36:13Z</time>
      </trkpt>
      <trkpt lat="43.47614" lon="6.18069">
        <ele>164.9</ele>
        <time>2024-03-27T13:36:14Z</time>
      </trkpt>
      <trkpt lat="43.47614" lon="6.18069">
        <ele>164.9</ele>
        <time>2024-03-27T13:36:15Z</time>
      </trkpt>
      <trkpt lat="43.47614" lon="6.18068">
        <ele>164.9</ele>
        <time>2024-03-27T13:36:16Z</time>
      </trkpt>
      <trkpt lat="43.47614" lon="6.18067">
        <ele>165</ele>
        <time>2024-03-27T13:36:17Z</time>
      </trkpt>
      <trkpt lat="43.47614" lon="6.18066">
        <ele>165.1</ele>
        <time>2024-03-27T13:36:18Z</time>
      </trkpt>
      <trkpt lat="43.47614" lon="6.18066">
        <ele>165.2</ele>
        <time>2024-03-27T13:36:19Z</time>
      </trkpt>
      <trkpt lat="43.47614" lon="6.18066">
        <ele>165.2</ele>
        <time>2024-03-27T13:36:20Z</time>
      </trkpt>
      <trkpt lat="43.47613" lon="6.18066">
        <ele>165.2</ele>
        <time>2024-03-27T13:36:21Z</time>
      </trkpt>
      <trkpt lat="43.47613" lon="6.18066">
        <ele>165.2</ele>
        <time>2024-03-27T13:36:22Z</time>
      </trkpt>
      <trkpt lat="43.47613" lon="6.18066">
        <ele>165.2</ele>
        <time>2024-03-27T13:36:23Z</time>
      </trkpt>
      <trkpt lat="43.47613" lon="6.18067">
        <ele>165.2</ele>
        <time>2024-03-27T13:36:24Z</time>
      </trkpt>
      <trkpt lat="43.47613" lon="6.18066">
        <ele>165.2</ele>
        <time>2024-03-27T13:36:25Z</time>
      </trkpt>
      <trkpt lat="43.47613" lon="6.18066">
        <ele>165.2</ele>
        <time>2024-03-27T13:36:26Z</time>
      </trkpt>
      <trkpt lat="43.47613" lon="6.18066">
        <ele>165.2</ele>
        <time>2024-03-27T13:36:27Z</time>
      </trkpt>
      <trkpt lat="43.47613" lon="6.18066">
        <ele>165.2</ele>
        <time>2024-03-27T13:36:28Z</time>
      </trkpt>
      <trkpt lat="43.47613" lon="6.18065">
        <ele>165.2</ele>
        <time>2024-03-27T13:36:29Z</time>
      </trkpt>
      <trkpt lat="43.47613" lon="6.18065">
        <ele>165.1</ele>
        <time>2024-03-27T13:36:30Z</time>
      </trkpt>
      <trkpt lat="43.47614" lon="6.18065">
        <ele>165.1</ele>
        <time>2024-03-27T13:36:31Z</time>
      </trkpt>
      <trkpt lat="43.47614" lon="6.18065">
        <ele>165</ele>
        <time>2024-03-27T13:36:32Z</time>
      </trkpt>
      <trkpt lat="43.47614" lon="6.18065">
        <ele>164.9</ele>
        <time>2024-03-27T13:36:33Z</time>
      </trkpt>
      <trkpt lat="43.47613" lon="6.18065">
        <ele>164.8</ele>
        <time>2024-03-27T13:36:34Z</time>
      </trkpt>
      <trkpt lat="43.47614" lon="6.18065">
        <ele>164.8</ele>
        <time>2024-03-27T13:36:35Z</time>
      </trkpt>
      <trkpt lat="43.47613" lon="6.18064">
        <ele>164.6</ele>
        <time>2024-03-27T13:36:36Z</time>
      </trkpt>
      <trkpt lat="43.47613" lon="6.18064">
        <ele>164.6</ele>
        <time>2024-03-27T13:36:37Z</time>
      </trkpt>
      <trkpt lat="43.47613" lon="6.18064">
        <ele>164.6</ele>
        <time>2024-03-27T13:36:38Z</time>
      </trkpt>
      <trkpt lat="43.47613" lon="6.18063">
        <ele>164.5</ele>
        <time>2024-03-27T13:36:39Z</time>
      </trkpt>
      <trkpt lat="43.47613" lon="6.18063">
        <ele>164.5</ele>
        <time>2024-03-27T13:36:40Z</time>
      </trkpt>
      <trkpt lat="43.47613" lon="6.18063">
        <ele>164.4</ele>
        <time>2024-03-27T13:36:41Z</time>
      </trkpt>
      <trkpt lat="43.47613" lon="6.18064">
        <ele>164.5</ele>
        <time>2024-03-27T13:36:42Z</time>
      </trkpt>
      <trkpt lat="43.47613" lon="6.18064">
        <ele>164.5</ele>
        <time>2024-03-27T13:36:43Z</time>
      </trkpt>
      <trkpt lat="43.47613" lon="6.18064">
        <ele>164.6</ele>
        <time>2024-03-27T13:36:44Z</time>
      </trkpt>
      <trkpt lat="43.47613" lon="6.18063">
        <ele>164.7</ele>
        <time>2024-03-27T13:36:45Z</time>
      </trkpt>
      <trkpt lat="43.47613" lon="6.18064">
        <ele>164.8</ele>
        <time>2024-03-27T13:36:46Z</time>
      </trkpt>
      <trkpt lat="43.47613" lon="6.18064">
        <ele>164.8</ele>
        <time>2024-03-27T13:36:47Z</time>
      </trkpt>
      <trkpt lat="43.47613" lon="6.18064">
        <ele>164.8</ele>
        <time>2024-03-27T13:36:48Z</time>
      </trkpt>
      <trkpt lat="43.47613" lon="6.18064">
        <ele>164.8</ele>
        <time>2024-03-27T13:36:49Z</time>
      </trkpt>
      <trkpt lat="43.47613" lon="6.18064">
        <ele>164.9</ele>
        <time>2024-03-27T13:36:50Z</time>
      </trkpt>
      <trkpt lat="43.47613" lon="6.18064">
        <ele>164.9</ele>
        <time>2024-03-27T13:36:51Z</time>
      </trkpt>
      <trkpt lat="43.47613" lon="6.18064">
        <ele>164.9</ele>
        <time>2024-03-27T13:36:52Z</time>
      </trkpt>
      <trkpt lat="43.47613" lon="6.18064">
        <ele>165</ele>
        <time>2024-03-27T13:36:53Z</time>
      </trkpt>
      <trkpt lat="43.47613" lon="6.18064">
        <ele>165</ele>
        <time>2024-03-27T13:36:54Z</time>
      </trkpt>
      <trkpt lat="43.47613" lon="6.18064">
        <ele>165</ele>
        <time>2024-03-27T13:36:55Z</time>
      </trkpt>
      <trkpt lat="43.47613" lon="6.18064">
        <ele>165</ele>
        <time>2024-03-27T13:36:56Z</time>
      </trkpt>
      <trkpt lat="43.47613" lon="6.18064">
        <ele>164.9</ele>
        <time>2024-03-27T13:36:57Z</time>
      </trkpt>
      <trkpt lat="43.47613" lon="6.18064">
        <ele>164.9</ele>
        <time>2024-03-27T13:36:58Z</time>
      </trkpt>
      <trkpt lat="43.47613" lon="6.18064">
        <ele>164.8</ele>
        <time>2024-03-27T13:36:59Z</time>
      </trkpt>
      <trkpt lat="43.47613" lon="6.18064">
        <ele>164.8</ele>
        <time>2024-03-27T13:37:00Z</time>
      </trkpt>
      <trkpt lat="43.47613" lon="6.18065">
        <ele>164.8</ele>
        <time>2024-03-27T13:37:01Z</time>
      </trkpt>
      <trkpt lat="43.47613" lon="6.18067">
        <ele>164.9</ele>
        <time>2024-03-27T13:37:02Z</time>
      </trkpt>
      <trkpt lat="43.47614" lon="6.18067">
        <ele>164.9</ele>
        <time>2024-03-27T13:37:03Z</time>
      </trkpt>
      <trkpt lat="43.47614" lon="6.18068">
        <ele>165.1</ele>
        <time>2024-03-27T13:37:04Z</time>
      </trkpt>
      <trkpt lat="43.47614" lon="6.18069">
        <ele>165.2</ele>
        <time>2024-03-27T13:37:05Z</time>
      </trkpt>
      <trkpt lat="43.47614" lon="6.18071">
        <ele>165.3</ele>
        <time>2024-03-27T13:37:06Z</time>
      </trkpt>
      <trkpt lat="43.47615" lon="6.18071">
        <ele>165.3</ele>
        <time>2024-03-27T13:37:07Z</time>
      </trkpt>
      <trkpt lat="43.47615" lon="6.18073">
        <ele>165.3</ele>
        <time>2024-03-27T13:37:08Z</time>
      </trkpt>
      <trkpt lat="43.47615" lon="6.18074">
        <ele>165.1</ele>
        <time>2024-03-27T13:37:09Z</time>
      </trkpt>
      <trkpt lat="43.47616" lon="6.18075">
        <ele>165</ele>
        <time>2024-03-27T13:37:10Z</time>
      </trkpt>
      <trkpt lat="43.47616" lon="6.18075">
        <ele>164.9</ele>
        <time>2024-03-27T13:37:11Z</time>
      </trkpt>
      <trkpt lat="43.47616" lon="6.18076">
        <ele>164.9</ele>
        <time>2024-03-27T13:37:12Z</time>
      </trkpt>
      <trkpt lat="43.47617" lon="6.18077">
        <ele>164.8</ele>
        <time>2024-03-27T13:37:13Z</time>
      </trkpt>
      <trkpt lat="43.47617" lon="6.18077">
        <ele>164.6</ele>
        <time>2024-03-27T13:37:14Z</time>
      </trkpt>
      <trkpt lat="43.47618" lon="6.18078">
        <ele>164.6</ele>
        <time>2024-03-27T13:37:15Z</time>
      </trkpt>
      <trkpt lat="43.47618" lon="6.18078">
        <ele>164.6</ele>
        <time>2024-03-27T13:37:16Z</time>
      </trkpt>
      <trkpt lat="43.47618" lon="6.18079">
        <ele>164.7</ele>
        <time>2024-03-27T13:37:17Z</time>
      </trkpt>
      <trkpt lat="43.47619" lon="6.18079">
        <ele>164.7</ele>
        <time>2024-03-27T13:37:18Z</time>
      </trkpt>
      <trkpt lat="43.47618" lon="6.18079">
        <ele>164.8</ele>
        <time>2024-03-27T13:37:19Z</time>
      </trkpt>
      <trkpt lat="43.47618" lon="6.18079">
        <ele>164.8</ele>
        <time>2024-03-27T13:37:20Z</time>
      </trkpt>
      <trkpt lat="43.47618" lon="6.18079">
        <ele>164.8</ele>
        <time>2024-03-27T13:37:21Z</time>
      </trkpt>
      <trkpt lat="43.47618" lon="6.1808">
        <ele>164.6</ele>
        <time>2024-03-27T13:37:22Z</time>
      </trkpt>
      <trkpt lat="43.47617" lon="6.1808">
        <ele>164.4</ele>
        <time>2024-03-27T13:37:23Z</time>
      </trkpt>
      <trkpt lat="43.47617" lon="6.18081">
        <ele>164.3</ele>
        <time>2024-03-27T13:37:24Z</time>
      </trkpt>
      <trkpt lat="43.47617" lon="6.18082">
        <ele>164.1</ele>
        <time>2024-03-27T13:37:25Z</time>
      </trkpt>
      <trkpt lat="43.47617" lon="6.18082">
        <ele>164</ele>
        <time>2024-03-27T13:37:26Z</time>
      </trkpt>
      <trkpt lat="43.47617" lon="6.18081">
        <ele>164</ele>
        <time>2024-03-27T13:37:27Z</time>
      </trkpt>
      <trkpt lat="43.47617" lon="6.1808">
        <ele>163.9</ele>
        <time>2024-03-27T13:37:28Z</time>
      </trkpt>
      <trkpt lat="43.47617" lon="6.1808">
        <ele>163.9</ele>
        <time>2024-03-27T13:37:29Z</time>
      </trkpt>
      <trkpt lat="43.47617" lon="6.18079">
        <ele>163.9</ele>
        <time>2024-03-27T13:37:30Z</time>
      </trkpt>
      <trkpt lat="43.47617" lon="6.18079">
        <ele>164</ele>
        <time>2024-03-27T13:37:31Z</time>
      </trkpt>
      <trkpt lat="43.47616" lon="6.18078">
        <ele>164.1</ele>
        <time>2024-03-27T13:37:32Z</time>
      </trkpt>
      <trkpt lat="43.47617" lon="6.18078">
        <ele>164.1</ele>
        <time>2024-03-27T13:37:33Z</time>
      </trkpt>
      <trkpt lat="43.47616" lon="6.18078">
        <ele>164</ele>
        <time>2024-03-27T13:37:34Z</time>
      </trkpt>
      <trkpt lat="43.47616" lon="6.18078">
        <ele>164</ele>
        <time>2024-03-27T13:37:35Z</time>
      </trkpt>
      <trkpt lat="43.47615" lon="6.18077">
        <ele>163.9</ele>
        <time>2024-03-27T13:37:36Z</time>
      </trkpt>
      <trkpt lat="43.47615" lon="6.18076">
        <ele>163.9</ele>
        <time>2024-03-27T13:37:37Z</time>
      </trkpt>
      <trkpt lat="43.47615" lon="6.18074">
        <ele>163.9</ele>
        <time>2024-03-27T13:37:38Z</time>
      </trkpt>
      <trkpt lat="43.47615" lon="6.18073">
        <ele>163.8</ele>
        <time>2024-03-27T13:37:39Z</time>
      </trkpt>
      <trkpt lat="43.47616" lon="6.18072">
        <ele>163.6</ele>
        <time>2024-03-27T13:37:40Z</time>
      </trkpt>
      <trkpt lat="43.47616" lon="6.18073">
        <ele>163.5</ele>
        <time>2024-03-27T13:37:41Z</time>
      </trkpt>
      <trkpt lat="43.47616" lon="6.18073">
        <ele>163.4</ele>
        <time>2024-03-27T13:37:42Z</time>
      </trkpt>
      <trkpt lat="43.47616" lon="6.18073">
        <ele>163.4</ele>
        <time>2024-03-27T13:37:43Z</time>
      </trkpt>
      <trkpt lat="43.47616" lon="6.18072">
        <ele>163.3</ele>
        <time>2024-03-27T13:37:44Z</time>
      </trkpt>
      <trkpt lat="43.47616" lon="6.18073">
        <ele>163.3</ele>
        <time>2024-03-27T13:37:45Z</time>
      </trkpt>
      <trkpt lat="43.47616" lon="6.18072">
        <ele>163.3</ele>
        <time>2024-03-27T13:37:46Z</time>
      </trkpt>
      <trkpt lat="43.47617" lon="6.18072">
        <ele>163.3</ele>
        <time>2024-03-27T13:37:47Z</time>
      </trkpt>
      <trkpt lat="43.47618" lon="6.18071">
        <ele>163.4</ele>
        <time>2024-03-27T13:37:48Z</time>
      </trkpt>
      <trkpt lat="43.47619" lon="6.1807">
        <ele>163.4</ele>
        <time>2024-03-27T13:37:49Z</time>
      </trkpt>
      <trkpt lat="43.4762" lon="6.1807">
        <ele>163.4</ele>
        <time>2024-03-27T13:37:50Z</time>
      </trkpt>
      <trkpt lat="43.4762" lon="6.18069">
        <ele>163.4</ele>
        <time>2024-03-27T13:37:51Z</time>
      </trkpt>
      <trkpt lat="43.4762" lon="6.18069">
        <ele>163.4</ele>
        <time>2024-03-27T13:37:52Z</time>
      </trkpt>
      <trkpt lat="43.47619" lon="6.18068">
        <ele>163.4</ele>
        <time>2024-03-27T13:37:53Z</time>
      </trkpt>
      <trkpt lat="43.47619" lon="6.18068">
        <ele>163.3</ele>
        <time>2024-03-27T13:37:54Z</time>
      </trkpt>
      <trkpt lat="43.47619" lon="6.18068">
        <ele>163.3</ele>
        <time>2024-03-27T13:37:55Z</time>
      </trkpt>
      <trkpt lat="43.47619" lon="6.18068">
        <ele>163.3</ele>
        <time>2024-03-27T13:37:56Z</time>
      </trkpt>
      <trkpt lat="43.47619" lon="6.18067">
        <ele>163.3</ele>
        <time>2024-03-27T13:37:57Z</time>
      </trkpt>
      <trkpt lat="43.47619" lon="6.18067">
        <ele>163.3</ele>
        <time>2024-03-27T13:37:58Z</time>
      </trkpt>
      <trkpt lat="43.47618" lon="6.18066">
        <ele>163.3</ele>
        <time>2024-03-27T13:37:59Z</time>
      </trkpt>
      <trkpt lat="43.47618" lon="6.18066">
        <ele>163.2</ele>
        <time>2024-03-27T13:38:00Z</time>
      </trkpt>
      <trkpt lat="43.47618" lon="6.18065">
        <ele>163.1</ele>
        <time>2024-03-27T13:38:01Z</time>
      </trkpt>
      <trkpt lat="43.47618" lon="6.18065">
        <ele>163</ele>
        <time>2024-03-27T13:38:02Z</time>
      </trkpt>
      <trkpt lat="43.47618" lon="6.18064">
        <ele>162.9</ele>
        <time>2024-03-27T13:38:03Z</time>
      </trkpt>
      <trkpt lat="43.47617" lon="6.18063">
        <ele>162.9</ele>
        <time>2024-03-27T13:38:04Z</time>
      </trkpt>
      <trkpt lat="43.47618" lon="6.18062">
        <ele>162.8</ele>
        <time>2024-03-27T13:38:05Z</time>
      </trkpt>
      <trkpt lat="43.47618" lon="6.18062">
        <ele>162.7</ele>
        <time>2024-03-27T13:38:06Z</time>
      </trkpt>
      <trkpt lat="43.47618" lon="6.18061">
        <ele>162.5</ele>
        <time>2024-03-27T13:38:07Z</time>
      </trkpt>
      <trkpt lat="43.47618" lon="6.18061">
        <ele>162.4</ele>
        <time>2024-03-27T13:38:08Z</time>
      </trkpt>
      <trkpt lat="43.47617" lon="6.18062">
        <ele>162.3</ele>
        <time>2024-03-27T13:38:09Z</time>
      </trkpt>
      <trkpt lat="43.47617" lon="6.18061">
        <ele>162.3</ele>
        <time>2024-03-27T13:38:10Z</time>
      </trkpt>
      <trkpt lat="43.47617" lon="6.18061">
        <ele>162.3</ele>
        <time>2024-03-27T13:38:11Z</time>
      </trkpt>
      <trkpt lat="43.47617" lon="6.18062">
        <ele>162.2</ele>
        <time>2024-03-27T13:38:12Z</time>
      </trkpt>
      <trkpt lat="43.47617" lon="6.18062">
        <ele>162.2</ele>
        <time>2024-03-27T13:38:13Z</time>
      </trkpt>
      <trkpt lat="43.47617" lon="6.18062">
        <ele>162.2</ele>
        <time>2024-03-27T13:38:14Z</time>
      </trkpt>
      <trkpt lat="43.47617" lon="6.18062">
        <ele>162.2</ele>
        <time>2024-03-27T13:38:15Z</time>
      </trkpt>
      <trkpt lat="43.47618" lon="6.18062">
        <ele>162.2</ele>
        <time>2024-03-27T13:38:16Z</time>
      </trkpt>
      <trkpt lat="43.47618" lon="6.18061">
        <ele>162.3</ele>
        <time>2024-03-27T13:38:17Z</time>
      </trkpt>
      <trkpt lat="43.47618" lon="6.18061">
        <ele>162.3</ele>
        <time>2024-03-27T13:38:18Z</time>
      </trkpt>
      <trkpt lat="43.47619" lon="6.18061">
        <ele>162.4</ele>
        <time>2024-03-27T13:38:19Z</time>
      </trkpt>
      <trkpt lat="43.47618" lon="6.18061">
        <ele>162.5</ele>
        <time>2024-03-27T13:38:20Z</time>
      </trkpt>
      <trkpt lat="43.47618" lon="6.1806">
        <ele>162.4</ele>
        <time>2024-03-27T13:38:21Z</time>
      </trkpt>
      <trkpt lat="43.47618" lon="6.1806">
        <ele>162.4</ele>
        <time>2024-03-27T13:38:22Z</time>
      </trkpt>
      <trkpt lat="43.47618" lon="6.1806">
        <ele>162.3</ele>
        <time>2024-03-27T13:38:23Z</time>
      </trkpt>
      <trkpt lat="43.47618" lon="6.18059">
        <ele>162.2</ele>
        <time>2024-03-27T13:38:24Z</time>
      </trkpt>
      <trkpt lat="43.47618" lon="6.18059">
        <ele>162.2</ele>
        <time>2024-03-27T13:38:25Z</time>
      </trkpt>
      <trkpt lat="43.47617" lon="6.18059">
        <ele>162.2</ele>
        <time>2024-03-27T13:38:26Z</time>
      </trkpt>
      <trkpt lat="43.47617" lon="6.18059">
        <ele>162.2</ele>
        <time>2024-03-27T13:38:27Z</time>
      </trkpt>
      <trkpt lat="43.47617" lon="6.18059">
        <ele>162.2</ele>
        <time>2024-03-27T13:38:28Z</time>
      </trkpt>
      <trkpt lat="43.47617" lon="6.18059">
        <ele>162.2</ele>
        <time>2024-03-27T13:38:29Z</time>
      </trkpt>
      <trkpt lat="43.47617" lon="6.18059">
        <ele>162.2</ele>
        <time>2024-03-27T13:38:30Z</time>
      </trkpt>
      <trkpt lat="43.47617" lon="6.18059">
        <ele>162.1</ele>
        <time>2024-03-27T13:38:31Z</time>
      </trkpt>
      <trkpt lat="43.47617" lon="6.18059">
        <ele>162.1</ele>
        <time>2024-03-27T13:38:32Z</time>
      </trkpt>
      <trkpt lat="43.47617" lon="6.18059">
        <ele>162</ele>
        <time>2024-03-27T13:38:33Z</time>
      </trkpt>
      <trkpt lat="43.47617" lon="6.18059">
        <ele>161.9</ele>
        <time>2024-03-27T13:38:34Z</time>
      </trkpt>
      <trkpt lat="43.47616" lon="6.18059">
        <ele>162</ele>
        <time>2024-03-27T13:38:35Z</time>
      </trkpt>
      <trkpt lat="43.47616" lon="6.18059">
        <ele>162</ele>
        <time>2024-03-27T13:38:36Z</time>
      </trkpt>
      <trkpt lat="43.47616" lon="6.18059">
        <ele>161.9</ele>
        <time>2024-03-27T13:38:37Z</time>
      </trkpt>
      <trkpt lat="43.47616" lon="6.18059">
        <ele>161.9</ele>
        <time>2024-03-27T13:38:38Z</time>
      </trkpt>
      <trkpt lat="43.47616" lon="6.18059">
        <ele>161.9</ele>
        <time>2024-03-27T13:38:39Z</time>
      </trkpt>
      <trkpt lat="43.47616" lon="6.18059">
        <ele>162</ele>
        <time>2024-03-27T13:38:40Z</time>
      </trkpt>
      <trkpt lat="43.47616" lon="6.18059">
        <ele>162</ele>
        <time>2024-03-27T13:38:41Z</time>
      </trkpt>
      <trkpt lat="43.47617" lon="6.18059">
        <ele>162</ele>
        <time>2024-03-27T13:38:42Z</time>
      </trkpt>
      <trkpt lat="43.47617" lon="6.18059">
        <ele>161.9</ele>
        <time>2024-03-27T13:38:43Z</time>
      </trkpt>
      <trkpt lat="43.47618" lon="6.18059">
        <ele>161.9</ele>
        <time>2024-03-27T13:38:44Z</time>
      </trkpt>
      <trkpt lat="43.47618" lon="6.18058">
        <ele>161.8</ele>
        <time>2024-03-27T13:38:45Z</time>
      </trkpt>
      <trkpt lat="43.47619" lon="6.18058">
        <ele>161.9</ele>
        <time>2024-03-27T13:38:46Z</time>
      </trkpt>
      <trkpt lat="43.47619" lon="6.18058">
        <ele>161.9</ele>
        <time>2024-03-27T13:38:47Z</time>
      </trkpt>
      <trkpt lat="43.4762" lon="6.18057">
        <ele>161.8</ele>
        <time>2024-03-27T13:38:48Z</time>
      </trkpt>
      <trkpt lat="43.4762" lon="6.18057">
        <ele>161.5</ele>
        <time>2024-03-27T13:38:49Z</time>
      </trkpt>
      <trkpt lat="43.47621" lon="6.18056">
        <ele>161.4</ele>
        <time>2024-03-27T13:38:50Z</time>
      </trkpt>
      <trkpt lat="43.47621" lon="6.18055">
        <ele>161.3</ele>
        <time>2024-03-27T13:38:51Z</time>
      </trkpt>
      <trkpt lat="43.47621" lon="6.18055">
        <ele>161.2</ele>
        <time>2024-03-27T13:38:52Z</time>
      </trkpt>
      <trkpt lat="43.47622" lon="6.18054">
        <ele>161.3</ele>
        <time>2024-03-27T13:38:53Z</time>
      </trkpt>
      <trkpt lat="43.47621" lon="6.18054">
        <ele>161.4</ele>
        <time>2024-03-27T13:38:54Z</time>
      </trkpt>
      <trkpt lat="43.47622" lon="6.18054">
        <ele>161.4</ele>
        <time>2024-03-27T13:38:55Z</time>
      </trkpt>
      <trkpt lat="43.47621" lon="6.18054">
        <ele>161.4</ele>
        <time>2024-03-27T13:38:56Z</time>
      </trkpt>
      <trkpt lat="43.47621" lon="6.18054">
        <ele>161.3</ele>
        <time>2024-03-27T13:38:57Z</time>
      </trkpt>
      <trkpt lat="43.47621" lon="6.18054">
        <ele>161.3</ele>
        <time>2024-03-27T13:38:58Z</time>
      </trkpt>
      <trkpt lat="43.47622" lon="6.18054">
        <ele>161.4</ele>
        <time>2024-03-27T13:38:59Z</time>
      </trkpt>
      <trkpt lat="43.47623" lon="6.18054">
        <ele>161.3</ele>
        <time>2024-03-27T13:39:00Z</time>
      </trkpt>
      <trkpt lat="43.47623" lon="6.18054">
        <ele>161.2</ele>
        <time>2024-03-27T13:39:01Z</time>
      </trkpt>
      <trkpt lat="43.47624" lon="6.18055">
        <ele>161.2</ele>
        <time>2024-03-27T13:39:02Z</time>
      </trkpt>
      <trkpt lat="43.47624" lon="6.18055">
        <ele>161.2</ele>
        <time>2024-03-27T13:39:03Z</time>
      </trkpt>
      <trkpt lat="43.47624" lon="6.18055">
        <ele>161.2</ele>
        <time>2024-03-27T13:39:04Z</time>
      </trkpt>
      <trkpt lat="43.47625" lon="6.18057">
        <ele>161.2</ele>
        <time>2024-03-27T13:39:05Z</time>
      </trkpt>
      <trkpt lat="43.47625" lon="6.18057">
        <ele>161.1</ele>
        <time>2024-03-27T13:39:06Z</time>
      </trkpt>
      <trkpt lat="43.47625" lon="6.18058">
        <ele>160.9</ele>
        <time>2024-03-27T13:39:07Z</time>
      </trkpt>
      <trkpt lat="43.47624" lon="6.18059">
        <ele>160.8</ele>
        <time>2024-03-27T13:39:08Z</time>
      </trkpt>
      <trkpt lat="43.47624" lon="6.18059">
        <ele>160.8</ele>
        <time>2024-03-27T13:39:09Z</time>
      </trkpt>
      <trkpt lat="43.47623" lon="6.1806">
        <ele>160.8</ele>
        <time>2024-03-27T13:39:10Z</time>
      </trkpt>
      <trkpt lat="43.47623" lon="6.18061">
        <ele>160.8</ele>
        <time>2024-03-27T13:39:11Z</time>
      </trkpt>
      <trkpt lat="43.47623" lon="6.18062">
        <ele>160.5</ele>
        <time>2024-03-27T13:39:12Z</time>
      </trkpt>
      <trkpt lat="43.47624" lon="6.18063">
        <ele>160.3</ele>
        <time>2024-03-27T13:39:13Z</time>
      </trkpt>
      <trkpt lat="43.47625" lon="6.18063">
        <ele>160.2</ele>
        <time>2024-03-27T13:39:14Z</time>
      </trkpt>
      <trkpt lat="43.47625" lon="6.18063">
        <ele>160.1</ele>
        <time>2024-03-27T13:39:15Z</time>
      </trkpt>
      <trkpt lat="43.47625" lon="6.18063">
        <ele>159.9</ele>
        <time>2024-03-27T13:39:16Z</time>
      </trkpt>
      <trkpt lat="43.47626" lon="6.18062">
        <ele>159.8</ele>
        <time>2024-03-27T13:39:17Z</time>
      </trkpt>
      <trkpt lat="43.47625" lon="6.18062">
        <ele>159.7</ele>
        <time>2024-03-27T13:39:18Z</time>
      </trkpt>
      <trkpt lat="43.47626" lon="6.18063">
        <ele>159.6</ele>
        <time>2024-03-27T13:39:19Z</time>
      </trkpt>
      <trkpt lat="43.47626" lon="6.18061">
        <ele>159.5</ele>
        <time>2024-03-27T13:39:20Z</time>
      </trkpt>
      <trkpt lat="43.47626" lon="6.18059">
        <ele>159.4</ele>
        <time>2024-03-27T13:39:21Z</time>
      </trkpt>
      <trkpt lat="43.47627" lon="6.18058">
        <ele>159.3</ele>
        <time>2024-03-27T13:39:22Z</time>
      </trkpt>
      <trkpt lat="43.47627" lon="6.18058">
        <ele>159.3</ele>
        <time>2024-03-27T13:39:23Z</time>
      </trkpt>
      <trkpt lat="43.47627" lon="6.18058">
        <ele>159.2</ele>
        <time>2024-03-27T13:39:24Z</time>
      </trkpt>
      <trkpt lat="43.47627" lon="6.18058">
        <ele>159.2</ele>
        <time>2024-03-27T13:39:25Z</time>
      </trkpt>
      <trkpt lat="43.47627" lon="6.18058">
        <ele>159.2</ele>
        <time>2024-03-27T13:39:26Z</time>
      </trkpt>
      <trkpt lat="43.47627" lon="6.18059">
        <ele>159.2</ele>
        <time>2024-03-27T13:39:27Z</time>
      </trkpt>
      <trkpt lat="43.47627" lon="6.1806">
        <ele>159.1</ele>
        <time>2024-03-27T13:39:28Z</time>
      </trkpt>
      <trkpt lat="43.47627" lon="6.18062">
        <ele>159</ele>
        <time>2024-03-27T13:39:29Z</time>
      </trkpt>
      <trkpt lat="43.47627" lon="6.18063">
        <ele>159</ele>
        <time>2024-03-27T13:39:30Z</time>
      </trkpt>
      <trkpt lat="43.47627" lon="6.18064">
        <ele>159</ele>
        <time>2024-03-27T13:39:31Z</time>
      </trkpt>
      <trkpt lat="43.47628" lon="6.18065">
        <ele>159</ele>
        <time>2024-03-27T13:39:32Z</time>
      </trkpt>
      <trkpt lat="43.47628" lon="6.18066">
        <ele>159</ele>
        <time>2024-03-27T13:39:33Z</time>
      </trkpt>
      <trkpt lat="43.47628" lon="6.18066">
        <ele>159</ele>
        <time>2024-03-27T13:39:34Z</time>
      </trkpt>
      <trkpt lat="43.47629" lon="6.18066">
        <ele>159</ele>
        <time>2024-03-27T13:39:35Z</time>
      </trkpt>
      <trkpt lat="43.47629" lon="6.18066">
        <ele>158.9</ele>
        <time>2024-03-27T13:39:36Z</time>
      </trkpt>
      <trkpt lat="43.47629" lon="6.18066">
        <ele>158.8</ele>
        <time>2024-03-27T13:39:37Z</time>
      </trkpt>
      <trkpt lat="43.4763" lon="6.18067">
        <ele>158.8</ele>
        <time>2024-03-27T13:39:38Z</time>
      </trkpt>
      <trkpt lat="43.4763" lon="6.18068">
        <ele>158.8</ele>
        <time>2024-03-27T13:39:39Z</time>
      </trkpt>
      <trkpt lat="43.47631" lon="6.18067">
        <ele>158.9</ele>
        <time>2024-03-27T13:39:40Z</time>
      </trkpt>
      <trkpt lat="43.47631" lon="6.18068">
        <ele>158.9</ele>
        <time>2024-03-27T13:39:41Z</time>
      </trkpt>
      <trkpt lat="43.47631" lon="6.18068">
        <ele>158.9</ele>
        <time>2024-03-27T13:39:42Z</time>
      </trkpt>
      <trkpt lat="43.47631" lon="6.18068">
        <ele>158.9</ele>
        <time>2024-03-27T13:39:43Z</time>
      </trkpt>
      <trkpt lat="43.47631" lon="6.18068">
        <ele>158.9</ele>
        <time>2024-03-27T13:39:44Z</time>
      </trkpt>
      <trkpt lat="43.47631" lon="6.18068">
        <ele>158.9</ele>
        <time>2024-03-27T13:39:45Z</time>
      </trkpt>
      <trkpt lat="43.47631" lon="6.18068">
        <ele>158.9</ele>
        <time>2024-03-27T13:39:46Z</time>
      </trkpt>
      <trkpt lat="43.47631" lon="6.18068">
        <ele>158.9</ele>
        <time>2024-03-27T13:39:47Z</time>
      </trkpt>
      <trkpt lat="43.47631" lon="6.18069">
        <ele>158.9</ele>
        <time>2024-03-27T13:39:48Z</time>
      </trkpt>
      <trkpt lat="43.47631" lon="6.18069">
        <ele>158.9</ele>
        <time>2024-03-27T13:39:49Z</time>
      </trkpt>
      <trkpt lat="43.47631" lon="6.18069">
        <ele>158.9</ele>
        <time>2024-03-27T13:39:50Z</time>
      </trkpt>
      <trkpt lat="43.47631" lon="6.18069">
        <ele>158.8</ele>
        <time>2024-03-27T13:39:51Z</time>
      </trkpt>
      <trkpt lat="43.47631" lon="6.18069">
        <ele>158.8</ele>
        <time>2024-03-27T13:39:52Z</time>
      </trkpt>
      <trkpt lat="43.47631" lon="6.18069">
        <ele>158.8</ele>
        <time>2024-03-27T13:39:53Z</time>
      </trkpt>
      <trkpt lat="43.47631" lon="6.1807">
        <ele>158.8</ele>
        <time>2024-03-27T13:39:54Z</time>
      </trkpt>
      <trkpt lat="43.4763" lon="6.1807">
        <ele>158.8</ele>
        <time>2024-03-27T13:39:55Z</time>
      </trkpt>
      <trkpt lat="43.4763" lon="6.1807">
        <ele>158.9</ele>
        <time>2024-03-27T13:39:56Z</time>
      </trkpt>
      <trkpt lat="43.47631" lon="6.1807">
        <ele>158.9</ele>
        <time>2024-03-27T13:39:57Z</time>
      </trkpt>
      <trkpt lat="43.47631" lon="6.18071">
        <ele>158.8</ele>
        <time>2024-03-27T13:39:58Z</time>
      </trkpt>
      <trkpt lat="43.47632" lon="6.18071">
        <ele>158.9</ele>
        <time>2024-03-27T13:39:59Z</time>
      </trkpt>
      <trkpt lat="43.47632" lon="6.18071">
        <ele>158.9</ele>
        <time>2024-03-27T13:40:00Z</time>
      </trkpt>
      <trkpt lat="43.47632" lon="6.18071">
        <ele>158.8</ele>
        <time>2024-03-27T13:40:01Z</time>
      </trkpt>
      <trkpt lat="43.47633" lon="6.18072">
        <ele>158.9</ele>
        <time>2024-03-27T13:40:02Z</time>
      </trkpt>
      <trkpt lat="43.47633" lon="6.18073">
        <ele>159</ele>
        <time>2024-03-27T13:40:03Z</time>
      </trkpt>
      <trkpt lat="43.47633" lon="6.18073">
        <ele>159.1</ele>
        <time>2024-03-27T13:40:04Z</time>
      </trkpt>
      <trkpt lat="43.47634" lon="6.18073">
        <ele>159</ele>
        <time>2024-03-27T13:40:05Z</time>
      </trkpt>
      <trkpt lat="43.47634" lon="6.18073">
        <ele>159</ele>
        <time>2024-03-27T13:40:06Z</time>
      </trkpt>
      <trkpt lat="43.47634" lon="6.18073">
        <ele>159</ele>
        <time>2024-03-27T13:40:07Z</time>
      </trkpt>
      <trkpt lat="43.47634" lon="6.18074">
        <ele>159</ele>
        <time>2024-03-27T13:40:08Z</time>
      </trkpt>
      <trkpt lat="43.47634" lon="6.18074">
        <ele>159</ele>
        <time>2024-03-27T13:40:09Z</time>
      </trkpt>
      <trkpt lat="43.47634" lon="6.18074">
        <ele>159</ele>
        <time>2024-03-27T13:40:10Z</time>
      </trkpt>
      <trkpt lat="43.47634" lon="6.18075">
        <ele>159</ele>
        <time>2024-03-27T13:40:11Z</time>
      </trkpt>
      <trkpt lat="43.47635" lon="6.18075">
        <ele>159</ele>
        <time>2024-03-27T13:40:12Z</time>
      </trkpt>
      <trkpt lat="43.47635" lon="6.18075">
        <ele>159</ele>
        <time>2024-03-27T13:40:13Z</time>
      </trkpt>
      <trkpt lat="43.47635" lon="6.18075">
        <ele>159.1</ele>
        <time>2024-03-27T13:40:14Z</time>
      </trkpt>
      <trkpt lat="43.47635" lon="6.18075">
        <ele>159.1</ele>
        <time>2024-03-27T13:40:15Z</time>
      </trkpt>
      <trkpt lat="43.47635" lon="6.18075">
        <ele>159.2</ele>
        <time>2024-03-27T13:40:16Z</time>
      </trkpt>
      <trkpt lat="43.47635" lon="6.18075">
        <ele>159.2</ele>
        <time>2024-03-27T13:40:17Z</time>
      </trkpt>
      <trkpt lat="43.47635" lon="6.18075">
        <ele>159.2</ele>
        <time>2024-03-27T13:40:18Z</time>
      </trkpt>
      <trkpt lat="43.47635" lon="6.18075">
        <ele>159.2</ele>
        <time>2024-03-27T13:40:19Z</time>
      </trkpt>
      <trkpt lat="43.47635" lon="6.18075">
        <ele>159.2</ele>
        <time>2024-03-27T13:40:20Z</time>
      </trkpt>
      <trkpt lat="43.47635" lon="6.18075">
        <ele>159.3</ele>
        <time>2024-03-27T13:40:21Z</time>
      </trkpt>
      <trkpt lat="43.47635" lon="6.18075">
        <ele>159.3</ele>
        <time>2024-03-27T13:40:22Z</time>
      </trkpt>
      <trkpt lat="43.47635" lon="6.18075">
        <ele>159.3</ele>
        <time>2024-03-27T13:40:23Z</time>
      </trkpt>
      <trkpt lat="43.47635" lon="6.18075">
        <ele>159.2</ele>
        <time>2024-03-27T13:40:24Z</time>
      </trkpt>
      <trkpt lat="43.47635" lon="6.18075">
        <ele>159.2</ele>
        <time>2024-03-27T13:40:25Z</time>
      </trkpt>
      <trkpt lat="43.47635" lon="6.18075">
        <ele>159.2</ele>
        <time>2024-03-27T13:40:26Z</time>
      </trkpt>
      <trkpt lat="43.47635" lon="6.18075">
        <ele>159.2</ele>
        <time>2024-03-27T13:40:27Z</time>
      </trkpt>
      <trkpt lat="43.47634" lon="6.18075">
        <ele>159.2</ele>
        <time>2024-03-27T13:40:28Z</time>
      </trkpt>
      <trkpt lat="43.47634" lon="6.18075">
        <ele>159.2</ele>
        <time>2024-03-27T13:40:29Z</time>
      </trkpt>
      <trkpt lat="43.47634" lon="6.18076">
        <ele>159.1</ele>
        <time>2024-03-27T13:40:30Z</time>
      </trkpt>
      <trkpt lat="43.47634" lon="6.18076">
        <ele>159.1</ele>
        <time>2024-03-27T13:40:31Z</time>
      </trkpt>
      <trkpt lat="43.47634" lon="6.18076">
        <ele>159.1</ele>
        <time>2024-03-27T13:40:32Z</time>
      </trkpt>
      <trkpt lat="43.47634" lon="6.18076">
        <ele>159.1</ele>
        <time>2024-03-27T13:40:33Z</time>
      </trkpt>
      <trkpt lat="43.47634" lon="6.18076">
        <ele>159</ele>
        <time>2024-03-27T13:40:34Z</time>
      </trkpt>
      <trkpt lat="43.47634" lon="6.18076">
        <ele>159</ele>
        <time>2024-03-27T13:40:35Z</time>
      </trkpt>
      <trkpt lat="43.47634" lon="6.18075">
        <ele>158.8</ele>
        <time>2024-03-27T13:40:36Z</time>
      </trkpt>
      <trkpt lat="43.47634" lon="6.18076">
        <ele>158.8</ele>
        <time>2024-03-27T13:40:37Z</time>
      </trkpt>
      <trkpt lat="43.47634" lon="6.18076">
        <ele>158.8</ele>
        <time>2024-03-27T13:40:38Z</time>
      </trkpt>
      <trkpt lat="43.47634" lon="6.18077">
        <ele>158.8</ele>
        <time>2024-03-27T13:40:39Z</time>
      </trkpt>
      <trkpt lat="43.47634" lon="6.18076">
        <ele>158.8</ele>
        <time>2024-03-27T13:40:40Z</time>
      </trkpt>
      <trkpt lat="43.47634" lon="6.18076">
        <ele>158.7</ele>
        <time>2024-03-27T13:40:41Z</time>
      </trkpt>
      <trkpt lat="43.47634" lon="6.18076">
        <ele>158.6</ele>
        <time>2024-03-27T13:40:42Z</time>
      </trkpt>
      <trkpt lat="43.47634" lon="6.18076">
        <ele>158.6</ele>
        <time>2024-03-27T13:40:43Z</time>
      </trkpt>
      <trkpt lat="43.47634" lon="6.18076">
        <ele>158.7</ele>
        <time>2024-03-27T13:40:44Z</time>
      </trkpt>
      <trkpt lat="43.47634" lon="6.18076">
        <ele>158.7</ele>
        <time>2024-03-27T13:40:45Z</time>
      </trkpt>
      <trkpt lat="43.47634" lon="6.18077">
        <ele>158.7</ele>
        <time>2024-03-27T13:40:46Z</time>
      </trkpt>
      <trkpt lat="43.47633" lon="6.18076">
        <ele>158.7</ele>
        <time>2024-03-27T13:40:47Z</time>
      </trkpt>
      <trkpt lat="43.47633" lon="6.18076">
        <ele>158.8</ele>
        <time>2024-03-27T13:40:48Z</time>
      </trkpt>
      <trkpt lat="43.47633" lon="6.18076">
        <ele>158.9</ele>
        <time>2024-03-27T13:40:49Z</time>
      </trkpt>
      <trkpt lat="43.47633" lon="6.18076">
        <ele>158.9</ele>
        <time>2024-03-27T13:40:50Z</time>
      </trkpt>
      <trkpt lat="43.47633" lon="6.18075">
        <ele>158.9</ele>
        <time>2024-03-27T13:40:51Z</time>
      </trkpt>
      <trkpt lat="43.47633" lon="6.18075">
        <ele>159</ele>
        <time>2024-03-27T13:40:52Z</time>
      </trkpt>
      <trkpt lat="43.47633" lon="6.18074">
        <ele>159</ele>
        <time>2024-03-27T13:40:53Z</time>
      </trkpt>
      <trkpt lat="43.47632" lon="6.18074">
        <ele>159</ele>
        <time>2024-03-27T13:40:54Z</time>
      </trkpt>
      <trkpt lat="43.47632" lon="6.18073">
        <ele>158.8</ele>
        <time>2024-03-27T13:40:55Z</time>
      </trkpt>
      <trkpt lat="43.47632" lon="6.18073">
        <ele>158.8</ele>
        <time>2024-03-27T13:40:56Z</time>
      </trkpt>
      <trkpt lat="43.47631" lon="6.18073">
        <ele>158.7</ele>
        <time>2024-03-27T13:40:57Z</time>
      </trkpt>
      <trkpt lat="43.4763" lon="6.18073">
        <ele>158.7</ele>
        <time>2024-03-27T13:40:58Z</time>
      </trkpt>
      <trkpt lat="43.4763" lon="6.18072">
        <ele>158.8</ele>
        <time>2024-03-27T13:40:59Z</time>
      </trkpt>
      <trkpt lat="43.4763" lon="6.18072">
        <ele>158.9</ele>
        <time>2024-03-27T13:41:00Z</time>
      </trkpt>
      <trkpt lat="43.4763" lon="6.18071">
        <ele>159</ele>
        <time>2024-03-27T13:41:01Z</time>
      </trkpt>
      <trkpt lat="43.4763" lon="6.18071">
        <ele>159.1</ele>
        <time>2024-03-27T13:41:02Z</time>
      </trkpt>
      <trkpt lat="43.4763" lon="6.18071">
        <ele>159.2</ele>
        <time>2024-03-27T13:41:03Z</time>
      </trkpt>
      <trkpt lat="43.4763" lon="6.18071">
        <ele>159.3</ele>
        <time>2024-03-27T13:41:04Z</time>
      </trkpt>
      <trkpt lat="43.47629" lon="6.18071">
        <ele>159.3</ele>
        <time>2024-03-27T13:41:05Z</time>
      </trkpt>
      <trkpt lat="43.47628" lon="6.18068">
        <ele>159.2</ele>
        <time>2024-03-27T13:41:06Z</time>
      </trkpt>
      <trkpt lat="43.47627" lon="6.18067">
        <ele>159.1</ele>
        <time>2024-03-27T13:41:07Z</time>
      </trkpt>
      <trkpt lat="43.47628" lon="6.18066">
        <ele>158.9</ele>
        <time>2024-03-27T13:41:08Z</time>
      </trkpt>
      <trkpt lat="43.47629" lon="6.18066">
        <ele>158.7</ele>
        <time>2024-03-27T13:41:09Z</time>
      </trkpt>
      <trkpt lat="43.4763" lon="6.18067">
        <ele>158.4</ele>
        <time>2024-03-27T13:41:10Z</time>
      </trkpt>
      <trkpt lat="43.4763" lon="6.18066">
        <ele>158.1</ele>
        <time>2024-03-27T13:41:11Z</time>
      </trkpt>
      <trkpt lat="43.4763" lon="6.18067">
        <ele>157.9</ele>
        <time>2024-03-27T13:41:12Z</time>
      </trkpt>
      <trkpt lat="43.47632" lon="6.18068">
        <ele>157.6</ele>
        <time>2024-03-27T13:41:13Z</time>
      </trkpt>
      <trkpt lat="43.47633" lon="6.18066">
        <ele>157.4</ele>
        <time>2024-03-27T13:41:14Z</time>
      </trkpt>
      <trkpt lat="43.47635" lon="6.18067">
        <ele>157.3</ele>
        <time>2024-03-27T13:41:15Z</time>
      </trkpt>
      <trkpt lat="43.47634" lon="6.18066">
        <ele>157.2</ele>
        <time>2024-03-27T13:41:16Z</time>
      </trkpt>
      <trkpt lat="43.47633" lon="6.18066">
        <ele>157.1</ele>
        <time>2024-03-27T13:41:17Z</time>
      </trkpt>
      <trkpt lat="43.47633" lon="6.18066">
        <ele>156.8</ele>
        <time>2024-03-27T13:41:18Z</time>
      </trkpt>
      <trkpt lat="43.47632" lon="6.18066">
        <ele>156.6</ele>
        <time>2024-03-27T13:41:19Z</time>
      </trkpt>
      <trkpt lat="43.47632" lon="6.18067">
        <ele>156.6</ele>
        <time>2024-03-27T13:41:20Z</time>
      </trkpt>
      <trkpt lat="43.47631" lon="6.18066">
        <ele>156.7</ele>
        <time>2024-03-27T13:41:21Z</time>
      </trkpt>
      <trkpt lat="43.47632" lon="6.18066">
        <ele>156.7</ele>
        <time>2024-03-27T13:41:22Z</time>
      </trkpt>
      <trkpt lat="43.47632" lon="6.18065">
        <ele>156.7</ele>
        <time>2024-03-27T13:41:25Z</time>
      </trkpt>
      <trkpt lat="43.47632" lon="6.18063">
        <ele>156.7</ele>
        <time>2024-03-27T13:41:26Z</time>
      </trkpt>
      <trkpt lat="43.47631" lon="6.18061">
        <ele>156.6</ele>
        <time>2024-03-27T13:41:27Z</time>
      </trkpt>
      <trkpt lat="43.47631" lon="6.1806">
        <ele>156.6</ele>
        <time>2024-03-27T13:41:28Z</time>
      </trkpt>
      <trkpt lat="43.47634" lon="6.18062">
        <ele>156.5</ele>
        <time>2024-03-27T13:41:29Z</time>
      </trkpt>
      <trkpt lat="43.47638" lon="6.18064">
        <ele>156.4</ele>
        <time>2024-03-27T13:41:30Z</time>
      </trkpt>
      <trkpt lat="43.47637" lon="6.18062">
        <ele>156.3</ele>
        <time>2024-03-27T13:41:31Z</time>
      </trkpt>
      <trkpt lat="43.47637" lon="6.1806">
        <ele>156.3</ele>
        <time>2024-03-27T13:41:32Z</time>
      </trkpt>
      <trkpt lat="43.47638" lon="6.18059">
        <ele>156.2</ele>
        <time>2024-03-27T13:41:33Z</time>
      </trkpt>
      <trkpt lat="43.47638" lon="6.18058">
        <ele>156.2</ele>
        <time>2024-03-27T13:41:34Z</time>
      </trkpt>
      <trkpt lat="43.47638" lon="6.18056">
        <ele>156.1</ele>
        <time>2024-03-27T13:41:35Z</time>
      </trkpt>
      <trkpt lat="43.47639" lon="6.18055">
        <ele>156</ele>
        <time>2024-03-27T13:41:36Z</time>
      </trkpt>
      <trkpt lat="43.47637" lon="6.18055">
        <ele>155.9</ele>
        <time>2024-03-27T13:41:37Z</time>
      </trkpt>
      <trkpt lat="43.47637" lon="6.18054">
        <ele>155.8</ele>
        <time>2024-03-27T13:41:38Z</time>
      </trkpt>
      <trkpt lat="43.47637" lon="6.18054">
        <ele>155.7</ele>
        <time>2024-03-27T13:41:39Z</time>
      </trkpt>
      <trkpt lat="43.47637" lon="6.18053">
        <ele>155.6</ele>
        <time>2024-03-27T13:41:40Z</time>
      </trkpt>
      <trkpt lat="43.47637" lon="6.18052">
        <ele>155.5</ele>
        <time>2024-03-27T13:41:41Z</time>
      </trkpt>
      <trkpt lat="43.47638" lon="6.18051">
        <ele>155.4</ele>
        <time>2024-03-27T13:41:42Z</time>
      </trkpt>
      <trkpt lat="43.47638" lon="6.18052">
        <ele>155.4</ele>
        <time>2024-03-27T13:41:43Z</time>
      </trkpt>
      <trkpt lat="43.47638" lon="6.18051">
        <ele>155.3</ele>
        <time>2024-03-27T13:41:44Z</time>
      </trkpt>
      <trkpt lat="43.47639" lon="6.18051">
        <ele>155.3</ele>
        <time>2024-03-27T13:41:45Z</time>
      </trkpt>
      <trkpt lat="43.47639" lon="6.18051">
        <ele>155.3</ele>
        <time>2024-03-27T13:41:46Z</time>
      </trkpt>
      <trkpt lat="43.47639" lon="6.1805">
        <ele>155.2</ele>
        <time>2024-03-27T13:41:47Z</time>
      </trkpt>
      <trkpt lat="43.47639" lon="6.1805">
        <ele>155</ele>
        <time>2024-03-27T13:41:48Z</time>
      </trkpt>
      <trkpt lat="43.4764" lon="6.18049">
        <ele>154.8</ele>
        <time>2024-03-27T13:41:49Z</time>
      </trkpt>
      <trkpt lat="43.47641" lon="6.18048">
        <ele>154.7</ele>
        <time>2024-03-27T13:41:50Z</time>
      </trkpt>
      <trkpt lat="43.4764" lon="6.18048">
        <ele>154.6</ele>
        <time>2024-03-27T13:41:51Z</time>
      </trkpt>
      <trkpt lat="43.47641" lon="6.18049">
        <ele>154.4</ele>
        <time>2024-03-27T13:41:52Z</time>
      </trkpt>
      <trkpt lat="43.47642" lon="6.18049">
        <ele>154.2</ele>
        <time>2024-03-27T13:41:53Z</time>
      </trkpt>
      <trkpt lat="43.47643" lon="6.18049">
        <ele>154</ele>
        <time>2024-03-27T13:41:54Z</time>
      </trkpt>
      <trkpt lat="43.47643" lon="6.18048">
        <ele>153.8</ele>
        <time>2024-03-27T13:41:55Z</time>
      </trkpt>
      <trkpt lat="43.47644" lon="6.18048">
        <ele>153.7</ele>
        <time>2024-03-27T13:41:56Z</time>
      </trkpt>
      <trkpt lat="43.47644" lon="6.18048">
        <ele>153.5</ele>
        <time>2024-03-27T13:41:57Z</time>
      </trkpt>
      <trkpt lat="43.47644" lon="6.18048">
        <ele>153.3</ele>
        <time>2024-03-27T13:41:58Z</time>
      </trkpt>
      <trkpt lat="43.47645" lon="6.18048">
        <ele>153.1</ele>
        <time>2024-03-27T13:41:59Z</time>
      </trkpt>
      <trkpt lat="43.47645" lon="6.18047">
        <ele>153</ele>
        <time>2024-03-27T13:42:00Z</time>
      </trkpt>
      <trkpt lat="43.47644" lon="6.18046">
        <ele>152.9</ele>
        <time>2024-03-27T13:42:01Z</time>
      </trkpt>
      <trkpt lat="43.47644" lon="6.18046">
        <ele>152.8</ele>
        <time>2024-03-27T13:42:02Z</time>
      </trkpt>
      <trkpt lat="43.47645" lon="6.18045">
        <ele>152.8</ele>
        <time>2024-03-27T13:42:03Z</time>
      </trkpt>
      <trkpt lat="43.47645" lon="6.18045">
        <ele>152.8</ele>
        <time>2024-03-27T13:42:04Z</time>
      </trkpt>
      <trkpt lat="43.47646" lon="6.18045">
        <ele>152.8</ele>
        <time>2024-03-27T13:42:05Z</time>
      </trkpt>
      <trkpt lat="43.47647" lon="6.18045">
        <ele>152.7</ele>
        <time>2024-03-27T13:42:06Z</time>
      </trkpt>
      <trkpt lat="43.47647" lon="6.18046">
        <ele>152.7</ele>
        <time>2024-03-27T13:42:07Z</time>
      </trkpt>
      <trkpt lat="43.47647" lon="6.18045">
        <ele>152.6</ele>
        <time>2024-03-27T13:42:08Z</time>
      </trkpt>
      <trkpt lat="43.47647" lon="6.18046">
        <ele>152.7</ele>
        <time>2024-03-27T13:42:09Z</time>
      </trkpt>
      <trkpt lat="43.47648" lon="6.18047">
        <ele>152.7</ele>
        <time>2024-03-27T13:42:10Z</time>
      </trkpt>
      <trkpt lat="43.47648" lon="6.18047">
        <ele>152.6</ele>
        <time>2024-03-27T13:42:11Z</time>
      </trkpt>
      <trkpt lat="43.47648" lon="6.18047">
        <ele>152.5</ele>
        <time>2024-03-27T13:42:12Z</time>
      </trkpt>
      <trkpt lat="43.47649" lon="6.18048">
        <ele>152.4</ele>
        <time>2024-03-27T13:42:13Z</time>
      </trkpt>
      <trkpt lat="43.47646" lon="6.18047">
        <ele>152.3</ele>
        <time>2024-03-27T13:42:14Z</time>
      </trkpt>
      <trkpt lat="43.47643" lon="6.18046">
        <ele>152.3</ele>
        <time>2024-03-27T13:42:15Z</time>
      </trkpt>
      <trkpt lat="43.47643" lon="6.18046">
        <ele>152.2</ele>
        <time>2024-03-27T13:42:16Z</time>
      </trkpt>
      <trkpt lat="43.47644" lon="6.18046">
        <ele>152.1</ele>
        <time>2024-03-27T13:42:17Z</time>
      </trkpt>
      <trkpt lat="43.47645" lon="6.18047">
        <ele>152.1</ele>
        <time>2024-03-27T13:42:18Z</time>
      </trkpt>
      <trkpt lat="43.47645" lon="6.18048">
        <ele>152.1</ele>
        <time>2024-03-27T13:42:19Z</time>
      </trkpt>
      <trkpt lat="43.47645" lon="6.18047">
        <ele>152.1</ele>
        <time>2024-03-27T13:42:20Z</time>
      </trkpt>
      <trkpt lat="43.47645" lon="6.18047">
        <ele>152.2</ele>
        <time>2024-03-27T13:42:21Z</time>
      </trkpt>
      <trkpt lat="43.47645" lon="6.18047">
        <ele>152.2</ele>
        <time>2024-03-27T13:42:22Z</time>
      </trkpt>
      <trkpt lat="43.47645" lon="6.18047">
        <ele>152.2</ele>
        <time>2024-03-27T13:42:23Z</time>
      </trkpt>
      <trkpt lat="43.47642" lon="6.18047">
        <ele>152.2</ele>
        <time>2024-03-27T13:42:24Z</time>
      </trkpt>
      <trkpt lat="43.47641" lon="6.18045">
        <ele>152.3</ele>
        <time>2024-03-27T13:42:25Z</time>
      </trkpt>
      <trkpt lat="43.47637" lon="6.18045">
        <ele>152.3</ele>
        <time>2024-03-27T13:42:26Z</time>
      </trkpt>
      <trkpt lat="43.47631" lon="6.18046">
        <ele>152.3</ele>
        <time>2024-03-27T13:42:27Z</time>
      </trkpt>
      <trkpt lat="43.47629" lon="6.18046">
        <ele>152.4</ele>
        <time>2024-03-27T13:42:28Z</time>
      </trkpt>
      <trkpt lat="43.47629" lon="6.18048">
        <ele>152.4</ele>
        <time>2024-03-27T13:42:29Z</time>
      </trkpt>
      <trkpt lat="43.4762" lon="6.18051">
        <ele>152.5</ele>
        <time>2024-03-27T13:42:30Z</time>
      </trkpt>
      <trkpt lat="43.47619" lon="6.18054">
        <ele>152.5</ele>
        <time>2024-03-27T13:42:31Z</time>
      </trkpt>
      <trkpt lat="43.47618" lon="6.18055">
        <ele>152.6</ele>
        <time>2024-03-27T13:42:32Z</time>
      </trkpt>
      <trkpt lat="43.47618" lon="6.18055">
        <ele>152.5</ele>
        <time>2024-03-27T13:42:33Z</time>
      </trkpt>
      <trkpt lat="43.47617" lon="6.18056">
        <ele>152.5</ele>
        <time>2024-03-27T13:42:34Z</time>
      </trkpt>
      <trkpt lat="43.47619" lon="6.18056">
        <ele>152.5</ele>
        <time>2024-03-27T13:42:35Z</time>
      </trkpt>
      <trkpt lat="43.47619" lon="6.18055">
        <ele>152.5</ele>
        <time>2024-03-27T13:42:36Z</time>
      </trkpt>
      <trkpt lat="43.47619" lon="6.18054">
        <ele>152.4</ele>
        <time>2024-03-27T13:42:37Z</time>
      </trkpt>
      <trkpt lat="43.4762" lon="6.18051">
        <ele>152.4</ele>
        <time>2024-03-27T13:42:38Z</time>
      </trkpt>
      <trkpt lat="43.47622" lon="6.18051">
        <ele>152.5</ele>
        <time>2024-03-27T13:42:39Z</time>
      </trkpt>
      <trkpt lat="43.47624" lon="6.18052">
        <ele>152.5</ele>
        <time>2024-03-27T13:42:40Z</time>
      </trkpt>
      <trkpt lat="43.47626" lon="6.1805">
        <ele>152.6</ele>
        <time>2024-03-27T13:42:41Z</time>
      </trkpt>
      <trkpt lat="43.47627" lon="6.18048">
        <ele>152.8</ele>
        <time>2024-03-27T13:42:42Z</time>
      </trkpt>
      <trkpt lat="43.47629" lon="6.18047">
        <ele>152.9</ele>
        <time>2024-03-27T13:42:43Z</time>
      </trkpt>
      <trkpt lat="43.47631" lon="6.18045">
        <ele>153</ele>
        <time>2024-03-27T13:42:44Z</time>
      </trkpt>
      <trkpt lat="43.47634" lon="6.18043">
        <ele>153.1</ele>
        <time>2024-03-27T13:42:45Z</time>
      </trkpt>
      <trkpt lat="43.47633" lon="6.1804">
        <ele>153.3</ele>
        <time>2024-03-27T13:42:46Z</time>
      </trkpt>
      <trkpt lat="43.47633" lon="6.18038">
        <ele>153.3</ele>
        <time>2024-03-27T13:42:47Z</time>
      </trkpt>
      <trkpt lat="43.47633" lon="6.18038">
        <ele>153.3</ele>
        <time>2024-03-27T13:42:48Z</time>
      </trkpt>
      <trkpt lat="43.47635" lon="6.18037">
        <ele>153.3</ele>
        <time>2024-03-27T13:42:49Z</time>
      </trkpt>
      <trkpt lat="43.47636" lon="6.18036">
        <ele>153.3</ele>
        <time>2024-03-27T13:42:50Z</time>
      </trkpt>
      <trkpt lat="43.47637" lon="6.18036">
        <ele>153.2</ele>
        <time>2024-03-27T13:42:51Z</time>
      </trkpt>
      <trkpt lat="43.47638" lon="6.18035">
        <ele>153.2</ele>
        <time>2024-03-27T13:42:52Z</time>
      </trkpt>
      <trkpt lat="43.47637" lon="6.18035">
        <ele>153.2</ele>
        <time>2024-03-27T13:42:53Z</time>
      </trkpt>
      <trkpt lat="43.47637" lon="6.18033">
        <ele>153.3</ele>
        <time>2024-03-27T13:42:54Z</time>
      </trkpt>
      <trkpt lat="43.47638" lon="6.18033">
        <ele>153.2</ele>
        <time>2024-03-27T13:42:55Z</time>
      </trkpt>
      <trkpt lat="43.47638" lon="6.18034">
        <ele>153.2</ele>
        <time>2024-03-27T13:42:56Z</time>
      </trkpt>
      <trkpt lat="43.47638" lon="6.18034">
        <ele>153.3</ele>
        <time>2024-03-27T13:42:57Z</time>
      </trkpt>
      <trkpt lat="43.47637" lon="6.18036">
        <ele>153.1</ele>
        <time>2024-03-27T13:42:58Z</time>
      </trkpt>
      <trkpt lat="43.47637" lon="6.18041">
        <ele>152.9</ele>
        <time>2024-03-27T13:42:59Z</time>
      </trkpt>
      <trkpt lat="43.47637" lon="6.18046">
        <ele>152.8</ele>
        <time>2024-03-27T13:43:00Z</time>
      </trkpt>
      <trkpt lat="43.47638" lon="6.18051">
        <ele>152.8</ele>
        <time>2024-03-27T13:43:01Z</time>
      </trkpt>
      <trkpt lat="43.47638" lon="6.18055">
        <ele>152.8</ele>
        <time>2024-03-27T13:43:02Z</time>
      </trkpt>
      <trkpt lat="43.47638" lon="6.18058">
        <ele>152.7</ele>
        <time>2024-03-27T13:43:03Z</time>
      </trkpt>
      <trkpt lat="43.47634" lon="6.18061">
        <ele>152.8</ele>
        <time>2024-03-27T13:43:04Z</time>
      </trkpt>
      <trkpt lat="43.47632" lon="6.18068">
        <ele>152.7</ele>
        <time>2024-03-27T13:43:05Z</time>
      </trkpt>
      <trkpt lat="43.47631" lon="6.18072">
        <ele>152.7</ele>
        <time>2024-03-27T13:43:06Z</time>
      </trkpt>
      <trkpt lat="43.47633" lon="6.18069">
        <ele>152.8</ele>
        <time>2024-03-27T13:43:07Z</time>
      </trkpt>
      <trkpt lat="43.47633" lon="6.18068">
        <ele>152.8</ele>
        <time>2024-03-27T13:43:08Z</time>
      </trkpt>
      <trkpt lat="43.47635" lon="6.18065">
        <ele>152.9</ele>
        <time>2024-03-27T13:43:09Z</time>
      </trkpt>
      <trkpt lat="43.47636" lon="6.18063">
        <ele>152.9</ele>
        <time>2024-03-27T13:43:10Z</time>
      </trkpt>
      <trkpt lat="43.47637" lon="6.18062">
        <ele>152.9</ele>
        <time>2024-03-27T13:43:11Z</time>
      </trkpt>
      <trkpt lat="43.47636" lon="6.18061">
        <ele>152.9</ele>
        <time>2024-03-27T13:43:12Z</time>
      </trkpt>
      <trkpt lat="43.47636" lon="6.18061">
        <ele>152.8</ele>
        <time>2024-03-27T13:43:13Z</time>
      </trkpt>
      <trkpt lat="43.47635" lon="6.1806">
        <ele>152.8</ele>
        <time>2024-03-27T13:43:14Z</time>
      </trkpt>
      <trkpt lat="43.47635" lon="6.18059">
        <ele>152.8</ele>
        <time>2024-03-27T13:43:15Z</time>
      </trkpt>
      <trkpt lat="43.47635" lon="6.18058">
        <ele>152.8</ele>
        <time>2024-03-27T13:43:16Z</time>
      </trkpt>
      <trkpt lat="43.47634" lon="6.18057">
        <ele>152.7</ele>
        <time>2024-03-27T13:43:17Z</time>
      </trkpt>
      <trkpt lat="43.47635" lon="6.18056">
        <ele>152.7</ele>
        <time>2024-03-27T13:43:18Z</time>
      </trkpt>
      <trkpt lat="43.47635" lon="6.18055">
        <ele>152.8</ele>
        <time>2024-03-27T13:43:19Z</time>
      </trkpt>
      <trkpt lat="43.47635" lon="6.18055">
        <ele>152.7</ele>
        <time>2024-03-27T13:43:20Z</time>
      </trkpt>
      <trkpt lat="43.47634" lon="6.18055">
        <ele>152.7</ele>
        <time>2024-03-27T13:43:21Z</time>
      </trkpt>
      <trkpt lat="43.47635" lon="6.18054">
        <ele>152.6</ele>
        <time>2024-03-27T13:43:22Z</time>
      </trkpt>
      <trkpt lat="43.47637" lon="6.18053">
        <ele>152.6</ele>
        <time>2024-03-27T13:43:23Z</time>
      </trkpt>
      <trkpt lat="43.47637" lon="6.18053">
        <ele>152.6</ele>
        <time>2024-03-27T13:43:24Z</time>
      </trkpt>
      <trkpt lat="43.47637" lon="6.18052">
        <ele>152.6</ele>
        <time>2024-03-27T13:43:25Z</time>
      </trkpt>
      <trkpt lat="43.47638" lon="6.18052">
        <ele>152.6</ele>
        <time>2024-03-27T13:43:26Z</time>
      </trkpt>
      <trkpt lat="43.47637" lon="6.18052">
        <ele>152.7</ele>
        <time>2024-03-27T13:43:27Z</time>
      </trkpt>
      <trkpt lat="43.47637" lon="6.18052">
        <ele>152.7</ele>
        <time>2024-03-27T13:43:28Z</time>
      </trkpt>
      <trkpt lat="43.47638" lon="6.18052">
        <ele>152.6</ele>
        <time>2024-03-27T13:43:29Z</time>
      </trkpt>
      <trkpt lat="43.47638" lon="6.18052">
        <ele>152.7</ele>
        <time>2024-03-27T13:43:30Z</time>
      </trkpt>
      <trkpt lat="43.47639" lon="6.18051">
        <ele>152.8</ele>
        <time>2024-03-27T13:43:31Z</time>
      </trkpt>
      <trkpt lat="43.4764" lon="6.18052">
        <ele>152.9</ele>
        <time>2024-03-27T13:43:32Z</time>
      </trkpt>
      <trkpt lat="43.47638" lon="6.18049">
        <ele>152.8</ele>
        <time>2024-03-27T13:43:35Z</time>
      </trkpt>
      <trkpt lat="43.47634" lon="6.18048">
        <ele>152.8</ele>
        <time>2024-03-27T13:43:36Z</time>
      </trkpt>
      <trkpt lat="43.47632" lon="6.18047">
        <ele>152.7</ele>
        <time>2024-03-27T13:43:37Z</time>
      </trkpt>
      <trkpt lat="43.47629" lon="6.18045">
        <ele>152.7</ele>
        <time>2024-03-27T13:43:38Z</time>
      </trkpt>
      <trkpt lat="43.47627" lon="6.18043">
        <ele>152.6</ele>
        <time>2024-03-27T13:43:39Z</time>
      </trkpt>
      <trkpt lat="43.47626" lon="6.18043">
        <ele>152.6</ele>
        <time>2024-03-27T13:43:40Z</time>
      </trkpt>
      <trkpt lat="43.47625" lon="6.18043">
        <ele>152.5</ele>
        <time>2024-03-27T13:43:41Z</time>
      </trkpt>
      <trkpt lat="43.47624" lon="6.18043">
        <ele>152.6</ele>
        <time>2024-03-27T13:43:42Z</time>
      </trkpt>
      <trkpt lat="43.47624" lon="6.18042">
        <ele>152.6</ele>
        <time>2024-03-27T13:43:43Z</time>
      </trkpt>
      <trkpt lat="43.47623" lon="6.18042">
        <ele>152.6</ele>
        <time>2024-03-27T13:43:44Z</time>
      </trkpt>
      <trkpt lat="43.47621" lon="6.1804">
        <ele>152.5</ele>
        <time>2024-03-27T13:43:45Z</time>
      </trkpt>
      <trkpt lat="43.47621" lon="6.18039">
        <ele>152.6</ele>
        <time>2024-03-27T13:43:46Z</time>
      </trkpt>
      <trkpt lat="43.47621" lon="6.18038">
        <ele>152.5</ele>
        <time>2024-03-27T13:43:47Z</time>
      </trkpt>
      <trkpt lat="43.47623" lon="6.18037">
        <ele>152.4</ele>
        <time>2024-03-27T13:43:48Z</time>
      </trkpt>
      <trkpt lat="43.47623" lon="6.18037">
        <ele>152.4</ele>
        <time>2024-03-27T13:43:49Z</time>
      </trkpt>
      <trkpt lat="43.47624" lon="6.18036">
        <ele>152.3</ele>
        <time>2024-03-27T13:43:50Z</time>
      </trkpt>
      <trkpt lat="43.47623" lon="6.18034">
        <ele>152.3</ele>
        <time>2024-03-27T13:43:51Z</time>
      </trkpt>
      <trkpt lat="43.47624" lon="6.18035">
        <ele>152.3</ele>
        <time>2024-03-27T13:43:52Z</time>
      </trkpt>
      <trkpt lat="43.47625" lon="6.18035">
        <ele>152.4</ele>
        <time>2024-03-27T13:43:53Z</time>
      </trkpt>
      <trkpt lat="43.47625" lon="6.18034">
        <ele>152.3</ele>
        <time>2024-03-27T13:43:54Z</time>
      </trkpt>
      <trkpt lat="43.47628" lon="6.18034">
        <ele>152.3</ele>
        <time>2024-03-27T13:43:55Z</time>
      </trkpt>
      <trkpt lat="43.47627" lon="6.18034">
        <ele>152.2</ele>
        <time>2024-03-27T13:43:56Z</time>
      </trkpt>
      <trkpt lat="43.47627" lon="6.18034">
        <ele>152.2</ele>
        <time>2024-03-27T13:43:57Z</time>
      </trkpt>
      <trkpt lat="43.47625" lon="6.18034">
        <ele>152.1</ele>
        <time>2024-03-27T13:43:58Z</time>
      </trkpt>
      <trkpt lat="43.47625" lon="6.18033">
        <ele>152.1</ele>
        <time>2024-03-27T13:43:59Z</time>
      </trkpt>
      <trkpt lat="43.47627" lon="6.18032">
        <ele>152.1</ele>
        <time>2024-03-27T13:44:00Z</time>
      </trkpt>
      <trkpt lat="43.47628" lon="6.18032">
        <ele>152.1</ele>
        <time>2024-03-27T13:44:01Z</time>
      </trkpt>
      <trkpt lat="43.47628" lon="6.18032">
        <ele>152</ele>
        <time>2024-03-27T13:44:02Z</time>
      </trkpt>
      <trkpt lat="43.47628" lon="6.18032">
        <ele>152</ele>
        <time>2024-03-27T13:44:03Z</time>
      </trkpt>
      <trkpt lat="43.47626" lon="6.18032">
        <ele>152</ele>
        <time>2024-03-27T13:44:04Z</time>
      </trkpt>
      <trkpt lat="43.47626" lon="6.18031">
        <ele>152</ele>
        <time>2024-03-27T13:44:05Z</time>
      </trkpt>
      <trkpt lat="43.47624" lon="6.18031">
        <ele>152</ele>
        <time>2024-03-27T13:44:06Z</time>
      </trkpt>
      <trkpt lat="43.47622" lon="6.18031">
        <ele>152</ele>
        <time>2024-03-27T13:44:07Z</time>
      </trkpt>
      <trkpt lat="43.47622" lon="6.1803">
        <ele>152.1</ele>
        <time>2024-03-27T13:44:08Z</time>
      </trkpt>
      <trkpt lat="43.47621" lon="6.1803">
        <ele>152.1</ele>
        <time>2024-03-27T13:44:09Z</time>
      </trkpt>
      <trkpt lat="43.4762" lon="6.18031">
        <ele>152.1</ele>
        <time>2024-03-27T13:44:10Z</time>
      </trkpt>
      <trkpt lat="43.47621" lon="6.18029">
        <ele>152.2</ele>
        <time>2024-03-27T13:44:15Z</time>
      </trkpt>
      <trkpt lat="43.47621" lon="6.18027">
        <ele>152.1</ele>
        <time>2024-03-27T13:44:16Z</time>
      </trkpt>
      <trkpt lat="43.47622" lon="6.18026">
        <ele>152</ele>
        <time>2024-03-27T13:44:17Z</time>
      </trkpt>
      <trkpt lat="43.47623" lon="6.18024">
        <ele>152</ele>
        <time>2024-03-27T13:44:18Z</time>
      </trkpt>
      <trkpt lat="43.47623" lon="6.18025">
        <ele>151.8</ele>
        <time>2024-03-27T13:44:19Z</time>
      </trkpt>
      <trkpt lat="43.47623" lon="6.18025">
        <ele>151.7</ele>
        <time>2024-03-27T13:44:20Z</time>
      </trkpt>
      <trkpt lat="43.47622" lon="6.18026">
        <ele>151.6</ele>
        <time>2024-03-27T13:44:21Z</time>
      </trkpt>
      <trkpt lat="43.4762" lon="6.18027">
        <ele>151.6</ele>
        <time>2024-03-27T13:44:22Z</time>
      </trkpt>
      <trkpt lat="43.47617" lon="6.18027">
        <ele>151.6</ele>
        <time>2024-03-27T13:44:23Z</time>
      </trkpt>
      <trkpt lat="43.47616" lon="6.1803">
        <ele>151.5</ele>
        <time>2024-03-27T13:44:24Z</time>
      </trkpt>
      <trkpt lat="43.4762" lon="6.18028">
        <ele>151.5</ele>
        <time>2024-03-27T13:44:25Z</time>
      </trkpt>
      <trkpt lat="43.47623" lon="6.18023">
        <ele>151.7</ele>
        <time>2024-03-27T13:44:26Z</time>
      </trkpt>
      <trkpt lat="43.47625" lon="6.18021">
        <ele>151.7</ele>
        <time>2024-03-27T13:44:27Z</time>
      </trkpt>
      <trkpt lat="43.47625" lon="6.18022">
        <ele>151.7</ele>
        <time>2024-03-27T13:44:28Z</time>
      </trkpt>
      <trkpt lat="43.47625" lon="6.18021">
        <ele>151.8</ele>
        <time>2024-03-27T13:44:29Z</time>
      </trkpt>
      <trkpt lat="43.47625" lon="6.1802">
        <ele>151.9</ele>
        <time>2024-03-27T13:44:30Z</time>
      </trkpt>
      <trkpt lat="43.47625" lon="6.18019">
        <ele>151.9</ele>
        <time>2024-03-27T13:44:31Z</time>
      </trkpt>
      <trkpt lat="43.47626" lon="6.18018">
        <ele>152</ele>
        <time>2024-03-27T13:44:32Z</time>
      </trkpt>
      <trkpt lat="43.47627" lon="6.18017">
        <ele>152</ele>
        <time>2024-03-27T13:44:33Z</time>
      </trkpt>
      <trkpt lat="43.47627" lon="6.18017">
        <ele>152</ele>
        <time>2024-03-27T13:44:34Z</time>
      </trkpt>
      <trkpt lat="43.47628" lon="6.18017">
        <ele>152</ele>
        <time>2024-03-27T13:44:35Z</time>
      </trkpt>
      <trkpt lat="43.47628" lon="6.18016">
        <ele>152</ele>
        <time>2024-03-27T13:44:36Z</time>
      </trkpt>
      <trkpt lat="43.47629" lon="6.18015">
        <ele>152</ele>
        <time>2024-03-27T13:44:37Z</time>
      </trkpt>
      <trkpt lat="43.47629" lon="6.18014">
        <ele>151.9</ele>
        <time>2024-03-27T13:44:38Z</time>
      </trkpt>
      <trkpt lat="43.47629" lon="6.18014">
        <ele>151.9</ele>
        <time>2024-03-27T13:44:39Z</time>
      </trkpt>
      <trkpt lat="43.47629" lon="6.18014">
        <ele>151.9</ele>
        <time>2024-03-27T13:44:40Z</time>
      </trkpt>
      <trkpt lat="43.47629" lon="6.18014">
        <ele>151.9</ele>
        <time>2024-03-27T13:44:41Z</time>
      </trkpt>
      <trkpt lat="43.4763" lon="6.18013">
        <ele>151.8</ele>
        <time>2024-03-27T13:44:42Z</time>
      </trkpt>
      <trkpt lat="43.4763" lon="6.18011">
        <ele>151.7</ele>
        <time>2024-03-27T13:44:43Z</time>
      </trkpt>
      <trkpt lat="43.47631" lon="6.18011">
        <ele>151.7</ele>
        <time>2024-03-27T13:44:44Z</time>
      </trkpt>
      <trkpt lat="43.47631" lon="6.1801">
        <ele>151.7</ele>
        <time>2024-03-27T13:44:45Z</time>
      </trkpt>
      <trkpt lat="43.47631" lon="6.1801">
        <ele>151.7</ele>
        <time>2024-03-27T13:44:46Z</time>
      </trkpt>
      <trkpt lat="43.47632" lon="6.18009">
        <ele>151.8</ele>
        <time>2024-03-27T13:44:47Z</time>
      </trkpt>
      <trkpt lat="43.47632" lon="6.18009">
        <ele>151.9</ele>
        <time>2024-03-27T13:44:48Z</time>
      </trkpt>
      <trkpt lat="43.47632" lon="6.18009">
        <ele>152.1</ele>
        <time>2024-03-27T13:44:49Z</time>
      </trkpt>
      <trkpt lat="43.47632" lon="6.18008">
        <ele>152.1</ele>
        <time>2024-03-27T13:44:50Z</time>
      </trkpt>
      <trkpt lat="43.47632" lon="6.18008">
        <ele>152.2</ele>
        <time>2024-03-27T13:44:51Z</time>
      </trkpt>
      <trkpt lat="43.47632" lon="6.18008">
        <ele>152.5</ele>
        <time>2024-03-27T13:44:52Z</time>
      </trkpt>
      <trkpt lat="43.47632" lon="6.18007">
        <ele>152.6</ele>
        <time>2024-03-27T13:44:53Z</time>
      </trkpt>
      <trkpt lat="43.47633" lon="6.18007">
        <ele>152.7</ele>
        <time>2024-03-27T13:44:54Z</time>
      </trkpt>
      <trkpt lat="43.47632" lon="6.18007">
        <ele>152.8</ele>
        <time>2024-03-27T13:44:55Z</time>
      </trkpt>
      <trkpt lat="43.47632" lon="6.18007">
        <ele>152.8</ele>
        <time>2024-03-27T13:44:56Z</time>
      </trkpt>
      <trkpt lat="43.47632" lon="6.18007">
        <ele>152.7</ele>
        <time>2024-03-27T13:44:57Z</time>
      </trkpt>
      <trkpt lat="43.47632" lon="6.18006">
        <ele>152.7</ele>
        <time>2024-03-27T13:44:58Z</time>
      </trkpt>
      <trkpt lat="43.47632" lon="6.18006">
        <ele>152.7</ele>
        <time>2024-03-27T13:44:59Z</time>
      </trkpt>
      <trkpt lat="43.47633" lon="6.18006">
        <ele>152.7</ele>
        <time>2024-03-27T13:45:00Z</time>
      </trkpt>
      <trkpt lat="43.47633" lon="6.18005">
        <ele>152.7</ele>
        <time>2024-03-27T13:45:01Z</time>
      </trkpt>
      <trkpt lat="43.47633" lon="6.18005">
        <ele>152.6</ele>
        <time>2024-03-27T13:45:02Z</time>
      </trkpt>
      <trkpt lat="43.47633" lon="6.18005">
        <ele>152.5</ele>
        <time>2024-03-27T13:45:03Z</time>
      </trkpt>
      <trkpt lat="43.47633" lon="6.18005">
        <ele>152.4</ele>
        <time>2024-03-27T13:45:04Z</time>
      </trkpt>
      <trkpt lat="43.47633" lon="6.18005">
        <ele>152.4</ele>
        <time>2024-03-27T13:45:05Z</time>
      </trkpt>
      <trkpt lat="43.47633" lon="6.18005">
        <ele>152.5</ele>
        <time>2024-03-27T13:45:06Z</time>
      </trkpt>
      <trkpt lat="43.47633" lon="6.18005">
        <ele>152.5</ele>
        <time>2024-03-27T13:45:07Z</time>
      </trkpt>
      <trkpt lat="43.47633" lon="6.18005">
        <ele>152.5</ele>
        <time>2024-03-27T13:45:08Z</time>
      </trkpt>
      <trkpt lat="43.47633" lon="6.18006">
        <ele>152.5</ele>
        <time>2024-03-27T13:45:09Z</time>
      </trkpt>
      <trkpt lat="43.47633" lon="6.18006">
        <ele>152.4</ele>
        <time>2024-03-27T13:45:10Z</time>
      </trkpt>
      <trkpt lat="43.47632" lon="6.18007">
        <ele>152.4</ele>
        <time>2024-03-27T13:45:11Z</time>
      </trkpt>
      <trkpt lat="43.47632" lon="6.18007">
        <ele>152.4</ele>
        <time>2024-03-27T13:45:12Z</time>
      </trkpt>
      <trkpt lat="43.47631" lon="6.18007">
        <ele>152.4</ele>
        <time>2024-03-27T13:45:13Z</time>
      </trkpt>
      <trkpt lat="43.47632" lon="6.18006">
        <ele>152.4</ele>
        <time>2024-03-27T13:45:14Z</time>
      </trkpt>
      <trkpt lat="43.47632" lon="6.18006">
        <ele>152.4</ele>
        <time>2024-03-27T13:45:15Z</time>
      </trkpt>
      <trkpt lat="43.47632" lon="6.18005">
        <ele>152.4</ele>
        <time>2024-03-27T13:45:16Z</time>
      </trkpt>
      <trkpt lat="43.47632" lon="6.18005">
        <ele>152.3</ele>
        <time>2024-03-27T13:45:17Z</time>
      </trkpt>
      <trkpt lat="43.47632" lon="6.18006">
        <ele>152.3</ele>
        <time>2024-03-27T13:45:18Z</time>
      </trkpt>
      <trkpt lat="43.47632" lon="6.18006">
        <ele>152.2</ele>
        <time>2024-03-27T13:45:19Z</time>
      </trkpt>
      <trkpt lat="43.47632" lon="6.18006">
        <ele>152.2</ele>
        <time>2024-03-27T13:45:20Z</time>
      </trkpt>
      <trkpt lat="43.47631" lon="6.18005">
        <ele>152.3</ele>
        <time>2024-03-27T13:45:21Z</time>
      </trkpt>
      <trkpt lat="43.47631" lon="6.18005">
        <ele>152.3</ele>
        <time>2024-03-27T13:45:22Z</time>
      </trkpt>
      <trkpt lat="43.47631" lon="6.18005">
        <ele>152.3</ele>
        <time>2024-03-27T13:45:23Z</time>
      </trkpt>
      <trkpt lat="43.47631" lon="6.18004">
        <ele>152.3</ele>
        <time>2024-03-27T13:45:24Z</time>
      </trkpt>
      <trkpt lat="43.4763" lon="6.18004">
        <ele>152.1</ele>
        <time>2024-03-27T13:45:25Z</time>
      </trkpt>
      <trkpt lat="43.47631" lon="6.18004">
        <ele>152</ele>
        <time>2024-03-27T13:45:26Z</time>
      </trkpt>
      <trkpt lat="43.47631" lon="6.18004">
        <ele>152</ele>
        <time>2024-03-27T13:45:27Z</time>
      </trkpt>
      <trkpt lat="43.47631" lon="6.18004">
        <ele>152</ele>
        <time>2024-03-27T13:45:28Z</time>
      </trkpt>
      <trkpt lat="43.4763" lon="6.18003">
        <ele>152.1</ele>
        <time>2024-03-27T13:45:29Z</time>
      </trkpt>
      <trkpt lat="43.4763" lon="6.18003">
        <ele>152.1</ele>
        <time>2024-03-27T13:45:30Z</time>
      </trkpt>
      <trkpt lat="43.4763" lon="6.18002">
        <ele>152.3</ele>
        <time>2024-03-27T13:45:31Z</time>
      </trkpt>
      <trkpt lat="43.4763" lon="6.18002">
        <ele>152.4</ele>
        <time>2024-03-27T13:45:32Z</time>
      </trkpt>
      <trkpt lat="43.4763" lon="6.18002">
        <ele>152.4</ele>
        <time>2024-03-27T13:45:33Z</time>
      </trkpt>
      <trkpt lat="43.4763" lon="6.18002">
        <ele>152.5</ele>
        <time>2024-03-27T13:45:34Z</time>
      </trkpt>
      <trkpt lat="43.4763" lon="6.18002">
        <ele>152.4</ele>
        <time>2024-03-27T13:45:35Z</time>
      </trkpt>
      <trkpt lat="43.4763" lon="6.18002">
        <ele>152.3</ele>
        <time>2024-03-27T13:45:36Z</time>
      </trkpt>
      <trkpt lat="43.4763" lon="6.18003">
        <ele>152.2</ele>
        <time>2024-03-27T13:45:37Z</time>
      </trkpt>
      <trkpt lat="43.47631" lon="6.18002">
        <ele>152.2</ele>
        <time>2024-03-27T13:45:38Z</time>
      </trkpt>
      <trkpt lat="43.47631" lon="6.18002">
        <ele>152</ele>
        <time>2024-03-27T13:45:39Z</time>
      </trkpt>
      <trkpt lat="43.47631" lon="6.18002">
        <ele>151.8</ele>
        <time>2024-03-27T13:45:40Z</time>
      </trkpt>
      <trkpt lat="43.47632" lon="6.18004">
        <ele>151.7</ele>
        <time>2024-03-27T13:45:41Z</time>
      </trkpt>
      <trkpt lat="43.47632" lon="6.18002">
        <ele>151.4</ele>
        <time>2024-03-27T13:45:42Z</time>
      </trkpt>
      <trkpt lat="43.47633" lon="6.18003">
        <ele>151.4</ele>
        <time>2024-03-27T13:45:43Z</time>
      </trkpt>
      <trkpt lat="43.47635" lon="6.18006">
        <ele>151.2</ele>
        <time>2024-03-27T13:45:44Z</time>
      </trkpt>
      <trkpt lat="43.47637" lon="6.18007">
        <ele>151.1</ele>
        <time>2024-03-27T13:45:45Z</time>
      </trkpt>
      <trkpt lat="43.47638" lon="6.18009">
        <ele>151.1</ele>
        <time>2024-03-27T13:45:46Z</time>
      </trkpt>
      <trkpt lat="43.47639" lon="6.18009">
        <ele>151.1</ele>
        <time>2024-03-27T13:45:47Z</time>
      </trkpt>
      <trkpt lat="43.47639" lon="6.18009">
        <ele>151.1</ele>
        <time>2024-03-27T13:45:48Z</time>
      </trkpt>
      <trkpt lat="43.4764" lon="6.1801">
        <ele>151.2</ele>
        <time>2024-03-27T13:45:49Z</time>
      </trkpt>
      <trkpt lat="43.47642" lon="6.1801">
        <ele>151.2</ele>
        <time>2024-03-27T13:45:51Z</time>
      </trkpt>
      <trkpt lat="43.47643" lon="6.18011">
        <ele>151.3</ele>
        <time>2024-03-27T13:45:52Z</time>
      </trkpt>
      <trkpt lat="43.47643" lon="6.18012">
        <ele>151.6</ele>
        <time>2024-03-27T13:45:53Z</time>
      </trkpt>
      <trkpt lat="43.47644" lon="6.18012">
        <ele>151.5</ele>
        <time>2024-03-27T13:45:54Z</time>
      </trkpt>
      <trkpt lat="43.47645" lon="6.18013">
        <ele>151.6</ele>
        <time>2024-03-27T13:45:55Z</time>
      </trkpt>
      <trkpt lat="43.47646" lon="6.18012">
        <ele>151.5</ele>
        <time>2024-03-27T13:45:56Z</time>
      </trkpt>
      <trkpt lat="43.47646" lon="6.18014">
        <ele>151.4</ele>
        <time>2024-03-27T13:45:57Z</time>
      </trkpt>
      <trkpt lat="43.47646" lon="6.18015">
        <ele>151.4</ele>
        <time>2024-03-27T13:45:58Z</time>
      </trkpt>
      <trkpt lat="43.47646" lon="6.18016">
        <ele>151.5</ele>
        <time>2024-03-27T13:45:59Z</time>
      </trkpt>
      <trkpt lat="43.47647" lon="6.18016">
        <ele>151.7</ele>
        <time>2024-03-27T13:46:00Z</time>
      </trkpt>
      <trkpt lat="43.47647" lon="6.18017">
        <ele>151.8</ele>
        <time>2024-03-27T13:46:01Z</time>
      </trkpt>
      <trkpt lat="43.47648" lon="6.18018">
        <ele>151.8</ele>
        <time>2024-03-27T13:46:02Z</time>
      </trkpt>
      <trkpt lat="43.47648" lon="6.18018">
        <ele>151.9</ele>
        <time>2024-03-27T13:46:03Z</time>
      </trkpt>
      <trkpt lat="43.47646" lon="6.18021">
        <ele>151.9</ele>
        <time>2024-03-27T13:46:04Z</time>
      </trkpt>
      <trkpt lat="43.47646" lon="6.18022">
        <ele>151.9</ele>
        <time>2024-03-27T13:46:05Z</time>
      </trkpt>
      <trkpt lat="43.47648" lon="6.18026">
        <ele>151.8</ele>
        <time>2024-03-27T13:46:06Z</time>
      </trkpt>
      <trkpt lat="43.47649" lon="6.18027">
        <ele>151.9</ele>
        <time>2024-03-27T13:46:07Z</time>
      </trkpt>
      <trkpt lat="43.47648" lon="6.18027">
        <ele>151.8</ele>
        <time>2024-03-27T13:46:08Z</time>
      </trkpt>
      <trkpt lat="43.47649" lon="6.18029">
        <ele>151.7</ele>
        <time>2024-03-27T13:46:09Z</time>
      </trkpt>
      <trkpt lat="43.4765" lon="6.18029">
        <ele>151.7</ele>
        <time>2024-03-27T13:46:10Z</time>
      </trkpt>
      <trkpt lat="43.4765" lon="6.1803">
        <ele>151.5</ele>
        <time>2024-03-27T13:46:11Z</time>
      </trkpt>
      <trkpt lat="43.4765" lon="6.18031">
        <ele>151.3</ele>
        <time>2024-03-27T13:46:12Z</time>
      </trkpt>
      <trkpt lat="43.47651" lon="6.18033">
        <ele>151.1</ele>
        <time>2024-03-27T13:46:13Z</time>
      </trkpt>
      <trkpt lat="43.4765" lon="6.18034">
        <ele>151</ele>
        <time>2024-03-27T13:46:14Z</time>
      </trkpt>
      <trkpt lat="43.47651" lon="6.18036">
        <ele>150.9</ele>
        <time>2024-03-27T13:46:15Z</time>
      </trkpt>
      <trkpt lat="43.4765" lon="6.18037">
        <ele>150.9</ele>
        <time>2024-03-27T13:46:16Z</time>
      </trkpt>
      <trkpt lat="43.47649" lon="6.18038">
        <ele>150.8</ele>
        <time>2024-03-27T13:46:17Z</time>
      </trkpt>
      <trkpt lat="43.47648" lon="6.18038">
        <ele>150.9</ele>
        <time>2024-03-27T13:46:18Z</time>
      </trkpt>
      <trkpt lat="43.47649" lon="6.18039">
        <ele>151</ele>
        <time>2024-03-27T13:46:19Z</time>
      </trkpt>
      <trkpt lat="43.47651" lon="6.18041">
        <ele>151</ele>
        <time>2024-03-27T13:46:20Z</time>
      </trkpt>
      <trkpt lat="43.4765" lon="6.18042">
        <ele>150.9</ele>
        <time>2024-03-27T13:46:21Z</time>
      </trkpt>
      <trkpt lat="43.47651" lon="6.18044">
        <ele>150.8</ele>
        <time>2024-03-27T13:46:22Z</time>
      </trkpt>
      <trkpt lat="43.47653" lon="6.18046">
        <ele>150.6</ele>
        <time>2024-03-27T13:46:23Z</time>
      </trkpt>
      <trkpt lat="43.47653" lon="6.18048">
        <ele>150.3</ele>
        <time>2024-03-27T13:46:24Z</time>
      </trkpt>
      <trkpt lat="43.47653" lon="6.1805">
        <ele>149.8</ele>
        <time>2024-03-27T13:46:25Z</time>
      </trkpt>
      <trkpt lat="43.47654" lon="6.18052">
        <ele>149.6</ele>
        <time>2024-03-27T13:46:26Z</time>
      </trkpt>
      <trkpt lat="43.47655" lon="6.18053">
        <ele>149.3</ele>
        <time>2024-03-27T13:46:27Z</time>
      </trkpt>
      <trkpt lat="43.47655" lon="6.18055">
        <ele>149</ele>
        <time>2024-03-27T13:46:28Z</time>
      </trkpt>
      <trkpt lat="43.47653" lon="6.18059">
        <ele>148.6</ele>
        <time>2024-03-27T13:46:29Z</time>
      </trkpt>
      <trkpt lat="43.47655" lon="6.1806">
        <ele>148.4</ele>
        <time>2024-03-27T13:46:30Z</time>
      </trkpt>
      <trkpt lat="43.47655" lon="6.18061">
        <ele>148.2</ele>
        <time>2024-03-27T13:46:31Z</time>
      </trkpt>
      <trkpt lat="43.47656" lon="6.18062">
        <ele>148.1</ele>
        <time>2024-03-27T13:46:32Z</time>
      </trkpt>
      <trkpt lat="43.47657" lon="6.18061">
        <ele>147.9</ele>
        <time>2024-03-27T13:46:33Z</time>
      </trkpt>
      <trkpt lat="43.47658" lon="6.18061">
        <ele>147.8</ele>
        <time>2024-03-27T13:46:34Z</time>
      </trkpt>
      <trkpt lat="43.47658" lon="6.18059">
        <ele>147.8</ele>
        <time>2024-03-27T13:46:35Z</time>
      </trkpt>
      <trkpt lat="43.47657" lon="6.18059">
        <ele>147.7</ele>
        <time>2024-03-27T13:46:36Z</time>
      </trkpt>
      <trkpt lat="43.47656" lon="6.18058">
        <ele>147.7</ele>
        <time>2024-03-27T13:46:37Z</time>
      </trkpt>
      <trkpt lat="43.47657" lon="6.18058">
        <ele>147.6</ele>
        <time>2024-03-27T13:46:38Z</time>
      </trkpt>
      <trkpt lat="43.47656" lon="6.18057">
        <ele>147.6</ele>
        <time>2024-03-27T13:46:39Z</time>
      </trkpt>
      <trkpt lat="43.47655" lon="6.18057">
        <ele>147.4</ele>
        <time>2024-03-27T13:46:40Z</time>
      </trkpt>
      <trkpt lat="43.47654" lon="6.18056">
        <ele>147.3</ele>
        <time>2024-03-27T13:46:41Z</time>
      </trkpt>
      <trkpt lat="43.47654" lon="6.18056">
        <ele>147.3</ele>
        <time>2024-03-27T13:46:42Z</time>
      </trkpt>
      <trkpt lat="43.47654" lon="6.18055">
        <ele>147.3</ele>
        <time>2024-03-27T13:46:43Z</time>
      </trkpt>
      <trkpt lat="43.47655" lon="6.18055">
        <ele>147.3</ele>
        <time>2024-03-27T13:46:44Z</time>
      </trkpt>
      <trkpt lat="43.47656" lon="6.18054">
        <ele>147.3</ele>
        <time>2024-03-27T13:46:45Z</time>
      </trkpt>
      <trkpt lat="43.47656" lon="6.18054">
        <ele>147.2</ele>
        <time>2024-03-27T13:46:46Z</time>
      </trkpt>
      <trkpt lat="43.47657" lon="6.18055">
        <ele>147.2</ele>
        <time>2024-03-27T13:46:47Z</time>
      </trkpt>
      <trkpt lat="43.47657" lon="6.18054">
        <ele>147</ele>
        <time>2024-03-27T13:46:48Z</time>
      </trkpt>
      <trkpt lat="43.47657" lon="6.18052">
        <ele>146.9</ele>
        <time>2024-03-27T13:46:49Z</time>
      </trkpt>
      <trkpt lat="43.47656" lon="6.1805">
        <ele>146.8</ele>
        <time>2024-03-27T13:46:50Z</time>
      </trkpt>
      <trkpt lat="43.47657" lon="6.18049">
        <ele>146.7</ele>
        <time>2024-03-27T13:46:51Z</time>
      </trkpt>
      <trkpt lat="43.47657" lon="6.18048">
        <ele>146.5</ele>
        <time>2024-03-27T13:46:52Z</time>
      </trkpt>
      <trkpt lat="43.47659" lon="6.18047">
        <ele>146.3</ele>
        <time>2024-03-27T13:46:53Z</time>
      </trkpt>
      <trkpt lat="43.47659" lon="6.18046">
        <ele>146.1</ele>
        <time>2024-03-27T13:46:54Z</time>
      </trkpt>
      <trkpt lat="43.4766" lon="6.18045">
        <ele>145.9</ele>
        <time>2024-03-27T13:46:55Z</time>
      </trkpt>
      <trkpt lat="43.4766" lon="6.18043">
        <ele>145.6</ele>
        <time>2024-03-27T13:46:56Z</time>
      </trkpt>
      <trkpt lat="43.47659" lon="6.18041">
        <ele>145.3</ele>
        <time>2024-03-27T13:46:57Z</time>
      </trkpt>
      <trkpt lat="43.4766" lon="6.18039">
        <ele>145.1</ele>
        <time>2024-03-27T13:46:58Z</time>
      </trkpt>
      <trkpt lat="43.47661" lon="6.18038">
        <ele>144.9</ele>
        <time>2024-03-27T13:46:59Z</time>
      </trkpt>
      <trkpt lat="43.47661" lon="6.18037">
        <ele>144.7</ele>
        <time>2024-03-27T13:47:00Z</time>
      </trkpt>
      <trkpt lat="43.4766" lon="6.18036">
        <ele>144.5</ele>
        <time>2024-03-27T13:47:01Z</time>
      </trkpt>
      <trkpt lat="43.47662" lon="6.18037">
        <ele>144.3</ele>
        <time>2024-03-27T13:47:02Z</time>
      </trkpt>
      <trkpt lat="43.47662" lon="6.18036">
        <ele>144</ele>
        <time>2024-03-27T13:47:03Z</time>
      </trkpt>
      <trkpt lat="43.47661" lon="6.18035">
        <ele>143.7</ele>
        <time>2024-03-27T13:47:04Z</time>
      </trkpt>
      <trkpt lat="43.47662" lon="6.18035">
        <ele>143.5</ele>
        <time>2024-03-27T13:47:05Z</time>
      </trkpt>
      <trkpt lat="43.47666" lon="6.18033">
        <ele>143.3</ele>
        <time>2024-03-27T13:47:06Z</time>
      </trkpt>
      <trkpt lat="43.47667" lon="6.18033">
        <ele>143.1</ele>
        <time>2024-03-27T13:47:07Z</time>
      </trkpt>
      <trkpt lat="43.47665" lon="6.18032">
        <ele>142.9</ele>
        <time>2024-03-27T13:47:08Z</time>
      </trkpt>
      <trkpt lat="43.47664" lon="6.18032">
        <ele>142.8</ele>
        <time>2024-03-27T13:47:09Z</time>
      </trkpt>
      <trkpt lat="43.47664" lon="6.18031">
        <ele>142.8</ele>
        <time>2024-03-27T13:47:10Z</time>
      </trkpt>
      <trkpt lat="43.47664" lon="6.18031">
        <ele>142.8</ele>
        <time>2024-03-27T13:47:11Z</time>
      </trkpt>
      <trkpt lat="43.47663" lon="6.18031">
        <ele>142.7</ele>
        <time>2024-03-27T13:47:12Z</time>
      </trkpt>
      <trkpt lat="43.47663" lon="6.1803">
        <ele>142.6</ele>
        <time>2024-03-27T13:47:13Z</time>
      </trkpt>
      <trkpt lat="43.47664" lon="6.1803">
        <ele>142.5</ele>
        <time>2024-03-27T13:47:14Z</time>
      </trkpt>
      <trkpt lat="43.47664" lon="6.1803">
        <ele>142.5</ele>
        <time>2024-03-27T13:47:15Z</time>
      </trkpt>
      <trkpt lat="43.47663" lon="6.18031">
        <ele>142.4</ele>
        <time>2024-03-27T13:47:16Z</time>
      </trkpt>
      <trkpt lat="43.47663" lon="6.1803">
        <ele>142.4</ele>
        <time>2024-03-27T13:47:17Z</time>
      </trkpt>
      <trkpt lat="43.4766" lon="6.18029">
        <ele>142.4</ele>
        <time>2024-03-27T13:47:18Z</time>
      </trkpt>
      <trkpt lat="43.47658" lon="6.18029">
        <ele>142.3</ele>
        <time>2024-03-27T13:47:19Z</time>
      </trkpt>
      <trkpt lat="43.47656" lon="6.18029">
        <ele>142.3</ele>
        <time>2024-03-27T13:47:20Z</time>
      </trkpt>
      <trkpt lat="43.47654" lon="6.18028">
        <ele>142.3</ele>
        <time>2024-03-27T13:47:21Z</time>
      </trkpt>
      <trkpt lat="43.47652" lon="6.18028">
        <ele>142.3</ele>
        <time>2024-03-27T13:47:22Z</time>
      </trkpt>
      <trkpt lat="43.47651" lon="6.18027">
        <ele>142.3</ele>
        <time>2024-03-27T13:47:23Z</time>
      </trkpt>
      <trkpt lat="43.47651" lon="6.18027">
        <ele>142.4</ele>
        <time>2024-03-27T13:47:24Z</time>
      </trkpt>
      <trkpt lat="43.47651" lon="6.18027">
        <ele>142.4</ele>
        <time>2024-03-27T13:47:25Z</time>
      </trkpt>
      <trkpt lat="43.47652" lon="6.18027">
        <ele>142.4</ele>
        <time>2024-03-27T13:47:26Z</time>
      </trkpt>
      <trkpt lat="43.47654" lon="6.18027">
        <ele>142.4</ele>
        <time>2024-03-27T13:47:27Z</time>
      </trkpt>
      <trkpt lat="43.47655" lon="6.18027">
        <ele>142.4</ele>
        <time>2024-03-27T13:47:28Z</time>
      </trkpt>
      <trkpt lat="43.47655" lon="6.18027">
        <ele>142.4</ele>
        <time>2024-03-27T13:47:29Z</time>
      </trkpt>
      <trkpt lat="43.47657" lon="6.18026">
        <ele>142.3</ele>
        <time>2024-03-27T13:47:30Z</time>
      </trkpt>
      <trkpt lat="43.47658" lon="6.18026">
        <ele>142.3</ele>
        <time>2024-03-27T13:47:31Z</time>
      </trkpt>
      <trkpt lat="43.47659" lon="6.18025">
        <ele>142.4</ele>
        <time>2024-03-27T13:47:32Z</time>
      </trkpt>
      <trkpt lat="43.4766" lon="6.18026">
        <ele>142.4</ele>
        <time>2024-03-27T13:47:33Z</time>
      </trkpt>
      <trkpt lat="43.4766" lon="6.18027">
        <ele>142.4</ele>
        <time>2024-03-27T13:47:34Z</time>
      </trkpt>
      <trkpt lat="43.47661" lon="6.18027">
        <ele>142.4</ele>
        <time>2024-03-27T13:47:35Z</time>
      </trkpt>
      <trkpt lat="43.47662" lon="6.18027">
        <ele>142.3</ele>
        <time>2024-03-27T13:47:36Z</time>
      </trkpt>
      <trkpt lat="43.47664" lon="6.18026">
        <ele>142.3</ele>
        <time>2024-03-27T13:47:37Z</time>
      </trkpt>
      <trkpt lat="43.47666" lon="6.18026">
        <ele>142.3</ele>
        <time>2024-03-27T13:47:38Z</time>
      </trkpt>
      <trkpt lat="43.47667" lon="6.18026">
        <ele>142.2</ele>
        <time>2024-03-27T13:47:39Z</time>
      </trkpt>
      <trkpt lat="43.47668" lon="6.18027">
        <ele>142.1</ele>
        <time>2024-03-27T13:47:40Z</time>
      </trkpt>
      <trkpt lat="43.47669" lon="6.18027">
        <ele>142</ele>
        <time>2024-03-27T13:47:41Z</time>
      </trkpt>
      <trkpt lat="43.47669" lon="6.18028">
        <ele>142</ele>
        <time>2024-03-27T13:47:42Z</time>
      </trkpt>
      <trkpt lat="43.47669" lon="6.18028">
        <ele>141.9</ele>
        <time>2024-03-27T13:47:43Z</time>
      </trkpt>
      <trkpt lat="43.47669" lon="6.1803">
        <ele>141.9</ele>
        <time>2024-03-27T13:47:44Z</time>
      </trkpt>
      <trkpt lat="43.47669" lon="6.18031">
        <ele>141.8</ele>
        <time>2024-03-27T13:47:45Z</time>
      </trkpt>
      <trkpt lat="43.47668" lon="6.18032">
        <ele>141.8</ele>
        <time>2024-03-27T13:47:46Z</time>
      </trkpt>
      <trkpt lat="43.47668" lon="6.18032">
        <ele>141.9</ele>
        <time>2024-03-27T13:47:47Z</time>
      </trkpt>
      <trkpt lat="43.47669" lon="6.18033">
        <ele>141.7</ele>
        <time>2024-03-27T13:47:48Z</time>
      </trkpt>
      <trkpt lat="43.4767" lon="6.18034">
        <ele>141.6</ele>
        <time>2024-03-27T13:47:50Z</time>
      </trkpt>
      <trkpt lat="43.47673" lon="6.18036">
        <ele>141.5</ele>
        <time>2024-03-27T13:47:51Z</time>
      </trkpt>
      <trkpt lat="43.47673" lon="6.1804">
        <ele>141.4</ele>
        <time>2024-03-27T13:47:52Z</time>
      </trkpt>
      <trkpt lat="43.47673" lon="6.18041">
        <ele>141.3</ele>
        <time>2024-03-27T13:47:53Z</time>
      </trkpt>
      <trkpt lat="43.47674" lon="6.18042">
        <ele>141.3</ele>
        <time>2024-03-27T13:47:54Z</time>
      </trkpt>
      <trkpt lat="43.47673" lon="6.18045">
        <ele>141.2</ele>
        <time>2024-03-27T13:47:55Z</time>
      </trkpt>
      <trkpt lat="43.47674" lon="6.18048">
        <ele>141</ele>
        <time>2024-03-27T13:47:56Z</time>
      </trkpt>
      <trkpt lat="43.47675" lon="6.18048">
        <ele>140.8</ele>
        <time>2024-03-27T13:47:57Z</time>
      </trkpt>
      <trkpt lat="43.47677" lon="6.18047">
        <ele>140.8</ele>
        <time>2024-03-27T13:47:58Z</time>
      </trkpt>
      <trkpt lat="43.47677" lon="6.18048">
        <ele>140.7</ele>
        <time>2024-03-27T13:47:59Z</time>
      </trkpt>
      <trkpt lat="43.47677" lon="6.18048">
        <ele>140.7</ele>
        <time>2024-03-27T13:48:00Z</time>
      </trkpt>
      <trkpt lat="43.47676" lon="6.1805">
        <ele>140.7</ele>
        <time>2024-03-27T13:48:01Z</time>
      </trkpt>
      <trkpt lat="43.47677" lon="6.18053">
        <ele>140.7</ele>
        <time>2024-03-27T13:48:02Z</time>
      </trkpt>
      <trkpt lat="43.47676" lon="6.18052">
        <ele>140.6</ele>
        <time>2024-03-27T13:48:03Z</time>
      </trkpt>
      <trkpt lat="43.47676" lon="6.18052">
        <ele>140.6</ele>
        <time>2024-03-27T13:48:04Z</time>
      </trkpt>
      <trkpt lat="43.47676" lon="6.18056">
        <ele>140.5</ele>
        <time>2024-03-27T13:48:05Z</time>
      </trkpt>
      <trkpt lat="43.47675" lon="6.18055">
        <ele>140.5</ele>
        <time>2024-03-27T13:48:06Z</time>
      </trkpt>
      <trkpt lat="43.47676" lon="6.18055">
        <ele>140.4</ele>
        <time>2024-03-27T13:48:07Z</time>
      </trkpt>
      <trkpt lat="43.47676" lon="6.18056">
        <ele>140.3</ele>
        <time>2024-03-27T13:48:08Z</time>
      </trkpt>
      <trkpt lat="43.47676" lon="6.18057">
        <ele>140.2</ele>
        <time>2024-03-27T13:48:09Z</time>
      </trkpt>
      <trkpt lat="43.47677" lon="6.18058">
        <ele>140.1</ele>
        <time>2024-03-27T13:48:10Z</time>
      </trkpt>
      <trkpt lat="43.47676" lon="6.18058">
        <ele>140</ele>
        <time>2024-03-27T13:48:11Z</time>
      </trkpt>
      <trkpt lat="43.47676" lon="6.18057">
        <ele>139.9</ele>
        <time>2024-03-27T13:48:12Z</time>
      </trkpt>
      <trkpt lat="43.47677" lon="6.1806">
        <ele>139.8</ele>
        <time>2024-03-27T13:48:13Z</time>
      </trkpt>
      <trkpt lat="43.47678" lon="6.18061">
        <ele>139.7</ele>
        <time>2024-03-27T13:48:14Z</time>
      </trkpt>
      <trkpt lat="43.47678" lon="6.18062">
        <ele>139.5</ele>
        <time>2024-03-27T13:48:15Z</time>
      </trkpt>
      <trkpt lat="43.47679" lon="6.18062">
        <ele>139.4</ele>
        <time>2024-03-27T13:48:16Z</time>
      </trkpt>
      <trkpt lat="43.47681" lon="6.18066">
        <ele>139.3</ele>
        <time>2024-03-27T13:48:17Z</time>
      </trkpt>
      <trkpt lat="43.47682" lon="6.18068">
        <ele>139.2</ele>
        <time>2024-03-27T13:48:18Z</time>
      </trkpt>
      <trkpt lat="43.47682" lon="6.1807">
        <ele>139.2</ele>
        <time>2024-03-27T13:48:19Z</time>
      </trkpt>
      <trkpt lat="43.47684" lon="6.18072">
        <ele>139.2</ele>
        <time>2024-03-27T13:48:20Z</time>
      </trkpt>
      <trkpt lat="43.47685" lon="6.18074">
        <ele>139.2</ele>
        <time>2024-03-27T13:48:21Z</time>
      </trkpt>
      <trkpt lat="43.47688" lon="6.18076">
        <ele>139.1</ele>
        <time>2024-03-27T13:48:22Z</time>
      </trkpt>
      <trkpt lat="43.4769" lon="6.18078">
        <ele>139</ele>
        <time>2024-03-27T13:48:23Z</time>
      </trkpt>
      <trkpt lat="43.47691" lon="6.18079">
        <ele>139</ele>
        <time>2024-03-27T13:48:24Z</time>
      </trkpt>
      <trkpt lat="43.47692" lon="6.1808">
        <ele>138.9</ele>
        <time>2024-03-27T13:48:25Z</time>
      </trkpt>
      <trkpt lat="43.47693" lon="6.18081">
        <ele>138.9</ele>
        <time>2024-03-27T13:48:26Z</time>
      </trkpt>
      <trkpt lat="43.47694" lon="6.18082">
        <ele>138.9</ele>
        <time>2024-03-27T13:48:27Z</time>
      </trkpt>
      <trkpt lat="43.47696" lon="6.18083">
        <ele>138.9</ele>
        <time>2024-03-27T13:48:28Z</time>
      </trkpt>
      <trkpt lat="43.47697" lon="6.18084">
        <ele>139</ele>
        <time>2024-03-27T13:48:29Z</time>
      </trkpt>
      <trkpt lat="43.47698" lon="6.18086">
        <ele>138.8</ele>
        <time>2024-03-27T13:48:30Z</time>
      </trkpt>
      <trkpt lat="43.47699" lon="6.18087">
        <ele>138.7</ele>
        <time>2024-03-27T13:48:31Z</time>
      </trkpt>
      <trkpt lat="43.47699" lon="6.18088">
        <ele>138.6</ele>
        <time>2024-03-27T13:48:32Z</time>
      </trkpt>
      <trkpt lat="43.47699" lon="6.18089">
        <ele>138.5</ele>
        <time>2024-03-27T13:48:33Z</time>
      </trkpt>
      <trkpt lat="43.477" lon="6.1809">
        <ele>138.5</ele>
        <time>2024-03-27T13:48:34Z</time>
      </trkpt>
      <trkpt lat="43.477" lon="6.18091">
        <ele>138.4</ele>
        <time>2024-03-27T13:48:35Z</time>
      </trkpt>
      <trkpt lat="43.47701" lon="6.18092">
        <ele>138.3</ele>
        <time>2024-03-27T13:48:36Z</time>
      </trkpt>
      <trkpt lat="43.47701" lon="6.18093">
        <ele>138.2</ele>
        <time>2024-03-27T13:48:37Z</time>
      </trkpt>
      <trkpt lat="43.47702" lon="6.18094">
        <ele>138.1</ele>
        <time>2024-03-27T13:48:38Z</time>
      </trkpt>
      <trkpt lat="43.47702" lon="6.18094">
        <ele>137.9</ele>
        <time>2024-03-27T13:48:39Z</time>
      </trkpt>
      <trkpt lat="43.47702" lon="6.18095">
        <ele>137.7</ele>
        <time>2024-03-27T13:48:40Z</time>
      </trkpt>
      <trkpt lat="43.47703" lon="6.18096">
        <ele>137.7</ele>
        <time>2024-03-27T13:48:41Z</time>
      </trkpt>
      <trkpt lat="43.47704" lon="6.18096">
        <ele>137.7</ele>
        <time>2024-03-27T13:48:42Z</time>
      </trkpt>
      <trkpt lat="43.47706" lon="6.18096">
        <ele>137.6</ele>
        <time>2024-03-27T13:48:43Z</time>
      </trkpt>
      <trkpt lat="43.47707" lon="6.18097">
        <ele>137.6</ele>
        <time>2024-03-27T13:48:44Z</time>
      </trkpt>
      <trkpt lat="43.47709" lon="6.18098">
        <ele>137.6</ele>
        <time>2024-03-27T13:48:45Z</time>
      </trkpt>
      <trkpt lat="43.47709" lon="6.18098">
        <ele>137.5</ele>
        <time>2024-03-27T13:48:46Z</time>
      </trkpt>
      <trkpt lat="43.4771" lon="6.18099">
        <ele>137.5</ele>
        <time>2024-03-27T13:48:47Z</time>
      </trkpt>
      <trkpt lat="43.4771" lon="6.181">
        <ele>137.4</ele>
        <time>2024-03-27T13:48:48Z</time>
      </trkpt>
      <trkpt lat="43.4771" lon="6.18101">
        <ele>137.3</ele>
        <time>2024-03-27T13:48:49Z</time>
      </trkpt>
      <trkpt lat="43.47711" lon="6.18101">
        <ele>137.3</ele>
        <time>2024-03-27T13:48:50Z</time>
      </trkpt>
      <trkpt lat="43.47711" lon="6.18102">
        <ele>137.3</ele>
        <time>2024-03-27T13:48:51Z</time>
      </trkpt>
      <trkpt lat="43.47712" lon="6.18103">
        <ele>137.2</ele>
        <time>2024-03-27T13:48:52Z</time>
      </trkpt>
      <trkpt lat="43.47712" lon="6.18104">
        <ele>137.1</ele>
        <time>2024-03-27T13:48:53Z</time>
      </trkpt>
      <trkpt lat="43.47712" lon="6.18106">
        <ele>137</ele>
        <time>2024-03-27T13:48:54Z</time>
      </trkpt>
      <trkpt lat="43.47713" lon="6.18105">
        <ele>136.9</ele>
        <time>2024-03-27T13:48:55Z</time>
      </trkpt>
      <trkpt lat="43.47713" lon="6.18106">
        <ele>136.9</ele>
        <time>2024-03-27T13:48:56Z</time>
      </trkpt>
      <trkpt lat="43.47712" lon="6.18108">
        <ele>136.9</ele>
        <time>2024-03-27T13:48:57Z</time>
      </trkpt>
      <trkpt lat="43.47713" lon="6.18107">
        <ele>136.9</ele>
        <time>2024-03-27T13:48:58Z</time>
      </trkpt>
      <trkpt lat="43.47713" lon="6.18108">
        <ele>136.9</ele>
        <time>2024-03-27T13:48:59Z</time>
      </trkpt>
      <trkpt lat="43.47714" lon="6.1811">
        <ele>136.9</ele>
        <time>2024-03-27T13:49:00Z</time>
      </trkpt>
      <trkpt lat="43.47715" lon="6.18111">
        <ele>136.9</ele>
        <time>2024-03-27T13:49:01Z</time>
      </trkpt>
      <trkpt lat="43.47715" lon="6.18112">
        <ele>136.9</ele>
        <time>2024-03-27T13:49:02Z</time>
      </trkpt>
      <trkpt lat="43.47715" lon="6.18113">
        <ele>136.8</ele>
        <time>2024-03-27T13:49:03Z</time>
      </trkpt>
      <trkpt lat="43.47716" lon="6.18113">
        <ele>136.7</ele>
        <time>2024-03-27T13:49:04Z</time>
      </trkpt>
      <trkpt lat="43.47716" lon="6.18113">
        <ele>136.6</ele>
        <time>2024-03-27T13:49:05Z</time>
      </trkpt>
      <trkpt lat="43.47716" lon="6.18114">
        <ele>136.5</ele>
        <time>2024-03-27T13:49:06Z</time>
      </trkpt>
      <trkpt lat="43.47716" lon="6.18114">
        <ele>136.4</ele>
        <time>2024-03-27T13:49:07Z</time>
      </trkpt>
      <trkpt lat="43.47716" lon="6.18115">
        <ele>136.5</ele>
        <time>2024-03-27T13:49:08Z</time>
      </trkpt>
      <trkpt lat="43.47715" lon="6.18115">
        <ele>136.5</ele>
        <time>2024-03-27T13:49:09Z</time>
      </trkpt>
      <trkpt lat="43.47715" lon="6.18116">
        <ele>136.5</ele>
        <time>2024-03-27T13:49:10Z</time>
      </trkpt>
      <trkpt lat="43.47716" lon="6.18116">
        <ele>136.4</ele>
        <time>2024-03-27T13:49:11Z</time>
      </trkpt>
      <trkpt lat="43.47716" lon="6.18116">
        <ele>136.4</ele>
        <time>2024-03-27T13:49:12Z</time>
      </trkpt>
      <trkpt lat="43.47717" lon="6.18117">
        <ele>136.3</ele>
        <time>2024-03-27T13:49:13Z</time>
      </trkpt>
      <trkpt lat="43.47717" lon="6.18117">
        <ele>136.2</ele>
        <time>2024-03-27T13:49:14Z</time>
      </trkpt>
      <trkpt lat="43.47717" lon="6.18117">
        <ele>136.1</ele>
        <time>2024-03-27T13:49:15Z</time>
      </trkpt>
      <trkpt lat="43.47717" lon="6.18117">
        <ele>136</ele>
        <time>2024-03-27T13:49:16Z</time>
      </trkpt>
      <trkpt lat="43.47717" lon="6.18118">
        <ele>136</ele>
        <time>2024-03-27T13:49:17Z</time>
      </trkpt>
      <trkpt lat="43.47718" lon="6.18117">
        <ele>136</ele>
        <time>2024-03-27T13:49:18Z</time>
      </trkpt>
      <trkpt lat="43.47718" lon="6.18118">
        <ele>136</ele>
        <time>2024-03-27T13:49:19Z</time>
      </trkpt>
      <trkpt lat="43.47717" lon="6.18118">
        <ele>136</ele>
        <time>2024-03-27T13:49:20Z</time>
      </trkpt>
      <trkpt lat="43.47717" lon="6.18118">
        <ele>136</ele>
        <time>2024-03-27T13:49:21Z</time>
      </trkpt>
      <trkpt lat="43.47718" lon="6.18118">
        <ele>136</ele>
        <time>2024-03-27T13:49:22Z</time>
      </trkpt>
      <trkpt lat="43.47717" lon="6.18118">
        <ele>136.1</ele>
        <time>2024-03-27T13:49:23Z</time>
      </trkpt>
      <trkpt lat="43.47717" lon="6.18119">
        <ele>136.1</ele>
        <time>2024-03-27T13:49:24Z</time>
      </trkpt>
      <trkpt lat="43.47717" lon="6.18119">
        <ele>136.1</ele>
        <time>2024-03-27T13:49:25Z</time>
      </trkpt>
      <trkpt lat="43.47717" lon="6.18119">
        <ele>136.2</ele>
        <time>2024-03-27T13:49:26Z</time>
      </trkpt>
      <trkpt lat="43.47717" lon="6.18119">
        <ele>136.2</ele>
        <time>2024-03-27T13:49:27Z</time>
      </trkpt>
      <trkpt lat="43.47717" lon="6.18119">
        <ele>136.3</ele>
        <time>2024-03-27T13:49:28Z</time>
      </trkpt>
      <trkpt lat="43.47717" lon="6.18119">
        <ele>136.4</ele>
        <time>2024-03-27T13:49:29Z</time>
      </trkpt>
      <trkpt lat="43.47718" lon="6.1812">
        <ele>136.4</ele>
        <time>2024-03-27T13:49:30Z</time>
      </trkpt>
      <trkpt lat="43.47718" lon="6.1812">
        <ele>136.4</ele>
        <time>2024-03-27T13:49:31Z</time>
      </trkpt>
      <trkpt lat="43.47718" lon="6.1812">
        <ele>136.5</ele>
        <time>2024-03-27T13:49:32Z</time>
      </trkpt>
      <trkpt lat="43.47718" lon="6.18121">
        <ele>136.4</ele>
        <time>2024-03-27T13:49:33Z</time>
      </trkpt>
      <trkpt lat="43.47719" lon="6.18121">
        <ele>136.4</ele>
        <time>2024-03-27T13:49:34Z</time>
      </trkpt>
      <trkpt lat="43.4772" lon="6.18122">
        <ele>136.4</ele>
        <time>2024-03-27T13:49:35Z</time>
      </trkpt>
      <trkpt lat="43.47721" lon="6.18122">
        <ele>136.4</ele>
        <time>2024-03-27T13:49:36Z</time>
      </trkpt>
      <trkpt lat="43.47723" lon="6.18122">
        <ele>136.2</ele>
        <time>2024-03-27T13:49:37Z</time>
      </trkpt>
      <trkpt lat="43.47723" lon="6.18123">
        <ele>136.1</ele>
        <time>2024-03-27T13:49:38Z</time>
      </trkpt>
      <trkpt lat="43.47724" lon="6.18122">
        <ele>136</ele>
        <time>2024-03-27T13:49:39Z</time>
      </trkpt>
      <trkpt lat="43.47727" lon="6.18123">
        <ele>135.9</ele>
        <time>2024-03-27T13:49:40Z</time>
      </trkpt>
      <trkpt lat="43.47728" lon="6.18123">
        <ele>135.9</ele>
        <time>2024-03-27T13:49:41Z</time>
      </trkpt>
      <trkpt lat="43.47729" lon="6.18123">
        <ele>135.8</ele>
        <time>2024-03-27T13:49:42Z</time>
      </trkpt>
      <trkpt lat="43.4773" lon="6.18122">
        <ele>135.7</ele>
        <time>2024-03-27T13:49:43Z</time>
      </trkpt>
      <trkpt lat="43.47731" lon="6.18122">
        <ele>135.6</ele>
        <time>2024-03-27T13:49:44Z</time>
      </trkpt>
      <trkpt lat="43.47732" lon="6.18121">
        <ele>135.5</ele>
        <time>2024-03-27T13:49:45Z</time>
      </trkpt>
      <trkpt lat="43.47733" lon="6.18123">
        <ele>135.4</ele>
        <time>2024-03-27T13:49:46Z</time>
      </trkpt>
      <trkpt lat="43.47733" lon="6.18125">
        <ele>135.3</ele>
        <time>2024-03-27T13:49:47Z</time>
      </trkpt>
      <trkpt lat="43.47734" lon="6.18126">
        <ele>135.2</ele>
        <time>2024-03-27T13:49:48Z</time>
      </trkpt>
      <trkpt lat="43.47734" lon="6.18129">
        <ele>135.1</ele>
        <time>2024-03-27T13:49:49Z</time>
      </trkpt>
      <trkpt lat="43.47735" lon="6.18131">
        <ele>135.1</ele>
        <time>2024-03-27T13:49:50Z</time>
      </trkpt>
      <trkpt lat="43.47736" lon="6.18133">
        <ele>134.8</ele>
        <time>2024-03-27T13:49:51Z</time>
      </trkpt>
      <trkpt lat="43.47737" lon="6.18135">
        <ele>134.7</ele>
        <time>2024-03-27T13:49:52Z</time>
      </trkpt>
      <trkpt lat="43.47738" lon="6.18137">
        <ele>134.7</ele>
        <time>2024-03-27T13:49:53Z</time>
      </trkpt>
      <trkpt lat="43.47739" lon="6.18139">
        <ele>134.4</ele>
        <time>2024-03-27T13:49:54Z</time>
      </trkpt>
      <trkpt lat="43.4774" lon="6.18142">
        <ele>134.3</ele>
        <time>2024-03-27T13:49:55Z</time>
      </trkpt>
      <trkpt lat="43.4774" lon="6.18144">
        <ele>134.3</ele>
        <time>2024-03-27T13:49:56Z</time>
      </trkpt>
      <trkpt lat="43.47739" lon="6.18146">
        <ele>134.1</ele>
        <time>2024-03-27T13:49:57Z</time>
      </trkpt>
      <trkpt lat="43.47739" lon="6.18148">
        <ele>134</ele>
        <time>2024-03-27T13:49:58Z</time>
      </trkpt>
      <trkpt lat="43.47739" lon="6.18149">
        <ele>134.1</ele>
        <time>2024-03-27T13:49:59Z</time>
      </trkpt>
      <trkpt lat="43.47739" lon="6.18151">
        <ele>134.1</ele>
        <time>2024-03-27T13:50:00Z</time>
      </trkpt>
      <trkpt lat="43.47739" lon="6.18153">
        <ele>134.1</ele>
        <time>2024-03-27T13:50:01Z</time>
      </trkpt>
      <trkpt lat="43.47738" lon="6.18154">
        <ele>134.1</ele>
        <time>2024-03-27T13:50:02Z</time>
      </trkpt>
      <trkpt lat="43.47739" lon="6.18156">
        <ele>133.9</ele>
        <time>2024-03-27T13:50:03Z</time>
      </trkpt>
      <trkpt lat="43.47739" lon="6.18158">
        <ele>133.8</ele>
        <time>2024-03-27T13:50:04Z</time>
      </trkpt>
      <trkpt lat="43.47739" lon="6.18159">
        <ele>133.8</ele>
        <time>2024-03-27T13:50:05Z</time>
      </trkpt>
      <trkpt lat="43.47739" lon="6.1816">
        <ele>133.7</ele>
        <time>2024-03-27T13:50:06Z</time>
      </trkpt>
      <trkpt lat="43.47739" lon="6.18162">
        <ele>133.7</ele>
        <time>2024-03-27T13:50:07Z</time>
      </trkpt>
      <trkpt lat="43.47739" lon="6.18163">
        <ele>133.7</ele>
        <time>2024-03-27T13:50:08Z</time>
      </trkpt>
      <trkpt lat="43.47739" lon="6.18164">
        <ele>133.7</ele>
        <time>2024-03-27T13:50:09Z</time>
      </trkpt>
      <trkpt lat="43.47739" lon="6.18165">
        <ele>133.6</ele>
        <time>2024-03-27T13:50:10Z</time>
      </trkpt>
      <trkpt lat="43.4774" lon="6.18167">
        <ele>133.5</ele>
        <time>2024-03-27T13:50:11Z</time>
      </trkpt>
      <trkpt lat="43.47741" lon="6.18169">
        <ele>133.5</ele>
        <time>2024-03-27T13:50:12Z</time>
      </trkpt>
      <trkpt lat="43.4774" lon="6.1817">
        <ele>133.4</ele>
        <time>2024-03-27T13:50:13Z</time>
      </trkpt>
      <trkpt lat="43.4774" lon="6.18171">
        <ele>133.4</ele>
        <time>2024-03-27T13:50:14Z</time>
      </trkpt>
      <trkpt lat="43.4774" lon="6.18171">
        <ele>133.5</ele>
        <time>2024-03-27T13:50:15Z</time>
      </trkpt>
      <trkpt lat="43.4774" lon="6.18173">
        <ele>133.4</ele>
        <time>2024-03-27T13:50:16Z</time>
      </trkpt>
      <trkpt lat="43.47741" lon="6.18175">
        <ele>133.4</ele>
        <time>2024-03-27T13:50:17Z</time>
      </trkpt>
      <trkpt lat="43.4774" lon="6.18176">
        <ele>133.3</ele>
        <time>2024-03-27T13:50:18Z</time>
      </trkpt>
      <trkpt lat="43.47741" lon="6.18177">
        <ele>133.2</ele>
        <time>2024-03-27T13:50:19Z</time>
      </trkpt>
      <trkpt lat="43.47741" lon="6.18179">
        <ele>133.2</ele>
        <time>2024-03-27T13:50:20Z</time>
      </trkpt>
      <trkpt lat="43.4774" lon="6.1818">
        <ele>133.2</ele>
        <time>2024-03-27T13:50:21Z</time>
      </trkpt>
      <trkpt lat="43.47741" lon="6.18182">
        <ele>133.1</ele>
        <time>2024-03-27T13:50:22Z</time>
      </trkpt>
      <trkpt lat="43.47742" lon="6.18184">
        <ele>133</ele>
        <time>2024-03-27T13:50:23Z</time>
      </trkpt>
      <trkpt lat="43.47741" lon="6.18185">
        <ele>133</ele>
        <time>2024-03-27T13:50:24Z</time>
      </trkpt>
      <trkpt lat="43.47741" lon="6.18186">
        <ele>132.9</ele>
        <time>2024-03-27T13:50:25Z</time>
      </trkpt>
      <trkpt lat="43.47741" lon="6.18188">
        <ele>132.8</ele>
        <time>2024-03-27T13:50:26Z</time>
      </trkpt>
      <trkpt lat="43.47742" lon="6.1819">
        <ele>132.8</ele>
        <time>2024-03-27T13:50:27Z</time>
      </trkpt>
      <trkpt lat="43.47743" lon="6.18192">
        <ele>132.7</ele>
        <time>2024-03-27T13:50:28Z</time>
      </trkpt>
      <trkpt lat="43.47743" lon="6.18193">
        <ele>132.7</ele>
        <time>2024-03-27T13:50:29Z</time>
      </trkpt>
      <trkpt lat="43.47744" lon="6.18195">
        <ele>132.7</ele>
        <time>2024-03-27T13:50:30Z</time>
      </trkpt>
      <trkpt lat="43.47743" lon="6.18196">
        <ele>132.7</ele>
        <time>2024-03-27T13:50:31Z</time>
      </trkpt>
      <trkpt lat="43.47744" lon="6.18198">
        <ele>132.6</ele>
        <time>2024-03-27T13:50:32Z</time>
      </trkpt>
      <trkpt lat="43.47744" lon="6.18199">
        <ele>132.6</ele>
        <time>2024-03-27T13:50:33Z</time>
      </trkpt>
      <trkpt lat="43.47745" lon="6.182">
        <ele>132.6</ele>
        <time>2024-03-27T13:50:34Z</time>
      </trkpt>
      <trkpt lat="43.47745" lon="6.18201">
        <ele>132.6</ele>
        <time>2024-03-27T13:50:35Z</time>
      </trkpt>
      <trkpt lat="43.47745" lon="6.18202">
        <ele>132.5</ele>
        <time>2024-03-27T13:50:36Z</time>
      </trkpt>
      <trkpt lat="43.47745" lon="6.18203">
        <ele>132.5</ele>
        <time>2024-03-27T13:50:37Z</time>
      </trkpt>
      <trkpt lat="43.47745" lon="6.18205">
        <ele>132.4</ele>
        <time>2024-03-27T13:50:38Z</time>
      </trkpt>
      <trkpt lat="43.47745" lon="6.18206">
        <ele>132.4</ele>
        <time>2024-03-27T13:50:39Z</time>
      </trkpt>
      <trkpt lat="43.47745" lon="6.18207">
        <ele>132.3</ele>
        <time>2024-03-27T13:50:40Z</time>
      </trkpt>
      <trkpt lat="43.47745" lon="6.18208">
        <ele>132.3</ele>
        <time>2024-03-27T13:50:41Z</time>
      </trkpt>
      <trkpt lat="43.47746" lon="6.1821">
        <ele>132.4</ele>
        <time>2024-03-27T13:50:42Z</time>
      </trkpt>
      <trkpt lat="43.47746" lon="6.18212">
        <ele>132.4</ele>
        <time>2024-03-27T13:50:43Z</time>
      </trkpt>
      <trkpt lat="43.47747" lon="6.18213">
        <ele>132.3</ele>
        <time>2024-03-27T13:50:44Z</time>
      </trkpt>
      <trkpt lat="43.47747" lon="6.18215">
        <ele>132.2</ele>
        <time>2024-03-27T13:50:45Z</time>
      </trkpt>
      <trkpt lat="43.47748" lon="6.18215">
        <ele>132.1</ele>
        <time>2024-03-27T13:50:46Z</time>
      </trkpt>
      <trkpt lat="43.47749" lon="6.18216">
        <ele>132</ele>
        <time>2024-03-27T13:50:47Z</time>
      </trkpt>
      <trkpt lat="43.47749" lon="6.18219">
        <ele>132.1</ele>
        <time>2024-03-27T13:50:48Z</time>
      </trkpt>
      <trkpt lat="43.47749" lon="6.1822">
        <ele>132.1</ele>
        <time>2024-03-27T13:50:49Z</time>
      </trkpt>
      <trkpt lat="43.4775" lon="6.18221">
        <ele>132</ele>
        <time>2024-03-27T13:50:50Z</time>
      </trkpt>
      <trkpt lat="43.4775" lon="6.18223">
        <ele>131.9</ele>
        <time>2024-03-27T13:50:51Z</time>
      </trkpt>
      <trkpt lat="43.4775" lon="6.18224">
        <ele>131.9</ele>
        <time>2024-03-27T13:50:52Z</time>
      </trkpt>
      <trkpt lat="43.47751" lon="6.18226">
        <ele>131.9</ele>
        <time>2024-03-27T13:50:53Z</time>
      </trkpt>
      <trkpt lat="43.4775" lon="6.18226">
        <ele>131.9</ele>
        <time>2024-03-27T13:50:54Z</time>
      </trkpt>
      <trkpt lat="43.4775" lon="6.18227">
        <ele>131.8</ele>
        <time>2024-03-27T13:50:55Z</time>
      </trkpt>
      <trkpt lat="43.47751" lon="6.18229">
        <ele>131.8</ele>
        <time>2024-03-27T13:50:56Z</time>
      </trkpt>
      <trkpt lat="43.47751" lon="6.1823">
        <ele>131.7</ele>
        <time>2024-03-27T13:50:57Z</time>
      </trkpt>
      <trkpt lat="43.47752" lon="6.18231">
        <ele>131.7</ele>
        <time>2024-03-27T13:50:58Z</time>
      </trkpt>
      <trkpt lat="43.47753" lon="6.18232">
        <ele>131.7</ele>
        <time>2024-03-27T13:50:59Z</time>
      </trkpt>
      <trkpt lat="43.47754" lon="6.18234">
        <ele>131.7</ele>
        <time>2024-03-27T13:51:00Z</time>
      </trkpt>
      <trkpt lat="43.47754" lon="6.18235">
        <ele>131.7</ele>
        <time>2024-03-27T13:51:01Z</time>
      </trkpt>
      <trkpt lat="43.47755" lon="6.18235">
        <ele>131.7</ele>
        <time>2024-03-27T13:51:02Z</time>
      </trkpt>
      <trkpt lat="43.47755" lon="6.18236">
        <ele>131.7</ele>
        <time>2024-03-27T13:51:03Z</time>
      </trkpt>
      <trkpt lat="43.47756" lon="6.18238">
        <ele>131.7</ele>
        <time>2024-03-27T13:51:04Z</time>
      </trkpt>
      <trkpt lat="43.47756" lon="6.18239">
        <ele>131.6</ele>
        <time>2024-03-27T13:51:05Z</time>
      </trkpt>
      <trkpt lat="43.47756" lon="6.18241">
        <ele>131.4</ele>
        <time>2024-03-27T13:51:06Z</time>
      </trkpt>
      <trkpt lat="43.47757" lon="6.18242">
        <ele>131.3</ele>
        <time>2024-03-27T13:51:07Z</time>
      </trkpt>
      <trkpt lat="43.47757" lon="6.18243">
        <ele>131.3</ele>
        <time>2024-03-27T13:51:08Z</time>
      </trkpt>
      <trkpt lat="43.47756" lon="6.18244">
        <ele>131.3</ele>
        <time>2024-03-27T13:51:09Z</time>
      </trkpt>
      <trkpt lat="43.47756" lon="6.18246">
        <ele>131.1</ele>
        <time>2024-03-27T13:51:10Z</time>
      </trkpt>
      <trkpt lat="43.47757" lon="6.18247">
        <ele>130.9</ele>
        <time>2024-03-27T13:51:11Z</time>
      </trkpt>
      <trkpt lat="43.47757" lon="6.18248">
        <ele>130.9</ele>
        <time>2024-03-27T13:51:12Z</time>
      </trkpt>
      <trkpt lat="43.47756" lon="6.18249">
        <ele>130.8</ele>
        <time>2024-03-27T13:51:13Z</time>
      </trkpt>
      <trkpt lat="43.47757" lon="6.18251">
        <ele>130.9</ele>
        <time>2024-03-27T13:51:14Z</time>
      </trkpt>
      <trkpt lat="43.47757" lon="6.18252">
        <ele>131</ele>
        <time>2024-03-27T13:51:15Z</time>
      </trkpt>
      <trkpt lat="43.47757" lon="6.18253">
        <ele>131.1</ele>
        <time>2024-03-27T13:51:16Z</time>
      </trkpt>
      <trkpt lat="43.47757" lon="6.18255">
        <ele>130.9</ele>
        <time>2024-03-27T13:51:17Z</time>
      </trkpt>
      <trkpt lat="43.47757" lon="6.18256">
        <ele>130.9</ele>
        <time>2024-03-27T13:51:18Z</time>
      </trkpt>
      <trkpt lat="43.47758" lon="6.18258">
        <ele>130.8</ele>
        <time>2024-03-27T13:51:19Z</time>
      </trkpt>
      <trkpt lat="43.47758" lon="6.18259">
        <ele>130.9</ele>
        <time>2024-03-27T13:51:20Z</time>
      </trkpt>
      <trkpt lat="43.47758" lon="6.1826">
        <ele>130.9</ele>
        <time>2024-03-27T13:51:21Z</time>
      </trkpt>
      <trkpt lat="43.47757" lon="6.18261">
        <ele>131</ele>
        <time>2024-03-27T13:51:22Z</time>
      </trkpt>
      <trkpt lat="43.47757" lon="6.18262">
        <ele>130.9</ele>
        <time>2024-03-27T13:51:23Z</time>
      </trkpt>
      <trkpt lat="43.47757" lon="6.18263">
        <ele>130.8</ele>
        <time>2024-03-27T13:51:24Z</time>
      </trkpt>
      <trkpt lat="43.47757" lon="6.18264">
        <ele>130.8</ele>
        <time>2024-03-27T13:51:25Z</time>
      </trkpt>
      <trkpt lat="43.47757" lon="6.18266">
        <ele>130.7</ele>
        <time>2024-03-27T13:51:26Z</time>
      </trkpt>
      <trkpt lat="43.47757" lon="6.18266">
        <ele>130.8</ele>
        <time>2024-03-27T13:51:27Z</time>
      </trkpt>
      <trkpt lat="43.47756" lon="6.18268">
        <ele>130.7</ele>
        <time>2024-03-27T13:51:28Z</time>
      </trkpt>
      <trkpt lat="43.47756" lon="6.18269">
        <ele>130.6</ele>
        <time>2024-03-27T13:51:29Z</time>
      </trkpt>
      <trkpt lat="43.47757" lon="6.18271">
        <ele>130.5</ele>
        <time>2024-03-27T13:51:30Z</time>
      </trkpt>
      <trkpt lat="43.47757" lon="6.18271">
        <ele>130.5</ele>
        <time>2024-03-27T13:51:31Z</time>
      </trkpt>
      <trkpt lat="43.47757" lon="6.18271">
        <ele>130.4</ele>
        <time>2024-03-27T13:51:32Z</time>
      </trkpt>
      <trkpt lat="43.47757" lon="6.18271">
        <ele>130.4</ele>
        <time>2024-03-27T13:51:33Z</time>
      </trkpt>
      <trkpt lat="43.47757" lon="6.18272">
        <ele>130.4</ele>
        <time>2024-03-27T13:51:34Z</time>
      </trkpt>
      <trkpt lat="43.47757" lon="6.18272">
        <ele>130.4</ele>
        <time>2024-03-27T13:51:35Z</time>
      </trkpt>
      <trkpt lat="43.47758" lon="6.18272">
        <ele>130.4</ele>
        <time>2024-03-27T13:51:36Z</time>
      </trkpt>
      <trkpt lat="43.47758" lon="6.18272">
        <ele>130.4</ele>
        <time>2024-03-27T13:51:37Z</time>
      </trkpt>
      <trkpt lat="43.47758" lon="6.18272">
        <ele>130.4</ele>
        <time>2024-03-27T13:51:38Z</time>
      </trkpt>
      <trkpt lat="43.47758" lon="6.18271">
        <ele>130.3</ele>
        <time>2024-03-27T13:51:39Z</time>
      </trkpt>
      <trkpt lat="43.47758" lon="6.18271">
        <ele>130.3</ele>
        <time>2024-03-27T13:51:40Z</time>
      </trkpt>
      <trkpt lat="43.47759" lon="6.1827">
        <ele>130.3</ele>
        <time>2024-03-27T13:51:41Z</time>
      </trkpt>
      <trkpt lat="43.47759" lon="6.1827">
        <ele>130.2</ele>
        <time>2024-03-27T13:51:42Z</time>
      </trkpt>
      <trkpt lat="43.4776" lon="6.1827">
        <ele>130.3</ele>
        <time>2024-03-27T13:51:43Z</time>
      </trkpt>
      <trkpt lat="43.4776" lon="6.1827">
        <ele>130.3</ele>
        <time>2024-03-27T13:51:44Z</time>
      </trkpt>
      <trkpt lat="43.47761" lon="6.18269">
        <ele>130.3</ele>
        <time>2024-03-27T13:51:45Z</time>
      </trkpt>
      <trkpt lat="43.47761" lon="6.18269">
        <ele>130.3</ele>
        <time>2024-03-27T13:51:46Z</time>
      </trkpt>
      <trkpt lat="43.47761" lon="6.18268">
        <ele>130.4</ele>
        <time>2024-03-27T13:51:47Z</time>
      </trkpt>
      <trkpt lat="43.47761" lon="6.18268">
        <ele>130.6</ele>
        <time>2024-03-27T13:51:48Z</time>
      </trkpt>
      <trkpt lat="43.47761" lon="6.18269">
        <ele>130.7</ele>
        <time>2024-03-27T13:51:49Z</time>
      </trkpt>
      <trkpt lat="43.47761" lon="6.18269">
        <ele>130.9</ele>
        <time>2024-03-27T13:51:50Z</time>
      </trkpt>
      <trkpt lat="43.47761" lon="6.18269">
        <ele>131</ele>
        <time>2024-03-27T13:51:51Z</time>
      </trkpt>
      <trkpt lat="43.47761" lon="6.1827">
        <ele>131.2</ele>
        <time>2024-03-27T13:51:52Z</time>
      </trkpt>
      <trkpt lat="43.47762" lon="6.18271">
        <ele>131.3</ele>
        <time>2024-03-27T13:51:53Z</time>
      </trkpt>
      <trkpt lat="43.47763" lon="6.18272">
        <ele>131.2</ele>
        <time>2024-03-27T13:51:54Z</time>
      </trkpt>
      <trkpt lat="43.47764" lon="6.18273">
        <ele>131.2</ele>
        <time>2024-03-27T13:51:55Z</time>
      </trkpt>
      <trkpt lat="43.47764" lon="6.18274">
        <ele>131.2</ele>
        <time>2024-03-27T13:51:56Z</time>
      </trkpt>
      <trkpt lat="43.47765" lon="6.18274">
        <ele>131.2</ele>
        <time>2024-03-27T13:51:57Z</time>
      </trkpt>
      <trkpt lat="43.47767" lon="6.18275">
        <ele>131</ele>
        <time>2024-03-27T13:51:58Z</time>
      </trkpt>
      <trkpt lat="43.47768" lon="6.18276">
        <ele>131</ele>
        <time>2024-03-27T13:51:59Z</time>
      </trkpt>
      <trkpt lat="43.47768" lon="6.18276">
        <ele>130.9</ele>
        <time>2024-03-27T13:52:00Z</time>
      </trkpt>
      <trkpt lat="43.47769" lon="6.18276">
        <ele>130.9</ele>
        <time>2024-03-27T13:52:01Z</time>
      </trkpt>
      <trkpt lat="43.4777" lon="6.18277">
        <ele>131</ele>
        <time>2024-03-27T13:52:02Z</time>
      </trkpt>
      <trkpt lat="43.47771" lon="6.18277">
        <ele>130.8</ele>
        <time>2024-03-27T13:52:03Z</time>
      </trkpt>
      <trkpt lat="43.47772" lon="6.18277">
        <ele>130.8</ele>
        <time>2024-03-27T13:52:04Z</time>
      </trkpt>
      <trkpt lat="43.47772" lon="6.18277">
        <ele>130.7</ele>
        <time>2024-03-27T13:52:05Z</time>
      </trkpt>
      <trkpt lat="43.47773" lon="6.18277">
        <ele>130.7</ele>
        <time>2024-03-27T13:52:06Z</time>
      </trkpt>
      <trkpt lat="43.47774" lon="6.18277">
        <ele>130.7</ele>
        <time>2024-03-27T13:52:07Z</time>
      </trkpt>
      <trkpt lat="43.47776" lon="6.18278">
        <ele>130.6</ele>
        <time>2024-03-27T13:52:08Z</time>
      </trkpt>
      <trkpt lat="43.47777" lon="6.18278">
        <ele>130.6</ele>
        <time>2024-03-27T13:52:09Z</time>
      </trkpt>
      <trkpt lat="43.47777" lon="6.18279">
        <ele>130.5</ele>
        <time>2024-03-27T13:52:10Z</time>
      </trkpt>
      <trkpt lat="43.47778" lon="6.1828">
        <ele>130.4</ele>
        <time>2024-03-27T13:52:11Z</time>
      </trkpt>
      <trkpt lat="43.47779" lon="6.18281">
        <ele>130.3</ele>
        <time>2024-03-27T13:52:12Z</time>
      </trkpt>
      <trkpt lat="43.4778" lon="6.18282">
        <ele>130.1</ele>
        <time>2024-03-27T13:52:13Z</time>
      </trkpt>
      <trkpt lat="43.47781" lon="6.18283">
        <ele>130</ele>
        <time>2024-03-27T13:52:14Z</time>
      </trkpt>
      <trkpt lat="43.47783" lon="6.18283">
        <ele>129.9</ele>
        <time>2024-03-27T13:52:15Z</time>
      </trkpt>
      <trkpt lat="43.47784" lon="6.18284">
        <ele>129.8</ele>
        <time>2024-03-27T13:52:16Z</time>
      </trkpt>
      <trkpt lat="43.47785" lon="6.18284">
        <ele>129.8</ele>
        <time>2024-03-27T13:52:17Z</time>
      </trkpt>
      <trkpt lat="43.47786" lon="6.18285">
        <ele>129.8</ele>
        <time>2024-03-27T13:52:18Z</time>
      </trkpt>
      <trkpt lat="43.47786" lon="6.18285">
        <ele>129.9</ele>
        <time>2024-03-27T13:52:19Z</time>
      </trkpt>
      <trkpt lat="43.47787" lon="6.18286">
        <ele>129.9</ele>
        <time>2024-03-27T13:52:20Z</time>
      </trkpt>
      <trkpt lat="43.47788" lon="6.18285">
        <ele>129.8</ele>
        <time>2024-03-27T13:52:21Z</time>
      </trkpt>
      <trkpt lat="43.47789" lon="6.18284">
        <ele>129.7</ele>
        <time>2024-03-27T13:52:22Z</time>
      </trkpt>
      <trkpt lat="43.4779" lon="6.18284">
        <ele>129.7</ele>
        <time>2024-03-27T13:52:23Z</time>
      </trkpt>
      <trkpt lat="43.4779" lon="6.18284">
        <ele>129.6</ele>
        <time>2024-03-27T13:52:24Z</time>
      </trkpt>
      <trkpt lat="43.47791" lon="6.18284">
        <ele>129.5</ele>
        <time>2024-03-27T13:52:25Z</time>
      </trkpt>
      <trkpt lat="43.47792" lon="6.18284">
        <ele>129.4</ele>
        <time>2024-03-27T13:52:26Z</time>
      </trkpt>
      <trkpt lat="43.47793" lon="6.18285">
        <ele>129.3</ele>
        <time>2024-03-27T13:52:27Z</time>
      </trkpt>
      <trkpt lat="43.47794" lon="6.18285">
        <ele>129.3</ele>
        <time>2024-03-27T13:52:28Z</time>
      </trkpt>
      <trkpt lat="43.47795" lon="6.18285">
        <ele>129.3</ele>
        <time>2024-03-27T13:52:29Z</time>
      </trkpt>
      <trkpt lat="43.47795" lon="6.18286">
        <ele>129.2</ele>
        <time>2024-03-27T13:52:30Z</time>
      </trkpt>
      <trkpt lat="43.47796" lon="6.18286">
        <ele>129.2</ele>
        <time>2024-03-27T13:52:31Z</time>
      </trkpt>
      <trkpt lat="43.47797" lon="6.18286">
        <ele>129.1</ele>
        <time>2024-03-27T13:52:32Z</time>
      </trkpt>
      <trkpt lat="43.47797" lon="6.18286">
        <ele>129.1</ele>
        <time>2024-03-27T13:52:33Z</time>
      </trkpt>
      <trkpt lat="43.47799" lon="6.18287">
        <ele>129</ele>
        <time>2024-03-27T13:52:34Z</time>
      </trkpt>
      <trkpt lat="43.478" lon="6.18287">
        <ele>129</ele>
        <time>2024-03-27T13:52:35Z</time>
      </trkpt>
      <trkpt lat="43.47801" lon="6.18288">
        <ele>129</ele>
        <time>2024-03-27T13:52:36Z</time>
      </trkpt>
      <trkpt lat="43.47802" lon="6.18289">
        <ele>128.9</ele>
        <time>2024-03-27T13:52:37Z</time>
      </trkpt>
      <trkpt lat="43.47802" lon="6.18289">
        <ele>128.8</ele>
        <time>2024-03-27T13:52:38Z</time>
      </trkpt>
      <trkpt lat="43.47803" lon="6.18289">
        <ele>128.8</ele>
        <time>2024-03-27T13:52:39Z</time>
      </trkpt>
      <trkpt lat="43.47804" lon="6.1829">
        <ele>128.8</ele>
        <time>2024-03-27T13:52:40Z</time>
      </trkpt>
      <trkpt lat="43.47805" lon="6.18291">
        <ele>128.8</ele>
        <time>2024-03-27T13:52:41Z</time>
      </trkpt>
      <trkpt lat="43.47806" lon="6.18292">
        <ele>128.8</ele>
        <time>2024-03-27T13:52:42Z</time>
      </trkpt>
      <trkpt lat="43.47807" lon="6.18293">
        <ele>128.8</ele>
        <time>2024-03-27T13:52:43Z</time>
      </trkpt>
      <trkpt lat="43.47806" lon="6.18293">
        <ele>128.8</ele>
        <time>2024-03-27T13:52:44Z</time>
      </trkpt>
      <trkpt lat="43.47807" lon="6.18293">
        <ele>128.7</ele>
        <time>2024-03-27T13:52:45Z</time>
      </trkpt>
      <trkpt lat="43.47807" lon="6.18294">
        <ele>128.6</ele>
        <time>2024-03-27T13:52:46Z</time>
      </trkpt>
      <trkpt lat="43.47808" lon="6.18294">
        <ele>128.6</ele>
        <time>2024-03-27T13:52:47Z</time>
      </trkpt>
      <trkpt lat="43.47809" lon="6.18294">
        <ele>128.6</ele>
        <time>2024-03-27T13:52:48Z</time>
      </trkpt>
      <trkpt lat="43.4781" lon="6.18296">
        <ele>128.6</ele>
        <time>2024-03-27T13:52:49Z</time>
      </trkpt>
      <trkpt lat="43.47811" lon="6.18296">
        <ele>128.6</ele>
        <time>2024-03-27T13:52:50Z</time>
      </trkpt>
      <trkpt lat="43.47813" lon="6.18297">
        <ele>128.6</ele>
        <time>2024-03-27T13:52:51Z</time>
      </trkpt>
      <trkpt lat="43.47813" lon="6.18297">
        <ele>128.6</ele>
        <time>2024-03-27T13:52:52Z</time>
      </trkpt>
      <trkpt lat="43.47815" lon="6.18297">
        <ele>128.6</ele>
        <time>2024-03-27T13:52:53Z</time>
      </trkpt>
      <trkpt lat="43.47815" lon="6.18298">
        <ele>128.6</ele>
        <time>2024-03-27T13:52:54Z</time>
      </trkpt>
      <trkpt lat="43.47817" lon="6.18297">
        <ele>128.5</ele>
        <time>2024-03-27T13:52:55Z</time>
      </trkpt>
      <trkpt lat="43.47818" lon="6.18298">
        <ele>128.5</ele>
        <time>2024-03-27T13:52:56Z</time>
      </trkpt>
      <trkpt lat="43.47818" lon="6.18298">
        <ele>128.5</ele>
        <time>2024-03-27T13:52:57Z</time>
      </trkpt>
      <trkpt lat="43.4782" lon="6.18299">
        <ele>128.4</ele>
        <time>2024-03-27T13:52:58Z</time>
      </trkpt>
      <trkpt lat="43.47821" lon="6.18299">
        <ele>128.4</ele>
        <time>2024-03-27T13:52:59Z</time>
      </trkpt>
      <trkpt lat="43.47822" lon="6.18299">
        <ele>128.3</ele>
        <time>2024-03-27T13:53:00Z</time>
      </trkpt>
      <trkpt lat="43.47823" lon="6.18299">
        <ele>128.3</ele>
        <time>2024-03-27T13:53:01Z</time>
      </trkpt>
      <trkpt lat="43.47825" lon="6.18299">
        <ele>128.3</ele>
        <time>2024-03-27T13:53:02Z</time>
      </trkpt>
      <trkpt lat="43.47826" lon="6.18299">
        <ele>128.2</ele>
        <time>2024-03-27T13:53:03Z</time>
      </trkpt>
      <trkpt lat="43.47828" lon="6.18299">
        <ele>128.3</ele>
        <time>2024-03-27T13:53:04Z</time>
      </trkpt>
      <trkpt lat="43.4783" lon="6.18299">
        <ele>128.3</ele>
        <time>2024-03-27T13:53:05Z</time>
      </trkpt>
      <trkpt lat="43.47831" lon="6.183">
        <ele>128.3</ele>
        <time>2024-03-27T13:53:06Z</time>
      </trkpt>
      <trkpt lat="43.47832" lon="6.183">
        <ele>128.2</ele>
        <time>2024-03-27T13:53:07Z</time>
      </trkpt>
      <trkpt lat="43.47832" lon="6.183">
        <ele>128.2</ele>
        <time>2024-03-27T13:53:08Z</time>
      </trkpt>
      <trkpt lat="43.47833" lon="6.183">
        <ele>128.1</ele>
        <time>2024-03-27T13:53:09Z</time>
      </trkpt>
      <trkpt lat="43.47834" lon="6.183">
        <ele>128.1</ele>
        <time>2024-03-27T13:53:10Z</time>
      </trkpt>
      <trkpt lat="43.47835" lon="6.183">
        <ele>128.1</ele>
        <time>2024-03-27T13:53:11Z</time>
      </trkpt>
      <trkpt lat="43.47837" lon="6.18301">
        <ele>128.1</ele>
        <time>2024-03-27T13:53:12Z</time>
      </trkpt>
      <trkpt lat="43.47838" lon="6.18301">
        <ele>128.2</ele>
        <time>2024-03-27T13:53:13Z</time>
      </trkpt>
      <trkpt lat="43.47839" lon="6.18301">
        <ele>128.2</ele>
        <time>2024-03-27T13:53:14Z</time>
      </trkpt>
      <trkpt lat="43.4784" lon="6.18302">
        <ele>128.2</ele>
        <time>2024-03-27T13:53:15Z</time>
      </trkpt>
      <trkpt lat="43.47841" lon="6.18302">
        <ele>128.2</ele>
        <time>2024-03-27T13:53:16Z</time>
      </trkpt>
      <trkpt lat="43.47843" lon="6.18303">
        <ele>128.3</ele>
        <time>2024-03-27T13:53:17Z</time>
      </trkpt>
      <trkpt lat="43.47844" lon="6.18303">
        <ele>128.2</ele>
        <time>2024-03-27T13:53:18Z</time>
      </trkpt>
      <trkpt lat="43.47845" lon="6.18303">
        <ele>128.3</ele>
        <time>2024-03-27T13:53:19Z</time>
      </trkpt>
      <trkpt lat="43.47846" lon="6.18303">
        <ele>128.3</ele>
        <time>2024-03-27T13:53:20Z</time>
      </trkpt>
      <trkpt lat="43.47848" lon="6.18303">
        <ele>128.3</ele>
        <time>2024-03-27T13:53:21Z</time>
      </trkpt>
      <trkpt lat="43.47849" lon="6.18304">
        <ele>128.5</ele>
        <time>2024-03-27T13:53:22Z</time>
      </trkpt>
      <trkpt lat="43.4785" lon="6.18305">
        <ele>128.6</ele>
        <time>2024-03-27T13:53:23Z</time>
      </trkpt>
      <trkpt lat="43.47852" lon="6.18305">
        <ele>128.7</ele>
        <time>2024-03-27T13:53:24Z</time>
      </trkpt>
      <trkpt lat="43.47853" lon="6.18305">
        <ele>128.8</ele>
        <time>2024-03-27T13:53:25Z</time>
      </trkpt>
      <trkpt lat="43.47854" lon="6.18304">
        <ele>128.9</ele>
        <time>2024-03-27T13:53:26Z</time>
      </trkpt>
      <trkpt lat="43.47856" lon="6.18304">
        <ele>129</ele>
        <time>2024-03-27T13:53:27Z</time>
      </trkpt>
      <trkpt lat="43.47858" lon="6.18304">
        <ele>129.1</ele>
        <time>2024-03-27T13:53:28Z</time>
      </trkpt>
      <trkpt lat="43.47859" lon="6.18303">
        <ele>129.1</ele>
        <time>2024-03-27T13:53:29Z</time>
      </trkpt>
      <trkpt lat="43.4786" lon="6.18303">
        <ele>129</ele>
        <time>2024-03-27T13:53:30Z</time>
      </trkpt>
      <trkpt lat="43.47862" lon="6.18303">
        <ele>129</ele>
        <time>2024-03-27T13:53:31Z</time>
      </trkpt>
      <trkpt lat="43.47863" lon="6.18303">
        <ele>129.2</ele>
        <time>2024-03-27T13:53:32Z</time>
      </trkpt>
      <trkpt lat="43.47864" lon="6.18303">
        <ele>129.3</ele>
        <time>2024-03-27T13:53:33Z</time>
      </trkpt>
      <trkpt lat="43.47866" lon="6.18304">
        <ele>129.3</ele>
        <time>2024-03-27T13:53:34Z</time>
      </trkpt>
      <trkpt lat="43.47867" lon="6.18304">
        <ele>129.4</ele>
        <time>2024-03-27T13:53:35Z</time>
      </trkpt>
      <trkpt lat="43.47868" lon="6.18304">
        <ele>129.4</ele>
        <time>2024-03-27T13:53:36Z</time>
      </trkpt>
      <trkpt lat="43.47869" lon="6.18304">
        <ele>129.3</ele>
        <time>2024-03-27T13:53:37Z</time>
      </trkpt>
      <trkpt lat="43.47871" lon="6.18304">
        <ele>129.2</ele>
        <time>2024-03-27T13:53:38Z</time>
      </trkpt>
      <trkpt lat="43.47872" lon="6.18304">
        <ele>129.2</ele>
        <time>2024-03-27T13:53:39Z</time>
      </trkpt>
      <trkpt lat="43.47874" lon="6.18304">
        <ele>129.1</ele>
        <time>2024-03-27T13:53:40Z</time>
      </trkpt>
      <trkpt lat="43.47875" lon="6.18304">
        <ele>129.1</ele>
        <time>2024-03-27T13:53:41Z</time>
      </trkpt>
      <trkpt lat="43.47876" lon="6.18305">
        <ele>129</ele>
        <time>2024-03-27T13:53:42Z</time>
      </trkpt>
      <trkpt lat="43.47877" lon="6.18305">
        <ele>128.8</ele>
        <time>2024-03-27T13:53:43Z</time>
      </trkpt>
      <trkpt lat="43.47879" lon="6.18306">
        <ele>128.8</ele>
        <time>2024-03-27T13:53:44Z</time>
      </trkpt>
      <trkpt lat="43.4788" lon="6.18307">
        <ele>128.7</ele>
        <time>2024-03-27T13:53:45Z</time>
      </trkpt>
      <trkpt lat="43.47881" lon="6.18308">
        <ele>128.8</ele>
        <time>2024-03-27T13:53:46Z</time>
      </trkpt>
      <trkpt lat="43.47881" lon="6.18309">
        <ele>128.8</ele>
        <time>2024-03-27T13:53:47Z</time>
      </trkpt>
      <trkpt lat="43.47882" lon="6.1831">
        <ele>128.9</ele>
        <time>2024-03-27T13:53:48Z</time>
      </trkpt>
      <trkpt lat="43.47883" lon="6.1831">
        <ele>128.9</ele>
        <time>2024-03-27T13:53:49Z</time>
      </trkpt>
      <trkpt lat="43.47884" lon="6.1831">
        <ele>128.9</ele>
        <time>2024-03-27T13:53:50Z</time>
      </trkpt>
      <trkpt lat="43.47886" lon="6.1831">
        <ele>128.8</ele>
        <time>2024-03-27T13:53:51Z</time>
      </trkpt>
      <trkpt lat="43.47887" lon="6.1831">
        <ele>128.9</ele>
        <time>2024-03-27T13:53:52Z</time>
      </trkpt>
      <trkpt lat="43.47888" lon="6.18311">
        <ele>128.9</ele>
        <time>2024-03-27T13:53:53Z</time>
      </trkpt>
      <trkpt lat="43.47889" lon="6.18312">
        <ele>129</ele>
        <time>2024-03-27T13:53:54Z</time>
      </trkpt>
      <trkpt lat="43.4789" lon="6.18314">
        <ele>129.2</ele>
        <time>2024-03-27T13:53:55Z</time>
      </trkpt>
      <trkpt lat="43.4789" lon="6.18315">
        <ele>129.2</ele>
        <time>2024-03-27T13:53:56Z</time>
      </trkpt>
      <trkpt lat="43.47891" lon="6.18316">
        <ele>129.2</ele>
        <time>2024-03-27T13:53:57Z</time>
      </trkpt>
      <trkpt lat="43.47892" lon="6.18318">
        <ele>129.1</ele>
        <time>2024-03-27T13:53:58Z</time>
      </trkpt>
      <trkpt lat="43.47893" lon="6.18319">
        <ele>129.2</ele>
        <time>2024-03-27T13:53:59Z</time>
      </trkpt>
      <trkpt lat="43.47893" lon="6.1832">
        <ele>129.2</ele>
        <time>2024-03-27T13:54:00Z</time>
      </trkpt>
      <trkpt lat="43.47893" lon="6.18321">
        <ele>129.4</ele>
        <time>2024-03-27T13:54:01Z</time>
      </trkpt>
      <trkpt lat="43.47894" lon="6.18323">
        <ele>129.3</ele>
        <time>2024-03-27T13:54:02Z</time>
      </trkpt>
      <trkpt lat="43.47895" lon="6.18324">
        <ele>129.3</ele>
        <time>2024-03-27T13:54:03Z</time>
      </trkpt>
      <trkpt lat="43.47895" lon="6.18325">
        <ele>129.2</ele>
        <time>2024-03-27T13:54:04Z</time>
      </trkpt>
      <trkpt lat="43.47896" lon="6.18326">
        <ele>129.2</ele>
        <time>2024-03-27T13:54:05Z</time>
      </trkpt>
      <trkpt lat="43.47896" lon="6.18327">
        <ele>129.4</ele>
        <time>2024-03-27T13:54:06Z</time>
      </trkpt>
      <trkpt lat="43.47896" lon="6.18328">
        <ele>129.4</ele>
        <time>2024-03-27T13:54:07Z</time>
      </trkpt>
      <trkpt lat="43.47897" lon="6.18329">
        <ele>129.5</ele>
        <time>2024-03-27T13:54:08Z</time>
      </trkpt>
      <trkpt lat="43.47898" lon="6.1833">
        <ele>129.4</ele>
        <time>2024-03-27T13:54:09Z</time>
      </trkpt>
      <trkpt lat="43.47899" lon="6.18331">
        <ele>129.4</ele>
        <time>2024-03-27T13:54:10Z</time>
      </trkpt>
      <trkpt lat="43.479" lon="6.18333">
        <ele>129.5</ele>
        <time>2024-03-27T13:54:11Z</time>
      </trkpt>
      <trkpt lat="43.479" lon="6.18334">
        <ele>129.6</ele>
        <time>2024-03-27T13:54:12Z</time>
      </trkpt>
      <trkpt lat="43.47901" lon="6.18335">
        <ele>129.6</ele>
        <time>2024-03-27T13:54:13Z</time>
      </trkpt>
      <trkpt lat="43.47901" lon="6.18336">
        <ele>129.6</ele>
        <time>2024-03-27T13:54:14Z</time>
      </trkpt>
      <trkpt lat="43.47902" lon="6.18338">
        <ele>129.7</ele>
        <time>2024-03-27T13:54:15Z</time>
      </trkpt>
      <trkpt lat="43.47902" lon="6.18339">
        <ele>129.7</ele>
        <time>2024-03-27T13:54:16Z</time>
      </trkpt>
      <trkpt lat="43.47903" lon="6.18341">
        <ele>129.6</ele>
        <time>2024-03-27T13:54:17Z</time>
      </trkpt>
      <trkpt lat="43.47904" lon="6.18342">
        <ele>128.5</ele>
        <time>2024-03-27T13:54:18Z</time>
      </trkpt>
      <trkpt lat="43.47905" lon="6.18344">
        <ele>129</ele>
        <time>2024-03-27T13:54:19Z</time>
      </trkpt>
      <trkpt lat="43.47906" lon="6.18345">
        <ele>129.4</ele>
        <time>2024-03-27T13:54:20Z</time>
      </trkpt>
      <trkpt lat="43.47907" lon="6.18346">
        <ele>129.7</ele>
        <time>2024-03-27T13:54:21Z</time>
      </trkpt>
      <trkpt lat="43.47908" lon="6.18347">
        <ele>129.9</ele>
        <time>2024-03-27T13:54:22Z</time>
      </trkpt>
      <trkpt lat="43.47908" lon="6.18348">
        <ele>130.1</ele>
        <time>2024-03-27T13:54:23Z</time>
      </trkpt>
      <trkpt lat="43.47909" lon="6.18349">
        <ele>130.5</ele>
        <time>2024-03-27T13:54:24Z</time>
      </trkpt>
      <trkpt lat="43.4791" lon="6.1835">
        <ele>130.7</ele>
        <time>2024-03-27T13:54:25Z</time>
      </trkpt>
      <trkpt lat="43.4791" lon="6.18351">
        <ele>130.9</ele>
        <time>2024-03-27T13:54:26Z</time>
      </trkpt>
      <trkpt lat="43.47911" lon="6.18352">
        <ele>131.2</ele>
        <time>2024-03-27T13:54:27Z</time>
      </trkpt>
      <trkpt lat="43.47912" lon="6.18352">
        <ele>131.3</ele>
        <time>2024-03-27T13:54:28Z</time>
      </trkpt>
      <trkpt lat="43.47913" lon="6.18352">
        <ele>131.5</ele>
        <time>2024-03-27T13:54:29Z</time>
      </trkpt>
      <trkpt lat="43.47914" lon="6.18353">
        <ele>131.7</ele>
        <time>2024-03-27T13:54:30Z</time>
      </trkpt>
      <trkpt lat="43.47915" lon="6.18353">
        <ele>131.7</ele>
        <time>2024-03-27T13:54:31Z</time>
      </trkpt>
      <trkpt lat="43.47916" lon="6.18353">
        <ele>131.8</ele>
        <time>2024-03-27T13:54:32Z</time>
      </trkpt>
      <trkpt lat="43.47917" lon="6.18352">
        <ele>131.9</ele>
        <time>2024-03-27T13:54:33Z</time>
      </trkpt>
      <trkpt lat="43.47918" lon="6.18352">
        <ele>131.9</ele>
        <time>2024-03-27T13:54:34Z</time>
      </trkpt>
      <trkpt lat="43.47919" lon="6.18352">
        <ele>132</ele>
        <time>2024-03-27T13:54:35Z</time>
      </trkpt>
      <trkpt lat="43.4792" lon="6.18351">
        <ele>132</ele>
        <time>2024-03-27T13:54:36Z</time>
      </trkpt>
      <trkpt lat="43.47921" lon="6.18351">
        <ele>131.9</ele>
        <time>2024-03-27T13:54:37Z</time>
      </trkpt>
      <trkpt lat="43.47922" lon="6.18351">
        <ele>131.8</ele>
        <time>2024-03-27T13:54:38Z</time>
      </trkpt>
      <trkpt lat="43.47923" lon="6.18352">
        <ele>131.8</ele>
        <time>2024-03-27T13:54:39Z</time>
      </trkpt>
      <trkpt lat="43.47924" lon="6.18352">
        <ele>132</ele>
        <time>2024-03-27T13:54:40Z</time>
      </trkpt>
      <trkpt lat="43.47925" lon="6.18351">
        <ele>132.2</ele>
        <time>2024-03-27T13:54:41Z</time>
      </trkpt>
      <trkpt lat="43.47926" lon="6.18351">
        <ele>132.3</ele>
        <time>2024-03-27T13:54:42Z</time>
      </trkpt>
      <trkpt lat="43.47927" lon="6.18351">
        <ele>132.4</ele>
        <time>2024-03-27T13:54:43Z</time>
      </trkpt>
      <trkpt lat="43.47929" lon="6.1835">
        <ele>132.4</ele>
        <time>2024-03-27T13:54:44Z</time>
      </trkpt>
      <trkpt lat="43.4793" lon="6.1835">
        <ele>132.5</ele>
        <time>2024-03-27T13:54:45Z</time>
      </trkpt>
      <trkpt lat="43.47931" lon="6.18349">
        <ele>132.5</ele>
        <time>2024-03-27T13:54:46Z</time>
      </trkpt>
      <trkpt lat="43.47933" lon="6.18349">
        <ele>132.6</ele>
        <time>2024-03-27T13:54:47Z</time>
      </trkpt>
      <trkpt lat="43.47934" lon="6.18348">
        <ele>132.6</ele>
        <time>2024-03-27T13:54:48Z</time>
      </trkpt>
      <trkpt lat="43.47935" lon="6.18348">
        <ele>132.6</ele>
        <time>2024-03-27T13:54:49Z</time>
      </trkpt>
      <trkpt lat="43.47936" lon="6.18347">
        <ele>132.6</ele>
        <time>2024-03-27T13:54:50Z</time>
      </trkpt>
      <trkpt lat="43.47937" lon="6.18346">
        <ele>132.5</ele>
        <time>2024-03-27T13:54:51Z</time>
      </trkpt>
      <trkpt lat="43.47938" lon="6.18345">
        <ele>132.4</ele>
        <time>2024-03-27T13:54:52Z</time>
      </trkpt>
      <trkpt lat="43.47939" lon="6.18345">
        <ele>132.4</ele>
        <time>2024-03-27T13:54:53Z</time>
      </trkpt>
      <trkpt lat="43.4794" lon="6.18344">
        <ele>132.4</ele>
        <time>2024-03-27T13:54:54Z</time>
      </trkpt>
      <trkpt lat="43.47942" lon="6.18344">
        <ele>132.4</ele>
        <time>2024-03-27T13:54:55Z</time>
      </trkpt>
      <trkpt lat="43.47943" lon="6.18343">
        <ele>132.4</ele>
        <time>2024-03-27T13:54:56Z</time>
      </trkpt>
      <trkpt lat="43.47944" lon="6.18343">
        <ele>132.4</ele>
        <time>2024-03-27T13:54:57Z</time>
      </trkpt>
      <trkpt lat="43.47946" lon="6.18342">
        <ele>132.3</ele>
        <time>2024-03-27T13:54:58Z</time>
      </trkpt>
      <trkpt lat="43.47947" lon="6.18342">
        <ele>132.2</ele>
        <time>2024-03-27T13:54:59Z</time>
      </trkpt>
      <trkpt lat="43.47948" lon="6.18341">
        <ele>132.2</ele>
        <time>2024-03-27T13:55:00Z</time>
      </trkpt>
      <trkpt lat="43.47949" lon="6.1834">
        <ele>132.2</ele>
        <time>2024-03-27T13:55:01Z</time>
      </trkpt>
      <trkpt lat="43.4795" lon="6.1834">
        <ele>132.2</ele>
        <time>2024-03-27T13:55:02Z</time>
      </trkpt>
      <trkpt lat="43.47951" lon="6.1834">
        <ele>132.1</ele>
        <time>2024-03-27T13:55:03Z</time>
      </trkpt>
      <trkpt lat="43.47952" lon="6.18339">
        <ele>132</ele>
        <time>2024-03-27T13:55:04Z</time>
      </trkpt>
      <trkpt lat="43.47953" lon="6.18339">
        <ele>131.9</ele>
        <time>2024-03-27T13:55:05Z</time>
      </trkpt>
      <trkpt lat="43.47954" lon="6.18338">
        <ele>131.9</ele>
        <time>2024-03-27T13:55:06Z</time>
      </trkpt>
      <trkpt lat="43.47955" lon="6.18338">
        <ele>131.8</ele>
        <time>2024-03-27T13:55:07Z</time>
      </trkpt>
      <trkpt lat="43.47955" lon="6.18339">
        <ele>131.7</ele>
        <time>2024-03-27T13:55:08Z</time>
      </trkpt>
      <trkpt lat="43.47955" lon="6.18339">
        <ele>131.6</ele>
        <time>2024-03-27T13:55:09Z</time>
      </trkpt>
      <trkpt lat="43.47955" lon="6.18338">
        <ele>131.6</ele>
        <time>2024-03-27T13:55:10Z</time>
      </trkpt>
      <trkpt lat="43.47956" lon="6.18337">
        <ele>131.5</ele>
        <time>2024-03-27T13:55:11Z</time>
      </trkpt>
      <trkpt lat="43.47957" lon="6.18337">
        <ele>131.6</ele>
        <time>2024-03-27T13:55:12Z</time>
      </trkpt>
      <trkpt lat="43.47957" lon="6.18336">
        <ele>131.6</ele>
        <time>2024-03-27T13:55:13Z</time>
      </trkpt>
      <trkpt lat="43.47958" lon="6.18335">
        <ele>131.6</ele>
        <time>2024-03-27T13:55:14Z</time>
      </trkpt>
      <trkpt lat="43.47958" lon="6.18335">
        <ele>131.7</ele>
        <time>2024-03-27T13:55:15Z</time>
      </trkpt>
      <trkpt lat="43.47958" lon="6.18334">
        <ele>131.7</ele>
        <time>2024-03-27T13:55:16Z</time>
      </trkpt>
      <trkpt lat="43.47959" lon="6.18334">
        <ele>131.6</ele>
        <time>2024-03-27T13:55:17Z</time>
      </trkpt>
      <trkpt lat="43.47959" lon="6.18334">
        <ele>131.6</ele>
        <time>2024-03-27T13:55:18Z</time>
      </trkpt>
      <trkpt lat="43.47959" lon="6.18334">
        <ele>131.5</ele>
        <time>2024-03-27T13:55:19Z</time>
      </trkpt>
      <trkpt lat="43.47959" lon="6.18334">
        <ele>131.5</ele>
        <time>2024-03-27T13:55:20Z</time>
      </trkpt>
      <trkpt lat="43.47959" lon="6.18334">
        <ele>131.5</ele>
        <time>2024-03-27T13:55:21Z</time>
      </trkpt>
      <trkpt lat="43.47959" lon="6.18333">
        <ele>131.5</ele>
        <time>2024-03-27T13:55:22Z</time>
      </trkpt>
      <trkpt lat="43.47959" lon="6.18333">
        <ele>131.4</ele>
        <time>2024-03-27T13:55:23Z</time>
      </trkpt>
      <trkpt lat="43.47959" lon="6.18333">
        <ele>131.3</ele>
        <time>2024-03-27T13:55:24Z</time>
      </trkpt>
      <trkpt lat="43.47959" lon="6.18333">
        <ele>131.3</ele>
        <time>2024-03-27T13:55:25Z</time>
      </trkpt>
      <trkpt lat="43.47959" lon="6.18333">
        <ele>131.3</ele>
        <time>2024-03-27T13:55:26Z</time>
      </trkpt>
      <trkpt lat="43.47959" lon="6.18333">
        <ele>131.4</ele>
        <time>2024-03-27T13:55:27Z</time>
      </trkpt>
      <trkpt lat="43.4796" lon="6.18333">
        <ele>131.4</ele>
        <time>2024-03-27T13:55:28Z</time>
      </trkpt>
      <trkpt lat="43.4796" lon="6.18333">
        <ele>131.3</ele>
        <time>2024-03-27T13:55:29Z</time>
      </trkpt>
      <trkpt lat="43.4796" lon="6.18333">
        <ele>131.5</ele>
        <time>2024-03-27T13:55:30Z</time>
      </trkpt>
      <trkpt lat="43.4796" lon="6.18333">
        <ele>131.6</ele>
        <time>2024-03-27T13:55:31Z</time>
      </trkpt>
      <trkpt lat="43.4796" lon="6.18333">
        <ele>131.6</ele>
        <time>2024-03-27T13:55:32Z</time>
      </trkpt>
      <trkpt lat="43.4796" lon="6.18333">
        <ele>131.5</ele>
        <time>2024-03-27T13:55:33Z</time>
      </trkpt>
      <trkpt lat="43.4796" lon="6.18333">
        <ele>131.5</ele>
        <time>2024-03-27T13:55:34Z</time>
      </trkpt>
      <trkpt lat="43.47959" lon="6.18333">
        <ele>131.6</ele>
        <time>2024-03-27T13:55:35Z</time>
      </trkpt>
      <trkpt lat="43.4796" lon="6.18333">
        <ele>131.6</ele>
        <time>2024-03-27T13:55:36Z</time>
      </trkpt>
      <trkpt lat="43.4796" lon="6.18333">
        <ele>131.6</ele>
        <time>2024-03-27T13:55:37Z</time>
      </trkpt>
      <trkpt lat="43.4796" lon="6.18333">
        <ele>131.5</ele>
        <time>2024-03-27T13:55:38Z</time>
      </trkpt>
      <trkpt lat="43.4796" lon="6.18333">
        <ele>131.6</ele>
        <time>2024-03-27T13:55:39Z</time>
      </trkpt>
      <trkpt lat="43.4796" lon="6.18333">
        <ele>131.6</ele>
        <time>2024-03-27T13:55:40Z</time>
      </trkpt>
      <trkpt lat="43.4796" lon="6.18333">
        <ele>131.7</ele>
        <time>2024-03-27T13:55:41Z</time>
      </trkpt>
      <trkpt lat="43.4796" lon="6.18333">
        <ele>131.7</ele>
        <time>2024-03-27T13:55:42Z</time>
      </trkpt>
      <trkpt lat="43.4796" lon="6.18333">
        <ele>131.7</ele>
        <time>2024-03-27T13:55:43Z</time>
      </trkpt>
      <trkpt lat="43.4796" lon="6.18334">
        <ele>131.8</ele>
        <time>2024-03-27T13:55:44Z</time>
      </trkpt>
      <trkpt lat="43.4796" lon="6.18334">
        <ele>131.8</ele>
        <time>2024-03-27T13:55:45Z</time>
      </trkpt>
      <trkpt lat="43.4796" lon="6.18334">
        <ele>131.8</ele>
        <time>2024-03-27T13:55:46Z</time>
      </trkpt>
      <trkpt lat="43.4796" lon="6.18334">
        <ele>131.9</ele>
        <time>2024-03-27T13:55:47Z</time>
      </trkpt>
      <trkpt lat="43.4796" lon="6.18334">
        <ele>132</ele>
        <time>2024-03-27T13:55:48Z</time>
      </trkpt>
      <trkpt lat="43.4796" lon="6.18334">
        <ele>132</ele>
        <time>2024-03-27T13:55:49Z</time>
      </trkpt>
      <trkpt lat="43.47961" lon="6.18333">
        <ele>131.9</ele>
        <time>2024-03-27T13:55:50Z</time>
      </trkpt>
      <trkpt lat="43.47961" lon="6.18333">
        <ele>131.7</ele>
        <time>2024-03-27T13:55:51Z</time>
      </trkpt>
      <trkpt lat="43.47961" lon="6.18333">
        <ele>131.9</ele>
        <time>2024-03-27T13:55:52Z</time>
      </trkpt>
      <trkpt lat="43.47961" lon="6.18333">
        <ele>131.9</ele>
        <time>2024-03-27T13:55:53Z</time>
      </trkpt>
      <trkpt lat="43.47961" lon="6.18333">
        <ele>131.7</ele>
        <time>2024-03-27T13:55:54Z</time>
      </trkpt>
      <trkpt lat="43.47961" lon="6.18333">
        <ele>131.6</ele>
        <time>2024-03-27T13:55:55Z</time>
      </trkpt>
      <trkpt lat="43.47961" lon="6.18333">
        <ele>131.5</ele>
        <time>2024-03-27T13:55:56Z</time>
      </trkpt>
      <trkpt lat="43.47961" lon="6.18333">
        <ele>131.4</ele>
        <time>2024-03-27T13:55:57Z</time>
      </trkpt>
      <trkpt lat="43.47961" lon="6.18333">
        <ele>131.3</ele>
        <time>2024-03-27T13:55:58Z</time>
      </trkpt>
      <trkpt lat="43.47961" lon="6.18334">
        <ele>131.3</ele>
        <time>2024-03-27T13:55:59Z</time>
      </trkpt>
      <trkpt lat="43.47961" lon="6.18333">
        <ele>131.5</ele>
        <time>2024-03-27T13:56:00Z</time>
      </trkpt>
      <trkpt lat="43.47961" lon="6.18333">
        <ele>131.4</ele>
        <time>2024-03-27T13:56:01Z</time>
      </trkpt>
      <trkpt lat="43.47961" lon="6.18333">
        <ele>131.4</ele>
        <time>2024-03-27T13:56:02Z</time>
      </trkpt>
      <trkpt lat="43.47961" lon="6.18332">
        <ele>131.4</ele>
        <time>2024-03-27T13:56:03Z</time>
      </trkpt>
      <trkpt lat="43.47961" lon="6.18333">
        <ele>131.3</ele>
        <time>2024-03-27T13:56:04Z</time>
      </trkpt>
      <trkpt lat="43.47961" lon="6.18333">
        <ele>131.3</ele>
        <time>2024-03-27T13:56:05Z</time>
      </trkpt>
      <trkpt lat="43.47961" lon="6.18333">
        <ele>131.3</ele>
        <time>2024-03-27T13:56:06Z</time>
      </trkpt>
      <trkpt lat="43.47961" lon="6.18333">
        <ele>131.3</ele>
        <time>2024-03-27T13:56:07Z</time>
      </trkpt>
      <trkpt lat="43.47962" lon="6.18333">
        <ele>131.3</ele>
        <time>2024-03-27T13:56:08Z</time>
      </trkpt>
      <trkpt lat="43.47962" lon="6.18334">
        <ele>131.3</ele>
        <time>2024-03-27T13:56:09Z</time>
      </trkpt>
      <trkpt lat="43.47962" lon="6.18336">
        <ele>131.4</ele>
        <time>2024-03-27T13:56:10Z</time>
      </trkpt>
      <trkpt lat="43.47962" lon="6.18338">
        <ele>131.4</ele>
        <time>2024-03-27T13:56:11Z</time>
      </trkpt>
      <trkpt lat="43.47963" lon="6.1834">
        <ele>131.5</ele>
        <time>2024-03-27T13:56:12Z</time>
      </trkpt>
      <trkpt lat="43.47964" lon="6.18341">
        <ele>131.5</ele>
        <time>2024-03-27T13:56:13Z</time>
      </trkpt>
      <trkpt lat="43.47964" lon="6.18343">
        <ele>131.5</ele>
        <time>2024-03-27T13:56:14Z</time>
      </trkpt>
      <trkpt lat="43.47965" lon="6.18344">
        <ele>131.6</ele>
        <time>2024-03-27T13:56:15Z</time>
      </trkpt>
      <trkpt lat="43.47965" lon="6.18346">
        <ele>131.7</ele>
        <time>2024-03-27T13:56:16Z</time>
      </trkpt>
      <trkpt lat="43.47965" lon="6.18347">
        <ele>131.8</ele>
        <time>2024-03-27T13:56:17Z</time>
      </trkpt>
      <trkpt lat="43.47965" lon="6.18349">
        <ele>131.9</ele>
        <time>2024-03-27T13:56:18Z</time>
      </trkpt>
      <trkpt lat="43.47965" lon="6.1835">
        <ele>131.8</ele>
        <time>2024-03-27T13:56:19Z</time>
      </trkpt>
      <trkpt lat="43.47964" lon="6.18352">
        <ele>131.9</ele>
        <time>2024-03-27T13:56:20Z</time>
      </trkpt>
      <trkpt lat="43.47964" lon="6.18353">
        <ele>132</ele>
        <time>2024-03-27T13:56:21Z</time>
      </trkpt>
      <trkpt lat="43.47964" lon="6.18354">
        <ele>132</ele>
        <time>2024-03-27T13:56:22Z</time>
      </trkpt>
      <trkpt lat="43.47964" lon="6.18355">
        <ele>132</ele>
        <time>2024-03-27T13:56:23Z</time>
      </trkpt>
      <trkpt lat="43.47963" lon="6.18356">
        <ele>132</ele>
        <time>2024-03-27T13:56:24Z</time>
      </trkpt>
      <trkpt lat="43.47963" lon="6.18358">
        <ele>132</ele>
        <time>2024-03-27T13:56:25Z</time>
      </trkpt>
      <trkpt lat="43.47963" lon="6.1836">
        <ele>132.1</ele>
        <time>2024-03-27T13:56:26Z</time>
      </trkpt>
      <trkpt lat="43.47963" lon="6.18362">
        <ele>132.1</ele>
        <time>2024-03-27T13:56:27Z</time>
      </trkpt>
      <trkpt lat="43.47963" lon="6.18364">
        <ele>132.1</ele>
        <time>2024-03-27T13:56:28Z</time>
      </trkpt>
      <trkpt lat="43.47964" lon="6.18365">
        <ele>132.2</ele>
        <time>2024-03-27T13:56:29Z</time>
      </trkpt>
      <trkpt lat="43.47965" lon="6.18367">
        <ele>132.2</ele>
        <time>2024-03-27T13:56:30Z</time>
      </trkpt>
      <trkpt lat="43.47965" lon="6.18368">
        <ele>132</ele>
        <time>2024-03-27T13:56:31Z</time>
      </trkpt>
      <trkpt lat="43.47966" lon="6.1837">
        <ele>131.9</ele>
        <time>2024-03-27T13:56:32Z</time>
      </trkpt>
      <trkpt lat="43.47967" lon="6.18371">
        <ele>131.8</ele>
        <time>2024-03-27T13:56:33Z</time>
      </trkpt>
      <trkpt lat="43.47968" lon="6.18373">
        <ele>131.8</ele>
        <time>2024-03-27T13:56:34Z</time>
      </trkpt>
      <trkpt lat="43.47968" lon="6.18374">
        <ele>131.8</ele>
        <time>2024-03-27T13:56:35Z</time>
      </trkpt>
      <trkpt lat="43.47969" lon="6.18375">
        <ele>131.7</ele>
        <time>2024-03-27T13:56:36Z</time>
      </trkpt>
      <trkpt lat="43.47969" lon="6.18376">
        <ele>131.7</ele>
        <time>2024-03-27T13:56:37Z</time>
      </trkpt>
      <trkpt lat="43.4797" lon="6.18378">
        <ele>131.7</ele>
        <time>2024-03-27T13:56:38Z</time>
      </trkpt>
      <trkpt lat="43.47971" lon="6.18379">
        <ele>131.6</ele>
        <time>2024-03-27T13:56:39Z</time>
      </trkpt>
      <trkpt lat="43.47971" lon="6.18381">
        <ele>131.6</ele>
        <time>2024-03-27T13:56:40Z</time>
      </trkpt>
      <trkpt lat="43.47972" lon="6.18383">
        <ele>131.5</ele>
        <time>2024-03-27T13:56:41Z</time>
      </trkpt>
      <trkpt lat="43.47973" lon="6.18385">
        <ele>131.5</ele>
        <time>2024-03-27T13:56:42Z</time>
      </trkpt>
      <trkpt lat="43.47973" lon="6.18386">
        <ele>131.4</ele>
        <time>2024-03-27T13:56:43Z</time>
      </trkpt>
      <trkpt lat="43.47974" lon="6.18388">
        <ele>131.4</ele>
        <time>2024-03-27T13:56:44Z</time>
      </trkpt>
      <trkpt lat="43.47975" lon="6.18389">
        <ele>131.4</ele>
        <time>2024-03-27T13:56:45Z</time>
      </trkpt>
      <trkpt lat="43.47976" lon="6.1839">
        <ele>131.4</ele>
        <time>2024-03-27T13:56:46Z</time>
      </trkpt>
      <trkpt lat="43.47977" lon="6.1839">
        <ele>131.5</ele>
        <time>2024-03-27T13:56:47Z</time>
      </trkpt>
      <trkpt lat="43.47979" lon="6.18392">
        <ele>131.6</ele>
        <time>2024-03-27T13:56:48Z</time>
      </trkpt>
      <trkpt lat="43.4798" lon="6.18393">
        <ele>131.5</ele>
        <time>2024-03-27T13:56:49Z</time>
      </trkpt>
      <trkpt lat="43.47981" lon="6.18395">
        <ele>131.4</ele>
        <time>2024-03-27T13:56:50Z</time>
      </trkpt>
      <trkpt lat="43.47982" lon="6.18396">
        <ele>131.4</ele>
        <time>2024-03-27T13:56:51Z</time>
      </trkpt>
      <trkpt lat="43.47983" lon="6.18398">
        <ele>131.4</ele>
        <time>2024-03-27T13:56:52Z</time>
      </trkpt>
      <trkpt lat="43.47983" lon="6.18399">
        <ele>131.4</ele>
        <time>2024-03-27T13:56:53Z</time>
      </trkpt>
      <trkpt lat="43.47984" lon="6.184">
        <ele>131.3</ele>
        <time>2024-03-27T13:56:54Z</time>
      </trkpt>
      <trkpt lat="43.47985" lon="6.18401">
        <ele>131.4</ele>
        <time>2024-03-27T13:56:55Z</time>
      </trkpt>
      <trkpt lat="43.47986" lon="6.18402">
        <ele>131.4</ele>
        <time>2024-03-27T13:56:56Z</time>
      </trkpt>
      <trkpt lat="43.47987" lon="6.18402">
        <ele>131.4</ele>
        <time>2024-03-27T13:56:57Z</time>
      </trkpt>
      <trkpt lat="43.47989" lon="6.18403">
        <ele>131.5</ele>
        <time>2024-03-27T13:56:58Z</time>
      </trkpt>
      <trkpt lat="43.4799" lon="6.18404">
        <ele>131.5</ele>
        <time>2024-03-27T13:56:59Z</time>
      </trkpt>
      <trkpt lat="43.47992" lon="6.18405">
        <ele>131.7</ele>
        <time>2024-03-27T13:57:00Z</time>
      </trkpt>
      <trkpt lat="43.47993" lon="6.18405">
        <ele>131.9</ele>
        <time>2024-03-27T13:57:01Z</time>
      </trkpt>
      <trkpt lat="43.47993" lon="6.18406">
        <ele>132</ele>
        <time>2024-03-27T13:57:02Z</time>
      </trkpt>
      <trkpt lat="43.47994" lon="6.18407">
        <ele>132</ele>
        <time>2024-03-27T13:57:03Z</time>
      </trkpt>
      <trkpt lat="43.47995" lon="6.18409">
        <ele>132</ele>
        <time>2024-03-27T13:57:04Z</time>
      </trkpt>
      <trkpt lat="43.47997" lon="6.18409">
        <ele>131.9</ele>
        <time>2024-03-27T13:57:05Z</time>
      </trkpt>
      <trkpt lat="43.47997" lon="6.1841">
        <ele>131.9</ele>
        <time>2024-03-27T13:57:06Z</time>
      </trkpt>
      <trkpt lat="43.47998" lon="6.18411">
        <ele>131.8</ele>
        <time>2024-03-27T13:57:07Z</time>
      </trkpt>
      <trkpt lat="43.47998" lon="6.18412">
        <ele>131.8</ele>
        <time>2024-03-27T13:57:08Z</time>
      </trkpt>
      <trkpt lat="43.47999" lon="6.18413">
        <ele>131.8</ele>
        <time>2024-03-27T13:57:09Z</time>
      </trkpt>
      <trkpt lat="43.48" lon="6.18414">
        <ele>131.9</ele>
        <time>2024-03-27T13:57:10Z</time>
      </trkpt>
      <trkpt lat="43.48001" lon="6.18415">
        <ele>131.9</ele>
        <time>2024-03-27T13:57:11Z</time>
      </trkpt>
      <trkpt lat="43.48002" lon="6.18416">
        <ele>131.9</ele>
        <time>2024-03-27T13:57:12Z</time>
      </trkpt>
      <trkpt lat="43.48003" lon="6.18417">
        <ele>131.9</ele>
        <time>2024-03-27T13:57:13Z</time>
      </trkpt>
      <trkpt lat="43.48004" lon="6.18417">
        <ele>132</ele>
        <time>2024-03-27T13:57:14Z</time>
      </trkpt>
      <trkpt lat="43.48005" lon="6.18418">
        <ele>132.1</ele>
        <time>2024-03-27T13:57:15Z</time>
      </trkpt>
      <trkpt lat="43.48006" lon="6.18419">
        <ele>132.2</ele>
        <time>2024-03-27T13:57:16Z</time>
      </trkpt>
      <trkpt lat="43.48007" lon="6.1842">
        <ele>132.2</ele>
        <time>2024-03-27T13:57:17Z</time>
      </trkpt>
      <trkpt lat="43.48008" lon="6.1842">
        <ele>132.3</ele>
        <time>2024-03-27T13:57:18Z</time>
      </trkpt>
      <trkpt lat="43.48008" lon="6.18421">
        <ele>132.2</ele>
        <time>2024-03-27T13:57:19Z</time>
      </trkpt>
      <trkpt lat="43.48009" lon="6.18422">
        <ele>132.2</ele>
        <time>2024-03-27T13:57:20Z</time>
      </trkpt>
      <trkpt lat="43.4801" lon="6.18423">
        <ele>132.2</ele>
        <time>2024-03-27T13:57:21Z</time>
      </trkpt>
      <trkpt lat="43.4801" lon="6.18423">
        <ele>132.1</ele>
        <time>2024-03-27T13:57:22Z</time>
      </trkpt>
      <trkpt lat="43.48012" lon="6.18424">
        <ele>132.1</ele>
        <time>2024-03-27T13:57:23Z</time>
      </trkpt>
      <trkpt lat="43.48012" lon="6.18425">
        <ele>132.2</ele>
        <time>2024-03-27T13:57:24Z</time>
      </trkpt>
      <trkpt lat="43.48013" lon="6.18426">
        <ele>132.1</ele>
        <time>2024-03-27T13:57:25Z</time>
      </trkpt>
      <trkpt lat="43.48014" lon="6.18427">
        <ele>132.1</ele>
        <time>2024-03-27T13:57:26Z</time>
      </trkpt>
      <trkpt lat="43.48015" lon="6.18428">
        <ele>132.2</ele>
        <time>2024-03-27T13:57:27Z</time>
      </trkpt>
      <trkpt lat="43.48016" lon="6.18429">
        <ele>132.2</ele>
        <time>2024-03-27T13:57:28Z</time>
      </trkpt>
      <trkpt lat="43.48017" lon="6.1843">
        <ele>132.2</ele>
        <time>2024-03-27T13:57:29Z</time>
      </trkpt>
      <trkpt lat="43.48019" lon="6.18431">
        <ele>132.2</ele>
        <time>2024-03-27T13:57:30Z</time>
      </trkpt>
      <trkpt lat="43.4802" lon="6.18432">
        <ele>132.3</ele>
        <time>2024-03-27T13:57:31Z</time>
      </trkpt>
      <trkpt lat="43.4802" lon="6.18434">
        <ele>132.3</ele>
        <time>2024-03-27T13:57:32Z</time>
      </trkpt>
      <trkpt lat="43.48021" lon="6.18435">
        <ele>132.3</ele>
        <time>2024-03-27T13:57:33Z</time>
      </trkpt>
      <trkpt lat="43.48022" lon="6.18436">
        <ele>132.6</ele>
        <time>2024-03-27T13:57:34Z</time>
      </trkpt>
      <trkpt lat="43.48023" lon="6.18437">
        <ele>132.5</ele>
        <time>2024-03-27T13:57:35Z</time>
      </trkpt>
      <trkpt lat="43.48024" lon="6.18439">
        <ele>132.4</ele>
        <time>2024-03-27T13:57:36Z</time>
      </trkpt>
      <trkpt lat="43.48025" lon="6.18439">
        <ele>132.3</ele>
        <time>2024-03-27T13:57:37Z</time>
      </trkpt>
      <trkpt lat="43.48026" lon="6.18441">
        <ele>132.2</ele>
        <time>2024-03-27T13:57:38Z</time>
      </trkpt>
      <trkpt lat="43.48027" lon="6.18442">
        <ele>132.2</ele>
        <time>2024-03-27T13:57:39Z</time>
      </trkpt>
      <trkpt lat="43.48029" lon="6.18444">
        <ele>132.3</ele>
        <time>2024-03-27T13:57:40Z</time>
      </trkpt>
      <trkpt lat="43.48029" lon="6.18445">
        <ele>132.2</ele>
        <time>2024-03-27T13:57:41Z</time>
      </trkpt>
      <trkpt lat="43.4803" lon="6.18445">
        <ele>132.2</ele>
        <time>2024-03-27T13:57:42Z</time>
      </trkpt>
      <trkpt lat="43.48031" lon="6.18446">
        <ele>132.2</ele>
        <time>2024-03-27T13:57:43Z</time>
      </trkpt>
      <trkpt lat="43.48032" lon="6.18446">
        <ele>132.2</ele>
        <time>2024-03-27T13:57:44Z</time>
      </trkpt>
      <trkpt lat="43.48032" lon="6.18447">
        <ele>132.3</ele>
        <time>2024-03-27T13:57:45Z</time>
      </trkpt>
      <trkpt lat="43.48033" lon="6.18447">
        <ele>132.3</ele>
        <time>2024-03-27T13:57:46Z</time>
      </trkpt>
      <trkpt lat="43.48035" lon="6.18448">
        <ele>132.3</ele>
        <time>2024-03-27T13:57:47Z</time>
      </trkpt>
      <trkpt lat="43.48036" lon="6.18449">
        <ele>132.3</ele>
        <time>2024-03-27T13:57:48Z</time>
      </trkpt>
      <trkpt lat="43.48037" lon="6.18449">
        <ele>132.4</ele>
        <time>2024-03-27T13:57:49Z</time>
      </trkpt>
      <trkpt lat="43.48039" lon="6.1845">
        <ele>132.4</ele>
        <time>2024-03-27T13:57:50Z</time>
      </trkpt>
      <trkpt lat="43.4804" lon="6.18452">
        <ele>132.4</ele>
        <time>2024-03-27T13:57:51Z</time>
      </trkpt>
      <trkpt lat="43.48041" lon="6.18453">
        <ele>132.4</ele>
        <time>2024-03-27T13:57:52Z</time>
      </trkpt>
      <trkpt lat="43.48042" lon="6.18454">
        <ele>132.4</ele>
        <time>2024-03-27T13:57:53Z</time>
      </trkpt>
      <trkpt lat="43.48044" lon="6.18455">
        <ele>132.4</ele>
        <time>2024-03-27T13:57:54Z</time>
      </trkpt>
      <trkpt lat="43.48045" lon="6.18456">
        <ele>132.5</ele>
        <time>2024-03-27T13:57:55Z</time>
      </trkpt>
      <trkpt lat="43.48046" lon="6.18457">
        <ele>132.5</ele>
        <time>2024-03-27T13:57:56Z</time>
      </trkpt>
      <trkpt lat="43.48047" lon="6.18458">
        <ele>132.5</ele>
        <time>2024-03-27T13:57:57Z</time>
      </trkpt>
      <trkpt lat="43.48048" lon="6.18459">
        <ele>132.6</ele>
        <time>2024-03-27T13:57:58Z</time>
      </trkpt>
      <trkpt lat="43.48049" lon="6.1846">
        <ele>132.6</ele>
        <time>2024-03-27T13:57:59Z</time>
      </trkpt>
      <trkpt lat="43.4805" lon="6.18461">
        <ele>132.7</ele>
        <time>2024-03-27T13:58:00Z</time>
      </trkpt>
      <trkpt lat="43.48051" lon="6.18462">
        <ele>132.7</ele>
        <time>2024-03-27T13:58:01Z</time>
      </trkpt>
      <trkpt lat="43.48051" lon="6.18463">
        <ele>132.9</ele>
        <time>2024-03-27T13:58:02Z</time>
      </trkpt>
      <trkpt lat="43.48052" lon="6.18464">
        <ele>133</ele>
        <time>2024-03-27T13:58:03Z</time>
      </trkpt>
      <trkpt lat="43.48053" lon="6.18465">
        <ele>133</ele>
        <time>2024-03-27T13:58:04Z</time>
      </trkpt>
      <trkpt lat="43.48054" lon="6.18467">
        <ele>133.1</ele>
        <time>2024-03-27T13:58:05Z</time>
      </trkpt>
      <trkpt lat="43.48055" lon="6.18468">
        <ele>133.1</ele>
        <time>2024-03-27T13:58:06Z</time>
      </trkpt>
      <trkpt lat="43.48057" lon="6.18469">
        <ele>133.1</ele>
        <time>2024-03-27T13:58:07Z</time>
      </trkpt>
      <trkpt lat="43.48058" lon="6.18471">
        <ele>133.1</ele>
        <time>2024-03-27T13:58:08Z</time>
      </trkpt>
      <trkpt lat="43.48059" lon="6.18472">
        <ele>133.1</ele>
        <time>2024-03-27T13:58:09Z</time>
      </trkpt>
      <trkpt lat="43.4806" lon="6.18474">
        <ele>133.1</ele>
        <time>2024-03-27T13:58:10Z</time>
      </trkpt>
      <trkpt lat="43.48061" lon="6.18475">
        <ele>133.1</ele>
        <time>2024-03-27T13:58:11Z</time>
      </trkpt>
      <trkpt lat="43.48063" lon="6.18475">
        <ele>133.2</ele>
        <time>2024-03-27T13:58:12Z</time>
      </trkpt>
      <trkpt lat="43.48064" lon="6.18477">
        <ele>133.2</ele>
        <time>2024-03-27T13:58:13Z</time>
      </trkpt>
      <trkpt lat="43.48064" lon="6.18478">
        <ele>133.2</ele>
        <time>2024-03-27T13:58:14Z</time>
      </trkpt>
      <trkpt lat="43.48065" lon="6.18479">
        <ele>133.2</ele>
        <time>2024-03-27T13:58:15Z</time>
      </trkpt>
      <trkpt lat="43.48066" lon="6.1848">
        <ele>133.1</ele>
        <time>2024-03-27T13:58:16Z</time>
      </trkpt>
      <trkpt lat="43.48067" lon="6.18481">
        <ele>133.3</ele>
        <time>2024-03-27T13:58:17Z</time>
      </trkpt>
      <trkpt lat="43.48068" lon="6.18481">
        <ele>133.3</ele>
        <time>2024-03-27T13:58:18Z</time>
      </trkpt>
      <trkpt lat="43.48069" lon="6.18482">
        <ele>133.4</ele>
        <time>2024-03-27T13:58:19Z</time>
      </trkpt>
      <trkpt lat="43.4807" lon="6.18484">
        <ele>133.4</ele>
        <time>2024-03-27T13:58:20Z</time>
      </trkpt>
      <trkpt lat="43.48072" lon="6.18485">
        <ele>133.4</ele>
        <time>2024-03-27T13:58:21Z</time>
      </trkpt>
      <trkpt lat="43.48073" lon="6.18486">
        <ele>133.3</ele>
        <time>2024-03-27T13:58:22Z</time>
      </trkpt>
      <trkpt lat="43.48075" lon="6.18487">
        <ele>133.3</ele>
        <time>2024-03-27T13:58:23Z</time>
      </trkpt>
      <trkpt lat="43.48076" lon="6.18488">
        <ele>133.2</ele>
        <time>2024-03-27T13:58:24Z</time>
      </trkpt>
      <trkpt lat="43.48077" lon="6.18489">
        <ele>133.2</ele>
        <time>2024-03-27T13:58:25Z</time>
      </trkpt>
      <trkpt lat="43.48079" lon="6.18489">
        <ele>133.4</ele>
        <time>2024-03-27T13:58:26Z</time>
      </trkpt>
      <trkpt lat="43.4808" lon="6.1849">
        <ele>133.4</ele>
        <time>2024-03-27T13:58:27Z</time>
      </trkpt>
      <trkpt lat="43.48081" lon="6.1849">
        <ele>133.4</ele>
        <time>2024-03-27T13:58:28Z</time>
      </trkpt>
      <trkpt lat="43.48082" lon="6.18491">
        <ele>133.4</ele>
        <time>2024-03-27T13:58:29Z</time>
      </trkpt>
      <trkpt lat="43.48083" lon="6.18492">
        <ele>133.4</ele>
        <time>2024-03-27T13:58:30Z</time>
      </trkpt>
      <trkpt lat="43.48084" lon="6.18493">
        <ele>133.5</ele>
        <time>2024-03-27T13:58:31Z</time>
      </trkpt>
      <trkpt lat="43.48086" lon="6.18494">
        <ele>133.5</ele>
        <time>2024-03-27T13:58:32Z</time>
      </trkpt>
      <trkpt lat="43.48087" lon="6.18496">
        <ele>133.5</ele>
        <time>2024-03-27T13:58:33Z</time>
      </trkpt>
      <trkpt lat="43.48088" lon="6.18497">
        <ele>133.5</ele>
        <time>2024-03-27T13:58:34Z</time>
      </trkpt>
      <trkpt lat="43.48089" lon="6.18498">
        <ele>133.4</ele>
        <time>2024-03-27T13:58:35Z</time>
      </trkpt>
      <trkpt lat="43.4809" lon="6.18499">
        <ele>133.5</ele>
        <time>2024-03-27T13:58:36Z</time>
      </trkpt>
      <trkpt lat="43.48091" lon="6.185">
        <ele>133.4</ele>
        <time>2024-03-27T13:58:37Z</time>
      </trkpt>
      <trkpt lat="43.48091" lon="6.18501">
        <ele>133.6</ele>
        <time>2024-03-27T13:58:38Z</time>
      </trkpt>
      <trkpt lat="43.48092" lon="6.18502">
        <ele>133.7</ele>
        <time>2024-03-27T13:58:39Z</time>
      </trkpt>
      <trkpt lat="43.48093" lon="6.18503">
        <ele>133.8</ele>
        <time>2024-03-27T13:58:40Z</time>
      </trkpt>
      <trkpt lat="43.48094" lon="6.18504">
        <ele>133.9</ele>
        <time>2024-03-27T13:58:41Z</time>
      </trkpt>
      <trkpt lat="43.48094" lon="6.18505">
        <ele>133.9</ele>
        <time>2024-03-27T13:58:42Z</time>
      </trkpt>
      <trkpt lat="43.48095" lon="6.18507">
        <ele>134</ele>
        <time>2024-03-27T13:58:43Z</time>
      </trkpt>
      <trkpt lat="43.48096" lon="6.18508">
        <ele>134.1</ele>
        <time>2024-03-27T13:58:44Z</time>
      </trkpt>
      <trkpt lat="43.48097" lon="6.18509">
        <ele>134.1</ele>
        <time>2024-03-27T13:58:45Z</time>
      </trkpt>
      <trkpt lat="43.48098" lon="6.18511">
        <ele>134.1</ele>
        <time>2024-03-27T13:58:46Z</time>
      </trkpt>
      <trkpt lat="43.48099" lon="6.18512">
        <ele>134.1</ele>
        <time>2024-03-27T13:58:47Z</time>
      </trkpt>
      <trkpt lat="43.48099" lon="6.18513">
        <ele>134.2</ele>
        <time>2024-03-27T13:58:48Z</time>
      </trkpt>
      <trkpt lat="43.481" lon="6.18514">
        <ele>134.3</ele>
        <time>2024-03-27T13:58:49Z</time>
      </trkpt>
      <trkpt lat="43.48101" lon="6.18516">
        <ele>134.2</ele>
        <time>2024-03-27T13:58:50Z</time>
      </trkpt>
      <trkpt lat="43.48102" lon="6.18517">
        <ele>134.2</ele>
        <time>2024-03-27T13:58:51Z</time>
      </trkpt>
      <trkpt lat="43.48103" lon="6.18519">
        <ele>134.2</ele>
        <time>2024-03-27T13:58:52Z</time>
      </trkpt>
      <trkpt lat="43.48104" lon="6.1852">
        <ele>134.1</ele>
        <time>2024-03-27T13:58:53Z</time>
      </trkpt>
      <trkpt lat="43.48105" lon="6.18522">
        <ele>134.1</ele>
        <time>2024-03-27T13:58:54Z</time>
      </trkpt>
      <trkpt lat="43.48106" lon="6.18523">
        <ele>134.1</ele>
        <time>2024-03-27T13:58:55Z</time>
      </trkpt>
      <trkpt lat="43.48106" lon="6.18524">
        <ele>134.1</ele>
        <time>2024-03-27T13:58:56Z</time>
      </trkpt>
      <trkpt lat="43.48107" lon="6.18525">
        <ele>134</ele>
        <time>2024-03-27T13:58:57Z</time>
      </trkpt>
      <trkpt lat="43.48108" lon="6.18527">
        <ele>134</ele>
        <time>2024-03-27T13:58:58Z</time>
      </trkpt>
      <trkpt lat="43.48109" lon="6.18528">
        <ele>133.9</ele>
        <time>2024-03-27T13:58:59Z</time>
      </trkpt>
      <trkpt lat="43.4811" lon="6.1853">
        <ele>133.9</ele>
        <time>2024-03-27T13:59:00Z</time>
      </trkpt>
      <trkpt lat="43.48111" lon="6.18531">
        <ele>133.8</ele>
        <time>2024-03-27T13:59:01Z</time>
      </trkpt>
      <trkpt lat="43.48112" lon="6.18532">
        <ele>133.8</ele>
        <time>2024-03-27T13:59:02Z</time>
      </trkpt>
      <trkpt lat="43.48113" lon="6.18533">
        <ele>133.8</ele>
        <time>2024-03-27T13:59:03Z</time>
      </trkpt>
      <trkpt lat="43.48114" lon="6.18535">
        <ele>133.9</ele>
        <time>2024-03-27T13:59:04Z</time>
      </trkpt>
      <trkpt lat="43.48115" lon="6.18536">
        <ele>133.9</ele>
        <time>2024-03-27T13:59:05Z</time>
      </trkpt>
      <trkpt lat="43.48116" lon="6.18537">
        <ele>133.9</ele>
        <time>2024-03-27T13:59:06Z</time>
      </trkpt>
      <trkpt lat="43.48116" lon="6.18538">
        <ele>133.9</ele>
        <time>2024-03-27T13:59:07Z</time>
      </trkpt>
      <trkpt lat="43.48117" lon="6.18539">
        <ele>133.9</ele>
        <time>2024-03-27T13:59:08Z</time>
      </trkpt>
      <trkpt lat="43.48118" lon="6.1854">
        <ele>133.9</ele>
        <time>2024-03-27T13:59:09Z</time>
      </trkpt>
      <trkpt lat="43.48119" lon="6.18541">
        <ele>134</ele>
        <time>2024-03-27T13:59:10Z</time>
      </trkpt>
      <trkpt lat="43.4812" lon="6.18542">
        <ele>134.3</ele>
        <time>2024-03-27T13:59:11Z</time>
      </trkpt>
      <trkpt lat="43.48121" lon="6.18544">
        <ele>134.5</ele>
        <time>2024-03-27T13:59:12Z</time>
      </trkpt>
      <trkpt lat="43.48121" lon="6.18546">
        <ele>134.5</ele>
        <time>2024-03-27T13:59:13Z</time>
      </trkpt>
      <trkpt lat="43.48122" lon="6.18547">
        <ele>134.5</ele>
        <time>2024-03-27T13:59:14Z</time>
      </trkpt>
      <trkpt lat="43.48123" lon="6.18549">
        <ele>134.7</ele>
        <time>2024-03-27T13:59:15Z</time>
      </trkpt>
      <trkpt lat="43.48124" lon="6.1855">
        <ele>134.7</ele>
        <time>2024-03-27T13:59:16Z</time>
      </trkpt>
      <trkpt lat="43.48125" lon="6.18551">
        <ele>134.7</ele>
        <time>2024-03-27T13:59:17Z</time>
      </trkpt>
      <trkpt lat="43.48126" lon="6.18553">
        <ele>134.8</ele>
        <time>2024-03-27T13:59:18Z</time>
      </trkpt>
      <trkpt lat="43.48127" lon="6.18554">
        <ele>134.7</ele>
        <time>2024-03-27T13:59:19Z</time>
      </trkpt>
      <trkpt lat="43.48128" lon="6.18555">
        <ele>134.7</ele>
        <time>2024-03-27T13:59:20Z</time>
      </trkpt>
      <trkpt lat="43.48128" lon="6.18557">
        <ele>134.7</ele>
        <time>2024-03-27T13:59:21Z</time>
      </trkpt>
      <trkpt lat="43.48129" lon="6.18558">
        <ele>134.7</ele>
        <time>2024-03-27T13:59:22Z</time>
      </trkpt>
      <trkpt lat="43.4813" lon="6.18559">
        <ele>134.7</ele>
        <time>2024-03-27T13:59:23Z</time>
      </trkpt>
      <trkpt lat="43.48131" lon="6.1856">
        <ele>134.7</ele>
        <time>2024-03-27T13:59:24Z</time>
      </trkpt>
      <trkpt lat="43.48132" lon="6.18561">
        <ele>134.7</ele>
        <time>2024-03-27T13:59:25Z</time>
      </trkpt>
      <trkpt lat="43.48133" lon="6.18562">
        <ele>134.7</ele>
        <time>2024-03-27T13:59:26Z</time>
      </trkpt>
      <trkpt lat="43.48135" lon="6.18563">
        <ele>134.6</ele>
        <time>2024-03-27T13:59:27Z</time>
      </trkpt>
      <trkpt lat="43.48136" lon="6.18564">
        <ele>134.5</ele>
        <time>2024-03-27T13:59:28Z</time>
      </trkpt>
      <trkpt lat="43.48137" lon="6.18565">
        <ele>134.5</ele>
        <time>2024-03-27T13:59:29Z</time>
      </trkpt>
      <trkpt lat="43.48138" lon="6.18565">
        <ele>134.6</ele>
        <time>2024-03-27T13:59:30Z</time>
      </trkpt>
      <trkpt lat="43.48139" lon="6.18566">
        <ele>134.6</ele>
        <time>2024-03-27T13:59:31Z</time>
      </trkpt>
      <trkpt lat="43.4814" lon="6.18567">
        <ele>134.6</ele>
        <time>2024-03-27T13:59:32Z</time>
      </trkpt>
      <trkpt lat="43.48142" lon="6.18567">
        <ele>134.6</ele>
        <time>2024-03-27T13:59:33Z</time>
      </trkpt>
      <trkpt lat="43.48143" lon="6.18567">
        <ele>134.6</ele>
        <time>2024-03-27T13:59:34Z</time>
      </trkpt>
      <trkpt lat="43.48144" lon="6.18567">
        <ele>134.7</ele>
        <time>2024-03-27T13:59:35Z</time>
      </trkpt>
      <trkpt lat="43.48145" lon="6.18568">
        <ele>134.7</ele>
        <time>2024-03-27T13:59:36Z</time>
      </trkpt>
      <trkpt lat="43.48147" lon="6.18569">
        <ele>134.5</ele>
        <time>2024-03-27T13:59:37Z</time>
      </trkpt>
      <trkpt lat="43.48148" lon="6.18569">
        <ele>134.4</ele>
        <time>2024-03-27T13:59:38Z</time>
      </trkpt>
      <trkpt lat="43.4815" lon="6.1857">
        <ele>134.5</ele>
        <time>2024-03-27T13:59:39Z</time>
      </trkpt>
      <trkpt lat="43.48151" lon="6.18569">
        <ele>134.6</ele>
        <time>2024-03-27T13:59:40Z</time>
      </trkpt>
      <trkpt lat="43.48152" lon="6.18569">
        <ele>134.6</ele>
        <time>2024-03-27T13:59:41Z</time>
      </trkpt>
      <trkpt lat="43.48153" lon="6.1857">
        <ele>134.6</ele>
        <time>2024-03-27T13:59:42Z</time>
      </trkpt>
      <trkpt lat="43.48154" lon="6.1857">
        <ele>134.6</ele>
        <time>2024-03-27T13:59:43Z</time>
      </trkpt>
      <trkpt lat="43.48155" lon="6.18571">
        <ele>134.6</ele>
        <time>2024-03-27T13:59:44Z</time>
      </trkpt>
      <trkpt lat="43.48156" lon="6.18572">
        <ele>134.5</ele>
        <time>2024-03-27T13:59:45Z</time>
      </trkpt>
      <trkpt lat="43.48157" lon="6.18572">
        <ele>134.6</ele>
        <time>2024-03-27T13:59:46Z</time>
      </trkpt>
      <trkpt lat="43.48158" lon="6.18572">
        <ele>134.6</ele>
        <time>2024-03-27T13:59:47Z</time>
      </trkpt>
      <trkpt lat="43.48159" lon="6.18572">
        <ele>134.6</ele>
        <time>2024-03-27T13:59:48Z</time>
      </trkpt>
      <trkpt lat="43.4816" lon="6.18572">
        <ele>134.6</ele>
        <time>2024-03-27T13:59:49Z</time>
      </trkpt>
      <trkpt lat="43.48161" lon="6.18573">
        <ele>134.6</ele>
        <time>2024-03-27T13:59:50Z</time>
      </trkpt>
      <trkpt lat="43.48162" lon="6.18574">
        <ele>134.8</ele>
        <time>2024-03-27T13:59:51Z</time>
      </trkpt>
      <trkpt lat="43.48164" lon="6.18574">
        <ele>134.7</ele>
        <time>2024-03-27T13:59:52Z</time>
      </trkpt>
      <trkpt lat="43.48165" lon="6.18574">
        <ele>134.6</ele>
        <time>2024-03-27T13:59:53Z</time>
      </trkpt>
      <trkpt lat="43.48167" lon="6.18574">
        <ele>134.6</ele>
        <time>2024-03-27T13:59:54Z</time>
      </trkpt>
      <trkpt lat="43.48168" lon="6.18574">
        <ele>134.5</ele>
        <time>2024-03-27T13:59:55Z</time>
      </trkpt>
      <trkpt lat="43.48168" lon="6.18575">
        <ele>134.5</ele>
        <time>2024-03-27T13:59:56Z</time>
      </trkpt>
      <trkpt lat="43.48169" lon="6.18575">
        <ele>134.4</ele>
        <time>2024-03-27T13:59:57Z</time>
      </trkpt>
      <trkpt lat="43.4817" lon="6.18575">
        <ele>134.4</ele>
        <time>2024-03-27T13:59:58Z</time>
      </trkpt>
      <trkpt lat="43.48171" lon="6.18576">
        <ele>134.3</ele>
        <time>2024-03-27T13:59:59Z</time>
      </trkpt>
      <trkpt lat="43.48172" lon="6.18576">
        <ele>134.3</ele>
        <time>2024-03-27T14:00:00Z</time>
      </trkpt>
      <trkpt lat="43.48173" lon="6.18577">
        <ele>134.3</ele>
        <time>2024-03-27T14:00:01Z</time>
      </trkpt>
      <trkpt lat="43.48173" lon="6.18577">
        <ele>134.3</ele>
        <time>2024-03-27T14:00:02Z</time>
      </trkpt>
      <trkpt lat="43.48174" lon="6.18577">
        <ele>134.2</ele>
        <time>2024-03-27T14:00:03Z</time>
      </trkpt>
      <trkpt lat="43.48175" lon="6.18577">
        <ele>134.2</ele>
        <time>2024-03-27T14:00:04Z</time>
      </trkpt>
      <trkpt lat="43.48177" lon="6.18578">
        <ele>134.5</ele>
        <time>2024-03-27T14:00:05Z</time>
      </trkpt>
      <trkpt lat="43.48178" lon="6.18579">
        <ele>134.6</ele>
        <time>2024-03-27T14:00:06Z</time>
      </trkpt>
      <trkpt lat="43.48179" lon="6.18579">
        <ele>134.6</ele>
        <time>2024-03-27T14:00:07Z</time>
      </trkpt>
      <trkpt lat="43.4818" lon="6.1858">
        <ele>134.6</ele>
        <time>2024-03-27T14:00:08Z</time>
      </trkpt>
      <trkpt lat="43.48181" lon="6.1858">
        <ele>134.6</ele>
        <time>2024-03-27T14:00:09Z</time>
      </trkpt>
      <trkpt lat="43.48183" lon="6.18581">
        <ele>134.9</ele>
        <time>2024-03-27T14:00:10Z</time>
      </trkpt>
      <trkpt lat="43.48184" lon="6.18581">
        <ele>135.1</ele>
        <time>2024-03-27T14:00:11Z</time>
      </trkpt>
      <trkpt lat="43.48185" lon="6.18582">
        <ele>135.1</ele>
        <time>2024-03-27T14:00:12Z</time>
      </trkpt>
      <trkpt lat="43.48187" lon="6.18582">
        <ele>135.1</ele>
        <time>2024-03-27T14:00:13Z</time>
      </trkpt>
      <trkpt lat="43.48188" lon="6.18583">
        <ele>135</ele>
        <time>2024-03-27T14:00:14Z</time>
      </trkpt>
      <trkpt lat="43.48189" lon="6.18583">
        <ele>134.9</ele>
        <time>2024-03-27T14:00:15Z</time>
      </trkpt>
      <trkpt lat="43.4819" lon="6.18583">
        <ele>134.8</ele>
        <time>2024-03-27T14:00:16Z</time>
      </trkpt>
      <trkpt lat="43.48191" lon="6.18584">
        <ele>135</ele>
        <time>2024-03-27T14:00:17Z</time>
      </trkpt>
      <trkpt lat="43.48193" lon="6.18584">
        <ele>134.9</ele>
        <time>2024-03-27T14:00:18Z</time>
      </trkpt>
      <trkpt lat="43.48194" lon="6.18585">
        <ele>134.8</ele>
        <time>2024-03-27T14:00:19Z</time>
      </trkpt>
      <trkpt lat="43.48195" lon="6.18585">
        <ele>134.8</ele>
        <time>2024-03-27T14:00:20Z</time>
      </trkpt>
      <trkpt lat="43.48196" lon="6.18586">
        <ele>134.7</ele>
        <time>2024-03-27T14:00:21Z</time>
      </trkpt>
      <trkpt lat="43.48197" lon="6.18587">
        <ele>134.7</ele>
        <time>2024-03-27T14:00:22Z</time>
      </trkpt>
      <trkpt lat="43.48198" lon="6.18587">
        <ele>134.7</ele>
        <time>2024-03-27T14:00:23Z</time>
      </trkpt>
      <trkpt lat="43.482" lon="6.18587">
        <ele>134.7</ele>
        <time>2024-03-27T14:00:24Z</time>
      </trkpt>
      <trkpt lat="43.48201" lon="6.18588">
        <ele>134.9</ele>
        <time>2024-03-27T14:00:25Z</time>
      </trkpt>
      <trkpt lat="43.48202" lon="6.18588">
        <ele>135</ele>
        <time>2024-03-27T14:00:26Z</time>
      </trkpt>
      <trkpt lat="43.48203" lon="6.18589">
        <ele>135</ele>
        <time>2024-03-27T14:00:27Z</time>
      </trkpt>
      <trkpt lat="43.48204" lon="6.18589">
        <ele>135</ele>
        <time>2024-03-27T14:00:28Z</time>
      </trkpt>
      <trkpt lat="43.48205" lon="6.18589">
        <ele>135</ele>
        <time>2024-03-27T14:00:29Z</time>
      </trkpt>
      <trkpt lat="43.48207" lon="6.18589">
        <ele>135</ele>
        <time>2024-03-27T14:00:30Z</time>
      </trkpt>
      <trkpt lat="43.48208" lon="6.1859">
        <ele>135</ele>
        <time>2024-03-27T14:00:31Z</time>
      </trkpt>
      <trkpt lat="43.48209" lon="6.1859">
        <ele>134.9</ele>
        <time>2024-03-27T14:00:32Z</time>
      </trkpt>
      <trkpt lat="43.4821" lon="6.18591">
        <ele>134.9</ele>
        <time>2024-03-27T14:00:33Z</time>
      </trkpt>
      <trkpt lat="43.48211" lon="6.18591">
        <ele>134.9</ele>
        <time>2024-03-27T14:00:34Z</time>
      </trkpt>
      <trkpt lat="43.48213" lon="6.18592">
        <ele>134.9</ele>
        <time>2024-03-27T14:00:35Z</time>
      </trkpt>
      <trkpt lat="43.48214" lon="6.18592">
        <ele>134.9</ele>
        <time>2024-03-27T14:00:36Z</time>
      </trkpt>
      <trkpt lat="43.48215" lon="6.18593">
        <ele>134.9</ele>
        <time>2024-03-27T14:00:37Z</time>
      </trkpt>
      <trkpt lat="43.48216" lon="6.18594">
        <ele>134.9</ele>
        <time>2024-03-27T14:00:38Z</time>
      </trkpt>
      <trkpt lat="43.48217" lon="6.18594">
        <ele>134.8</ele>
        <time>2024-03-27T14:00:39Z</time>
      </trkpt>
      <trkpt lat="43.48218" lon="6.18595">
        <ele>134.8</ele>
        <time>2024-03-27T14:00:40Z</time>
      </trkpt>
      <trkpt lat="43.4822" lon="6.18595">
        <ele>134.8</ele>
        <time>2024-03-27T14:00:41Z</time>
      </trkpt>
      <trkpt lat="43.4822" lon="6.18595">
        <ele>134.7</ele>
        <time>2024-03-27T14:00:42Z</time>
      </trkpt>
      <trkpt lat="43.48222" lon="6.18596">
        <ele>134.8</ele>
        <time>2024-03-27T14:00:43Z</time>
      </trkpt>
      <trkpt lat="43.48223" lon="6.18596">
        <ele>134.9</ele>
        <time>2024-03-27T14:00:44Z</time>
      </trkpt>
      <trkpt lat="43.48224" lon="6.18597">
        <ele>135.1</ele>
        <time>2024-03-27T14:00:45Z</time>
      </trkpt>
      <trkpt lat="43.48225" lon="6.18597">
        <ele>135.2</ele>
        <time>2024-03-27T14:00:46Z</time>
      </trkpt>
      <trkpt lat="43.48226" lon="6.18598">
        <ele>135.4</ele>
        <time>2024-03-27T14:00:47Z</time>
      </trkpt>
      <trkpt lat="43.48227" lon="6.18598">
        <ele>135.5</ele>
        <time>2024-03-27T14:00:48Z</time>
      </trkpt>
      <trkpt lat="43.48229" lon="6.18598">
        <ele>135.6</ele>
        <time>2024-03-27T14:00:49Z</time>
      </trkpt>
      <trkpt lat="43.4823" lon="6.18599">
        <ele>135.6</ele>
        <time>2024-03-27T14:00:50Z</time>
      </trkpt>
      <trkpt lat="43.48231" lon="6.18599">
        <ele>135.7</ele>
        <time>2024-03-27T14:00:51Z</time>
      </trkpt>
      <trkpt lat="43.48232" lon="6.186">
        <ele>135.8</ele>
        <time>2024-03-27T14:00:52Z</time>
      </trkpt>
      <trkpt lat="43.48233" lon="6.186">
        <ele>135.9</ele>
        <time>2024-03-27T14:00:53Z</time>
      </trkpt>
      <trkpt lat="43.48235" lon="6.18601">
        <ele>136.1</ele>
        <time>2024-03-27T14:00:54Z</time>
      </trkpt>
      <trkpt lat="43.48236" lon="6.18601">
        <ele>136</ele>
        <time>2024-03-27T14:00:55Z</time>
      </trkpt>
      <trkpt lat="43.48237" lon="6.18601">
        <ele>136.2</ele>
        <time>2024-03-27T14:00:56Z</time>
      </trkpt>
      <trkpt lat="43.48239" lon="6.18602">
        <ele>136.2</ele>
        <time>2024-03-27T14:00:57Z</time>
      </trkpt>
      <trkpt lat="43.4824" lon="6.18602">
        <ele>136.2</ele>
        <time>2024-03-27T14:00:58Z</time>
      </trkpt>
      <trkpt lat="43.48241" lon="6.18602">
        <ele>136.2</ele>
        <time>2024-03-27T14:00:59Z</time>
      </trkpt>
      <trkpt lat="43.48242" lon="6.18603">
        <ele>136.2</ele>
        <time>2024-03-27T14:01:00Z</time>
      </trkpt>
      <trkpt lat="43.48244" lon="6.18603">
        <ele>136.2</ele>
        <time>2024-03-27T14:01:01Z</time>
      </trkpt>
      <trkpt lat="43.48245" lon="6.18602">
        <ele>136.1</ele>
        <time>2024-03-27T14:01:02Z</time>
      </trkpt>
      <trkpt lat="43.48246" lon="6.18603">
        <ele>136</ele>
        <time>2024-03-27T14:01:03Z</time>
      </trkpt>
      <trkpt lat="43.48247" lon="6.18603">
        <ele>136.1</ele>
        <time>2024-03-27T14:01:04Z</time>
      </trkpt>
      <trkpt lat="43.48249" lon="6.18604">
        <ele>136.2</ele>
        <time>2024-03-27T14:01:05Z</time>
      </trkpt>
      <trkpt lat="43.48249" lon="6.18606">
        <ele>136.3</ele>
        <time>2024-03-27T14:01:06Z</time>
      </trkpt>
      <trkpt lat="43.48251" lon="6.18606">
        <ele>136.4</ele>
        <time>2024-03-27T14:01:07Z</time>
      </trkpt>
      <trkpt lat="43.48252" lon="6.18606">
        <ele>136.5</ele>
        <time>2024-03-27T14:01:08Z</time>
      </trkpt>
      <trkpt lat="43.48253" lon="6.18606">
        <ele>136.6</ele>
        <time>2024-03-27T14:01:09Z</time>
      </trkpt>
      <trkpt lat="43.48254" lon="6.18606">
        <ele>136.6</ele>
        <time>2024-03-27T14:01:10Z</time>
      </trkpt>
      <trkpt lat="43.48255" lon="6.18606">
        <ele>136.7</ele>
        <time>2024-03-27T14:01:11Z</time>
      </trkpt>
      <trkpt lat="43.48256" lon="6.18606">
        <ele>136.7</ele>
        <time>2024-03-27T14:01:12Z</time>
      </trkpt>
      <trkpt lat="43.48258" lon="6.18607">
        <ele>136.7</ele>
        <time>2024-03-27T14:01:13Z</time>
      </trkpt>
      <trkpt lat="43.48259" lon="6.18607">
        <ele>136.7</ele>
        <time>2024-03-27T14:01:14Z</time>
      </trkpt>
      <trkpt lat="43.4826" lon="6.18608">
        <ele>136.7</ele>
        <time>2024-03-27T14:01:15Z</time>
      </trkpt>
      <trkpt lat="43.48261" lon="6.18608">
        <ele>136.8</ele>
        <time>2024-03-27T14:01:16Z</time>
      </trkpt>
      <trkpt lat="43.48262" lon="6.18609">
        <ele>136.9</ele>
        <time>2024-03-27T14:01:17Z</time>
      </trkpt>
      <trkpt lat="43.48263" lon="6.1861">
        <ele>136.9</ele>
        <time>2024-03-27T14:01:18Z</time>
      </trkpt>
      <trkpt lat="43.48264" lon="6.18611">
        <ele>137</ele>
        <time>2024-03-27T14:01:19Z</time>
      </trkpt>
      <trkpt lat="43.48265" lon="6.18612">
        <ele>137.1</ele>
        <time>2024-03-27T14:01:20Z</time>
      </trkpt>
      <trkpt lat="43.48267" lon="6.18612">
        <ele>137.1</ele>
        <time>2024-03-27T14:01:21Z</time>
      </trkpt>
      <trkpt lat="43.48268" lon="6.18613">
        <ele>137.2</ele>
        <time>2024-03-27T14:01:22Z</time>
      </trkpt>
      <trkpt lat="43.48269" lon="6.18612">
        <ele>137.2</ele>
        <time>2024-03-27T14:01:23Z</time>
      </trkpt>
      <trkpt lat="43.4827" lon="6.18612">
        <ele>137.2</ele>
        <time>2024-03-27T14:01:24Z</time>
      </trkpt>
      <trkpt lat="43.4827" lon="6.18612">
        <ele>137.3</ele>
        <time>2024-03-27T14:01:25Z</time>
      </trkpt>
      <trkpt lat="43.48271" lon="6.18612">
        <ele>137.4</ele>
        <time>2024-03-27T14:01:26Z</time>
      </trkpt>
      <trkpt lat="43.48271" lon="6.18612">
        <ele>137.4</ele>
        <time>2024-03-27T14:01:27Z</time>
      </trkpt>
      <trkpt lat="43.48271" lon="6.18612">
        <ele>137.4</ele>
        <time>2024-03-27T14:01:28Z</time>
      </trkpt>
      <trkpt lat="43.48271" lon="6.18612">
        <ele>137.4</ele>
        <time>2024-03-27T14:01:29Z</time>
      </trkpt>
      <trkpt lat="43.48271" lon="6.18613">
        <ele>137.4</ele>
        <time>2024-03-27T14:01:30Z</time>
      </trkpt>
      <trkpt lat="43.48271" lon="6.18614">
        <ele>137.4</ele>
        <time>2024-03-27T14:01:31Z</time>
      </trkpt>
      <trkpt lat="43.48271" lon="6.18616">
        <ele>137.5</ele>
        <time>2024-03-27T14:01:32Z</time>
      </trkpt>
      <trkpt lat="43.48272" lon="6.18618">
        <ele>137.5</ele>
        <time>2024-03-27T14:01:33Z</time>
      </trkpt>
      <trkpt lat="43.48273" lon="6.18619">
        <ele>137.6</ele>
        <time>2024-03-27T14:01:34Z</time>
      </trkpt>
      <trkpt lat="43.48274" lon="6.18621">
        <ele>137.7</ele>
        <time>2024-03-27T14:01:35Z</time>
      </trkpt>
      <trkpt lat="43.48274" lon="6.18622">
        <ele>137.7</ele>
        <time>2024-03-27T14:01:36Z</time>
      </trkpt>
      <trkpt lat="43.48274" lon="6.18623">
        <ele>137.8</ele>
        <time>2024-03-27T14:01:37Z</time>
      </trkpt>
      <trkpt lat="43.48274" lon="6.18625">
        <ele>137.8</ele>
        <time>2024-03-27T14:01:38Z</time>
      </trkpt>
      <trkpt lat="43.48274" lon="6.18626">
        <ele>137.8</ele>
        <time>2024-03-27T14:01:39Z</time>
      </trkpt>
      <trkpt lat="43.48274" lon="6.18627">
        <ele>137.8</ele>
        <time>2024-03-27T14:01:40Z</time>
      </trkpt>
      <trkpt lat="43.48273" lon="6.18628">
        <ele>137.8</ele>
        <time>2024-03-27T14:01:41Z</time>
      </trkpt>
      <trkpt lat="43.48273" lon="6.18628">
        <ele>137.9</ele>
        <time>2024-03-27T14:01:42Z</time>
      </trkpt>
      <trkpt lat="43.48273" lon="6.18628">
        <ele>137.9</ele>
        <time>2024-03-27T14:01:43Z</time>
      </trkpt>
      <trkpt lat="43.48273" lon="6.18629">
        <ele>137.8</ele>
        <time>2024-03-27T14:01:44Z</time>
      </trkpt>
      <trkpt lat="43.48274" lon="6.18628">
        <ele>137.8</ele>
        <time>2024-03-27T14:01:45Z</time>
      </trkpt>
      <trkpt lat="43.48275" lon="6.18628">
        <ele>137.7</ele>
        <time>2024-03-27T14:01:46Z</time>
      </trkpt>
      <trkpt lat="43.48275" lon="6.18628">
        <ele>137.7</ele>
        <time>2024-03-27T14:01:47Z</time>
      </trkpt>
      <trkpt lat="43.48275" lon="6.18629">
        <ele>137.7</ele>
        <time>2024-03-27T14:01:48Z</time>
      </trkpt>
      <trkpt lat="43.48275" lon="6.18629">
        <ele>137.7</ele>
        <time>2024-03-27T14:01:49Z</time>
      </trkpt>
      <trkpt lat="43.48275" lon="6.18629">
        <ele>137.6</ele>
        <time>2024-03-27T14:01:50Z</time>
      </trkpt>
      <trkpt lat="43.48275" lon="6.1863">
        <ele>137.4</ele>
        <time>2024-03-27T14:01:51Z</time>
      </trkpt>
      <trkpt lat="43.48275" lon="6.1863">
        <ele>137.3</ele>
        <time>2024-03-27T14:01:52Z</time>
      </trkpt>
      <trkpt lat="43.48275" lon="6.1863">
        <ele>137.2</ele>
        <time>2024-03-27T14:01:53Z</time>
      </trkpt>
      <trkpt lat="43.48276" lon="6.1863">
        <ele>137.2</ele>
        <time>2024-03-27T14:01:54Z</time>
      </trkpt>
      <trkpt lat="43.48275" lon="6.1863">
        <ele>137.2</ele>
        <time>2024-03-27T14:01:55Z</time>
      </trkpt>
      <trkpt lat="43.48275" lon="6.1863">
        <ele>137.2</ele>
        <time>2024-03-27T14:01:56Z</time>
      </trkpt>
      <trkpt lat="43.48276" lon="6.18629">
        <ele>137.2</ele>
        <time>2024-03-27T14:01:57Z</time>
      </trkpt>
      <trkpt lat="43.48276" lon="6.18629">
        <ele>137.2</ele>
        <time>2024-03-27T14:01:58Z</time>
      </trkpt>
      <trkpt lat="43.48276" lon="6.18629">
        <ele>137.1</ele>
        <time>2024-03-27T14:01:59Z</time>
      </trkpt>
      <trkpt lat="43.48276" lon="6.18629">
        <ele>137.1</ele>
        <time>2024-03-27T14:02:00Z</time>
      </trkpt>
      <trkpt lat="43.48276" lon="6.18628">
        <ele>137.3</ele>
        <time>2024-03-27T14:02:01Z</time>
      </trkpt>
      <trkpt lat="43.48276" lon="6.18629">
        <ele>137.3</ele>
        <time>2024-03-27T14:02:02Z</time>
      </trkpt>
      <trkpt lat="43.48277" lon="6.18629">
        <ele>137.4</ele>
        <time>2024-03-27T14:02:03Z</time>
      </trkpt>
      <trkpt lat="43.48277" lon="6.1863">
        <ele>137.5</ele>
        <time>2024-03-27T14:02:04Z</time>
      </trkpt>
      <trkpt lat="43.48277" lon="6.1863">
        <ele>137.6</ele>
        <time>2024-03-27T14:02:05Z</time>
      </trkpt>
      <trkpt lat="43.48277" lon="6.1863">
        <ele>137.7</ele>
        <time>2024-03-27T14:02:06Z</time>
      </trkpt>
      <trkpt lat="43.48277" lon="6.1863">
        <ele>137.7</ele>
        <time>2024-03-27T14:02:07Z</time>
      </trkpt>
      <trkpt lat="43.48277" lon="6.18631">
        <ele>137.6</ele>
        <time>2024-03-27T14:02:08Z</time>
      </trkpt>
      <trkpt lat="43.48277" lon="6.18631">
        <ele>137.6</ele>
        <time>2024-03-27T14:02:09Z</time>
      </trkpt>
      <trkpt lat="43.48278" lon="6.18631">
        <ele>137.6</ele>
        <time>2024-03-27T14:02:10Z</time>
      </trkpt>
      <trkpt lat="43.48279" lon="6.1863">
        <ele>137.6</ele>
        <time>2024-03-27T14:02:11Z</time>
      </trkpt>
      <trkpt lat="43.48281" lon="6.1863">
        <ele>137.6</ele>
        <time>2024-03-27T14:02:12Z</time>
      </trkpt>
      <trkpt lat="43.48281" lon="6.1863">
        <ele>137.8</ele>
        <time>2024-03-27T14:02:13Z</time>
      </trkpt>
      <trkpt lat="43.48282" lon="6.1863">
        <ele>137.6</ele>
        <time>2024-03-27T14:02:14Z</time>
      </trkpt>
      <trkpt lat="43.48283" lon="6.18629">
        <ele>137.5</ele>
        <time>2024-03-27T14:02:15Z</time>
      </trkpt>
      <trkpt lat="43.48285" lon="6.18629">
        <ele>137.4</ele>
        <time>2024-03-27T14:02:16Z</time>
      </trkpt>
      <trkpt lat="43.48286" lon="6.18629">
        <ele>137.5</ele>
        <time>2024-03-27T14:02:17Z</time>
      </trkpt>
      <trkpt lat="43.48287" lon="6.18629">
        <ele>137.4</ele>
        <time>2024-03-27T14:02:18Z</time>
      </trkpt>
      <trkpt lat="43.48287" lon="6.1863">
        <ele>137.2</ele>
        <time>2024-03-27T14:02:19Z</time>
      </trkpt>
      <trkpt lat="43.48288" lon="6.1863">
        <ele>137</ele>
        <time>2024-03-27T14:02:20Z</time>
      </trkpt>
      <trkpt lat="43.48289" lon="6.18631">
        <ele>136.9</ele>
        <time>2024-03-27T14:02:21Z</time>
      </trkpt>
      <trkpt lat="43.4829" lon="6.18631">
        <ele>137</ele>
        <time>2024-03-27T14:02:22Z</time>
      </trkpt>
      <trkpt lat="43.48292" lon="6.18631">
        <ele>137</ele>
        <time>2024-03-27T14:02:23Z</time>
      </trkpt>
      <trkpt lat="43.48293" lon="6.18631">
        <ele>137.1</ele>
        <time>2024-03-27T14:02:24Z</time>
      </trkpt>
      <trkpt lat="43.48294" lon="6.18632">
        <ele>137.1</ele>
        <time>2024-03-27T14:02:25Z</time>
      </trkpt>
      <trkpt lat="43.48295" lon="6.18633">
        <ele>137</ele>
        <time>2024-03-27T14:02:26Z</time>
      </trkpt>
      <trkpt lat="43.48296" lon="6.18633">
        <ele>137</ele>
        <time>2024-03-27T14:02:27Z</time>
      </trkpt>
      <trkpt lat="43.48297" lon="6.18633">
        <ele>137</ele>
        <time>2024-03-27T14:02:28Z</time>
      </trkpt>
      <trkpt lat="43.48298" lon="6.18634">
        <ele>137.1</ele>
        <time>2024-03-27T14:02:29Z</time>
      </trkpt>
      <trkpt lat="43.483" lon="6.18634">
        <ele>137</ele>
        <time>2024-03-27T14:02:30Z</time>
      </trkpt>
      <trkpt lat="43.48301" lon="6.18633">
        <ele>137</ele>
        <time>2024-03-27T14:02:31Z</time>
      </trkpt>
      <trkpt lat="43.48302" lon="6.18634">
        <ele>137</ele>
        <time>2024-03-27T14:02:32Z</time>
      </trkpt>
      <trkpt lat="43.48303" lon="6.18633">
        <ele>137</ele>
        <time>2024-03-27T14:02:33Z</time>
      </trkpt>
      <trkpt lat="43.48305" lon="6.18633">
        <ele>137.1</ele>
        <time>2024-03-27T14:02:34Z</time>
      </trkpt>
      <trkpt lat="43.48306" lon="6.18634">
        <ele>137.1</ele>
        <time>2024-03-27T14:02:35Z</time>
      </trkpt>
      <trkpt lat="43.48307" lon="6.18634">
        <ele>137.1</ele>
        <time>2024-03-27T14:02:36Z</time>
      </trkpt>
      <trkpt lat="43.48308" lon="6.18634">
        <ele>137.1</ele>
        <time>2024-03-27T14:02:37Z</time>
      </trkpt>
      <trkpt lat="43.4831" lon="6.18634">
        <ele>137.2</ele>
        <time>2024-03-27T14:02:38Z</time>
      </trkpt>
      <trkpt lat="43.48311" lon="6.18634">
        <ele>137.3</ele>
        <time>2024-03-27T14:02:39Z</time>
      </trkpt>
      <trkpt lat="43.48313" lon="6.18634">
        <ele>137.3</ele>
        <time>2024-03-27T14:02:40Z</time>
      </trkpt>
      <trkpt lat="43.48314" lon="6.18633">
        <ele>137.3</ele>
        <time>2024-03-27T14:02:41Z</time>
      </trkpt>
      <trkpt lat="43.48315" lon="6.18633">
        <ele>137.3</ele>
        <time>2024-03-27T14:02:42Z</time>
      </trkpt>
      <trkpt lat="43.48316" lon="6.18633">
        <ele>137.4</ele>
        <time>2024-03-27T14:02:43Z</time>
      </trkpt>
      <trkpt lat="43.48317" lon="6.18634">
        <ele>137.5</ele>
        <time>2024-03-27T14:02:44Z</time>
      </trkpt>
      <trkpt lat="43.48318" lon="6.18633">
        <ele>137.6</ele>
        <time>2024-03-27T14:02:45Z</time>
      </trkpt>
      <trkpt lat="43.48319" lon="6.18633">
        <ele>137.7</ele>
        <time>2024-03-27T14:02:46Z</time>
      </trkpt>
      <trkpt lat="43.4832" lon="6.18633">
        <ele>137.7</ele>
        <time>2024-03-27T14:02:47Z</time>
      </trkpt>
      <trkpt lat="43.48321" lon="6.18632">
        <ele>137.9</ele>
        <time>2024-03-27T14:02:48Z</time>
      </trkpt>
      <trkpt lat="43.48323" lon="6.18632">
        <ele>138</ele>
        <time>2024-03-27T14:02:49Z</time>
      </trkpt>
      <trkpt lat="43.48324" lon="6.18632">
        <ele>138.1</ele>
        <time>2024-03-27T14:02:50Z</time>
      </trkpt>
      <trkpt lat="43.48325" lon="6.18632">
        <ele>138</ele>
        <time>2024-03-27T14:02:51Z</time>
      </trkpt>
      <trkpt lat="43.48327" lon="6.18631">
        <ele>138</ele>
        <time>2024-03-27T14:02:52Z</time>
      </trkpt>
      <trkpt lat="43.48328" lon="6.18631">
        <ele>138</ele>
        <time>2024-03-27T14:02:53Z</time>
      </trkpt>
      <trkpt lat="43.48329" lon="6.1863">
        <ele>138</ele>
        <time>2024-03-27T14:02:54Z</time>
      </trkpt>
      <trkpt lat="43.4833" lon="6.1863">
        <ele>137.9</ele>
        <time>2024-03-27T14:02:55Z</time>
      </trkpt>
      <trkpt lat="43.48331" lon="6.18629">
        <ele>137.9</ele>
        <time>2024-03-27T14:02:56Z</time>
      </trkpt>
      <trkpt lat="43.48332" lon="6.18628">
        <ele>138</ele>
        <time>2024-03-27T14:02:57Z</time>
      </trkpt>
      <trkpt lat="43.48333" lon="6.18628">
        <ele>138.1</ele>
        <time>2024-03-27T14:02:58Z</time>
      </trkpt>
      <trkpt lat="43.48334" lon="6.18628">
        <ele>138.2</ele>
        <time>2024-03-27T14:02:59Z</time>
      </trkpt>
      <trkpt lat="43.48335" lon="6.18627">
        <ele>138.3</ele>
        <time>2024-03-27T14:03:00Z</time>
      </trkpt>
      <trkpt lat="43.48336" lon="6.18627">
        <ele>138.3</ele>
        <time>2024-03-27T14:03:01Z</time>
      </trkpt>
      <trkpt lat="43.48338" lon="6.18625">
        <ele>138.3</ele>
        <time>2024-03-27T14:03:02Z</time>
      </trkpt>
      <trkpt lat="43.48339" lon="6.18625">
        <ele>138.4</ele>
        <time>2024-03-27T14:03:03Z</time>
      </trkpt>
      <trkpt lat="43.4834" lon="6.18624">
        <ele>138.3</ele>
        <time>2024-03-27T14:03:04Z</time>
      </trkpt>
      <trkpt lat="43.48341" lon="6.18623">
        <ele>138.3</ele>
        <time>2024-03-27T14:03:05Z</time>
      </trkpt>
      <trkpt lat="43.48343" lon="6.18622">
        <ele>138.3</ele>
        <time>2024-03-27T14:03:06Z</time>
      </trkpt>
      <trkpt lat="43.48344" lon="6.18622">
        <ele>138.2</ele>
        <time>2024-03-27T14:03:07Z</time>
      </trkpt>
      <trkpt lat="43.48345" lon="6.18622">
        <ele>138.2</ele>
        <time>2024-03-27T14:03:08Z</time>
      </trkpt>
      <trkpt lat="43.48346" lon="6.18621">
        <ele>138.2</ele>
        <time>2024-03-27T14:03:09Z</time>
      </trkpt>
      <trkpt lat="43.48347" lon="6.18621">
        <ele>138.2</ele>
        <time>2024-03-27T14:03:10Z</time>
      </trkpt>
      <trkpt lat="43.48348" lon="6.18621">
        <ele>138.2</ele>
        <time>2024-03-27T14:03:11Z</time>
      </trkpt>
      <trkpt lat="43.48348" lon="6.18621">
        <ele>138.2</ele>
        <time>2024-03-27T14:03:12Z</time>
      </trkpt>
      <trkpt lat="43.48349" lon="6.1862">
        <ele>138.2</ele>
        <time>2024-03-27T14:03:13Z</time>
      </trkpt>
      <trkpt lat="43.4835" lon="6.1862">
        <ele>138.3</ele>
        <time>2024-03-27T14:03:14Z</time>
      </trkpt>
      <trkpt lat="43.48351" lon="6.18619">
        <ele>138.4</ele>
        <time>2024-03-27T14:03:15Z</time>
      </trkpt>
      <trkpt lat="43.48352" lon="6.18619">
        <ele>138.4</ele>
        <time>2024-03-27T14:03:16Z</time>
      </trkpt>
      <trkpt lat="43.48354" lon="6.18617">
        <ele>138.4</ele>
        <time>2024-03-27T14:03:17Z</time>
      </trkpt>
      <trkpt lat="43.48354" lon="6.18617">
        <ele>138.3</ele>
        <time>2024-03-27T14:03:18Z</time>
      </trkpt>
      <trkpt lat="43.48355" lon="6.18617">
        <ele>138.3</ele>
        <time>2024-03-27T14:03:19Z</time>
      </trkpt>
      <trkpt lat="43.48356" lon="6.18616">
        <ele>138.4</ele>
        <time>2024-03-27T14:03:20Z</time>
      </trkpt>
      <trkpt lat="43.48358" lon="6.18617">
        <ele>138.4</ele>
        <time>2024-03-27T14:03:21Z</time>
      </trkpt>
      <trkpt lat="43.48359" lon="6.18616">
        <ele>138.5</ele>
        <time>2024-03-27T14:03:22Z</time>
      </trkpt>
      <trkpt lat="43.4836" lon="6.18616">
        <ele>138.7</ele>
        <time>2024-03-27T14:03:23Z</time>
      </trkpt>
      <trkpt lat="43.48361" lon="6.18615">
        <ele>138.7</ele>
        <time>2024-03-27T14:03:24Z</time>
      </trkpt>
      <trkpt lat="43.48362" lon="6.18615">
        <ele>138.7</ele>
        <time>2024-03-27T14:03:25Z</time>
      </trkpt>
      <trkpt lat="43.48363" lon="6.18615">
        <ele>138.9</ele>
        <time>2024-03-27T14:03:26Z</time>
      </trkpt>
      <trkpt lat="43.48364" lon="6.18615">
        <ele>139</ele>
        <time>2024-03-27T14:03:27Z</time>
      </trkpt>
      <trkpt lat="43.48365" lon="6.18614">
        <ele>138.9</ele>
        <time>2024-03-27T14:03:28Z</time>
      </trkpt>
      <trkpt lat="43.48366" lon="6.18614">
        <ele>138.8</ele>
        <time>2024-03-27T14:03:29Z</time>
      </trkpt>
      <trkpt lat="43.48368" lon="6.18614">
        <ele>139</ele>
        <time>2024-03-27T14:03:30Z</time>
      </trkpt>
      <trkpt lat="43.48369" lon="6.18613">
        <ele>139.1</ele>
        <time>2024-03-27T14:03:31Z</time>
      </trkpt>
      <trkpt lat="43.4837" lon="6.18613">
        <ele>139.2</ele>
        <time>2024-03-27T14:03:32Z</time>
      </trkpt>
      <trkpt lat="43.48371" lon="6.18612">
        <ele>139.3</ele>
        <time>2024-03-27T14:03:33Z</time>
      </trkpt>
      <trkpt lat="43.48372" lon="6.18612">
        <ele>139.4</ele>
        <time>2024-03-27T14:03:34Z</time>
      </trkpt>
      <trkpt lat="43.48372" lon="6.18612">
        <ele>139.5</ele>
        <time>2024-03-27T14:03:35Z</time>
      </trkpt>
      <trkpt lat="43.48373" lon="6.18612">
        <ele>139.6</ele>
        <time>2024-03-27T14:03:36Z</time>
      </trkpt>
      <trkpt lat="43.48374" lon="6.18612">
        <ele>139.7</ele>
        <time>2024-03-27T14:03:37Z</time>
      </trkpt>
      <trkpt lat="43.48375" lon="6.18612">
        <ele>139.7</ele>
        <time>2024-03-27T14:03:38Z</time>
      </trkpt>
      <trkpt lat="43.48376" lon="6.18612">
        <ele>139.8</ele>
        <time>2024-03-27T14:03:39Z</time>
      </trkpt>
      <trkpt lat="43.48377" lon="6.18611">
        <ele>139.8</ele>
        <time>2024-03-27T14:03:40Z</time>
      </trkpt>
      <trkpt lat="43.48379" lon="6.18611">
        <ele>139.9</ele>
        <time>2024-03-27T14:03:41Z</time>
      </trkpt>
      <trkpt lat="43.4838" lon="6.18611">
        <ele>139.9</ele>
        <time>2024-03-27T14:03:42Z</time>
      </trkpt>
      <trkpt lat="43.4838" lon="6.18611">
        <ele>140.1</ele>
        <time>2024-03-27T14:03:43Z</time>
      </trkpt>
      <trkpt lat="43.48381" lon="6.18611">
        <ele>140.1</ele>
        <time>2024-03-27T14:03:44Z</time>
      </trkpt>
      <trkpt lat="43.48382" lon="6.18611">
        <ele>140.2</ele>
        <time>2024-03-27T14:03:45Z</time>
      </trkpt>
      <trkpt lat="43.48383" lon="6.18611">
        <ele>140.3</ele>
        <time>2024-03-27T14:03:46Z</time>
      </trkpt>
      <trkpt lat="43.48384" lon="6.18611">
        <ele>140.3</ele>
        <time>2024-03-27T14:03:47Z</time>
      </trkpt>
      <trkpt lat="43.48385" lon="6.18611">
        <ele>140.3</ele>
        <time>2024-03-27T14:03:48Z</time>
      </trkpt>
      <trkpt lat="43.48386" lon="6.18611">
        <ele>140.4</ele>
        <time>2024-03-27T14:03:49Z</time>
      </trkpt>
      <trkpt lat="43.48387" lon="6.1861">
        <ele>140.5</ele>
        <time>2024-03-27T14:03:50Z</time>
      </trkpt>
      <trkpt lat="43.48389" lon="6.1861">
        <ele>140.6</ele>
        <time>2024-03-27T14:03:51Z</time>
      </trkpt>
      <trkpt lat="43.4839" lon="6.1861">
        <ele>140.8</ele>
        <time>2024-03-27T14:03:52Z</time>
      </trkpt>
      <trkpt lat="43.48391" lon="6.1861">
        <ele>140.8</ele>
        <time>2024-03-27T14:03:53Z</time>
      </trkpt>
      <trkpt lat="43.48392" lon="6.18609">
        <ele>140.9</ele>
        <time>2024-03-27T14:03:54Z</time>
      </trkpt>
      <trkpt lat="43.48393" lon="6.18609">
        <ele>140.9</ele>
        <time>2024-03-27T14:03:55Z</time>
      </trkpt>
      <trkpt lat="43.48394" lon="6.18609">
        <ele>141</ele>
        <time>2024-03-27T14:03:56Z</time>
      </trkpt>
      <trkpt lat="43.48395" lon="6.18609">
        <ele>141</ele>
        <time>2024-03-27T14:03:57Z</time>
      </trkpt>
      <trkpt lat="43.48396" lon="6.18609">
        <ele>141</ele>
        <time>2024-03-27T14:03:58Z</time>
      </trkpt>
      <trkpt lat="43.48397" lon="6.18609">
        <ele>141</ele>
        <time>2024-03-27T14:03:59Z</time>
      </trkpt>
      <trkpt lat="43.48398" lon="6.18609">
        <ele>141</ele>
        <time>2024-03-27T14:04:00Z</time>
      </trkpt>
      <trkpt lat="43.48399" lon="6.18609">
        <ele>141</ele>
        <time>2024-03-27T14:04:01Z</time>
      </trkpt>
      <trkpt lat="43.48401" lon="6.18609">
        <ele>141.1</ele>
        <time>2024-03-27T14:04:02Z</time>
      </trkpt>
      <trkpt lat="43.48402" lon="6.18608">
        <ele>141.2</ele>
        <time>2024-03-27T14:04:03Z</time>
      </trkpt>
      <trkpt lat="43.48403" lon="6.18608">
        <ele>141.2</ele>
        <time>2024-03-27T14:04:04Z</time>
      </trkpt>
      <trkpt lat="43.48404" lon="6.18608">
        <ele>141.2</ele>
        <time>2024-03-27T14:04:05Z</time>
      </trkpt>
      <trkpt lat="43.48406" lon="6.18608">
        <ele>141.2</ele>
        <time>2024-03-27T14:04:06Z</time>
      </trkpt>
      <trkpt lat="43.48407" lon="6.18608">
        <ele>141.2</ele>
        <time>2024-03-27T14:04:07Z</time>
      </trkpt>
      <trkpt lat="43.48408" lon="6.18607">
        <ele>141.1</ele>
        <time>2024-03-27T14:04:08Z</time>
      </trkpt>
      <trkpt lat="43.4841" lon="6.18607">
        <ele>141.2</ele>
        <time>2024-03-27T14:04:09Z</time>
      </trkpt>
      <trkpt lat="43.48411" lon="6.18607">
        <ele>141.2</ele>
        <time>2024-03-27T14:04:10Z</time>
      </trkpt>
      <trkpt lat="43.48412" lon="6.18606">
        <ele>141.3</ele>
        <time>2024-03-27T14:04:11Z</time>
      </trkpt>
      <trkpt lat="43.48413" lon="6.18606">
        <ele>141.4</ele>
        <time>2024-03-27T14:04:12Z</time>
      </trkpt>
      <trkpt lat="43.48414" lon="6.18606">
        <ele>141.6</ele>
        <time>2024-03-27T14:04:13Z</time>
      </trkpt>
      <trkpt lat="43.48415" lon="6.18606">
        <ele>141.7</ele>
        <time>2024-03-27T14:04:14Z</time>
      </trkpt>
      <trkpt lat="43.48416" lon="6.18606">
        <ele>141.9</ele>
        <time>2024-03-27T14:04:15Z</time>
      </trkpt>
      <trkpt lat="43.48417" lon="6.18607">
        <ele>142</ele>
        <time>2024-03-27T14:04:16Z</time>
      </trkpt>
      <trkpt lat="43.48418" lon="6.18607">
        <ele>142.1</ele>
        <time>2024-03-27T14:04:17Z</time>
      </trkpt>
      <trkpt lat="43.48419" lon="6.18607">
        <ele>142.3</ele>
        <time>2024-03-27T14:04:18Z</time>
      </trkpt>
      <trkpt lat="43.4842" lon="6.18606">
        <ele>142.5</ele>
        <time>2024-03-27T14:04:19Z</time>
      </trkpt>
      <trkpt lat="43.48422" lon="6.18606">
        <ele>142.6</ele>
        <time>2024-03-27T14:04:20Z</time>
      </trkpt>
      <trkpt lat="43.48423" lon="6.18606">
        <ele>142.7</ele>
        <time>2024-03-27T14:04:21Z</time>
      </trkpt>
      <trkpt lat="43.48424" lon="6.18606">
        <ele>142.7</ele>
        <time>2024-03-27T14:04:22Z</time>
      </trkpt>
      <trkpt lat="43.48425" lon="6.18605">
        <ele>142.7</ele>
        <time>2024-03-27T14:04:23Z</time>
      </trkpt>
      <trkpt lat="43.48426" lon="6.18605">
        <ele>142.8</ele>
        <time>2024-03-27T14:04:24Z</time>
      </trkpt>
      <trkpt lat="43.48427" lon="6.18604">
        <ele>142.9</ele>
        <time>2024-03-27T14:04:25Z</time>
      </trkpt>
      <trkpt lat="43.48429" lon="6.18604">
        <ele>142.9</ele>
        <time>2024-03-27T14:04:26Z</time>
      </trkpt>
      <trkpt lat="43.4843" lon="6.18604">
        <ele>143.1</ele>
        <time>2024-03-27T14:04:27Z</time>
      </trkpt>
      <trkpt lat="43.48431" lon="6.18604">
        <ele>143.2</ele>
        <time>2024-03-27T14:04:28Z</time>
      </trkpt>
      <trkpt lat="43.48432" lon="6.18604">
        <ele>143.2</ele>
        <time>2024-03-27T14:04:29Z</time>
      </trkpt>
      <trkpt lat="43.48433" lon="6.18605">
        <ele>143.2</ele>
        <time>2024-03-27T14:04:30Z</time>
      </trkpt>
      <trkpt lat="43.48434" lon="6.18606">
        <ele>143.2</ele>
        <time>2024-03-27T14:04:31Z</time>
      </trkpt>
      <trkpt lat="43.48434" lon="6.18607">
        <ele>143.3</ele>
        <time>2024-03-27T14:04:32Z</time>
      </trkpt>
      <trkpt lat="43.48435" lon="6.18608">
        <ele>143.4</ele>
        <time>2024-03-27T14:04:33Z</time>
      </trkpt>
      <trkpt lat="43.48436" lon="6.18608">
        <ele>143.5</ele>
        <time>2024-03-27T14:04:34Z</time>
      </trkpt>
      <trkpt lat="43.48437" lon="6.18608">
        <ele>143.7</ele>
        <time>2024-03-27T14:04:35Z</time>
      </trkpt>
      <trkpt lat="43.48437" lon="6.18609">
        <ele>143.9</ele>
        <time>2024-03-27T14:04:36Z</time>
      </trkpt>
      <trkpt lat="43.48438" lon="6.18609">
        <ele>144</ele>
        <time>2024-03-27T14:04:37Z</time>
      </trkpt>
      <trkpt lat="43.48439" lon="6.18609">
        <ele>144.1</ele>
        <time>2024-03-27T14:04:38Z</time>
      </trkpt>
      <trkpt lat="43.4844" lon="6.1861">
        <ele>144.1</ele>
        <time>2024-03-27T14:04:39Z</time>
      </trkpt>
      <trkpt lat="43.48441" lon="6.1861">
        <ele>144.1</ele>
        <time>2024-03-27T14:04:40Z</time>
      </trkpt>
      <trkpt lat="43.48443" lon="6.1861">
        <ele>144.2</ele>
        <time>2024-03-27T14:04:41Z</time>
      </trkpt>
      <trkpt lat="43.48444" lon="6.1861">
        <ele>144.3</ele>
        <time>2024-03-27T14:04:42Z</time>
      </trkpt>
      <trkpt lat="43.48445" lon="6.1861">
        <ele>144.4</ele>
        <time>2024-03-27T14:04:43Z</time>
      </trkpt>
      <trkpt lat="43.48446" lon="6.1861">
        <ele>144.5</ele>
        <time>2024-03-27T14:04:44Z</time>
      </trkpt>
      <trkpt lat="43.48447" lon="6.1861">
        <ele>144.5</ele>
        <time>2024-03-27T14:04:45Z</time>
      </trkpt>
      <trkpt lat="43.48448" lon="6.1861">
        <ele>144.6</ele>
        <time>2024-03-27T14:04:46Z</time>
      </trkpt>
      <trkpt lat="43.4845" lon="6.18611">
        <ele>144.6</ele>
        <time>2024-03-27T14:04:47Z</time>
      </trkpt>
      <trkpt lat="43.48451" lon="6.18612">
        <ele>144.9</ele>
        <time>2024-03-27T14:04:48Z</time>
      </trkpt>
      <trkpt lat="43.48452" lon="6.18612">
        <ele>145.1</ele>
        <time>2024-03-27T14:04:49Z</time>
      </trkpt>
      <trkpt lat="43.48453" lon="6.18612">
        <ele>145.2</ele>
        <time>2024-03-27T14:04:50Z</time>
      </trkpt>
      <trkpt lat="43.48454" lon="6.18612">
        <ele>145.3</ele>
        <time>2024-03-27T14:04:51Z</time>
      </trkpt>
      <trkpt lat="43.48455" lon="6.18613">
        <ele>145.5</ele>
        <time>2024-03-27T14:04:52Z</time>
      </trkpt>
      <trkpt lat="43.48457" lon="6.18613">
        <ele>145.7</ele>
        <time>2024-03-27T14:04:53Z</time>
      </trkpt>
      <trkpt lat="43.48458" lon="6.18613">
        <ele>145.8</ele>
        <time>2024-03-27T14:04:54Z</time>
      </trkpt>
      <trkpt lat="43.48459" lon="6.18613">
        <ele>145.8</ele>
        <time>2024-03-27T14:04:55Z</time>
      </trkpt>
      <trkpt lat="43.4846" lon="6.18614">
        <ele>145.7</ele>
        <time>2024-03-27T14:04:56Z</time>
      </trkpt>
      <trkpt lat="43.48461" lon="6.18614">
        <ele>145.7</ele>
        <time>2024-03-27T14:04:57Z</time>
      </trkpt>
      <trkpt lat="43.48462" lon="6.18614">
        <ele>145.6</ele>
        <time>2024-03-27T14:04:58Z</time>
      </trkpt>
      <trkpt lat="43.48463" lon="6.18614">
        <ele>145.7</ele>
        <time>2024-03-27T14:04:59Z</time>
      </trkpt>
      <trkpt lat="43.48465" lon="6.18614">
        <ele>145.7</ele>
        <time>2024-03-27T14:05:00Z</time>
      </trkpt>
      <trkpt lat="43.48466" lon="6.18614">
        <ele>145.8</ele>
        <time>2024-03-27T14:05:01Z</time>
      </trkpt>
      <trkpt lat="43.48467" lon="6.18614">
        <ele>145.8</ele>
        <time>2024-03-27T14:05:02Z</time>
      </trkpt>
      <trkpt lat="43.48468" lon="6.18615">
        <ele>145.9</ele>
        <time>2024-03-27T14:05:03Z</time>
      </trkpt>
      <trkpt lat="43.4847" lon="6.18614">
        <ele>146</ele>
        <time>2024-03-27T14:05:04Z</time>
      </trkpt>
      <trkpt lat="43.48471" lon="6.18615">
        <ele>146</ele>
        <time>2024-03-27T14:05:05Z</time>
      </trkpt>
      <trkpt lat="43.48472" lon="6.18615">
        <ele>146</ele>
        <time>2024-03-27T14:05:06Z</time>
      </trkpt>
      <trkpt lat="43.48473" lon="6.18615">
        <ele>146.3</ele>
        <time>2024-03-27T14:05:07Z</time>
      </trkpt>
      <trkpt lat="43.48474" lon="6.18615">
        <ele>146.5</ele>
        <time>2024-03-27T14:05:08Z</time>
      </trkpt>
      <trkpt lat="43.48475" lon="6.18615">
        <ele>146.7</ele>
        <time>2024-03-27T14:05:09Z</time>
      </trkpt>
      <trkpt lat="43.48476" lon="6.18615">
        <ele>146.8</ele>
        <time>2024-03-27T14:05:10Z</time>
      </trkpt>
      <trkpt lat="43.48477" lon="6.18615">
        <ele>147</ele>
        <time>2024-03-27T14:05:11Z</time>
      </trkpt>
      <trkpt lat="43.48479" lon="6.18614">
        <ele>147.1</ele>
        <time>2024-03-27T14:05:12Z</time>
      </trkpt>
      <trkpt lat="43.4848" lon="6.18614">
        <ele>147.2</ele>
        <time>2024-03-27T14:05:13Z</time>
      </trkpt>
      <trkpt lat="43.48481" lon="6.18614">
        <ele>147.1</ele>
        <time>2024-03-27T14:05:14Z</time>
      </trkpt>
      <trkpt lat="43.48482" lon="6.18615">
        <ele>147.3</ele>
        <time>2024-03-27T14:05:15Z</time>
      </trkpt>
      <trkpt lat="43.48483" lon="6.18615">
        <ele>147.5</ele>
        <time>2024-03-27T14:05:16Z</time>
      </trkpt>
      <trkpt lat="43.48485" lon="6.18614">
        <ele>147.6</ele>
        <time>2024-03-27T14:05:17Z</time>
      </trkpt>
      <trkpt lat="43.48486" lon="6.18614">
        <ele>147.6</ele>
        <time>2024-03-27T14:05:18Z</time>
      </trkpt>
      <trkpt lat="43.48487" lon="6.18614">
        <ele>147.6</ele>
        <time>2024-03-27T14:05:19Z</time>
      </trkpt>
      <trkpt lat="43.48488" lon="6.18614">
        <ele>147.6</ele>
        <time>2024-03-27T14:05:20Z</time>
      </trkpt>
      <trkpt lat="43.48489" lon="6.18614">
        <ele>147.5</ele>
        <time>2024-03-27T14:05:21Z</time>
      </trkpt>
      <trkpt lat="43.4849" lon="6.18614">
        <ele>147.6</ele>
        <time>2024-03-27T14:05:22Z</time>
      </trkpt>
      <trkpt lat="43.48491" lon="6.18614">
        <ele>147.8</ele>
        <time>2024-03-27T14:05:23Z</time>
      </trkpt>
      <trkpt lat="43.48493" lon="6.18615">
        <ele>147.9</ele>
        <time>2024-03-27T14:05:24Z</time>
      </trkpt>
      <trkpt lat="43.48494" lon="6.18615">
        <ele>148</ele>
        <time>2024-03-27T14:05:25Z</time>
      </trkpt>
      <trkpt lat="43.48495" lon="6.18615">
        <ele>148.1</ele>
        <time>2024-03-27T14:05:26Z</time>
      </trkpt>
      <trkpt lat="43.48496" lon="6.18615">
        <ele>148.1</ele>
        <time>2024-03-27T14:05:27Z</time>
      </trkpt>
      <trkpt lat="43.48497" lon="6.18615">
        <ele>148.2</ele>
        <time>2024-03-27T14:05:28Z</time>
      </trkpt>
      <trkpt lat="43.48498" lon="6.18615">
        <ele>148.2</ele>
        <time>2024-03-27T14:05:29Z</time>
      </trkpt>
      <trkpt lat="43.485" lon="6.18615">
        <ele>148.3</ele>
        <time>2024-03-27T14:05:30Z</time>
      </trkpt>
      <trkpt lat="43.48501" lon="6.18614">
        <ele>148.4</ele>
        <time>2024-03-27T14:05:31Z</time>
      </trkpt>
      <trkpt lat="43.48502" lon="6.18614">
        <ele>148.4</ele>
        <time>2024-03-27T14:05:32Z</time>
      </trkpt>
      <trkpt lat="43.48504" lon="6.18614">
        <ele>148.6</ele>
        <time>2024-03-27T14:05:33Z</time>
      </trkpt>
      <trkpt lat="43.48505" lon="6.18614">
        <ele>148.6</ele>
        <time>2024-03-27T14:05:34Z</time>
      </trkpt>
      <trkpt lat="43.48506" lon="6.18614">
        <ele>148.7</ele>
        <time>2024-03-27T14:05:35Z</time>
      </trkpt>
      <trkpt lat="43.48507" lon="6.18614">
        <ele>148.6</ele>
        <time>2024-03-27T14:05:36Z</time>
      </trkpt>
      <trkpt lat="43.48508" lon="6.18613">
        <ele>148.6</ele>
        <time>2024-03-27T14:05:37Z</time>
      </trkpt>
      <trkpt lat="43.48509" lon="6.18613">
        <ele>148.6</ele>
        <time>2024-03-27T14:05:38Z</time>
      </trkpt>
      <trkpt lat="43.4851" lon="6.18613">
        <ele>148.6</ele>
        <time>2024-03-27T14:05:39Z</time>
      </trkpt>
      <trkpt lat="43.48512" lon="6.18613">
        <ele>148.6</ele>
        <time>2024-03-27T14:05:40Z</time>
      </trkpt>
      <trkpt lat="43.48513" lon="6.18612">
        <ele>148.7</ele>
        <time>2024-03-27T14:05:41Z</time>
      </trkpt>
      <trkpt lat="43.48514" lon="6.1861">
        <ele>148.8</ele>
        <time>2024-03-27T14:05:42Z</time>
      </trkpt>
      <trkpt lat="43.48514" lon="6.18609">
        <ele>149.1</ele>
        <time>2024-03-27T14:05:43Z</time>
      </trkpt>
      <trkpt lat="43.48516" lon="6.18608">
        <ele>149.1</ele>
        <time>2024-03-27T14:05:44Z</time>
      </trkpt>
      <trkpt lat="43.48517" lon="6.18608">
        <ele>149.1</ele>
        <time>2024-03-27T14:05:45Z</time>
      </trkpt>
      <trkpt lat="43.48518" lon="6.18608">
        <ele>149.2</ele>
        <time>2024-03-27T14:05:46Z</time>
      </trkpt>
      <trkpt lat="43.48519" lon="6.18608">
        <ele>149.4</ele>
        <time>2024-03-27T14:05:47Z</time>
      </trkpt>
      <trkpt lat="43.4852" lon="6.18608">
        <ele>149.5</ele>
        <time>2024-03-27T14:05:48Z</time>
      </trkpt>
      <trkpt lat="43.48521" lon="6.18609">
        <ele>149.6</ele>
        <time>2024-03-27T14:05:49Z</time>
      </trkpt>
      <trkpt lat="43.48522" lon="6.18608">
        <ele>149.7</ele>
        <time>2024-03-27T14:05:50Z</time>
      </trkpt>
      <trkpt lat="43.48523" lon="6.18608">
        <ele>149.7</ele>
        <time>2024-03-27T14:05:51Z</time>
      </trkpt>
      <trkpt lat="43.48524" lon="6.18609">
        <ele>149.7</ele>
        <time>2024-03-27T14:05:52Z</time>
      </trkpt>
      <trkpt lat="43.48526" lon="6.18609">
        <ele>149.8</ele>
        <time>2024-03-27T14:05:53Z</time>
      </trkpt>
      <trkpt lat="43.48527" lon="6.18609">
        <ele>149.8</ele>
        <time>2024-03-27T14:05:54Z</time>
      </trkpt>
      <trkpt lat="43.48528" lon="6.18609">
        <ele>149.4</ele>
        <time>2024-03-27T14:05:55Z</time>
      </trkpt>
      <trkpt lat="43.48529" lon="6.18609">
        <ele>149.6</ele>
        <time>2024-03-27T14:05:56Z</time>
      </trkpt>
      <trkpt lat="43.4853" lon="6.18609">
        <ele>149.8</ele>
        <time>2024-03-27T14:05:57Z</time>
      </trkpt>
      <trkpt lat="43.48531" lon="6.18609">
        <ele>149.9</ele>
        <time>2024-03-27T14:05:58Z</time>
      </trkpt>
      <trkpt lat="43.48532" lon="6.18609">
        <ele>150</ele>
        <time>2024-03-27T14:05:59Z</time>
      </trkpt>
      <trkpt lat="43.48534" lon="6.1861">
        <ele>150</ele>
        <time>2024-03-27T14:06:00Z</time>
      </trkpt>
      <trkpt lat="43.48535" lon="6.1861">
        <ele>150.1</ele>
        <time>2024-03-27T14:06:01Z</time>
      </trkpt>
      <trkpt lat="43.48537" lon="6.18608">
        <ele>150.2</ele>
        <time>2024-03-27T14:06:02Z</time>
      </trkpt>
      <trkpt lat="43.48539" lon="6.18607">
        <ele>150.3</ele>
        <time>2024-03-27T14:06:03Z</time>
      </trkpt>
      <trkpt lat="43.48541" lon="6.18607">
        <ele>150.5</ele>
        <time>2024-03-27T14:06:04Z</time>
      </trkpt>
      <trkpt lat="43.48541" lon="6.18607">
        <ele>150.7</ele>
        <time>2024-03-27T14:06:05Z</time>
      </trkpt>
      <trkpt lat="43.48542" lon="6.18607">
        <ele>150.9</ele>
        <time>2024-03-27T14:06:06Z</time>
      </trkpt>
      <trkpt lat="43.48543" lon="6.18607">
        <ele>150.9</ele>
        <time>2024-03-27T14:06:07Z</time>
      </trkpt>
      <trkpt lat="43.48544" lon="6.18607">
        <ele>151</ele>
        <time>2024-03-27T14:06:08Z</time>
      </trkpt>
      <trkpt lat="43.48545" lon="6.18607">
        <ele>151</ele>
        <time>2024-03-27T14:06:09Z</time>
      </trkpt>
      <trkpt lat="43.48546" lon="6.18607">
        <ele>151.1</ele>
        <time>2024-03-27T14:06:10Z</time>
      </trkpt>
      <trkpt lat="43.48548" lon="6.18607">
        <ele>151.1</ele>
        <time>2024-03-27T14:06:11Z</time>
      </trkpt>
      <trkpt lat="43.48549" lon="6.18607">
        <ele>151.2</ele>
        <time>2024-03-27T14:06:12Z</time>
      </trkpt>
      <trkpt lat="43.48551" lon="6.18607">
        <ele>151.2</ele>
        <time>2024-03-27T14:06:13Z</time>
      </trkpt>
      <trkpt lat="43.48552" lon="6.18608">
        <ele>151.3</ele>
        <time>2024-03-27T14:06:14Z</time>
      </trkpt>
      <trkpt lat="43.48553" lon="6.18607">
        <ele>151.4</ele>
        <time>2024-03-27T14:06:15Z</time>
      </trkpt>
      <trkpt lat="43.48554" lon="6.18608">
        <ele>151.4</ele>
        <time>2024-03-27T14:06:16Z</time>
      </trkpt>
      <trkpt lat="43.48555" lon="6.18608">
        <ele>151.5</ele>
        <time>2024-03-27T14:06:17Z</time>
      </trkpt>
      <trkpt lat="43.48556" lon="6.18608">
        <ele>151.7</ele>
        <time>2024-03-27T14:06:18Z</time>
      </trkpt>
      <trkpt lat="43.48557" lon="6.18608">
        <ele>151.9</ele>
        <time>2024-03-27T14:06:19Z</time>
      </trkpt>
      <trkpt lat="43.48558" lon="6.18609">
        <ele>152</ele>
        <time>2024-03-27T14:06:20Z</time>
      </trkpt>
      <trkpt lat="43.48558" lon="6.18609">
        <ele>152</ele>
        <time>2024-03-27T14:06:21Z</time>
      </trkpt>
      <trkpt lat="43.48559" lon="6.1861">
        <ele>152.1</ele>
        <time>2024-03-27T14:06:22Z</time>
      </trkpt>
      <trkpt lat="43.48561" lon="6.1861">
        <ele>152.1</ele>
        <time>2024-03-27T14:06:23Z</time>
      </trkpt>
      <trkpt lat="43.48562" lon="6.18611">
        <ele>152.2</ele>
        <time>2024-03-27T14:06:24Z</time>
      </trkpt>
      <trkpt lat="43.48563" lon="6.1861">
        <ele>152.2</ele>
        <time>2024-03-27T14:06:25Z</time>
      </trkpt>
      <trkpt lat="43.48564" lon="6.18609">
        <ele>152.3</ele>
        <time>2024-03-27T14:06:26Z</time>
      </trkpt>
      <trkpt lat="43.48565" lon="6.18609">
        <ele>152.5</ele>
        <time>2024-03-27T14:06:27Z</time>
      </trkpt>
      <trkpt lat="43.48567" lon="6.18609">
        <ele>152.6</ele>
        <time>2024-03-27T14:06:28Z</time>
      </trkpt>
      <trkpt lat="43.48567" lon="6.1861">
        <ele>152.6</ele>
        <time>2024-03-27T14:06:29Z</time>
      </trkpt>
      <trkpt lat="43.48568" lon="6.1861">
        <ele>152.7</ele>
        <time>2024-03-27T14:06:30Z</time>
      </trkpt>
      <trkpt lat="43.48568" lon="6.1861">
        <ele>152.7</ele>
        <time>2024-03-27T14:06:31Z</time>
      </trkpt>
      <trkpt lat="43.4857" lon="6.1861">
        <ele>152.9</ele>
        <time>2024-03-27T14:06:32Z</time>
      </trkpt>
      <trkpt lat="43.48571" lon="6.1861">
        <ele>153.1</ele>
        <time>2024-03-27T14:06:33Z</time>
      </trkpt>
      <trkpt lat="43.48572" lon="6.1861">
        <ele>153.2</ele>
        <time>2024-03-27T14:06:34Z</time>
      </trkpt>
      <trkpt lat="43.48573" lon="6.1861">
        <ele>153.3</ele>
        <time>2024-03-27T14:06:35Z</time>
      </trkpt>
      <trkpt lat="43.48574" lon="6.18611">
        <ele>153.5</ele>
        <time>2024-03-27T14:06:36Z</time>
      </trkpt>
      <trkpt lat="43.48576" lon="6.18612">
        <ele>153.7</ele>
        <time>2024-03-27T14:06:37Z</time>
      </trkpt>
      <trkpt lat="43.48577" lon="6.18612">
        <ele>153.9</ele>
        <time>2024-03-27T14:06:38Z</time>
      </trkpt>
      <trkpt lat="43.48578" lon="6.18612">
        <ele>154.1</ele>
        <time>2024-03-27T14:06:39Z</time>
      </trkpt>
      <trkpt lat="43.48579" lon="6.18612">
        <ele>154.3</ele>
        <time>2024-03-27T14:06:40Z</time>
      </trkpt>
      <trkpt lat="43.48581" lon="6.18612">
        <ele>154.5</ele>
        <time>2024-03-27T14:06:41Z</time>
      </trkpt>
      <trkpt lat="43.48582" lon="6.18612">
        <ele>154.5</ele>
        <time>2024-03-27T14:06:42Z</time>
      </trkpt>
      <trkpt lat="43.48584" lon="6.18611">
        <ele>154.5</ele>
        <time>2024-03-27T14:06:43Z</time>
      </trkpt>
      <trkpt lat="43.48585" lon="6.18611">
        <ele>154.6</ele>
        <time>2024-03-27T14:06:44Z</time>
      </trkpt>
      <trkpt lat="43.48586" lon="6.1861">
        <ele>154.7</ele>
        <time>2024-03-27T14:06:45Z</time>
      </trkpt>
      <trkpt lat="43.48588" lon="6.1861">
        <ele>154.6</ele>
        <time>2024-03-27T14:06:46Z</time>
      </trkpt>
      <trkpt lat="43.48589" lon="6.1861">
        <ele>154.6</ele>
        <time>2024-03-27T14:06:47Z</time>
      </trkpt>
      <trkpt lat="43.4859" lon="6.1861">
        <ele>154.8</ele>
        <time>2024-03-27T14:06:48Z</time>
      </trkpt>
      <trkpt lat="43.48591" lon="6.18609">
        <ele>155</ele>
        <time>2024-03-27T14:06:49Z</time>
      </trkpt>
      <trkpt lat="43.48591" lon="6.1861">
        <ele>155.2</ele>
        <time>2024-03-27T14:06:50Z</time>
      </trkpt>
      <trkpt lat="43.48592" lon="6.1861">
        <ele>155.4</ele>
        <time>2024-03-27T14:06:51Z</time>
      </trkpt>
      <trkpt lat="43.48594" lon="6.18607">
        <ele>155.6</ele>
        <time>2024-03-27T14:06:52Z</time>
      </trkpt>
      <trkpt lat="43.48595" lon="6.18607">
        <ele>155.8</ele>
        <time>2024-03-27T14:06:53Z</time>
      </trkpt>
      <trkpt lat="43.48596" lon="6.18606">
        <ele>155.9</ele>
        <time>2024-03-27T14:06:54Z</time>
      </trkpt>
      <trkpt lat="43.48597" lon="6.18604">
        <ele>156.1</ele>
        <time>2024-03-27T14:06:55Z</time>
      </trkpt>
      <trkpt lat="43.48598" lon="6.18604">
        <ele>156.1</ele>
        <time>2024-03-27T14:06:56Z</time>
      </trkpt>
      <trkpt lat="43.48599" lon="6.18603">
        <ele>156.4</ele>
        <time>2024-03-27T14:06:57Z</time>
      </trkpt>
      <trkpt lat="43.486" lon="6.18602">
        <ele>156.6</ele>
        <time>2024-03-27T14:06:58Z</time>
      </trkpt>
      <trkpt lat="43.48601" lon="6.18602">
        <ele>156.8</ele>
        <time>2024-03-27T14:06:59Z</time>
      </trkpt>
      <trkpt lat="43.48602" lon="6.18602">
        <ele>156.9</ele>
        <time>2024-03-27T14:07:00Z</time>
      </trkpt>
      <trkpt lat="43.48603" lon="6.186">
        <ele>157</ele>
        <time>2024-03-27T14:07:01Z</time>
      </trkpt>
      <trkpt lat="43.48604" lon="6.18598">
        <ele>157</ele>
        <time>2024-03-27T14:07:02Z</time>
      </trkpt>
      <trkpt lat="43.48605" lon="6.18597">
        <ele>157.1</ele>
        <time>2024-03-27T14:07:03Z</time>
      </trkpt>
      <trkpt lat="43.48605" lon="6.18598">
        <ele>157.1</ele>
        <time>2024-03-27T14:07:04Z</time>
      </trkpt>
      <trkpt lat="43.48606" lon="6.18599">
        <ele>157.3</ele>
        <time>2024-03-27T14:07:05Z</time>
      </trkpt>
      <trkpt lat="43.48606" lon="6.18599">
        <ele>157.3</ele>
        <time>2024-03-27T14:07:06Z</time>
      </trkpt>
      <trkpt lat="43.48606" lon="6.18599">
        <ele>157.4</ele>
        <time>2024-03-27T14:07:07Z</time>
      </trkpt>
      <trkpt lat="43.48606" lon="6.18598">
        <ele>157.4</ele>
        <time>2024-03-27T14:07:08Z</time>
      </trkpt>
      <trkpt lat="43.48606" lon="6.18599">
        <ele>157.4</ele>
        <time>2024-03-27T14:07:09Z</time>
      </trkpt>
      <trkpt lat="43.48607" lon="6.18599">
        <ele>157.5</ele>
        <time>2024-03-27T14:07:10Z</time>
      </trkpt>
      <trkpt lat="43.48608" lon="6.18598">
        <ele>157.5</ele>
        <time>2024-03-27T14:07:11Z</time>
      </trkpt>
      <trkpt lat="43.48608" lon="6.18597">
        <ele>157.5</ele>
        <time>2024-03-27T14:07:12Z</time>
      </trkpt>
      <trkpt lat="43.48608" lon="6.18597">
        <ele>157.6</ele>
        <time>2024-03-27T14:07:13Z</time>
      </trkpt>
      <trkpt lat="43.48608" lon="6.18597">
        <ele>157.6</ele>
        <time>2024-03-27T14:07:14Z</time>
      </trkpt>
      <trkpt lat="43.48609" lon="6.18596">
        <ele>157.5</ele>
        <time>2024-03-27T14:07:15Z</time>
      </trkpt>
      <trkpt lat="43.48608" lon="6.18596">
        <ele>157.5</ele>
        <time>2024-03-27T14:07:16Z</time>
      </trkpt>
      <trkpt lat="43.48608" lon="6.18596">
        <ele>157.5</ele>
        <time>2024-03-27T14:07:17Z</time>
      </trkpt>
      <trkpt lat="43.48608" lon="6.18596">
        <ele>157.6</ele>
        <time>2024-03-27T14:07:18Z</time>
      </trkpt>
      <trkpt lat="43.48608" lon="6.18596">
        <ele>157.7</ele>
        <time>2024-03-27T14:07:19Z</time>
      </trkpt>
      <trkpt lat="43.48609" lon="6.18595">
        <ele>157.6</ele>
        <time>2024-03-27T14:07:20Z</time>
      </trkpt>
      <trkpt lat="43.48609" lon="6.18595">
        <ele>157.6</ele>
        <time>2024-03-27T14:07:21Z</time>
      </trkpt>
      <trkpt lat="43.48609" lon="6.18594">
        <ele>157.5</ele>
        <time>2024-03-27T14:07:22Z</time>
      </trkpt>
      <trkpt lat="43.48609" lon="6.18594">
        <ele>157.3</ele>
        <time>2024-03-27T14:07:23Z</time>
      </trkpt>
      <trkpt lat="43.48609" lon="6.18594">
        <ele>157.3</ele>
        <time>2024-03-27T14:07:24Z</time>
      </trkpt>
      <trkpt lat="43.48609" lon="6.18594">
        <ele>157.3</ele>
        <time>2024-03-27T14:07:25Z</time>
      </trkpt>
      <trkpt lat="43.48609" lon="6.18594">
        <ele>157.2</ele>
        <time>2024-03-27T14:07:26Z</time>
      </trkpt>
      <trkpt lat="43.48609" lon="6.18594">
        <ele>157.3</ele>
        <time>2024-03-27T14:07:27Z</time>
      </trkpt>
      <trkpt lat="43.48609" lon="6.18594">
        <ele>157.3</ele>
        <time>2024-03-27T14:07:28Z</time>
      </trkpt>
      <trkpt lat="43.48609" lon="6.18595">
        <ele>157.3</ele>
        <time>2024-03-27T14:07:29Z</time>
      </trkpt>
      <trkpt lat="43.48609" lon="6.18595">
        <ele>157.3</ele>
        <time>2024-03-27T14:07:30Z</time>
      </trkpt>
      <trkpt lat="43.48609" lon="6.18595">
        <ele>157.3</ele>
        <time>2024-03-27T14:07:31Z</time>
      </trkpt>
      <trkpt lat="43.48609" lon="6.18595">
        <ele>157.3</ele>
        <time>2024-03-27T14:07:32Z</time>
      </trkpt>
      <trkpt lat="43.48609" lon="6.18595">
        <ele>157.2</ele>
        <time>2024-03-27T14:07:33Z</time>
      </trkpt>
      <trkpt lat="43.48609" lon="6.18595">
        <ele>157.3</ele>
        <time>2024-03-27T14:07:34Z</time>
      </trkpt>
      <trkpt lat="43.4861" lon="6.18595">
        <ele>157.3</ele>
        <time>2024-03-27T14:07:35Z</time>
      </trkpt>
      <trkpt lat="43.4861" lon="6.18595">
        <ele>157.2</ele>
        <time>2024-03-27T14:07:36Z</time>
      </trkpt>
      <trkpt lat="43.4861" lon="6.18595">
        <ele>157.2</ele>
        <time>2024-03-27T14:07:37Z</time>
      </trkpt>
      <trkpt lat="43.4861" lon="6.18595">
        <ele>157</ele>
        <time>2024-03-27T14:07:38Z</time>
      </trkpt>
      <trkpt lat="43.4861" lon="6.18595">
        <ele>157</ele>
        <time>2024-03-27T14:07:39Z</time>
      </trkpt>
      <trkpt lat="43.4861" lon="6.18595">
        <ele>157</ele>
        <time>2024-03-27T14:07:40Z</time>
      </trkpt>
      <trkpt lat="43.4861" lon="6.18595">
        <ele>157</ele>
        <time>2024-03-27T14:07:41Z</time>
      </trkpt>
      <trkpt lat="43.4861" lon="6.18595">
        <ele>157</ele>
        <time>2024-03-27T14:07:42Z</time>
      </trkpt>
      <trkpt lat="43.4861" lon="6.18595">
        <ele>157</ele>
        <time>2024-03-27T14:07:43Z</time>
      </trkpt>
      <trkpt lat="43.4861" lon="6.18595">
        <ele>157</ele>
        <time>2024-03-27T14:07:44Z</time>
      </trkpt>
      <trkpt lat="43.4861" lon="6.18595">
        <ele>157</ele>
        <time>2024-03-27T14:07:45Z</time>
      </trkpt>
      <trkpt lat="43.4861" lon="6.18595">
        <ele>157.1</ele>
        <time>2024-03-27T14:07:46Z</time>
      </trkpt>
      <trkpt lat="43.4861" lon="6.18595">
        <ele>157.2</ele>
        <time>2024-03-27T14:07:47Z</time>
      </trkpt>
      <trkpt lat="43.4861" lon="6.18595">
        <ele>157.2</ele>
        <time>2024-03-27T14:07:48Z</time>
      </trkpt>
      <trkpt lat="43.4861" lon="6.18595">
        <ele>157.3</ele>
        <time>2024-03-27T14:07:49Z</time>
      </trkpt>
      <trkpt lat="43.4861" lon="6.18595">
        <ele>157.3</ele>
        <time>2024-03-27T14:07:50Z</time>
      </trkpt>
      <trkpt lat="43.4861" lon="6.18596">
        <ele>157.3</ele>
        <time>2024-03-27T14:07:51Z</time>
      </trkpt>
      <trkpt lat="43.4861" lon="6.18596">
        <ele>157.3</ele>
        <time>2024-03-27T14:07:52Z</time>
      </trkpt>
      <trkpt lat="43.4861" lon="6.18596">
        <ele>157.2</ele>
        <time>2024-03-27T14:07:53Z</time>
      </trkpt>
      <trkpt lat="43.4861" lon="6.18596">
        <ele>157.2</ele>
        <time>2024-03-27T14:07:54Z</time>
      </trkpt>
      <trkpt lat="43.4861" lon="6.18596">
        <ele>157.1</ele>
        <time>2024-03-27T14:07:55Z</time>
      </trkpt>
      <trkpt lat="43.4861" lon="6.18596">
        <ele>157.2</ele>
        <time>2024-03-27T14:07:56Z</time>
      </trkpt>
      <trkpt lat="43.4861" lon="6.18596">
        <ele>157.3</ele>
        <time>2024-03-27T14:07:57Z</time>
      </trkpt>
      <trkpt lat="43.4861" lon="6.18596">
        <ele>157.3</ele>
        <time>2024-03-27T14:07:58Z</time>
      </trkpt>
      <trkpt lat="43.4861" lon="6.18596">
        <ele>157.3</ele>
        <time>2024-03-27T14:07:59Z</time>
      </trkpt>
      <trkpt lat="43.4861" lon="6.18597">
        <ele>157.3</ele>
        <time>2024-03-27T14:08:00Z</time>
      </trkpt>
      <trkpt lat="43.4861" lon="6.18597">
        <ele>157.3</ele>
        <time>2024-03-27T14:08:01Z</time>
      </trkpt>
      <trkpt lat="43.4861" lon="6.18597">
        <ele>157.3</ele>
        <time>2024-03-27T14:08:02Z</time>
      </trkpt>
      <trkpt lat="43.4861" lon="6.18597">
        <ele>157.3</ele>
        <time>2024-03-27T14:08:03Z</time>
      </trkpt>
      <trkpt lat="43.4861" lon="6.18597">
        <ele>157.3</ele>
        <time>2024-03-27T14:08:04Z</time>
      </trkpt>
      <trkpt lat="43.4861" lon="6.18597">
        <ele>157.3</ele>
        <time>2024-03-27T14:08:05Z</time>
      </trkpt>
      <trkpt lat="43.4861" lon="6.18597">
        <ele>157.3</ele>
        <time>2024-03-27T14:08:06Z</time>
      </trkpt>
      <trkpt lat="43.4861" lon="6.18597">
        <ele>157.3</ele>
        <time>2024-03-27T14:08:07Z</time>
      </trkpt>
      <trkpt lat="43.48609" lon="6.18597">
        <ele>157.5</ele>
        <time>2024-03-27T14:08:08Z</time>
      </trkpt>
      <trkpt lat="43.48609" lon="6.18597">
        <ele>157.4</ele>
        <time>2024-03-27T14:08:09Z</time>
      </trkpt>
      <trkpt lat="43.48609" lon="6.18597">
        <ele>157.4</ele>
        <time>2024-03-27T14:08:10Z</time>
      </trkpt>
      <trkpt lat="43.48609" lon="6.18597">
        <ele>157.3</ele>
        <time>2024-03-27T14:08:11Z</time>
      </trkpt>
      <trkpt lat="43.48609" lon="6.18597">
        <ele>157.3</ele>
        <time>2024-03-27T14:08:12Z</time>
      </trkpt>
      <trkpt lat="43.48609" lon="6.18597">
        <ele>157.3</ele>
        <time>2024-03-27T14:08:13Z</time>
      </trkpt>
      <trkpt lat="43.48609" lon="6.18597">
        <ele>157.3</ele>
        <time>2024-03-27T14:08:14Z</time>
      </trkpt>
      <trkpt lat="43.48609" lon="6.18597">
        <ele>157.3</ele>
        <time>2024-03-27T14:08:15Z</time>
      </trkpt>
      <trkpt lat="43.48609" lon="6.18597">
        <ele>157.3</ele>
        <time>2024-03-27T14:08:16Z</time>
      </trkpt>
      <trkpt lat="43.48609" lon="6.18597">
        <ele>157.3</ele>
        <time>2024-03-27T14:08:17Z</time>
      </trkpt>
      <trkpt lat="43.48609" lon="6.18597">
        <ele>157.3</ele>
        <time>2024-03-27T14:08:18Z</time>
      </trkpt>
      <trkpt lat="43.48609" lon="6.18596">
        <ele>157.3</ele>
        <time>2024-03-27T14:08:19Z</time>
      </trkpt>
      <trkpt lat="43.48609" lon="6.18596">
        <ele>157.3</ele>
        <time>2024-03-27T14:08:20Z</time>
      </trkpt>
      <trkpt lat="43.48609" lon="6.18596">
        <ele>157.3</ele>
        <time>2024-03-27T14:08:21Z</time>
      </trkpt>
      <trkpt lat="43.48609" lon="6.18596">
        <ele>157.3</ele>
        <time>2024-03-27T14:08:22Z</time>
      </trkpt>
      <trkpt lat="43.48609" lon="6.18595">
        <ele>157.3</ele>
        <time>2024-03-27T14:08:23Z</time>
      </trkpt>
      <trkpt lat="43.48609" lon="6.18595">
        <ele>157.3</ele>
        <time>2024-03-27T14:08:24Z</time>
      </trkpt>
      <trkpt lat="43.48609" lon="6.18595">
        <ele>157.3</ele>
        <time>2024-03-27T14:08:25Z</time>
      </trkpt>
      <trkpt lat="43.48609" lon="6.18595">
        <ele>157.3</ele>
        <time>2024-03-27T14:08:26Z</time>
      </trkpt>
      <trkpt lat="43.48609" lon="6.18595">
        <ele>157.3</ele>
        <time>2024-03-27T14:08:27Z</time>
      </trkpt>
      <trkpt lat="43.48609" lon="6.18595">
        <ele>157.3</ele>
        <time>2024-03-27T14:08:28Z</time>
      </trkpt>
      <trkpt lat="43.48609" lon="6.18595">
        <ele>157.3</ele>
        <time>2024-03-27T14:08:29Z</time>
      </trkpt>
      <trkpt lat="43.48608" lon="6.18594">
        <ele>157.2</ele>
        <time>2024-03-27T14:08:30Z</time>
      </trkpt>
      <trkpt lat="43.48608" lon="6.18594">
        <ele>157.3</ele>
        <time>2024-03-27T14:08:31Z</time>
      </trkpt>
      <trkpt lat="43.48608" lon="6.18594">
        <ele>157.4</ele>
        <time>2024-03-27T14:08:32Z</time>
      </trkpt>
      <trkpt lat="43.48609" lon="6.18595">
        <ele>157.4</ele>
        <time>2024-03-27T14:08:33Z</time>
      </trkpt>
      <trkpt lat="43.48608" lon="6.18595">
        <ele>157.4</ele>
        <time>2024-03-27T14:08:34Z</time>
      </trkpt>
      <trkpt lat="43.48608" lon="6.18595">
        <ele>157.4</ele>
        <time>2024-03-27T14:08:35Z</time>
      </trkpt>
      <trkpt lat="43.48608" lon="6.18595">
        <ele>157.4</ele>
        <time>2024-03-27T14:08:36Z</time>
      </trkpt>
      <trkpt lat="43.48608" lon="6.18595">
        <ele>157.3</ele>
        <time>2024-03-27T14:08:37Z</time>
      </trkpt>
      <trkpt lat="43.48608" lon="6.18595">
        <ele>157.3</ele>
        <time>2024-03-27T14:08:38Z</time>
      </trkpt>
      <trkpt lat="43.48608" lon="6.18595">
        <ele>157.2</ele>
        <time>2024-03-27T14:08:39Z</time>
      </trkpt>
      <trkpt lat="43.48608" lon="6.18594">
        <ele>157.2</ele>
        <time>2024-03-27T14:08:40Z</time>
      </trkpt>
      <trkpt lat="43.48608" lon="6.18594">
        <ele>157.2</ele>
        <time>2024-03-27T14:08:41Z</time>
      </trkpt>
      <trkpt lat="43.48608" lon="6.18595">
        <ele>157.3</ele>
        <time>2024-03-27T14:08:42Z</time>
      </trkpt>
      <trkpt lat="43.48609" lon="6.18595">
        <ele>157.4</ele>
        <time>2024-03-27T14:08:43Z</time>
      </trkpt>
      <trkpt lat="43.48609" lon="6.18595">
        <ele>157.4</ele>
        <time>2024-03-27T14:08:44Z</time>
      </trkpt>
      <trkpt lat="43.48609" lon="6.18595">
        <ele>157.3</ele>
        <time>2024-03-27T14:08:45Z</time>
      </trkpt>
      <trkpt lat="43.48609" lon="6.18595">
        <ele>157.3</ele>
        <time>2024-03-27T14:08:46Z</time>
      </trkpt>
      <trkpt lat="43.48609" lon="6.18595">
        <ele>157.2</ele>
        <time>2024-03-27T14:08:47Z</time>
      </trkpt>
      <trkpt lat="43.48609" lon="6.18595">
        <ele>157.1</ele>
        <time>2024-03-27T14:08:48Z</time>
      </trkpt>
      <trkpt lat="43.48609" lon="6.18595">
        <ele>157.1</ele>
        <time>2024-03-27T14:08:49Z</time>
      </trkpt>
      <trkpt lat="43.48609" lon="6.18595">
        <ele>157.1</ele>
        <time>2024-03-27T14:08:50Z</time>
      </trkpt>
      <trkpt lat="43.48609" lon="6.18595">
        <ele>157</ele>
        <time>2024-03-27T14:08:51Z</time>
      </trkpt>
      <trkpt lat="43.48609" lon="6.18595">
        <ele>157</ele>
        <time>2024-03-27T14:08:52Z</time>
      </trkpt>
      <trkpt lat="43.48609" lon="6.18595">
        <ele>156.9</ele>
        <time>2024-03-27T14:08:53Z</time>
      </trkpt>
      <trkpt lat="43.48609" lon="6.18595">
        <ele>156.9</ele>
        <time>2024-03-27T14:08:54Z</time>
      </trkpt>
      <trkpt lat="43.48609" lon="6.18595">
        <ele>156.9</ele>
        <time>2024-03-27T14:08:55Z</time>
      </trkpt>
      <trkpt lat="43.48609" lon="6.18595">
        <ele>156.9</ele>
        <time>2024-03-27T14:08:56Z</time>
      </trkpt>
      <trkpt lat="43.48609" lon="6.18595">
        <ele>156.9</ele>
        <time>2024-03-27T14:08:57Z</time>
      </trkpt>
      <trkpt lat="43.48609" lon="6.18595">
        <ele>156.9</ele>
        <time>2024-03-27T14:08:58Z</time>
      </trkpt>
      <trkpt lat="43.48609" lon="6.18595">
        <ele>156.9</ele>
        <time>2024-03-27T14:08:59Z</time>
      </trkpt>
      <trkpt lat="43.48609" lon="6.18595">
        <ele>157</ele>
        <time>2024-03-27T14:09:00Z</time>
      </trkpt>
      <trkpt lat="43.48609" lon="6.18595">
        <ele>157</ele>
        <time>2024-03-27T14:09:01Z</time>
      </trkpt>
      <trkpt lat="43.48609" lon="6.18595">
        <ele>157.1</ele>
        <time>2024-03-27T14:09:02Z</time>
      </trkpt>
      <trkpt lat="43.48609" lon="6.18595">
        <ele>157.1</ele>
        <time>2024-03-27T14:09:03Z</time>
      </trkpt>
      <trkpt lat="43.48609" lon="6.18595">
        <ele>157.1</ele>
        <time>2024-03-27T14:09:04Z</time>
      </trkpt>
      <trkpt lat="43.48609" lon="6.18595">
        <ele>157.1</ele>
        <time>2024-03-27T14:09:05Z</time>
      </trkpt>
      <trkpt lat="43.48609" lon="6.18595">
        <ele>157.1</ele>
        <time>2024-03-27T14:09:06Z</time>
      </trkpt>
      <trkpt lat="43.48609" lon="6.18595">
        <ele>157.2</ele>
        <time>2024-03-27T14:09:07Z</time>
      </trkpt>
      <trkpt lat="43.48609" lon="6.18595">
        <ele>157.1</ele>
        <time>2024-03-27T14:09:08Z</time>
      </trkpt>
      <trkpt lat="43.48609" lon="6.18595">
        <ele>157.1</ele>
        <time>2024-03-27T14:09:09Z</time>
      </trkpt>
      <trkpt lat="43.4861" lon="6.18595">
        <ele>157</ele>
        <time>2024-03-27T14:09:10Z</time>
      </trkpt>
      <trkpt lat="43.4861" lon="6.18595">
        <ele>157</ele>
        <time>2024-03-27T14:09:11Z</time>
      </trkpt>
      <trkpt lat="43.4861" lon="6.18595">
        <ele>156.9</ele>
        <time>2024-03-27T14:09:12Z</time>
      </trkpt>
      <trkpt lat="43.4861" lon="6.18595">
        <ele>156.9</ele>
        <time>2024-03-27T14:09:13Z</time>
      </trkpt>
      <trkpt lat="43.4861" lon="6.18595">
        <ele>156.8</ele>
        <time>2024-03-27T14:09:14Z</time>
      </trkpt>
      <trkpt lat="43.4861" lon="6.18595">
        <ele>156.8</ele>
        <time>2024-03-27T14:09:15Z</time>
      </trkpt>
      <trkpt lat="43.4861" lon="6.18595">
        <ele>156.8</ele>
        <time>2024-03-27T14:09:16Z</time>
      </trkpt>
      <trkpt lat="43.4861" lon="6.18595">
        <ele>156.8</ele>
        <time>2024-03-27T14:09:17Z</time>
      </trkpt>
      <trkpt lat="43.4861" lon="6.18595">
        <ele>156.8</ele>
        <time>2024-03-27T14:09:18Z</time>
      </trkpt>
      <trkpt lat="43.4861" lon="6.18595">
        <ele>156.8</ele>
        <time>2024-03-27T14:09:19Z</time>
      </trkpt>
      <trkpt lat="43.4861" lon="6.18595">
        <ele>156.8</ele>
        <time>2024-03-27T14:09:20Z</time>
      </trkpt>
      <trkpt lat="43.4861" lon="6.18595">
        <ele>156.8</ele>
        <time>2024-03-27T14:09:21Z</time>
      </trkpt>
      <trkpt lat="43.4861" lon="6.18595">
        <ele>156.7</ele>
        <time>2024-03-27T14:09:22Z</time>
      </trkpt>
      <trkpt lat="43.4861" lon="6.18595">
        <ele>156.7</ele>
        <time>2024-03-27T14:09:23Z</time>
      </trkpt>
      <trkpt lat="43.4861" lon="6.18595">
        <ele>156.7</ele>
        <time>2024-03-27T14:09:24Z</time>
      </trkpt>
      <trkpt lat="43.4861" lon="6.18595">
        <ele>156.7</ele>
        <time>2024-03-27T14:09:25Z</time>
      </trkpt>
      <trkpt lat="43.4861" lon="6.18595">
        <ele>156.7</ele>
        <time>2024-03-27T14:09:26Z</time>
      </trkpt>
      <trkpt lat="43.4861" lon="6.18595">
        <ele>156.7</ele>
        <time>2024-03-27T14:09:27Z</time>
      </trkpt>
      <trkpt lat="43.4861" lon="6.18595">
        <ele>156.8</ele>
        <time>2024-03-27T14:09:28Z</time>
      </trkpt>
      <trkpt lat="43.4861" lon="6.18595">
        <ele>156.9</ele>
        <time>2024-03-27T14:09:29Z</time>
      </trkpt>
      <trkpt lat="43.4861" lon="6.18595">
        <ele>156.9</ele>
        <time>2024-03-27T14:09:30Z</time>
      </trkpt>
      <trkpt lat="43.4861" lon="6.18594">
        <ele>156.9</ele>
        <time>2024-03-27T14:09:31Z</time>
      </trkpt>
      <trkpt lat="43.4861" lon="6.18594">
        <ele>156.9</ele>
        <time>2024-03-27T14:09:32Z</time>
      </trkpt>
      <trkpt lat="43.4861" lon="6.18594">
        <ele>156.9</ele>
        <time>2024-03-27T14:09:33Z</time>
      </trkpt>
      <trkpt lat="43.4861" lon="6.18594">
        <ele>156.9</ele>
        <time>2024-03-27T14:09:34Z</time>
      </trkpt>
      <trkpt lat="43.4861" lon="6.18594">
        <ele>156.9</ele>
        <time>2024-03-27T14:09:35Z</time>
      </trkpt>
      <trkpt lat="43.4861" lon="6.18594">
        <ele>156.9</ele>
        <time>2024-03-27T14:09:36Z</time>
      </trkpt>
      <trkpt lat="43.4861" lon="6.18594">
        <ele>156.9</ele>
        <time>2024-03-27T14:09:37Z</time>
      </trkpt>
      <trkpt lat="43.4861" lon="6.18594">
        <ele>157</ele>
        <time>2024-03-27T14:09:38Z</time>
      </trkpt>
      <trkpt lat="43.4861" lon="6.18594">
        <ele>157</ele>
        <time>2024-03-27T14:09:39Z</time>
      </trkpt>
      <trkpt lat="43.4861" lon="6.18594">
        <ele>157</ele>
        <time>2024-03-27T14:09:40Z</time>
      </trkpt>
      <trkpt lat="43.4861" lon="6.18594">
        <ele>157.1</ele>
        <time>2024-03-27T14:09:41Z</time>
      </trkpt>
      <trkpt lat="43.4861" lon="6.18594">
        <ele>157.1</ele>
        <time>2024-03-27T14:09:42Z</time>
      </trkpt>
      <trkpt lat="43.4861" lon="6.18594">
        <ele>157.1</ele>
        <time>2024-03-27T14:09:43Z</time>
      </trkpt>
      <trkpt lat="43.4861" lon="6.18595">
        <ele>157.1</ele>
        <time>2024-03-27T14:09:44Z</time>
      </trkpt>
      <trkpt lat="43.4861" lon="6.18594">
        <ele>157.1</ele>
        <time>2024-03-27T14:09:45Z</time>
      </trkpt>
      <trkpt lat="43.4861" lon="6.18595">
        <ele>157.1</ele>
        <time>2024-03-27T14:09:46Z</time>
      </trkpt>
      <trkpt lat="43.4861" lon="6.18595">
        <ele>157.1</ele>
        <time>2024-03-27T14:09:47Z</time>
      </trkpt>
      <trkpt lat="43.4861" lon="6.18595">
        <ele>157.2</ele>
        <time>2024-03-27T14:09:48Z</time>
      </trkpt>
      <trkpt lat="43.4861" lon="6.18594">
        <ele>157.1</ele>
        <time>2024-03-27T14:09:49Z</time>
      </trkpt>
      <trkpt lat="43.4861" lon="6.18595">
        <ele>157.1</ele>
        <time>2024-03-27T14:09:50Z</time>
      </trkpt>
      <trkpt lat="43.4861" lon="6.18594">
        <ele>157.1</ele>
        <time>2024-03-27T14:09:51Z</time>
      </trkpt>
      <trkpt lat="43.4861" lon="6.18594">
        <ele>157.2</ele>
        <time>2024-03-27T14:09:52Z</time>
      </trkpt>
      <trkpt lat="43.4861" lon="6.18594">
        <ele>157.2</ele>
        <time>2024-03-27T14:09:53Z</time>
      </trkpt>
      <trkpt lat="43.4861" lon="6.18594">
        <ele>157.2</ele>
        <time>2024-03-27T14:09:54Z</time>
      </trkpt>
      <trkpt lat="43.4861" lon="6.18594">
        <ele>157.2</ele>
        <time>2024-03-27T14:09:55Z</time>
      </trkpt>
      <trkpt lat="43.4861" lon="6.18594">
        <ele>157.1</ele>
        <time>2024-03-27T14:09:56Z</time>
      </trkpt>
      <trkpt lat="43.4861" lon="6.18594">
        <ele>157.1</ele>
        <time>2024-03-27T14:09:57Z</time>
      </trkpt>
      <trkpt lat="43.4861" lon="6.18594">
        <ele>157</ele>
        <time>2024-03-27T14:09:58Z</time>
      </trkpt>
      <trkpt lat="43.4861" lon="6.18594">
        <ele>157</ele>
        <time>2024-03-27T14:09:59Z</time>
      </trkpt>
      <trkpt lat="43.4861" lon="6.18594">
        <ele>156.9</ele>
        <time>2024-03-27T14:10:00Z</time>
      </trkpt>
      <trkpt lat="43.4861" lon="6.18594">
        <ele>156.9</ele>
        <time>2024-03-27T14:10:01Z</time>
      </trkpt>
      <trkpt lat="43.4861" lon="6.18594">
        <ele>156.8</ele>
        <time>2024-03-27T14:10:02Z</time>
      </trkpt>
      <trkpt lat="43.4861" lon="6.18594">
        <ele>156.8</ele>
        <time>2024-03-27T14:10:03Z</time>
      </trkpt>
      <trkpt lat="43.4861" lon="6.18594">
        <ele>156.8</ele>
        <time>2024-03-27T14:10:04Z</time>
      </trkpt>
      <trkpt lat="43.4861" lon="6.18594">
        <ele>156.7</ele>
        <time>2024-03-27T14:10:05Z</time>
      </trkpt>
      <trkpt lat="43.4861" lon="6.18594">
        <ele>156.7</ele>
        <time>2024-03-27T14:10:06Z</time>
      </trkpt>
      <trkpt lat="43.4861" lon="6.18595">
        <ele>156.6</ele>
        <time>2024-03-27T14:10:07Z</time>
      </trkpt>
      <trkpt lat="43.4861" lon="6.18594">
        <ele>156.5</ele>
        <time>2024-03-27T14:10:08Z</time>
      </trkpt>
      <trkpt lat="43.4861" lon="6.18594">
        <ele>156.5</ele>
        <time>2024-03-27T14:10:09Z</time>
      </trkpt>
      <trkpt lat="43.4861" lon="6.18595">
        <ele>156.5</ele>
        <time>2024-03-27T14:10:10Z</time>
      </trkpt>
      <trkpt lat="43.4861" lon="6.18595">
        <ele>156.6</ele>
        <time>2024-03-27T14:10:11Z</time>
      </trkpt>
      <trkpt lat="43.4861" lon="6.18594">
        <ele>156.7</ele>
        <time>2024-03-27T14:10:12Z</time>
      </trkpt>
      <trkpt lat="43.4861" lon="6.18594">
        <ele>156.7</ele>
        <time>2024-03-27T14:10:13Z</time>
      </trkpt>
      <trkpt lat="43.4861" lon="6.18594">
        <ele>156.7</ele>
        <time>2024-03-27T14:10:14Z</time>
      </trkpt>
      <trkpt lat="43.4861" lon="6.18594">
        <ele>156.8</ele>
        <time>2024-03-27T14:10:15Z</time>
      </trkpt>
      <trkpt lat="43.4861" lon="6.18594">
        <ele>156.9</ele>
        <time>2024-03-27T14:10:16Z</time>
      </trkpt>
      <trkpt lat="43.48609" lon="6.18593">
        <ele>157</ele>
        <time>2024-03-27T14:10:17Z</time>
      </trkpt>
      <trkpt lat="43.48609" lon="6.18593">
        <ele>157.1</ele>
        <time>2024-03-27T14:10:18Z</time>
      </trkpt>
      <trkpt lat="43.4861" lon="6.18593">
        <ele>157.2</ele>
        <time>2024-03-27T14:10:19Z</time>
      </trkpt>
      <trkpt lat="43.4861" lon="6.18593">
        <ele>157.2</ele>
        <time>2024-03-27T14:10:20Z</time>
      </trkpt>
      <trkpt lat="43.4861" lon="6.18593">
        <ele>157.2</ele>
        <time>2024-03-27T14:10:21Z</time>
      </trkpt>
      <trkpt lat="43.4861" lon="6.18593">
        <ele>157.2</ele>
        <time>2024-03-27T14:10:22Z</time>
      </trkpt>
      <trkpt lat="43.4861" lon="6.18593">
        <ele>157.1</ele>
        <time>2024-03-27T14:10:23Z</time>
      </trkpt>
      <trkpt lat="43.4861" lon="6.18593">
        <ele>157</ele>
        <time>2024-03-27T14:10:24Z</time>
      </trkpt>
      <trkpt lat="43.4861" lon="6.18593">
        <ele>157</ele>
        <time>2024-03-27T14:10:25Z</time>
      </trkpt>
      <trkpt lat="43.4861" lon="6.18593">
        <ele>156.9</ele>
        <time>2024-03-27T14:10:26Z</time>
      </trkpt>
      <trkpt lat="43.4861" lon="6.18593">
        <ele>156.7</ele>
        <time>2024-03-27T14:10:27Z</time>
      </trkpt>
      <trkpt lat="43.4861" lon="6.18593">
        <ele>156.6</ele>
        <time>2024-03-27T14:10:28Z</time>
      </trkpt>
      <trkpt lat="43.4861" lon="6.18593">
        <ele>156.6</ele>
        <time>2024-03-27T14:10:29Z</time>
      </trkpt>
      <trkpt lat="43.4861" lon="6.18593">
        <ele>156.6</ele>
        <time>2024-03-27T14:10:30Z</time>
      </trkpt>
      <trkpt lat="43.4861" lon="6.18593">
        <ele>156.6</ele>
        <time>2024-03-27T14:10:31Z</time>
      </trkpt>
      <trkpt lat="43.4861" lon="6.18593">
        <ele>156.5</ele>
        <time>2024-03-27T14:10:32Z</time>
      </trkpt>
      <trkpt lat="43.4861" lon="6.18592">
        <ele>156.6</ele>
        <time>2024-03-27T14:10:33Z</time>
      </trkpt>
      <trkpt lat="43.4861" lon="6.18592">
        <ele>156.6</ele>
        <time>2024-03-27T14:10:34Z</time>
      </trkpt>
      <trkpt lat="43.4861" lon="6.18593">
        <ele>156.6</ele>
        <time>2024-03-27T14:10:35Z</time>
      </trkpt>
      <trkpt lat="43.4861" lon="6.18592">
        <ele>156.7</ele>
        <time>2024-03-27T14:10:36Z</time>
      </trkpt>
      <trkpt lat="43.4861" lon="6.18592">
        <ele>156.7</ele>
        <time>2024-03-27T14:10:37Z</time>
      </trkpt>
      <trkpt lat="43.4861" lon="6.18592">
        <ele>156.8</ele>
        <time>2024-03-27T14:10:38Z</time>
      </trkpt>
      <trkpt lat="43.48611" lon="6.18593">
        <ele>157</ele>
        <time>2024-03-27T14:10:39Z</time>
      </trkpt>
      <trkpt lat="43.48611" lon="6.18593">
        <ele>157</ele>
        <time>2024-03-27T14:10:40Z</time>
      </trkpt>
      <trkpt lat="43.48611" lon="6.18594">
        <ele>157</ele>
        <time>2024-03-27T14:10:41Z</time>
      </trkpt>
      <trkpt lat="43.48611" lon="6.18594">
        <ele>157</ele>
        <time>2024-03-27T14:10:42Z</time>
      </trkpt>
      <trkpt lat="43.48611" lon="6.18594">
        <ele>157</ele>
        <time>2024-03-27T14:10:43Z</time>
      </trkpt>
      <trkpt lat="43.48611" lon="6.18594">
        <ele>156.9</ele>
        <time>2024-03-27T14:10:44Z</time>
      </trkpt>
      <trkpt lat="43.48611" lon="6.18594">
        <ele>156.6</ele>
        <time>2024-03-27T14:10:45Z</time>
      </trkpt>
      <trkpt lat="43.48611" lon="6.18594">
        <ele>156.5</ele>
        <time>2024-03-27T14:10:46Z</time>
      </trkpt>
      <trkpt lat="43.48612" lon="6.18594">
        <ele>156.5</ele>
        <time>2024-03-27T14:10:47Z</time>
      </trkpt>
      <trkpt lat="43.48612" lon="6.18594">
        <ele>156.5</ele>
        <time>2024-03-27T14:10:48Z</time>
      </trkpt>
      <trkpt lat="43.48612" lon="6.18594">
        <ele>156.6</ele>
        <time>2024-03-27T14:10:49Z</time>
      </trkpt>
      <trkpt lat="43.48612" lon="6.18594">
        <ele>156.7</ele>
        <time>2024-03-27T14:10:50Z</time>
      </trkpt>
      <trkpt lat="43.48612" lon="6.18595">
        <ele>156.8</ele>
        <time>2024-03-27T14:10:51Z</time>
      </trkpt>
      <trkpt lat="43.48612" lon="6.18595">
        <ele>156.8</ele>
        <time>2024-03-27T14:10:52Z</time>
      </trkpt>
      <trkpt lat="43.48612" lon="6.18595">
        <ele>156.9</ele>
        <time>2024-03-27T14:10:53Z</time>
      </trkpt>
      <trkpt lat="43.48612" lon="6.18595">
        <ele>157</ele>
        <time>2024-03-27T14:10:54Z</time>
      </trkpt>
      <trkpt lat="43.48613" lon="6.18595">
        <ele>156.9</ele>
        <time>2024-03-27T14:10:55Z</time>
      </trkpt>
      <trkpt lat="43.48613" lon="6.18595">
        <ele>156.9</ele>
        <time>2024-03-27T14:10:56Z</time>
      </trkpt>
      <trkpt lat="43.48613" lon="6.18595">
        <ele>157</ele>
        <time>2024-03-27T14:10:57Z</time>
      </trkpt>
      <trkpt lat="43.48613" lon="6.18595">
        <ele>156.9</ele>
        <time>2024-03-27T14:10:58Z</time>
      </trkpt>
      <trkpt lat="43.48613" lon="6.18595">
        <ele>156.9</ele>
        <time>2024-03-27T14:10:59Z</time>
      </trkpt>
      <trkpt lat="43.48613" lon="6.18595">
        <ele>157</ele>
        <time>2024-03-27T14:11:00Z</time>
      </trkpt>
      <trkpt lat="43.48613" lon="6.18595">
        <ele>157</ele>
        <time>2024-03-27T14:11:01Z</time>
      </trkpt>
      <trkpt lat="43.48613" lon="6.18595">
        <ele>157</ele>
        <time>2024-03-27T14:11:02Z</time>
      </trkpt>
      <trkpt lat="43.48613" lon="6.18595">
        <ele>157</ele>
        <time>2024-03-27T14:11:03Z</time>
      </trkpt>
      <trkpt lat="43.48613" lon="6.18595">
        <ele>157</ele>
        <time>2024-03-27T14:11:04Z</time>
      </trkpt>
      <trkpt lat="43.48613" lon="6.18595">
        <ele>157</ele>
        <time>2024-03-27T14:11:05Z</time>
      </trkpt>
      <trkpt lat="43.48613" lon="6.18595">
        <ele>157.1</ele>
        <time>2024-03-27T14:11:06Z</time>
      </trkpt>
      <trkpt lat="43.48613" lon="6.18595">
        <ele>157.2</ele>
        <time>2024-03-27T14:11:07Z</time>
      </trkpt>
      <trkpt lat="43.48613" lon="6.18594">
        <ele>157.2</ele>
        <time>2024-03-27T14:11:08Z</time>
      </trkpt>
      <trkpt lat="43.48613" lon="6.18594">
        <ele>157.2</ele>
        <time>2024-03-27T14:11:09Z</time>
      </trkpt>
      <trkpt lat="43.48613" lon="6.18593">
        <ele>157.3</ele>
        <time>2024-03-27T14:11:10Z</time>
      </trkpt>
      <trkpt lat="43.48614" lon="6.18592">
        <ele>157.4</ele>
        <time>2024-03-27T14:11:11Z</time>
      </trkpt>
      <trkpt lat="43.48614" lon="6.18591">
        <ele>157.4</ele>
        <time>2024-03-27T14:11:12Z</time>
      </trkpt>
      <trkpt lat="43.48615" lon="6.1859">
        <ele>157.5</ele>
        <time>2024-03-27T14:11:13Z</time>
      </trkpt>
      <trkpt lat="43.48615" lon="6.18589">
        <ele>157.6</ele>
        <time>2024-03-27T14:11:14Z</time>
      </trkpt>
      <trkpt lat="43.48615" lon="6.18588">
        <ele>157.7</ele>
        <time>2024-03-27T14:11:15Z</time>
      </trkpt>
      <trkpt lat="43.48616" lon="6.18586">
        <ele>157.7</ele>
        <time>2024-03-27T14:11:16Z</time>
      </trkpt>
      <trkpt lat="43.48616" lon="6.18585">
        <ele>157.8</ele>
        <time>2024-03-27T14:11:17Z</time>
      </trkpt>
      <trkpt lat="43.48616" lon="6.18583">
        <ele>157.9</ele>
        <time>2024-03-27T14:11:18Z</time>
      </trkpt>
      <trkpt lat="43.48616" lon="6.18582">
        <ele>157.9</ele>
        <time>2024-03-27T14:11:19Z</time>
      </trkpt>
      <trkpt lat="43.48615" lon="6.1858">
        <ele>158</ele>
        <time>2024-03-27T14:11:20Z</time>
      </trkpt>
      <trkpt lat="43.48615" lon="6.18579">
        <ele>158</ele>
        <time>2024-03-27T14:11:21Z</time>
      </trkpt>
      <trkpt lat="43.48615" lon="6.18578">
        <ele>158</ele>
        <time>2024-03-27T14:11:22Z</time>
      </trkpt>
      <trkpt lat="43.48614" lon="6.18576">
        <ele>158</ele>
        <time>2024-03-27T14:11:23Z</time>
      </trkpt>
      <trkpt lat="43.48614" lon="6.18575">
        <ele>158.1</ele>
        <time>2024-03-27T14:11:24Z</time>
      </trkpt>
      <trkpt lat="43.48614" lon="6.18574">
        <ele>158.3</ele>
        <time>2024-03-27T14:11:25Z</time>
      </trkpt>
      <trkpt lat="43.48615" lon="6.18573">
        <ele>158.4</ele>
        <time>2024-03-27T14:11:26Z</time>
      </trkpt>
      <trkpt lat="43.48615" lon="6.18572">
        <ele>158.5</ele>
        <time>2024-03-27T14:11:27Z</time>
      </trkpt>
      <trkpt lat="43.48615" lon="6.18571">
        <ele>158.6</ele>
        <time>2024-03-27T14:11:28Z</time>
      </trkpt>
      <trkpt lat="43.48615" lon="6.1857">
        <ele>158.9</ele>
        <time>2024-03-27T14:11:29Z</time>
      </trkpt>
      <trkpt lat="43.48614" lon="6.1857">
        <ele>159</ele>
        <time>2024-03-27T14:11:30Z</time>
      </trkpt>
      <trkpt lat="43.48614" lon="6.18569">
        <ele>159.1</ele>
        <time>2024-03-27T14:11:31Z</time>
      </trkpt>
      <trkpt lat="43.48613" lon="6.18568">
        <ele>159.2</ele>
        <time>2024-03-27T14:11:32Z</time>
      </trkpt>
      <trkpt lat="43.48612" lon="6.18567">
        <ele>159.2</ele>
        <time>2024-03-27T14:11:33Z</time>
      </trkpt>
      <trkpt lat="43.48612" lon="6.18565">
        <ele>159.3</ele>
        <time>2024-03-27T14:11:34Z</time>
      </trkpt>
      <trkpt lat="43.48612" lon="6.18563">
        <ele>159.3</ele>
        <time>2024-03-27T14:11:35Z</time>
      </trkpt>
      <trkpt lat="43.48611" lon="6.18562">
        <ele>159.3</ele>
        <time>2024-03-27T14:11:36Z</time>
      </trkpt>
      <trkpt lat="43.48612" lon="6.18561">
        <ele>159.3</ele>
        <time>2024-03-27T14:11:37Z</time>
      </trkpt>
      <trkpt lat="43.48612" lon="6.18559">
        <ele>159.4</ele>
        <time>2024-03-27T14:11:38Z</time>
      </trkpt>
      <trkpt lat="43.48611" lon="6.18558">
        <ele>159.4</ele>
        <time>2024-03-27T14:11:39Z</time>
      </trkpt>
      <trkpt lat="43.48611" lon="6.18557">
        <ele>159.5</ele>
        <time>2024-03-27T14:11:40Z</time>
      </trkpt>
      <trkpt lat="43.48611" lon="6.18556">
        <ele>159.3</ele>
        <time>2024-03-27T14:11:41Z</time>
      </trkpt>
      <trkpt lat="43.4861" lon="6.18554">
        <ele>159.7</ele>
        <time>2024-03-27T14:11:42Z</time>
      </trkpt>
      <trkpt lat="43.4861" lon="6.18552">
        <ele>159.8</ele>
        <time>2024-03-27T14:11:43Z</time>
      </trkpt>
      <trkpt lat="43.4861" lon="6.18551">
        <ele>160</ele>
        <time>2024-03-27T14:11:44Z</time>
      </trkpt>
      <trkpt lat="43.4861" lon="6.1855">
        <ele>160.2</ele>
        <time>2024-03-27T14:11:45Z</time>
      </trkpt>
      <trkpt lat="43.4861" lon="6.18549">
        <ele>160.3</ele>
        <time>2024-03-27T14:11:46Z</time>
      </trkpt>
      <trkpt lat="43.4861" lon="6.18547">
        <ele>160.6</ele>
        <time>2024-03-27T14:11:47Z</time>
      </trkpt>
      <trkpt lat="43.4861" lon="6.18546">
        <ele>160.8</ele>
        <time>2024-03-27T14:11:48Z</time>
      </trkpt>
      <trkpt lat="43.4861" lon="6.18545">
        <ele>161</ele>
        <time>2024-03-27T14:11:49Z</time>
      </trkpt>
      <trkpt lat="43.4861" lon="6.18544">
        <ele>161.2</ele>
        <time>2024-03-27T14:11:50Z</time>
      </trkpt>
      <trkpt lat="43.4861" lon="6.18542">
        <ele>161.4</ele>
        <time>2024-03-27T14:11:51Z</time>
      </trkpt>
      <trkpt lat="43.48611" lon="6.18541">
        <ele>161.7</ele>
        <time>2024-03-27T14:11:52Z</time>
      </trkpt>
      <trkpt lat="43.48611" lon="6.1854">
        <ele>161.8</ele>
        <time>2024-03-27T14:11:53Z</time>
      </trkpt>
      <trkpt lat="43.48611" lon="6.18539">
        <ele>162</ele>
        <time>2024-03-27T14:11:54Z</time>
      </trkpt>
      <trkpt lat="43.48612" lon="6.18538">
        <ele>162.3</ele>
        <time>2024-03-27T14:11:55Z</time>
      </trkpt>
      <trkpt lat="43.48612" lon="6.18537">
        <ele>162.6</ele>
        <time>2024-03-27T14:11:56Z</time>
      </trkpt>
      <trkpt lat="43.48613" lon="6.18536">
        <ele>162.9</ele>
        <time>2024-03-27T14:11:57Z</time>
      </trkpt>
      <trkpt lat="43.48613" lon="6.18535">
        <ele>163.1</ele>
        <time>2024-03-27T14:11:58Z</time>
      </trkpt>
      <trkpt lat="43.48613" lon="6.18534">
        <ele>163.5</ele>
        <time>2024-03-27T14:11:59Z</time>
      </trkpt>
      <trkpt lat="43.48613" lon="6.18534">
        <ele>163.8</ele>
        <time>2024-03-27T14:12:00Z</time>
      </trkpt>
      <trkpt lat="43.48613" lon="6.18534">
        <ele>163.9</ele>
        <time>2024-03-27T14:12:01Z</time>
      </trkpt>
      <trkpt lat="43.48612" lon="6.18533">
        <ele>164.1</ele>
        <time>2024-03-27T14:12:02Z</time>
      </trkpt>
      <trkpt lat="43.48612" lon="6.18532">
        <ele>164.3</ele>
        <time>2024-03-27T14:12:03Z</time>
      </trkpt>
      <trkpt lat="43.48612" lon="6.18532">
        <ele>164.5</ele>
        <time>2024-03-27T14:12:04Z</time>
      </trkpt>
      <trkpt lat="43.48612" lon="6.1853">
        <ele>164.7</ele>
        <time>2024-03-27T14:12:05Z</time>
      </trkpt>
      <trkpt lat="43.48612" lon="6.18529">
        <ele>164.9</ele>
        <time>2024-03-27T14:12:06Z</time>
      </trkpt>
      <trkpt lat="43.48612" lon="6.18528">
        <ele>165</ele>
        <time>2024-03-27T14:12:07Z</time>
      </trkpt>
      <trkpt lat="43.48612" lon="6.18528">
        <ele>165.2</ele>
        <time>2024-03-27T14:12:08Z</time>
      </trkpt>
      <trkpt lat="43.48611" lon="6.18526">
        <ele>165.3</ele>
        <time>2024-03-27T14:12:09Z</time>
      </trkpt>
      <trkpt lat="43.48611" lon="6.18525">
        <ele>165.4</ele>
        <time>2024-03-27T14:12:10Z</time>
      </trkpt>
      <trkpt lat="43.48611" lon="6.18524">
        <ele>165.5</ele>
        <time>2024-03-27T14:12:11Z</time>
      </trkpt>
      <trkpt lat="43.48611" lon="6.18524">
        <ele>165.8</ele>
        <time>2024-03-27T14:12:12Z</time>
      </trkpt>
      <trkpt lat="43.48611" lon="6.18522">
        <ele>166.1</ele>
        <time>2024-03-27T14:12:13Z</time>
      </trkpt>
      <trkpt lat="43.48611" lon="6.18521">
        <ele>166.4</ele>
        <time>2024-03-27T14:12:14Z</time>
      </trkpt>
      <trkpt lat="43.4861" lon="6.1852">
        <ele>166.6</ele>
        <time>2024-03-27T14:12:15Z</time>
      </trkpt>
      <trkpt lat="43.4861" lon="6.18519">
        <ele>166.8</ele>
        <time>2024-03-27T14:12:16Z</time>
      </trkpt>
      <trkpt lat="43.4861" lon="6.18517">
        <ele>167.1</ele>
        <time>2024-03-27T14:12:17Z</time>
      </trkpt>
      <trkpt lat="43.48611" lon="6.18517">
        <ele>167.4</ele>
        <time>2024-03-27T14:12:18Z</time>
      </trkpt>
      <trkpt lat="43.4861" lon="6.18516">
        <ele>167.6</ele>
        <time>2024-03-27T14:12:19Z</time>
      </trkpt>
      <trkpt lat="43.4861" lon="6.18514">
        <ele>167.9</ele>
        <time>2024-03-27T14:12:20Z</time>
      </trkpt>
      <trkpt lat="43.4861" lon="6.18513">
        <ele>168.1</ele>
        <time>2024-03-27T14:12:21Z</time>
      </trkpt>
      <trkpt lat="43.4861" lon="6.18512">
        <ele>168.3</ele>
        <time>2024-03-27T14:12:22Z</time>
      </trkpt>
      <trkpt lat="43.4861" lon="6.18512">
        <ele>168.5</ele>
        <time>2024-03-27T14:12:23Z</time>
      </trkpt>
      <trkpt lat="43.4861" lon="6.18511">
        <ele>168.7</ele>
        <time>2024-03-27T14:12:24Z</time>
      </trkpt>
      <trkpt lat="43.48611" lon="6.18509">
        <ele>168.9</ele>
        <time>2024-03-27T14:12:25Z</time>
      </trkpt>
      <trkpt lat="43.48611" lon="6.18508">
        <ele>169.1</ele>
        <time>2024-03-27T14:12:26Z</time>
      </trkpt>
      <trkpt lat="43.48611" lon="6.18507">
        <ele>169.2</ele>
        <time>2024-03-27T14:12:27Z</time>
      </trkpt>
      <trkpt lat="43.48612" lon="6.18506">
        <ele>169.4</ele>
        <time>2024-03-27T14:12:28Z</time>
      </trkpt>
      <trkpt lat="43.48612" lon="6.18505">
        <ele>169.6</ele>
        <time>2024-03-27T14:12:29Z</time>
      </trkpt>
      <trkpt lat="43.48612" lon="6.18504">
        <ele>169.7</ele>
        <time>2024-03-27T14:12:30Z</time>
      </trkpt>
      <trkpt lat="43.48612" lon="6.18504">
        <ele>169.9</ele>
        <time>2024-03-27T14:12:31Z</time>
      </trkpt>
      <trkpt lat="43.48612" lon="6.18503">
        <ele>169.9</ele>
        <time>2024-03-27T14:12:32Z</time>
      </trkpt>
      <trkpt lat="43.48613" lon="6.18503">
        <ele>170.1</ele>
        <time>2024-03-27T14:12:33Z</time>
      </trkpt>
      <trkpt lat="43.48612" lon="6.18502">
        <ele>170.1</ele>
        <time>2024-03-27T14:12:34Z</time>
      </trkpt>
      <trkpt lat="43.48612" lon="6.185">
        <ele>170.2</ele>
        <time>2024-03-27T14:12:35Z</time>
      </trkpt>
      <trkpt lat="43.48612" lon="6.18499">
        <ele>170.2</ele>
        <time>2024-03-27T14:12:36Z</time>
      </trkpt>
      <trkpt lat="43.48611" lon="6.18497">
        <ele>170.3</ele>
        <time>2024-03-27T14:12:37Z</time>
      </trkpt>
      <trkpt lat="43.48611" lon="6.18496">
        <ele>170.3</ele>
        <time>2024-03-27T14:12:38Z</time>
      </trkpt>
      <trkpt lat="43.48611" lon="6.18495">
        <ele>170.3</ele>
        <time>2024-03-27T14:12:39Z</time>
      </trkpt>
      <trkpt lat="43.48611" lon="6.18494">
        <ele>170.5</ele>
        <time>2024-03-27T14:12:40Z</time>
      </trkpt>
      <trkpt lat="43.48611" lon="6.18492">
        <ele>170.6</ele>
        <time>2024-03-27T14:12:41Z</time>
      </trkpt>
      <trkpt lat="43.48611" lon="6.1849">
        <ele>170.6</ele>
        <time>2024-03-27T14:12:42Z</time>
      </trkpt>
      <trkpt lat="43.48612" lon="6.18489">
        <ele>170.7</ele>
        <time>2024-03-27T14:12:43Z</time>
      </trkpt>
      <trkpt lat="43.48612" lon="6.18488">
        <ele>170.7</ele>
        <time>2024-03-27T14:12:44Z</time>
      </trkpt>
      <trkpt lat="43.48612" lon="6.18487">
        <ele>170.8</ele>
        <time>2024-03-27T14:12:45Z</time>
      </trkpt>
      <trkpt lat="43.48611" lon="6.18485">
        <ele>170.9</ele>
        <time>2024-03-27T14:12:46Z</time>
      </trkpt>
      <trkpt lat="43.48611" lon="6.18484">
        <ele>171</ele>
        <time>2024-03-27T14:12:47Z</time>
      </trkpt>
      <trkpt lat="43.48611" lon="6.18483">
        <ele>171.1</ele>
        <time>2024-03-27T14:12:48Z</time>
      </trkpt>
      <trkpt lat="43.48611" lon="6.18481">
        <ele>171.3</ele>
        <time>2024-03-27T14:12:49Z</time>
      </trkpt>
      <trkpt lat="43.48611" lon="6.1848">
        <ele>171.4</ele>
        <time>2024-03-27T14:12:50Z</time>
      </trkpt>
      <trkpt lat="43.4861" lon="6.18479">
        <ele>171.5</ele>
        <time>2024-03-27T14:12:51Z</time>
      </trkpt>
      <trkpt lat="43.4861" lon="6.18479">
        <ele>171.6</ele>
        <time>2024-03-27T14:12:52Z</time>
      </trkpt>
      <trkpt lat="43.4861" lon="6.18479">
        <ele>171.6</ele>
        <time>2024-03-27T14:12:53Z</time>
      </trkpt>
      <trkpt lat="43.4861" lon="6.18478">
        <ele>171.6</ele>
        <time>2024-03-27T14:12:54Z</time>
      </trkpt>
      <trkpt lat="43.4861" lon="6.18477">
        <ele>171.7</ele>
        <time>2024-03-27T14:12:55Z</time>
      </trkpt>
      <trkpt lat="43.4861" lon="6.18475">
        <ele>171.8</ele>
        <time>2024-03-27T14:12:56Z</time>
      </trkpt>
      <trkpt lat="43.4861" lon="6.18474">
        <ele>171.9</ele>
        <time>2024-03-27T14:12:57Z</time>
      </trkpt>
      <trkpt lat="43.48611" lon="6.18472">
        <ele>172.1</ele>
        <time>2024-03-27T14:12:58Z</time>
      </trkpt>
      <trkpt lat="43.48611" lon="6.18471">
        <ele>172.2</ele>
        <time>2024-03-27T14:12:59Z</time>
      </trkpt>
      <trkpt lat="43.48611" lon="6.1847">
        <ele>172.3</ele>
        <time>2024-03-27T14:13:00Z</time>
      </trkpt>
      <trkpt lat="43.48612" lon="6.18469">
        <ele>172.4</ele>
        <time>2024-03-27T14:13:01Z</time>
      </trkpt>
      <trkpt lat="43.48612" lon="6.18467">
        <ele>172.5</ele>
        <time>2024-03-27T14:13:02Z</time>
      </trkpt>
      <trkpt lat="43.48612" lon="6.18466">
        <ele>172.6</ele>
        <time>2024-03-27T14:13:03Z</time>
      </trkpt>
      <trkpt lat="43.48612" lon="6.18464">
        <ele>172.7</ele>
        <time>2024-03-27T14:13:04Z</time>
      </trkpt>
      <trkpt lat="43.48613" lon="6.18463">
        <ele>172.7</ele>
        <time>2024-03-27T14:13:05Z</time>
      </trkpt>
      <trkpt lat="43.48613" lon="6.18462">
        <ele>172.8</ele>
        <time>2024-03-27T14:13:06Z</time>
      </trkpt>
      <trkpt lat="43.48613" lon="6.1846">
        <ele>172.8</ele>
        <time>2024-03-27T14:13:07Z</time>
      </trkpt>
      <trkpt lat="43.48613" lon="6.18459">
        <ele>172.9</ele>
        <time>2024-03-27T14:13:08Z</time>
      </trkpt>
      <trkpt lat="43.48613" lon="6.18457">
        <ele>172.9</ele>
        <time>2024-03-27T14:13:09Z</time>
      </trkpt>
      <trkpt lat="43.48613" lon="6.18456">
        <ele>173</ele>
        <time>2024-03-27T14:13:10Z</time>
      </trkpt>
      <trkpt lat="43.48613" lon="6.18454">
        <ele>173</ele>
        <time>2024-03-27T14:13:11Z</time>
      </trkpt>
      <trkpt lat="43.48613" lon="6.18453">
        <ele>173.1</ele>
        <time>2024-03-27T14:13:12Z</time>
      </trkpt>
      <trkpt lat="43.48614" lon="6.18452">
        <ele>173.2</ele>
        <time>2024-03-27T14:13:13Z</time>
      </trkpt>
      <trkpt lat="43.48614" lon="6.1845">
        <ele>173.3</ele>
        <time>2024-03-27T14:13:14Z</time>
      </trkpt>
      <trkpt lat="43.48614" lon="6.18449">
        <ele>173.4</ele>
        <time>2024-03-27T14:13:15Z</time>
      </trkpt>
      <trkpt lat="43.48615" lon="6.18448">
        <ele>173.5</ele>
        <time>2024-03-27T14:13:16Z</time>
      </trkpt>
      <trkpt lat="43.48615" lon="6.18447">
        <ele>173.5</ele>
        <time>2024-03-27T14:13:17Z</time>
      </trkpt>
      <trkpt lat="43.48615" lon="6.18445">
        <ele>173.6</ele>
        <time>2024-03-27T14:13:18Z</time>
      </trkpt>
      <trkpt lat="43.48615" lon="6.18444">
        <ele>173.7</ele>
        <time>2024-03-27T14:13:19Z</time>
      </trkpt>
      <trkpt lat="43.48615" lon="6.18442">
        <ele>173.8</ele>
        <time>2024-03-27T14:13:20Z</time>
      </trkpt>
      <trkpt lat="43.48616" lon="6.18441">
        <ele>173.8</ele>
        <time>2024-03-27T14:13:21Z</time>
      </trkpt>
      <trkpt lat="43.48615" lon="6.1844">
        <ele>173.9</ele>
        <time>2024-03-27T14:13:22Z</time>
      </trkpt>
      <trkpt lat="43.48616" lon="6.18438">
        <ele>174</ele>
        <time>2024-03-27T14:13:23Z</time>
      </trkpt>
      <trkpt lat="43.48616" lon="6.18437">
        <ele>174.1</ele>
        <time>2024-03-27T14:13:24Z</time>
      </trkpt>
      <trkpt lat="43.48616" lon="6.18435">
        <ele>174.3</ele>
        <time>2024-03-27T14:13:25Z</time>
      </trkpt>
      <trkpt lat="43.48616" lon="6.18434">
        <ele>174.4</ele>
        <time>2024-03-27T14:13:26Z</time>
      </trkpt>
      <trkpt lat="43.48616" lon="6.18433">
        <ele>174.5</ele>
        <time>2024-03-27T14:13:27Z</time>
      </trkpt>
      <trkpt lat="43.48616" lon="6.18431">
        <ele>174.5</ele>
        <time>2024-03-27T14:13:28Z</time>
      </trkpt>
      <trkpt lat="43.48616" lon="6.1843">
        <ele>174.6</ele>
        <time>2024-03-27T14:13:29Z</time>
      </trkpt>
      <trkpt lat="43.48617" lon="6.18429">
        <ele>174.7</ele>
        <time>2024-03-27T14:13:30Z</time>
      </trkpt>
      <trkpt lat="43.48616" lon="6.18429">
        <ele>174.7</ele>
        <time>2024-03-27T14:13:31Z</time>
      </trkpt>
      <trkpt lat="43.48616" lon="6.18429">
        <ele>174.8</ele>
        <time>2024-03-27T14:13:32Z</time>
      </trkpt>
      <trkpt lat="43.48616" lon="6.18428">
        <ele>174.8</ele>
        <time>2024-03-27T14:13:33Z</time>
      </trkpt>
      <trkpt lat="43.48617" lon="6.18427">
        <ele>174.9</ele>
        <time>2024-03-27T14:13:34Z</time>
      </trkpt>
      <trkpt lat="43.48617" lon="6.18426">
        <ele>174.9</ele>
        <time>2024-03-27T14:13:35Z</time>
      </trkpt>
      <trkpt lat="43.48617" lon="6.18425">
        <ele>174.9</ele>
        <time>2024-03-27T14:13:36Z</time>
      </trkpt>
      <trkpt lat="43.48618" lon="6.18423">
        <ele>175</ele>
        <time>2024-03-27T14:13:37Z</time>
      </trkpt>
      <trkpt lat="43.48618" lon="6.18422">
        <ele>175</ele>
        <time>2024-03-27T14:13:38Z</time>
      </trkpt>
      <trkpt lat="43.48618" lon="6.1842">
        <ele>175</ele>
        <time>2024-03-27T14:13:39Z</time>
      </trkpt>
      <trkpt lat="43.48618" lon="6.18419">
        <ele>175</ele>
        <time>2024-03-27T14:13:40Z</time>
      </trkpt>
      <trkpt lat="43.48619" lon="6.18418">
        <ele>175.1</ele>
        <time>2024-03-27T14:13:41Z</time>
      </trkpt>
      <trkpt lat="43.48619" lon="6.18416">
        <ele>175.1</ele>
        <time>2024-03-27T14:13:42Z</time>
      </trkpt>
      <trkpt lat="43.4862" lon="6.18415">
        <ele>175.2</ele>
        <time>2024-03-27T14:13:43Z</time>
      </trkpt>
      <trkpt lat="43.4862" lon="6.18414">
        <ele>175.3</ele>
        <time>2024-03-27T14:13:44Z</time>
      </trkpt>
      <trkpt lat="43.4862" lon="6.18413">
        <ele>175.3</ele>
        <time>2024-03-27T14:13:45Z</time>
      </trkpt>
      <trkpt lat="43.4862" lon="6.18412">
        <ele>175.3</ele>
        <time>2024-03-27T14:13:46Z</time>
      </trkpt>
      <trkpt lat="43.48621" lon="6.1841">
        <ele>175.4</ele>
        <time>2024-03-27T14:13:47Z</time>
      </trkpt>
      <trkpt lat="43.48621" lon="6.18408">
        <ele>175.4</ele>
        <time>2024-03-27T14:13:48Z</time>
      </trkpt>
      <trkpt lat="43.48621" lon="6.18406">
        <ele>175.4</ele>
        <time>2024-03-27T14:13:49Z</time>
      </trkpt>
      <trkpt lat="43.48621" lon="6.18405">
        <ele>175.4</ele>
        <time>2024-03-27T14:13:50Z</time>
      </trkpt>
      <trkpt lat="43.4862" lon="6.18404">
        <ele>175.4</ele>
        <time>2024-03-27T14:13:51Z</time>
      </trkpt>
      <trkpt lat="43.4862" lon="6.18403">
        <ele>175.4</ele>
        <time>2024-03-27T14:13:52Z</time>
      </trkpt>
      <trkpt lat="43.4862" lon="6.18402">
        <ele>175.4</ele>
        <time>2024-03-27T14:13:53Z</time>
      </trkpt>
      <trkpt lat="43.48619" lon="6.184">
        <ele>175.4</ele>
        <time>2024-03-27T14:13:54Z</time>
      </trkpt>
      <trkpt lat="43.48619" lon="6.18399">
        <ele>175.4</ele>
        <time>2024-03-27T14:13:55Z</time>
      </trkpt>
      <trkpt lat="43.48619" lon="6.18397">
        <ele>175.4</ele>
        <time>2024-03-27T14:13:56Z</time>
      </trkpt>
      <trkpt lat="43.48618" lon="6.18396">
        <ele>175.4</ele>
        <time>2024-03-27T14:13:57Z</time>
      </trkpt>
      <trkpt lat="43.48619" lon="6.18395">
        <ele>175.4</ele>
        <time>2024-03-27T14:13:58Z</time>
      </trkpt>
      <trkpt lat="43.48618" lon="6.18393">
        <ele>175.3</ele>
        <time>2024-03-27T14:13:59Z</time>
      </trkpt>
      <trkpt lat="43.48619" lon="6.18392">
        <ele>175.3</ele>
        <time>2024-03-27T14:14:00Z</time>
      </trkpt>
      <trkpt lat="43.48618" lon="6.18391">
        <ele>175.4</ele>
        <time>2024-03-27T14:14:01Z</time>
      </trkpt>
      <trkpt lat="43.48618" lon="6.18389">
        <ele>175.4</ele>
        <time>2024-03-27T14:14:02Z</time>
      </trkpt>
      <trkpt lat="43.48619" lon="6.18388">
        <ele>175.4</ele>
        <time>2024-03-27T14:14:03Z</time>
      </trkpt>
      <trkpt lat="43.48619" lon="6.18386">
        <ele>175.4</ele>
        <time>2024-03-27T14:14:04Z</time>
      </trkpt>
      <trkpt lat="43.48619" lon="6.18385">
        <ele>175.4</ele>
        <time>2024-03-27T14:14:05Z</time>
      </trkpt>
      <trkpt lat="43.48619" lon="6.18383">
        <ele>175.4</ele>
        <time>2024-03-27T14:14:06Z</time>
      </trkpt>
      <trkpt lat="43.48619" lon="6.18382">
        <ele>175.4</ele>
        <time>2024-03-27T14:14:07Z</time>
      </trkpt>
      <trkpt lat="43.4862" lon="6.1838">
        <ele>175.4</ele>
        <time>2024-03-27T14:14:08Z</time>
      </trkpt>
      <trkpt lat="43.4862" lon="6.18379">
        <ele>175.5</ele>
        <time>2024-03-27T14:14:09Z</time>
      </trkpt>
      <trkpt lat="43.4862" lon="6.18377">
        <ele>175.6</ele>
        <time>2024-03-27T14:14:10Z</time>
      </trkpt>
      <trkpt lat="43.4862" lon="6.18375">
        <ele>175.7</ele>
        <time>2024-03-27T14:14:11Z</time>
      </trkpt>
      <trkpt lat="43.4862" lon="6.18374">
        <ele>175.8</ele>
        <time>2024-03-27T14:14:12Z</time>
      </trkpt>
      <trkpt lat="43.4862" lon="6.18373">
        <ele>175.9</ele>
        <time>2024-03-27T14:14:13Z</time>
      </trkpt>
      <trkpt lat="43.4862" lon="6.18372">
        <ele>175.9</ele>
        <time>2024-03-27T14:14:14Z</time>
      </trkpt>
      <trkpt lat="43.4862" lon="6.1837">
        <ele>176.1</ele>
        <time>2024-03-27T14:14:15Z</time>
      </trkpt>
      <trkpt lat="43.4862" lon="6.18369">
        <ele>176.2</ele>
        <time>2024-03-27T14:14:16Z</time>
      </trkpt>
      <trkpt lat="43.4862" lon="6.18367">
        <ele>176.3</ele>
        <time>2024-03-27T14:14:17Z</time>
      </trkpt>
      <trkpt lat="43.4862" lon="6.18365">
        <ele>176.4</ele>
        <time>2024-03-27T14:14:18Z</time>
      </trkpt>
      <trkpt lat="43.48621" lon="6.18364">
        <ele>176.5</ele>
        <time>2024-03-27T14:14:19Z</time>
      </trkpt>
      <trkpt lat="43.48621" lon="6.18363">
        <ele>176.7</ele>
        <time>2024-03-27T14:14:20Z</time>
      </trkpt>
      <trkpt lat="43.4862" lon="6.18361">
        <ele>176.9</ele>
        <time>2024-03-27T14:14:21Z</time>
      </trkpt>
      <trkpt lat="43.4862" lon="6.1836">
        <ele>177</ele>
        <time>2024-03-27T14:14:22Z</time>
      </trkpt>
      <trkpt lat="43.48619" lon="6.18359">
        <ele>177.1</ele>
        <time>2024-03-27T14:14:23Z</time>
      </trkpt>
      <trkpt lat="43.48618" lon="6.18357">
        <ele>177.3</ele>
        <time>2024-03-27T14:14:24Z</time>
      </trkpt>
      <trkpt lat="43.48617" lon="6.18356">
        <ele>177.5</ele>
        <time>2024-03-27T14:14:25Z</time>
      </trkpt>
      <trkpt lat="43.48617" lon="6.18355">
        <ele>177.6</ele>
        <time>2024-03-27T14:14:26Z</time>
      </trkpt>
      <trkpt lat="43.48616" lon="6.18354">
        <ele>177.6</ele>
        <time>2024-03-27T14:14:27Z</time>
      </trkpt>
      <trkpt lat="43.48616" lon="6.18353">
        <ele>177.7</ele>
        <time>2024-03-27T14:14:28Z</time>
      </trkpt>
      <trkpt lat="43.48615" lon="6.18352">
        <ele>177.9</ele>
        <time>2024-03-27T14:14:29Z</time>
      </trkpt>
      <trkpt lat="43.48615" lon="6.1835">
        <ele>177.9</ele>
        <time>2024-03-27T14:14:30Z</time>
      </trkpt>
      <trkpt lat="43.48615" lon="6.18349">
        <ele>178</ele>
        <time>2024-03-27T14:14:31Z</time>
      </trkpt>
      <trkpt lat="43.48614" lon="6.18347">
        <ele>178.1</ele>
        <time>2024-03-27T14:14:32Z</time>
      </trkpt>
      <trkpt lat="43.48613" lon="6.18346">
        <ele>178.1</ele>
        <time>2024-03-27T14:14:33Z</time>
      </trkpt>
      <trkpt lat="43.48613" lon="6.18346">
        <ele>178.2</ele>
        <time>2024-03-27T14:14:34Z</time>
      </trkpt>
      <trkpt lat="43.48612" lon="6.18345">
        <ele>178.3</ele>
        <time>2024-03-27T14:14:35Z</time>
      </trkpt>
      <trkpt lat="43.48612" lon="6.18344">
        <ele>178.3</ele>
        <time>2024-03-27T14:14:36Z</time>
      </trkpt>
      <trkpt lat="43.48612" lon="6.18342">
        <ele>178.3</ele>
        <time>2024-03-27T14:14:37Z</time>
      </trkpt>
      <trkpt lat="43.48611" lon="6.1834">
        <ele>178.4</ele>
        <time>2024-03-27T14:14:38Z</time>
      </trkpt>
      <trkpt lat="43.48611" lon="6.18339">
        <ele>178.5</ele>
        <time>2024-03-27T14:14:39Z</time>
      </trkpt>
      <trkpt lat="43.4861" lon="6.18337">
        <ele>178.5</ele>
        <time>2024-03-27T14:14:40Z</time>
      </trkpt>
      <trkpt lat="43.4861" lon="6.18336">
        <ele>178.6</ele>
        <time>2024-03-27T14:14:41Z</time>
      </trkpt>
      <trkpt lat="43.48609" lon="6.18335">
        <ele>178.6</ele>
        <time>2024-03-27T14:14:42Z</time>
      </trkpt>
      <trkpt lat="43.48609" lon="6.18334">
        <ele>178.7</ele>
        <time>2024-03-27T14:14:43Z</time>
      </trkpt>
      <trkpt lat="43.48609" lon="6.18333">
        <ele>178.8</ele>
        <time>2024-03-27T14:14:44Z</time>
      </trkpt>
      <trkpt lat="43.48609" lon="6.18331">
        <ele>178.9</ele>
        <time>2024-03-27T14:14:45Z</time>
      </trkpt>
      <trkpt lat="43.48609" lon="6.1833">
        <ele>179</ele>
        <time>2024-03-27T14:14:46Z</time>
      </trkpt>
      <trkpt lat="43.48609" lon="6.18328">
        <ele>179.2</ele>
        <time>2024-03-27T14:14:47Z</time>
      </trkpt>
      <trkpt lat="43.48608" lon="6.18327">
        <ele>179.3</ele>
        <time>2024-03-27T14:14:48Z</time>
      </trkpt>
      <trkpt lat="43.48608" lon="6.18325">
        <ele>179.3</ele>
        <time>2024-03-27T14:14:49Z</time>
      </trkpt>
      <trkpt lat="43.48607" lon="6.18325">
        <ele>179.3</ele>
        <time>2024-03-27T14:14:50Z</time>
      </trkpt>
      <trkpt lat="43.48606" lon="6.18324">
        <ele>179.3</ele>
        <time>2024-03-27T14:14:51Z</time>
      </trkpt>
      <trkpt lat="43.48606" lon="6.18323">
        <ele>179.3</ele>
        <time>2024-03-27T14:14:52Z</time>
      </trkpt>
      <trkpt lat="43.48604" lon="6.18321">
        <ele>179.2</ele>
        <time>2024-03-27T14:14:53Z</time>
      </trkpt>
      <trkpt lat="43.48604" lon="6.1832">
        <ele>179.2</ele>
        <time>2024-03-27T14:14:54Z</time>
      </trkpt>
      <trkpt lat="43.48603" lon="6.18319">
        <ele>179.1</ele>
        <time>2024-03-27T14:14:55Z</time>
      </trkpt>
      <trkpt lat="43.48603" lon="6.18318">
        <ele>179</ele>
        <time>2024-03-27T14:14:56Z</time>
      </trkpt>
      <trkpt lat="43.48602" lon="6.18317">
        <ele>179</ele>
        <time>2024-03-27T14:14:57Z</time>
      </trkpt>
      <trkpt lat="43.48601" lon="6.18316">
        <ele>178.9</ele>
        <time>2024-03-27T14:14:58Z</time>
      </trkpt>
      <trkpt lat="43.486" lon="6.18316">
        <ele>178.9</ele>
        <time>2024-03-27T14:14:59Z</time>
      </trkpt>
      <trkpt lat="43.486" lon="6.18315">
        <ele>178.9</ele>
        <time>2024-03-27T14:15:00Z</time>
      </trkpt>
      <trkpt lat="43.48599" lon="6.18315">
        <ele>178.8</ele>
        <time>2024-03-27T14:15:01Z</time>
      </trkpt>
      <trkpt lat="43.48598" lon="6.18315">
        <ele>178.8</ele>
        <time>2024-03-27T14:15:02Z</time>
      </trkpt>
      <trkpt lat="43.48596" lon="6.18314">
        <ele>178.8</ele>
        <time>2024-03-27T14:15:03Z</time>
      </trkpt>
      <trkpt lat="43.48596" lon="6.18314">
        <ele>178.7</ele>
        <time>2024-03-27T14:15:04Z</time>
      </trkpt>
      <trkpt lat="43.48595" lon="6.18314">
        <ele>178.7</ele>
        <time>2024-03-27T14:15:05Z</time>
      </trkpt>
      <trkpt lat="43.48594" lon="6.18314">
        <ele>178.7</ele>
        <time>2024-03-27T14:15:06Z</time>
      </trkpt>
      <trkpt lat="43.48593" lon="6.18313">
        <ele>178.7</ele>
        <time>2024-03-27T14:15:07Z</time>
      </trkpt>
      <trkpt lat="43.48592" lon="6.18313">
        <ele>178.6</ele>
        <time>2024-03-27T14:15:08Z</time>
      </trkpt>
      <trkpt lat="43.4859" lon="6.18313">
        <ele>178.6</ele>
        <time>2024-03-27T14:15:09Z</time>
      </trkpt>
      <trkpt lat="43.48589" lon="6.18312">
        <ele>178.5</ele>
        <time>2024-03-27T14:15:10Z</time>
      </trkpt>
      <trkpt lat="43.48588" lon="6.18311">
        <ele>178.5</ele>
        <time>2024-03-27T14:15:11Z</time>
      </trkpt>
      <trkpt lat="43.48587" lon="6.1831">
        <ele>178.3</ele>
        <time>2024-03-27T14:15:12Z</time>
      </trkpt>
      <trkpt lat="43.48586" lon="6.18309">
        <ele>178.2</ele>
        <time>2024-03-27T14:15:13Z</time>
      </trkpt>
      <trkpt lat="43.48585" lon="6.18308">
        <ele>178</ele>
        <time>2024-03-27T14:15:14Z</time>
      </trkpt>
      <trkpt lat="43.48584" lon="6.18308">
        <ele>177.9</ele>
        <time>2024-03-27T14:15:15Z</time>
      </trkpt>
      <trkpt lat="43.48583" lon="6.18308">
        <ele>177.8</ele>
        <time>2024-03-27T14:15:16Z</time>
      </trkpt>
      <trkpt lat="43.48583" lon="6.18308">
        <ele>177.6</ele>
        <time>2024-03-27T14:15:17Z</time>
      </trkpt>
      <trkpt lat="43.48582" lon="6.18307">
        <ele>177.4</ele>
        <time>2024-03-27T14:15:18Z</time>
      </trkpt>
      <trkpt lat="43.48581" lon="6.18306">
        <ele>177.3</ele>
        <time>2024-03-27T14:15:19Z</time>
      </trkpt>
      <trkpt lat="43.48581" lon="6.18305">
        <ele>177.1</ele>
        <time>2024-03-27T14:15:20Z</time>
      </trkpt>
      <trkpt lat="43.48581" lon="6.18304">
        <ele>177</ele>
        <time>2024-03-27T14:15:21Z</time>
      </trkpt>
      <trkpt lat="43.48581" lon="6.18302">
        <ele>176.9</ele>
        <time>2024-03-27T14:15:22Z</time>
      </trkpt>
      <trkpt lat="43.48581" lon="6.183">
        <ele>176.9</ele>
        <time>2024-03-27T14:15:23Z</time>
      </trkpt>
      <trkpt lat="43.48581" lon="6.18298">
        <ele>176.8</ele>
        <time>2024-03-27T14:15:24Z</time>
      </trkpt>
      <trkpt lat="43.48581" lon="6.18297">
        <ele>176.7</ele>
        <time>2024-03-27T14:15:25Z</time>
      </trkpt>
      <trkpt lat="43.48582" lon="6.18296">
        <ele>176.6</ele>
        <time>2024-03-27T14:15:26Z</time>
      </trkpt>
      <trkpt lat="43.48582" lon="6.18294">
        <ele>176.5</ele>
        <time>2024-03-27T14:15:27Z</time>
      </trkpt>
      <trkpt lat="43.48582" lon="6.18292">
        <ele>176.4</ele>
        <time>2024-03-27T14:15:28Z</time>
      </trkpt>
      <trkpt lat="43.48582" lon="6.1829">
        <ele>176.4</ele>
        <time>2024-03-27T14:15:29Z</time>
      </trkpt>
      <trkpt lat="43.48582" lon="6.18289">
        <ele>176.3</ele>
        <time>2024-03-27T14:15:30Z</time>
      </trkpt>
      <trkpt lat="43.48582" lon="6.18287">
        <ele>176.4</ele>
        <time>2024-03-27T14:15:31Z</time>
      </trkpt>
      <trkpt lat="43.48582" lon="6.18285">
        <ele>176.4</ele>
        <time>2024-03-27T14:15:32Z</time>
      </trkpt>
      <trkpt lat="43.48582" lon="6.18284">
        <ele>176.3</ele>
        <time>2024-03-27T14:15:33Z</time>
      </trkpt>
      <trkpt lat="43.48582" lon="6.18283">
        <ele>176.3</ele>
        <time>2024-03-27T14:15:34Z</time>
      </trkpt>
      <trkpt lat="43.48582" lon="6.18281">
        <ele>176.2</ele>
        <time>2024-03-27T14:15:35Z</time>
      </trkpt>
      <trkpt lat="43.48581" lon="6.1828">
        <ele>176.1</ele>
        <time>2024-03-27T14:15:36Z</time>
      </trkpt>
      <trkpt lat="43.4858" lon="6.18279">
        <ele>176.1</ele>
        <time>2024-03-27T14:15:37Z</time>
      </trkpt>
      <trkpt lat="43.4858" lon="6.18277">
        <ele>176.2</ele>
        <time>2024-03-27T14:15:38Z</time>
      </trkpt>
      <trkpt lat="43.4858" lon="6.18276">
        <ele>176.1</ele>
        <time>2024-03-27T14:15:39Z</time>
      </trkpt>
      <trkpt lat="43.4858" lon="6.18274">
        <ele>176</ele>
        <time>2024-03-27T14:15:40Z</time>
      </trkpt>
      <trkpt lat="43.4858" lon="6.18273">
        <ele>175.9</ele>
        <time>2024-03-27T14:15:41Z</time>
      </trkpt>
      <trkpt lat="43.48581" lon="6.18272">
        <ele>175.9</ele>
        <time>2024-03-27T14:15:42Z</time>
      </trkpt>
      <trkpt lat="43.48581" lon="6.1827">
        <ele>175.9</ele>
        <time>2024-03-27T14:15:43Z</time>
      </trkpt>
      <trkpt lat="43.48581" lon="6.18269">
        <ele>175.8</ele>
        <time>2024-03-27T14:15:44Z</time>
      </trkpt>
      <trkpt lat="43.48581" lon="6.18268">
        <ele>175.8</ele>
        <time>2024-03-27T14:15:45Z</time>
      </trkpt>
      <trkpt lat="43.48582" lon="6.18267">
        <ele>175.9</ele>
        <time>2024-03-27T14:15:46Z</time>
      </trkpt>
      <trkpt lat="43.48582" lon="6.18266">
        <ele>175.9</ele>
        <time>2024-03-27T14:15:47Z</time>
      </trkpt>
      <trkpt lat="43.48583" lon="6.18264">
        <ele>175.9</ele>
        <time>2024-03-27T14:15:48Z</time>
      </trkpt>
      <trkpt lat="43.48583" lon="6.18263">
        <ele>175.9</ele>
        <time>2024-03-27T14:15:49Z</time>
      </trkpt>
      <trkpt lat="43.48583" lon="6.18261">
        <ele>175.9</ele>
        <time>2024-03-27T14:15:50Z</time>
      </trkpt>
      <trkpt lat="43.48583" lon="6.1826">
        <ele>176</ele>
        <time>2024-03-27T14:15:51Z</time>
      </trkpt>
      <trkpt lat="43.48584" lon="6.18258">
        <ele>175.9</ele>
        <time>2024-03-27T14:15:52Z</time>
      </trkpt>
      <trkpt lat="43.48584" lon="6.18257">
        <ele>175.8</ele>
        <time>2024-03-27T14:15:53Z</time>
      </trkpt>
      <trkpt lat="43.48585" lon="6.18256">
        <ele>175.8</ele>
        <time>2024-03-27T14:15:54Z</time>
      </trkpt>
      <trkpt lat="43.48585" lon="6.18254">
        <ele>175.7</ele>
        <time>2024-03-27T14:15:55Z</time>
      </trkpt>
      <trkpt lat="43.48585" lon="6.18253">
        <ele>175.7</ele>
        <time>2024-03-27T14:15:56Z</time>
      </trkpt>
      <trkpt lat="43.48586" lon="6.18251">
        <ele>175.6</ele>
        <time>2024-03-27T14:15:57Z</time>
      </trkpt>
      <trkpt lat="43.48586" lon="6.1825">
        <ele>175.7</ele>
        <time>2024-03-27T14:15:58Z</time>
      </trkpt>
      <trkpt lat="43.48587" lon="6.18249">
        <ele>175.7</ele>
        <time>2024-03-27T14:15:59Z</time>
      </trkpt>
      <trkpt lat="43.48588" lon="6.18248">
        <ele>175.7</ele>
        <time>2024-03-27T14:16:00Z</time>
      </trkpt>
      <trkpt lat="43.48589" lon="6.18247">
        <ele>175.8</ele>
        <time>2024-03-27T14:16:01Z</time>
      </trkpt>
      <trkpt lat="43.48589" lon="6.18245">
        <ele>175.9</ele>
        <time>2024-03-27T14:16:02Z</time>
      </trkpt>
      <trkpt lat="43.4859" lon="6.18244">
        <ele>175.9</ele>
        <time>2024-03-27T14:16:03Z</time>
      </trkpt>
      <trkpt lat="43.48591" lon="6.18242">
        <ele>175.9</ele>
        <time>2024-03-27T14:16:04Z</time>
      </trkpt>
      <trkpt lat="43.48591" lon="6.18241">
        <ele>176</ele>
        <time>2024-03-27T14:16:05Z</time>
      </trkpt>
      <trkpt lat="43.48592" lon="6.18239">
        <ele>176</ele>
        <time>2024-03-27T14:16:06Z</time>
      </trkpt>
      <trkpt lat="43.48592" lon="6.18238">
        <ele>176</ele>
        <time>2024-03-27T14:16:07Z</time>
      </trkpt>
      <trkpt lat="43.48592" lon="6.18237">
        <ele>176.1</ele>
        <time>2024-03-27T14:16:08Z</time>
      </trkpt>
      <trkpt lat="43.48593" lon="6.18235">
        <ele>176.1</ele>
        <time>2024-03-27T14:16:09Z</time>
      </trkpt>
      <trkpt lat="43.48593" lon="6.18234">
        <ele>176.2</ele>
        <time>2024-03-27T14:16:10Z</time>
      </trkpt>
      <trkpt lat="43.48594" lon="6.18233">
        <ele>176.2</ele>
        <time>2024-03-27T14:16:11Z</time>
      </trkpt>
      <trkpt lat="43.48594" lon="6.18232">
        <ele>176.2</ele>
        <time>2024-03-27T14:16:12Z</time>
      </trkpt>
      <trkpt lat="43.48595" lon="6.18231">
        <ele>176.2</ele>
        <time>2024-03-27T14:16:13Z</time>
      </trkpt>
      <trkpt lat="43.48596" lon="6.18229">
        <ele>176.1</ele>
        <time>2024-03-27T14:16:14Z</time>
      </trkpt>
      <trkpt lat="43.48596" lon="6.18228">
        <ele>176.1</ele>
        <time>2024-03-27T14:16:15Z</time>
      </trkpt>
      <trkpt lat="43.48597" lon="6.18227">
        <ele>176</ele>
        <time>2024-03-27T14:16:16Z</time>
      </trkpt>
      <trkpt lat="43.48597" lon="6.18225">
        <ele>176.1</ele>
        <time>2024-03-27T14:16:17Z</time>
      </trkpt>
      <trkpt lat="43.48597" lon="6.18224">
        <ele>176.1</ele>
        <time>2024-03-27T14:16:18Z</time>
      </trkpt>
      <trkpt lat="43.48598" lon="6.18223">
        <ele>176.1</ele>
        <time>2024-03-27T14:16:19Z</time>
      </trkpt>
      <trkpt lat="43.48599" lon="6.18221">
        <ele>176.1</ele>
        <time>2024-03-27T14:16:20Z</time>
      </trkpt>
      <trkpt lat="43.48599" lon="6.1822">
        <ele>176.2</ele>
        <time>2024-03-27T14:16:21Z</time>
      </trkpt>
      <trkpt lat="43.486" lon="6.18219">
        <ele>176.1</ele>
        <time>2024-03-27T14:16:22Z</time>
      </trkpt>
      <trkpt lat="43.486" lon="6.18218">
        <ele>176.1</ele>
        <time>2024-03-27T14:16:23Z</time>
      </trkpt>
      <trkpt lat="43.48601" lon="6.18218">
        <ele>176.1</ele>
        <time>2024-03-27T14:16:24Z</time>
      </trkpt>
      <trkpt lat="43.48602" lon="6.18218">
        <ele>176.2</ele>
        <time>2024-03-27T14:16:25Z</time>
      </trkpt>
      <trkpt lat="43.48602" lon="6.18217">
        <ele>176.2</ele>
        <time>2024-03-27T14:16:26Z</time>
      </trkpt>
      <trkpt lat="43.48603" lon="6.18217">
        <ele>176.3</ele>
        <time>2024-03-27T14:16:27Z</time>
      </trkpt>
      <trkpt lat="43.48604" lon="6.18216">
        <ele>176.3</ele>
        <time>2024-03-27T14:16:28Z</time>
      </trkpt>
      <trkpt lat="43.48605" lon="6.18216">
        <ele>176.4</ele>
        <time>2024-03-27T14:16:29Z</time>
      </trkpt>
      <trkpt lat="43.48606" lon="6.18216">
        <ele>176.5</ele>
        <time>2024-03-27T14:16:30Z</time>
      </trkpt>
      <trkpt lat="43.48607" lon="6.18215">
        <ele>176.6</ele>
        <time>2024-03-27T14:16:31Z</time>
      </trkpt>
      <trkpt lat="43.48609" lon="6.18215">
        <ele>176.8</ele>
        <time>2024-03-27T14:16:32Z</time>
      </trkpt>
      <trkpt lat="43.4861" lon="6.18215">
        <ele>176.9</ele>
        <time>2024-03-27T14:16:33Z</time>
      </trkpt>
      <trkpt lat="43.48611" lon="6.18216">
        <ele>177</ele>
        <time>2024-03-27T14:16:34Z</time>
      </trkpt>
      <trkpt lat="43.48611" lon="6.18216">
        <ele>177.1</ele>
        <time>2024-03-27T14:16:35Z</time>
      </trkpt>
      <trkpt lat="43.48612" lon="6.18217">
        <ele>177.3</ele>
        <time>2024-03-27T14:16:36Z</time>
      </trkpt>
      <trkpt lat="43.48613" lon="6.18218">
        <ele>177.4</ele>
        <time>2024-03-27T14:16:37Z</time>
      </trkpt>
      <trkpt lat="43.48614" lon="6.18218">
        <ele>177.5</ele>
        <time>2024-03-27T14:16:38Z</time>
      </trkpt>
      <trkpt lat="43.48614" lon="6.18218">
        <ele>177.7</ele>
        <time>2024-03-27T14:16:39Z</time>
      </trkpt>
      <trkpt lat="43.48615" lon="6.18218">
        <ele>178</ele>
        <time>2024-03-27T14:16:40Z</time>
      </trkpt>
      <trkpt lat="43.48616" lon="6.18218">
        <ele>178.2</ele>
        <time>2024-03-27T14:16:41Z</time>
      </trkpt>
      <trkpt lat="43.48617" lon="6.18218">
        <ele>178.3</ele>
        <time>2024-03-27T14:16:42Z</time>
      </trkpt>
      <trkpt lat="43.48618" lon="6.18218">
        <ele>178.5</ele>
        <time>2024-03-27T14:16:43Z</time>
      </trkpt>
      <trkpt lat="43.48619" lon="6.18217">
        <ele>178.6</ele>
        <time>2024-03-27T14:16:44Z</time>
      </trkpt>
      <trkpt lat="43.48619" lon="6.18217">
        <ele>178.7</ele>
        <time>2024-03-27T14:16:45Z</time>
      </trkpt>
      <trkpt lat="43.4862" lon="6.18217">
        <ele>178.8</ele>
        <time>2024-03-27T14:16:46Z</time>
      </trkpt>
      <trkpt lat="43.48621" lon="6.18217">
        <ele>178.9</ele>
        <time>2024-03-27T14:16:47Z</time>
      </trkpt>
      <trkpt lat="43.48622" lon="6.18217">
        <ele>179</ele>
        <time>2024-03-27T14:16:48Z</time>
      </trkpt>
      <trkpt lat="43.48623" lon="6.18218">
        <ele>179.1</ele>
        <time>2024-03-27T14:16:49Z</time>
      </trkpt>
      <trkpt lat="43.48624" lon="6.18218">
        <ele>179.3</ele>
        <time>2024-03-27T14:16:50Z</time>
      </trkpt>
      <trkpt lat="43.48625" lon="6.18219">
        <ele>179.4</ele>
        <time>2024-03-27T14:16:51Z</time>
      </trkpt>
      <trkpt lat="43.48626" lon="6.1822">
        <ele>179.6</ele>
        <time>2024-03-27T14:16:52Z</time>
      </trkpt>
      <trkpt lat="43.48626" lon="6.1822">
        <ele>179.8</ele>
        <time>2024-03-27T14:16:53Z</time>
      </trkpt>
      <trkpt lat="43.48627" lon="6.18221">
        <ele>180</ele>
        <time>2024-03-27T14:16:54Z</time>
      </trkpt>
      <trkpt lat="43.48627" lon="6.18222">
        <ele>180.2</ele>
        <time>2024-03-27T14:16:55Z</time>
      </trkpt>
      <trkpt lat="43.48628" lon="6.18222">
        <ele>180.3</ele>
        <time>2024-03-27T14:16:56Z</time>
      </trkpt>
      <trkpt lat="43.48629" lon="6.18223">
        <ele>180.4</ele>
        <time>2024-03-27T14:16:57Z</time>
      </trkpt>
      <trkpt lat="43.4863" lon="6.18223">
        <ele>180.5</ele>
        <time>2024-03-27T14:16:58Z</time>
      </trkpt>
      <trkpt lat="43.48631" lon="6.18224">
        <ele>180.6</ele>
        <time>2024-03-27T14:16:59Z</time>
      </trkpt>
      <trkpt lat="43.48631" lon="6.18225">
        <ele>180.7</ele>
        <time>2024-03-27T14:17:00Z</time>
      </trkpt>
      <trkpt lat="43.48632" lon="6.18225">
        <ele>180.9</ele>
        <time>2024-03-27T14:17:01Z</time>
      </trkpt>
      <trkpt lat="43.48633" lon="6.18226">
        <ele>181</ele>
        <time>2024-03-27T14:17:02Z</time>
      </trkpt>
      <trkpt lat="43.48634" lon="6.18227">
        <ele>181.2</ele>
        <time>2024-03-27T14:17:03Z</time>
      </trkpt>
      <trkpt lat="43.48634" lon="6.18228">
        <ele>181.4</ele>
        <time>2024-03-27T14:17:04Z</time>
      </trkpt>
      <trkpt lat="43.48635" lon="6.18229">
        <ele>181.7</ele>
        <time>2024-03-27T14:17:05Z</time>
      </trkpt>
      <trkpt lat="43.48636" lon="6.18229">
        <ele>181.8</ele>
        <time>2024-03-27T14:17:06Z</time>
      </trkpt>
      <trkpt lat="43.48637" lon="6.18229">
        <ele>182</ele>
        <time>2024-03-27T14:17:07Z</time>
      </trkpt>
      <trkpt lat="43.48638" lon="6.18229">
        <ele>182.1</ele>
        <time>2024-03-27T14:17:08Z</time>
      </trkpt>
      <trkpt lat="43.48639" lon="6.18228">
        <ele>182.2</ele>
        <time>2024-03-27T14:17:09Z</time>
      </trkpt>
      <trkpt lat="43.4864" lon="6.18228">
        <ele>182.4</ele>
        <time>2024-03-27T14:17:10Z</time>
      </trkpt>
      <trkpt lat="43.48642" lon="6.18228">
        <ele>182.5</ele>
        <time>2024-03-27T14:17:11Z</time>
      </trkpt>
      <trkpt lat="43.48643" lon="6.18228">
        <ele>182.7</ele>
        <time>2024-03-27T14:17:12Z</time>
      </trkpt>
      <trkpt lat="43.48644" lon="6.18228">
        <ele>182.7</ele>
        <time>2024-03-27T14:17:13Z</time>
      </trkpt>
      <trkpt lat="43.48645" lon="6.18229">
        <ele>182.8</ele>
        <time>2024-03-27T14:17:14Z</time>
      </trkpt>
      <trkpt lat="43.48646" lon="6.18229">
        <ele>182.9</ele>
        <time>2024-03-27T14:17:15Z</time>
      </trkpt>
      <trkpt lat="43.48647" lon="6.18228">
        <ele>183</ele>
        <time>2024-03-27T14:17:16Z</time>
      </trkpt>
      <trkpt lat="43.48648" lon="6.18228">
        <ele>183.1</ele>
        <time>2024-03-27T14:17:17Z</time>
      </trkpt>
      <trkpt lat="43.48649" lon="6.18228">
        <ele>183.2</ele>
        <time>2024-03-27T14:17:18Z</time>
      </trkpt>
      <trkpt lat="43.48649" lon="6.18228">
        <ele>183.3</ele>
        <time>2024-03-27T14:17:19Z</time>
      </trkpt>
      <trkpt lat="43.4865" lon="6.18228">
        <ele>183.4</ele>
        <time>2024-03-27T14:17:20Z</time>
      </trkpt>
      <trkpt lat="43.48651" lon="6.18228">
        <ele>183.5</ele>
        <time>2024-03-27T14:17:21Z</time>
      </trkpt>
      <trkpt lat="43.48652" lon="6.18228">
        <ele>183.7</ele>
        <time>2024-03-27T14:17:22Z</time>
      </trkpt>
      <trkpt lat="43.48653" lon="6.18228">
        <ele>183.9</ele>
        <time>2024-03-27T14:17:23Z</time>
      </trkpt>
      <trkpt lat="43.48655" lon="6.18227">
        <ele>184.1</ele>
        <time>2024-03-27T14:17:24Z</time>
      </trkpt>
      <trkpt lat="43.48656" lon="6.18227">
        <ele>184.2</ele>
        <time>2024-03-27T14:17:25Z</time>
      </trkpt>
      <trkpt lat="43.48656" lon="6.18228">
        <ele>184.3</ele>
        <time>2024-03-27T14:17:26Z</time>
      </trkpt>
      <trkpt lat="43.48658" lon="6.18228">
        <ele>184.5</ele>
        <time>2024-03-27T14:17:27Z</time>
      </trkpt>
      <trkpt lat="43.48659" lon="6.18228">
        <ele>184.7</ele>
        <time>2024-03-27T14:17:28Z</time>
      </trkpt>
      <trkpt lat="43.48659" lon="6.18228">
        <ele>184.8</ele>
        <time>2024-03-27T14:17:29Z</time>
      </trkpt>
      <trkpt lat="43.4866" lon="6.18228">
        <ele>185</ele>
        <time>2024-03-27T14:17:30Z</time>
      </trkpt>
      <trkpt lat="43.48661" lon="6.18228">
        <ele>185.2</ele>
        <time>2024-03-27T14:17:31Z</time>
      </trkpt>
      <trkpt lat="43.48662" lon="6.18228">
        <ele>185.4</ele>
        <time>2024-03-27T14:17:32Z</time>
      </trkpt>
      <trkpt lat="43.48663" lon="6.18229">
        <ele>185.5</ele>
        <time>2024-03-27T14:17:33Z</time>
      </trkpt>
      <trkpt lat="43.48664" lon="6.1823">
        <ele>185.7</ele>
        <time>2024-03-27T14:17:34Z</time>
      </trkpt>
      <trkpt lat="43.48664" lon="6.18231">
        <ele>185.8</ele>
        <time>2024-03-27T14:17:35Z</time>
      </trkpt>
      <trkpt lat="43.48665" lon="6.18232">
        <ele>186.1</ele>
        <time>2024-03-27T14:17:36Z</time>
      </trkpt>
      <trkpt lat="43.48666" lon="6.18232">
        <ele>186.2</ele>
        <time>2024-03-27T14:17:37Z</time>
      </trkpt>
      <trkpt lat="43.48667" lon="6.18232">
        <ele>186.4</ele>
        <time>2024-03-27T14:17:38Z</time>
      </trkpt>
      <trkpt lat="43.48667" lon="6.18232">
        <ele>186.6</ele>
        <time>2024-03-27T14:17:39Z</time>
      </trkpt>
      <trkpt lat="43.48668" lon="6.18232">
        <ele>186.7</ele>
        <time>2024-03-27T14:17:40Z</time>
      </trkpt>
      <trkpt lat="43.48668" lon="6.18232">
        <ele>186.8</ele>
        <time>2024-03-27T14:17:41Z</time>
      </trkpt>
      <trkpt lat="43.48668" lon="6.18232">
        <ele>186.9</ele>
        <time>2024-03-27T14:17:42Z</time>
      </trkpt>
      <trkpt lat="43.48669" lon="6.18233">
        <ele>187</ele>
        <time>2024-03-27T14:17:43Z</time>
      </trkpt>
      <trkpt lat="43.48669" lon="6.18233">
        <ele>187</ele>
        <time>2024-03-27T14:17:44Z</time>
      </trkpt>
      <trkpt lat="43.48669" lon="6.18233">
        <ele>187.1</ele>
        <time>2024-03-27T14:17:45Z</time>
      </trkpt>
      <trkpt lat="43.4867" lon="6.18232">
        <ele>187.1</ele>
        <time>2024-03-27T14:17:46Z</time>
      </trkpt>
      <trkpt lat="43.4867" lon="6.18232">
        <ele>187.1</ele>
        <time>2024-03-27T14:17:47Z</time>
      </trkpt>
      <trkpt lat="43.4867" lon="6.18233">
        <ele>187.1</ele>
        <time>2024-03-27T14:17:48Z</time>
      </trkpt>
      <trkpt lat="43.48669" lon="6.18233">
        <ele>187.1</ele>
        <time>2024-03-27T14:17:49Z</time>
      </trkpt>
      <trkpt lat="43.4867" lon="6.18234">
        <ele>187.1</ele>
        <time>2024-03-27T14:17:50Z</time>
      </trkpt>
      <trkpt lat="43.4867" lon="6.18235">
        <ele>187.1</ele>
        <time>2024-03-27T14:17:51Z</time>
      </trkpt>
      <trkpt lat="43.4867" lon="6.18236">
        <ele>187.2</ele>
        <time>2024-03-27T14:17:52Z</time>
      </trkpt>
      <trkpt lat="43.48671" lon="6.18237">
        <ele>187.2</ele>
        <time>2024-03-27T14:17:53Z</time>
      </trkpt>
      <trkpt lat="43.48671" lon="6.18238">
        <ele>187.3</ele>
        <time>2024-03-27T14:17:54Z</time>
      </trkpt>
      <trkpt lat="43.48672" lon="6.18238">
        <ele>187.4</ele>
        <time>2024-03-27T14:17:55Z</time>
      </trkpt>
      <trkpt lat="43.48672" lon="6.18239">
        <ele>187.4</ele>
        <time>2024-03-27T14:17:56Z</time>
      </trkpt>
      <trkpt lat="43.48673" lon="6.18239">
        <ele>187.4</ele>
        <time>2024-03-27T14:17:57Z</time>
      </trkpt>
      <trkpt lat="43.48674" lon="6.1824">
        <ele>187.4</ele>
        <time>2024-03-27T14:17:58Z</time>
      </trkpt>
      <trkpt lat="43.48675" lon="6.1824">
        <ele>187.4</ele>
        <time>2024-03-27T14:17:59Z</time>
      </trkpt>
      <trkpt lat="43.48676" lon="6.1824">
        <ele>187.5</ele>
        <time>2024-03-27T14:18:00Z</time>
      </trkpt>
      <trkpt lat="43.48676" lon="6.1824">
        <ele>187.7</ele>
        <time>2024-03-27T14:18:01Z</time>
      </trkpt>
      <trkpt lat="43.48677" lon="6.1824">
        <ele>187.8</ele>
        <time>2024-03-27T14:18:02Z</time>
      </trkpt>
      <trkpt lat="43.48678" lon="6.1824">
        <ele>187.8</ele>
        <time>2024-03-27T14:18:03Z</time>
      </trkpt>
      <trkpt lat="43.48679" lon="6.18239">
        <ele>187.9</ele>
        <time>2024-03-27T14:18:04Z</time>
      </trkpt>
      <trkpt lat="43.48679" lon="6.1824">
        <ele>187.9</ele>
        <time>2024-03-27T14:18:05Z</time>
      </trkpt>
      <trkpt lat="43.4868" lon="6.18239">
        <ele>187.9</ele>
        <time>2024-03-27T14:18:06Z</time>
      </trkpt>
      <trkpt lat="43.48681" lon="6.18239">
        <ele>188</ele>
        <time>2024-03-27T14:18:07Z</time>
      </trkpt>
      <trkpt lat="43.48681" lon="6.18239">
        <ele>188.1</ele>
        <time>2024-03-27T14:18:08Z</time>
      </trkpt>
      <trkpt lat="43.48681" lon="6.18239">
        <ele>188.2</ele>
        <time>2024-03-27T14:18:09Z</time>
      </trkpt>
      <trkpt lat="43.48681" lon="6.18239">
        <ele>188.3</ele>
        <time>2024-03-27T14:18:10Z</time>
      </trkpt>
      <trkpt lat="43.48681" lon="6.18239">
        <ele>188.4</ele>
        <time>2024-03-27T14:18:11Z</time>
      </trkpt>
      <trkpt lat="43.48681" lon="6.1824">
        <ele>188.4</ele>
        <time>2024-03-27T14:18:12Z</time>
      </trkpt>
      <trkpt lat="43.48681" lon="6.1824">
        <ele>188.5</ele>
        <time>2024-03-27T14:18:13Z</time>
      </trkpt>
      <trkpt lat="43.48681" lon="6.18239">
        <ele>188.5</ele>
        <time>2024-03-27T14:18:14Z</time>
      </trkpt>
      <trkpt lat="43.48681" lon="6.18239">
        <ele>188.7</ele>
        <time>2024-03-27T14:18:15Z</time>
      </trkpt>
      <trkpt lat="43.48681" lon="6.18239">
        <ele>188.8</ele>
        <time>2024-03-27T14:18:16Z</time>
      </trkpt>
      <trkpt lat="43.48681" lon="6.18238">
        <ele>188.8</ele>
        <time>2024-03-27T14:18:17Z</time>
      </trkpt>
      <trkpt lat="43.48681" lon="6.18238">
        <ele>188.7</ele>
        <time>2024-03-27T14:18:18Z</time>
      </trkpt>
      <trkpt lat="43.48681" lon="6.18237">
        <ele>188.7</ele>
        <time>2024-03-27T14:18:19Z</time>
      </trkpt>
      <trkpt lat="43.48682" lon="6.18237">
        <ele>188.7</ele>
        <time>2024-03-27T14:18:20Z</time>
      </trkpt>
      <trkpt lat="43.48682" lon="6.18237">
        <ele>188.7</ele>
        <time>2024-03-27T14:18:21Z</time>
      </trkpt>
      <trkpt lat="43.48682" lon="6.18237">
        <ele>188.7</ele>
        <time>2024-03-27T14:18:22Z</time>
      </trkpt>
      <trkpt lat="43.48682" lon="6.18237">
        <ele>188.7</ele>
        <time>2024-03-27T14:18:23Z</time>
      </trkpt>
      <trkpt lat="43.48682" lon="6.18236">
        <ele>188.7</ele>
        <time>2024-03-27T14:18:24Z</time>
      </trkpt>
      <trkpt lat="43.48682" lon="6.18236">
        <ele>188.8</ele>
        <time>2024-03-27T14:18:25Z</time>
      </trkpt>
      <trkpt lat="43.48682" lon="6.18236">
        <ele>188.8</ele>
        <time>2024-03-27T14:18:26Z</time>
      </trkpt>
      <trkpt lat="43.48682" lon="6.18236">
        <ele>188.8</ele>
        <time>2024-03-27T14:18:27Z</time>
      </trkpt>
      <trkpt lat="43.48682" lon="6.18236">
        <ele>188.8</ele>
        <time>2024-03-27T14:18:28Z</time>
      </trkpt>
      <trkpt lat="43.48682" lon="6.18236">
        <ele>188.8</ele>
        <time>2024-03-27T14:18:29Z</time>
      </trkpt>
      <trkpt lat="43.48682" lon="6.18235">
        <ele>188.8</ele>
        <time>2024-03-27T14:18:30Z</time>
      </trkpt>
      <trkpt lat="43.48682" lon="6.18235">
        <ele>188.9</ele>
        <time>2024-03-27T14:18:31Z</time>
      </trkpt>
      <trkpt lat="43.48682" lon="6.18235">
        <ele>188.9</ele>
        <time>2024-03-27T14:18:32Z</time>
      </trkpt>
      <trkpt lat="43.48683" lon="6.18235">
        <ele>188.9</ele>
        <time>2024-03-27T14:18:33Z</time>
      </trkpt>
      <trkpt lat="43.48683" lon="6.18234">
        <ele>188.9</ele>
        <time>2024-03-27T14:18:34Z</time>
      </trkpt>
      <trkpt lat="43.48682" lon="6.18234">
        <ele>188.8</ele>
        <time>2024-03-27T14:18:35Z</time>
      </trkpt>
      <trkpt lat="43.48682" lon="6.18234">
        <ele>188.9</ele>
        <time>2024-03-27T14:18:36Z</time>
      </trkpt>
      <trkpt lat="43.48682" lon="6.18233">
        <ele>188.8</ele>
        <time>2024-03-27T14:18:37Z</time>
      </trkpt>
      <trkpt lat="43.48682" lon="6.18233">
        <ele>188.8</ele>
        <time>2024-03-27T14:18:38Z</time>
      </trkpt>
      <trkpt lat="43.48682" lon="6.18233">
        <ele>188.8</ele>
        <time>2024-03-27T14:18:39Z</time>
      </trkpt>
      <trkpt lat="43.48682" lon="6.18233">
        <ele>188.8</ele>
        <time>2024-03-27T14:18:40Z</time>
      </trkpt>
      <trkpt lat="43.48682" lon="6.18233">
        <ele>188.7</ele>
        <time>2024-03-27T14:18:41Z</time>
      </trkpt>
      <trkpt lat="43.48682" lon="6.18233">
        <ele>188.7</ele>
        <time>2024-03-27T14:18:42Z</time>
      </trkpt>
      <trkpt lat="43.48683" lon="6.18233">
        <ele>188.7</ele>
        <time>2024-03-27T14:18:43Z</time>
      </trkpt>
      <trkpt lat="43.48683" lon="6.18233">
        <ele>188.7</ele>
        <time>2024-03-27T14:18:44Z</time>
      </trkpt>
      <trkpt lat="43.48683" lon="6.18233">
        <ele>188.7</ele>
        <time>2024-03-27T14:18:45Z</time>
      </trkpt>
      <trkpt lat="43.48683" lon="6.18233">
        <ele>188.7</ele>
        <time>2024-03-27T14:18:46Z</time>
      </trkpt>
      <trkpt lat="43.48683" lon="6.18233">
        <ele>188.7</ele>
        <time>2024-03-27T14:18:47Z</time>
      </trkpt>
      <trkpt lat="43.48683" lon="6.18233">
        <ele>188.7</ele>
        <time>2024-03-27T14:18:48Z</time>
      </trkpt>
      <trkpt lat="43.48683" lon="6.18233">
        <ele>188.7</ele>
        <time>2024-03-27T14:18:49Z</time>
      </trkpt>
      <trkpt lat="43.48683" lon="6.18233">
        <ele>188.7</ele>
        <time>2024-03-27T14:18:50Z</time>
      </trkpt>
      <trkpt lat="43.48683" lon="6.18233">
        <ele>188.7</ele>
        <time>2024-03-27T14:18:51Z</time>
      </trkpt>
      <trkpt lat="43.48683" lon="6.18233">
        <ele>188.7</ele>
        <time>2024-03-27T14:18:52Z</time>
      </trkpt>
      <trkpt lat="43.48683" lon="6.18232">
        <ele>188.7</ele>
        <time>2024-03-27T14:18:53Z</time>
      </trkpt>
      <trkpt lat="43.48683" lon="6.18232">
        <ele>188.7</ele>
        <time>2024-03-27T14:18:54Z</time>
      </trkpt>
      <trkpt lat="43.48683" lon="6.18232">
        <ele>188.9</ele>
        <time>2024-03-27T14:18:55Z</time>
      </trkpt>
      <trkpt lat="43.48683" lon="6.18232">
        <ele>189</ele>
        <time>2024-03-27T14:18:56Z</time>
      </trkpt>
      <trkpt lat="43.48683" lon="6.18232">
        <ele>189</ele>
        <time>2024-03-27T14:18:57Z</time>
      </trkpt>
      <trkpt lat="43.48683" lon="6.18232">
        <ele>188.9</ele>
        <time>2024-03-27T14:18:58Z</time>
      </trkpt>
      <trkpt lat="43.48683" lon="6.18232">
        <ele>189</ele>
        <time>2024-03-27T14:18:59Z</time>
      </trkpt>
      <trkpt lat="43.48683" lon="6.18232">
        <ele>189</ele>
        <time>2024-03-27T14:19:00Z</time>
      </trkpt>
      <trkpt lat="43.48684" lon="6.18232">
        <ele>189</ele>
        <time>2024-03-27T14:19:01Z</time>
      </trkpt>
      <trkpt lat="43.48684" lon="6.18232">
        <ele>189</ele>
        <time>2024-03-27T14:19:02Z</time>
      </trkpt>
      <trkpt lat="43.48684" lon="6.18232">
        <ele>189</ele>
        <time>2024-03-27T14:19:03Z</time>
      </trkpt>
      <trkpt lat="43.48684" lon="6.18232">
        <ele>188.9</ele>
        <time>2024-03-27T14:19:04Z</time>
      </trkpt>
      <trkpt lat="43.48684" lon="6.18232">
        <ele>188.9</ele>
        <time>2024-03-27T14:19:05Z</time>
      </trkpt>
      <trkpt lat="43.48684" lon="6.18232">
        <ele>188.8</ele>
        <time>2024-03-27T14:19:06Z</time>
      </trkpt>
      <trkpt lat="43.48684" lon="6.18232">
        <ele>189</ele>
        <time>2024-03-27T14:19:07Z</time>
      </trkpt>
      <trkpt lat="43.48684" lon="6.18233">
        <ele>189.1</ele>
        <time>2024-03-27T14:19:08Z</time>
      </trkpt>
      <trkpt lat="43.48683" lon="6.18233">
        <ele>189.2</ele>
        <time>2024-03-27T14:19:09Z</time>
      </trkpt>
      <trkpt lat="43.48683" lon="6.18233">
        <ele>189.1</ele>
        <time>2024-03-27T14:19:10Z</time>
      </trkpt>
      <trkpt lat="43.48683" lon="6.18233">
        <ele>189</ele>
        <time>2024-03-27T14:19:11Z</time>
      </trkpt>
      <trkpt lat="43.48683" lon="6.18233">
        <ele>189</ele>
        <time>2024-03-27T14:19:12Z</time>
      </trkpt>
      <trkpt lat="43.48683" lon="6.18233">
        <ele>189</ele>
        <time>2024-03-27T14:19:13Z</time>
      </trkpt>
      <trkpt lat="43.48683" lon="6.18233">
        <ele>189</ele>
        <time>2024-03-27T14:19:14Z</time>
      </trkpt>
      <trkpt lat="43.48683" lon="6.18233">
        <ele>189</ele>
        <time>2024-03-27T14:19:15Z</time>
      </trkpt>
      <trkpt lat="43.48683" lon="6.18233">
        <ele>189.1</ele>
        <time>2024-03-27T14:19:16Z</time>
      </trkpt>
      <trkpt lat="43.48683" lon="6.18233">
        <ele>189.1</ele>
        <time>2024-03-27T14:19:17Z</time>
      </trkpt>
      <trkpt lat="43.48683" lon="6.18233">
        <ele>189.1</ele>
        <time>2024-03-27T14:19:18Z</time>
      </trkpt>
      <trkpt lat="43.48683" lon="6.18233">
        <ele>189.1</ele>
        <time>2024-03-27T14:19:19Z</time>
      </trkpt>
      <trkpt lat="43.48683" lon="6.18233">
        <ele>189.1</ele>
        <time>2024-03-27T14:19:20Z</time>
      </trkpt>
      <trkpt lat="43.48683" lon="6.18233">
        <ele>189.1</ele>
        <time>2024-03-27T14:19:21Z</time>
      </trkpt>
      <trkpt lat="43.48683" lon="6.18233">
        <ele>189.2</ele>
        <time>2024-03-27T14:19:22Z</time>
      </trkpt>
      <trkpt lat="43.48683" lon="6.18233">
        <ele>189.3</ele>
        <time>2024-03-27T14:19:23Z</time>
      </trkpt>
      <trkpt lat="43.48683" lon="6.18233">
        <ele>189.2</ele>
        <time>2024-03-27T14:19:24Z</time>
      </trkpt>
      <trkpt lat="43.48683" lon="6.18233">
        <ele>189.2</ele>
        <time>2024-03-27T14:19:25Z</time>
      </trkpt>
      <trkpt lat="43.48683" lon="6.18233">
        <ele>189.1</ele>
        <time>2024-03-27T14:19:26Z</time>
      </trkpt>
      <trkpt lat="43.48683" lon="6.18233">
        <ele>189.1</ele>
        <time>2024-03-27T14:19:27Z</time>
      </trkpt>
      <trkpt lat="43.48683" lon="6.18233">
        <ele>189.1</ele>
        <time>2024-03-27T14:19:28Z</time>
      </trkpt>
      <trkpt lat="43.48683" lon="6.18233">
        <ele>189.2</ele>
        <time>2024-03-27T14:19:29Z</time>
      </trkpt>
      <trkpt lat="43.48683" lon="6.18233">
        <ele>189.2</ele>
        <time>2024-03-27T14:19:30Z</time>
      </trkpt>
      <trkpt lat="43.48683" lon="6.18232">
        <ele>189.2</ele>
        <time>2024-03-27T14:19:31Z</time>
      </trkpt>
      <trkpt lat="43.48683" lon="6.18232">
        <ele>189.2</ele>
        <time>2024-03-27T14:19:32Z</time>
      </trkpt>
      <trkpt lat="43.48683" lon="6.18233">
        <ele>189.2</ele>
        <time>2024-03-27T14:19:33Z</time>
      </trkpt>
      <trkpt lat="43.48683" lon="6.18232">
        <ele>189.3</ele>
        <time>2024-03-27T14:19:34Z</time>
      </trkpt>
      <trkpt lat="43.48683" lon="6.18232">
        <ele>189.4</ele>
        <time>2024-03-27T14:19:35Z</time>
      </trkpt>
      <trkpt lat="43.48683" lon="6.18233">
        <ele>189.4</ele>
        <time>2024-03-27T14:19:36Z</time>
      </trkpt>
      <trkpt lat="43.48682" lon="6.18233">
        <ele>189.4</ele>
        <time>2024-03-27T14:19:37Z</time>
      </trkpt>
      <trkpt lat="43.48682" lon="6.18233">
        <ele>189.5</ele>
        <time>2024-03-27T14:19:38Z</time>
      </trkpt>
      <trkpt lat="43.48682" lon="6.18233">
        <ele>189.6</ele>
        <time>2024-03-27T14:19:39Z</time>
      </trkpt>
      <trkpt lat="43.48682" lon="6.18233">
        <ele>189.6</ele>
        <time>2024-03-27T14:19:40Z</time>
      </trkpt>
      <trkpt lat="43.48682" lon="6.18233">
        <ele>189.7</ele>
        <time>2024-03-27T14:19:41Z</time>
      </trkpt>
      <trkpt lat="43.48682" lon="6.18233">
        <ele>189.7</ele>
        <time>2024-03-27T14:19:42Z</time>
      </trkpt>
      <trkpt lat="43.48682" lon="6.18233">
        <ele>189.7</ele>
        <time>2024-03-27T14:19:43Z</time>
      </trkpt>
      <trkpt lat="43.48682" lon="6.18234">
        <ele>189.7</ele>
        <time>2024-03-27T14:19:44Z</time>
      </trkpt>
      <trkpt lat="43.48682" lon="6.18234">
        <ele>189.7</ele>
        <time>2024-03-27T14:19:45Z</time>
      </trkpt>
      <trkpt lat="43.48682" lon="6.18234">
        <ele>189.7</ele>
        <time>2024-03-27T14:19:46Z</time>
      </trkpt>
      <trkpt lat="43.48682" lon="6.18234">
        <ele>189.6</ele>
        <time>2024-03-27T14:19:47Z</time>
      </trkpt>
      <trkpt lat="43.48682" lon="6.18234">
        <ele>189.5</ele>
        <time>2024-03-27T14:19:48Z</time>
      </trkpt>
      <trkpt lat="43.48682" lon="6.18235">
        <ele>189.4</ele>
        <time>2024-03-27T14:19:49Z</time>
      </trkpt>
      <trkpt lat="43.48682" lon="6.18235">
        <ele>189.4</ele>
        <time>2024-03-27T14:19:50Z</time>
      </trkpt>
      <trkpt lat="43.48682" lon="6.18235">
        <ele>189.4</ele>
        <time>2024-03-27T14:19:51Z</time>
      </trkpt>
      <trkpt lat="43.48682" lon="6.18235">
        <ele>189.3</ele>
        <time>2024-03-27T14:19:52Z</time>
      </trkpt>
      <trkpt lat="43.48682" lon="6.18235">
        <ele>189.4</ele>
        <time>2024-03-27T14:19:53Z</time>
      </trkpt>
      <trkpt lat="43.48682" lon="6.18236">
        <ele>189.4</ele>
        <time>2024-03-27T14:19:54Z</time>
      </trkpt>
      <trkpt lat="43.48681" lon="6.18236">
        <ele>189.5</ele>
        <time>2024-03-27T14:19:55Z</time>
      </trkpt>
      <trkpt lat="43.48682" lon="6.18236">
        <ele>189.5</ele>
        <time>2024-03-27T14:19:56Z</time>
      </trkpt>
      <trkpt lat="43.48682" lon="6.18236">
        <ele>189.4</ele>
        <time>2024-03-27T14:19:57Z</time>
      </trkpt>
      <trkpt lat="43.48682" lon="6.18236">
        <ele>189.4</ele>
        <time>2024-03-27T14:19:58Z</time>
      </trkpt>
      <trkpt lat="43.48682" lon="6.18236">
        <ele>189.3</ele>
        <time>2024-03-27T14:19:59Z</time>
      </trkpt>
      <trkpt lat="43.48682" lon="6.18236">
        <ele>189.3</ele>
        <time>2024-03-27T14:20:00Z</time>
      </trkpt>
      <trkpt lat="43.48682" lon="6.18236">
        <ele>189.3</ele>
        <time>2024-03-27T14:20:01Z</time>
      </trkpt>
      <trkpt lat="43.48682" lon="6.18236">
        <ele>189.2</ele>
        <time>2024-03-27T14:20:02Z</time>
      </trkpt>
      <trkpt lat="43.48682" lon="6.18236">
        <ele>189.2</ele>
        <time>2024-03-27T14:20:03Z</time>
      </trkpt>
      <trkpt lat="43.48682" lon="6.18236">
        <ele>189.2</ele>
        <time>2024-03-27T14:20:04Z</time>
      </trkpt>
      <trkpt lat="43.48682" lon="6.18237">
        <ele>189.2</ele>
        <time>2024-03-27T14:20:05Z</time>
      </trkpt>
      <trkpt lat="43.48682" lon="6.18236">
        <ele>189.2</ele>
        <time>2024-03-27T14:20:06Z</time>
      </trkpt>
      <trkpt lat="43.48683" lon="6.18236">
        <ele>189.2</ele>
        <time>2024-03-27T14:20:07Z</time>
      </trkpt>
      <trkpt lat="43.48683" lon="6.18237">
        <ele>189.1</ele>
        <time>2024-03-27T14:20:08Z</time>
      </trkpt>
      <trkpt lat="43.48683" lon="6.18237">
        <ele>189.1</ele>
        <time>2024-03-27T14:20:09Z</time>
      </trkpt>
      <trkpt lat="43.48684" lon="6.18236">
        <ele>189.1</ele>
        <time>2024-03-27T14:20:10Z</time>
      </trkpt>
      <trkpt lat="43.48684" lon="6.18236">
        <ele>189.1</ele>
        <time>2024-03-27T14:20:11Z</time>
      </trkpt>
      <trkpt lat="43.48685" lon="6.18236">
        <ele>189.2</ele>
        <time>2024-03-27T14:20:12Z</time>
      </trkpt>
      <trkpt lat="43.48685" lon="6.18236">
        <ele>189.2</ele>
        <time>2024-03-27T14:20:13Z</time>
      </trkpt>
      <trkpt lat="43.48685" lon="6.18236">
        <ele>189.2</ele>
        <time>2024-03-27T14:20:14Z</time>
      </trkpt>
      <trkpt lat="43.48686" lon="6.18236">
        <ele>189.2</ele>
        <time>2024-03-27T14:20:15Z</time>
      </trkpt>
      <trkpt lat="43.48686" lon="6.18236">
        <ele>189.2</ele>
        <time>2024-03-27T14:20:16Z</time>
      </trkpt>
      <trkpt lat="43.48686" lon="6.18236">
        <ele>189.2</ele>
        <time>2024-03-27T14:20:17Z</time>
      </trkpt>
      <trkpt lat="43.48687" lon="6.18237">
        <ele>189.2</ele>
        <time>2024-03-27T14:20:18Z</time>
      </trkpt>
      <trkpt lat="43.48688" lon="6.18237">
        <ele>189.2</ele>
        <time>2024-03-27T14:20:19Z</time>
      </trkpt>
      <trkpt lat="43.48688" lon="6.18238">
        <ele>189.2</ele>
        <time>2024-03-27T14:20:20Z</time>
      </trkpt>
      <trkpt lat="43.48688" lon="6.18239">
        <ele>189.3</ele>
        <time>2024-03-27T14:20:21Z</time>
      </trkpt>
      <trkpt lat="43.48689" lon="6.18239">
        <ele>189.3</ele>
        <time>2024-03-27T14:20:22Z</time>
      </trkpt>
      <trkpt lat="43.4869" lon="6.18239">
        <ele>189.4</ele>
        <time>2024-03-27T14:20:23Z</time>
      </trkpt>
      <trkpt lat="43.4869" lon="6.1824">
        <ele>189.4</ele>
        <time>2024-03-27T14:20:24Z</time>
      </trkpt>
      <trkpt lat="43.48691" lon="6.1824">
        <ele>189.6</ele>
        <time>2024-03-27T14:20:25Z</time>
      </trkpt>
      <trkpt lat="43.48691" lon="6.1824">
        <ele>189.7</ele>
        <time>2024-03-27T14:20:26Z</time>
      </trkpt>
      <trkpt lat="43.48692" lon="6.18241">
        <ele>189.9</ele>
        <time>2024-03-27T14:20:27Z</time>
      </trkpt>
      <trkpt lat="43.48692" lon="6.18241">
        <ele>189.9</ele>
        <time>2024-03-27T14:20:28Z</time>
      </trkpt>
      <trkpt lat="43.48693" lon="6.18241">
        <ele>189.9</ele>
        <time>2024-03-27T14:20:29Z</time>
      </trkpt>
      <trkpt lat="43.48694" lon="6.18242">
        <ele>189.9</ele>
        <time>2024-03-27T14:20:30Z</time>
      </trkpt>
      <trkpt lat="43.48694" lon="6.18242">
        <ele>190</ele>
        <time>2024-03-27T14:20:31Z</time>
      </trkpt>
      <trkpt lat="43.48695" lon="6.18242">
        <ele>190.1</ele>
        <time>2024-03-27T14:20:32Z</time>
      </trkpt>
      <trkpt lat="43.48695" lon="6.18241">
        <ele>190.2</ele>
        <time>2024-03-27T14:20:33Z</time>
      </trkpt>
      <trkpt lat="43.48696" lon="6.18241">
        <ele>190.3</ele>
        <time>2024-03-27T14:20:34Z</time>
      </trkpt>
      <trkpt lat="43.48697" lon="6.1824">
        <ele>190.3</ele>
        <time>2024-03-27T14:20:35Z</time>
      </trkpt>
      <trkpt lat="43.48697" lon="6.18239">
        <ele>190.4</ele>
        <time>2024-03-27T14:20:36Z</time>
      </trkpt>
      <trkpt lat="43.48698" lon="6.18239">
        <ele>190.4</ele>
        <time>2024-03-27T14:20:37Z</time>
      </trkpt>
      <trkpt lat="43.48698" lon="6.18238">
        <ele>190.5</ele>
        <time>2024-03-27T14:20:38Z</time>
      </trkpt>
      <trkpt lat="43.48699" lon="6.18238">
        <ele>190.6</ele>
        <time>2024-03-27T14:20:39Z</time>
      </trkpt>
      <trkpt lat="43.48699" lon="6.18237">
        <ele>190.7</ele>
        <time>2024-03-27T14:20:40Z</time>
      </trkpt>
      <trkpt lat="43.487" lon="6.18236">
        <ele>190.7</ele>
        <time>2024-03-27T14:20:41Z</time>
      </trkpt>
      <trkpt lat="43.487" lon="6.18236">
        <ele>190.8</ele>
        <time>2024-03-27T14:20:42Z</time>
      </trkpt>
      <trkpt lat="43.487" lon="6.18235">
        <ele>190.9</ele>
        <time>2024-03-27T14:20:43Z</time>
      </trkpt>
      <trkpt lat="43.48701" lon="6.18233">
        <ele>191</ele>
        <time>2024-03-27T14:20:44Z</time>
      </trkpt>
      <trkpt lat="43.48701" lon="6.18232">
        <ele>191</ele>
        <time>2024-03-27T14:20:45Z</time>
      </trkpt>
      <trkpt lat="43.48702" lon="6.18231">
        <ele>191.1</ele>
        <time>2024-03-27T14:20:46Z</time>
      </trkpt>
      <trkpt lat="43.48702" lon="6.18231">
        <ele>191.2</ele>
        <time>2024-03-27T14:20:47Z</time>
      </trkpt>
      <trkpt lat="43.48703" lon="6.18229">
        <ele>191.2</ele>
        <time>2024-03-27T14:20:48Z</time>
      </trkpt>
      <trkpt lat="43.48703" lon="6.18229">
        <ele>191.3</ele>
        <time>2024-03-27T14:20:49Z</time>
      </trkpt>
      <trkpt lat="43.48703" lon="6.18228">
        <ele>191.3</ele>
        <time>2024-03-27T14:20:50Z</time>
      </trkpt>
      <trkpt lat="43.48704" lon="6.18227">
        <ele>191.4</ele>
        <time>2024-03-27T14:20:51Z</time>
      </trkpt>
      <trkpt lat="43.48704" lon="6.18227">
        <ele>191.4</ele>
        <time>2024-03-27T14:20:52Z</time>
      </trkpt>
      <trkpt lat="43.48704" lon="6.18227">
        <ele>191.6</ele>
        <time>2024-03-27T14:20:53Z</time>
      </trkpt>
      <trkpt lat="43.48705" lon="6.18226">
        <ele>191.7</ele>
        <time>2024-03-27T14:20:54Z</time>
      </trkpt>
      <trkpt lat="43.48705" lon="6.18225">
        <ele>191.8</ele>
        <time>2024-03-27T14:20:55Z</time>
      </trkpt>
      <trkpt lat="43.48705" lon="6.18224">
        <ele>191.9</ele>
        <time>2024-03-27T14:20:56Z</time>
      </trkpt>
      <trkpt lat="43.48705" lon="6.18224">
        <ele>191.9</ele>
        <time>2024-03-27T14:20:57Z</time>
      </trkpt>
      <trkpt lat="43.48706" lon="6.18224">
        <ele>191.9</ele>
        <time>2024-03-27T14:20:58Z</time>
      </trkpt>
      <trkpt lat="43.48706" lon="6.18224">
        <ele>191.9</ele>
        <time>2024-03-27T14:20:59Z</time>
      </trkpt>
      <trkpt lat="43.48706" lon="6.18224">
        <ele>191.9</ele>
        <time>2024-03-27T14:21:00Z</time>
      </trkpt>
      <trkpt lat="43.48707" lon="6.18224">
        <ele>192</ele>
        <time>2024-03-27T14:21:01Z</time>
      </trkpt>
      <trkpt lat="43.48707" lon="6.18223">
        <ele>192.1</ele>
        <time>2024-03-27T14:21:02Z</time>
      </trkpt>
      <trkpt lat="43.48707" lon="6.18223">
        <ele>192.2</ele>
        <time>2024-03-27T14:21:03Z</time>
      </trkpt>
      <trkpt lat="43.48707" lon="6.18223">
        <ele>192.2</ele>
        <time>2024-03-27T14:21:04Z</time>
      </trkpt>
      <trkpt lat="43.48707" lon="6.18222">
        <ele>192.3</ele>
        <time>2024-03-27T14:21:05Z</time>
      </trkpt>
      <trkpt lat="43.48707" lon="6.18222">
        <ele>192.3</ele>
        <time>2024-03-27T14:21:06Z</time>
      </trkpt>
      <trkpt lat="43.48708" lon="6.18222">
        <ele>192.3</ele>
        <time>2024-03-27T14:21:07Z</time>
      </trkpt>
      <trkpt lat="43.48708" lon="6.18221">
        <ele>192.3</ele>
        <time>2024-03-27T14:21:08Z</time>
      </trkpt>
      <trkpt lat="43.48709" lon="6.1822">
        <ele>192.3</ele>
        <time>2024-03-27T14:21:09Z</time>
      </trkpt>
      <trkpt lat="43.48709" lon="6.18219">
        <ele>192.3</ele>
        <time>2024-03-27T14:21:10Z</time>
      </trkpt>
      <trkpt lat="43.48709" lon="6.18219">
        <ele>192.3</ele>
        <time>2024-03-27T14:21:11Z</time>
      </trkpt>
      <trkpt lat="43.4871" lon="6.18218">
        <ele>192.4</ele>
        <time>2024-03-27T14:21:12Z</time>
      </trkpt>
      <trkpt lat="43.4871" lon="6.18217">
        <ele>192.5</ele>
        <time>2024-03-27T14:21:13Z</time>
      </trkpt>
      <trkpt lat="43.48711" lon="6.18217">
        <ele>192.6</ele>
        <time>2024-03-27T14:21:14Z</time>
      </trkpt>
      <trkpt lat="43.48711" lon="6.18216">
        <ele>192.7</ele>
        <time>2024-03-27T14:21:15Z</time>
      </trkpt>
      <trkpt lat="43.48711" lon="6.18216">
        <ele>192.7</ele>
        <time>2024-03-27T14:21:16Z</time>
      </trkpt>
      <trkpt lat="43.48711" lon="6.18216">
        <ele>192.8</ele>
        <time>2024-03-27T14:21:17Z</time>
      </trkpt>
      <trkpt lat="43.48711" lon="6.18215">
        <ele>192.8</ele>
        <time>2024-03-27T14:21:18Z</time>
      </trkpt>
      <trkpt lat="43.4871" lon="6.18215">
        <ele>192.8</ele>
        <time>2024-03-27T14:21:19Z</time>
      </trkpt>
      <trkpt lat="43.48711" lon="6.18215">
        <ele>192.7</ele>
        <time>2024-03-27T14:21:20Z</time>
      </trkpt>
      <trkpt lat="43.4871" lon="6.18215">
        <ele>192.7</ele>
        <time>2024-03-27T14:21:21Z</time>
      </trkpt>
      <trkpt lat="43.4871" lon="6.18215">
        <ele>192.7</ele>
        <time>2024-03-27T14:21:22Z</time>
      </trkpt>
      <trkpt lat="43.4871" lon="6.18215">
        <ele>192.7</ele>
        <time>2024-03-27T14:21:23Z</time>
      </trkpt>
      <trkpt lat="43.4871" lon="6.18214">
        <ele>192.6</ele>
        <time>2024-03-27T14:21:24Z</time>
      </trkpt>
      <trkpt lat="43.4871" lon="6.18214">
        <ele>192.6</ele>
        <time>2024-03-27T14:21:25Z</time>
      </trkpt>
      <trkpt lat="43.4871" lon="6.18214">
        <ele>192.6</ele>
        <time>2024-03-27T14:21:26Z</time>
      </trkpt>
      <trkpt lat="43.4871" lon="6.18214">
        <ele>192.6</ele>
        <time>2024-03-27T14:21:27Z</time>
      </trkpt>
      <trkpt lat="43.4871" lon="6.18213">
        <ele>192.6</ele>
        <time>2024-03-27T14:21:28Z</time>
      </trkpt>
      <trkpt lat="43.4871" lon="6.18213">
        <ele>192.6</ele>
        <time>2024-03-27T14:21:29Z</time>
      </trkpt>
      <trkpt lat="43.48711" lon="6.18213">
        <ele>192.6</ele>
        <time>2024-03-27T14:21:30Z</time>
      </trkpt>
      <trkpt lat="43.48711" lon="6.18212">
        <ele>192.6</ele>
        <time>2024-03-27T14:21:31Z</time>
      </trkpt>
      <trkpt lat="43.48712" lon="6.18211">
        <ele>192.5</ele>
        <time>2024-03-27T14:21:32Z</time>
      </trkpt>
      <trkpt lat="43.48712" lon="6.1821">
        <ele>192.6</ele>
        <time>2024-03-27T14:21:33Z</time>
      </trkpt>
      <trkpt lat="43.48712" lon="6.18209">
        <ele>192.7</ele>
        <time>2024-03-27T14:21:34Z</time>
      </trkpt>
      <trkpt lat="43.48713" lon="6.18208">
        <ele>192.8</ele>
        <time>2024-03-27T14:21:35Z</time>
      </trkpt>
      <trkpt lat="43.48713" lon="6.18207">
        <ele>193</ele>
        <time>2024-03-27T14:21:36Z</time>
      </trkpt>
      <trkpt lat="43.48713" lon="6.18206">
        <ele>193</ele>
        <time>2024-03-27T14:21:37Z</time>
      </trkpt>
      <trkpt lat="43.48713" lon="6.18204">
        <ele>193.1</ele>
        <time>2024-03-27T14:21:38Z</time>
      </trkpt>
      <trkpt lat="43.48713" lon="6.18203">
        <ele>193.1</ele>
        <time>2024-03-27T14:21:39Z</time>
      </trkpt>
      <trkpt lat="43.48714" lon="6.18202">
        <ele>193</ele>
        <time>2024-03-27T14:21:40Z</time>
      </trkpt>
      <trkpt lat="43.48714" lon="6.18201">
        <ele>193</ele>
        <time>2024-03-27T14:21:41Z</time>
      </trkpt>
      <trkpt lat="43.48714" lon="6.182">
        <ele>193.1</ele>
        <time>2024-03-27T14:21:42Z</time>
      </trkpt>
      <trkpt lat="43.48714" lon="6.18198">
        <ele>193.2</ele>
        <time>2024-03-27T14:21:43Z</time>
      </trkpt>
      <trkpt lat="43.48714" lon="6.18197">
        <ele>193.2</ele>
        <time>2024-03-27T14:21:44Z</time>
      </trkpt>
      <trkpt lat="43.48714" lon="6.18196">
        <ele>193.2</ele>
        <time>2024-03-27T14:21:45Z</time>
      </trkpt>
      <trkpt lat="43.48713" lon="6.18195">
        <ele>193.2</ele>
        <time>2024-03-27T14:21:46Z</time>
      </trkpt>
      <trkpt lat="43.48713" lon="6.18194">
        <ele>193.2</ele>
        <time>2024-03-27T14:21:47Z</time>
      </trkpt>
      <trkpt lat="43.48713" lon="6.18193">
        <ele>193.2</ele>
        <time>2024-03-27T14:21:48Z</time>
      </trkpt>
      <trkpt lat="43.48713" lon="6.18193">
        <ele>193.2</ele>
        <time>2024-03-27T14:21:49Z</time>
      </trkpt>
      <trkpt lat="43.48713" lon="6.18193">
        <ele>193.2</ele>
        <time>2024-03-27T14:21:50Z</time>
      </trkpt>
      <trkpt lat="43.48713" lon="6.18191">
        <ele>193.3</ele>
        <time>2024-03-27T14:21:51Z</time>
      </trkpt>
      <trkpt lat="43.48713" lon="6.1819">
        <ele>193.4</ele>
        <time>2024-03-27T14:21:52Z</time>
      </trkpt>
      <trkpt lat="43.48713" lon="6.18189">
        <ele>193.4</ele>
        <time>2024-03-27T14:21:53Z</time>
      </trkpt>
      <trkpt lat="43.48713" lon="6.18188">
        <ele>193.5</ele>
        <time>2024-03-27T14:21:54Z</time>
      </trkpt>
      <trkpt lat="43.48712" lon="6.18186">
        <ele>193.6</ele>
        <time>2024-03-27T14:21:55Z</time>
      </trkpt>
      <trkpt lat="43.48712" lon="6.18185">
        <ele>193.6</ele>
        <time>2024-03-27T14:21:56Z</time>
      </trkpt>
      <trkpt lat="43.48712" lon="6.18184">
        <ele>193.6</ele>
        <time>2024-03-27T14:21:57Z</time>
      </trkpt>
      <trkpt lat="43.48712" lon="6.18182">
        <ele>193.7</ele>
        <time>2024-03-27T14:21:58Z</time>
      </trkpt>
      <trkpt lat="43.48712" lon="6.18181">
        <ele>193.7</ele>
        <time>2024-03-27T14:21:59Z</time>
      </trkpt>
      <trkpt lat="43.48713" lon="6.1818">
        <ele>193.7</ele>
        <time>2024-03-27T14:22:00Z</time>
      </trkpt>
      <trkpt lat="43.48713" lon="6.18179">
        <ele>193.7</ele>
        <time>2024-03-27T14:22:01Z</time>
      </trkpt>
      <trkpt lat="43.48714" lon="6.18178">
        <ele>193.7</ele>
        <time>2024-03-27T14:22:02Z</time>
      </trkpt>
      <trkpt lat="43.48715" lon="6.18177">
        <ele>193.7</ele>
        <time>2024-03-27T14:22:03Z</time>
      </trkpt>
      <trkpt lat="43.48715" lon="6.18177">
        <ele>193.6</ele>
        <time>2024-03-27T14:22:04Z</time>
      </trkpt>
      <trkpt lat="43.48716" lon="6.18176">
        <ele>193.6</ele>
        <time>2024-03-27T14:22:05Z</time>
      </trkpt>
      <trkpt lat="43.48717" lon="6.18175">
        <ele>193.7</ele>
        <time>2024-03-27T14:22:06Z</time>
      </trkpt>
      <trkpt lat="43.48717" lon="6.18174">
        <ele>193.7</ele>
        <time>2024-03-27T14:22:07Z</time>
      </trkpt>
      <trkpt lat="43.48717" lon="6.18174">
        <ele>193.8</ele>
        <time>2024-03-27T14:22:08Z</time>
      </trkpt>
      <trkpt lat="43.48717" lon="6.18173">
        <ele>194</ele>
        <time>2024-03-27T14:22:09Z</time>
      </trkpt>
      <trkpt lat="43.48718" lon="6.18172">
        <ele>194.1</ele>
        <time>2024-03-27T14:22:10Z</time>
      </trkpt>
      <trkpt lat="43.48717" lon="6.18171">
        <ele>194.3</ele>
        <time>2024-03-27T14:22:11Z</time>
      </trkpt>
      <trkpt lat="43.48718" lon="6.1817">
        <ele>194.4</ele>
        <time>2024-03-27T14:22:12Z</time>
      </trkpt>
      <trkpt lat="43.48717" lon="6.18169">
        <ele>194.5</ele>
        <time>2024-03-27T14:22:13Z</time>
      </trkpt>
      <trkpt lat="43.48717" lon="6.18167">
        <ele>194.6</ele>
        <time>2024-03-27T14:22:14Z</time>
      </trkpt>
      <trkpt lat="43.48717" lon="6.18166">
        <ele>194.6</ele>
        <time>2024-03-27T14:22:15Z</time>
      </trkpt>
      <trkpt lat="43.48717" lon="6.18165">
        <ele>194.7</ele>
        <time>2024-03-27T14:22:16Z</time>
      </trkpt>
      <trkpt lat="43.48717" lon="6.18164">
        <ele>194.7</ele>
        <time>2024-03-27T14:22:17Z</time>
      </trkpt>
      <trkpt lat="43.48716" lon="6.18163">
        <ele>194.9</ele>
        <time>2024-03-27T14:22:18Z</time>
      </trkpt>
      <trkpt lat="43.48717" lon="6.18162">
        <ele>194.8</ele>
        <time>2024-03-27T14:22:19Z</time>
      </trkpt>
      <trkpt lat="43.48717" lon="6.18161">
        <ele>194.9</ele>
        <time>2024-03-27T14:22:20Z</time>
      </trkpt>
      <trkpt lat="43.48717" lon="6.1816">
        <ele>194.9</ele>
        <time>2024-03-27T14:22:21Z</time>
      </trkpt>
      <trkpt lat="43.48717" lon="6.18159">
        <ele>194.9</ele>
        <time>2024-03-27T14:22:22Z</time>
      </trkpt>
      <trkpt lat="43.48717" lon="6.18158">
        <ele>194.8</ele>
        <time>2024-03-27T14:22:23Z</time>
      </trkpt>
      <trkpt lat="43.48718" lon="6.18157">
        <ele>194.8</ele>
        <time>2024-03-27T14:22:24Z</time>
      </trkpt>
      <trkpt lat="43.48718" lon="6.18156">
        <ele>194.8</ele>
        <time>2024-03-27T14:22:25Z</time>
      </trkpt>
      <trkpt lat="43.48717" lon="6.18154">
        <ele>194.8</ele>
        <time>2024-03-27T14:22:26Z</time>
      </trkpt>
      <trkpt lat="43.48717" lon="6.18153">
        <ele>194.9</ele>
        <time>2024-03-27T14:22:27Z</time>
      </trkpt>
      <trkpt lat="43.48717" lon="6.18151">
        <ele>194.9</ele>
        <time>2024-03-27T14:22:28Z</time>
      </trkpt>
      <trkpt lat="43.48716" lon="6.1815">
        <ele>194.9</ele>
        <time>2024-03-27T14:22:29Z</time>
      </trkpt>
      <trkpt lat="43.48716" lon="6.18148">
        <ele>194.9</ele>
        <time>2024-03-27T14:22:30Z</time>
      </trkpt>
      <trkpt lat="43.48716" lon="6.18147">
        <ele>194.9</ele>
        <time>2024-03-27T14:22:31Z</time>
      </trkpt>
      <trkpt lat="43.48715" lon="6.18146">
        <ele>194.9</ele>
        <time>2024-03-27T14:22:32Z</time>
      </trkpt>
      <trkpt lat="43.48715" lon="6.18144">
        <ele>194.9</ele>
        <time>2024-03-27T14:22:33Z</time>
      </trkpt>
      <trkpt lat="43.48714" lon="6.18143">
        <ele>194.9</ele>
        <time>2024-03-27T14:22:34Z</time>
      </trkpt>
      <trkpt lat="43.48714" lon="6.18142">
        <ele>194.8</ele>
        <time>2024-03-27T14:22:35Z</time>
      </trkpt>
      <trkpt lat="43.48714" lon="6.18141">
        <ele>194.8</ele>
        <time>2024-03-27T14:22:36Z</time>
      </trkpt>
      <trkpt lat="43.48713" lon="6.18139">
        <ele>194.8</ele>
        <time>2024-03-27T14:22:37Z</time>
      </trkpt>
      <trkpt lat="43.48714" lon="6.18138">
        <ele>194.9</ele>
        <time>2024-03-27T14:22:38Z</time>
      </trkpt>
      <trkpt lat="43.48714" lon="6.18137">
        <ele>194.9</ele>
        <time>2024-03-27T14:22:39Z</time>
      </trkpt>
      <trkpt lat="43.48714" lon="6.18136">
        <ele>195.1</ele>
        <time>2024-03-27T14:22:40Z</time>
      </trkpt>
      <trkpt lat="43.48715" lon="6.18135">
        <ele>195.1</ele>
        <time>2024-03-27T14:22:41Z</time>
      </trkpt>
      <trkpt lat="43.48715" lon="6.18134">
        <ele>195.2</ele>
        <time>2024-03-27T14:22:42Z</time>
      </trkpt>
      <trkpt lat="43.48716" lon="6.18133">
        <ele>195.3</ele>
        <time>2024-03-27T14:22:43Z</time>
      </trkpt>
      <trkpt lat="43.48716" lon="6.18132">
        <ele>195.4</ele>
        <time>2024-03-27T14:22:44Z</time>
      </trkpt>
      <trkpt lat="43.48716" lon="6.1813">
        <ele>195.4</ele>
        <time>2024-03-27T14:22:45Z</time>
      </trkpt>
      <trkpt lat="43.48717" lon="6.18129">
        <ele>195.5</ele>
        <time>2024-03-27T14:22:46Z</time>
      </trkpt>
      <trkpt lat="43.48716" lon="6.18129">
        <ele>195.4</ele>
        <time>2024-03-27T14:22:47Z</time>
      </trkpt>
      <trkpt lat="43.48717" lon="6.18127">
        <ele>195.4</ele>
        <time>2024-03-27T14:22:48Z</time>
      </trkpt>
      <trkpt lat="43.48717" lon="6.18126">
        <ele>195.4</ele>
        <time>2024-03-27T14:22:49Z</time>
      </trkpt>
      <trkpt lat="43.48717" lon="6.18125">
        <ele>195.4</ele>
        <time>2024-03-27T14:22:50Z</time>
      </trkpt>
      <trkpt lat="43.48717" lon="6.18124">
        <ele>195.5</ele>
        <time>2024-03-27T14:22:51Z</time>
      </trkpt>
      <trkpt lat="43.48717" lon="6.18123">
        <ele>195.6</ele>
        <time>2024-03-27T14:22:52Z</time>
      </trkpt>
      <trkpt lat="43.48717" lon="6.18121">
        <ele>195.6</ele>
        <time>2024-03-27T14:22:53Z</time>
      </trkpt>
      <trkpt lat="43.48718" lon="6.18119">
        <ele>195.7</ele>
        <time>2024-03-27T14:22:54Z</time>
      </trkpt>
      <trkpt lat="43.48718" lon="6.18118">
        <ele>195.8</ele>
        <time>2024-03-27T14:22:55Z</time>
      </trkpt>
      <trkpt lat="43.48718" lon="6.18117">
        <ele>195.9</ele>
        <time>2024-03-27T14:22:56Z</time>
      </trkpt>
      <trkpt lat="43.48719" lon="6.18115">
        <ele>195.9</ele>
        <time>2024-03-27T14:22:57Z</time>
      </trkpt>
      <trkpt lat="43.48719" lon="6.18114">
        <ele>195.8</ele>
        <time>2024-03-27T14:22:58Z</time>
      </trkpt>
      <trkpt lat="43.48718" lon="6.18112">
        <ele>195.9</ele>
        <time>2024-03-27T14:22:59Z</time>
      </trkpt>
      <trkpt lat="43.48718" lon="6.18111">
        <ele>196</ele>
        <time>2024-03-27T14:23:00Z</time>
      </trkpt>
      <trkpt lat="43.48718" lon="6.18109">
        <ele>196.1</ele>
        <time>2024-03-27T14:23:01Z</time>
      </trkpt>
      <trkpt lat="43.48718" lon="6.18108">
        <ele>196.2</ele>
        <time>2024-03-27T14:23:02Z</time>
      </trkpt>
      <trkpt lat="43.48717" lon="6.18107">
        <ele>196.2</ele>
        <time>2024-03-27T14:23:03Z</time>
      </trkpt>
      <trkpt lat="43.48717" lon="6.18105">
        <ele>196.2</ele>
        <time>2024-03-27T14:23:04Z</time>
      </trkpt>
      <trkpt lat="43.48717" lon="6.18104">
        <ele>196.2</ele>
        <time>2024-03-27T14:23:05Z</time>
      </trkpt>
      <trkpt lat="43.48717" lon="6.18102">
        <ele>196.2</ele>
        <time>2024-03-27T14:23:06Z</time>
      </trkpt>
      <trkpt lat="43.48717" lon="6.18101">
        <ele>196.1</ele>
        <time>2024-03-27T14:23:07Z</time>
      </trkpt>
      <trkpt lat="43.48717" lon="6.18099">
        <ele>196.1</ele>
        <time>2024-03-27T14:23:08Z</time>
      </trkpt>
      <trkpt lat="43.48717" lon="6.18098">
        <ele>196.1</ele>
        <time>2024-03-27T14:23:09Z</time>
      </trkpt>
      <trkpt lat="43.48716" lon="6.18097">
        <ele>196</ele>
        <time>2024-03-27T14:23:10Z</time>
      </trkpt>
      <trkpt lat="43.48716" lon="6.18095">
        <ele>195.9</ele>
        <time>2024-03-27T14:23:11Z</time>
      </trkpt>
      <trkpt lat="43.48716" lon="6.18094">
        <ele>195.8</ele>
        <time>2024-03-27T14:23:12Z</time>
      </trkpt>
      <trkpt lat="43.48717" lon="6.18092">
        <ele>195.8</ele>
        <time>2024-03-27T14:23:13Z</time>
      </trkpt>
      <trkpt lat="43.48717" lon="6.18092">
        <ele>195.8</ele>
        <time>2024-03-27T14:23:14Z</time>
      </trkpt>
      <trkpt lat="43.48718" lon="6.18091">
        <ele>195.8</ele>
        <time>2024-03-27T14:23:15Z</time>
      </trkpt>
      <trkpt lat="43.48719" lon="6.1809">
        <ele>195.8</ele>
        <time>2024-03-27T14:23:16Z</time>
      </trkpt>
      <trkpt lat="43.48719" lon="6.18088">
        <ele>195.9</ele>
        <time>2024-03-27T14:23:17Z</time>
      </trkpt>
      <trkpt lat="43.4872" lon="6.18087">
        <ele>195.9</ele>
        <time>2024-03-27T14:23:18Z</time>
      </trkpt>
      <trkpt lat="43.4872" lon="6.18086">
        <ele>196</ele>
        <time>2024-03-27T14:23:19Z</time>
      </trkpt>
      <trkpt lat="43.4872" lon="6.18085">
        <ele>196.2</ele>
        <time>2024-03-27T14:23:20Z</time>
      </trkpt>
      <trkpt lat="43.48721" lon="6.18084">
        <ele>196.3</ele>
        <time>2024-03-27T14:23:21Z</time>
      </trkpt>
      <trkpt lat="43.48721" lon="6.18083">
        <ele>196.5</ele>
        <time>2024-03-27T14:23:22Z</time>
      </trkpt>
      <trkpt lat="43.48721" lon="6.18082">
        <ele>196.6</ele>
        <time>2024-03-27T14:23:23Z</time>
      </trkpt>
      <trkpt lat="43.48721" lon="6.1808">
        <ele>196.7</ele>
        <time>2024-03-27T14:23:24Z</time>
      </trkpt>
      <trkpt lat="43.48721" lon="6.18079">
        <ele>196.8</ele>
        <time>2024-03-27T14:23:25Z</time>
      </trkpt>
      <trkpt lat="43.4872" lon="6.18077">
        <ele>196.8</ele>
        <time>2024-03-27T14:23:26Z</time>
      </trkpt>
      <trkpt lat="43.4872" lon="6.18076">
        <ele>196.8</ele>
        <time>2024-03-27T14:23:27Z</time>
      </trkpt>
      <trkpt lat="43.4872" lon="6.18075">
        <ele>196.7</ele>
        <time>2024-03-27T14:23:28Z</time>
      </trkpt>
      <trkpt lat="43.4872" lon="6.18074">
        <ele>196.6</ele>
        <time>2024-03-27T14:23:29Z</time>
      </trkpt>
      <trkpt lat="43.48719" lon="6.18073">
        <ele>196.6</ele>
        <time>2024-03-27T14:23:30Z</time>
      </trkpt>
      <trkpt lat="43.4872" lon="6.18071">
        <ele>196.5</ele>
        <time>2024-03-27T14:23:31Z</time>
      </trkpt>
      <trkpt lat="43.4872" lon="6.1807">
        <ele>196.6</ele>
        <time>2024-03-27T14:23:32Z</time>
      </trkpt>
      <trkpt lat="43.4872" lon="6.18069">
        <ele>196.6</ele>
        <time>2024-03-27T14:23:33Z</time>
      </trkpt>
      <trkpt lat="43.4872" lon="6.18067">
        <ele>196.5</ele>
        <time>2024-03-27T14:23:34Z</time>
      </trkpt>
      <trkpt lat="43.4872" lon="6.18066">
        <ele>196.4</ele>
        <time>2024-03-27T14:23:35Z</time>
      </trkpt>
      <trkpt lat="43.4872" lon="6.18065">
        <ele>196.3</ele>
        <time>2024-03-27T14:23:36Z</time>
      </trkpt>
      <trkpt lat="43.48719" lon="6.18065">
        <ele>196.3</ele>
        <time>2024-03-27T14:23:37Z</time>
      </trkpt>
      <trkpt lat="43.48719" lon="6.18064">
        <ele>196.3</ele>
        <time>2024-03-27T14:23:38Z</time>
      </trkpt>
      <trkpt lat="43.48718" lon="6.18062">
        <ele>196.2</ele>
        <time>2024-03-27T14:23:39Z</time>
      </trkpt>
      <trkpt lat="43.48718" lon="6.18061">
        <ele>196.2</ele>
        <time>2024-03-27T14:23:40Z</time>
      </trkpt>
      <trkpt lat="43.48718" lon="6.1806">
        <ele>196.2</ele>
        <time>2024-03-27T14:23:41Z</time>
      </trkpt>
      <trkpt lat="43.48719" lon="6.18058">
        <ele>196.2</ele>
        <time>2024-03-27T14:23:42Z</time>
      </trkpt>
      <trkpt lat="43.48719" lon="6.18057">
        <ele>196.2</ele>
        <time>2024-03-27T14:23:43Z</time>
      </trkpt>
      <trkpt lat="43.48719" lon="6.18056">
        <ele>196.1</ele>
        <time>2024-03-27T14:23:44Z</time>
      </trkpt>
      <trkpt lat="43.48719" lon="6.18056">
        <ele>196.1</ele>
        <time>2024-03-27T14:23:45Z</time>
      </trkpt>
      <trkpt lat="43.48719" lon="6.18055">
        <ele>196.1</ele>
        <time>2024-03-27T14:23:46Z</time>
      </trkpt>
      <trkpt lat="43.48719" lon="6.18055">
        <ele>196.1</ele>
        <time>2024-03-27T14:23:47Z</time>
      </trkpt>
      <trkpt lat="43.48718" lon="6.18055">
        <ele>196.1</ele>
        <time>2024-03-27T14:23:48Z</time>
      </trkpt>
      <trkpt lat="43.48718" lon="6.18055">
        <ele>196.1</ele>
        <time>2024-03-27T14:23:49Z</time>
      </trkpt>
      <trkpt lat="43.48718" lon="6.18055">
        <ele>196.1</ele>
        <time>2024-03-27T14:23:50Z</time>
      </trkpt>
      <trkpt lat="43.48719" lon="6.18055">
        <ele>196.1</ele>
        <time>2024-03-27T14:23:51Z</time>
      </trkpt>
      <trkpt lat="43.48719" lon="6.18054">
        <ele>196.1</ele>
        <time>2024-03-27T14:23:52Z</time>
      </trkpt>
      <trkpt lat="43.4872" lon="6.18054">
        <ele>196.2</ele>
        <time>2024-03-27T14:23:53Z</time>
      </trkpt>
      <trkpt lat="43.4872" lon="6.18053">
        <ele>196.3</ele>
        <time>2024-03-27T14:23:54Z</time>
      </trkpt>
      <trkpt lat="43.4872" lon="6.18052">
        <ele>196.3</ele>
        <time>2024-03-27T14:23:55Z</time>
      </trkpt>
      <trkpt lat="43.48721" lon="6.18051">
        <ele>196.4</ele>
        <time>2024-03-27T14:23:56Z</time>
      </trkpt>
      <trkpt lat="43.48721" lon="6.1805">
        <ele>196.4</ele>
        <time>2024-03-27T14:23:57Z</time>
      </trkpt>
      <trkpt lat="43.48722" lon="6.18049">
        <ele>196.4</ele>
        <time>2024-03-27T14:23:58Z</time>
      </trkpt>
      <trkpt lat="43.48722" lon="6.18048">
        <ele>196.6</ele>
        <time>2024-03-27T14:23:59Z</time>
      </trkpt>
      <trkpt lat="43.48723" lon="6.18047">
        <ele>196.7</ele>
        <time>2024-03-27T14:24:00Z</time>
      </trkpt>
      <trkpt lat="43.48723" lon="6.18046">
        <ele>196.8</ele>
        <time>2024-03-27T14:24:01Z</time>
      </trkpt>
      <trkpt lat="43.48724" lon="6.18044">
        <ele>196.9</ele>
        <time>2024-03-27T14:24:02Z</time>
      </trkpt>
      <trkpt lat="43.48724" lon="6.18043">
        <ele>197.1</ele>
        <time>2024-03-27T14:24:03Z</time>
      </trkpt>
      <trkpt lat="43.48725" lon="6.18042">
        <ele>197.1</ele>
        <time>2024-03-27T14:24:04Z</time>
      </trkpt>
      <trkpt lat="43.48725" lon="6.18041">
        <ele>197</ele>
        <time>2024-03-27T14:24:05Z</time>
      </trkpt>
      <trkpt lat="43.48725" lon="6.18039">
        <ele>197</ele>
        <time>2024-03-27T14:24:06Z</time>
      </trkpt>
      <trkpt lat="43.48725" lon="6.18038">
        <ele>197</ele>
        <time>2024-03-27T14:24:07Z</time>
      </trkpt>
      <trkpt lat="43.48725" lon="6.18037">
        <ele>197</ele>
        <time>2024-03-27T14:24:08Z</time>
      </trkpt>
      <trkpt lat="43.48725" lon="6.18036">
        <ele>197</ele>
        <time>2024-03-27T14:24:09Z</time>
      </trkpt>
      <trkpt lat="43.48725" lon="6.18035">
        <ele>197</ele>
        <time>2024-03-27T14:24:10Z</time>
      </trkpt>
      <trkpt lat="43.48725" lon="6.18033">
        <ele>196.9</ele>
        <time>2024-03-27T14:24:11Z</time>
      </trkpt>
      <trkpt lat="43.48726" lon="6.18032">
        <ele>196.9</ele>
        <time>2024-03-27T14:24:12Z</time>
      </trkpt>
      <trkpt lat="43.48726" lon="6.18031">
        <ele>196.8</ele>
        <time>2024-03-27T14:24:13Z</time>
      </trkpt>
      <trkpt lat="43.48726" lon="6.18029">
        <ele>196.9</ele>
        <time>2024-03-27T14:24:14Z</time>
      </trkpt>
      <trkpt lat="43.48725" lon="6.18027">
        <ele>197</ele>
        <time>2024-03-27T14:24:15Z</time>
      </trkpt>
      <trkpt lat="43.48725" lon="6.18026">
        <ele>197</ele>
        <time>2024-03-27T14:24:16Z</time>
      </trkpt>
      <trkpt lat="43.48724" lon="6.18024">
        <ele>197</ele>
        <time>2024-03-27T14:24:17Z</time>
      </trkpt>
      <trkpt lat="43.48724" lon="6.18023">
        <ele>197</ele>
        <time>2024-03-27T14:24:18Z</time>
      </trkpt>
      <trkpt lat="43.48724" lon="6.18022">
        <ele>197.1</ele>
        <time>2024-03-27T14:24:19Z</time>
      </trkpt>
      <trkpt lat="43.48724" lon="6.1802">
        <ele>197.1</ele>
        <time>2024-03-27T14:24:20Z</time>
      </trkpt>
      <trkpt lat="43.48724" lon="6.18019">
        <ele>197.1</ele>
        <time>2024-03-27T14:24:21Z</time>
      </trkpt>
      <trkpt lat="43.48724" lon="6.18017">
        <ele>197.1</ele>
        <time>2024-03-27T14:24:22Z</time>
      </trkpt>
      <trkpt lat="43.48724" lon="6.18016">
        <ele>197.1</ele>
        <time>2024-03-27T14:24:23Z</time>
      </trkpt>
      <trkpt lat="43.48724" lon="6.18014">
        <ele>197</ele>
        <time>2024-03-27T14:24:24Z</time>
      </trkpt>
      <trkpt lat="43.48724" lon="6.18013">
        <ele>197</ele>
        <time>2024-03-27T14:24:25Z</time>
      </trkpt>
      <trkpt lat="43.48724" lon="6.18011">
        <ele>197</ele>
        <time>2024-03-27T14:24:26Z</time>
      </trkpt>
      <trkpt lat="43.48724" lon="6.1801">
        <ele>197.1</ele>
        <time>2024-03-27T14:24:27Z</time>
      </trkpt>
      <trkpt lat="43.48724" lon="6.18009">
        <ele>197.2</ele>
        <time>2024-03-27T14:24:28Z</time>
      </trkpt>
      <trkpt lat="43.48724" lon="6.18008">
        <ele>197.3</ele>
        <time>2024-03-27T14:24:29Z</time>
      </trkpt>
      <trkpt lat="43.48724" lon="6.18006">
        <ele>197.4</ele>
        <time>2024-03-27T14:24:30Z</time>
      </trkpt>
      <trkpt lat="43.48724" lon="6.18005">
        <ele>197.5</ele>
        <time>2024-03-27T14:24:31Z</time>
      </trkpt>
      <trkpt lat="43.48724" lon="6.18003">
        <ele>197.6</ele>
        <time>2024-03-27T14:24:32Z</time>
      </trkpt>
      <trkpt lat="43.48724" lon="6.18001">
        <ele>197.7</ele>
        <time>2024-03-27T14:24:33Z</time>
      </trkpt>
      <trkpt lat="43.48723" lon="6.18">
        <ele>197.9</ele>
        <time>2024-03-27T14:24:34Z</time>
      </trkpt>
      <trkpt lat="43.48723" lon="6.17998">
        <ele>198</ele>
        <time>2024-03-27T14:24:35Z</time>
      </trkpt>
      <trkpt lat="43.48723" lon="6.17997">
        <ele>198.1</ele>
        <time>2024-03-27T14:24:36Z</time>
      </trkpt>
      <trkpt lat="43.48722" lon="6.17995">
        <ele>198.1</ele>
        <time>2024-03-27T14:24:37Z</time>
      </trkpt>
      <trkpt lat="43.48722" lon="6.17994">
        <ele>198</ele>
        <time>2024-03-27T14:24:38Z</time>
      </trkpt>
      <trkpt lat="43.48721" lon="6.17993">
        <ele>198</ele>
        <time>2024-03-27T14:24:39Z</time>
      </trkpt>
      <trkpt lat="43.48721" lon="6.17992">
        <ele>198</ele>
        <time>2024-03-27T14:24:40Z</time>
      </trkpt>
      <trkpt lat="43.4872" lon="6.17991">
        <ele>198</ele>
        <time>2024-03-27T14:24:41Z</time>
      </trkpt>
      <trkpt lat="43.4872" lon="6.1799">
        <ele>198</ele>
        <time>2024-03-27T14:24:42Z</time>
      </trkpt>
      <trkpt lat="43.48721" lon="6.17988">
        <ele>198.1</ele>
        <time>2024-03-27T14:24:43Z</time>
      </trkpt>
      <trkpt lat="43.48721" lon="6.17987">
        <ele>198.2</ele>
        <time>2024-03-27T14:24:44Z</time>
      </trkpt>
      <trkpt lat="43.48721" lon="6.17987">
        <ele>198.2</ele>
        <time>2024-03-27T14:24:45Z</time>
      </trkpt>
      <trkpt lat="43.48722" lon="6.17986">
        <ele>198.3</ele>
        <time>2024-03-27T14:24:46Z</time>
      </trkpt>
      <trkpt lat="43.48722" lon="6.17985">
        <ele>198.4</ele>
        <time>2024-03-27T14:24:47Z</time>
      </trkpt>
      <trkpt lat="43.48723" lon="6.17984">
        <ele>198.5</ele>
        <time>2024-03-27T14:24:48Z</time>
      </trkpt>
      <trkpt lat="43.48724" lon="6.17983">
        <ele>198.7</ele>
        <time>2024-03-27T14:24:49Z</time>
      </trkpt>
      <trkpt lat="43.48724" lon="6.17982">
        <ele>198.8</ele>
        <time>2024-03-27T14:24:50Z</time>
      </trkpt>
      <trkpt lat="43.48725" lon="6.1798">
        <ele>198.9</ele>
        <time>2024-03-27T14:24:51Z</time>
      </trkpt>
      <trkpt lat="43.48725" lon="6.17979">
        <ele>199</ele>
        <time>2024-03-27T14:24:52Z</time>
      </trkpt>
      <trkpt lat="43.48726" lon="6.17978">
        <ele>199.1</ele>
        <time>2024-03-27T14:24:53Z</time>
      </trkpt>
      <trkpt lat="43.48726" lon="6.17977">
        <ele>199.2</ele>
        <time>2024-03-27T14:24:54Z</time>
      </trkpt>
      <trkpt lat="43.48726" lon="6.17976">
        <ele>199.2</ele>
        <time>2024-03-27T14:24:55Z</time>
      </trkpt>
      <trkpt lat="43.48727" lon="6.17974">
        <ele>199.3</ele>
        <time>2024-03-27T14:24:56Z</time>
      </trkpt>
      <trkpt lat="43.48727" lon="6.17973">
        <ele>199.5</ele>
        <time>2024-03-27T14:24:57Z</time>
      </trkpt>
      <trkpt lat="43.48727" lon="6.17972">
        <ele>199.6</ele>
        <time>2024-03-27T14:24:58Z</time>
      </trkpt>
      <trkpt lat="43.48727" lon="6.17971">
        <ele>199.8</ele>
        <time>2024-03-27T14:24:59Z</time>
      </trkpt>
      <trkpt lat="43.48728" lon="6.17971">
        <ele>199.9</ele>
        <time>2024-03-27T14:25:00Z</time>
      </trkpt>
      <trkpt lat="43.48728" lon="6.1797">
        <ele>200</ele>
        <time>2024-03-27T14:25:01Z</time>
      </trkpt>
      <trkpt lat="43.48728" lon="6.17969">
        <ele>200</ele>
        <time>2024-03-27T14:25:02Z</time>
      </trkpt>
      <trkpt lat="43.48728" lon="6.17969">
        <ele>199.6</ele>
        <time>2024-03-27T14:25:03Z</time>
      </trkpt>
      <trkpt lat="43.48728" lon="6.17968">
        <ele>199.7</ele>
        <time>2024-03-27T14:25:04Z</time>
      </trkpt>
      <trkpt lat="43.48728" lon="6.17967">
        <ele>199.6</ele>
        <time>2024-03-27T14:25:05Z</time>
      </trkpt>
      <trkpt lat="43.48728" lon="6.17967">
        <ele>199.6</ele>
        <time>2024-03-27T14:25:06Z</time>
      </trkpt>
      <trkpt lat="43.48728" lon="6.17967">
        <ele>199.6</ele>
        <time>2024-03-27T14:25:07Z</time>
      </trkpt>
      <trkpt lat="43.48728" lon="6.17966">
        <ele>199.6</ele>
        <time>2024-03-27T14:25:08Z</time>
      </trkpt>
      <trkpt lat="43.48728" lon="6.17966">
        <ele>199.7</ele>
        <time>2024-03-27T14:25:09Z</time>
      </trkpt>
      <trkpt lat="43.48728" lon="6.17966">
        <ele>199.7</ele>
        <time>2024-03-27T14:25:10Z</time>
      </trkpt>
      <trkpt lat="43.48728" lon="6.17965">
        <ele>199.8</ele>
        <time>2024-03-27T14:25:11Z</time>
      </trkpt>
      <trkpt lat="43.48728" lon="6.17965">
        <ele>199.9</ele>
        <time>2024-03-27T14:25:12Z</time>
      </trkpt>
      <trkpt lat="43.48728" lon="6.17965">
        <ele>200</ele>
        <time>2024-03-27T14:25:13Z</time>
      </trkpt>
      <trkpt lat="43.48728" lon="6.17965">
        <ele>200.1</ele>
        <time>2024-03-27T14:25:14Z</time>
      </trkpt>
      <trkpt lat="43.48728" lon="6.17965">
        <ele>200.2</ele>
        <time>2024-03-27T14:25:15Z</time>
      </trkpt>
      <trkpt lat="43.48728" lon="6.17965">
        <ele>200.3</ele>
        <time>2024-03-27T14:25:16Z</time>
      </trkpt>
      <trkpt lat="43.48728" lon="6.17965">
        <ele>200.3</ele>
        <time>2024-03-27T14:25:17Z</time>
      </trkpt>
      <trkpt lat="43.48728" lon="6.17965">
        <ele>200.4</ele>
        <time>2024-03-27T14:25:18Z</time>
      </trkpt>
      <trkpt lat="43.48728" lon="6.17964">
        <ele>200.4</ele>
        <time>2024-03-27T14:25:19Z</time>
      </trkpt>
      <trkpt lat="43.48728" lon="6.17964">
        <ele>200.4</ele>
        <time>2024-03-27T14:25:20Z</time>
      </trkpt>
      <trkpt lat="43.48728" lon="6.17964">
        <ele>200.3</ele>
        <time>2024-03-27T14:25:21Z</time>
      </trkpt>
      <trkpt lat="43.48728" lon="6.17963">
        <ele>200.3</ele>
        <time>2024-03-27T14:25:22Z</time>
      </trkpt>
      <trkpt lat="43.48728" lon="6.17963">
        <ele>200.2</ele>
        <time>2024-03-27T14:25:23Z</time>
      </trkpt>
      <trkpt lat="43.48728" lon="6.17962">
        <ele>200.2</ele>
        <time>2024-03-27T14:25:24Z</time>
      </trkpt>
      <trkpt lat="43.48728" lon="6.17962">
        <ele>200.2</ele>
        <time>2024-03-27T14:25:25Z</time>
      </trkpt>
      <trkpt lat="43.48727" lon="6.17962">
        <ele>200.2</ele>
        <time>2024-03-27T14:25:26Z</time>
      </trkpt>
      <trkpt lat="43.48727" lon="6.17961">
        <ele>200.2</ele>
        <time>2024-03-27T14:25:27Z</time>
      </trkpt>
      <trkpt lat="43.48727" lon="6.17961">
        <ele>200.2</ele>
        <time>2024-03-27T14:25:28Z</time>
      </trkpt>
      <trkpt lat="43.48727" lon="6.1796">
        <ele>200.2</ele>
        <time>2024-03-27T14:25:29Z</time>
      </trkpt>
      <trkpt lat="43.48727" lon="6.1796">
        <ele>200.2</ele>
        <time>2024-03-27T14:25:30Z</time>
      </trkpt>
      <trkpt lat="43.48728" lon="6.17959">
        <ele>200.2</ele>
        <time>2024-03-27T14:25:31Z</time>
      </trkpt>
      <trkpt lat="43.48728" lon="6.17958">
        <ele>200.2</ele>
        <time>2024-03-27T14:25:32Z</time>
      </trkpt>
      <trkpt lat="43.48728" lon="6.17958">
        <ele>200.2</ele>
        <time>2024-03-27T14:25:33Z</time>
      </trkpt>
      <trkpt lat="43.48727" lon="6.17957">
        <ele>200.3</ele>
        <time>2024-03-27T14:25:34Z</time>
      </trkpt>
      <trkpt lat="43.48728" lon="6.17956">
        <ele>200.3</ele>
        <time>2024-03-27T14:25:35Z</time>
      </trkpt>
      <trkpt lat="43.48728" lon="6.17955">
        <ele>200.3</ele>
        <time>2024-03-27T14:25:36Z</time>
      </trkpt>
      <trkpt lat="43.48727" lon="6.17955">
        <ele>200.2</ele>
        <time>2024-03-27T14:25:37Z</time>
      </trkpt>
      <trkpt lat="43.48727" lon="6.17954">
        <ele>200.3</ele>
        <time>2024-03-27T14:25:38Z</time>
      </trkpt>
      <trkpt lat="43.48727" lon="6.17954">
        <ele>200.4</ele>
        <time>2024-03-27T14:25:39Z</time>
      </trkpt>
      <trkpt lat="43.48727" lon="6.17954">
        <ele>200.6</ele>
        <time>2024-03-27T14:25:40Z</time>
      </trkpt>
      <trkpt lat="43.48726" lon="6.17954">
        <ele>200.8</ele>
        <time>2024-03-27T14:25:41Z</time>
      </trkpt>
      <trkpt lat="43.48726" lon="6.17954">
        <ele>200.8</ele>
        <time>2024-03-27T14:25:42Z</time>
      </trkpt>
      <trkpt lat="43.48726" lon="6.17954">
        <ele>201.1</ele>
        <time>2024-03-27T14:25:43Z</time>
      </trkpt>
      <trkpt lat="43.48726" lon="6.17954">
        <ele>201.2</ele>
        <time>2024-03-27T14:25:44Z</time>
      </trkpt>
      <trkpt lat="43.48726" lon="6.17954">
        <ele>201.2</ele>
        <time>2024-03-27T14:25:45Z</time>
      </trkpt>
      <trkpt lat="43.48726" lon="6.17954">
        <ele>201.3</ele>
        <time>2024-03-27T14:25:46Z</time>
      </trkpt>
      <trkpt lat="43.48726" lon="6.17953">
        <ele>201.3</ele>
        <time>2024-03-27T14:25:47Z</time>
      </trkpt>
      <trkpt lat="43.48726" lon="6.17953">
        <ele>201.3</ele>
        <time>2024-03-27T14:25:48Z</time>
      </trkpt>
      <trkpt lat="43.48726" lon="6.17953">
        <ele>201.3</ele>
        <time>2024-03-27T14:25:49Z</time>
      </trkpt>
      <trkpt lat="43.48726" lon="6.17953">
        <ele>201.3</ele>
        <time>2024-03-27T14:25:50Z</time>
      </trkpt>
      <trkpt lat="43.48725" lon="6.17954">
        <ele>201.4</ele>
        <time>2024-03-27T14:25:51Z</time>
      </trkpt>
      <trkpt lat="43.48725" lon="6.17954">
        <ele>201.4</ele>
        <time>2024-03-27T14:25:52Z</time>
      </trkpt>
      <trkpt lat="43.48724" lon="6.17953">
        <ele>201.3</ele>
        <time>2024-03-27T14:25:53Z</time>
      </trkpt>
      <trkpt lat="43.48724" lon="6.17953">
        <ele>201.4</ele>
        <time>2024-03-27T14:25:54Z</time>
      </trkpt>
      <trkpt lat="43.48724" lon="6.17952">
        <ele>201.5</ele>
        <time>2024-03-27T14:25:55Z</time>
      </trkpt>
      <trkpt lat="43.48724" lon="6.17952">
        <ele>201.6</ele>
        <time>2024-03-27T14:25:56Z</time>
      </trkpt>
      <trkpt lat="43.48724" lon="6.17951">
        <ele>201.6</ele>
        <time>2024-03-27T14:25:57Z</time>
      </trkpt>
      <trkpt lat="43.48724" lon="6.1795">
        <ele>201.6</ele>
        <time>2024-03-27T14:25:58Z</time>
      </trkpt>
      <trkpt lat="43.48724" lon="6.1795">
        <ele>201.6</ele>
        <time>2024-03-27T14:25:59Z</time>
      </trkpt>
      <trkpt lat="43.48724" lon="6.17949">
        <ele>201.6</ele>
        <time>2024-03-27T14:26:00Z</time>
      </trkpt>
      <trkpt lat="43.48724" lon="6.17949">
        <ele>201.6</ele>
        <time>2024-03-27T14:26:01Z</time>
      </trkpt>
      <trkpt lat="43.48723" lon="6.17948">
        <ele>201.5</ele>
        <time>2024-03-27T14:26:02Z</time>
      </trkpt>
      <trkpt lat="43.48724" lon="6.17948">
        <ele>201.4</ele>
        <time>2024-03-27T14:26:03Z</time>
      </trkpt>
      <trkpt lat="43.48724" lon="6.17947">
        <ele>201.4</ele>
        <time>2024-03-27T14:26:04Z</time>
      </trkpt>
      <trkpt lat="43.48723" lon="6.17946">
        <ele>201.4</ele>
        <time>2024-03-27T14:26:05Z</time>
      </trkpt>
      <trkpt lat="43.48723" lon="6.17946">
        <ele>201.5</ele>
        <time>2024-03-27T14:26:06Z</time>
      </trkpt>
      <trkpt lat="43.48723" lon="6.17946">
        <ele>201.5</ele>
        <time>2024-03-27T14:26:07Z</time>
      </trkpt>
      <trkpt lat="43.48722" lon="6.17945">
        <ele>201.4</ele>
        <time>2024-03-27T14:26:08Z</time>
      </trkpt>
      <trkpt lat="43.48722" lon="6.17945">
        <ele>201.3</ele>
        <time>2024-03-27T14:26:09Z</time>
      </trkpt>
      <trkpt lat="43.48722" lon="6.17945">
        <ele>201.3</ele>
        <time>2024-03-27T14:26:10Z</time>
      </trkpt>
      <trkpt lat="43.48722" lon="6.17945">
        <ele>201.3</ele>
        <time>2024-03-27T14:26:11Z</time>
      </trkpt>
      <trkpt lat="43.48722" lon="6.17945">
        <ele>201.3</ele>
        <time>2024-03-27T14:26:12Z</time>
      </trkpt>
      <trkpt lat="43.48722" lon="6.17945">
        <ele>201.3</ele>
        <time>2024-03-27T14:26:13Z</time>
      </trkpt>
      <trkpt lat="43.48722" lon="6.17945">
        <ele>201.2</ele>
        <time>2024-03-27T14:26:14Z</time>
      </trkpt>
      <trkpt lat="43.48722" lon="6.17945">
        <ele>201.2</ele>
        <time>2024-03-27T14:26:15Z</time>
      </trkpt>
      <trkpt lat="43.48721" lon="6.17945">
        <ele>201.2</ele>
        <time>2024-03-27T14:26:16Z</time>
      </trkpt>
      <trkpt lat="43.48721" lon="6.17945">
        <ele>201.2</ele>
        <time>2024-03-27T14:26:17Z</time>
      </trkpt>
      <trkpt lat="43.48721" lon="6.17944">
        <ele>201.1</ele>
        <time>2024-03-27T14:26:18Z</time>
      </trkpt>
      <trkpt lat="43.48721" lon="6.17944">
        <ele>201.1</ele>
        <time>2024-03-27T14:26:19Z</time>
      </trkpt>
      <trkpt lat="43.48721" lon="6.17944">
        <ele>201.1</ele>
        <time>2024-03-27T14:26:20Z</time>
      </trkpt>
      <trkpt lat="43.48721" lon="6.17944">
        <ele>201.1</ele>
        <time>2024-03-27T14:26:21Z</time>
      </trkpt>
      <trkpt lat="43.48721" lon="6.17944">
        <ele>201.1</ele>
        <time>2024-03-27T14:26:22Z</time>
      </trkpt>
      <trkpt lat="43.48721" lon="6.17944">
        <ele>201.1</ele>
        <time>2024-03-27T14:26:23Z</time>
      </trkpt>
      <trkpt lat="43.48721" lon="6.17944">
        <ele>201.2</ele>
        <time>2024-03-27T14:26:24Z</time>
      </trkpt>
      <trkpt lat="43.48721" lon="6.17944">
        <ele>201.2</ele>
        <time>2024-03-27T14:26:25Z</time>
      </trkpt>
      <trkpt lat="43.48721" lon="6.17944">
        <ele>201.2</ele>
        <time>2024-03-27T14:26:26Z</time>
      </trkpt>
      <trkpt lat="43.48721" lon="6.17944">
        <ele>201.2</ele>
        <time>2024-03-27T14:26:27Z</time>
      </trkpt>
      <trkpt lat="43.48721" lon="6.17944">
        <ele>201.1</ele>
        <time>2024-03-27T14:26:28Z</time>
      </trkpt>
      <trkpt lat="43.48721" lon="6.17944">
        <ele>201.1</ele>
        <time>2024-03-27T14:26:29Z</time>
      </trkpt>
      <trkpt lat="43.48721" lon="6.17944">
        <ele>201</ele>
        <time>2024-03-27T14:26:30Z</time>
      </trkpt>
      <trkpt lat="43.4872" lon="6.17944">
        <ele>201</ele>
        <time>2024-03-27T14:26:31Z</time>
      </trkpt>
      <trkpt lat="43.4872" lon="6.17944">
        <ele>201.1</ele>
        <time>2024-03-27T14:26:32Z</time>
      </trkpt>
      <trkpt lat="43.4872" lon="6.17944">
        <ele>201.1</ele>
        <time>2024-03-27T14:26:33Z</time>
      </trkpt>
      <trkpt lat="43.4872" lon="6.17944">
        <ele>201.1</ele>
        <time>2024-03-27T14:26:34Z</time>
      </trkpt>
      <trkpt lat="43.4872" lon="6.17944">
        <ele>201</ele>
        <time>2024-03-27T14:26:35Z</time>
      </trkpt>
      <trkpt lat="43.48721" lon="6.17944">
        <ele>201</ele>
        <time>2024-03-27T14:26:36Z</time>
      </trkpt>
      <trkpt lat="43.48721" lon="6.17944">
        <ele>201</ele>
        <time>2024-03-27T14:26:37Z</time>
      </trkpt>
      <trkpt lat="43.48721" lon="6.17944">
        <ele>201</ele>
        <time>2024-03-27T14:26:38Z</time>
      </trkpt>
      <trkpt lat="43.4872" lon="6.17944">
        <ele>201.1</ele>
        <time>2024-03-27T14:26:39Z</time>
      </trkpt>
      <trkpt lat="43.4872" lon="6.17943">
        <ele>201.1</ele>
        <time>2024-03-27T14:26:40Z</time>
      </trkpt>
      <trkpt lat="43.4872" lon="6.17943">
        <ele>201.1</ele>
        <time>2024-03-27T14:26:41Z</time>
      </trkpt>
      <trkpt lat="43.4872" lon="6.17943">
        <ele>201.1</ele>
        <time>2024-03-27T14:26:42Z</time>
      </trkpt>
      <trkpt lat="43.4872" lon="6.17943">
        <ele>201</ele>
        <time>2024-03-27T14:26:43Z</time>
      </trkpt>
      <trkpt lat="43.4872" lon="6.17942">
        <ele>201</ele>
        <time>2024-03-27T14:26:44Z</time>
      </trkpt>
      <trkpt lat="43.4872" lon="6.17942">
        <ele>201</ele>
        <time>2024-03-27T14:26:45Z</time>
      </trkpt>
      <trkpt lat="43.4872" lon="6.17942">
        <ele>201.1</ele>
        <time>2024-03-27T14:26:46Z</time>
      </trkpt>
      <trkpt lat="43.4872" lon="6.17942">
        <ele>201.1</ele>
        <time>2024-03-27T14:26:47Z</time>
      </trkpt>
      <trkpt lat="43.4872" lon="6.17943">
        <ele>201.2</ele>
        <time>2024-03-27T14:26:48Z</time>
      </trkpt>
      <trkpt lat="43.48721" lon="6.17944">
        <ele>201.3</ele>
        <time>2024-03-27T14:26:49Z</time>
      </trkpt>
      <trkpt lat="43.48721" lon="6.17945">
        <ele>201.3</ele>
        <time>2024-03-27T14:26:50Z</time>
      </trkpt>
      <trkpt lat="43.48722" lon="6.17945">
        <ele>201.4</ele>
        <time>2024-03-27T14:26:51Z</time>
      </trkpt>
      <trkpt lat="43.48722" lon="6.17945">
        <ele>201.5</ele>
        <time>2024-03-27T14:26:52Z</time>
      </trkpt>
      <trkpt lat="43.48723" lon="6.17944">
        <ele>201.5</ele>
        <time>2024-03-27T14:26:53Z</time>
      </trkpt>
      <trkpt lat="43.48723" lon="6.17944">
        <ele>201.5</ele>
        <time>2024-03-27T14:26:54Z</time>
      </trkpt>
      <trkpt lat="43.48724" lon="6.17944">
        <ele>201.5</ele>
        <time>2024-03-27T14:26:55Z</time>
      </trkpt>
      <trkpt lat="43.48724" lon="6.17944">
        <ele>201.5</ele>
        <time>2024-03-27T14:26:56Z</time>
      </trkpt>
      <trkpt lat="43.48724" lon="6.17944">
        <ele>201.5</ele>
        <time>2024-03-27T14:26:57Z</time>
      </trkpt>
      <trkpt lat="43.48724" lon="6.17944">
        <ele>201.5</ele>
        <time>2024-03-27T14:26:58Z</time>
      </trkpt>
      <trkpt lat="43.48724" lon="6.17944">
        <ele>201.5</ele>
        <time>2024-03-27T14:26:59Z</time>
      </trkpt>
      <trkpt lat="43.48724" lon="6.17944">
        <ele>201.6</ele>
        <time>2024-03-27T14:27:00Z</time>
      </trkpt>
      <trkpt lat="43.48724" lon="6.17944">
        <ele>201.5</ele>
        <time>2024-03-27T14:27:01Z</time>
      </trkpt>
      <trkpt lat="43.48724" lon="6.17944">
        <ele>201.5</ele>
        <time>2024-03-27T14:27:02Z</time>
      </trkpt>
      <trkpt lat="43.48724" lon="6.17944">
        <ele>201.5</ele>
        <time>2024-03-27T14:27:03Z</time>
      </trkpt>
      <trkpt lat="43.48724" lon="6.17944">
        <ele>201.6</ele>
        <time>2024-03-27T14:27:04Z</time>
      </trkpt>
      <trkpt lat="43.48724" lon="6.17944">
        <ele>201.6</ele>
        <time>2024-03-27T14:27:05Z</time>
      </trkpt>
      <trkpt lat="43.48724" lon="6.17944">
        <ele>201.7</ele>
        <time>2024-03-27T14:27:06Z</time>
      </trkpt>
      <trkpt lat="43.48724" lon="6.17944">
        <ele>201.8</ele>
        <time>2024-03-27T14:27:07Z</time>
      </trkpt>
      <trkpt lat="43.48724" lon="6.17944">
        <ele>201.9</ele>
        <time>2024-03-27T14:27:08Z</time>
      </trkpt>
      <trkpt lat="43.48724" lon="6.17944">
        <ele>201.9</ele>
        <time>2024-03-27T14:27:09Z</time>
      </trkpt>
      <trkpt lat="43.48725" lon="6.17944">
        <ele>201.8</ele>
        <time>2024-03-27T14:27:10Z</time>
      </trkpt>
      <trkpt lat="43.48725" lon="6.17943">
        <ele>201.7</ele>
        <time>2024-03-27T14:27:11Z</time>
      </trkpt>
      <trkpt lat="43.48725" lon="6.17943">
        <ele>201.7</ele>
        <time>2024-03-27T14:27:12Z</time>
      </trkpt>
      <trkpt lat="43.48725" lon="6.17944">
        <ele>201.6</ele>
        <time>2024-03-27T14:27:13Z</time>
      </trkpt>
      <trkpt lat="43.48725" lon="6.17944">
        <ele>201.5</ele>
        <time>2024-03-27T14:27:14Z</time>
      </trkpt>
      <trkpt lat="43.48725" lon="6.17943">
        <ele>201.5</ele>
        <time>2024-03-27T14:27:15Z</time>
      </trkpt>
      <trkpt lat="43.48725" lon="6.17943">
        <ele>201.5</ele>
        <time>2024-03-27T14:27:16Z</time>
      </trkpt>
      <trkpt lat="43.48725" lon="6.17943">
        <ele>201.5</ele>
        <time>2024-03-27T14:27:17Z</time>
      </trkpt>
      <trkpt lat="43.48725" lon="6.17943">
        <ele>201.4</ele>
        <time>2024-03-27T14:27:18Z</time>
      </trkpt>
      <trkpt lat="43.48725" lon="6.17943">
        <ele>201.4</ele>
        <time>2024-03-27T14:27:19Z</time>
      </trkpt>
      <trkpt lat="43.48725" lon="6.17943">
        <ele>201.4</ele>
        <time>2024-03-27T14:27:20Z</time>
      </trkpt>
      <trkpt lat="43.48725" lon="6.17943">
        <ele>201.3</ele>
        <time>2024-03-27T14:27:21Z</time>
      </trkpt>
      <trkpt lat="43.48725" lon="6.17942">
        <ele>201.4</ele>
        <time>2024-03-27T14:27:22Z</time>
      </trkpt>
      <trkpt lat="43.48725" lon="6.17942">
        <ele>201.5</ele>
        <time>2024-03-27T14:27:23Z</time>
      </trkpt>
      <trkpt lat="43.48725" lon="6.17942">
        <ele>201.5</ele>
        <time>2024-03-27T14:27:24Z</time>
      </trkpt>
      <trkpt lat="43.48725" lon="6.17942">
        <ele>201.6</ele>
        <time>2024-03-27T14:27:25Z</time>
      </trkpt>
      <trkpt lat="43.48725" lon="6.17942">
        <ele>201.6</ele>
        <time>2024-03-27T14:27:26Z</time>
      </trkpt>
      <trkpt lat="43.48725" lon="6.17942">
        <ele>201.7</ele>
        <time>2024-03-27T14:27:27Z</time>
      </trkpt>
      <trkpt lat="43.48725" lon="6.17942">
        <ele>201.7</ele>
        <time>2024-03-27T14:27:28Z</time>
      </trkpt>
      <trkpt lat="43.48725" lon="6.17941">
        <ele>201.6</ele>
        <time>2024-03-27T14:27:29Z</time>
      </trkpt>
      <trkpt lat="43.48725" lon="6.17941">
        <ele>201.6</ele>
        <time>2024-03-27T14:27:30Z</time>
      </trkpt>
      <trkpt lat="43.48725" lon="6.17942">
        <ele>201.6</ele>
        <time>2024-03-27T14:27:31Z</time>
      </trkpt>
      <trkpt lat="43.48725" lon="6.17942">
        <ele>201.7</ele>
        <time>2024-03-27T14:27:32Z</time>
      </trkpt>
      <trkpt lat="43.48725" lon="6.17943">
        <ele>201.7</ele>
        <time>2024-03-27T14:27:33Z</time>
      </trkpt>
      <trkpt lat="43.48725" lon="6.17943">
        <ele>201.7</ele>
        <time>2024-03-27T14:27:34Z</time>
      </trkpt>
      <trkpt lat="43.48725" lon="6.17942">
        <ele>201.7</ele>
        <time>2024-03-27T14:27:35Z</time>
      </trkpt>
      <trkpt lat="43.48725" lon="6.17942">
        <ele>201.8</ele>
        <time>2024-03-27T14:27:36Z</time>
      </trkpt>
      <trkpt lat="43.48725" lon="6.17942">
        <ele>201.8</ele>
        <time>2024-03-27T14:27:37Z</time>
      </trkpt>
      <trkpt lat="43.48726" lon="6.17942">
        <ele>201.8</ele>
        <time>2024-03-27T14:27:38Z</time>
      </trkpt>
      <trkpt lat="43.48726" lon="6.17942">
        <ele>201.8</ele>
        <time>2024-03-27T14:27:39Z</time>
      </trkpt>
      <trkpt lat="43.48726" lon="6.17942">
        <ele>201.7</ele>
        <time>2024-03-27T14:27:40Z</time>
      </trkpt>
      <trkpt lat="43.48726" lon="6.17942">
        <ele>201.5</ele>
        <time>2024-03-27T14:27:41Z</time>
      </trkpt>
      <trkpt lat="43.48726" lon="6.17942">
        <ele>201.5</ele>
        <time>2024-03-27T14:27:42Z</time>
      </trkpt>
      <trkpt lat="43.48726" lon="6.17942">
        <ele>201.4</ele>
        <time>2024-03-27T14:27:43Z</time>
      </trkpt>
      <trkpt lat="43.48726" lon="6.17942">
        <ele>201.3</ele>
        <time>2024-03-27T14:27:44Z</time>
      </trkpt>
      <trkpt lat="43.48726" lon="6.17942">
        <ele>201.3</ele>
        <time>2024-03-27T14:27:45Z</time>
      </trkpt>
      <trkpt lat="43.48726" lon="6.17942">
        <ele>201.4</ele>
        <time>2024-03-27T14:27:46Z</time>
      </trkpt>
      <trkpt lat="43.48726" lon="6.17942">
        <ele>201.4</ele>
        <time>2024-03-27T14:27:47Z</time>
      </trkpt>
      <trkpt lat="43.48726" lon="6.17942">
        <ele>201.5</ele>
        <time>2024-03-27T14:27:48Z</time>
      </trkpt>
      <trkpt lat="43.48726" lon="6.17942">
        <ele>201.5</ele>
        <time>2024-03-27T14:27:49Z</time>
      </trkpt>
      <trkpt lat="43.48726" lon="6.17942">
        <ele>201.6</ele>
        <time>2024-03-27T14:27:50Z</time>
      </trkpt>
      <trkpt lat="43.48725" lon="6.17941">
        <ele>201.6</ele>
        <time>2024-03-27T14:27:51Z</time>
      </trkpt>
      <trkpt lat="43.48725" lon="6.17941">
        <ele>201.6</ele>
        <time>2024-03-27T14:27:52Z</time>
      </trkpt>
      <trkpt lat="43.48725" lon="6.17941">
        <ele>201.5</ele>
        <time>2024-03-27T14:27:53Z</time>
      </trkpt>
      <trkpt lat="43.48725" lon="6.17942">
        <ele>201.5</ele>
        <time>2024-03-27T14:27:54Z</time>
      </trkpt>
      <trkpt lat="43.48726" lon="6.17942">
        <ele>201.4</ele>
        <time>2024-03-27T14:27:55Z</time>
      </trkpt>
      <trkpt lat="43.48726" lon="6.17942">
        <ele>201.5</ele>
        <time>2024-03-27T14:27:56Z</time>
      </trkpt>
      <trkpt lat="43.48726" lon="6.17942">
        <ele>201.5</ele>
        <time>2024-03-27T14:27:57Z</time>
      </trkpt>
      <trkpt lat="43.48726" lon="6.17942">
        <ele>201.4</ele>
        <time>2024-03-27T14:27:58Z</time>
      </trkpt>
      <trkpt lat="43.48726" lon="6.17942">
        <ele>201.4</ele>
        <time>2024-03-27T14:27:59Z</time>
      </trkpt>
      <trkpt lat="43.48726" lon="6.17942">
        <ele>201.4</ele>
        <time>2024-03-27T14:28:00Z</time>
      </trkpt>
      <trkpt lat="43.48726" lon="6.17942">
        <ele>201.4</ele>
        <time>2024-03-27T14:28:01Z</time>
      </trkpt>
      <trkpt lat="43.48726" lon="6.17942">
        <ele>201.4</ele>
        <time>2024-03-27T14:28:02Z</time>
      </trkpt>
      <trkpt lat="43.48726" lon="6.17942">
        <ele>201.4</ele>
        <time>2024-03-27T14:28:03Z</time>
      </trkpt>
      <trkpt lat="43.48726" lon="6.17942">
        <ele>201.4</ele>
        <time>2024-03-27T14:28:04Z</time>
      </trkpt>
      <trkpt lat="43.48726" lon="6.17943">
        <ele>201.4</ele>
        <time>2024-03-27T14:28:05Z</time>
      </trkpt>
      <trkpt lat="43.48726" lon="6.17944">
        <ele>201.4</ele>
        <time>2024-03-27T14:28:06Z</time>
      </trkpt>
      <trkpt lat="43.48727" lon="6.17945">
        <ele>201.4</ele>
        <time>2024-03-27T14:28:07Z</time>
      </trkpt>
      <trkpt lat="43.48727" lon="6.17946">
        <ele>201.5</ele>
        <time>2024-03-27T14:28:08Z</time>
      </trkpt>
      <trkpt lat="43.48727" lon="6.17946">
        <ele>201.5</ele>
        <time>2024-03-27T14:28:09Z</time>
      </trkpt>
      <trkpt lat="43.48727" lon="6.17947">
        <ele>201.6</ele>
        <time>2024-03-27T14:28:10Z</time>
      </trkpt>
      <trkpt lat="43.48727" lon="6.17947">
        <ele>201.6</ele>
        <time>2024-03-27T14:28:11Z</time>
      </trkpt>
      <trkpt lat="43.48727" lon="6.17947">
        <ele>201.6</ele>
        <time>2024-03-27T14:28:12Z</time>
      </trkpt>
      <trkpt lat="43.48727" lon="6.17947">
        <ele>201.8</ele>
        <time>2024-03-27T14:28:13Z</time>
      </trkpt>
      <trkpt lat="43.48727" lon="6.17947">
        <ele>201.9</ele>
        <time>2024-03-27T14:28:14Z</time>
      </trkpt>
      <trkpt lat="43.48727" lon="6.17947">
        <ele>201.9</ele>
        <time>2024-03-27T14:28:15Z</time>
      </trkpt>
      <trkpt lat="43.48727" lon="6.17947">
        <ele>202</ele>
        <time>2024-03-27T14:28:16Z</time>
      </trkpt>
      <trkpt lat="43.48727" lon="6.17947">
        <ele>202</ele>
        <time>2024-03-27T14:28:17Z</time>
      </trkpt>
      <trkpt lat="43.48727" lon="6.17947">
        <ele>201.9</ele>
        <time>2024-03-27T14:28:18Z</time>
      </trkpt>
      <trkpt lat="43.48727" lon="6.17947">
        <ele>201.8</ele>
        <time>2024-03-27T14:28:19Z</time>
      </trkpt>
      <trkpt lat="43.48727" lon="6.17947">
        <ele>201.8</ele>
        <time>2024-03-27T14:28:20Z</time>
      </trkpt>
      <trkpt lat="43.48727" lon="6.17947">
        <ele>201.8</ele>
        <time>2024-03-27T14:28:21Z</time>
      </trkpt>
      <trkpt lat="43.48727" lon="6.17947">
        <ele>201.8</ele>
        <time>2024-03-27T14:28:22Z</time>
      </trkpt>
      <trkpt lat="43.48727" lon="6.17947">
        <ele>201.8</ele>
        <time>2024-03-27T14:28:23Z</time>
      </trkpt>
      <trkpt lat="43.48727" lon="6.17947">
        <ele>201.8</ele>
        <time>2024-03-27T14:28:24Z</time>
      </trkpt>
      <trkpt lat="43.48727" lon="6.17947">
        <ele>201.9</ele>
        <time>2024-03-27T14:28:25Z</time>
      </trkpt>
      <trkpt lat="43.48727" lon="6.17947">
        <ele>201.9</ele>
        <time>2024-03-27T14:28:26Z</time>
      </trkpt>
      <trkpt lat="43.48727" lon="6.17947">
        <ele>201.9</ele>
        <time>2024-03-27T14:28:27Z</time>
      </trkpt>
      <trkpt lat="43.48727" lon="6.17947">
        <ele>201.9</ele>
        <time>2024-03-27T14:28:28Z</time>
      </trkpt>
      <trkpt lat="43.48727" lon="6.17947">
        <ele>201.8</ele>
        <time>2024-03-27T14:28:29Z</time>
      </trkpt>
      <trkpt lat="43.48727" lon="6.17947">
        <ele>201.8</ele>
        <time>2024-03-27T14:28:30Z</time>
      </trkpt>
      <trkpt lat="43.48726" lon="6.17946">
        <ele>201.8</ele>
        <time>2024-03-27T14:28:31Z</time>
      </trkpt>
      <trkpt lat="43.48726" lon="6.17946">
        <ele>201.8</ele>
        <time>2024-03-27T14:28:32Z</time>
      </trkpt>
      <trkpt lat="43.48726" lon="6.17946">
        <ele>201.8</ele>
        <time>2024-03-27T14:28:33Z</time>
      </trkpt>
      <trkpt lat="43.48726" lon="6.17946">
        <ele>201.8</ele>
        <time>2024-03-27T14:28:34Z</time>
      </trkpt>
      <trkpt lat="43.48726" lon="6.17946">
        <ele>201.8</ele>
        <time>2024-03-27T14:28:35Z</time>
      </trkpt>
      <trkpt lat="43.48726" lon="6.17946">
        <ele>201.9</ele>
        <time>2024-03-27T14:28:36Z</time>
      </trkpt>
      <trkpt lat="43.48726" lon="6.17946">
        <ele>201.9</ele>
        <time>2024-03-27T14:28:37Z</time>
      </trkpt>
      <trkpt lat="43.48726" lon="6.17946">
        <ele>201.8</ele>
        <time>2024-03-27T14:28:38Z</time>
      </trkpt>
      <trkpt lat="43.48726" lon="6.17946">
        <ele>201.7</ele>
        <time>2024-03-27T14:28:39Z</time>
      </trkpt>
      <trkpt lat="43.48726" lon="6.17945">
        <ele>201.6</ele>
        <time>2024-03-27T14:28:40Z</time>
      </trkpt>
      <trkpt lat="43.48726" lon="6.17946">
        <ele>201.6</ele>
        <time>2024-03-27T14:28:41Z</time>
      </trkpt>
      <trkpt lat="43.48726" lon="6.17945">
        <ele>201.5</ele>
        <time>2024-03-27T14:28:42Z</time>
      </trkpt>
      <trkpt lat="43.48726" lon="6.17945">
        <ele>201.4</ele>
        <time>2024-03-27T14:28:43Z</time>
      </trkpt>
      <trkpt lat="43.48725" lon="6.17945">
        <ele>201.3</ele>
        <time>2024-03-27T14:28:44Z</time>
      </trkpt>
      <trkpt lat="43.48725" lon="6.17945">
        <ele>201.2</ele>
        <time>2024-03-27T14:28:45Z</time>
      </trkpt>
      <trkpt lat="43.48725" lon="6.17945">
        <ele>201.1</ele>
        <time>2024-03-27T14:28:46Z</time>
      </trkpt>
      <trkpt lat="43.48725" lon="6.17945">
        <ele>201.1</ele>
        <time>2024-03-27T14:28:47Z</time>
      </trkpt>
      <trkpt lat="43.48725" lon="6.17944">
        <ele>201.1</ele>
        <time>2024-03-27T14:28:48Z</time>
      </trkpt>
      <trkpt lat="43.48725" lon="6.17944">
        <ele>201.1</ele>
        <time>2024-03-27T14:28:49Z</time>
      </trkpt>
      <trkpt lat="43.48725" lon="6.17944">
        <ele>201.1</ele>
        <time>2024-03-27T14:28:50Z</time>
      </trkpt>
      <trkpt lat="43.48725" lon="6.17944">
        <ele>201.1</ele>
        <time>2024-03-27T14:28:51Z</time>
      </trkpt>
      <trkpt lat="43.48725" lon="6.17944">
        <ele>201.1</ele>
        <time>2024-03-27T14:28:52Z</time>
      </trkpt>
      <trkpt lat="43.48725" lon="6.17944">
        <ele>201.2</ele>
        <time>2024-03-27T14:28:53Z</time>
      </trkpt>
      <trkpt lat="43.48725" lon="6.17944">
        <ele>201.2</ele>
        <time>2024-03-27T14:28:54Z</time>
      </trkpt>
      <trkpt lat="43.48725" lon="6.17945">
        <ele>201.2</ele>
        <time>2024-03-27T14:28:55Z</time>
      </trkpt>
      <trkpt lat="43.48725" lon="6.17945">
        <ele>201.3</ele>
        <time>2024-03-27T14:28:56Z</time>
      </trkpt>
      <trkpt lat="43.48725" lon="6.17945">
        <ele>201.3</ele>
        <time>2024-03-27T14:28:57Z</time>
      </trkpt>
      <trkpt lat="43.48725" lon="6.17945">
        <ele>201.3</ele>
        <time>2024-03-27T14:28:58Z</time>
      </trkpt>
      <trkpt lat="43.48725" lon="6.17945">
        <ele>201.3</ele>
        <time>2024-03-27T14:28:59Z</time>
      </trkpt>
      <trkpt lat="43.48725" lon="6.17946">
        <ele>201.3</ele>
        <time>2024-03-27T14:29:00Z</time>
      </trkpt>
      <trkpt lat="43.48725" lon="6.17946">
        <ele>201.3</ele>
        <time>2024-03-27T14:29:01Z</time>
      </trkpt>
      <trkpt lat="43.48725" lon="6.17946">
        <ele>201.2</ele>
        <time>2024-03-27T14:29:02Z</time>
      </trkpt>
      <trkpt lat="43.48725" lon="6.17946">
        <ele>201.1</ele>
        <time>2024-03-27T14:29:03Z</time>
      </trkpt>
      <trkpt lat="43.48725" lon="6.17946">
        <ele>201.1</ele>
        <time>2024-03-27T14:29:04Z</time>
      </trkpt>
      <trkpt lat="43.48725" lon="6.17947">
        <ele>201.2</ele>
        <time>2024-03-27T14:29:05Z</time>
      </trkpt>
      <trkpt lat="43.48725" lon="6.17947">
        <ele>201.3</ele>
        <time>2024-03-27T14:29:06Z</time>
      </trkpt>
      <trkpt lat="43.48725" lon="6.17947">
        <ele>201.4</ele>
        <time>2024-03-27T14:29:07Z</time>
      </trkpt>
      <trkpt lat="43.48725" lon="6.17947">
        <ele>201.4</ele>
        <time>2024-03-27T14:29:08Z</time>
      </trkpt>
      <trkpt lat="43.48725" lon="6.17947">
        <ele>201.4</ele>
        <time>2024-03-27T14:29:09Z</time>
      </trkpt>
      <trkpt lat="43.48725" lon="6.17947">
        <ele>201.5</ele>
        <time>2024-03-27T14:29:10Z</time>
      </trkpt>
      <trkpt lat="43.48725" lon="6.17948">
        <ele>201.6</ele>
        <time>2024-03-27T14:29:11Z</time>
      </trkpt>
      <trkpt lat="43.48726" lon="6.17947">
        <ele>201.7</ele>
        <time>2024-03-27T14:29:12Z</time>
      </trkpt>
      <trkpt lat="43.48726" lon="6.17946">
        <ele>201.7</ele>
        <time>2024-03-27T14:29:13Z</time>
      </trkpt>
      <trkpt lat="43.48726" lon="6.17945">
        <ele>201.7</ele>
        <time>2024-03-27T14:29:14Z</time>
      </trkpt>
      <trkpt lat="43.48726" lon="6.17945">
        <ele>201.7</ele>
        <time>2024-03-27T14:29:15Z</time>
      </trkpt>
      <trkpt lat="43.48727" lon="6.17945">
        <ele>201.7</ele>
        <time>2024-03-27T14:29:16Z</time>
      </trkpt>
      <trkpt lat="43.48728" lon="6.17946">
        <ele>201.7</ele>
        <time>2024-03-27T14:29:17Z</time>
      </trkpt>
      <trkpt lat="43.48729" lon="6.17946">
        <ele>201.6</ele>
        <time>2024-03-27T14:29:18Z</time>
      </trkpt>
      <trkpt lat="43.48729" lon="6.17946">
        <ele>201.6</ele>
        <time>2024-03-27T14:29:19Z</time>
      </trkpt>
      <trkpt lat="43.4873" lon="6.17947">
        <ele>201.6</ele>
        <time>2024-03-27T14:29:20Z</time>
      </trkpt>
      <trkpt lat="43.48731" lon="6.17947">
        <ele>201.5</ele>
        <time>2024-03-27T14:29:21Z</time>
      </trkpt>
      <trkpt lat="43.48732" lon="6.17946">
        <ele>201.5</ele>
        <time>2024-03-27T14:29:22Z</time>
      </trkpt>
      <trkpt lat="43.48732" lon="6.17946">
        <ele>201.6</ele>
        <time>2024-03-27T14:29:23Z</time>
      </trkpt>
      <trkpt lat="43.48733" lon="6.17946">
        <ele>201.5</ele>
        <time>2024-03-27T14:29:24Z</time>
      </trkpt>
      <trkpt lat="43.48733" lon="6.17946">
        <ele>201.6</ele>
        <time>2024-03-27T14:29:25Z</time>
      </trkpt>
      <trkpt lat="43.48733" lon="6.17945">
        <ele>201.6</ele>
        <time>2024-03-27T14:29:26Z</time>
      </trkpt>
      <trkpt lat="43.48734" lon="6.17945">
        <ele>201.7</ele>
        <time>2024-03-27T14:29:27Z</time>
      </trkpt>
      <trkpt lat="43.48734" lon="6.17945">
        <ele>201.7</ele>
        <time>2024-03-27T14:29:28Z</time>
      </trkpt>
      <trkpt lat="43.48734" lon="6.17944">
        <ele>201.8</ele>
        <time>2024-03-27T14:29:29Z</time>
      </trkpt>
      <trkpt lat="43.48735" lon="6.17943">
        <ele>201.9</ele>
        <time>2024-03-27T14:29:30Z</time>
      </trkpt>
      <trkpt lat="43.48735" lon="6.17942">
        <ele>201.8</ele>
        <time>2024-03-27T14:29:31Z</time>
      </trkpt>
      <trkpt lat="43.48735" lon="6.17941">
        <ele>201.8</ele>
        <time>2024-03-27T14:29:32Z</time>
      </trkpt>
      <trkpt lat="43.48735" lon="6.17941">
        <ele>201.8</ele>
        <time>2024-03-27T14:29:33Z</time>
      </trkpt>
      <trkpt lat="43.48735" lon="6.1794">
        <ele>201.8</ele>
        <time>2024-03-27T14:29:34Z</time>
      </trkpt>
      <trkpt lat="43.48735" lon="6.17939">
        <ele>201.8</ele>
        <time>2024-03-27T14:29:35Z</time>
      </trkpt>
      <trkpt lat="43.48735" lon="6.17938">
        <ele>201.8</ele>
        <time>2024-03-27T14:29:36Z</time>
      </trkpt>
      <trkpt lat="43.48735" lon="6.17937">
        <ele>201.7</ele>
        <time>2024-03-27T14:29:37Z</time>
      </trkpt>
      <trkpt lat="43.48735" lon="6.17937">
        <ele>201.7</ele>
        <time>2024-03-27T14:29:38Z</time>
      </trkpt>
      <trkpt lat="43.48735" lon="6.17936">
        <ele>201.8</ele>
        <time>2024-03-27T14:29:39Z</time>
      </trkpt>
      <trkpt lat="43.48735" lon="6.17936">
        <ele>201.8</ele>
        <time>2024-03-27T14:29:40Z</time>
      </trkpt>
      <trkpt lat="43.48735" lon="6.17936">
        <ele>201.9</ele>
        <time>2024-03-27T14:29:41Z</time>
      </trkpt>
      <trkpt lat="43.48735" lon="6.17936">
        <ele>202</ele>
        <time>2024-03-27T14:29:42Z</time>
      </trkpt>
      <trkpt lat="43.48735" lon="6.17936">
        <ele>202</ele>
        <time>2024-03-27T14:29:43Z</time>
      </trkpt>
      <trkpt lat="43.48736" lon="6.17936">
        <ele>202.1</ele>
        <time>2024-03-27T14:29:44Z</time>
      </trkpt>
      <trkpt lat="43.48736" lon="6.17935">
        <ele>202.1</ele>
        <time>2024-03-27T14:29:45Z</time>
      </trkpt>
      <trkpt lat="43.48736" lon="6.17935">
        <ele>202.1</ele>
        <time>2024-03-27T14:29:46Z</time>
      </trkpt>
      <trkpt lat="43.48736" lon="6.17935">
        <ele>202.1</ele>
        <time>2024-03-27T14:29:47Z</time>
      </trkpt>
      <trkpt lat="43.48736" lon="6.17935">
        <ele>202</ele>
        <time>2024-03-27T14:29:48Z</time>
      </trkpt>
      <trkpt lat="43.48736" lon="6.17935">
        <ele>202</ele>
        <time>2024-03-27T14:29:49Z</time>
      </trkpt>
      <trkpt lat="43.48736" lon="6.17935">
        <ele>202</ele>
        <time>2024-03-27T14:29:50Z</time>
      </trkpt>
      <trkpt lat="43.48736" lon="6.17935">
        <ele>202</ele>
        <time>2024-03-27T14:29:51Z</time>
      </trkpt>
      <trkpt lat="43.48736" lon="6.17935">
        <ele>202</ele>
        <time>2024-03-27T14:29:52Z</time>
      </trkpt>
      <trkpt lat="43.48736" lon="6.17935">
        <ele>202.1</ele>
        <time>2024-03-27T14:29:53Z</time>
      </trkpt>
      <trkpt lat="43.48736" lon="6.17935">
        <ele>202.1</ele>
        <time>2024-03-27T14:29:54Z</time>
      </trkpt>
      <trkpt lat="43.48736" lon="6.17934">
        <ele>202.1</ele>
        <time>2024-03-27T14:29:55Z</time>
      </trkpt>
      <trkpt lat="43.48736" lon="6.17934">
        <ele>202.1</ele>
        <time>2024-03-27T14:29:56Z</time>
      </trkpt>
      <trkpt lat="43.48736" lon="6.17934">
        <ele>202</ele>
        <time>2024-03-27T14:29:57Z</time>
      </trkpt>
      <trkpt lat="43.48736" lon="6.17934">
        <ele>201.9</ele>
        <time>2024-03-27T14:29:58Z</time>
      </trkpt>
      <trkpt lat="43.48736" lon="6.17934">
        <ele>201.9</ele>
        <time>2024-03-27T14:29:59Z</time>
      </trkpt>
      <trkpt lat="43.48736" lon="6.17934">
        <ele>201.9</ele>
        <time>2024-03-27T14:30:00Z</time>
      </trkpt>
      <trkpt lat="43.48736" lon="6.17934">
        <ele>201.9</ele>
        <time>2024-03-27T14:30:01Z</time>
      </trkpt>
      <trkpt lat="43.48736" lon="6.17934">
        <ele>201.9</ele>
        <time>2024-03-27T14:30:02Z</time>
      </trkpt>
      <trkpt lat="43.48736" lon="6.17934">
        <ele>202</ele>
        <time>2024-03-27T14:30:03Z</time>
      </trkpt>
      <trkpt lat="43.48736" lon="6.17933">
        <ele>202.1</ele>
        <time>2024-03-27T14:30:04Z</time>
      </trkpt>
      <trkpt lat="43.48736" lon="6.17933">
        <ele>202.2</ele>
        <time>2024-03-27T14:30:05Z</time>
      </trkpt>
      <trkpt lat="43.48736" lon="6.17933">
        <ele>202.2</ele>
        <time>2024-03-27T14:30:06Z</time>
      </trkpt>
      <trkpt lat="43.48736" lon="6.17933">
        <ele>202.2</ele>
        <time>2024-03-27T14:30:07Z</time>
      </trkpt>
      <trkpt lat="43.48736" lon="6.17933">
        <ele>202.2</ele>
        <time>2024-03-27T14:30:08Z</time>
      </trkpt>
      <trkpt lat="43.48736" lon="6.17933">
        <ele>202.1</ele>
        <time>2024-03-27T14:30:09Z</time>
      </trkpt>
      <trkpt lat="43.48736" lon="6.17933">
        <ele>202.1</ele>
        <time>2024-03-27T14:30:10Z</time>
      </trkpt>
      <trkpt lat="43.48736" lon="6.17933">
        <ele>202</ele>
        <time>2024-03-27T14:30:11Z</time>
      </trkpt>
      <trkpt lat="43.48736" lon="6.17933">
        <ele>201.9</ele>
        <time>2024-03-27T14:30:12Z</time>
      </trkpt>
      <trkpt lat="43.48736" lon="6.17933">
        <ele>201.9</ele>
        <time>2024-03-27T14:30:13Z</time>
      </trkpt>
      <trkpt lat="43.48737" lon="6.17933">
        <ele>201.9</ele>
        <time>2024-03-27T14:30:14Z</time>
      </trkpt>
      <trkpt lat="43.48737" lon="6.17933">
        <ele>201.9</ele>
        <time>2024-03-27T14:30:15Z</time>
      </trkpt>
      <trkpt lat="43.48737" lon="6.17933">
        <ele>201.9</ele>
        <time>2024-03-27T14:30:16Z</time>
      </trkpt>
      <trkpt lat="43.48737" lon="6.17933">
        <ele>201.9</ele>
        <time>2024-03-27T14:30:17Z</time>
      </trkpt>
      <trkpt lat="43.48737" lon="6.17932">
        <ele>201.8</ele>
        <time>2024-03-27T14:30:18Z</time>
      </trkpt>
      <trkpt lat="43.48737" lon="6.17932">
        <ele>201.8</ele>
        <time>2024-03-27T14:30:19Z</time>
      </trkpt>
      <trkpt lat="43.48737" lon="6.17933">
        <ele>201.7</ele>
        <time>2024-03-27T14:30:20Z</time>
      </trkpt>
      <trkpt lat="43.48737" lon="6.17933">
        <ele>201.7</ele>
        <time>2024-03-27T14:30:21Z</time>
      </trkpt>
      <trkpt lat="43.48738" lon="6.17934">
        <ele>201.7</ele>
        <time>2024-03-27T14:30:22Z</time>
      </trkpt>
      <trkpt lat="43.48738" lon="6.17934">
        <ele>201.8</ele>
        <time>2024-03-27T14:30:23Z</time>
      </trkpt>
      <trkpt lat="43.48739" lon="6.17934">
        <ele>201.8</ele>
        <time>2024-03-27T14:30:24Z</time>
      </trkpt>
      <trkpt lat="43.4874" lon="6.17934">
        <ele>201.8</ele>
        <time>2024-03-27T14:30:25Z</time>
      </trkpt>
      <trkpt lat="43.48741" lon="6.17935">
        <ele>201.8</ele>
        <time>2024-03-27T14:30:26Z</time>
      </trkpt>
      <trkpt lat="43.48741" lon="6.17935">
        <ele>201.8</ele>
        <time>2024-03-27T14:30:27Z</time>
      </trkpt>
      <trkpt lat="43.48742" lon="6.17936">
        <ele>201.9</ele>
        <time>2024-03-27T14:30:28Z</time>
      </trkpt>
      <trkpt lat="43.48743" lon="6.17937">
        <ele>202.1</ele>
        <time>2024-03-27T14:30:29Z</time>
      </trkpt>
      <trkpt lat="43.48744" lon="6.17937">
        <ele>202</ele>
        <time>2024-03-27T14:30:30Z</time>
      </trkpt>
      <trkpt lat="43.48745" lon="6.17938">
        <ele>201.9</ele>
        <time>2024-03-27T14:30:31Z</time>
      </trkpt>
      <trkpt lat="43.48746" lon="6.17938">
        <ele>202</ele>
        <time>2024-03-27T14:30:32Z</time>
      </trkpt>
      <trkpt lat="43.48747" lon="6.17939">
        <ele>202</ele>
        <time>2024-03-27T14:30:33Z</time>
      </trkpt>
      <trkpt lat="43.48748" lon="6.17939">
        <ele>202.1</ele>
        <time>2024-03-27T14:30:34Z</time>
      </trkpt>
      <trkpt lat="43.48749" lon="6.17939">
        <ele>202.1</ele>
        <time>2024-03-27T14:30:35Z</time>
      </trkpt>
      <trkpt lat="43.4875" lon="6.17939">
        <ele>202.1</ele>
        <time>2024-03-27T14:30:36Z</time>
      </trkpt>
      <trkpt lat="43.48751" lon="6.17939">
        <ele>202.1</ele>
        <time>2024-03-27T14:30:37Z</time>
      </trkpt>
      <trkpt lat="43.48752" lon="6.1794">
        <ele>202.1</ele>
        <time>2024-03-27T14:30:38Z</time>
      </trkpt>
      <trkpt lat="43.48753" lon="6.1794">
        <ele>202.1</ele>
        <time>2024-03-27T14:30:39Z</time>
      </trkpt>
      <trkpt lat="43.48754" lon="6.17941">
        <ele>202.1</ele>
        <time>2024-03-27T14:30:40Z</time>
      </trkpt>
      <trkpt lat="43.48755" lon="6.17942">
        <ele>202.1</ele>
        <time>2024-03-27T14:30:41Z</time>
      </trkpt>
      <trkpt lat="43.48756" lon="6.17942">
        <ele>202.1</ele>
        <time>2024-03-27T14:30:42Z</time>
      </trkpt>
      <trkpt lat="43.48757" lon="6.17942">
        <ele>202.1</ele>
        <time>2024-03-27T14:30:43Z</time>
      </trkpt>
      <trkpt lat="43.48758" lon="6.17943">
        <ele>202.2</ele>
        <time>2024-03-27T14:30:44Z</time>
      </trkpt>
      <trkpt lat="43.48759" lon="6.17943">
        <ele>202.2</ele>
        <time>2024-03-27T14:30:45Z</time>
      </trkpt>
      <trkpt lat="43.4876" lon="6.17944">
        <ele>202.3</ele>
        <time>2024-03-27T14:30:46Z</time>
      </trkpt>
      <trkpt lat="43.48762" lon="6.17944">
        <ele>202.4</ele>
        <time>2024-03-27T14:30:47Z</time>
      </trkpt>
      <trkpt lat="43.48763" lon="6.17944">
        <ele>202.4</ele>
        <time>2024-03-27T14:30:48Z</time>
      </trkpt>
      <trkpt lat="43.48764" lon="6.17945">
        <ele>202.5</ele>
        <time>2024-03-27T14:30:49Z</time>
      </trkpt>
      <trkpt lat="43.48765" lon="6.17945">
        <ele>202.5</ele>
        <time>2024-03-27T14:30:50Z</time>
      </trkpt>
      <trkpt lat="43.48766" lon="6.17946">
        <ele>202.4</ele>
        <time>2024-03-27T14:30:51Z</time>
      </trkpt>
      <trkpt lat="43.48766" lon="6.17947">
        <ele>202.4</ele>
        <time>2024-03-27T14:30:52Z</time>
      </trkpt>
      <trkpt lat="43.48767" lon="6.17948">
        <ele>202.5</ele>
        <time>2024-03-27T14:30:53Z</time>
      </trkpt>
      <trkpt lat="43.48768" lon="6.17949">
        <ele>202.4</ele>
        <time>2024-03-27T14:30:54Z</time>
      </trkpt>
      <trkpt lat="43.48769" lon="6.1795">
        <ele>202.3</ele>
        <time>2024-03-27T14:30:55Z</time>
      </trkpt>
      <trkpt lat="43.4877" lon="6.17951">
        <ele>202.2</ele>
        <time>2024-03-27T14:30:56Z</time>
      </trkpt>
      <trkpt lat="43.48771" lon="6.17952">
        <ele>202.1</ele>
        <time>2024-03-27T14:30:57Z</time>
      </trkpt>
      <trkpt lat="43.48771" lon="6.17953">
        <ele>202.2</ele>
        <time>2024-03-27T14:30:58Z</time>
      </trkpt>
      <trkpt lat="43.48772" lon="6.17955">
        <ele>202.2</ele>
        <time>2024-03-27T14:30:59Z</time>
      </trkpt>
      <trkpt lat="43.48773" lon="6.17956">
        <ele>202.1</ele>
        <time>2024-03-27T14:31:00Z</time>
      </trkpt>
      <trkpt lat="43.48774" lon="6.17957">
        <ele>202.1</ele>
        <time>2024-03-27T14:31:01Z</time>
      </trkpt>
      <trkpt lat="43.48774" lon="6.17958">
        <ele>202.2</ele>
        <time>2024-03-27T14:31:02Z</time>
      </trkpt>
      <trkpt lat="43.48775" lon="6.17959">
        <ele>202.2</ele>
        <time>2024-03-27T14:31:03Z</time>
      </trkpt>
      <trkpt lat="43.48776" lon="6.1796">
        <ele>202.3</ele>
        <time>2024-03-27T14:31:04Z</time>
      </trkpt>
      <trkpt lat="43.48776" lon="6.17961">
        <ele>202.3</ele>
        <time>2024-03-27T14:31:05Z</time>
      </trkpt>
      <trkpt lat="43.48777" lon="6.17962">
        <ele>202.2</ele>
        <time>2024-03-27T14:31:06Z</time>
      </trkpt>
      <trkpt lat="43.48778" lon="6.17963">
        <ele>202.2</ele>
        <time>2024-03-27T14:31:07Z</time>
      </trkpt>
      <trkpt lat="43.48779" lon="6.17964">
        <ele>202.3</ele>
        <time>2024-03-27T14:31:08Z</time>
      </trkpt>
      <trkpt lat="43.48779" lon="6.17964">
        <ele>202.3</ele>
        <time>2024-03-27T14:31:09Z</time>
      </trkpt>
      <trkpt lat="43.4878" lon="6.17964">
        <ele>202.3</ele>
        <time>2024-03-27T14:31:10Z</time>
      </trkpt>
      <trkpt lat="43.4878" lon="6.17964">
        <ele>202.4</ele>
        <time>2024-03-27T14:31:11Z</time>
      </trkpt>
      <trkpt lat="43.4878" lon="6.17964">
        <ele>202.3</ele>
        <time>2024-03-27T14:31:12Z</time>
      </trkpt>
      <trkpt lat="43.4878" lon="6.17964">
        <ele>202.4</ele>
        <time>2024-03-27T14:31:13Z</time>
      </trkpt>
      <trkpt lat="43.4878" lon="6.17964">
        <ele>202.4</ele>
        <time>2024-03-27T14:31:14Z</time>
      </trkpt>
      <trkpt lat="43.4878" lon="6.17963">
        <ele>202.4</ele>
        <time>2024-03-27T14:31:15Z</time>
      </trkpt>
      <trkpt lat="43.48781" lon="6.17963">
        <ele>202.4</ele>
        <time>2024-03-27T14:31:16Z</time>
      </trkpt>
      <trkpt lat="43.48782" lon="6.17963">
        <ele>202.5</ele>
        <time>2024-03-27T14:31:17Z</time>
      </trkpt>
      <trkpt lat="43.48782" lon="6.17962">
        <ele>202.6</ele>
        <time>2024-03-27T14:31:18Z</time>
      </trkpt>
      <trkpt lat="43.48783" lon="6.17961">
        <ele>202.7</ele>
        <time>2024-03-27T14:31:19Z</time>
      </trkpt>
      <trkpt lat="43.48784" lon="6.1796">
        <ele>202.7</ele>
        <time>2024-03-27T14:31:20Z</time>
      </trkpt>
      <trkpt lat="43.48784" lon="6.17958">
        <ele>202.7</ele>
        <time>2024-03-27T14:31:21Z</time>
      </trkpt>
      <trkpt lat="43.48785" lon="6.17957">
        <ele>202.7</ele>
        <time>2024-03-27T14:31:22Z</time>
      </trkpt>
      <trkpt lat="43.48786" lon="6.17956">
        <ele>202.7</ele>
        <time>2024-03-27T14:31:23Z</time>
      </trkpt>
      <trkpt lat="43.48786" lon="6.17955">
        <ele>202.7</ele>
        <time>2024-03-27T14:31:24Z</time>
      </trkpt>
      <trkpt lat="43.48787" lon="6.17953">
        <ele>202.7</ele>
        <time>2024-03-27T14:31:25Z</time>
      </trkpt>
      <trkpt lat="43.48787" lon="6.17951">
        <ele>202.7</ele>
        <time>2024-03-27T14:31:26Z</time>
      </trkpt>
      <trkpt lat="43.48788" lon="6.1795">
        <ele>202.7</ele>
        <time>2024-03-27T14:31:27Z</time>
      </trkpt>
      <trkpt lat="43.48788" lon="6.17948">
        <ele>202.7</ele>
        <time>2024-03-27T14:31:28Z</time>
      </trkpt>
      <trkpt lat="43.48788" lon="6.17947">
        <ele>202.6</ele>
        <time>2024-03-27T14:31:29Z</time>
      </trkpt>
      <trkpt lat="43.48789" lon="6.17946">
        <ele>202.6</ele>
        <time>2024-03-27T14:31:30Z</time>
      </trkpt>
      <trkpt lat="43.4879" lon="6.17944">
        <ele>202.6</ele>
        <time>2024-03-27T14:31:31Z</time>
      </trkpt>
      <trkpt lat="43.4879" lon="6.17943">
        <ele>202.7</ele>
        <time>2024-03-27T14:31:32Z</time>
      </trkpt>
      <trkpt lat="43.48791" lon="6.17943">
        <ele>202.8</ele>
        <time>2024-03-27T14:31:33Z</time>
      </trkpt>
      <trkpt lat="43.48792" lon="6.17942">
        <ele>202.8</ele>
        <time>2024-03-27T14:31:34Z</time>
      </trkpt>
      <trkpt lat="43.48793" lon="6.1794">
        <ele>202.8</ele>
        <time>2024-03-27T14:31:35Z</time>
      </trkpt>
      <trkpt lat="43.48794" lon="6.17939">
        <ele>202.8</ele>
        <time>2024-03-27T14:31:36Z</time>
      </trkpt>
      <trkpt lat="43.48795" lon="6.17937">
        <ele>202.8</ele>
        <time>2024-03-27T14:31:37Z</time>
      </trkpt>
      <trkpt lat="43.48796" lon="6.17936">
        <ele>202.7</ele>
        <time>2024-03-27T14:31:38Z</time>
      </trkpt>
      <trkpt lat="43.48796" lon="6.17934">
        <ele>202.7</ele>
        <time>2024-03-27T14:31:39Z</time>
      </trkpt>
      <trkpt lat="43.48796" lon="6.17933">
        <ele>202.7</ele>
        <time>2024-03-27T14:31:40Z</time>
      </trkpt>
      <trkpt lat="43.48796" lon="6.17931">
        <ele>202.8</ele>
        <time>2024-03-27T14:31:41Z</time>
      </trkpt>
      <trkpt lat="43.48796" lon="6.17929">
        <ele>202.8</ele>
        <time>2024-03-27T14:31:42Z</time>
      </trkpt>
      <trkpt lat="43.48797" lon="6.17927">
        <ele>202.8</ele>
        <time>2024-03-27T14:31:43Z</time>
      </trkpt>
      <trkpt lat="43.48798" lon="6.17924">
        <ele>202.8</ele>
        <time>2024-03-27T14:31:44Z</time>
      </trkpt>
      <trkpt lat="43.48799" lon="6.17922">
        <ele>202.8</ele>
        <time>2024-03-27T14:31:45Z</time>
      </trkpt>
      <trkpt lat="43.488" lon="6.17919">
        <ele>202.9</ele>
        <time>2024-03-27T14:31:46Z</time>
      </trkpt>
      <trkpt lat="43.48802" lon="6.17917">
        <ele>202.9</ele>
        <time>2024-03-27T14:31:47Z</time>
      </trkpt>
      <trkpt lat="43.48803" lon="6.17914">
        <ele>202.8</ele>
        <time>2024-03-27T14:31:48Z</time>
      </trkpt>
      <trkpt lat="43.48805" lon="6.17912">
        <ele>202.8</ele>
        <time>2024-03-27T14:31:49Z</time>
      </trkpt>
      <trkpt lat="43.48806" lon="6.17909">
        <ele>202.8</ele>
        <time>2024-03-27T14:31:50Z</time>
      </trkpt>
      <trkpt lat="43.48808" lon="6.17907">
        <ele>202.9</ele>
        <time>2024-03-27T14:31:51Z</time>
      </trkpt>
      <trkpt lat="43.48809" lon="6.17906">
        <ele>202.9</ele>
        <time>2024-03-27T14:31:52Z</time>
      </trkpt>
      <trkpt lat="43.48811" lon="6.17905">
        <ele>202.9</ele>
        <time>2024-03-27T14:31:53Z</time>
      </trkpt>
      <trkpt lat="43.48813" lon="6.17905">
        <ele>203</ele>
        <time>2024-03-27T14:31:54Z</time>
      </trkpt>
      <trkpt lat="43.48815" lon="6.17904">
        <ele>203.1</ele>
        <time>2024-03-27T14:31:55Z</time>
      </trkpt>
      <trkpt lat="43.48817" lon="6.17902">
        <ele>203</ele>
        <time>2024-03-27T14:31:56Z</time>
      </trkpt>
      <trkpt lat="43.48819" lon="6.179">
        <ele>203.1</ele>
        <time>2024-03-27T14:31:57Z</time>
      </trkpt>
      <trkpt lat="43.48821" lon="6.17898">
        <ele>203.2</ele>
        <time>2024-03-27T14:31:58Z</time>
      </trkpt>
      <trkpt lat="43.48822" lon="6.17895">
        <ele>203.3</ele>
        <time>2024-03-27T14:31:59Z</time>
      </trkpt>
      <trkpt lat="43.48823" lon="6.17894">
        <ele>203.2</ele>
        <time>2024-03-27T14:32:00Z</time>
      </trkpt>
      <trkpt lat="43.48823" lon="6.17893">
        <ele>203.3</ele>
        <time>2024-03-27T14:32:01Z</time>
      </trkpt>
      <trkpt lat="43.48823" lon="6.17892">
        <ele>203.1</ele>
        <time>2024-03-27T14:32:02Z</time>
      </trkpt>
      <trkpt lat="43.48824" lon="6.17891">
        <ele>203.1</ele>
        <time>2024-03-27T14:32:03Z</time>
      </trkpt>
      <trkpt lat="43.48825" lon="6.17889">
        <ele>203.2</ele>
        <time>2024-03-27T14:32:04Z</time>
      </trkpt>
      <trkpt lat="43.48826" lon="6.17888">
        <ele>203.1</ele>
        <time>2024-03-27T14:32:05Z</time>
      </trkpt>
      <trkpt lat="43.48827" lon="6.17886">
        <ele>203.1</ele>
        <time>2024-03-27T14:32:06Z</time>
      </trkpt>
      <trkpt lat="43.48828" lon="6.17884">
        <ele>203.1</ele>
        <time>2024-03-27T14:32:07Z</time>
      </trkpt>
      <trkpt lat="43.48828" lon="6.17883">
        <ele>203</ele>
        <time>2024-03-27T14:32:08Z</time>
      </trkpt>
      <trkpt lat="43.48829" lon="6.17882">
        <ele>202.9</ele>
        <time>2024-03-27T14:32:09Z</time>
      </trkpt>
      <trkpt lat="43.4883" lon="6.17881">
        <ele>202.8</ele>
        <time>2024-03-27T14:32:10Z</time>
      </trkpt>
      <trkpt lat="43.48831" lon="6.17879">
        <ele>202.7</ele>
        <time>2024-03-27T14:32:11Z</time>
      </trkpt>
      <trkpt lat="43.48831" lon="6.17878">
        <ele>202.7</ele>
        <time>2024-03-27T14:32:12Z</time>
      </trkpt>
      <trkpt lat="43.48832" lon="6.17877">
        <ele>202.7</ele>
        <time>2024-03-27T14:32:13Z</time>
      </trkpt>
      <trkpt lat="43.48833" lon="6.17876">
        <ele>202.7</ele>
        <time>2024-03-27T14:32:14Z</time>
      </trkpt>
      <trkpt lat="43.48834" lon="6.17875">
        <ele>202.7</ele>
        <time>2024-03-27T14:32:15Z</time>
      </trkpt>
      <trkpt lat="43.48835" lon="6.17873">
        <ele>202.8</ele>
        <time>2024-03-27T14:32:16Z</time>
      </trkpt>
      <trkpt lat="43.48837" lon="6.17872">
        <ele>202.8</ele>
        <time>2024-03-27T14:32:17Z</time>
      </trkpt>
      <trkpt lat="43.48838" lon="6.17871">
        <ele>202.8</ele>
        <time>2024-03-27T14:32:18Z</time>
      </trkpt>
      <trkpt lat="43.48839" lon="6.1787">
        <ele>202.9</ele>
        <time>2024-03-27T14:32:19Z</time>
      </trkpt>
      <trkpt lat="43.4884" lon="6.1787">
        <ele>202.9</ele>
        <time>2024-03-27T14:32:20Z</time>
      </trkpt>
      <trkpt lat="43.48841" lon="6.17869">
        <ele>202.9</ele>
        <time>2024-03-27T14:32:21Z</time>
      </trkpt>
      <trkpt lat="43.48842" lon="6.17868">
        <ele>202.5</ele>
        <time>2024-03-27T14:32:22Z</time>
      </trkpt>
      <trkpt lat="43.48843" lon="6.17867">
        <ele>202.5</ele>
        <time>2024-03-27T14:32:23Z</time>
      </trkpt>
      <trkpt lat="43.48845" lon="6.17866">
        <ele>202.4</ele>
        <time>2024-03-27T14:32:24Z</time>
      </trkpt>
      <trkpt lat="43.48846" lon="6.17865">
        <ele>202.4</ele>
        <time>2024-03-27T14:32:25Z</time>
      </trkpt>
      <trkpt lat="43.48847" lon="6.17865">
        <ele>202.4</ele>
        <time>2024-03-27T14:32:26Z</time>
      </trkpt>
      <trkpt lat="43.48848" lon="6.17865">
        <ele>202.4</ele>
        <time>2024-03-27T14:32:27Z</time>
      </trkpt>
      <trkpt lat="43.48849" lon="6.17865">
        <ele>202.4</ele>
        <time>2024-03-27T14:32:28Z</time>
      </trkpt>
      <trkpt lat="43.4885" lon="6.17865">
        <ele>202.4</ele>
        <time>2024-03-27T14:32:29Z</time>
      </trkpt>
      <trkpt lat="43.48851" lon="6.17864">
        <ele>202.3</ele>
        <time>2024-03-27T14:32:30Z</time>
      </trkpt>
      <trkpt lat="43.48852" lon="6.17864">
        <ele>202.4</ele>
        <time>2024-03-27T14:32:31Z</time>
      </trkpt>
      <trkpt lat="43.48853" lon="6.17864">
        <ele>202.4</ele>
        <time>2024-03-27T14:32:32Z</time>
      </trkpt>
      <trkpt lat="43.48854" lon="6.17863">
        <ele>202.5</ele>
        <time>2024-03-27T14:32:33Z</time>
      </trkpt>
      <trkpt lat="43.48854" lon="6.17863">
        <ele>202.5</ele>
        <time>2024-03-27T14:32:34Z</time>
      </trkpt>
      <trkpt lat="43.48853" lon="6.17863">
        <ele>202.5</ele>
        <time>2024-03-27T14:32:35Z</time>
      </trkpt>
      <trkpt lat="43.48853" lon="6.17864">
        <ele>202.8</ele>
        <time>2024-03-27T14:32:36Z</time>
      </trkpt>
      <trkpt lat="43.48854" lon="6.17864">
        <ele>202.8</ele>
        <time>2024-03-27T14:32:37Z</time>
      </trkpt>
      <trkpt lat="43.48854" lon="6.17864">
        <ele>202.7</ele>
        <time>2024-03-27T14:32:38Z</time>
      </trkpt>
      <trkpt lat="43.48854" lon="6.17863">
        <ele>202.8</ele>
        <time>2024-03-27T14:32:39Z</time>
      </trkpt>
      <trkpt lat="43.48854" lon="6.17863">
        <ele>202.6</ele>
        <time>2024-03-27T14:32:40Z</time>
      </trkpt>
      <trkpt lat="43.48854" lon="6.17864">
        <ele>202.4</ele>
        <time>2024-03-27T14:32:41Z</time>
      </trkpt>
      <trkpt lat="43.48854" lon="6.17865">
        <ele>202.3</ele>
        <time>2024-03-27T14:32:42Z</time>
      </trkpt>
      <trkpt lat="43.48854" lon="6.17865">
        <ele>202.3</ele>
        <time>2024-03-27T14:32:43Z</time>
      </trkpt>
      <trkpt lat="43.48854" lon="6.17864">
        <ele>202.3</ele>
        <time>2024-03-27T14:32:44Z</time>
      </trkpt>
      <trkpt lat="43.48854" lon="6.17864">
        <ele>202.3</ele>
        <time>2024-03-27T14:32:45Z</time>
      </trkpt>
      <trkpt lat="43.48854" lon="6.17863">
        <ele>202</ele>
        <time>2024-03-27T14:32:46Z</time>
      </trkpt>
      <trkpt lat="43.48854" lon="6.17864">
        <ele>201.4</ele>
        <time>2024-03-27T14:32:47Z</time>
      </trkpt>
      <trkpt lat="43.48855" lon="6.17864">
        <ele>201.6</ele>
        <time>2024-03-27T14:32:48Z</time>
      </trkpt>
      <trkpt lat="43.48855" lon="6.17863">
        <ele>201.7</ele>
        <time>2024-03-27T14:32:49Z</time>
      </trkpt>
      <trkpt lat="43.48855" lon="6.17863">
        <ele>201.8</ele>
        <time>2024-03-27T14:32:50Z</time>
      </trkpt>
      <trkpt lat="43.48855" lon="6.17862">
        <ele>201.9</ele>
        <time>2024-03-27T14:32:51Z</time>
      </trkpt>
      <trkpt lat="43.48855" lon="6.17862">
        <ele>202.1</ele>
        <time>2024-03-27T14:32:52Z</time>
      </trkpt>
      <trkpt lat="43.48855" lon="6.17862">
        <ele>202.2</ele>
        <time>2024-03-27T14:32:53Z</time>
      </trkpt>
      <trkpt lat="43.48855" lon="6.17862">
        <ele>202.2</ele>
        <time>2024-03-27T14:32:54Z</time>
      </trkpt>
      <trkpt lat="43.48856" lon="6.17862">
        <ele>202.3</ele>
        <time>2024-03-27T14:32:55Z</time>
      </trkpt>
      <trkpt lat="43.48856" lon="6.17862">
        <ele>202.4</ele>
        <time>2024-03-27T14:32:56Z</time>
      </trkpt>
      <trkpt lat="43.48856" lon="6.17862">
        <ele>202.4</ele>
        <time>2024-03-27T14:32:57Z</time>
      </trkpt>
      <trkpt lat="43.48857" lon="6.17863">
        <ele>202.4</ele>
        <time>2024-03-27T14:32:58Z</time>
      </trkpt>
      <trkpt lat="43.48858" lon="6.17863">
        <ele>202.5</ele>
        <time>2024-03-27T14:32:59Z</time>
      </trkpt>
      <trkpt lat="43.48859" lon="6.17863">
        <ele>202.5</ele>
        <time>2024-03-27T14:33:00Z</time>
      </trkpt>
      <trkpt lat="43.4886" lon="6.17862">
        <ele>202.7</ele>
        <time>2024-03-27T14:33:01Z</time>
      </trkpt>
      <trkpt lat="43.48861" lon="6.17861">
        <ele>202.7</ele>
        <time>2024-03-27T14:33:02Z</time>
      </trkpt>
      <trkpt lat="43.48863" lon="6.17861">
        <ele>202.6</ele>
        <time>2024-03-27T14:33:03Z</time>
      </trkpt>
      <trkpt lat="43.48863" lon="6.1786">
        <ele>202.5</ele>
        <time>2024-03-27T14:33:04Z</time>
      </trkpt>
      <trkpt lat="43.48864" lon="6.1786">
        <ele>202.4</ele>
        <time>2024-03-27T14:33:05Z</time>
      </trkpt>
      <trkpt lat="43.48865" lon="6.17859">
        <ele>202.4</ele>
        <time>2024-03-27T14:33:06Z</time>
      </trkpt>
      <trkpt lat="43.48866" lon="6.17858">
        <ele>202.4</ele>
        <time>2024-03-27T14:33:07Z</time>
      </trkpt>
      <trkpt lat="43.48867" lon="6.17858">
        <ele>202.3</ele>
        <time>2024-03-27T14:33:08Z</time>
      </trkpt>
      <trkpt lat="43.48868" lon="6.17858">
        <ele>202.3</ele>
        <time>2024-03-27T14:33:09Z</time>
      </trkpt>
      <trkpt lat="43.48869" lon="6.17858">
        <ele>202.3</ele>
        <time>2024-03-27T14:33:10Z</time>
      </trkpt>
      <trkpt lat="43.4887" lon="6.17858">
        <ele>202.2</ele>
        <time>2024-03-27T14:33:11Z</time>
      </trkpt>
      <trkpt lat="43.48871" lon="6.17857">
        <ele>202.2</ele>
        <time>2024-03-27T14:33:12Z</time>
      </trkpt>
      <trkpt lat="43.48872" lon="6.17857">
        <ele>202.1</ele>
        <time>2024-03-27T14:33:13Z</time>
      </trkpt>
      <trkpt lat="43.48873" lon="6.17856">
        <ele>202</ele>
        <time>2024-03-27T14:33:14Z</time>
      </trkpt>
      <trkpt lat="43.48874" lon="6.17856">
        <ele>201.9</ele>
        <time>2024-03-27T14:33:15Z</time>
      </trkpt>
      <trkpt lat="43.48875" lon="6.17855">
        <ele>201.8</ele>
        <time>2024-03-27T14:33:16Z</time>
      </trkpt>
      <trkpt lat="43.48876" lon="6.17854">
        <ele>201.7</ele>
        <time>2024-03-27T14:33:17Z</time>
      </trkpt>
      <trkpt lat="43.48878" lon="6.17853">
        <ele>201.8</ele>
        <time>2024-03-27T14:33:18Z</time>
      </trkpt>
      <trkpt lat="43.48879" lon="6.17852">
        <ele>201.7</ele>
        <time>2024-03-27T14:33:19Z</time>
      </trkpt>
      <trkpt lat="43.4888" lon="6.17851">
        <ele>201.7</ele>
        <time>2024-03-27T14:33:20Z</time>
      </trkpt>
      <trkpt lat="43.48881" lon="6.1785">
        <ele>201.7</ele>
        <time>2024-03-27T14:33:21Z</time>
      </trkpt>
      <trkpt lat="43.48883" lon="6.17849">
        <ele>201.7</ele>
        <time>2024-03-27T14:33:22Z</time>
      </trkpt>
      <trkpt lat="43.48884" lon="6.17849">
        <ele>201.7</ele>
        <time>2024-03-27T14:33:23Z</time>
      </trkpt>
      <trkpt lat="43.48884" lon="6.17848">
        <ele>201.6</ele>
        <time>2024-03-27T14:33:24Z</time>
      </trkpt>
      <trkpt lat="43.48885" lon="6.17847">
        <ele>201.7</ele>
        <time>2024-03-27T14:33:25Z</time>
      </trkpt>
      <trkpt lat="43.48886" lon="6.17846">
        <ele>201.7</ele>
        <time>2024-03-27T14:33:26Z</time>
      </trkpt>
      <trkpt lat="43.48887" lon="6.17845">
        <ele>201.7</ele>
        <time>2024-03-27T14:33:27Z</time>
      </trkpt>
      <trkpt lat="43.48888" lon="6.17844">
        <ele>201.7</ele>
        <time>2024-03-27T14:33:28Z</time>
      </trkpt>
      <trkpt lat="43.48888" lon="6.17844">
        <ele>201.6</ele>
        <time>2024-03-27T14:33:29Z</time>
      </trkpt>
      <trkpt lat="43.48889" lon="6.17843">
        <ele>201.6</ele>
        <time>2024-03-27T14:33:30Z</time>
      </trkpt>
      <trkpt lat="43.48891" lon="6.17843">
        <ele>201.5</ele>
        <time>2024-03-27T14:33:31Z</time>
      </trkpt>
      <trkpt lat="43.48892" lon="6.17842">
        <ele>201.4</ele>
        <time>2024-03-27T14:33:32Z</time>
      </trkpt>
      <trkpt lat="43.48893" lon="6.17842">
        <ele>201.3</ele>
        <time>2024-03-27T14:33:33Z</time>
      </trkpt>
      <trkpt lat="43.48895" lon="6.1784">
        <ele>201.2</ele>
        <time>2024-03-27T14:33:34Z</time>
      </trkpt>
      <trkpt lat="43.48896" lon="6.17839">
        <ele>201</ele>
        <time>2024-03-27T14:33:35Z</time>
      </trkpt>
      <trkpt lat="43.48897" lon="6.17838">
        <ele>200.8</ele>
        <time>2024-03-27T14:33:36Z</time>
      </trkpt>
      <trkpt lat="43.48898" lon="6.17836">
        <ele>200.7</ele>
        <time>2024-03-27T14:33:37Z</time>
      </trkpt>
      <trkpt lat="43.48898" lon="6.17835">
        <ele>200.6</ele>
        <time>2024-03-27T14:33:38Z</time>
      </trkpt>
      <trkpt lat="43.48899" lon="6.17834">
        <ele>200.5</ele>
        <time>2024-03-27T14:33:39Z</time>
      </trkpt>
      <trkpt lat="43.489" lon="6.17833">
        <ele>200.5</ele>
        <time>2024-03-27T14:33:40Z</time>
      </trkpt>
      <trkpt lat="43.489" lon="6.17831">
        <ele>200.4</ele>
        <time>2024-03-27T14:33:41Z</time>
      </trkpt>
      <trkpt lat="43.48901" lon="6.1783">
        <ele>200.3</ele>
        <time>2024-03-27T14:33:42Z</time>
      </trkpt>
      <trkpt lat="43.48902" lon="6.17829">
        <ele>200.3</ele>
        <time>2024-03-27T14:33:43Z</time>
      </trkpt>
      <trkpt lat="43.48903" lon="6.17828">
        <ele>200.1</ele>
        <time>2024-03-27T14:33:44Z</time>
      </trkpt>
      <trkpt lat="43.48903" lon="6.17826">
        <ele>200</ele>
        <time>2024-03-27T14:33:45Z</time>
      </trkpt>
      <trkpt lat="43.48904" lon="6.17825">
        <ele>199.9</ele>
        <time>2024-03-27T14:33:46Z</time>
      </trkpt>
      <trkpt lat="43.48905" lon="6.17824">
        <ele>199.8</ele>
        <time>2024-03-27T14:33:47Z</time>
      </trkpt>
      <trkpt lat="43.48906" lon="6.17823">
        <ele>199.7</ele>
        <time>2024-03-27T14:33:48Z</time>
      </trkpt>
      <trkpt lat="43.48907" lon="6.17821">
        <ele>199.6</ele>
        <time>2024-03-27T14:33:49Z</time>
      </trkpt>
      <trkpt lat="43.48907" lon="6.1782">
        <ele>199.5</ele>
        <time>2024-03-27T14:33:50Z</time>
      </trkpt>
      <trkpt lat="43.48908" lon="6.17818">
        <ele>199.5</ele>
        <time>2024-03-27T14:33:51Z</time>
      </trkpt>
      <trkpt lat="43.48909" lon="6.17816">
        <ele>199.4</ele>
        <time>2024-03-27T14:33:52Z</time>
      </trkpt>
      <trkpt lat="43.48909" lon="6.17815">
        <ele>199.2</ele>
        <time>2024-03-27T14:33:53Z</time>
      </trkpt>
      <trkpt lat="43.4891" lon="6.17814">
        <ele>199.1</ele>
        <time>2024-03-27T14:33:54Z</time>
      </trkpt>
      <trkpt lat="43.4891" lon="6.17813">
        <ele>199</ele>
        <time>2024-03-27T14:33:55Z</time>
      </trkpt>
      <trkpt lat="43.48911" lon="6.17811">
        <ele>198.9</ele>
        <time>2024-03-27T14:33:56Z</time>
      </trkpt>
      <trkpt lat="43.48913" lon="6.1781">
        <ele>198.8</ele>
        <time>2024-03-27T14:33:57Z</time>
      </trkpt>
      <trkpt lat="43.48914" lon="6.17809">
        <ele>198.6</ele>
        <time>2024-03-27T14:33:58Z</time>
      </trkpt>
      <trkpt lat="43.48915" lon="6.17808">
        <ele>198.6</ele>
        <time>2024-03-27T14:33:59Z</time>
      </trkpt>
      <trkpt lat="43.48916" lon="6.17806">
        <ele>198.4</ele>
        <time>2024-03-27T14:34:00Z</time>
      </trkpt>
      <trkpt lat="43.48917" lon="6.17805">
        <ele>198.3</ele>
        <time>2024-03-27T14:34:01Z</time>
      </trkpt>
      <trkpt lat="43.48918" lon="6.17805">
        <ele>198.3</ele>
        <time>2024-03-27T14:34:02Z</time>
      </trkpt>
      <trkpt lat="43.48919" lon="6.17804">
        <ele>198.3</ele>
        <time>2024-03-27T14:34:03Z</time>
      </trkpt>
      <trkpt lat="43.4892" lon="6.17804">
        <ele>198.3</ele>
        <time>2024-03-27T14:34:04Z</time>
      </trkpt>
      <trkpt lat="43.48921" lon="6.17803">
        <ele>198.3</ele>
        <time>2024-03-27T14:34:05Z</time>
      </trkpt>
      <trkpt lat="43.48922" lon="6.17802">
        <ele>198.3</ele>
        <time>2024-03-27T14:34:06Z</time>
      </trkpt>
      <trkpt lat="43.48923" lon="6.17801">
        <ele>198.3</ele>
        <time>2024-03-27T14:34:07Z</time>
      </trkpt>
      <trkpt lat="43.48925" lon="6.17799">
        <ele>198.2</ele>
        <time>2024-03-27T14:34:08Z</time>
      </trkpt>
      <trkpt lat="43.48926" lon="6.17797">
        <ele>198.1</ele>
        <time>2024-03-27T14:34:09Z</time>
      </trkpt>
      <trkpt lat="43.48926" lon="6.17795">
        <ele>198</ele>
        <time>2024-03-27T14:34:10Z</time>
      </trkpt>
      <trkpt lat="43.48928" lon="6.17793">
        <ele>198</ele>
        <time>2024-03-27T14:34:11Z</time>
      </trkpt>
      <trkpt lat="43.48929" lon="6.17791">
        <ele>197.9</ele>
        <time>2024-03-27T14:34:12Z</time>
      </trkpt>
      <trkpt lat="43.48929" lon="6.17789">
        <ele>197.8</ele>
        <time>2024-03-27T14:34:13Z</time>
      </trkpt>
      <trkpt lat="43.4893" lon="6.17788">
        <ele>197.6</ele>
        <time>2024-03-27T14:34:14Z</time>
      </trkpt>
      <trkpt lat="43.48931" lon="6.17787">
        <ele>197.5</ele>
        <time>2024-03-27T14:34:15Z</time>
      </trkpt>
      <trkpt lat="43.48931" lon="6.17786">
        <ele>197.2</ele>
        <time>2024-03-27T14:34:16Z</time>
      </trkpt>
      <trkpt lat="43.48932" lon="6.17785">
        <ele>196.9</ele>
        <time>2024-03-27T14:34:17Z</time>
      </trkpt>
      <trkpt lat="43.48933" lon="6.17784">
        <ele>196.7</ele>
        <time>2024-03-27T14:34:18Z</time>
      </trkpt>
      <trkpt lat="43.48934" lon="6.17783">
        <ele>196.6</ele>
        <time>2024-03-27T14:34:19Z</time>
      </trkpt>
      <trkpt lat="43.48935" lon="6.17782">
        <ele>196.5</ele>
        <time>2024-03-27T14:34:20Z</time>
      </trkpt>
      <trkpt lat="43.48936" lon="6.17781">
        <ele>196.3</ele>
        <time>2024-03-27T14:34:21Z</time>
      </trkpt>
      <trkpt lat="43.48936" lon="6.1778">
        <ele>196.2</ele>
        <time>2024-03-27T14:34:22Z</time>
      </trkpt>
      <trkpt lat="43.48938" lon="6.17779">
        <ele>196.1</ele>
        <time>2024-03-27T14:34:23Z</time>
      </trkpt>
      <trkpt lat="43.48938" lon="6.17778">
        <ele>196</ele>
        <time>2024-03-27T14:34:24Z</time>
      </trkpt>
      <trkpt lat="43.48939" lon="6.17777">
        <ele>196</ele>
        <time>2024-03-27T14:34:25Z</time>
      </trkpt>
      <trkpt lat="43.4894" lon="6.17777">
        <ele>195.9</ele>
        <time>2024-03-27T14:34:26Z</time>
      </trkpt>
      <trkpt lat="43.48941" lon="6.17776">
        <ele>195.8</ele>
        <time>2024-03-27T14:34:27Z</time>
      </trkpt>
      <trkpt lat="43.48943" lon="6.17775">
        <ele>195.7</ele>
        <time>2024-03-27T14:34:28Z</time>
      </trkpt>
      <trkpt lat="43.48944" lon="6.17774">
        <ele>195.6</ele>
        <time>2024-03-27T14:34:29Z</time>
      </trkpt>
      <trkpt lat="43.48945" lon="6.17773">
        <ele>195.5</ele>
        <time>2024-03-27T14:34:30Z</time>
      </trkpt>
      <trkpt lat="43.48947" lon="6.17772">
        <ele>195.4</ele>
        <time>2024-03-27T14:34:31Z</time>
      </trkpt>
      <trkpt lat="43.48948" lon="6.17771">
        <ele>195.2</ele>
        <time>2024-03-27T14:34:32Z</time>
      </trkpt>
      <trkpt lat="43.4895" lon="6.17771">
        <ele>195</ele>
        <time>2024-03-27T14:34:33Z</time>
      </trkpt>
      <trkpt lat="43.48951" lon="6.17771">
        <ele>194.9</ele>
        <time>2024-03-27T14:34:34Z</time>
      </trkpt>
      <trkpt lat="43.48951" lon="6.1777">
        <ele>194.8</ele>
        <time>2024-03-27T14:34:35Z</time>
      </trkpt>
      <trkpt lat="43.48952" lon="6.1777">
        <ele>194.8</ele>
        <time>2024-03-27T14:34:36Z</time>
      </trkpt>
      <trkpt lat="43.48953" lon="6.1777">
        <ele>194.7</ele>
        <time>2024-03-27T14:34:37Z</time>
      </trkpt>
      <trkpt lat="43.48954" lon="6.17769">
        <ele>194.5</ele>
        <time>2024-03-27T14:34:38Z</time>
      </trkpt>
      <trkpt lat="43.48955" lon="6.17768">
        <ele>194.3</ele>
        <time>2024-03-27T14:34:39Z</time>
      </trkpt>
      <trkpt lat="43.48956" lon="6.17768">
        <ele>194.2</ele>
        <time>2024-03-27T14:34:40Z</time>
      </trkpt>
      <trkpt lat="43.48957" lon="6.17767">
        <ele>194.1</ele>
        <time>2024-03-27T14:34:41Z</time>
      </trkpt>
      <trkpt lat="43.48958" lon="6.17767">
        <ele>194</ele>
        <time>2024-03-27T14:34:42Z</time>
      </trkpt>
      <trkpt lat="43.48959" lon="6.17767">
        <ele>193.9</ele>
        <time>2024-03-27T14:34:43Z</time>
      </trkpt>
      <trkpt lat="43.48961" lon="6.17766">
        <ele>193.8</ele>
        <time>2024-03-27T14:34:44Z</time>
      </trkpt>
      <trkpt lat="43.48962" lon="6.17766">
        <ele>193.7</ele>
        <time>2024-03-27T14:34:45Z</time>
      </trkpt>
      <trkpt lat="43.48963" lon="6.17765">
        <ele>193.6</ele>
        <time>2024-03-27T14:34:46Z</time>
      </trkpt>
      <trkpt lat="43.48964" lon="6.17764">
        <ele>193.5</ele>
        <time>2024-03-27T14:34:47Z</time>
      </trkpt>
      <trkpt lat="43.48965" lon="6.17764">
        <ele>193.4</ele>
        <time>2024-03-27T14:34:48Z</time>
      </trkpt>
      <trkpt lat="43.48967" lon="6.17763">
        <ele>193.4</ele>
        <time>2024-03-27T14:34:49Z</time>
      </trkpt>
      <trkpt lat="43.48968" lon="6.17762">
        <ele>193.3</ele>
        <time>2024-03-27T14:34:50Z</time>
      </trkpt>
      <trkpt lat="43.4897" lon="6.17761">
        <ele>193.3</ele>
        <time>2024-03-27T14:34:51Z</time>
      </trkpt>
      <trkpt lat="43.48971" lon="6.17761">
        <ele>193.2</ele>
        <time>2024-03-27T14:34:52Z</time>
      </trkpt>
      <trkpt lat="43.48972" lon="6.17761">
        <ele>193.1</ele>
        <time>2024-03-27T14:34:53Z</time>
      </trkpt>
      <trkpt lat="43.48973" lon="6.17761">
        <ele>193</ele>
        <time>2024-03-27T14:34:54Z</time>
      </trkpt>
      <trkpt lat="43.48974" lon="6.17761">
        <ele>192.8</ele>
        <time>2024-03-27T14:34:55Z</time>
      </trkpt>
      <trkpt lat="43.48975" lon="6.17761">
        <ele>192.7</ele>
        <time>2024-03-27T14:34:56Z</time>
      </trkpt>
      <trkpt lat="43.48976" lon="6.17761">
        <ele>192.6</ele>
        <time>2024-03-27T14:34:57Z</time>
      </trkpt>
      <trkpt lat="43.48978" lon="6.1776">
        <ele>192.5</ele>
        <time>2024-03-27T14:34:58Z</time>
      </trkpt>
      <trkpt lat="43.4898" lon="6.1776">
        <ele>192.4</ele>
        <time>2024-03-27T14:34:59Z</time>
      </trkpt>
      <trkpt lat="43.48981" lon="6.1776">
        <ele>192.3</ele>
        <time>2024-03-27T14:35:00Z</time>
      </trkpt>
      <trkpt lat="43.48982" lon="6.17759">
        <ele>192.2</ele>
        <time>2024-03-27T14:35:01Z</time>
      </trkpt>
      <trkpt lat="43.48984" lon="6.1776">
        <ele>192.1</ele>
        <time>2024-03-27T14:35:02Z</time>
      </trkpt>
      <trkpt lat="43.48985" lon="6.1776">
        <ele>192</ele>
        <time>2024-03-27T14:35:03Z</time>
      </trkpt>
      <trkpt lat="43.48986" lon="6.1776">
        <ele>191.9</ele>
        <time>2024-03-27T14:35:04Z</time>
      </trkpt>
      <trkpt lat="43.48987" lon="6.17761">
        <ele>191.7</ele>
        <time>2024-03-27T14:35:05Z</time>
      </trkpt>
      <trkpt lat="43.48989" lon="6.17761">
        <ele>191.6</ele>
        <time>2024-03-27T14:35:06Z</time>
      </trkpt>
      <trkpt lat="43.4899" lon="6.17761">
        <ele>191.5</ele>
        <time>2024-03-27T14:35:07Z</time>
      </trkpt>
      <trkpt lat="43.48991" lon="6.17761">
        <ele>191.3</ele>
        <time>2024-03-27T14:35:08Z</time>
      </trkpt>
      <trkpt lat="43.48992" lon="6.17761">
        <ele>191.2</ele>
        <time>2024-03-27T14:35:09Z</time>
      </trkpt>
      <trkpt lat="43.48994" lon="6.17761">
        <ele>191.2</ele>
        <time>2024-03-27T14:35:10Z</time>
      </trkpt>
      <trkpt lat="43.48995" lon="6.17761">
        <ele>191.1</ele>
        <time>2024-03-27T14:35:11Z</time>
      </trkpt>
      <trkpt lat="43.48996" lon="6.17761">
        <ele>190.9</ele>
        <time>2024-03-27T14:35:12Z</time>
      </trkpt>
      <trkpt lat="43.48998" lon="6.17761">
        <ele>190.7</ele>
        <time>2024-03-27T14:35:13Z</time>
      </trkpt>
      <trkpt lat="43.48999" lon="6.1776">
        <ele>190.6</ele>
        <time>2024-03-27T14:35:14Z</time>
      </trkpt>
      <trkpt lat="43.49001" lon="6.17761">
        <ele>190.5</ele>
        <time>2024-03-27T14:35:15Z</time>
      </trkpt>
      <trkpt lat="43.49001" lon="6.1776">
        <ele>190.3</ele>
        <time>2024-03-27T14:35:16Z</time>
      </trkpt>
      <trkpt lat="43.49001" lon="6.17759">
        <ele>190.2</ele>
        <time>2024-03-27T14:35:17Z</time>
      </trkpt>
      <trkpt lat="43.49" lon="6.17758">
        <ele>190.1</ele>
        <time>2024-03-27T14:35:18Z</time>
      </trkpt>
      <trkpt lat="43.49" lon="6.17758">
        <ele>190</ele>
        <time>2024-03-27T14:35:19Z</time>
      </trkpt>
      <trkpt lat="43.49" lon="6.17758">
        <ele>189.9</ele>
        <time>2024-03-27T14:35:20Z</time>
      </trkpt>
      <trkpt lat="43.49" lon="6.17757">
        <ele>189.8</ele>
        <time>2024-03-27T14:35:21Z</time>
      </trkpt>
      <trkpt lat="43.48999" lon="6.17757">
        <ele>189.8</ele>
        <time>2024-03-27T14:35:22Z</time>
      </trkpt>
      <trkpt lat="43.48999" lon="6.17757">
        <ele>189.7</ele>
        <time>2024-03-27T14:35:23Z</time>
      </trkpt>
      <trkpt lat="43.48998" lon="6.17757">
        <ele>189.6</ele>
        <time>2024-03-27T14:35:24Z</time>
      </trkpt>
      <trkpt lat="43.48997" lon="6.17757">
        <ele>189.6</ele>
        <time>2024-03-27T14:35:25Z</time>
      </trkpt>
      <trkpt lat="43.48997" lon="6.17757">
        <ele>189.5</ele>
        <time>2024-03-27T14:35:26Z</time>
      </trkpt>
      <trkpt lat="43.48996" lon="6.17756">
        <ele>189.7</ele>
        <time>2024-03-27T14:35:27Z</time>
      </trkpt>
      <trkpt lat="43.48996" lon="6.17756">
        <ele>189.7</ele>
        <time>2024-03-27T14:35:28Z</time>
      </trkpt>
      <trkpt lat="43.48995" lon="6.17756">
        <ele>189.7</ele>
        <time>2024-03-27T14:35:29Z</time>
      </trkpt>
      <trkpt lat="43.48995" lon="6.17756">
        <ele>189.7</ele>
        <time>2024-03-27T14:35:30Z</time>
      </trkpt>
      <trkpt lat="43.48994" lon="6.17756">
        <ele>189.8</ele>
        <time>2024-03-27T14:35:31Z</time>
      </trkpt>
      <trkpt lat="43.48994" lon="6.17755">
        <ele>189.8</ele>
        <time>2024-03-27T14:35:32Z</time>
      </trkpt>
      <trkpt lat="43.48993" lon="6.17755">
        <ele>189.9</ele>
        <time>2024-03-27T14:35:33Z</time>
      </trkpt>
      <trkpt lat="43.48993" lon="6.17754">
        <ele>189.9</ele>
        <time>2024-03-27T14:35:34Z</time>
      </trkpt>
      <trkpt lat="43.48992" lon="6.17754">
        <ele>189.9</ele>
        <time>2024-03-27T14:35:35Z</time>
      </trkpt>
      <trkpt lat="43.48992" lon="6.17753">
        <ele>190</ele>
        <time>2024-03-27T14:35:36Z</time>
      </trkpt>
      <trkpt lat="43.48992" lon="6.17753">
        <ele>190</ele>
        <time>2024-03-27T14:35:37Z</time>
      </trkpt>
      <trkpt lat="43.48991" lon="6.17753">
        <ele>190.1</ele>
        <time>2024-03-27T14:35:38Z</time>
      </trkpt>
      <trkpt lat="43.48991" lon="6.17753">
        <ele>190.3</ele>
        <time>2024-03-27T14:35:39Z</time>
      </trkpt>
      <trkpt lat="43.48991" lon="6.17753">
        <ele>190.4</ele>
        <time>2024-03-27T14:35:40Z</time>
      </trkpt>
      <trkpt lat="43.48991" lon="6.17753">
        <ele>190.6</ele>
        <time>2024-03-27T14:35:41Z</time>
      </trkpt>
      <trkpt lat="43.48991" lon="6.17753">
        <ele>190.8</ele>
        <time>2024-03-27T14:35:42Z</time>
      </trkpt>
      <trkpt lat="43.48991" lon="6.17752">
        <ele>191</ele>
        <time>2024-03-27T14:35:43Z</time>
      </trkpt>
      <trkpt lat="43.4899" lon="6.17752">
        <ele>191.1</ele>
        <time>2024-03-27T14:35:44Z</time>
      </trkpt>
      <trkpt lat="43.4899" lon="6.17752">
        <ele>191.2</ele>
        <time>2024-03-27T14:35:45Z</time>
      </trkpt>
      <trkpt lat="43.4899" lon="6.17752">
        <ele>191.3</ele>
        <time>2024-03-27T14:35:46Z</time>
      </trkpt>
      <trkpt lat="43.4899" lon="6.17752">
        <ele>191.3</ele>
        <time>2024-03-27T14:35:47Z</time>
      </trkpt>
      <trkpt lat="43.4899" lon="6.17752">
        <ele>191.4</ele>
        <time>2024-03-27T14:35:48Z</time>
      </trkpt>
      <trkpt lat="43.4899" lon="6.17751">
        <ele>191.4</ele>
        <time>2024-03-27T14:35:49Z</time>
      </trkpt>
      <trkpt lat="43.4899" lon="6.17751">
        <ele>191.4</ele>
        <time>2024-03-27T14:35:50Z</time>
      </trkpt>
      <trkpt lat="43.4899" lon="6.17751">
        <ele>191.4</ele>
        <time>2024-03-27T14:35:51Z</time>
      </trkpt>
      <trkpt lat="43.4899" lon="6.17751">
        <ele>191.4</ele>
        <time>2024-03-27T14:35:52Z</time>
      </trkpt>
      <trkpt lat="43.4899" lon="6.17751">
        <ele>191.4</ele>
        <time>2024-03-27T14:35:53Z</time>
      </trkpt>
      <trkpt lat="43.48989" lon="6.17751">
        <ele>191.4</ele>
        <time>2024-03-27T14:35:54Z</time>
      </trkpt>
      <trkpt lat="43.48989" lon="6.17751">
        <ele>191.4</ele>
        <time>2024-03-27T14:35:55Z</time>
      </trkpt>
      <trkpt lat="43.4899" lon="6.17751">
        <ele>191.4</ele>
        <time>2024-03-27T14:35:56Z</time>
      </trkpt>
      <trkpt lat="43.48989" lon="6.17751">
        <ele>191.5</ele>
        <time>2024-03-27T14:35:57Z</time>
      </trkpt>
      <trkpt lat="43.48989" lon="6.1775">
        <ele>191.5</ele>
        <time>2024-03-27T14:35:58Z</time>
      </trkpt>
      <trkpt lat="43.48989" lon="6.1775">
        <ele>191.5</ele>
        <time>2024-03-27T14:35:59Z</time>
      </trkpt>
      <trkpt lat="43.48989" lon="6.1775">
        <ele>191.5</ele>
        <time>2024-03-27T14:36:00Z</time>
      </trkpt>
      <trkpt lat="43.48989" lon="6.1775">
        <ele>191.5</ele>
        <time>2024-03-27T14:36:01Z</time>
      </trkpt>
      <trkpt lat="43.48989" lon="6.1775">
        <ele>191.5</ele>
        <time>2024-03-27T14:36:02Z</time>
      </trkpt>
      <trkpt lat="43.48989" lon="6.1775">
        <ele>191.5</ele>
        <time>2024-03-27T14:36:03Z</time>
      </trkpt>
      <trkpt lat="43.48989" lon="6.1775">
        <ele>191.6</ele>
        <time>2024-03-27T14:36:04Z</time>
      </trkpt>
      <trkpt lat="43.48989" lon="6.1775">
        <ele>191.6</ele>
        <time>2024-03-27T14:36:05Z</time>
      </trkpt>
      <trkpt lat="43.48989" lon="6.1775">
        <ele>191.6</ele>
        <time>2024-03-27T14:36:06Z</time>
      </trkpt>
      <trkpt lat="43.48989" lon="6.1775">
        <ele>191.5</ele>
        <time>2024-03-27T14:36:07Z</time>
      </trkpt>
      <trkpt lat="43.48989" lon="6.1775">
        <ele>191.5</ele>
        <time>2024-03-27T14:36:08Z</time>
      </trkpt>
      <trkpt lat="43.48989" lon="6.17749">
        <ele>191.4</ele>
        <time>2024-03-27T14:36:09Z</time>
      </trkpt>
      <trkpt lat="43.48989" lon="6.17749">
        <ele>191.4</ele>
        <time>2024-03-27T14:36:10Z</time>
      </trkpt>
      <trkpt lat="43.4899" lon="6.17749">
        <ele>191.4</ele>
        <time>2024-03-27T14:36:11Z</time>
      </trkpt>
      <trkpt lat="43.4899" lon="6.17749">
        <ele>191.4</ele>
        <time>2024-03-27T14:36:12Z</time>
      </trkpt>
      <trkpt lat="43.4899" lon="6.17749">
        <ele>191.4</ele>
        <time>2024-03-27T14:36:13Z</time>
      </trkpt>
      <trkpt lat="43.4899" lon="6.17749">
        <ele>191.4</ele>
        <time>2024-03-27T14:36:14Z</time>
      </trkpt>
      <trkpt lat="43.4899" lon="6.17749">
        <ele>191.4</ele>
        <time>2024-03-27T14:36:15Z</time>
      </trkpt>
      <trkpt lat="43.4899" lon="6.17749">
        <ele>191.3</ele>
        <time>2024-03-27T14:36:16Z</time>
      </trkpt>
      <trkpt lat="43.4899" lon="6.17749">
        <ele>191.3</ele>
        <time>2024-03-27T14:36:17Z</time>
      </trkpt>
      <trkpt lat="43.4899" lon="6.17749">
        <ele>191.2</ele>
        <time>2024-03-27T14:36:18Z</time>
      </trkpt>
      <trkpt lat="43.4899" lon="6.17749">
        <ele>191.3</ele>
        <time>2024-03-27T14:36:19Z</time>
      </trkpt>
      <trkpt lat="43.4899" lon="6.17749">
        <ele>191.3</ele>
        <time>2024-03-27T14:36:20Z</time>
      </trkpt>
      <trkpt lat="43.4899" lon="6.17749">
        <ele>191.3</ele>
        <time>2024-03-27T14:36:21Z</time>
      </trkpt>
      <trkpt lat="43.4899" lon="6.17749">
        <ele>191.3</ele>
        <time>2024-03-27T14:36:22Z</time>
      </trkpt>
      <trkpt lat="43.4899" lon="6.17749">
        <ele>191.3</ele>
        <time>2024-03-27T14:36:23Z</time>
      </trkpt>
      <trkpt lat="43.4899" lon="6.17749">
        <ele>191.2</ele>
        <time>2024-03-27T14:36:24Z</time>
      </trkpt>
      <trkpt lat="43.4899" lon="6.17749">
        <ele>191.2</ele>
        <time>2024-03-27T14:36:25Z</time>
      </trkpt>
      <trkpt lat="43.4899" lon="6.17749">
        <ele>191.2</ele>
        <time>2024-03-27T14:36:26Z</time>
      </trkpt>
      <trkpt lat="43.4899" lon="6.17748">
        <ele>191.1</ele>
        <time>2024-03-27T14:36:27Z</time>
      </trkpt>
      <trkpt lat="43.4899" lon="6.17748">
        <ele>191.1</ele>
        <time>2024-03-27T14:36:28Z</time>
      </trkpt>
      <trkpt lat="43.4899" lon="6.17748">
        <ele>191.1</ele>
        <time>2024-03-27T14:36:29Z</time>
      </trkpt>
      <trkpt lat="43.4899" lon="6.17748">
        <ele>191.1</ele>
        <time>2024-03-27T14:36:30Z</time>
      </trkpt>
      <trkpt lat="43.4899" lon="6.17748">
        <ele>191</ele>
        <time>2024-03-27T14:36:31Z</time>
      </trkpt>
      <trkpt lat="43.4899" lon="6.17748">
        <ele>191</ele>
        <time>2024-03-27T14:36:32Z</time>
      </trkpt>
      <trkpt lat="43.4899" lon="6.17748">
        <ele>191</ele>
        <time>2024-03-27T14:36:33Z</time>
      </trkpt>
      <trkpt lat="43.4899" lon="6.17747">
        <ele>191.1</ele>
        <time>2024-03-27T14:36:34Z</time>
      </trkpt>
      <trkpt lat="43.4899" lon="6.17747">
        <ele>191.2</ele>
        <time>2024-03-27T14:36:35Z</time>
      </trkpt>
      <trkpt lat="43.4899" lon="6.17747">
        <ele>191.2</ele>
        <time>2024-03-27T14:36:36Z</time>
      </trkpt>
      <trkpt lat="43.4899" lon="6.17747">
        <ele>191.2</ele>
        <time>2024-03-27T14:36:37Z</time>
      </trkpt>
      <trkpt lat="43.4899" lon="6.17747">
        <ele>191.2</ele>
        <time>2024-03-27T14:36:38Z</time>
      </trkpt>
      <trkpt lat="43.4899" lon="6.17747">
        <ele>191.1</ele>
        <time>2024-03-27T14:36:39Z</time>
      </trkpt>
      <trkpt lat="43.4899" lon="6.17747">
        <ele>191.2</ele>
        <time>2024-03-27T14:36:40Z</time>
      </trkpt>
      <trkpt lat="43.4899" lon="6.17747">
        <ele>191.2</ele>
        <time>2024-03-27T14:36:41Z</time>
      </trkpt>
      <trkpt lat="43.4899" lon="6.17747">
        <ele>191.1</ele>
        <time>2024-03-27T14:36:42Z</time>
      </trkpt>
      <trkpt lat="43.4899" lon="6.17746">
        <ele>191.1</ele>
        <time>2024-03-27T14:36:43Z</time>
      </trkpt>
      <trkpt lat="43.4899" lon="6.17746">
        <ele>191.1</ele>
        <time>2024-03-27T14:36:44Z</time>
      </trkpt>
      <trkpt lat="43.4899" lon="6.17746">
        <ele>191.2</ele>
        <time>2024-03-27T14:36:45Z</time>
      </trkpt>
      <trkpt lat="43.4899" lon="6.17746">
        <ele>191.2</ele>
        <time>2024-03-27T14:36:46Z</time>
      </trkpt>
      <trkpt lat="43.4899" lon="6.17746">
        <ele>191.2</ele>
        <time>2024-03-27T14:36:47Z</time>
      </trkpt>
      <trkpt lat="43.4899" lon="6.17746">
        <ele>191.2</ele>
        <time>2024-03-27T14:36:48Z</time>
      </trkpt>
      <trkpt lat="43.4899" lon="6.17746">
        <ele>191.1</ele>
        <time>2024-03-27T14:36:49Z</time>
      </trkpt>
      <trkpt lat="43.4899" lon="6.17745">
        <ele>191.1</ele>
        <time>2024-03-27T14:36:50Z</time>
      </trkpt>
      <trkpt lat="43.4899" lon="6.17745">
        <ele>191.1</ele>
        <time>2024-03-27T14:36:51Z</time>
      </trkpt>
      <trkpt lat="43.4899" lon="6.17745">
        <ele>191</ele>
        <time>2024-03-27T14:36:52Z</time>
      </trkpt>
      <trkpt lat="43.4899" lon="6.17745">
        <ele>191.2</ele>
        <time>2024-03-27T14:36:53Z</time>
      </trkpt>
      <trkpt lat="43.4899" lon="6.17746">
        <ele>191.3</ele>
        <time>2024-03-27T14:36:54Z</time>
      </trkpt>
      <trkpt lat="43.4899" lon="6.17746">
        <ele>191.3</ele>
        <time>2024-03-27T14:36:55Z</time>
      </trkpt>
      <trkpt lat="43.4899" lon="6.17746">
        <ele>191.3</ele>
        <time>2024-03-27T14:36:56Z</time>
      </trkpt>
      <trkpt lat="43.4899" lon="6.17746">
        <ele>191.2</ele>
        <time>2024-03-27T14:36:57Z</time>
      </trkpt>
      <trkpt lat="43.4899" lon="6.17746">
        <ele>191.2</ele>
        <time>2024-03-27T14:36:58Z</time>
      </trkpt>
      <trkpt lat="43.4899" lon="6.17745">
        <ele>191.2</ele>
        <time>2024-03-27T14:36:59Z</time>
      </trkpt>
      <trkpt lat="43.4899" lon="6.17746">
        <ele>191.2</ele>
        <time>2024-03-27T14:37:00Z</time>
      </trkpt>
      <trkpt lat="43.4899" lon="6.17746">
        <ele>191.2</ele>
        <time>2024-03-27T14:37:01Z</time>
      </trkpt>
      <trkpt lat="43.4899" lon="6.17746">
        <ele>191.2</ele>
        <time>2024-03-27T14:37:02Z</time>
      </trkpt>
      <trkpt lat="43.4899" lon="6.17746">
        <ele>191.1</ele>
        <time>2024-03-27T14:37:03Z</time>
      </trkpt>
      <trkpt lat="43.4899" lon="6.17746">
        <ele>191.1</ele>
        <time>2024-03-27T14:37:04Z</time>
      </trkpt>
      <trkpt lat="43.4899" lon="6.17746">
        <ele>191.4</ele>
        <time>2024-03-27T14:37:05Z</time>
      </trkpt>
      <trkpt lat="43.4899" lon="6.17746">
        <ele>191.4</ele>
        <time>2024-03-27T14:37:06Z</time>
      </trkpt>
      <trkpt lat="43.4899" lon="6.17746">
        <ele>191.6</ele>
        <time>2024-03-27T14:37:07Z</time>
      </trkpt>
      <trkpt lat="43.4899" lon="6.17746">
        <ele>191.6</ele>
        <time>2024-03-27T14:37:08Z</time>
      </trkpt>
      <trkpt lat="43.4899" lon="6.17746">
        <ele>191.9</ele>
        <time>2024-03-27T14:37:09Z</time>
      </trkpt>
      <trkpt lat="43.48991" lon="6.17747">
        <ele>191.8</ele>
        <time>2024-03-27T14:37:10Z</time>
      </trkpt>
      <trkpt lat="43.48991" lon="6.17747">
        <ele>191.8</ele>
        <time>2024-03-27T14:37:11Z</time>
      </trkpt>
      <trkpt lat="43.48991" lon="6.17747">
        <ele>191.7</ele>
        <time>2024-03-27T14:37:12Z</time>
      </trkpt>
      <trkpt lat="43.48991" lon="6.17748">
        <ele>191.7</ele>
        <time>2024-03-27T14:37:13Z</time>
      </trkpt>
      <trkpt lat="43.48991" lon="6.17748">
        <ele>191.5</ele>
        <time>2024-03-27T14:37:14Z</time>
      </trkpt>
      <trkpt lat="43.4899" lon="6.17748">
        <ele>191.3</ele>
        <time>2024-03-27T14:37:15Z</time>
      </trkpt>
      <trkpt lat="43.4899" lon="6.17748">
        <ele>191.3</ele>
        <time>2024-03-27T14:37:16Z</time>
      </trkpt>
      <trkpt lat="43.4899" lon="6.17748">
        <ele>191.3</ele>
        <time>2024-03-27T14:37:17Z</time>
      </trkpt>
      <trkpt lat="43.4899" lon="6.17747">
        <ele>191.3</ele>
        <time>2024-03-27T14:37:18Z</time>
      </trkpt>
      <trkpt lat="43.4899" lon="6.17747">
        <ele>191.2</ele>
        <time>2024-03-27T14:37:19Z</time>
      </trkpt>
      <trkpt lat="43.4899" lon="6.17747">
        <ele>191.2</ele>
        <time>2024-03-27T14:37:20Z</time>
      </trkpt>
      <trkpt lat="43.4899" lon="6.17747">
        <ele>191.1</ele>
        <time>2024-03-27T14:37:21Z</time>
      </trkpt>
      <trkpt lat="43.48989" lon="6.17746">
        <ele>191.1</ele>
        <time>2024-03-27T14:37:22Z</time>
      </trkpt>
      <trkpt lat="43.48989" lon="6.17746">
        <ele>191.1</ele>
        <time>2024-03-27T14:37:23Z</time>
      </trkpt>
      <trkpt lat="43.48989" lon="6.17746">
        <ele>191.1</ele>
        <time>2024-03-27T14:37:24Z</time>
      </trkpt>
      <trkpt lat="43.48989" lon="6.17746">
        <ele>191.1</ele>
        <time>2024-03-27T14:37:25Z</time>
      </trkpt>
      <trkpt lat="43.48989" lon="6.17746">
        <ele>191.1</ele>
        <time>2024-03-27T14:37:26Z</time>
      </trkpt>
      <trkpt lat="43.48989" lon="6.17746">
        <ele>191.2</ele>
        <time>2024-03-27T14:37:27Z</time>
      </trkpt>
      <trkpt lat="43.48989" lon="6.17746">
        <ele>191.2</ele>
        <time>2024-03-27T14:37:28Z</time>
      </trkpt>
      <trkpt lat="43.48989" lon="6.17746">
        <ele>191.2</ele>
        <time>2024-03-27T14:37:29Z</time>
      </trkpt>
      <trkpt lat="43.48989" lon="6.17746">
        <ele>191.1</ele>
        <time>2024-03-27T14:37:30Z</time>
      </trkpt>
      <trkpt lat="43.48989" lon="6.17746">
        <ele>191.1</ele>
        <time>2024-03-27T14:37:31Z</time>
      </trkpt>
      <trkpt lat="43.48989" lon="6.17745">
        <ele>191.1</ele>
        <time>2024-03-27T14:37:32Z</time>
      </trkpt>
      <trkpt lat="43.48989" lon="6.17745">
        <ele>191.1</ele>
        <time>2024-03-27T14:37:33Z</time>
      </trkpt>
      <trkpt lat="43.48989" lon="6.17745">
        <ele>191.1</ele>
        <time>2024-03-27T14:37:34Z</time>
      </trkpt>
      <trkpt lat="43.48989" lon="6.17745">
        <ele>191.1</ele>
        <time>2024-03-27T14:37:35Z</time>
      </trkpt>
      <trkpt lat="43.48989" lon="6.17745">
        <ele>191.2</ele>
        <time>2024-03-27T14:37:36Z</time>
      </trkpt>
      <trkpt lat="43.48989" lon="6.17745">
        <ele>191.2</ele>
        <time>2024-03-27T14:37:37Z</time>
      </trkpt>
      <trkpt lat="43.48989" lon="6.17745">
        <ele>191.2</ele>
        <time>2024-03-27T14:37:38Z</time>
      </trkpt>
      <trkpt lat="43.48989" lon="6.17745">
        <ele>191.2</ele>
        <time>2024-03-27T14:37:39Z</time>
      </trkpt>
      <trkpt lat="43.48989" lon="6.17745">
        <ele>191.2</ele>
        <time>2024-03-27T14:37:40Z</time>
      </trkpt>
      <trkpt lat="43.48989" lon="6.17745">
        <ele>191.2</ele>
        <time>2024-03-27T14:37:41Z</time>
      </trkpt>
      <trkpt lat="43.48989" lon="6.17745">
        <ele>191.2</ele>
        <time>2024-03-27T14:37:42Z</time>
      </trkpt>
      <trkpt lat="43.48989" lon="6.17745">
        <ele>191.2</ele>
        <time>2024-03-27T14:37:43Z</time>
      </trkpt>
      <trkpt lat="43.48989" lon="6.17746">
        <ele>191.2</ele>
        <time>2024-03-27T14:37:44Z</time>
      </trkpt>
      <trkpt lat="43.48989" lon="6.17746">
        <ele>191.1</ele>
        <time>2024-03-27T14:37:45Z</time>
      </trkpt>
      <trkpt lat="43.4899" lon="6.17746">
        <ele>191.3</ele>
        <time>2024-03-27T14:37:46Z</time>
      </trkpt>
      <trkpt lat="43.4899" lon="6.17746">
        <ele>191.4</ele>
        <time>2024-03-27T14:37:47Z</time>
      </trkpt>
      <trkpt lat="43.4899" lon="6.17746">
        <ele>191.4</ele>
        <time>2024-03-27T14:37:48Z</time>
      </trkpt>
      <trkpt lat="43.4899" lon="6.17747">
        <ele>191.5</ele>
        <time>2024-03-27T14:37:49Z</time>
      </trkpt>
      <trkpt lat="43.4899" lon="6.17747">
        <ele>191.6</ele>
        <time>2024-03-27T14:37:50Z</time>
      </trkpt>
      <trkpt lat="43.4899" lon="6.17747">
        <ele>191.6</ele>
        <time>2024-03-27T14:37:51Z</time>
      </trkpt>
      <trkpt lat="43.4899" lon="6.17747">
        <ele>191.7</ele>
        <time>2024-03-27T14:37:52Z</time>
      </trkpt>
      <trkpt lat="43.4899" lon="6.17747">
        <ele>191.7</ele>
        <time>2024-03-27T14:37:53Z</time>
      </trkpt>
      <trkpt lat="43.4899" lon="6.17747">
        <ele>191.6</ele>
        <time>2024-03-27T14:37:54Z</time>
      </trkpt>
      <trkpt lat="43.4899" lon="6.17747">
        <ele>191.6</ele>
        <time>2024-03-27T14:37:55Z</time>
      </trkpt>
      <trkpt lat="43.4899" lon="6.17747">
        <ele>191.5</ele>
        <time>2024-03-27T14:37:56Z</time>
      </trkpt>
      <trkpt lat="43.4899" lon="6.17747">
        <ele>191.5</ele>
        <time>2024-03-27T14:37:57Z</time>
      </trkpt>
      <trkpt lat="43.4899" lon="6.17747">
        <ele>191.4</ele>
        <time>2024-03-27T14:37:58Z</time>
      </trkpt>
      <trkpt lat="43.4899" lon="6.17747">
        <ele>191.4</ele>
        <time>2024-03-27T14:37:59Z</time>
      </trkpt>
      <trkpt lat="43.4899" lon="6.17747">
        <ele>191.4</ele>
        <time>2024-03-27T14:38:00Z</time>
      </trkpt>
      <trkpt lat="43.4899" lon="6.17747">
        <ele>191.3</ele>
        <time>2024-03-27T14:38:01Z</time>
      </trkpt>
      <trkpt lat="43.4899" lon="6.17747">
        <ele>191.2</ele>
        <time>2024-03-27T14:38:02Z</time>
      </trkpt>
      <trkpt lat="43.4899" lon="6.17747">
        <ele>191.2</ele>
        <time>2024-03-27T14:38:03Z</time>
      </trkpt>
      <trkpt lat="43.4899" lon="6.17747">
        <ele>191.1</ele>
        <time>2024-03-27T14:38:04Z</time>
      </trkpt>
      <trkpt lat="43.48989" lon="6.17747">
        <ele>191.1</ele>
        <time>2024-03-27T14:38:05Z</time>
      </trkpt>
      <trkpt lat="43.48989" lon="6.17747">
        <ele>191.1</ele>
        <time>2024-03-27T14:38:06Z</time>
      </trkpt>
      <trkpt lat="43.48989" lon="6.17747">
        <ele>191.1</ele>
        <time>2024-03-27T14:38:07Z</time>
      </trkpt>
      <trkpt lat="43.48989" lon="6.17746">
        <ele>191.1</ele>
        <time>2024-03-27T14:38:08Z</time>
      </trkpt>
      <trkpt lat="43.48989" lon="6.17747">
        <ele>191.2</ele>
        <time>2024-03-27T14:38:09Z</time>
      </trkpt>
      <trkpt lat="43.48989" lon="6.17746">
        <ele>191.2</ele>
        <time>2024-03-27T14:38:10Z</time>
      </trkpt>
      <trkpt lat="43.48989" lon="6.17746">
        <ele>191.1</ele>
        <time>2024-03-27T14:38:11Z</time>
      </trkpt>
      <trkpt lat="43.48989" lon="6.17746">
        <ele>191</ele>
        <time>2024-03-27T14:38:12Z</time>
      </trkpt>
      <trkpt lat="43.48989" lon="6.17746">
        <ele>190.9</ele>
        <time>2024-03-27T14:38:13Z</time>
      </trkpt>
      <trkpt lat="43.48989" lon="6.17746">
        <ele>190.8</ele>
        <time>2024-03-27T14:38:14Z</time>
      </trkpt>
      <trkpt lat="43.48989" lon="6.17745">
        <ele>190.7</ele>
        <time>2024-03-27T14:38:15Z</time>
      </trkpt>
      <trkpt lat="43.48989" lon="6.17745">
        <ele>190.5</ele>
        <time>2024-03-27T14:38:16Z</time>
      </trkpt>
      <trkpt lat="43.48989" lon="6.17745">
        <ele>190.5</ele>
        <time>2024-03-27T14:38:17Z</time>
      </trkpt>
      <trkpt lat="43.48989" lon="6.17745">
        <ele>190.4</ele>
        <time>2024-03-27T14:38:18Z</time>
      </trkpt>
      <trkpt lat="43.48989" lon="6.17745">
        <ele>190.4</ele>
        <time>2024-03-27T14:38:19Z</time>
      </trkpt>
      <trkpt lat="43.48989" lon="6.17745">
        <ele>190.4</ele>
        <time>2024-03-27T14:38:20Z</time>
      </trkpt>
      <trkpt lat="43.48989" lon="6.17744">
        <ele>190.4</ele>
        <time>2024-03-27T14:38:21Z</time>
      </trkpt>
      <trkpt lat="43.48989" lon="6.17744">
        <ele>190.5</ele>
        <time>2024-03-27T14:38:22Z</time>
      </trkpt>
      <trkpt lat="43.48989" lon="6.17744">
        <ele>190.5</ele>
        <time>2024-03-27T14:38:23Z</time>
      </trkpt>
      <trkpt lat="43.48989" lon="6.17744">
        <ele>190.5</ele>
        <time>2024-03-27T14:38:24Z</time>
      </trkpt>
      <trkpt lat="43.48989" lon="6.17744">
        <ele>190.6</ele>
        <time>2024-03-27T14:38:25Z</time>
      </trkpt>
      <trkpt lat="43.48989" lon="6.17744">
        <ele>190.6</ele>
        <time>2024-03-27T14:38:26Z</time>
      </trkpt>
      <trkpt lat="43.48989" lon="6.17744">
        <ele>190.6</ele>
        <time>2024-03-27T14:38:27Z</time>
      </trkpt>
      <trkpt lat="43.48989" lon="6.17744">
        <ele>190.6</ele>
        <time>2024-03-27T14:38:28Z</time>
      </trkpt>
      <trkpt lat="43.48989" lon="6.17744">
        <ele>190.6</ele>
        <time>2024-03-27T14:38:29Z</time>
      </trkpt>
      <trkpt lat="43.48989" lon="6.17744">
        <ele>190.6</ele>
        <time>2024-03-27T14:38:30Z</time>
      </trkpt>
      <trkpt lat="43.48989" lon="6.17744">
        <ele>190.7</ele>
        <time>2024-03-27T14:38:31Z</time>
      </trkpt>
      <trkpt lat="43.48989" lon="6.17744">
        <ele>190.8</ele>
        <time>2024-03-27T14:38:32Z</time>
      </trkpt>
      <trkpt lat="43.48989" lon="6.17744">
        <ele>190.8</ele>
        <time>2024-03-27T14:38:33Z</time>
      </trkpt>
      <trkpt lat="43.48989" lon="6.17744">
        <ele>190.9</ele>
        <time>2024-03-27T14:38:34Z</time>
      </trkpt>
      <trkpt lat="43.48989" lon="6.17744">
        <ele>190.9</ele>
        <time>2024-03-27T14:38:35Z</time>
      </trkpt>
      <trkpt lat="43.48989" lon="6.17744">
        <ele>190.9</ele>
        <time>2024-03-27T14:38:36Z</time>
      </trkpt>
      <trkpt lat="43.4899" lon="6.17744">
        <ele>190.9</ele>
        <time>2024-03-27T14:38:37Z</time>
      </trkpt>
      <trkpt lat="43.4899" lon="6.17744">
        <ele>190.9</ele>
        <time>2024-03-27T14:38:38Z</time>
      </trkpt>
      <trkpt lat="43.4899" lon="6.17744">
        <ele>191</ele>
        <time>2024-03-27T14:38:39Z</time>
      </trkpt>
      <trkpt lat="43.4899" lon="6.17744">
        <ele>191.1</ele>
        <time>2024-03-27T14:38:40Z</time>
      </trkpt>
      <trkpt lat="43.4899" lon="6.17744">
        <ele>191.1</ele>
        <time>2024-03-27T14:38:41Z</time>
      </trkpt>
      <trkpt lat="43.4899" lon="6.17744">
        <ele>191.1</ele>
        <time>2024-03-27T14:38:42Z</time>
      </trkpt>
      <trkpt lat="43.4899" lon="6.17744">
        <ele>191</ele>
        <time>2024-03-27T14:38:43Z</time>
      </trkpt>
      <trkpt lat="43.4899" lon="6.17744">
        <ele>191</ele>
        <time>2024-03-27T14:38:44Z</time>
      </trkpt>
      <trkpt lat="43.4899" lon="6.17744">
        <ele>191</ele>
        <time>2024-03-27T14:38:45Z</time>
      </trkpt>
      <trkpt lat="43.4899" lon="6.17744">
        <ele>191</ele>
        <time>2024-03-27T14:38:46Z</time>
      </trkpt>
      <trkpt lat="43.4899" lon="6.17744">
        <ele>190.9</ele>
        <time>2024-03-27T14:38:47Z</time>
      </trkpt>
      <trkpt lat="43.4899" lon="6.17744">
        <ele>190.8</ele>
        <time>2024-03-27T14:38:48Z</time>
      </trkpt>
      <trkpt lat="43.4899" lon="6.17744">
        <ele>190.8</ele>
        <time>2024-03-27T14:38:49Z</time>
      </trkpt>
      <trkpt lat="43.4899" lon="6.17744">
        <ele>190.8</ele>
        <time>2024-03-27T14:38:50Z</time>
      </trkpt>
      <trkpt lat="43.4899" lon="6.17744">
        <ele>190.9</ele>
        <time>2024-03-27T14:38:51Z</time>
      </trkpt>
      <trkpt lat="43.4899" lon="6.17744">
        <ele>190.9</ele>
        <time>2024-03-27T14:38:52Z</time>
      </trkpt>
      <trkpt lat="43.4899" lon="6.17744">
        <ele>190.9</ele>
        <time>2024-03-27T14:38:53Z</time>
      </trkpt>
      <trkpt lat="43.4899" lon="6.17744">
        <ele>190.9</ele>
        <time>2024-03-27T14:38:54Z</time>
      </trkpt>
      <trkpt lat="43.4899" lon="6.17744">
        <ele>190.9</ele>
        <time>2024-03-27T14:38:55Z</time>
      </trkpt>
      <trkpt lat="43.4899" lon="6.17744">
        <ele>191</ele>
        <time>2024-03-27T14:38:56Z</time>
      </trkpt>
      <trkpt lat="43.4899" lon="6.17744">
        <ele>191</ele>
        <time>2024-03-27T14:38:57Z</time>
      </trkpt>
      <trkpt lat="43.4899" lon="6.17744">
        <ele>191</ele>
        <time>2024-03-27T14:38:58Z</time>
      </trkpt>
      <trkpt lat="43.4899" lon="6.17744">
        <ele>191</ele>
        <time>2024-03-27T14:38:59Z</time>
      </trkpt>
      <trkpt lat="43.4899" lon="6.17743">
        <ele>191</ele>
        <time>2024-03-27T14:39:00Z</time>
      </trkpt>
      <trkpt lat="43.4899" lon="6.17743">
        <ele>191</ele>
        <time>2024-03-27T14:39:01Z</time>
      </trkpt>
      <trkpt lat="43.4899" lon="6.17743">
        <ele>191.1</ele>
        <time>2024-03-27T14:39:02Z</time>
      </trkpt>
      <trkpt lat="43.4899" lon="6.17743">
        <ele>191</ele>
        <time>2024-03-27T14:39:03Z</time>
      </trkpt>
      <trkpt lat="43.4899" lon="6.17743">
        <ele>190.9</ele>
        <time>2024-03-27T14:39:04Z</time>
      </trkpt>
      <trkpt lat="43.4899" lon="6.17743">
        <ele>190.8</ele>
        <time>2024-03-27T14:39:05Z</time>
      </trkpt>
      <trkpt lat="43.4899" lon="6.17743">
        <ele>190.8</ele>
        <time>2024-03-27T14:39:06Z</time>
      </trkpt>
      <trkpt lat="43.4899" lon="6.17743">
        <ele>190.8</ele>
        <time>2024-03-27T14:39:07Z</time>
      </trkpt>
      <trkpt lat="43.4899" lon="6.17743">
        <ele>190.7</ele>
        <time>2024-03-27T14:39:08Z</time>
      </trkpt>
      <trkpt lat="43.4899" lon="6.17743">
        <ele>190.6</ele>
        <time>2024-03-27T14:39:09Z</time>
      </trkpt>
      <trkpt lat="43.4899" lon="6.17743">
        <ele>190.6</ele>
        <time>2024-03-27T14:39:10Z</time>
      </trkpt>
      <trkpt lat="43.4899" lon="6.17743">
        <ele>190.6</ele>
        <time>2024-03-27T14:39:11Z</time>
      </trkpt>
      <trkpt lat="43.4899" lon="6.17743">
        <ele>190.6</ele>
        <time>2024-03-27T14:39:12Z</time>
      </trkpt>
      <trkpt lat="43.4899" lon="6.17743">
        <ele>190.7</ele>
        <time>2024-03-27T14:39:13Z</time>
      </trkpt>
      <trkpt lat="43.4899" lon="6.17743">
        <ele>190.7</ele>
        <time>2024-03-27T14:39:14Z</time>
      </trkpt>
      <trkpt lat="43.4899" lon="6.17743">
        <ele>190.7</ele>
        <time>2024-03-27T14:39:15Z</time>
      </trkpt>
      <trkpt lat="43.4899" lon="6.17743">
        <ele>190.6</ele>
        <time>2024-03-27T14:39:16Z</time>
      </trkpt>
      <trkpt lat="43.48991" lon="6.17743">
        <ele>190.6</ele>
        <time>2024-03-27T14:39:17Z</time>
      </trkpt>
      <trkpt lat="43.4899" lon="6.17743">
        <ele>190.6</ele>
        <time>2024-03-27T14:39:18Z</time>
      </trkpt>
      <trkpt lat="43.48991" lon="6.17743">
        <ele>190.5</ele>
        <time>2024-03-27T14:39:19Z</time>
      </trkpt>
      <trkpt lat="43.48991" lon="6.17743">
        <ele>190.5</ele>
        <time>2024-03-27T14:39:20Z</time>
      </trkpt>
      <trkpt lat="43.4899" lon="6.17743">
        <ele>190.5</ele>
        <time>2024-03-27T14:39:21Z</time>
      </trkpt>
      <trkpt lat="43.4899" lon="6.17743">
        <ele>190.6</ele>
        <time>2024-03-27T14:39:22Z</time>
      </trkpt>
      <trkpt lat="43.4899" lon="6.17743">
        <ele>190.6</ele>
        <time>2024-03-27T14:39:23Z</time>
      </trkpt>
      <trkpt lat="43.4899" lon="6.17743">
        <ele>190.7</ele>
        <time>2024-03-27T14:39:24Z</time>
      </trkpt>
      <trkpt lat="43.4899" lon="6.17742">
        <ele>190.7</ele>
        <time>2024-03-27T14:39:25Z</time>
      </trkpt>
      <trkpt lat="43.4899" lon="6.17742">
        <ele>190.7</ele>
        <time>2024-03-27T14:39:26Z</time>
      </trkpt>
      <trkpt lat="43.4899" lon="6.17742">
        <ele>190.7</ele>
        <time>2024-03-27T14:39:27Z</time>
      </trkpt>
      <trkpt lat="43.4899" lon="6.17742">
        <ele>190.8</ele>
        <time>2024-03-27T14:39:28Z</time>
      </trkpt>
      <trkpt lat="43.4899" lon="6.17742">
        <ele>190.8</ele>
        <time>2024-03-27T14:39:29Z</time>
      </trkpt>
      <trkpt lat="43.4899" lon="6.17742">
        <ele>190.8</ele>
        <time>2024-03-27T14:39:30Z</time>
      </trkpt>
      <trkpt lat="43.4899" lon="6.17742">
        <ele>190.8</ele>
        <time>2024-03-27T14:39:31Z</time>
      </trkpt>
      <trkpt lat="43.48989" lon="6.17741">
        <ele>190.7</ele>
        <time>2024-03-27T14:39:32Z</time>
      </trkpt>
      <trkpt lat="43.48989" lon="6.17741">
        <ele>190.7</ele>
        <time>2024-03-27T14:39:33Z</time>
      </trkpt>
      <trkpt lat="43.48989" lon="6.17741">
        <ele>190.6</ele>
        <time>2024-03-27T14:39:34Z</time>
      </trkpt>
      <trkpt lat="43.48989" lon="6.17741">
        <ele>190.6</ele>
        <time>2024-03-27T14:39:35Z</time>
      </trkpt>
      <trkpt lat="43.48989" lon="6.17741">
        <ele>190.6</ele>
        <time>2024-03-27T14:39:36Z</time>
      </trkpt>
      <trkpt lat="43.48989" lon="6.17741">
        <ele>190.6</ele>
        <time>2024-03-27T14:39:37Z</time>
      </trkpt>
      <trkpt lat="43.48989" lon="6.17741">
        <ele>190.7</ele>
        <time>2024-03-27T14:39:38Z</time>
      </trkpt>
      <trkpt lat="43.48989" lon="6.17741">
        <ele>190.7</ele>
        <time>2024-03-27T14:39:39Z</time>
      </trkpt>
      <trkpt lat="43.48989" lon="6.17741">
        <ele>190.7</ele>
        <time>2024-03-27T14:39:40Z</time>
      </trkpt>
      <trkpt lat="43.48989" lon="6.17741">
        <ele>190.7</ele>
        <time>2024-03-27T14:39:41Z</time>
      </trkpt>
      <trkpt lat="43.48989" lon="6.17741">
        <ele>190.6</ele>
        <time>2024-03-27T14:39:42Z</time>
      </trkpt>
      <trkpt lat="43.48989" lon="6.17741">
        <ele>190.6</ele>
        <time>2024-03-27T14:39:43Z</time>
      </trkpt>
      <trkpt lat="43.48989" lon="6.17741">
        <ele>190.6</ele>
        <time>2024-03-27T14:39:44Z</time>
      </trkpt>
      <trkpt lat="43.48989" lon="6.17741">
        <ele>190.5</ele>
        <time>2024-03-27T14:39:45Z</time>
      </trkpt>
      <trkpt lat="43.4899" lon="6.17741">
        <ele>190.5</ele>
        <time>2024-03-27T14:39:46Z</time>
      </trkpt>
      <trkpt lat="43.4899" lon="6.17741">
        <ele>190.4</ele>
        <time>2024-03-27T14:39:47Z</time>
      </trkpt>
      <trkpt lat="43.4899" lon="6.17741">
        <ele>190.2</ele>
        <time>2024-03-27T14:39:48Z</time>
      </trkpt>
      <trkpt lat="43.4899" lon="6.17741">
        <ele>190</ele>
        <time>2024-03-27T14:39:49Z</time>
      </trkpt>
      <trkpt lat="43.4899" lon="6.17741">
        <ele>189.9</ele>
        <time>2024-03-27T14:39:50Z</time>
      </trkpt>
      <trkpt lat="43.4899" lon="6.17741">
        <ele>189.9</ele>
        <time>2024-03-27T14:39:51Z</time>
      </trkpt>
      <trkpt lat="43.4899" lon="6.17741">
        <ele>189.9</ele>
        <time>2024-03-27T14:39:52Z</time>
      </trkpt>
      <trkpt lat="43.4899" lon="6.17741">
        <ele>189.9</ele>
        <time>2024-03-27T14:39:53Z</time>
      </trkpt>
      <trkpt lat="43.4899" lon="6.17741">
        <ele>189.9</ele>
        <time>2024-03-27T14:39:54Z</time>
      </trkpt>
      <trkpt lat="43.4899" lon="6.17741">
        <ele>190</ele>
        <time>2024-03-27T14:39:55Z</time>
      </trkpt>
      <trkpt lat="43.4899" lon="6.17741">
        <ele>189.9</ele>
        <time>2024-03-27T14:39:56Z</time>
      </trkpt>
      <trkpt lat="43.4899" lon="6.17741">
        <ele>189.9</ele>
        <time>2024-03-27T14:39:57Z</time>
      </trkpt>
      <trkpt lat="43.4899" lon="6.17741">
        <ele>189.8</ele>
        <time>2024-03-27T14:39:58Z</time>
      </trkpt>
      <trkpt lat="43.4899" lon="6.17741">
        <ele>189.8</ele>
        <time>2024-03-27T14:39:59Z</time>
      </trkpt>
      <trkpt lat="43.4899" lon="6.17741">
        <ele>189.8</ele>
        <time>2024-03-27T14:40:00Z</time>
      </trkpt>
      <trkpt lat="43.4899" lon="6.17741">
        <ele>189.9</ele>
        <time>2024-03-27T14:40:01Z</time>
      </trkpt>
      <trkpt lat="43.4899" lon="6.17741">
        <ele>190</ele>
        <time>2024-03-27T14:40:02Z</time>
      </trkpt>
      <trkpt lat="43.4899" lon="6.17741">
        <ele>190</ele>
        <time>2024-03-27T14:40:03Z</time>
      </trkpt>
      <trkpt lat="43.4899" lon="6.17741">
        <ele>190.2</ele>
        <time>2024-03-27T14:40:04Z</time>
      </trkpt>
      <trkpt lat="43.4899" lon="6.17741">
        <ele>190.3</ele>
        <time>2024-03-27T14:40:05Z</time>
      </trkpt>
      <trkpt lat="43.48991" lon="6.17741">
        <ele>190.3</ele>
        <time>2024-03-27T14:40:06Z</time>
      </trkpt>
      <trkpt lat="43.48991" lon="6.17741">
        <ele>190.4</ele>
        <time>2024-03-27T14:40:07Z</time>
      </trkpt>
      <trkpt lat="43.48991" lon="6.17741">
        <ele>190.4</ele>
        <time>2024-03-27T14:40:08Z</time>
      </trkpt>
      <trkpt lat="43.48991" lon="6.17741">
        <ele>190.5</ele>
        <time>2024-03-27T14:40:09Z</time>
      </trkpt>
      <trkpt lat="43.48991" lon="6.17741">
        <ele>190.5</ele>
        <time>2024-03-27T14:40:10Z</time>
      </trkpt>
      <trkpt lat="43.48991" lon="6.17741">
        <ele>190.6</ele>
        <time>2024-03-27T14:40:11Z</time>
      </trkpt>
      <trkpt lat="43.48991" lon="6.17741">
        <ele>190.5</ele>
        <time>2024-03-27T14:40:12Z</time>
      </trkpt>
      <trkpt lat="43.48991" lon="6.17742">
        <ele>190.5</ele>
        <time>2024-03-27T14:40:13Z</time>
      </trkpt>
      <trkpt lat="43.48992" lon="6.17743">
        <ele>190.6</ele>
        <time>2024-03-27T14:40:14Z</time>
      </trkpt>
      <trkpt lat="43.48993" lon="6.17743">
        <ele>190.6</ele>
        <time>2024-03-27T14:40:15Z</time>
      </trkpt>
      <trkpt lat="43.48993" lon="6.17743">
        <ele>190.6</ele>
        <time>2024-03-27T14:40:16Z</time>
      </trkpt>
      <trkpt lat="43.48994" lon="6.17743">
        <ele>190.6</ele>
        <time>2024-03-27T14:40:17Z</time>
      </trkpt>
      <trkpt lat="43.48995" lon="6.17744">
        <ele>190.6</ele>
        <time>2024-03-27T14:40:18Z</time>
      </trkpt>
      <trkpt lat="43.48995" lon="6.17744">
        <ele>190.6</ele>
        <time>2024-03-27T14:40:19Z</time>
      </trkpt>
      <trkpt lat="43.48996" lon="6.17745">
        <ele>190.6</ele>
        <time>2024-03-27T14:40:20Z</time>
      </trkpt>
      <trkpt lat="43.48997" lon="6.17745">
        <ele>190.6</ele>
        <time>2024-03-27T14:40:21Z</time>
      </trkpt>
      <trkpt lat="43.48998" lon="6.17745">
        <ele>190.6</ele>
        <time>2024-03-27T14:40:22Z</time>
      </trkpt>
      <trkpt lat="43.48999" lon="6.17746">
        <ele>190.5</ele>
        <time>2024-03-27T14:40:23Z</time>
      </trkpt>
      <trkpt lat="43.49" lon="6.17746">
        <ele>190.4</ele>
        <time>2024-03-27T14:40:24Z</time>
      </trkpt>
      <trkpt lat="43.49002" lon="6.17747">
        <ele>190.3</ele>
        <time>2024-03-27T14:40:25Z</time>
      </trkpt>
      <trkpt lat="43.49003" lon="6.17747">
        <ele>190.2</ele>
        <time>2024-03-27T14:40:26Z</time>
      </trkpt>
      <trkpt lat="43.49004" lon="6.17748">
        <ele>190</ele>
        <time>2024-03-27T14:40:27Z</time>
      </trkpt>
      <trkpt lat="43.49005" lon="6.17748">
        <ele>189.9</ele>
        <time>2024-03-27T14:40:28Z</time>
      </trkpt>
      <trkpt lat="43.49006" lon="6.17748">
        <ele>189.8</ele>
        <time>2024-03-27T14:40:29Z</time>
      </trkpt>
      <trkpt lat="43.49007" lon="6.17748">
        <ele>190</ele>
        <time>2024-03-27T14:40:30Z</time>
      </trkpt>
      <trkpt lat="43.49008" lon="6.17748">
        <ele>189.9</ele>
        <time>2024-03-27T14:40:31Z</time>
      </trkpt>
      <trkpt lat="43.49009" lon="6.17748">
        <ele>189.7</ele>
        <time>2024-03-27T14:40:32Z</time>
      </trkpt>
      <trkpt lat="43.4901" lon="6.17748">
        <ele>189.6</ele>
        <time>2024-03-27T14:40:33Z</time>
      </trkpt>
      <trkpt lat="43.49011" lon="6.17748">
        <ele>189.7</ele>
        <time>2024-03-27T14:40:34Z</time>
      </trkpt>
      <trkpt lat="43.49012" lon="6.17748">
        <ele>189.5</ele>
        <time>2024-03-27T14:40:35Z</time>
      </trkpt>
      <trkpt lat="43.49013" lon="6.17748">
        <ele>189.4</ele>
        <time>2024-03-27T14:40:36Z</time>
      </trkpt>
      <trkpt lat="43.49014" lon="6.17749">
        <ele>189.4</ele>
        <time>2024-03-27T14:40:37Z</time>
      </trkpt>
      <trkpt lat="43.49015" lon="6.17749">
        <ele>189.5</ele>
        <time>2024-03-27T14:40:38Z</time>
      </trkpt>
      <trkpt lat="43.49016" lon="6.1775">
        <ele>189.5</ele>
        <time>2024-03-27T14:40:39Z</time>
      </trkpt>
      <trkpt lat="43.49017" lon="6.1775">
        <ele>189.5</ele>
        <time>2024-03-27T14:40:40Z</time>
      </trkpt>
      <trkpt lat="43.49018" lon="6.17751">
        <ele>189.6</ele>
        <time>2024-03-27T14:40:41Z</time>
      </trkpt>
      <trkpt lat="43.49019" lon="6.1775">
        <ele>189.6</ele>
        <time>2024-03-27T14:40:42Z</time>
      </trkpt>
      <trkpt lat="43.4902" lon="6.17749">
        <ele>189.6</ele>
        <time>2024-03-27T14:40:43Z</time>
      </trkpt>
      <trkpt lat="43.4902" lon="6.17749">
        <ele>189.6</ele>
        <time>2024-03-27T14:40:44Z</time>
      </trkpt>
      <trkpt lat="43.49021" lon="6.17749">
        <ele>189.5</ele>
        <time>2024-03-27T14:40:45Z</time>
      </trkpt>
      <trkpt lat="43.49023" lon="6.17749">
        <ele>189.4</ele>
        <time>2024-03-27T14:40:46Z</time>
      </trkpt>
      <trkpt lat="43.49024" lon="6.17749">
        <ele>189.2</ele>
        <time>2024-03-27T14:40:47Z</time>
      </trkpt>
      <trkpt lat="43.49025" lon="6.17749">
        <ele>189.2</ele>
        <time>2024-03-27T14:40:48Z</time>
      </trkpt>
      <trkpt lat="43.49027" lon="6.17748">
        <ele>189.2</ele>
        <time>2024-03-27T14:40:49Z</time>
      </trkpt>
      <trkpt lat="43.49028" lon="6.17748">
        <ele>189.2</ele>
        <time>2024-03-27T14:40:50Z</time>
      </trkpt>
      <trkpt lat="43.49029" lon="6.17746">
        <ele>189.1</ele>
        <time>2024-03-27T14:40:51Z</time>
      </trkpt>
      <trkpt lat="43.49029" lon="6.17745">
        <ele>189.2</ele>
        <time>2024-03-27T14:40:52Z</time>
      </trkpt>
      <trkpt lat="43.49031" lon="6.17744">
        <ele>189.2</ele>
        <time>2024-03-27T14:40:53Z</time>
      </trkpt>
      <trkpt lat="43.49031" lon="6.17744">
        <ele>189.2</ele>
        <time>2024-03-27T14:40:54Z</time>
      </trkpt>
      <trkpt lat="43.49032" lon="6.17744">
        <ele>189.2</ele>
        <time>2024-03-27T14:40:55Z</time>
      </trkpt>
      <trkpt lat="43.49034" lon="6.17743">
        <ele>189.3</ele>
        <time>2024-03-27T14:40:56Z</time>
      </trkpt>
      <trkpt lat="43.49035" lon="6.17743">
        <ele>189.3</ele>
        <time>2024-03-27T14:40:57Z</time>
      </trkpt>
      <trkpt lat="43.49036" lon="6.17743">
        <ele>189.4</ele>
        <time>2024-03-27T14:40:58Z</time>
      </trkpt>
      <trkpt lat="43.49037" lon="6.17742">
        <ele>189.4</ele>
        <time>2024-03-27T14:40:59Z</time>
      </trkpt>
      <trkpt lat="43.49038" lon="6.17742">
        <ele>189.4</ele>
        <time>2024-03-27T14:41:00Z</time>
      </trkpt>
      <trkpt lat="43.49039" lon="6.17742">
        <ele>189.4</ele>
        <time>2024-03-27T14:41:01Z</time>
      </trkpt>
      <trkpt lat="43.4904" lon="6.17741">
        <ele>189.3</ele>
        <time>2024-03-27T14:41:02Z</time>
      </trkpt>
      <trkpt lat="43.49042" lon="6.17741">
        <ele>189.1</ele>
        <time>2024-03-27T14:41:03Z</time>
      </trkpt>
      <trkpt lat="43.49043" lon="6.17741">
        <ele>189.1</ele>
        <time>2024-03-27T14:41:04Z</time>
      </trkpt>
      <trkpt lat="43.49044" lon="6.1774">
        <ele>189.1</ele>
        <time>2024-03-27T14:41:05Z</time>
      </trkpt>
      <trkpt lat="43.49045" lon="6.1774">
        <ele>189.1</ele>
        <time>2024-03-27T14:41:06Z</time>
      </trkpt>
      <trkpt lat="43.49047" lon="6.17739">
        <ele>189.1</ele>
        <time>2024-03-27T14:41:07Z</time>
      </trkpt>
      <trkpt lat="43.49048" lon="6.17738">
        <ele>189.1</ele>
        <time>2024-03-27T14:41:08Z</time>
      </trkpt>
      <trkpt lat="43.49049" lon="6.17737">
        <ele>189.2</ele>
        <time>2024-03-27T14:41:09Z</time>
      </trkpt>
      <trkpt lat="43.4905" lon="6.17735">
        <ele>189.2</ele>
        <time>2024-03-27T14:41:10Z</time>
      </trkpt>
      <trkpt lat="43.49051" lon="6.17734">
        <ele>189.3</ele>
        <time>2024-03-27T14:41:11Z</time>
      </trkpt>
      <trkpt lat="43.49052" lon="6.17732">
        <ele>189.3</ele>
        <time>2024-03-27T14:41:12Z</time>
      </trkpt>
      <trkpt lat="43.49052" lon="6.1773">
        <ele>189.3</ele>
        <time>2024-03-27T14:41:13Z</time>
      </trkpt>
      <trkpt lat="43.49053" lon="6.17728">
        <ele>189.3</ele>
        <time>2024-03-27T14:41:14Z</time>
      </trkpt>
      <trkpt lat="43.49052" lon="6.17725">
        <ele>189.4</ele>
        <time>2024-03-27T14:41:15Z</time>
      </trkpt>
      <trkpt lat="43.49052" lon="6.17723">
        <ele>189.4</ele>
        <time>2024-03-27T14:41:16Z</time>
      </trkpt>
      <trkpt lat="43.49052" lon="6.17722">
        <ele>189.5</ele>
        <time>2024-03-27T14:41:17Z</time>
      </trkpt>
      <trkpt lat="43.49052" lon="6.1772">
        <ele>189.5</ele>
        <time>2024-03-27T14:41:18Z</time>
      </trkpt>
      <trkpt lat="43.49052" lon="6.17718">
        <ele>189.5</ele>
        <time>2024-03-27T14:41:19Z</time>
      </trkpt>
      <trkpt lat="43.49052" lon="6.17716">
        <ele>189.5</ele>
        <time>2024-03-27T14:41:20Z</time>
      </trkpt>
      <trkpt lat="43.49052" lon="6.17714">
        <ele>189.5</ele>
        <time>2024-03-27T14:41:21Z</time>
      </trkpt>
      <trkpt lat="43.49052" lon="6.17713">
        <ele>189.6</ele>
        <time>2024-03-27T14:41:22Z</time>
      </trkpt>
      <trkpt lat="43.49052" lon="6.17711">
        <ele>189.6</ele>
        <time>2024-03-27T14:41:23Z</time>
      </trkpt>
      <trkpt lat="43.49052" lon="6.17709">
        <ele>189.6</ele>
        <time>2024-03-27T14:41:24Z</time>
      </trkpt>
      <trkpt lat="43.49052" lon="6.17707">
        <ele>189.6</ele>
        <time>2024-03-27T14:41:25Z</time>
      </trkpt>
      <trkpt lat="43.49052" lon="6.17706">
        <ele>189.6</ele>
        <time>2024-03-27T14:41:26Z</time>
      </trkpt>
      <trkpt lat="43.49052" lon="6.17704">
        <ele>189.6</ele>
        <time>2024-03-27T14:41:27Z</time>
      </trkpt>
      <trkpt lat="43.49052" lon="6.17702">
        <ele>189.6</ele>
        <time>2024-03-27T14:41:28Z</time>
      </trkpt>
      <trkpt lat="43.49053" lon="6.177">
        <ele>189.5</ele>
        <time>2024-03-27T14:41:29Z</time>
      </trkpt>
      <trkpt lat="43.49053" lon="6.17699">
        <ele>189.4</ele>
        <time>2024-03-27T14:41:30Z</time>
      </trkpt>
      <trkpt lat="43.49054" lon="6.17697">
        <ele>189.3</ele>
        <time>2024-03-27T14:41:31Z</time>
      </trkpt>
      <trkpt lat="43.49055" lon="6.17696">
        <ele>189</ele>
        <time>2024-03-27T14:41:32Z</time>
      </trkpt>
      <trkpt lat="43.49056" lon="6.17696">
        <ele>188.9</ele>
        <time>2024-03-27T14:41:33Z</time>
      </trkpt>
      <trkpt lat="43.49056" lon="6.17696">
        <ele>188.9</ele>
        <time>2024-03-27T14:41:34Z</time>
      </trkpt>
      <trkpt lat="43.49057" lon="6.17696">
        <ele>188.9</ele>
        <time>2024-03-27T14:41:35Z</time>
      </trkpt>
      <trkpt lat="43.49059" lon="6.17696">
        <ele>189</ele>
        <time>2024-03-27T14:41:36Z</time>
      </trkpt>
      <trkpt lat="43.4906" lon="6.17696">
        <ele>189</ele>
        <time>2024-03-27T14:41:37Z</time>
      </trkpt>
      <trkpt lat="43.49061" lon="6.17696">
        <ele>189.1</ele>
        <time>2024-03-27T14:41:38Z</time>
      </trkpt>
      <trkpt lat="43.49062" lon="6.17696">
        <ele>189.1</ele>
        <time>2024-03-27T14:41:39Z</time>
      </trkpt>
      <trkpt lat="43.49063" lon="6.17696">
        <ele>189.1</ele>
        <time>2024-03-27T14:41:40Z</time>
      </trkpt>
      <trkpt lat="43.49063" lon="6.17695">
        <ele>189.3</ele>
        <time>2024-03-27T14:41:41Z</time>
      </trkpt>
      <trkpt lat="43.49064" lon="6.17695">
        <ele>189.4</ele>
        <time>2024-03-27T14:41:42Z</time>
      </trkpt>
      <trkpt lat="43.49064" lon="6.17694">
        <ele>189.4</ele>
        <time>2024-03-27T14:41:43Z</time>
      </trkpt>
      <trkpt lat="43.49065" lon="6.17694">
        <ele>189.5</ele>
        <time>2024-03-27T14:41:44Z</time>
      </trkpt>
      <trkpt lat="43.49065" lon="6.17694">
        <ele>189.6</ele>
        <time>2024-03-27T14:41:45Z</time>
      </trkpt>
      <trkpt lat="43.49065" lon="6.17694">
        <ele>189.7</ele>
        <time>2024-03-27T14:41:46Z</time>
      </trkpt>
      <trkpt lat="43.49065" lon="6.17693">
        <ele>189.7</ele>
        <time>2024-03-27T14:41:47Z</time>
      </trkpt>
      <trkpt lat="43.49065" lon="6.17693">
        <ele>189.8</ele>
        <time>2024-03-27T14:41:48Z</time>
      </trkpt>
      <trkpt lat="43.49065" lon="6.17693">
        <ele>189.8</ele>
        <time>2024-03-27T14:41:49Z</time>
      </trkpt>
      <trkpt lat="43.49065" lon="6.17693">
        <ele>190</ele>
        <time>2024-03-27T14:41:50Z</time>
      </trkpt>
      <trkpt lat="43.49065" lon="6.17693">
        <ele>190.1</ele>
        <time>2024-03-27T14:41:51Z</time>
      </trkpt>
      <trkpt lat="43.49065" lon="6.17693">
        <ele>190.2</ele>
        <time>2024-03-27T14:41:52Z</time>
      </trkpt>
      <trkpt lat="43.49065" lon="6.17693">
        <ele>190.2</ele>
        <time>2024-03-27T14:41:53Z</time>
      </trkpt>
      <trkpt lat="43.49065" lon="6.17693">
        <ele>190.2</ele>
        <time>2024-03-27T14:41:54Z</time>
      </trkpt>
      <trkpt lat="43.49065" lon="6.17693">
        <ele>190.2</ele>
        <time>2024-03-27T14:41:55Z</time>
      </trkpt>
      <trkpt lat="43.49065" lon="6.17693">
        <ele>190.2</ele>
        <time>2024-03-27T14:41:56Z</time>
      </trkpt>
      <trkpt lat="43.49065" lon="6.17693">
        <ele>190.2</ele>
        <time>2024-03-27T14:41:57Z</time>
      </trkpt>
      <trkpt lat="43.49065" lon="6.17692">
        <ele>190.1</ele>
        <time>2024-03-27T14:41:58Z</time>
      </trkpt>
      <trkpt lat="43.49066" lon="6.17692">
        <ele>190.1</ele>
        <time>2024-03-27T14:41:59Z</time>
      </trkpt>
      <trkpt lat="43.49066" lon="6.17692">
        <ele>190.3</ele>
        <time>2024-03-27T14:42:00Z</time>
      </trkpt>
      <trkpt lat="43.49066" lon="6.17691">
        <ele>190.4</ele>
        <time>2024-03-27T14:42:01Z</time>
      </trkpt>
      <trkpt lat="43.49066" lon="6.17691">
        <ele>190.5</ele>
        <time>2024-03-27T14:42:02Z</time>
      </trkpt>
      <trkpt lat="43.49066" lon="6.17691">
        <ele>190.5</ele>
        <time>2024-03-27T14:42:03Z</time>
      </trkpt>
      <trkpt lat="43.49066" lon="6.17691">
        <ele>190.5</ele>
        <time>2024-03-27T14:42:04Z</time>
      </trkpt>
      <trkpt lat="43.49065" lon="6.17692">
        <ele>190.4</ele>
        <time>2024-03-27T14:42:05Z</time>
      </trkpt>
      <trkpt lat="43.49065" lon="6.17692">
        <ele>190.4</ele>
        <time>2024-03-27T14:42:06Z</time>
      </trkpt>
      <trkpt lat="43.49064" lon="6.17692">
        <ele>190.4</ele>
        <time>2024-03-27T14:42:07Z</time>
      </trkpt>
      <trkpt lat="43.49063" lon="6.17692">
        <ele>190.4</ele>
        <time>2024-03-27T14:42:08Z</time>
      </trkpt>
      <trkpt lat="43.49063" lon="6.17691">
        <ele>190.4</ele>
        <time>2024-03-27T14:42:09Z</time>
      </trkpt>
      <trkpt lat="43.49063" lon="6.17691">
        <ele>190.4</ele>
        <time>2024-03-27T14:42:10Z</time>
      </trkpt>
      <trkpt lat="43.49063" lon="6.17691">
        <ele>190.3</ele>
        <time>2024-03-27T14:42:11Z</time>
      </trkpt>
      <trkpt lat="43.49063" lon="6.17691">
        <ele>190.3</ele>
        <time>2024-03-27T14:42:12Z</time>
      </trkpt>
      <trkpt lat="43.49063" lon="6.17691">
        <ele>190.3</ele>
        <time>2024-03-27T14:42:13Z</time>
      </trkpt>
      <trkpt lat="43.49063" lon="6.17691">
        <ele>190.2</ele>
        <time>2024-03-27T14:42:14Z</time>
      </trkpt>
      <trkpt lat="43.49063" lon="6.17691">
        <ele>190.3</ele>
        <time>2024-03-27T14:42:15Z</time>
      </trkpt>
      <trkpt lat="43.49063" lon="6.17691">
        <ele>190.3</ele>
        <time>2024-03-27T14:42:16Z</time>
      </trkpt>
      <trkpt lat="43.49063" lon="6.17691">
        <ele>190.3</ele>
        <time>2024-03-27T14:42:17Z</time>
      </trkpt>
      <trkpt lat="43.49063" lon="6.17691">
        <ele>190.2</ele>
        <time>2024-03-27T14:42:18Z</time>
      </trkpt>
      <trkpt lat="43.49063" lon="6.17691">
        <ele>190.2</ele>
        <time>2024-03-27T14:42:19Z</time>
      </trkpt>
      <trkpt lat="43.49063" lon="6.17691">
        <ele>190.1</ele>
        <time>2024-03-27T14:42:20Z</time>
      </trkpt>
      <trkpt lat="43.49064" lon="6.17691">
        <ele>190.1</ele>
        <time>2024-03-27T14:42:21Z</time>
      </trkpt>
      <trkpt lat="43.49064" lon="6.17691">
        <ele>190.1</ele>
        <time>2024-03-27T14:42:22Z</time>
      </trkpt>
      <trkpt lat="43.49064" lon="6.17691">
        <ele>190</ele>
        <time>2024-03-27T14:42:23Z</time>
      </trkpt>
      <trkpt lat="43.49064" lon="6.17691">
        <ele>190</ele>
        <time>2024-03-27T14:42:24Z</time>
      </trkpt>
      <trkpt lat="43.49064" lon="6.17691">
        <ele>190</ele>
        <time>2024-03-27T14:42:25Z</time>
      </trkpt>
      <trkpt lat="43.49064" lon="6.17691">
        <ele>189.9</ele>
        <time>2024-03-27T14:42:26Z</time>
      </trkpt>
      <trkpt lat="43.49064" lon="6.17691">
        <ele>189.9</ele>
        <time>2024-03-27T14:42:27Z</time>
      </trkpt>
      <trkpt lat="43.49065" lon="6.17691">
        <ele>189.9</ele>
        <time>2024-03-27T14:42:28Z</time>
      </trkpt>
      <trkpt lat="43.49065" lon="6.17691">
        <ele>189.8</ele>
        <time>2024-03-27T14:42:29Z</time>
      </trkpt>
      <trkpt lat="43.49066" lon="6.17691">
        <ele>189.8</ele>
        <time>2024-03-27T14:42:30Z</time>
      </trkpt>
      <trkpt lat="43.49067" lon="6.1769">
        <ele>189.9</ele>
        <time>2024-03-27T14:42:31Z</time>
      </trkpt>
      <trkpt lat="43.49068" lon="6.17689">
        <ele>189.9</ele>
        <time>2024-03-27T14:42:32Z</time>
      </trkpt>
      <trkpt lat="43.49068" lon="6.17689">
        <ele>189.8</ele>
        <time>2024-03-27T14:42:33Z</time>
      </trkpt>
      <trkpt lat="43.49069" lon="6.17687">
        <ele>189.9</ele>
        <time>2024-03-27T14:42:34Z</time>
      </trkpt>
      <trkpt lat="43.4907" lon="6.17686">
        <ele>189.9</ele>
        <time>2024-03-27T14:42:35Z</time>
      </trkpt>
      <trkpt lat="43.4907" lon="6.17686">
        <ele>190.1</ele>
        <time>2024-03-27T14:42:36Z</time>
      </trkpt>
      <trkpt lat="43.4907" lon="6.17685">
        <ele>190.2</ele>
        <time>2024-03-27T14:42:37Z</time>
      </trkpt>
      <trkpt lat="43.4907" lon="6.17684">
        <ele>190.3</ele>
        <time>2024-03-27T14:42:38Z</time>
      </trkpt>
      <trkpt lat="43.49071" lon="6.17683">
        <ele>190.3</ele>
        <time>2024-03-27T14:42:39Z</time>
      </trkpt>
      <trkpt lat="43.49071" lon="6.17682">
        <ele>190.4</ele>
        <time>2024-03-27T14:42:40Z</time>
      </trkpt>
      <trkpt lat="43.49072" lon="6.17681">
        <ele>190.5</ele>
        <time>2024-03-27T14:42:41Z</time>
      </trkpt>
      <trkpt lat="43.49073" lon="6.17679">
        <ele>190.5</ele>
        <time>2024-03-27T14:42:42Z</time>
      </trkpt>
      <trkpt lat="43.49073" lon="6.17677">
        <ele>190.5</ele>
        <time>2024-03-27T14:42:43Z</time>
      </trkpt>
      <trkpt lat="43.49074" lon="6.17676">
        <ele>190.6</ele>
        <time>2024-03-27T14:42:44Z</time>
      </trkpt>
      <trkpt lat="43.49074" lon="6.17674">
        <ele>190.7</ele>
        <time>2024-03-27T14:42:45Z</time>
      </trkpt>
      <trkpt lat="43.49075" lon="6.17673">
        <ele>190.7</ele>
        <time>2024-03-27T14:42:46Z</time>
      </trkpt>
      <trkpt lat="43.49075" lon="6.17671">
        <ele>190.8</ele>
        <time>2024-03-27T14:42:47Z</time>
      </trkpt>
      <trkpt lat="43.49076" lon="6.1767">
        <ele>190.9</ele>
        <time>2024-03-27T14:42:48Z</time>
      </trkpt>
      <trkpt lat="43.49076" lon="6.17669">
        <ele>191</ele>
        <time>2024-03-27T14:42:49Z</time>
      </trkpt>
      <trkpt lat="43.49077" lon="6.17667">
        <ele>191.2</ele>
        <time>2024-03-27T14:42:50Z</time>
      </trkpt>
      <trkpt lat="43.49077" lon="6.17666">
        <ele>191.4</ele>
        <time>2024-03-27T14:42:51Z</time>
      </trkpt>
      <trkpt lat="43.49077" lon="6.17664">
        <ele>191.5</ele>
        <time>2024-03-27T14:42:52Z</time>
      </trkpt>
      <trkpt lat="43.49078" lon="6.17663">
        <ele>191.7</ele>
        <time>2024-03-27T14:42:53Z</time>
      </trkpt>
      <trkpt lat="43.49078" lon="6.17662">
        <ele>192</ele>
        <time>2024-03-27T14:42:54Z</time>
      </trkpt>
      <trkpt lat="43.49078" lon="6.1766">
        <ele>192.2</ele>
        <time>2024-03-27T14:42:55Z</time>
      </trkpt>
      <trkpt lat="43.49079" lon="6.17659">
        <ele>192.3</ele>
        <time>2024-03-27T14:42:56Z</time>
      </trkpt>
      <trkpt lat="43.49079" lon="6.17658">
        <ele>192.5</ele>
        <time>2024-03-27T14:42:57Z</time>
      </trkpt>
      <trkpt lat="43.49079" lon="6.17656">
        <ele>192.6</ele>
        <time>2024-03-27T14:42:58Z</time>
      </trkpt>
      <trkpt lat="43.4908" lon="6.17655">
        <ele>192.7</ele>
        <time>2024-03-27T14:42:59Z</time>
      </trkpt>
      <trkpt lat="43.4908" lon="6.17654">
        <ele>192.9</ele>
        <time>2024-03-27T14:43:00Z</time>
      </trkpt>
      <trkpt lat="43.49081" lon="6.17653">
        <ele>193</ele>
        <time>2024-03-27T14:43:01Z</time>
      </trkpt>
      <trkpt lat="43.49081" lon="6.17652">
        <ele>193.1</ele>
        <time>2024-03-27T14:43:02Z</time>
      </trkpt>
      <trkpt lat="43.49081" lon="6.17651">
        <ele>193.3</ele>
        <time>2024-03-27T14:43:03Z</time>
      </trkpt>
      <trkpt lat="43.49082" lon="6.1765">
        <ele>193.6</ele>
        <time>2024-03-27T14:43:04Z</time>
      </trkpt>
      <trkpt lat="43.49082" lon="6.17649">
        <ele>193.8</ele>
        <time>2024-03-27T14:43:05Z</time>
      </trkpt>
      <trkpt lat="43.49082" lon="6.17648">
        <ele>194</ele>
        <time>2024-03-27T14:43:06Z</time>
      </trkpt>
      <trkpt lat="43.49082" lon="6.17646">
        <ele>194.3</ele>
        <time>2024-03-27T14:43:07Z</time>
      </trkpt>
      <trkpt lat="43.49083" lon="6.17644">
        <ele>194.4</ele>
        <time>2024-03-27T14:43:08Z</time>
      </trkpt>
      <trkpt lat="43.49083" lon="6.17643">
        <ele>194.8</ele>
        <time>2024-03-27T14:43:09Z</time>
      </trkpt>
      <trkpt lat="43.49084" lon="6.17642">
        <ele>195</ele>
        <time>2024-03-27T14:43:10Z</time>
      </trkpt>
      <trkpt lat="43.49084" lon="6.17641">
        <ele>195.2</ele>
        <time>2024-03-27T14:43:11Z</time>
      </trkpt>
      <trkpt lat="43.49084" lon="6.1764">
        <ele>195.4</ele>
        <time>2024-03-27T14:43:12Z</time>
      </trkpt>
      <trkpt lat="43.49085" lon="6.17639">
        <ele>195.8</ele>
        <time>2024-03-27T14:43:13Z</time>
      </trkpt>
      <trkpt lat="43.49085" lon="6.17638">
        <ele>196</ele>
        <time>2024-03-27T14:43:14Z</time>
      </trkpt>
      <trkpt lat="43.49085" lon="6.17637">
        <ele>196.3</ele>
        <time>2024-03-27T14:43:15Z</time>
      </trkpt>
      <trkpt lat="43.49086" lon="6.17636">
        <ele>196.5</ele>
        <time>2024-03-27T14:43:16Z</time>
      </trkpt>
      <trkpt lat="43.49087" lon="6.17635">
        <ele>196.7</ele>
        <time>2024-03-27T14:43:17Z</time>
      </trkpt>
      <trkpt lat="43.49087" lon="6.17634">
        <ele>196.9</ele>
        <time>2024-03-27T14:43:18Z</time>
      </trkpt>
      <trkpt lat="43.49088" lon="6.17633">
        <ele>197</ele>
        <time>2024-03-27T14:43:19Z</time>
      </trkpt>
      <trkpt lat="43.49089" lon="6.17632">
        <ele>197.3</ele>
        <time>2024-03-27T14:43:20Z</time>
      </trkpt>
      <trkpt lat="43.49089" lon="6.1763">
        <ele>197.5</ele>
        <time>2024-03-27T14:43:21Z</time>
      </trkpt>
      <trkpt lat="43.49089" lon="6.17629">
        <ele>197.7</ele>
        <time>2024-03-27T14:43:22Z</time>
      </trkpt>
      <trkpt lat="43.4909" lon="6.17627">
        <ele>197.9</ele>
        <time>2024-03-27T14:43:23Z</time>
      </trkpt>
      <trkpt lat="43.4909" lon="6.17626">
        <ele>198</ele>
        <time>2024-03-27T14:43:24Z</time>
      </trkpt>
      <trkpt lat="43.4909" lon="6.17625">
        <ele>198.2</ele>
        <time>2024-03-27T14:43:25Z</time>
      </trkpt>
      <trkpt lat="43.4909" lon="6.17624">
        <ele>198.4</ele>
        <time>2024-03-27T14:43:26Z</time>
      </trkpt>
      <trkpt lat="43.49091" lon="6.17623">
        <ele>198.5</ele>
        <time>2024-03-27T14:43:27Z</time>
      </trkpt>
      <trkpt lat="43.49091" lon="6.17621">
        <ele>198.7</ele>
        <time>2024-03-27T14:43:28Z</time>
      </trkpt>
      <trkpt lat="43.49091" lon="6.1762">
        <ele>198.9</ele>
        <time>2024-03-27T14:43:29Z</time>
      </trkpt>
      <trkpt lat="43.4909" lon="6.17618">
        <ele>199.1</ele>
        <time>2024-03-27T14:43:30Z</time>
      </trkpt>
      <trkpt lat="43.4909" lon="6.17617">
        <ele>199.4</ele>
        <time>2024-03-27T14:43:31Z</time>
      </trkpt>
      <trkpt lat="43.4909" lon="6.17616">
        <ele>199.6</ele>
        <time>2024-03-27T14:43:32Z</time>
      </trkpt>
      <trkpt lat="43.4909" lon="6.17615">
        <ele>199.8</ele>
        <time>2024-03-27T14:43:33Z</time>
      </trkpt>
      <trkpt lat="43.4909" lon="6.17613">
        <ele>199.9</ele>
        <time>2024-03-27T14:43:34Z</time>
      </trkpt>
      <trkpt lat="43.49089" lon="6.17612">
        <ele>200.1</ele>
        <time>2024-03-27T14:43:35Z</time>
      </trkpt>
      <trkpt lat="43.4909" lon="6.1761">
        <ele>200.2</ele>
        <time>2024-03-27T14:43:36Z</time>
      </trkpt>
      <trkpt lat="43.4909" lon="6.17609">
        <ele>200.4</ele>
        <time>2024-03-27T14:43:37Z</time>
      </trkpt>
      <trkpt lat="43.4909" lon="6.17608">
        <ele>200.5</ele>
        <time>2024-03-27T14:43:38Z</time>
      </trkpt>
      <trkpt lat="43.4909" lon="6.17607">
        <ele>200.7</ele>
        <time>2024-03-27T14:43:39Z</time>
      </trkpt>
      <trkpt lat="43.49091" lon="6.17606">
        <ele>200.8</ele>
        <time>2024-03-27T14:43:40Z</time>
      </trkpt>
      <trkpt lat="43.49091" lon="6.17604">
        <ele>200.9</ele>
        <time>2024-03-27T14:43:41Z</time>
      </trkpt>
      <trkpt lat="43.49091" lon="6.17603">
        <ele>201</ele>
        <time>2024-03-27T14:43:42Z</time>
      </trkpt>
      <trkpt lat="43.49091" lon="6.17602">
        <ele>201.2</ele>
        <time>2024-03-27T14:43:43Z</time>
      </trkpt>
      <trkpt lat="43.49091" lon="6.176">
        <ele>201.3</ele>
        <time>2024-03-27T14:43:44Z</time>
      </trkpt>
      <trkpt lat="43.49092" lon="6.17599">
        <ele>201.4</ele>
        <time>2024-03-27T14:43:45Z</time>
      </trkpt>
      <trkpt lat="43.49092" lon="6.17598">
        <ele>201.7</ele>
        <time>2024-03-27T14:43:46Z</time>
      </trkpt>
      <trkpt lat="43.49092" lon="6.17597">
        <ele>201.9</ele>
        <time>2024-03-27T14:43:47Z</time>
      </trkpt>
      <trkpt lat="43.49092" lon="6.17595">
        <ele>202.1</ele>
        <time>2024-03-27T14:43:48Z</time>
      </trkpt>
      <trkpt lat="43.49092" lon="6.17594">
        <ele>202.2</ele>
        <time>2024-03-27T14:43:49Z</time>
      </trkpt>
      <trkpt lat="43.49093" lon="6.17593">
        <ele>202.4</ele>
        <time>2024-03-27T14:43:50Z</time>
      </trkpt>
      <trkpt lat="43.49093" lon="6.17592">
        <ele>202.5</ele>
        <time>2024-03-27T14:43:51Z</time>
      </trkpt>
      <trkpt lat="43.49093" lon="6.17591">
        <ele>202.7</ele>
        <time>2024-03-27T14:43:52Z</time>
      </trkpt>
      <trkpt lat="43.49094" lon="6.1759">
        <ele>202.8</ele>
        <time>2024-03-27T14:43:53Z</time>
      </trkpt>
      <trkpt lat="43.49094" lon="6.17589">
        <ele>203</ele>
        <time>2024-03-27T14:43:54Z</time>
      </trkpt>
      <trkpt lat="43.49095" lon="6.17588">
        <ele>203.1</ele>
        <time>2024-03-27T14:43:55Z</time>
      </trkpt>
      <trkpt lat="43.49095" lon="6.17587">
        <ele>203.2</ele>
        <time>2024-03-27T14:43:56Z</time>
      </trkpt>
      <trkpt lat="43.49096" lon="6.17586">
        <ele>203.3</ele>
        <time>2024-03-27T14:43:57Z</time>
      </trkpt>
      <trkpt lat="43.49096" lon="6.17585">
        <ele>203.3</ele>
        <time>2024-03-27T14:43:58Z</time>
      </trkpt>
      <trkpt lat="43.49097" lon="6.17584">
        <ele>203.3</ele>
        <time>2024-03-27T14:43:59Z</time>
      </trkpt>
      <trkpt lat="43.49097" lon="6.17582">
        <ele>203.4</ele>
        <time>2024-03-27T14:44:00Z</time>
      </trkpt>
      <trkpt lat="43.49097" lon="6.17581">
        <ele>203.5</ele>
        <time>2024-03-27T14:44:01Z</time>
      </trkpt>
      <trkpt lat="43.49097" lon="6.1758">
        <ele>203.6</ele>
        <time>2024-03-27T14:44:02Z</time>
      </trkpt>
      <trkpt lat="43.49097" lon="6.17579">
        <ele>203.8</ele>
        <time>2024-03-27T14:44:03Z</time>
      </trkpt>
      <trkpt lat="43.49097" lon="6.17578">
        <ele>203.9</ele>
        <time>2024-03-27T14:44:04Z</time>
      </trkpt>
      <trkpt lat="43.49098" lon="6.17577">
        <ele>204</ele>
        <time>2024-03-27T14:44:05Z</time>
      </trkpt>
      <trkpt lat="43.49098" lon="6.17576">
        <ele>204.1</ele>
        <time>2024-03-27T14:44:06Z</time>
      </trkpt>
      <trkpt lat="43.49098" lon="6.17575">
        <ele>204.2</ele>
        <time>2024-03-27T14:44:07Z</time>
      </trkpt>
      <trkpt lat="43.49098" lon="6.17574">
        <ele>204.3</ele>
        <time>2024-03-27T14:44:08Z</time>
      </trkpt>
      <trkpt lat="43.49099" lon="6.17573">
        <ele>204.4</ele>
        <time>2024-03-27T14:44:09Z</time>
      </trkpt>
      <trkpt lat="43.49099" lon="6.17572">
        <ele>204.4</ele>
        <time>2024-03-27T14:44:10Z</time>
      </trkpt>
      <trkpt lat="43.49099" lon="6.17571">
        <ele>204.5</ele>
        <time>2024-03-27T14:44:11Z</time>
      </trkpt>
      <trkpt lat="43.49099" lon="6.17569">
        <ele>204.5</ele>
        <time>2024-03-27T14:44:12Z</time>
      </trkpt>
      <trkpt lat="43.491" lon="6.17568">
        <ele>204.6</ele>
        <time>2024-03-27T14:44:13Z</time>
      </trkpt>
      <trkpt lat="43.491" lon="6.17567">
        <ele>204.7</ele>
        <time>2024-03-27T14:44:14Z</time>
      </trkpt>
      <trkpt lat="43.491" lon="6.17566">
        <ele>204.9</ele>
        <time>2024-03-27T14:44:15Z</time>
      </trkpt>
      <trkpt lat="43.49101" lon="6.17565">
        <ele>204.9</ele>
        <time>2024-03-27T14:44:16Z</time>
      </trkpt>
      <trkpt lat="43.49101" lon="6.17564">
        <ele>205.1</ele>
        <time>2024-03-27T14:44:17Z</time>
      </trkpt>
      <trkpt lat="43.49102" lon="6.17562">
        <ele>205.2</ele>
        <time>2024-03-27T14:44:18Z</time>
      </trkpt>
      <trkpt lat="43.49102" lon="6.17561">
        <ele>205.3</ele>
        <time>2024-03-27T14:44:19Z</time>
      </trkpt>
      <trkpt lat="43.49102" lon="6.1756">
        <ele>205.4</ele>
        <time>2024-03-27T14:44:20Z</time>
      </trkpt>
      <trkpt lat="43.49103" lon="6.17558">
        <ele>205.4</ele>
        <time>2024-03-27T14:44:21Z</time>
      </trkpt>
      <trkpt lat="43.49103" lon="6.17557">
        <ele>205.5</ele>
        <time>2024-03-27T14:44:22Z</time>
      </trkpt>
      <trkpt lat="43.49104" lon="6.17556">
        <ele>205.6</ele>
        <time>2024-03-27T14:44:23Z</time>
      </trkpt>
      <trkpt lat="43.49104" lon="6.17554">
        <ele>205.7</ele>
        <time>2024-03-27T14:44:24Z</time>
      </trkpt>
      <trkpt lat="43.49105" lon="6.17553">
        <ele>205.8</ele>
        <time>2024-03-27T14:44:25Z</time>
      </trkpt>
      <trkpt lat="43.49105" lon="6.17552">
        <ele>205.8</ele>
        <time>2024-03-27T14:44:26Z</time>
      </trkpt>
      <trkpt lat="43.49106" lon="6.17551">
        <ele>205.8</ele>
        <time>2024-03-27T14:44:27Z</time>
      </trkpt>
      <trkpt lat="43.49106" lon="6.1755">
        <ele>205.8</ele>
        <time>2024-03-27T14:44:28Z</time>
      </trkpt>
      <trkpt lat="43.49107" lon="6.17548">
        <ele>205.9</ele>
        <time>2024-03-27T14:44:29Z</time>
      </trkpt>
      <trkpt lat="43.49107" lon="6.17547">
        <ele>206.1</ele>
        <time>2024-03-27T14:44:30Z</time>
      </trkpt>
      <trkpt lat="43.49108" lon="6.17545">
        <ele>206.2</ele>
        <time>2024-03-27T14:44:31Z</time>
      </trkpt>
      <trkpt lat="43.49108" lon="6.17544">
        <ele>206.2</ele>
        <time>2024-03-27T14:44:32Z</time>
      </trkpt>
      <trkpt lat="43.49109" lon="6.17543">
        <ele>206.3</ele>
        <time>2024-03-27T14:44:33Z</time>
      </trkpt>
      <trkpt lat="43.49109" lon="6.17542">
        <ele>206.3</ele>
        <time>2024-03-27T14:44:34Z</time>
      </trkpt>
      <trkpt lat="43.4911" lon="6.1754">
        <ele>206.5</ele>
        <time>2024-03-27T14:44:35Z</time>
      </trkpt>
      <trkpt lat="43.4911" lon="6.17539">
        <ele>206.6</ele>
        <time>2024-03-27T14:44:36Z</time>
      </trkpt>
      <trkpt lat="43.4911" lon="6.17538">
        <ele>206.8</ele>
        <time>2024-03-27T14:44:37Z</time>
      </trkpt>
      <trkpt lat="43.49111" lon="6.17537">
        <ele>206.8</ele>
        <time>2024-03-27T14:44:38Z</time>
      </trkpt>
      <trkpt lat="43.49111" lon="6.17536">
        <ele>206.9</ele>
        <time>2024-03-27T14:44:39Z</time>
      </trkpt>
      <trkpt lat="43.49111" lon="6.17535">
        <ele>206.8</ele>
        <time>2024-03-27T14:44:40Z</time>
      </trkpt>
      <trkpt lat="43.4911" lon="6.17534">
        <ele>206.8</ele>
        <time>2024-03-27T14:44:41Z</time>
      </trkpt>
      <trkpt lat="43.4911" lon="6.17533">
        <ele>206.7</ele>
        <time>2024-03-27T14:44:42Z</time>
      </trkpt>
      <trkpt lat="43.4911" lon="6.17533">
        <ele>206.6</ele>
        <time>2024-03-27T14:44:43Z</time>
      </trkpt>
      <trkpt lat="43.4911" lon="6.17533">
        <ele>206.5</ele>
        <time>2024-03-27T14:44:44Z</time>
      </trkpt>
      <trkpt lat="43.4911" lon="6.17533">
        <ele>206.5</ele>
        <time>2024-03-27T14:44:45Z</time>
      </trkpt>
      <trkpt lat="43.4911" lon="6.17533">
        <ele>206.4</ele>
        <time>2024-03-27T14:44:46Z</time>
      </trkpt>
      <trkpt lat="43.4911" lon="6.17533">
        <ele>206.4</ele>
        <time>2024-03-27T14:44:47Z</time>
      </trkpt>
      <trkpt lat="43.4911" lon="6.17533">
        <ele>206.5</ele>
        <time>2024-03-27T14:44:48Z</time>
      </trkpt>
      <trkpt lat="43.4911" lon="6.17532">
        <ele>206.4</ele>
        <time>2024-03-27T14:44:49Z</time>
      </trkpt>
      <trkpt lat="43.4911" lon="6.17532">
        <ele>206.4</ele>
        <time>2024-03-27T14:44:50Z</time>
      </trkpt>
      <trkpt lat="43.4911" lon="6.17532">
        <ele>206.4</ele>
        <time>2024-03-27T14:44:51Z</time>
      </trkpt>
      <trkpt lat="43.4911" lon="6.17531">
        <ele>206.4</ele>
        <time>2024-03-27T14:44:52Z</time>
      </trkpt>
      <trkpt lat="43.4911" lon="6.17531">
        <ele>206.6</ele>
        <time>2024-03-27T14:44:53Z</time>
      </trkpt>
      <trkpt lat="43.4911" lon="6.17531">
        <ele>206.7</ele>
        <time>2024-03-27T14:44:54Z</time>
      </trkpt>
      <trkpt lat="43.4911" lon="6.17531">
        <ele>206.8</ele>
        <time>2024-03-27T14:44:55Z</time>
      </trkpt>
      <trkpt lat="43.4911" lon="6.17531">
        <ele>206.8</ele>
        <time>2024-03-27T14:44:56Z</time>
      </trkpt>
      <trkpt lat="43.4911" lon="6.1753">
        <ele>206.9</ele>
        <time>2024-03-27T14:44:57Z</time>
      </trkpt>
      <trkpt lat="43.4911" lon="6.1753">
        <ele>206.9</ele>
        <time>2024-03-27T14:44:58Z</time>
      </trkpt>
      <trkpt lat="43.4911" lon="6.1753">
        <ele>207</ele>
        <time>2024-03-27T14:44:59Z</time>
      </trkpt>
      <trkpt lat="43.4911" lon="6.1753">
        <ele>207</ele>
        <time>2024-03-27T14:45:00Z</time>
      </trkpt>
      <trkpt lat="43.4911" lon="6.1753">
        <ele>207</ele>
        <time>2024-03-27T14:45:01Z</time>
      </trkpt>
      <trkpt lat="43.4911" lon="6.1753">
        <ele>207</ele>
        <time>2024-03-27T14:45:02Z</time>
      </trkpt>
      <trkpt lat="43.4911" lon="6.1753">
        <ele>207</ele>
        <time>2024-03-27T14:45:03Z</time>
      </trkpt>
      <trkpt lat="43.49109" lon="6.1753">
        <ele>206.9</ele>
        <time>2024-03-27T14:45:04Z</time>
      </trkpt>
      <trkpt lat="43.49109" lon="6.1753">
        <ele>206.9</ele>
        <time>2024-03-27T14:45:05Z</time>
      </trkpt>
      <trkpt lat="43.49109" lon="6.1753">
        <ele>206.9</ele>
        <time>2024-03-27T14:45:06Z</time>
      </trkpt>
      <trkpt lat="43.4911" lon="6.17529">
        <ele>206.8</ele>
        <time>2024-03-27T14:45:07Z</time>
      </trkpt>
      <trkpt lat="43.4911" lon="6.17529">
        <ele>206.8</ele>
        <time>2024-03-27T14:45:08Z</time>
      </trkpt>
      <trkpt lat="43.4911" lon="6.17529">
        <ele>206.8</ele>
        <time>2024-03-27T14:45:09Z</time>
      </trkpt>
      <trkpt lat="43.4911" lon="6.17529">
        <ele>206.8</ele>
        <time>2024-03-27T14:45:10Z</time>
      </trkpt>
      <trkpt lat="43.4911" lon="6.17529">
        <ele>206.8</ele>
        <time>2024-03-27T14:45:11Z</time>
      </trkpt>
      <trkpt lat="43.4911" lon="6.17529">
        <ele>206.7</ele>
        <time>2024-03-27T14:45:12Z</time>
      </trkpt>
      <trkpt lat="43.4911" lon="6.17529">
        <ele>206.7</ele>
        <time>2024-03-27T14:45:13Z</time>
      </trkpt>
      <trkpt lat="43.4911" lon="6.17529">
        <ele>206.7</ele>
        <time>2024-03-27T14:45:14Z</time>
      </trkpt>
      <trkpt lat="43.4911" lon="6.17529">
        <ele>206.7</ele>
        <time>2024-03-27T14:45:15Z</time>
      </trkpt>
      <trkpt lat="43.4911" lon="6.17529">
        <ele>206.7</ele>
        <time>2024-03-27T14:45:16Z</time>
      </trkpt>
      <trkpt lat="43.49111" lon="6.17529">
        <ele>206.7</ele>
        <time>2024-03-27T14:45:17Z</time>
      </trkpt>
      <trkpt lat="43.4911" lon="6.17529">
        <ele>206.7</ele>
        <time>2024-03-27T14:45:18Z</time>
      </trkpt>
      <trkpt lat="43.4911" lon="6.17529">
        <ele>206.7</ele>
        <time>2024-03-27T14:45:19Z</time>
      </trkpt>
      <trkpt lat="43.4911" lon="6.17528">
        <ele>206.8</ele>
        <time>2024-03-27T14:45:20Z</time>
      </trkpt>
      <trkpt lat="43.4911" lon="6.17528">
        <ele>206.8</ele>
        <time>2024-03-27T14:45:21Z</time>
      </trkpt>
      <trkpt lat="43.4911" lon="6.17528">
        <ele>206.8</ele>
        <time>2024-03-27T14:45:22Z</time>
      </trkpt>
      <trkpt lat="43.4911" lon="6.17528">
        <ele>206.8</ele>
        <time>2024-03-27T14:45:23Z</time>
      </trkpt>
      <trkpt lat="43.4911" lon="6.17528">
        <ele>205.7</ele>
        <time>2024-03-27T14:45:24Z</time>
      </trkpt>
      <trkpt lat="43.4911" lon="6.17528">
        <ele>205.9</ele>
        <time>2024-03-27T14:45:25Z</time>
      </trkpt>
      <trkpt lat="43.4911" lon="6.17528">
        <ele>206.2</ele>
        <time>2024-03-27T14:45:26Z</time>
      </trkpt>
      <trkpt lat="43.4911" lon="6.17528">
        <ele>206.4</ele>
        <time>2024-03-27T14:45:27Z</time>
      </trkpt>
      <trkpt lat="43.4911" lon="6.17528">
        <ele>206.5</ele>
        <time>2024-03-27T14:45:28Z</time>
      </trkpt>
      <trkpt lat="43.4911" lon="6.17528">
        <ele>206.7</ele>
        <time>2024-03-27T14:45:29Z</time>
      </trkpt>
      <trkpt lat="43.4911" lon="6.17527">
        <ele>206.8</ele>
        <time>2024-03-27T14:45:30Z</time>
      </trkpt>
      <trkpt lat="43.49111" lon="6.17526">
        <ele>206.8</ele>
        <time>2024-03-27T14:45:31Z</time>
      </trkpt>
      <trkpt lat="43.49111" lon="6.17526">
        <ele>206.9</ele>
        <time>2024-03-27T14:45:32Z</time>
      </trkpt>
      <trkpt lat="43.49111" lon="6.17526">
        <ele>207</ele>
        <time>2024-03-27T14:45:33Z</time>
      </trkpt>
      <trkpt lat="43.49111" lon="6.17526">
        <ele>207</ele>
        <time>2024-03-27T14:45:34Z</time>
      </trkpt>
      <trkpt lat="43.49111" lon="6.17525">
        <ele>207</ele>
        <time>2024-03-27T14:45:35Z</time>
      </trkpt>
      <trkpt lat="43.49111" lon="6.17525">
        <ele>207.2</ele>
        <time>2024-03-27T14:45:36Z</time>
      </trkpt>
      <trkpt lat="43.49112" lon="6.17524">
        <ele>207.2</ele>
        <time>2024-03-27T14:45:37Z</time>
      </trkpt>
      <trkpt lat="43.49112" lon="6.17524">
        <ele>207.1</ele>
        <time>2024-03-27T14:45:38Z</time>
      </trkpt>
      <trkpt lat="43.49112" lon="6.17523">
        <ele>207</ele>
        <time>2024-03-27T14:45:39Z</time>
      </trkpt>
      <trkpt lat="43.49112" lon="6.17522">
        <ele>207</ele>
        <time>2024-03-27T14:45:40Z</time>
      </trkpt>
      <trkpt lat="43.49113" lon="6.17521">
        <ele>207.1</ele>
        <time>2024-03-27T14:45:41Z</time>
      </trkpt>
      <trkpt lat="43.49113" lon="6.1752">
        <ele>207.2</ele>
        <time>2024-03-27T14:45:42Z</time>
      </trkpt>
      <trkpt lat="43.49113" lon="6.17519">
        <ele>207.2</ele>
        <time>2024-03-27T14:45:43Z</time>
      </trkpt>
      <trkpt lat="43.49113" lon="6.17519">
        <ele>207.3</ele>
        <time>2024-03-27T14:45:44Z</time>
      </trkpt>
      <trkpt lat="43.49113" lon="6.17519">
        <ele>207.3</ele>
        <time>2024-03-27T14:45:45Z</time>
      </trkpt>
      <trkpt lat="43.49113" lon="6.17519">
        <ele>207.3</ele>
        <time>2024-03-27T14:45:46Z</time>
      </trkpt>
      <trkpt lat="43.49113" lon="6.17518">
        <ele>207.3</ele>
        <time>2024-03-27T14:45:47Z</time>
      </trkpt>
      <trkpt lat="43.49113" lon="6.17517">
        <ele>207.3</ele>
        <time>2024-03-27T14:45:48Z</time>
      </trkpt>
      <trkpt lat="43.49113" lon="6.17516">
        <ele>207.4</ele>
        <time>2024-03-27T14:45:49Z</time>
      </trkpt>
      <trkpt lat="43.49113" lon="6.17515">
        <ele>207.4</ele>
        <time>2024-03-27T14:45:50Z</time>
      </trkpt>
      <trkpt lat="43.49113" lon="6.17513">
        <ele>207.5</ele>
        <time>2024-03-27T14:45:51Z</time>
      </trkpt>
      <trkpt lat="43.49113" lon="6.17512">
        <ele>207.5</ele>
        <time>2024-03-27T14:45:52Z</time>
      </trkpt>
      <trkpt lat="43.49112" lon="6.17511">
        <ele>207.6</ele>
        <time>2024-03-27T14:45:53Z</time>
      </trkpt>
      <trkpt lat="43.49112" lon="6.1751">
        <ele>207.6</ele>
        <time>2024-03-27T14:45:54Z</time>
      </trkpt>
      <trkpt lat="43.49111" lon="6.17509">
        <ele>207.6</ele>
        <time>2024-03-27T14:45:55Z</time>
      </trkpt>
      <trkpt lat="43.49111" lon="6.17509">
        <ele>207.6</ele>
        <time>2024-03-27T14:45:56Z</time>
      </trkpt>
      <trkpt lat="43.4911" lon="6.17508">
        <ele>207.6</ele>
        <time>2024-03-27T14:45:57Z</time>
      </trkpt>
      <trkpt lat="43.49109" lon="6.17507">
        <ele>207.7</ele>
        <time>2024-03-27T14:45:58Z</time>
      </trkpt>
      <trkpt lat="43.49109" lon="6.17506">
        <ele>207.8</ele>
        <time>2024-03-27T14:45:59Z</time>
      </trkpt>
      <trkpt lat="43.49108" lon="6.17505">
        <ele>208</ele>
        <time>2024-03-27T14:46:00Z</time>
      </trkpt>
      <trkpt lat="43.49108" lon="6.17504">
        <ele>208.1</ele>
        <time>2024-03-27T14:46:01Z</time>
      </trkpt>
      <trkpt lat="43.49107" lon="6.17503">
        <ele>208.1</ele>
        <time>2024-03-27T14:46:02Z</time>
      </trkpt>
      <trkpt lat="43.49107" lon="6.17501">
        <ele>208.2</ele>
        <time>2024-03-27T14:46:03Z</time>
      </trkpt>
      <trkpt lat="43.49106" lon="6.175">
        <ele>208.3</ele>
        <time>2024-03-27T14:46:04Z</time>
      </trkpt>
      <trkpt lat="43.49106" lon="6.17499">
        <ele>208.3</ele>
        <time>2024-03-27T14:46:05Z</time>
      </trkpt>
      <trkpt lat="43.49105" lon="6.17497">
        <ele>208.4</ele>
        <time>2024-03-27T14:46:06Z</time>
      </trkpt>
      <trkpt lat="43.49104" lon="6.17496">
        <ele>208.4</ele>
        <time>2024-03-27T14:46:07Z</time>
      </trkpt>
      <trkpt lat="43.49103" lon="6.17494">
        <ele>208.5</ele>
        <time>2024-03-27T14:46:08Z</time>
      </trkpt>
      <trkpt lat="43.49102" lon="6.17494">
        <ele>208.5</ele>
        <time>2024-03-27T14:46:09Z</time>
      </trkpt>
      <trkpt lat="43.49101" lon="6.17493">
        <ele>208.6</ele>
        <time>2024-03-27T14:46:10Z</time>
      </trkpt>
      <trkpt lat="43.491" lon="6.17492">
        <ele>208.6</ele>
        <time>2024-03-27T14:46:11Z</time>
      </trkpt>
      <trkpt lat="43.49099" lon="6.17491">
        <ele>208.6</ele>
        <time>2024-03-27T14:46:12Z</time>
      </trkpt>
      <trkpt lat="43.49098" lon="6.1749">
        <ele>208.6</ele>
        <time>2024-03-27T14:46:13Z</time>
      </trkpt>
      <trkpt lat="43.49097" lon="6.17489">
        <ele>208.6</ele>
        <time>2024-03-27T14:46:14Z</time>
      </trkpt>
      <trkpt lat="43.49096" lon="6.17488">
        <ele>208.7</ele>
        <time>2024-03-27T14:46:15Z</time>
      </trkpt>
      <trkpt lat="43.49095" lon="6.17487">
        <ele>208.8</ele>
        <time>2024-03-27T14:46:16Z</time>
      </trkpt>
      <trkpt lat="43.49094" lon="6.17486">
        <ele>208.9</ele>
        <time>2024-03-27T14:46:17Z</time>
      </trkpt>
      <trkpt lat="43.49094" lon="6.17486">
        <ele>209</ele>
        <time>2024-03-27T14:46:18Z</time>
      </trkpt>
      <trkpt lat="43.49093" lon="6.17485">
        <ele>209.1</ele>
        <time>2024-03-27T14:46:19Z</time>
      </trkpt>
      <trkpt lat="43.49092" lon="6.17484">
        <ele>209.1</ele>
        <time>2024-03-27T14:46:20Z</time>
      </trkpt>
      <trkpt lat="43.49091" lon="6.17483">
        <ele>209.1</ele>
        <time>2024-03-27T14:46:21Z</time>
      </trkpt>
      <trkpt lat="43.4909" lon="6.17482">
        <ele>209</ele>
        <time>2024-03-27T14:46:22Z</time>
      </trkpt>
      <trkpt lat="43.4909" lon="6.17481">
        <ele>208.9</ele>
        <time>2024-03-27T14:46:23Z</time>
      </trkpt>
      <trkpt lat="43.49089" lon="6.17481">
        <ele>208.8</ele>
        <time>2024-03-27T14:46:24Z</time>
      </trkpt>
      <trkpt lat="43.49089" lon="6.1748">
        <ele>208.7</ele>
        <time>2024-03-27T14:46:25Z</time>
      </trkpt>
      <trkpt lat="43.49088" lon="6.17479">
        <ele>208.7</ele>
        <time>2024-03-27T14:46:26Z</time>
      </trkpt>
      <trkpt lat="43.49088" lon="6.17477">
        <ele>208.6</ele>
        <time>2024-03-27T14:46:27Z</time>
      </trkpt>
      <trkpt lat="43.49087" lon="6.17476">
        <ele>208.7</ele>
        <time>2024-03-27T14:46:28Z</time>
      </trkpt>
      <trkpt lat="43.49086" lon="6.17475">
        <ele>208.4</ele>
        <time>2024-03-27T14:46:29Z</time>
      </trkpt>
      <trkpt lat="43.49086" lon="6.17475">
        <ele>208.3</ele>
        <time>2024-03-27T14:46:30Z</time>
      </trkpt>
      <trkpt lat="43.49085" lon="6.17474">
        <ele>208.2</ele>
        <time>2024-03-27T14:46:31Z</time>
      </trkpt>
      <trkpt lat="43.49085" lon="6.17474">
        <ele>208.2</ele>
        <time>2024-03-27T14:46:32Z</time>
      </trkpt>
      <trkpt lat="43.49085" lon="6.17474">
        <ele>208.1</ele>
        <time>2024-03-27T14:46:33Z</time>
      </trkpt>
      <trkpt lat="43.49085" lon="6.17474">
        <ele>208.1</ele>
        <time>2024-03-27T14:46:34Z</time>
      </trkpt>
      <trkpt lat="43.49085" lon="6.17473">
        <ele>208</ele>
        <time>2024-03-27T14:46:35Z</time>
      </trkpt>
      <trkpt lat="43.49084" lon="6.17473">
        <ele>208</ele>
        <time>2024-03-27T14:46:36Z</time>
      </trkpt>
      <trkpt lat="43.49084" lon="6.17473">
        <ele>208</ele>
        <time>2024-03-27T14:46:37Z</time>
      </trkpt>
      <trkpt lat="43.49084" lon="6.17473">
        <ele>208</ele>
        <time>2024-03-27T14:46:38Z</time>
      </trkpt>
      <trkpt lat="43.49084" lon="6.17472">
        <ele>207.9</ele>
        <time>2024-03-27T14:46:39Z</time>
      </trkpt>
      <trkpt lat="43.49084" lon="6.17472">
        <ele>207.9</ele>
        <time>2024-03-27T14:46:40Z</time>
      </trkpt>
      <trkpt lat="43.49083" lon="6.17472">
        <ele>207.9</ele>
        <time>2024-03-27T14:46:41Z</time>
      </trkpt>
      <trkpt lat="43.49083" lon="6.17472">
        <ele>207.8</ele>
        <time>2024-03-27T14:46:42Z</time>
      </trkpt>
      <trkpt lat="43.49083" lon="6.17471">
        <ele>207.7</ele>
        <time>2024-03-27T14:46:43Z</time>
      </trkpt>
      <trkpt lat="43.49083" lon="6.17471">
        <ele>207.7</ele>
        <time>2024-03-27T14:46:44Z</time>
      </trkpt>
      <trkpt lat="43.49083" lon="6.17471">
        <ele>207.7</ele>
        <time>2024-03-27T14:46:45Z</time>
      </trkpt>
      <trkpt lat="43.49083" lon="6.17471">
        <ele>207.7</ele>
        <time>2024-03-27T14:46:46Z</time>
      </trkpt>
      <trkpt lat="43.49082" lon="6.17471">
        <ele>207.8</ele>
        <time>2024-03-27T14:46:47Z</time>
      </trkpt>
      <trkpt lat="43.49082" lon="6.17471">
        <ele>207.8</ele>
        <time>2024-03-27T14:46:48Z</time>
      </trkpt>
      <trkpt lat="43.49082" lon="6.17471">
        <ele>207.8</ele>
        <time>2024-03-27T14:46:49Z</time>
      </trkpt>
      <trkpt lat="43.49082" lon="6.17471">
        <ele>207.7</ele>
        <time>2024-03-27T14:46:50Z</time>
      </trkpt>
      <trkpt lat="43.49082" lon="6.17471">
        <ele>207.6</ele>
        <time>2024-03-27T14:46:51Z</time>
      </trkpt>
      <trkpt lat="43.49082" lon="6.17471">
        <ele>207.6</ele>
        <time>2024-03-27T14:46:52Z</time>
      </trkpt>
      <trkpt lat="43.49082" lon="6.17471">
        <ele>207.5</ele>
        <time>2024-03-27T14:46:53Z</time>
      </trkpt>
      <trkpt lat="43.49082" lon="6.17471">
        <ele>207.6</ele>
        <time>2024-03-27T14:46:54Z</time>
      </trkpt>
      <trkpt lat="43.49082" lon="6.17471">
        <ele>207.6</ele>
        <time>2024-03-27T14:46:55Z</time>
      </trkpt>
      <trkpt lat="43.49082" lon="6.17471">
        <ele>207.6</ele>
        <time>2024-03-27T14:46:56Z</time>
      </trkpt>
      <trkpt lat="43.49082" lon="6.17471">
        <ele>207.7</ele>
        <time>2024-03-27T14:46:57Z</time>
      </trkpt>
      <trkpt lat="43.49082" lon="6.17471">
        <ele>207.7</ele>
        <time>2024-03-27T14:46:58Z</time>
      </trkpt>
      <trkpt lat="43.49082" lon="6.17471">
        <ele>207.7</ele>
        <time>2024-03-27T14:46:59Z</time>
      </trkpt>
      <trkpt lat="43.49082" lon="6.17471">
        <ele>207.8</ele>
        <time>2024-03-27T14:47:00Z</time>
      </trkpt>
      <trkpt lat="43.49082" lon="6.17471">
        <ele>207.8</ele>
        <time>2024-03-27T14:47:01Z</time>
      </trkpt>
      <trkpt lat="43.49082" lon="6.17471">
        <ele>207.8</ele>
        <time>2024-03-27T14:47:02Z</time>
      </trkpt>
      <trkpt lat="43.49082" lon="6.17471">
        <ele>207.8</ele>
        <time>2024-03-27T14:47:03Z</time>
      </trkpt>
      <trkpt lat="43.49082" lon="6.17471">
        <ele>207.7</ele>
        <time>2024-03-27T14:47:04Z</time>
      </trkpt>
      <trkpt lat="43.49082" lon="6.17471">
        <ele>207.6</ele>
        <time>2024-03-27T14:47:05Z</time>
      </trkpt>
      <trkpt lat="43.49082" lon="6.17471">
        <ele>207.6</ele>
        <time>2024-03-27T14:47:06Z</time>
      </trkpt>
      <trkpt lat="43.49082" lon="6.17471">
        <ele>207.5</ele>
        <time>2024-03-27T14:47:07Z</time>
      </trkpt>
      <trkpt lat="43.49082" lon="6.17471">
        <ele>207.5</ele>
        <time>2024-03-27T14:47:08Z</time>
      </trkpt>
      <trkpt lat="43.49082" lon="6.17471">
        <ele>207.5</ele>
        <time>2024-03-27T14:47:09Z</time>
      </trkpt>
      <trkpt lat="43.49082" lon="6.17471">
        <ele>207.5</ele>
        <time>2024-03-27T14:47:10Z</time>
      </trkpt>
      <trkpt lat="43.49082" lon="6.17471">
        <ele>207.6</ele>
        <time>2024-03-27T14:47:11Z</time>
      </trkpt>
      <trkpt lat="43.49082" lon="6.17471">
        <ele>207.6</ele>
        <time>2024-03-27T14:47:12Z</time>
      </trkpt>
      <trkpt lat="43.49082" lon="6.17471">
        <ele>207.6</ele>
        <time>2024-03-27T14:47:13Z</time>
      </trkpt>
      <trkpt lat="43.49082" lon="6.17471">
        <ele>207.6</ele>
        <time>2024-03-27T14:47:14Z</time>
      </trkpt>
      <trkpt lat="43.49082" lon="6.17471">
        <ele>207.6</ele>
        <time>2024-03-27T14:47:15Z</time>
      </trkpt>
      <trkpt lat="43.49082" lon="6.17471">
        <ele>207.6</ele>
        <time>2024-03-27T14:47:16Z</time>
      </trkpt>
      <trkpt lat="43.49082" lon="6.17471">
        <ele>207.6</ele>
        <time>2024-03-27T14:47:17Z</time>
      </trkpt>
      <trkpt lat="43.49082" lon="6.17471">
        <ele>207.6</ele>
        <time>2024-03-27T14:47:18Z</time>
      </trkpt>
      <trkpt lat="43.49082" lon="6.17471">
        <ele>207.6</ele>
        <time>2024-03-27T14:47:19Z</time>
      </trkpt>
      <trkpt lat="43.49082" lon="6.17471">
        <ele>207.6</ele>
        <time>2024-03-27T14:47:20Z</time>
      </trkpt>
      <trkpt lat="43.49082" lon="6.17471">
        <ele>207.6</ele>
        <time>2024-03-27T14:47:21Z</time>
      </trkpt>
      <trkpt lat="43.49082" lon="6.17471">
        <ele>207.6</ele>
        <time>2024-03-27T14:47:22Z</time>
      </trkpt>
      <trkpt lat="43.49082" lon="6.17471">
        <ele>207.7</ele>
        <time>2024-03-27T14:47:23Z</time>
      </trkpt>
      <trkpt lat="43.49082" lon="6.17471">
        <ele>207.7</ele>
        <time>2024-03-27T14:47:24Z</time>
      </trkpt>
      <trkpt lat="43.49081" lon="6.17471">
        <ele>207.8</ele>
        <time>2024-03-27T14:47:25Z</time>
      </trkpt>
      <trkpt lat="43.49082" lon="6.17471">
        <ele>207.8</ele>
        <time>2024-03-27T14:47:26Z</time>
      </trkpt>
      <trkpt lat="43.49081" lon="6.17471">
        <ele>207.7</ele>
        <time>2024-03-27T14:47:27Z</time>
      </trkpt>
      <trkpt lat="43.49082" lon="6.17471">
        <ele>207.7</ele>
        <time>2024-03-27T14:47:28Z</time>
      </trkpt>
      <trkpt lat="43.49082" lon="6.17471">
        <ele>207.6</ele>
        <time>2024-03-27T14:47:29Z</time>
      </trkpt>
      <trkpt lat="43.49082" lon="6.17471">
        <ele>207.5</ele>
        <time>2024-03-27T14:47:30Z</time>
      </trkpt>
      <trkpt lat="43.49082" lon="6.17471">
        <ele>207.4</ele>
        <time>2024-03-27T14:47:31Z</time>
      </trkpt>
      <trkpt lat="43.49082" lon="6.17471">
        <ele>207.4</ele>
        <time>2024-03-27T14:47:32Z</time>
      </trkpt>
      <trkpt lat="43.49082" lon="6.17471">
        <ele>207.4</ele>
        <time>2024-03-27T14:47:33Z</time>
      </trkpt>
      <trkpt lat="43.49082" lon="6.17471">
        <ele>207.6</ele>
        <time>2024-03-27T14:47:34Z</time>
      </trkpt>
      <trkpt lat="43.49082" lon="6.1747">
        <ele>207.6</ele>
        <time>2024-03-27T14:47:35Z</time>
      </trkpt>
      <trkpt lat="43.49082" lon="6.1747">
        <ele>207.7</ele>
        <time>2024-03-27T14:47:36Z</time>
      </trkpt>
      <trkpt lat="43.49082" lon="6.1747">
        <ele>207.7</ele>
        <time>2024-03-27T14:47:37Z</time>
      </trkpt>
      <trkpt lat="43.49081" lon="6.1747">
        <ele>207.7</ele>
        <time>2024-03-27T14:47:38Z</time>
      </trkpt>
      <trkpt lat="43.49081" lon="6.1747">
        <ele>207.7</ele>
        <time>2024-03-27T14:47:39Z</time>
      </trkpt>
      <trkpt lat="43.49081" lon="6.17471">
        <ele>207.7</ele>
        <time>2024-03-27T14:47:40Z</time>
      </trkpt>
      <trkpt lat="43.49081" lon="6.17471">
        <ele>207.8</ele>
        <time>2024-03-27T14:47:41Z</time>
      </trkpt>
      <trkpt lat="43.49081" lon="6.1747">
        <ele>207.8</ele>
        <time>2024-03-27T14:47:42Z</time>
      </trkpt>
      <trkpt lat="43.49081" lon="6.1747">
        <ele>207.9</ele>
        <time>2024-03-27T14:47:43Z</time>
      </trkpt>
      <trkpt lat="43.49082" lon="6.1747">
        <ele>207.9</ele>
        <time>2024-03-27T14:47:44Z</time>
      </trkpt>
      <trkpt lat="43.49082" lon="6.1747">
        <ele>207.9</ele>
        <time>2024-03-27T14:47:45Z</time>
      </trkpt>
      <trkpt lat="43.49082" lon="6.1747">
        <ele>207.9</ele>
        <time>2024-03-27T14:47:46Z</time>
      </trkpt>
      <trkpt lat="43.49082" lon="6.1747">
        <ele>208</ele>
        <time>2024-03-27T14:47:47Z</time>
      </trkpt>
      <trkpt lat="43.49081" lon="6.17471">
        <ele>208</ele>
        <time>2024-03-27T14:47:48Z</time>
      </trkpt>
      <trkpt lat="43.49082" lon="6.17471">
        <ele>208.1</ele>
        <time>2024-03-27T14:47:49Z</time>
      </trkpt>
      <trkpt lat="43.49081" lon="6.1747">
        <ele>208.1</ele>
        <time>2024-03-27T14:47:50Z</time>
      </trkpt>
      <trkpt lat="43.49081" lon="6.1747">
        <ele>208.1</ele>
        <time>2024-03-27T14:47:51Z</time>
      </trkpt>
      <trkpt lat="43.49081" lon="6.1747">
        <ele>208.1</ele>
        <time>2024-03-27T14:47:52Z</time>
      </trkpt>
      <trkpt lat="43.49082" lon="6.1747">
        <ele>208.1</ele>
        <time>2024-03-27T14:47:53Z</time>
      </trkpt>
      <trkpt lat="43.49082" lon="6.1747">
        <ele>208.1</ele>
        <time>2024-03-27T14:47:54Z</time>
      </trkpt>
      <trkpt lat="43.49081" lon="6.1747">
        <ele>208</ele>
        <time>2024-03-27T14:47:55Z</time>
      </trkpt>
      <trkpt lat="43.49081" lon="6.1747">
        <ele>207.9</ele>
        <time>2024-03-27T14:47:56Z</time>
      </trkpt>
      <trkpt lat="43.49081" lon="6.1747">
        <ele>207.9</ele>
        <time>2024-03-27T14:47:57Z</time>
      </trkpt>
      <trkpt lat="43.49081" lon="6.1747">
        <ele>207.9</ele>
        <time>2024-03-27T14:47:58Z</time>
      </trkpt>
      <trkpt lat="43.49081" lon="6.1747">
        <ele>207.9</ele>
        <time>2024-03-27T14:47:59Z</time>
      </trkpt>
      <trkpt lat="43.49081" lon="6.1747">
        <ele>208</ele>
        <time>2024-03-27T14:48:00Z</time>
      </trkpt>
      <trkpt lat="43.49081" lon="6.1747">
        <ele>208</ele>
        <time>2024-03-27T14:48:01Z</time>
      </trkpt>
      <trkpt lat="43.49081" lon="6.1747">
        <ele>208</ele>
        <time>2024-03-27T14:48:02Z</time>
      </trkpt>
      <trkpt lat="43.49081" lon="6.1747">
        <ele>208</ele>
        <time>2024-03-27T14:48:03Z</time>
      </trkpt>
      <trkpt lat="43.49081" lon="6.1747">
        <ele>208</ele>
        <time>2024-03-27T14:48:04Z</time>
      </trkpt>
      <trkpt lat="43.49082" lon="6.17469">
        <ele>208</ele>
        <time>2024-03-27T14:48:05Z</time>
      </trkpt>
      <trkpt lat="43.49082" lon="6.17469">
        <ele>207.9</ele>
        <time>2024-03-27T14:48:06Z</time>
      </trkpt>
      <trkpt lat="43.49082" lon="6.17469">
        <ele>207.9</ele>
        <time>2024-03-27T14:48:07Z</time>
      </trkpt>
      <trkpt lat="43.49082" lon="6.17469">
        <ele>207.8</ele>
        <time>2024-03-27T14:48:08Z</time>
      </trkpt>
      <trkpt lat="43.49082" lon="6.17469">
        <ele>207.8</ele>
        <time>2024-03-27T14:48:09Z</time>
      </trkpt>
      <trkpt lat="43.49082" lon="6.17469">
        <ele>207.7</ele>
        <time>2024-03-27T14:48:10Z</time>
      </trkpt>
      <trkpt lat="43.49082" lon="6.17469">
        <ele>207.7</ele>
        <time>2024-03-27T14:48:11Z</time>
      </trkpt>
      <trkpt lat="43.49082" lon="6.17469">
        <ele>207.6</ele>
        <time>2024-03-27T14:48:12Z</time>
      </trkpt>
      <trkpt lat="43.49082" lon="6.17469">
        <ele>207.5</ele>
        <time>2024-03-27T14:48:13Z</time>
      </trkpt>
      <trkpt lat="43.49082" lon="6.17469">
        <ele>207.5</ele>
        <time>2024-03-27T14:48:14Z</time>
      </trkpt>
      <trkpt lat="43.49082" lon="6.17469">
        <ele>207.5</ele>
        <time>2024-03-27T14:48:15Z</time>
      </trkpt>
      <trkpt lat="43.49082" lon="6.17469">
        <ele>207.5</ele>
        <time>2024-03-27T14:48:16Z</time>
      </trkpt>
      <trkpt lat="43.49082" lon="6.17469">
        <ele>207.4</ele>
        <time>2024-03-27T14:48:17Z</time>
      </trkpt>
      <trkpt lat="43.49082" lon="6.1747">
        <ele>207.4</ele>
        <time>2024-03-27T14:48:18Z</time>
      </trkpt>
      <trkpt lat="43.49082" lon="6.1747">
        <ele>207.5</ele>
        <time>2024-03-27T14:48:19Z</time>
      </trkpt>
      <trkpt lat="43.49082" lon="6.1747">
        <ele>207.6</ele>
        <time>2024-03-27T14:48:20Z</time>
      </trkpt>
      <trkpt lat="43.49082" lon="6.1747">
        <ele>207.7</ele>
        <time>2024-03-27T14:48:21Z</time>
      </trkpt>
      <trkpt lat="43.49082" lon="6.17471">
        <ele>207.7</ele>
        <time>2024-03-27T14:48:22Z</time>
      </trkpt>
      <trkpt lat="43.49082" lon="6.17471">
        <ele>207.7</ele>
        <time>2024-03-27T14:48:23Z</time>
      </trkpt>
      <trkpt lat="43.49082" lon="6.17471">
        <ele>207.7</ele>
        <time>2024-03-27T14:48:24Z</time>
      </trkpt>
      <trkpt lat="43.49082" lon="6.17471">
        <ele>207.7</ele>
        <time>2024-03-27T14:48:25Z</time>
      </trkpt>
      <trkpt lat="43.49082" lon="6.17471">
        <ele>207.6</ele>
        <time>2024-03-27T14:48:26Z</time>
      </trkpt>
      <trkpt lat="43.49082" lon="6.17471">
        <ele>207.5</ele>
        <time>2024-03-27T14:48:27Z</time>
      </trkpt>
      <trkpt lat="43.49081" lon="6.17471">
        <ele>207.5</ele>
        <time>2024-03-27T14:48:28Z</time>
      </trkpt>
      <trkpt lat="43.49082" lon="6.17471">
        <ele>207.4</ele>
        <time>2024-03-27T14:48:29Z</time>
      </trkpt>
      <trkpt lat="43.49082" lon="6.17471">
        <ele>207.4</ele>
        <time>2024-03-27T14:48:30Z</time>
      </trkpt>
      <trkpt lat="43.49082" lon="6.17471">
        <ele>207.4</ele>
        <time>2024-03-27T14:48:31Z</time>
      </trkpt>
      <trkpt lat="43.49082" lon="6.17471">
        <ele>207.4</ele>
        <time>2024-03-27T14:48:32Z</time>
      </trkpt>
      <trkpt lat="43.49082" lon="6.17471">
        <ele>207.4</ele>
        <time>2024-03-27T14:48:33Z</time>
      </trkpt>
      <trkpt lat="43.49082" lon="6.17471">
        <ele>207.4</ele>
        <time>2024-03-27T14:48:34Z</time>
      </trkpt>
      <trkpt lat="43.49082" lon="6.17471">
        <ele>207.5</ele>
        <time>2024-03-27T14:48:35Z</time>
      </trkpt>
      <trkpt lat="43.49082" lon="6.17471">
        <ele>207.5</ele>
        <time>2024-03-27T14:48:36Z</time>
      </trkpt>
      <trkpt lat="43.49082" lon="6.17471">
        <ele>207.5</ele>
        <time>2024-03-27T14:48:37Z</time>
      </trkpt>
      <trkpt lat="43.49081" lon="6.17472">
        <ele>207.5</ele>
        <time>2024-03-27T14:48:38Z</time>
      </trkpt>
      <trkpt lat="43.49081" lon="6.17472">
        <ele>207.5</ele>
        <time>2024-03-27T14:48:39Z</time>
      </trkpt>
      <trkpt lat="43.49082" lon="6.17472">
        <ele>207.5</ele>
        <time>2024-03-27T14:48:40Z</time>
      </trkpt>
      <trkpt lat="43.49081" lon="6.17471">
        <ele>207.5</ele>
        <time>2024-03-27T14:48:41Z</time>
      </trkpt>
      <trkpt lat="43.49081" lon="6.17471">
        <ele>207.5</ele>
        <time>2024-03-27T14:48:42Z</time>
      </trkpt>
      <trkpt lat="43.49081" lon="6.17471">
        <ele>207.3</ele>
        <time>2024-03-27T14:48:43Z</time>
      </trkpt>
      <trkpt lat="43.49081" lon="6.17471">
        <ele>207.3</ele>
        <time>2024-03-27T14:48:44Z</time>
      </trkpt>
      <trkpt lat="43.49081" lon="6.17471">
        <ele>207.3</ele>
        <time>2024-03-27T14:48:45Z</time>
      </trkpt>
      <trkpt lat="43.4908" lon="6.17472">
        <ele>207.3</ele>
        <time>2024-03-27T14:48:46Z</time>
      </trkpt>
      <trkpt lat="43.4908" lon="6.17472">
        <ele>207.4</ele>
        <time>2024-03-27T14:48:47Z</time>
      </trkpt>
      <trkpt lat="43.4908" lon="6.17472">
        <ele>207.3</ele>
        <time>2024-03-27T14:48:48Z</time>
      </trkpt>
      <trkpt lat="43.4908" lon="6.17472">
        <ele>207.2</ele>
        <time>2024-03-27T14:48:49Z</time>
      </trkpt>
      <trkpt lat="43.4908" lon="6.17473">
        <ele>207.2</ele>
        <time>2024-03-27T14:48:50Z</time>
      </trkpt>
      <trkpt lat="43.49079" lon="6.17474">
        <ele>207.2</ele>
        <time>2024-03-27T14:48:51Z</time>
      </trkpt>
      <trkpt lat="43.49079" lon="6.17474">
        <ele>207.2</ele>
        <time>2024-03-27T14:48:52Z</time>
      </trkpt>
      <trkpt lat="43.49079" lon="6.17474">
        <ele>207.3</ele>
        <time>2024-03-27T14:48:53Z</time>
      </trkpt>
      <trkpt lat="43.49079" lon="6.17474">
        <ele>207.4</ele>
        <time>2024-03-27T14:48:54Z</time>
      </trkpt>
      <trkpt lat="43.49079" lon="6.17474">
        <ele>207.5</ele>
        <time>2024-03-27T14:48:55Z</time>
      </trkpt>
      <trkpt lat="43.49079" lon="6.17474">
        <ele>207.5</ele>
        <time>2024-03-27T14:48:56Z</time>
      </trkpt>
      <trkpt lat="43.49079" lon="6.17474">
        <ele>207.5</ele>
        <time>2024-03-27T14:48:57Z</time>
      </trkpt>
      <trkpt lat="43.49078" lon="6.17474">
        <ele>207.5</ele>
        <time>2024-03-27T14:48:58Z</time>
      </trkpt>
      <trkpt lat="43.49078" lon="6.17474">
        <ele>207.4</ele>
        <time>2024-03-27T14:48:59Z</time>
      </trkpt>
      <trkpt lat="43.49078" lon="6.17475">
        <ele>207.5</ele>
        <time>2024-03-27T14:49:00Z</time>
      </trkpt>
      <trkpt lat="43.49077" lon="6.17475">
        <ele>207.6</ele>
        <time>2024-03-27T14:49:01Z</time>
      </trkpt>
      <trkpt lat="43.49077" lon="6.17475">
        <ele>207.6</ele>
        <time>2024-03-27T14:49:02Z</time>
      </trkpt>
      <trkpt lat="43.49077" lon="6.17475">
        <ele>207.6</ele>
        <time>2024-03-27T14:49:03Z</time>
      </trkpt>
      <trkpt lat="43.49077" lon="6.17475">
        <ele>207.6</ele>
        <time>2024-03-27T14:49:04Z</time>
      </trkpt>
      <trkpt lat="43.49077" lon="6.17475">
        <ele>207.7</ele>
        <time>2024-03-27T14:49:05Z</time>
      </trkpt>
      <trkpt lat="43.49077" lon="6.17476">
        <ele>207.9</ele>
        <time>2024-03-27T14:49:06Z</time>
      </trkpt>
      <trkpt lat="43.49077" lon="6.17476">
        <ele>208</ele>
        <time>2024-03-27T14:49:07Z</time>
      </trkpt>
      <trkpt lat="43.49077" lon="6.17476">
        <ele>208.1</ele>
        <time>2024-03-27T14:49:08Z</time>
      </trkpt>
      <trkpt lat="43.49077" lon="6.17476">
        <ele>208.2</ele>
        <time>2024-03-27T14:49:09Z</time>
      </trkpt>
      <trkpt lat="43.49077" lon="6.17476">
        <ele>208.2</ele>
        <time>2024-03-27T14:49:10Z</time>
      </trkpt>
      <trkpt lat="43.49077" lon="6.17476">
        <ele>208.3</ele>
        <time>2024-03-27T14:49:11Z</time>
      </trkpt>
      <trkpt lat="43.49077" lon="6.17476">
        <ele>208.3</ele>
        <time>2024-03-27T14:49:12Z</time>
      </trkpt>
      <trkpt lat="43.49078" lon="6.17476">
        <ele>208.3</ele>
        <time>2024-03-27T14:49:13Z</time>
      </trkpt>
      <trkpt lat="43.49078" lon="6.17476">
        <ele>208.3</ele>
        <time>2024-03-27T14:49:14Z</time>
      </trkpt>
      <trkpt lat="43.49078" lon="6.17476">
        <ele>208.1</ele>
        <time>2024-03-27T14:49:15Z</time>
      </trkpt>
      <trkpt lat="43.49078" lon="6.17476">
        <ele>208</ele>
        <time>2024-03-27T14:49:16Z</time>
      </trkpt>
      <trkpt lat="43.49078" lon="6.17476">
        <ele>208</ele>
        <time>2024-03-27T14:49:17Z</time>
      </trkpt>
      <trkpt lat="43.49078" lon="6.17476">
        <ele>207.9</ele>
        <time>2024-03-27T14:49:18Z</time>
      </trkpt>
      <trkpt lat="43.49078" lon="6.17476">
        <ele>207.9</ele>
        <time>2024-03-27T14:49:19Z</time>
      </trkpt>
      <trkpt lat="43.49078" lon="6.17476">
        <ele>207.9</ele>
        <time>2024-03-27T14:49:20Z</time>
      </trkpt>
      <trkpt lat="43.49078" lon="6.17476">
        <ele>208</ele>
        <time>2024-03-27T14:49:21Z</time>
      </trkpt>
      <trkpt lat="43.49078" lon="6.17476">
        <ele>208</ele>
        <time>2024-03-27T14:49:22Z</time>
      </trkpt>
      <trkpt lat="43.49078" lon="6.17476">
        <ele>208.1</ele>
        <time>2024-03-27T14:49:23Z</time>
      </trkpt>
      <trkpt lat="43.49078" lon="6.17476">
        <ele>208.1</ele>
        <time>2024-03-27T14:49:24Z</time>
      </trkpt>
      <trkpt lat="43.49078" lon="6.17476">
        <ele>208.2</ele>
        <time>2024-03-27T14:49:25Z</time>
      </trkpt>
      <trkpt lat="43.49078" lon="6.17476">
        <ele>208.2</ele>
        <time>2024-03-27T14:49:26Z</time>
      </trkpt>
      <trkpt lat="43.49078" lon="6.17476">
        <ele>208.2</ele>
        <time>2024-03-27T14:49:27Z</time>
      </trkpt>
      <trkpt lat="43.49078" lon="6.17476">
        <ele>208.3</ele>
        <time>2024-03-27T14:49:28Z</time>
      </trkpt>
      <trkpt lat="43.49078" lon="6.17476">
        <ele>208.3</ele>
        <time>2024-03-27T14:49:29Z</time>
      </trkpt>
      <trkpt lat="43.49078" lon="6.17476">
        <ele>208.2</ele>
        <time>2024-03-27T14:49:30Z</time>
      </trkpt>
      <trkpt lat="43.49078" lon="6.17476">
        <ele>208.2</ele>
        <time>2024-03-27T14:49:31Z</time>
      </trkpt>
      <trkpt lat="43.49078" lon="6.17476">
        <ele>208.2</ele>
        <time>2024-03-27T14:49:32Z</time>
      </trkpt>
      <trkpt lat="43.49078" lon="6.17476">
        <ele>208.2</ele>
        <time>2024-03-27T14:49:33Z</time>
      </trkpt>
      <trkpt lat="43.49078" lon="6.17476">
        <ele>208.2</ele>
        <time>2024-03-27T14:49:34Z</time>
      </trkpt>
      <trkpt lat="43.49078" lon="6.17476">
        <ele>208.2</ele>
        <time>2024-03-27T14:49:35Z</time>
      </trkpt>
      <trkpt lat="43.49078" lon="6.17476">
        <ele>208.2</ele>
        <time>2024-03-27T14:49:36Z</time>
      </trkpt>
      <trkpt lat="43.49078" lon="6.17476">
        <ele>208.3</ele>
        <time>2024-03-27T14:49:37Z</time>
      </trkpt>
      <trkpt lat="43.49078" lon="6.17476">
        <ele>208.3</ele>
        <time>2024-03-27T14:49:38Z</time>
      </trkpt>
      <trkpt lat="43.49078" lon="6.17476">
        <ele>208.3</ele>
        <time>2024-03-27T14:49:39Z</time>
      </trkpt>
      <trkpt lat="43.49078" lon="6.17476">
        <ele>208.4</ele>
        <time>2024-03-27T14:49:40Z</time>
      </trkpt>
      <trkpt lat="43.49078" lon="6.17476">
        <ele>208.4</ele>
        <time>2024-03-27T14:49:41Z</time>
      </trkpt>
      <trkpt lat="43.49078" lon="6.17476">
        <ele>208.5</ele>
        <time>2024-03-27T14:49:42Z</time>
      </trkpt>
      <trkpt lat="43.49078" lon="6.17476">
        <ele>208.5</ele>
        <time>2024-03-27T14:49:43Z</time>
      </trkpt>
      <trkpt lat="43.49078" lon="6.17476">
        <ele>208.5</ele>
        <time>2024-03-27T14:49:44Z</time>
      </trkpt>
      <trkpt lat="43.49078" lon="6.17476">
        <ele>208.5</ele>
        <time>2024-03-27T14:49:45Z</time>
      </trkpt>
      <trkpt lat="43.49078" lon="6.17476">
        <ele>208.4</ele>
        <time>2024-03-27T14:49:46Z</time>
      </trkpt>
      <trkpt lat="43.49078" lon="6.17476">
        <ele>208.4</ele>
        <time>2024-03-27T14:49:47Z</time>
      </trkpt>
      <trkpt lat="43.49077" lon="6.17476">
        <ele>208.5</ele>
        <time>2024-03-27T14:49:48Z</time>
      </trkpt>
      <trkpt lat="43.49077" lon="6.17476">
        <ele>208.4</ele>
        <time>2024-03-27T14:49:49Z</time>
      </trkpt>
      <trkpt lat="43.49077" lon="6.17476">
        <ele>208.4</ele>
        <time>2024-03-27T14:49:50Z</time>
      </trkpt>
      <trkpt lat="43.49077" lon="6.17476">
        <ele>208.4</ele>
        <time>2024-03-27T14:49:51Z</time>
      </trkpt>
      <trkpt lat="43.49078" lon="6.17476">
        <ele>208.4</ele>
        <time>2024-03-27T14:49:52Z</time>
      </trkpt>
      <trkpt lat="43.49078" lon="6.17476">
        <ele>208.4</ele>
        <time>2024-03-27T14:49:53Z</time>
      </trkpt>
      <trkpt lat="43.49078" lon="6.17476">
        <ele>208.4</ele>
        <time>2024-03-27T14:49:54Z</time>
      </trkpt>
      <trkpt lat="43.49078" lon="6.17476">
        <ele>208.4</ele>
        <time>2024-03-27T14:49:55Z</time>
      </trkpt>
      <trkpt lat="43.49078" lon="6.17476">
        <ele>208.4</ele>
        <time>2024-03-27T14:49:56Z</time>
      </trkpt>
      <trkpt lat="43.49078" lon="6.17476">
        <ele>208.4</ele>
        <time>2024-03-27T14:49:57Z</time>
      </trkpt>
      <trkpt lat="43.49078" lon="6.17476">
        <ele>208.4</ele>
        <time>2024-03-27T14:49:58Z</time>
      </trkpt>
      <trkpt lat="43.49078" lon="6.17476">
        <ele>208.4</ele>
        <time>2024-03-27T14:49:59Z</time>
      </trkpt>
      <trkpt lat="43.49078" lon="6.17476">
        <ele>208.4</ele>
        <time>2024-03-27T14:50:00Z</time>
      </trkpt>
      <trkpt lat="43.49078" lon="6.17476">
        <ele>208.4</ele>
        <time>2024-03-27T14:50:01Z</time>
      </trkpt>
      <trkpt lat="43.49078" lon="6.17476">
        <ele>208.4</ele>
        <time>2024-03-27T14:50:02Z</time>
      </trkpt>
      <trkpt lat="43.49078" lon="6.17476">
        <ele>208.5</ele>
        <time>2024-03-27T14:50:03Z</time>
      </trkpt>
      <trkpt lat="43.49078" lon="6.17477">
        <ele>208.5</ele>
        <time>2024-03-27T14:50:04Z</time>
      </trkpt>
      <trkpt lat="43.49078" lon="6.17477">
        <ele>208.5</ele>
        <time>2024-03-27T14:50:05Z</time>
      </trkpt>
      <trkpt lat="43.49078" lon="6.17477">
        <ele>208.4</ele>
        <time>2024-03-27T14:50:06Z</time>
      </trkpt>
      <trkpt lat="43.49078" lon="6.17477">
        <ele>208.4</ele>
        <time>2024-03-27T14:50:07Z</time>
      </trkpt>
      <trkpt lat="43.49078" lon="6.17477">
        <ele>208.4</ele>
        <time>2024-03-27T14:50:08Z</time>
      </trkpt>
      <trkpt lat="43.49078" lon="6.17477">
        <ele>208.4</ele>
        <time>2024-03-27T14:50:09Z</time>
      </trkpt>
      <trkpt lat="43.49078" lon="6.17477">
        <ele>208.3</ele>
        <time>2024-03-27T14:50:10Z</time>
      </trkpt>
      <trkpt lat="43.49078" lon="6.17477">
        <ele>208.3</ele>
        <time>2024-03-27T14:50:11Z</time>
      </trkpt>
      <trkpt lat="43.49078" lon="6.17477">
        <ele>208.2</ele>
        <time>2024-03-27T14:50:12Z</time>
      </trkpt>
      <trkpt lat="43.49078" lon="6.17477">
        <ele>208.2</ele>
        <time>2024-03-27T14:50:13Z</time>
      </trkpt>
      <trkpt lat="43.49078" lon="6.17477">
        <ele>208.2</ele>
        <time>2024-03-27T14:50:14Z</time>
      </trkpt>
      <trkpt lat="43.49078" lon="6.17477">
        <ele>208.1</ele>
        <time>2024-03-27T14:50:15Z</time>
      </trkpt>
      <trkpt lat="43.49077" lon="6.17477">
        <ele>208</ele>
        <time>2024-03-27T14:50:16Z</time>
      </trkpt>
      <trkpt lat="43.49077" lon="6.17477">
        <ele>208</ele>
        <time>2024-03-27T14:50:17Z</time>
      </trkpt>
      <trkpt lat="43.49077" lon="6.17477">
        <ele>208.1</ele>
        <time>2024-03-27T14:50:18Z</time>
      </trkpt>
      <trkpt lat="43.49077" lon="6.17477">
        <ele>208.2</ele>
        <time>2024-03-27T14:50:19Z</time>
      </trkpt>
      <trkpt lat="43.49077" lon="6.17477">
        <ele>208.3</ele>
        <time>2024-03-27T14:50:20Z</time>
      </trkpt>
      <trkpt lat="43.49078" lon="6.17477">
        <ele>208.2</ele>
        <time>2024-03-27T14:50:21Z</time>
      </trkpt>
      <trkpt lat="43.49078" lon="6.17477">
        <ele>208.2</ele>
        <time>2024-03-27T14:50:22Z</time>
      </trkpt>
      <trkpt lat="43.49077" lon="6.17477">
        <ele>208.1</ele>
        <time>2024-03-27T14:50:23Z</time>
      </trkpt>
      <trkpt lat="43.49077" lon="6.17477">
        <ele>208.1</ele>
        <time>2024-03-27T14:50:24Z</time>
      </trkpt>
      <trkpt lat="43.49077" lon="6.17477">
        <ele>208.1</ele>
        <time>2024-03-27T14:50:25Z</time>
      </trkpt>
      <trkpt lat="43.49077" lon="6.17477">
        <ele>208</ele>
        <time>2024-03-27T14:50:26Z</time>
      </trkpt>
      <trkpt lat="43.49077" lon="6.17477">
        <ele>208</ele>
        <time>2024-03-27T14:50:27Z</time>
      </trkpt>
      <trkpt lat="43.49077" lon="6.17477">
        <ele>208.1</ele>
        <time>2024-03-27T14:50:28Z</time>
      </trkpt>
      <trkpt lat="43.49077" lon="6.17477">
        <ele>208.2</ele>
        <time>2024-03-27T14:50:29Z</time>
      </trkpt>
      <trkpt lat="43.49077" lon="6.17477">
        <ele>208.2</ele>
        <time>2024-03-27T14:50:30Z</time>
      </trkpt>
      <trkpt lat="43.49076" lon="6.17477">
        <ele>208.2</ele>
        <time>2024-03-27T14:50:31Z</time>
      </trkpt>
      <trkpt lat="43.49076" lon="6.17477">
        <ele>208.1</ele>
        <time>2024-03-27T14:50:32Z</time>
      </trkpt>
      <trkpt lat="43.49076" lon="6.17477">
        <ele>208.1</ele>
        <time>2024-03-27T14:50:33Z</time>
      </trkpt>
      <trkpt lat="43.49076" lon="6.17477">
        <ele>208.2</ele>
        <time>2024-03-27T14:50:34Z</time>
      </trkpt>
      <trkpt lat="43.49076" lon="6.17477">
        <ele>208.2</ele>
        <time>2024-03-27T14:50:35Z</time>
      </trkpt>
      <trkpt lat="43.49077" lon="6.17477">
        <ele>208.1</ele>
        <time>2024-03-27T14:50:36Z</time>
      </trkpt>
      <trkpt lat="43.49077" lon="6.17477">
        <ele>207.9</ele>
        <time>2024-03-27T14:50:37Z</time>
      </trkpt>
      <trkpt lat="43.49078" lon="6.17477">
        <ele>207.8</ele>
        <time>2024-03-27T14:50:38Z</time>
      </trkpt>
      <trkpt lat="43.49078" lon="6.17477">
        <ele>207.7</ele>
        <time>2024-03-27T14:50:39Z</time>
      </trkpt>
      <trkpt lat="43.49078" lon="6.17477">
        <ele>207.8</ele>
        <time>2024-03-27T14:50:40Z</time>
      </trkpt>
      <trkpt lat="43.49078" lon="6.17477">
        <ele>207.8</ele>
        <time>2024-03-27T14:50:41Z</time>
      </trkpt>
      <trkpt lat="43.49078" lon="6.17477">
        <ele>207.8</ele>
        <time>2024-03-27T14:50:42Z</time>
      </trkpt>
      <trkpt lat="43.49078" lon="6.17477">
        <ele>207.7</ele>
        <time>2024-03-27T14:50:43Z</time>
      </trkpt>
      <trkpt lat="43.49078" lon="6.17477">
        <ele>207.6</ele>
        <time>2024-03-27T14:50:44Z</time>
      </trkpt>
      <trkpt lat="43.49078" lon="6.17477">
        <ele>207.6</ele>
        <time>2024-03-27T14:50:45Z</time>
      </trkpt>
      <trkpt lat="43.49078" lon="6.17477">
        <ele>207.5</ele>
        <time>2024-03-27T14:50:46Z</time>
      </trkpt>
      <trkpt lat="43.49078" lon="6.17477">
        <ele>207.4</ele>
        <time>2024-03-27T14:50:47Z</time>
      </trkpt>
      <trkpt lat="43.49078" lon="6.17477">
        <ele>207.3</ele>
        <time>2024-03-27T14:50:48Z</time>
      </trkpt>
      <trkpt lat="43.49078" lon="6.17477">
        <ele>207.3</ele>
        <time>2024-03-27T14:50:49Z</time>
      </trkpt>
      <trkpt lat="43.49078" lon="6.17477">
        <ele>207.3</ele>
        <time>2024-03-27T14:50:50Z</time>
      </trkpt>
      <trkpt lat="43.49078" lon="6.17477">
        <ele>207.3</ele>
        <time>2024-03-27T14:50:51Z</time>
      </trkpt>
      <trkpt lat="43.49078" lon="6.17477">
        <ele>207.2</ele>
        <time>2024-03-27T14:50:52Z</time>
      </trkpt>
      <trkpt lat="43.49078" lon="6.17477">
        <ele>207.3</ele>
        <time>2024-03-27T14:50:53Z</time>
      </trkpt>
      <trkpt lat="43.49078" lon="6.17477">
        <ele>207.3</ele>
        <time>2024-03-27T14:50:54Z</time>
      </trkpt>
      <trkpt lat="43.49078" lon="6.17477">
        <ele>207.3</ele>
        <time>2024-03-27T14:50:55Z</time>
      </trkpt>
      <trkpt lat="43.49078" lon="6.17477">
        <ele>207.3</ele>
        <time>2024-03-27T14:50:56Z</time>
      </trkpt>
      <trkpt lat="43.49078" lon="6.17477">
        <ele>207.3</ele>
        <time>2024-03-27T14:50:57Z</time>
      </trkpt>
      <trkpt lat="43.49078" lon="6.17477">
        <ele>207.3</ele>
        <time>2024-03-27T14:50:58Z</time>
      </trkpt>
      <trkpt lat="43.49078" lon="6.17477">
        <ele>207.2</ele>
        <time>2024-03-27T14:50:59Z</time>
      </trkpt>
      <trkpt lat="43.49078" lon="6.17477">
        <ele>207.3</ele>
        <time>2024-03-27T14:51:00Z</time>
      </trkpt>
      <trkpt lat="43.49078" lon="6.17477">
        <ele>207.3</ele>
        <time>2024-03-27T14:51:01Z</time>
      </trkpt>
      <trkpt lat="43.49078" lon="6.17477">
        <ele>207.3</ele>
        <time>2024-03-27T14:51:02Z</time>
      </trkpt>
      <trkpt lat="43.49078" lon="6.17477">
        <ele>207.3</ele>
        <time>2024-03-27T14:51:03Z</time>
      </trkpt>
      <trkpt lat="43.49078" lon="6.17477">
        <ele>207.4</ele>
        <time>2024-03-27T14:51:04Z</time>
      </trkpt>
      <trkpt lat="43.49078" lon="6.17477">
        <ele>207.4</ele>
        <time>2024-03-27T14:51:05Z</time>
      </trkpt>
      <trkpt lat="43.49078" lon="6.17477">
        <ele>207.5</ele>
        <time>2024-03-27T14:51:06Z</time>
      </trkpt>
      <trkpt lat="43.49078" lon="6.17477">
        <ele>207.6</ele>
        <time>2024-03-27T14:51:07Z</time>
      </trkpt>
      <trkpt lat="43.49078" lon="6.17477">
        <ele>207.6</ele>
        <time>2024-03-27T14:51:08Z</time>
      </trkpt>
      <trkpt lat="43.49078" lon="6.17477">
        <ele>207.7</ele>
        <time>2024-03-27T14:51:09Z</time>
      </trkpt>
      <trkpt lat="43.49078" lon="6.17477">
        <ele>207.7</ele>
        <time>2024-03-27T14:51:10Z</time>
      </trkpt>
      <trkpt lat="43.49078" lon="6.17477">
        <ele>207.7</ele>
        <time>2024-03-27T14:51:11Z</time>
      </trkpt>
      <trkpt lat="43.49078" lon="6.17477">
        <ele>207.7</ele>
        <time>2024-03-27T14:51:12Z</time>
      </trkpt>
      <trkpt lat="43.49078" lon="6.17477">
        <ele>207.7</ele>
        <time>2024-03-27T14:51:13Z</time>
      </trkpt>
      <trkpt lat="43.49078" lon="6.17477">
        <ele>207.8</ele>
        <time>2024-03-27T14:51:14Z</time>
      </trkpt>
      <trkpt lat="43.49078" lon="6.17477">
        <ele>207.7</ele>
        <time>2024-03-27T14:51:15Z</time>
      </trkpt>
      <trkpt lat="43.49078" lon="6.17477">
        <ele>207.7</ele>
        <time>2024-03-27T14:51:16Z</time>
      </trkpt>
      <trkpt lat="43.49078" lon="6.17477">
        <ele>207.7</ele>
        <time>2024-03-27T14:51:17Z</time>
      </trkpt>
      <trkpt lat="43.49077" lon="6.17477">
        <ele>207.6</ele>
        <time>2024-03-27T14:51:18Z</time>
      </trkpt>
      <trkpt lat="43.49077" lon="6.17477">
        <ele>207.7</ele>
        <time>2024-03-27T14:51:19Z</time>
      </trkpt>
      <trkpt lat="43.49077" lon="6.17477">
        <ele>207.8</ele>
        <time>2024-03-27T14:51:20Z</time>
      </trkpt>
      <trkpt lat="43.49077" lon="6.17477">
        <ele>207.8</ele>
        <time>2024-03-27T14:51:21Z</time>
      </trkpt>
      <trkpt lat="43.49077" lon="6.17477">
        <ele>207.8</ele>
        <time>2024-03-27T14:51:22Z</time>
      </trkpt>
      <trkpt lat="43.49077" lon="6.17477">
        <ele>207.9</ele>
        <time>2024-03-27T14:51:23Z</time>
      </trkpt>
      <trkpt lat="43.49077" lon="6.17477">
        <ele>207.9</ele>
        <time>2024-03-27T14:51:24Z</time>
      </trkpt>
      <trkpt lat="43.49077" lon="6.17477">
        <ele>207.9</ele>
        <time>2024-03-27T14:51:25Z</time>
      </trkpt>
      <trkpt lat="43.49077" lon="6.17477">
        <ele>207.9</ele>
        <time>2024-03-27T14:51:26Z</time>
      </trkpt>
      <trkpt lat="43.49077" lon="6.17477">
        <ele>207.9</ele>
        <time>2024-03-27T14:51:27Z</time>
      </trkpt>
      <trkpt lat="43.49077" lon="6.17477">
        <ele>207.9</ele>
        <time>2024-03-27T14:51:28Z</time>
      </trkpt>
      <trkpt lat="43.49077" lon="6.17477">
        <ele>207.9</ele>
        <time>2024-03-27T14:51:29Z</time>
      </trkpt>
      <trkpt lat="43.49077" lon="6.17477">
        <ele>207.9</ele>
        <time>2024-03-27T14:51:30Z</time>
      </trkpt>
      <trkpt lat="43.49077" lon="6.17477">
        <ele>207.9</ele>
        <time>2024-03-27T14:51:31Z</time>
      </trkpt>
      <trkpt lat="43.49077" lon="6.17477">
        <ele>207.8</ele>
        <time>2024-03-27T14:51:32Z</time>
      </trkpt>
      <trkpt lat="43.49077" lon="6.17477">
        <ele>207.7</ele>
        <time>2024-03-27T14:51:33Z</time>
      </trkpt>
      <trkpt lat="43.49077" lon="6.17477">
        <ele>207.6</ele>
        <time>2024-03-27T14:51:34Z</time>
      </trkpt>
      <trkpt lat="43.49077" lon="6.17477">
        <ele>207.5</ele>
        <time>2024-03-27T14:51:35Z</time>
      </trkpt>
      <trkpt lat="43.49077" lon="6.17477">
        <ele>207.4</ele>
        <time>2024-03-27T14:51:36Z</time>
      </trkpt>
      <trkpt lat="43.49077" lon="6.17478">
        <ele>207.4</ele>
        <time>2024-03-27T14:51:37Z</time>
      </trkpt>
      <trkpt lat="43.49077" lon="6.17478">
        <ele>207.5</ele>
        <time>2024-03-27T14:51:38Z</time>
      </trkpt>
      <trkpt lat="43.49077" lon="6.17478">
        <ele>207.5</ele>
        <time>2024-03-27T14:51:39Z</time>
      </trkpt>
      <trkpt lat="43.49077" lon="6.17478">
        <ele>207.6</ele>
        <time>2024-03-27T14:51:40Z</time>
      </trkpt>
      <trkpt lat="43.49077" lon="6.17478">
        <ele>207.7</ele>
        <time>2024-03-27T14:51:41Z</time>
      </trkpt>
      <trkpt lat="43.49077" lon="6.17478">
        <ele>207.6</ele>
        <time>2024-03-27T14:51:42Z</time>
      </trkpt>
      <trkpt lat="43.49077" lon="6.17478">
        <ele>207.6</ele>
        <time>2024-03-27T14:51:43Z</time>
      </trkpt>
      <trkpt lat="43.49077" lon="6.17478">
        <ele>207.5</ele>
        <time>2024-03-27T14:51:44Z</time>
      </trkpt>
      <trkpt lat="43.49077" lon="6.17479">
        <ele>207.5</ele>
        <time>2024-03-27T14:51:45Z</time>
      </trkpt>
      <trkpt lat="43.49077" lon="6.17479">
        <ele>207.6</ele>
        <time>2024-03-27T14:51:46Z</time>
      </trkpt>
      <trkpt lat="43.49077" lon="6.17479">
        <ele>207.6</ele>
        <time>2024-03-27T14:51:47Z</time>
      </trkpt>
      <trkpt lat="43.49077" lon="6.17479">
        <ele>207.5</ele>
        <time>2024-03-27T14:51:48Z</time>
      </trkpt>
      <trkpt lat="43.49078" lon="6.17479">
        <ele>207.5</ele>
        <time>2024-03-27T14:51:49Z</time>
      </trkpt>
      <trkpt lat="43.49077" lon="6.17479">
        <ele>207.5</ele>
        <time>2024-03-27T14:51:50Z</time>
      </trkpt>
      <trkpt lat="43.49077" lon="6.17479">
        <ele>207.6</ele>
        <time>2024-03-27T14:51:51Z</time>
      </trkpt>
      <trkpt lat="43.49077" lon="6.17479">
        <ele>207.6</ele>
        <time>2024-03-27T14:51:52Z</time>
      </trkpt>
      <trkpt lat="43.49077" lon="6.17479">
        <ele>207.6</ele>
        <time>2024-03-27T14:51:53Z</time>
      </trkpt>
      <trkpt lat="43.49077" lon="6.17479">
        <ele>207.6</ele>
        <time>2024-03-27T14:51:54Z</time>
      </trkpt>
      <trkpt lat="43.49078" lon="6.1748">
        <ele>207.6</ele>
        <time>2024-03-27T14:51:55Z</time>
      </trkpt>
      <trkpt lat="43.49078" lon="6.1748">
        <ele>207.7</ele>
        <time>2024-03-27T14:51:56Z</time>
      </trkpt>
      <trkpt lat="43.49078" lon="6.1748">
        <ele>207.7</ele>
        <time>2024-03-27T14:51:57Z</time>
      </trkpt>
      <trkpt lat="43.49079" lon="6.17481">
        <ele>207.8</ele>
        <time>2024-03-27T14:51:58Z</time>
      </trkpt>
      <trkpt lat="43.4908" lon="6.17483">
        <ele>207.9</ele>
        <time>2024-03-27T14:51:59Z</time>
      </trkpt>
      <trkpt lat="43.49081" lon="6.17484">
        <ele>208</ele>
        <time>2024-03-27T14:52:00Z</time>
      </trkpt>
      <trkpt lat="43.49083" lon="6.17486">
        <ele>208.1</ele>
        <time>2024-03-27T14:52:01Z</time>
      </trkpt>
      <trkpt lat="43.49084" lon="6.17489">
        <ele>208.2</ele>
        <time>2024-03-27T14:52:02Z</time>
      </trkpt>
      <trkpt lat="43.49086" lon="6.17491">
        <ele>208.2</ele>
        <time>2024-03-27T14:52:03Z</time>
      </trkpt>
      <trkpt lat="43.49088" lon="6.17492">
        <ele>208.3</ele>
        <time>2024-03-27T14:52:04Z</time>
      </trkpt>
      <trkpt lat="43.49089" lon="6.17493">
        <ele>208.3</ele>
        <time>2024-03-27T14:52:05Z</time>
      </trkpt>
      <trkpt lat="43.4909" lon="6.17493">
        <ele>208.3</ele>
        <time>2024-03-27T14:52:06Z</time>
      </trkpt>
      <trkpt lat="43.4909" lon="6.17493">
        <ele>208.3</ele>
        <time>2024-03-27T14:52:07Z</time>
      </trkpt>
      <trkpt lat="43.4909" lon="6.17493">
        <ele>208.3</ele>
        <time>2024-03-27T14:52:08Z</time>
      </trkpt>
      <trkpt lat="43.4909" lon="6.17493">
        <ele>208.2</ele>
        <time>2024-03-27T14:52:09Z</time>
      </trkpt>
      <trkpt lat="43.4909" lon="6.17493">
        <ele>208.3</ele>
        <time>2024-03-27T14:52:10Z</time>
      </trkpt>
      <trkpt lat="43.49091" lon="6.17494">
        <ele>208.3</ele>
        <time>2024-03-27T14:52:11Z</time>
      </trkpt>
      <trkpt lat="43.49092" lon="6.17494">
        <ele>208.2</ele>
        <time>2024-03-27T14:52:12Z</time>
      </trkpt>
      <trkpt lat="43.49093" lon="6.17495">
        <ele>208.1</ele>
        <time>2024-03-27T14:52:13Z</time>
      </trkpt>
      <trkpt lat="43.49094" lon="6.17495">
        <ele>208.1</ele>
        <time>2024-03-27T14:52:14Z</time>
      </trkpt>
      <trkpt lat="43.49095" lon="6.17496">
        <ele>208.1</ele>
        <time>2024-03-27T14:52:15Z</time>
      </trkpt>
      <trkpt lat="43.49095" lon="6.17497">
        <ele>208</ele>
        <time>2024-03-27T14:52:16Z</time>
      </trkpt>
      <trkpt lat="43.49096" lon="6.17498">
        <ele>208.1</ele>
        <time>2024-03-27T14:52:17Z</time>
      </trkpt>
      <trkpt lat="43.49097" lon="6.17498">
        <ele>208.1</ele>
        <time>2024-03-27T14:52:18Z</time>
      </trkpt>
      <trkpt lat="43.49098" lon="6.17499">
        <ele>208.1</ele>
        <time>2024-03-27T14:52:19Z</time>
      </trkpt>
      <trkpt lat="43.49098" lon="6.175">
        <ele>208.1</ele>
        <time>2024-03-27T14:52:20Z</time>
      </trkpt>
      <trkpt lat="43.49099" lon="6.17501">
        <ele>208.1</ele>
        <time>2024-03-27T14:52:21Z</time>
      </trkpt>
      <trkpt lat="43.491" lon="6.17502">
        <ele>208.1</ele>
        <time>2024-03-27T14:52:22Z</time>
      </trkpt>
      <trkpt lat="43.49101" lon="6.17503">
        <ele>208</ele>
        <time>2024-03-27T14:52:23Z</time>
      </trkpt>
      <trkpt lat="43.49102" lon="6.17503">
        <ele>208</ele>
        <time>2024-03-27T14:52:24Z</time>
      </trkpt>
      <trkpt lat="43.49102" lon="6.17504">
        <ele>207.9</ele>
        <time>2024-03-27T14:52:25Z</time>
      </trkpt>
      <trkpt lat="43.49103" lon="6.17505">
        <ele>207.8</ele>
        <time>2024-03-27T14:52:26Z</time>
      </trkpt>
      <trkpt lat="43.49104" lon="6.17505">
        <ele>207.7</ele>
        <time>2024-03-27T14:52:27Z</time>
      </trkpt>
      <trkpt lat="43.49105" lon="6.17506">
        <ele>207.6</ele>
        <time>2024-03-27T14:52:28Z</time>
      </trkpt>
      <trkpt lat="43.49105" lon="6.17506">
        <ele>207.6</ele>
        <time>2024-03-27T14:52:29Z</time>
      </trkpt>
      <trkpt lat="43.49105" lon="6.17506">
        <ele>207.4</ele>
        <time>2024-03-27T14:52:30Z</time>
      </trkpt>
      <trkpt lat="43.49106" lon="6.17506">
        <ele>207.3</ele>
        <time>2024-03-27T14:52:31Z</time>
      </trkpt>
      <trkpt lat="43.49107" lon="6.17507">
        <ele>207.3</ele>
        <time>2024-03-27T14:52:32Z</time>
      </trkpt>
      <trkpt lat="43.49107" lon="6.17509">
        <ele>207.3</ele>
        <time>2024-03-27T14:52:33Z</time>
      </trkpt>
      <trkpt lat="43.49108" lon="6.1751">
        <ele>207.3</ele>
        <time>2024-03-27T14:52:34Z</time>
      </trkpt>
      <trkpt lat="43.49109" lon="6.17512">
        <ele>207.4</ele>
        <time>2024-03-27T14:52:35Z</time>
      </trkpt>
      <trkpt lat="43.4911" lon="6.17513">
        <ele>207.4</ele>
        <time>2024-03-27T14:52:36Z</time>
      </trkpt>
      <trkpt lat="43.4911" lon="6.17514">
        <ele>207.4</ele>
        <time>2024-03-27T14:52:37Z</time>
      </trkpt>
      <trkpt lat="43.49111" lon="6.17515">
        <ele>207.3</ele>
        <time>2024-03-27T14:52:38Z</time>
      </trkpt>
      <trkpt lat="43.49111" lon="6.17516">
        <ele>207.2</ele>
        <time>2024-03-27T14:52:39Z</time>
      </trkpt>
      <trkpt lat="43.49111" lon="6.17518">
        <ele>207.1</ele>
        <time>2024-03-27T14:52:40Z</time>
      </trkpt>
      <trkpt lat="43.49111" lon="6.17519">
        <ele>206.9</ele>
        <time>2024-03-27T14:52:41Z</time>
      </trkpt>
      <trkpt lat="43.49111" lon="6.1752">
        <ele>206.8</ele>
        <time>2024-03-27T14:52:42Z</time>
      </trkpt>
      <trkpt lat="43.49111" lon="6.17521">
        <ele>206.7</ele>
        <time>2024-03-27T14:52:43Z</time>
      </trkpt>
      <trkpt lat="43.4911" lon="6.17522">
        <ele>206.7</ele>
        <time>2024-03-27T14:52:44Z</time>
      </trkpt>
      <trkpt lat="43.49111" lon="6.17524">
        <ele>206.5</ele>
        <time>2024-03-27T14:52:45Z</time>
      </trkpt>
      <trkpt lat="43.49111" lon="6.17525">
        <ele>206.4</ele>
        <time>2024-03-27T14:52:46Z</time>
      </trkpt>
      <trkpt lat="43.49111" lon="6.17526">
        <ele>206.3</ele>
        <time>2024-03-27T14:52:47Z</time>
      </trkpt>
      <trkpt lat="43.49111" lon="6.17527">
        <ele>206.1</ele>
        <time>2024-03-27T14:52:48Z</time>
      </trkpt>
      <trkpt lat="43.49111" lon="6.17528">
        <ele>206.1</ele>
        <time>2024-03-27T14:52:49Z</time>
      </trkpt>
      <trkpt lat="43.49111" lon="6.17529">
        <ele>206</ele>
        <time>2024-03-27T14:52:50Z</time>
      </trkpt>
      <trkpt lat="43.49111" lon="6.1753">
        <ele>206</ele>
        <time>2024-03-27T14:52:51Z</time>
      </trkpt>
      <trkpt lat="43.49111" lon="6.17531">
        <ele>205.9</ele>
        <time>2024-03-27T14:52:52Z</time>
      </trkpt>
      <trkpt lat="43.49111" lon="6.17533">
        <ele>206</ele>
        <time>2024-03-27T14:52:53Z</time>
      </trkpt>
      <trkpt lat="43.49112" lon="6.17533">
        <ele>205.9</ele>
        <time>2024-03-27T14:52:54Z</time>
      </trkpt>
      <trkpt lat="43.49113" lon="6.17534">
        <ele>205.9</ele>
        <time>2024-03-27T14:52:55Z</time>
      </trkpt>
      <trkpt lat="43.49114" lon="6.17535">
        <ele>205.9</ele>
        <time>2024-03-27T14:52:56Z</time>
      </trkpt>
      <trkpt lat="43.49115" lon="6.17536">
        <ele>205.9</ele>
        <time>2024-03-27T14:52:57Z</time>
      </trkpt>
      <trkpt lat="43.49116" lon="6.17537">
        <ele>205.9</ele>
        <time>2024-03-27T14:52:58Z</time>
      </trkpt>
      <trkpt lat="43.49117" lon="6.17537">
        <ele>205.9</ele>
        <time>2024-03-27T14:52:59Z</time>
      </trkpt>
      <trkpt lat="43.49118" lon="6.17538">
        <ele>205.8</ele>
        <time>2024-03-27T14:53:00Z</time>
      </trkpt>
      <trkpt lat="43.49119" lon="6.17539">
        <ele>205.9</ele>
        <time>2024-03-27T14:53:01Z</time>
      </trkpt>
      <trkpt lat="43.4912" lon="6.17539">
        <ele>206</ele>
        <time>2024-03-27T14:53:02Z</time>
      </trkpt>
      <trkpt lat="43.49121" lon="6.1754">
        <ele>206.1</ele>
        <time>2024-03-27T14:53:03Z</time>
      </trkpt>
      <trkpt lat="43.49122" lon="6.1754">
        <ele>206</ele>
        <time>2024-03-27T14:53:04Z</time>
      </trkpt>
      <trkpt lat="43.49123" lon="6.17541">
        <ele>206</ele>
        <time>2024-03-27T14:53:05Z</time>
      </trkpt>
      <trkpt lat="43.49124" lon="6.17541">
        <ele>206</ele>
        <time>2024-03-27T14:53:06Z</time>
      </trkpt>
      <trkpt lat="43.49126" lon="6.17542">
        <ele>205.9</ele>
        <time>2024-03-27T14:53:07Z</time>
      </trkpt>
      <trkpt lat="43.49127" lon="6.17543">
        <ele>205.9</ele>
        <time>2024-03-27T14:53:08Z</time>
      </trkpt>
      <trkpt lat="43.49128" lon="6.17544">
        <ele>206</ele>
        <time>2024-03-27T14:53:09Z</time>
      </trkpt>
      <trkpt lat="43.49129" lon="6.17544">
        <ele>206</ele>
        <time>2024-03-27T14:53:10Z</time>
      </trkpt>
      <trkpt lat="43.4913" lon="6.17545">
        <ele>205.9</ele>
        <time>2024-03-27T14:53:11Z</time>
      </trkpt>
      <trkpt lat="43.4913" lon="6.17546">
        <ele>205.9</ele>
        <time>2024-03-27T14:53:12Z</time>
      </trkpt>
      <trkpt lat="43.49131" lon="6.17546">
        <ele>205.9</ele>
        <time>2024-03-27T14:53:13Z</time>
      </trkpt>
      <trkpt lat="43.49132" lon="6.17546">
        <ele>205.9</ele>
        <time>2024-03-27T14:53:14Z</time>
      </trkpt>
      <trkpt lat="43.49133" lon="6.17546">
        <ele>205.9</ele>
        <time>2024-03-27T14:53:15Z</time>
      </trkpt>
      <trkpt lat="43.49134" lon="6.17547">
        <ele>205.9</ele>
        <time>2024-03-27T14:53:16Z</time>
      </trkpt>
      <trkpt lat="43.49135" lon="6.17548">
        <ele>205.8</ele>
        <time>2024-03-27T14:53:17Z</time>
      </trkpt>
      <trkpt lat="43.49136" lon="6.17549">
        <ele>205.8</ele>
        <time>2024-03-27T14:53:18Z</time>
      </trkpt>
      <trkpt lat="43.49137" lon="6.1755">
        <ele>205.7</ele>
        <time>2024-03-27T14:53:19Z</time>
      </trkpt>
      <trkpt lat="43.49139" lon="6.17551">
        <ele>205.7</ele>
        <time>2024-03-27T14:53:20Z</time>
      </trkpt>
      <trkpt lat="43.4914" lon="6.17552">
        <ele>205.7</ele>
        <time>2024-03-27T14:53:21Z</time>
      </trkpt>
      <trkpt lat="43.49141" lon="6.17552">
        <ele>205.6</ele>
        <time>2024-03-27T14:53:22Z</time>
      </trkpt>
      <trkpt lat="43.49142" lon="6.17552">
        <ele>205.5</ele>
        <time>2024-03-27T14:53:23Z</time>
      </trkpt>
      <trkpt lat="43.49143" lon="6.17552">
        <ele>205.5</ele>
        <time>2024-03-27T14:53:24Z</time>
      </trkpt>
      <trkpt lat="43.49144" lon="6.17552">
        <ele>205.4</ele>
        <time>2024-03-27T14:53:25Z</time>
      </trkpt>
      <trkpt lat="43.49145" lon="6.17552">
        <ele>205.4</ele>
        <time>2024-03-27T14:53:26Z</time>
      </trkpt>
      <trkpt lat="43.49146" lon="6.17553">
        <ele>205.3</ele>
        <time>2024-03-27T14:53:27Z</time>
      </trkpt>
      <trkpt lat="43.49148" lon="6.17553">
        <ele>205.3</ele>
        <time>2024-03-27T14:53:28Z</time>
      </trkpt>
      <trkpt lat="43.49149" lon="6.17554">
        <ele>205.2</ele>
        <time>2024-03-27T14:53:29Z</time>
      </trkpt>
      <trkpt lat="43.4915" lon="6.17554">
        <ele>205.1</ele>
        <time>2024-03-27T14:53:30Z</time>
      </trkpt>
      <trkpt lat="43.49151" lon="6.17555">
        <ele>205</ele>
        <time>2024-03-27T14:53:31Z</time>
      </trkpt>
      <trkpt lat="43.49152" lon="6.17555">
        <ele>204.8</ele>
        <time>2024-03-27T14:53:32Z</time>
      </trkpt>
      <trkpt lat="43.49153" lon="6.17555">
        <ele>204.6</ele>
        <time>2024-03-27T14:53:33Z</time>
      </trkpt>
      <trkpt lat="43.49154" lon="6.17556">
        <ele>204.4</ele>
        <time>2024-03-27T14:53:34Z</time>
      </trkpt>
      <trkpt lat="43.49155" lon="6.17556">
        <ele>204.3</ele>
        <time>2024-03-27T14:53:35Z</time>
      </trkpt>
      <trkpt lat="43.49157" lon="6.17557">
        <ele>204.1</ele>
        <time>2024-03-27T14:53:36Z</time>
      </trkpt>
      <trkpt lat="43.49158" lon="6.17557">
        <ele>204</ele>
        <time>2024-03-27T14:53:37Z</time>
      </trkpt>
      <trkpt lat="43.49159" lon="6.17557">
        <ele>203.9</ele>
        <time>2024-03-27T14:53:38Z</time>
      </trkpt>
      <trkpt lat="43.4916" lon="6.17558">
        <ele>203.7</ele>
        <time>2024-03-27T14:53:39Z</time>
      </trkpt>
      <trkpt lat="43.49161" lon="6.17559">
        <ele>203.6</ele>
        <time>2024-03-27T14:53:40Z</time>
      </trkpt>
      <trkpt lat="43.49162" lon="6.1756">
        <ele>203.5</ele>
        <time>2024-03-27T14:53:41Z</time>
      </trkpt>
      <trkpt lat="43.49164" lon="6.17561">
        <ele>203.4</ele>
        <time>2024-03-27T14:53:42Z</time>
      </trkpt>
      <trkpt lat="43.49165" lon="6.17562">
        <ele>203.4</ele>
        <time>2024-03-27T14:53:43Z</time>
      </trkpt>
      <trkpt lat="43.49166" lon="6.17562">
        <ele>203.5</ele>
        <time>2024-03-27T14:53:44Z</time>
      </trkpt>
      <trkpt lat="43.49167" lon="6.17562">
        <ele>203.4</ele>
        <time>2024-03-27T14:53:45Z</time>
      </trkpt>
      <trkpt lat="43.49168" lon="6.17562">
        <ele>203.4</ele>
        <time>2024-03-27T14:53:46Z</time>
      </trkpt>
      <trkpt lat="43.49169" lon="6.17563">
        <ele>203.3</ele>
        <time>2024-03-27T14:53:47Z</time>
      </trkpt>
      <trkpt lat="43.4917" lon="6.17563">
        <ele>203.3</ele>
        <time>2024-03-27T14:53:48Z</time>
      </trkpt>
      <trkpt lat="43.49171" lon="6.17564">
        <ele>203.3</ele>
        <time>2024-03-27T14:53:49Z</time>
      </trkpt>
      <trkpt lat="43.49172" lon="6.17564">
        <ele>203.4</ele>
        <time>2024-03-27T14:53:50Z</time>
      </trkpt>
      <trkpt lat="43.49173" lon="6.17564">
        <ele>203.4</ele>
        <time>2024-03-27T14:53:51Z</time>
      </trkpt>
      <trkpt lat="43.49174" lon="6.17565">
        <ele>203.3</ele>
        <time>2024-03-27T14:53:52Z</time>
      </trkpt>
      <trkpt lat="43.49175" lon="6.17565">
        <ele>203.1</ele>
        <time>2024-03-27T14:53:53Z</time>
      </trkpt>
      <trkpt lat="43.49176" lon="6.17565">
        <ele>203.1</ele>
        <time>2024-03-27T14:53:54Z</time>
      </trkpt>
      <trkpt lat="43.49177" lon="6.17566">
        <ele>203</ele>
        <time>2024-03-27T14:53:55Z</time>
      </trkpt>
      <trkpt lat="43.49178" lon="6.17567">
        <ele>202.9</ele>
        <time>2024-03-27T14:53:56Z</time>
      </trkpt>
      <trkpt lat="43.49179" lon="6.17568">
        <ele>202.9</ele>
        <time>2024-03-27T14:53:57Z</time>
      </trkpt>
      <trkpt lat="43.4918" lon="6.17568">
        <ele>202.9</ele>
        <time>2024-03-27T14:53:58Z</time>
      </trkpt>
      <trkpt lat="43.49182" lon="6.17568">
        <ele>202.9</ele>
        <time>2024-03-27T14:53:59Z</time>
      </trkpt>
      <trkpt lat="43.49183" lon="6.17569">
        <ele>202.9</ele>
        <time>2024-03-27T14:54:00Z</time>
      </trkpt>
      <trkpt lat="43.49184" lon="6.17569">
        <ele>202.9</ele>
        <time>2024-03-27T14:54:01Z</time>
      </trkpt>
      <trkpt lat="43.49184" lon="6.1757">
        <ele>203</ele>
        <time>2024-03-27T14:54:02Z</time>
      </trkpt>
      <trkpt lat="43.49185" lon="6.1757">
        <ele>203.1</ele>
        <time>2024-03-27T14:54:03Z</time>
      </trkpt>
      <trkpt lat="43.49186" lon="6.1757">
        <ele>203.1</ele>
        <time>2024-03-27T14:54:04Z</time>
      </trkpt>
      <trkpt lat="43.49187" lon="6.17571">
        <ele>203.1</ele>
        <time>2024-03-27T14:54:05Z</time>
      </trkpt>
      <trkpt lat="43.49188" lon="6.17571">
        <ele>203.1</ele>
        <time>2024-03-27T14:54:06Z</time>
      </trkpt>
      <trkpt lat="43.49189" lon="6.17571">
        <ele>203.1</ele>
        <time>2024-03-27T14:54:07Z</time>
      </trkpt>
      <trkpt lat="43.4919" lon="6.17572">
        <ele>203.1</ele>
        <time>2024-03-27T14:54:08Z</time>
      </trkpt>
      <trkpt lat="43.49192" lon="6.17573">
        <ele>203.1</ele>
        <time>2024-03-27T14:54:09Z</time>
      </trkpt>
      <trkpt lat="43.49194" lon="6.17573">
        <ele>203.1</ele>
        <time>2024-03-27T14:54:10Z</time>
      </trkpt>
      <trkpt lat="43.49195" lon="6.17574">
        <ele>203.1</ele>
        <time>2024-03-27T14:54:11Z</time>
      </trkpt>
      <trkpt lat="43.49196" lon="6.17575">
        <ele>203.1</ele>
        <time>2024-03-27T14:54:12Z</time>
      </trkpt>
      <trkpt lat="43.49197" lon="6.17575">
        <ele>203.1</ele>
        <time>2024-03-27T14:54:13Z</time>
      </trkpt>
      <trkpt lat="43.49198" lon="6.17576">
        <ele>203</ele>
        <time>2024-03-27T14:54:14Z</time>
      </trkpt>
      <trkpt lat="43.492" lon="6.17576">
        <ele>203</ele>
        <time>2024-03-27T14:54:15Z</time>
      </trkpt>
      <trkpt lat="43.492" lon="6.17576">
        <ele>202.9</ele>
        <time>2024-03-27T14:54:16Z</time>
      </trkpt>
      <trkpt lat="43.49201" lon="6.17577">
        <ele>202.9</ele>
        <time>2024-03-27T14:54:17Z</time>
      </trkpt>
      <trkpt lat="43.49202" lon="6.17577">
        <ele>202.8</ele>
        <time>2024-03-27T14:54:18Z</time>
      </trkpt>
      <trkpt lat="43.49203" lon="6.17577">
        <ele>202.8</ele>
        <time>2024-03-27T14:54:19Z</time>
      </trkpt>
      <trkpt lat="43.49205" lon="6.17577">
        <ele>202.7</ele>
        <time>2024-03-27T14:54:20Z</time>
      </trkpt>
      <trkpt lat="43.49205" lon="6.17578">
        <ele>202.7</ele>
        <time>2024-03-27T14:54:21Z</time>
      </trkpt>
      <trkpt lat="43.49206" lon="6.17579">
        <ele>202.6</ele>
        <time>2024-03-27T14:54:22Z</time>
      </trkpt>
      <trkpt lat="43.49207" lon="6.1758">
        <ele>202.6</ele>
        <time>2024-03-27T14:54:23Z</time>
      </trkpt>
      <trkpt lat="43.49208" lon="6.1758">
        <ele>202.6</ele>
        <time>2024-03-27T14:54:24Z</time>
      </trkpt>
      <trkpt lat="43.49209" lon="6.1758">
        <ele>202.7</ele>
        <time>2024-03-27T14:54:25Z</time>
      </trkpt>
      <trkpt lat="43.4921" lon="6.17581">
        <ele>202.7</ele>
        <time>2024-03-27T14:54:26Z</time>
      </trkpt>
      <trkpt lat="43.49212" lon="6.17581">
        <ele>202.7</ele>
        <time>2024-03-27T14:54:27Z</time>
      </trkpt>
      <trkpt lat="43.49213" lon="6.1758">
        <ele>202.7</ele>
        <time>2024-03-27T14:54:28Z</time>
      </trkpt>
      <trkpt lat="43.49214" lon="6.1758">
        <ele>202.8</ele>
        <time>2024-03-27T14:54:29Z</time>
      </trkpt>
      <trkpt lat="43.49215" lon="6.17581">
        <ele>202.8</ele>
        <time>2024-03-27T14:54:30Z</time>
      </trkpt>
      <trkpt lat="43.49216" lon="6.17581">
        <ele>202.8</ele>
        <time>2024-03-27T14:54:31Z</time>
      </trkpt>
      <trkpt lat="43.49217" lon="6.17581">
        <ele>202.9</ele>
        <time>2024-03-27T14:54:32Z</time>
      </trkpt>
      <trkpt lat="43.49219" lon="6.1758">
        <ele>203</ele>
        <time>2024-03-27T14:54:33Z</time>
      </trkpt>
      <trkpt lat="43.4922" lon="6.1758">
        <ele>203.1</ele>
        <time>2024-03-27T14:54:34Z</time>
      </trkpt>
      <trkpt lat="43.49221" lon="6.1758">
        <ele>203.1</ele>
        <time>2024-03-27T14:54:35Z</time>
      </trkpt>
      <trkpt lat="43.49223" lon="6.1758">
        <ele>203.2</ele>
        <time>2024-03-27T14:54:36Z</time>
      </trkpt>
      <trkpt lat="43.49224" lon="6.1758">
        <ele>203.3</ele>
        <time>2024-03-27T14:54:37Z</time>
      </trkpt>
      <trkpt lat="43.49225" lon="6.1758">
        <ele>203.3</ele>
        <time>2024-03-27T14:54:38Z</time>
      </trkpt>
      <trkpt lat="43.49226" lon="6.1758">
        <ele>203.4</ele>
        <time>2024-03-27T14:54:39Z</time>
      </trkpt>
      <trkpt lat="43.49227" lon="6.17581">
        <ele>203.3</ele>
        <time>2024-03-27T14:54:40Z</time>
      </trkpt>
      <trkpt lat="43.49228" lon="6.17582">
        <ele>203.4</ele>
        <time>2024-03-27T14:54:41Z</time>
      </trkpt>
      <trkpt lat="43.49229" lon="6.17583">
        <ele>203.4</ele>
        <time>2024-03-27T14:54:42Z</time>
      </trkpt>
      <trkpt lat="43.4923" lon="6.17583">
        <ele>203.4</ele>
        <time>2024-03-27T14:54:43Z</time>
      </trkpt>
      <trkpt lat="43.49231" lon="6.17584">
        <ele>203.4</ele>
        <time>2024-03-27T14:54:44Z</time>
      </trkpt>
      <trkpt lat="43.49232" lon="6.17585">
        <ele>203.4</ele>
        <time>2024-03-27T14:54:45Z</time>
      </trkpt>
      <trkpt lat="43.49233" lon="6.17585">
        <ele>203.4</ele>
        <time>2024-03-27T14:54:46Z</time>
      </trkpt>
      <trkpt lat="43.49234" lon="6.17586">
        <ele>203.3</ele>
        <time>2024-03-27T14:54:47Z</time>
      </trkpt>
      <trkpt lat="43.49235" lon="6.17587">
        <ele>203.2</ele>
        <time>2024-03-27T14:54:48Z</time>
      </trkpt>
      <trkpt lat="43.49236" lon="6.17588">
        <ele>203.2</ele>
        <time>2024-03-27T14:54:49Z</time>
      </trkpt>
      <trkpt lat="43.49236" lon="6.17589">
        <ele>203.2</ele>
        <time>2024-03-27T14:54:50Z</time>
      </trkpt>
      <trkpt lat="43.49237" lon="6.1759">
        <ele>203.2</ele>
        <time>2024-03-27T14:54:51Z</time>
      </trkpt>
      <trkpt lat="43.49238" lon="6.17591">
        <ele>203.2</ele>
        <time>2024-03-27T14:54:52Z</time>
      </trkpt>
      <trkpt lat="43.49239" lon="6.17591">
        <ele>203.2</ele>
        <time>2024-03-27T14:54:53Z</time>
      </trkpt>
      <trkpt lat="43.4924" lon="6.17593">
        <ele>203.1</ele>
        <time>2024-03-27T14:54:54Z</time>
      </trkpt>
      <trkpt lat="43.49241" lon="6.17593">
        <ele>203.1</ele>
        <time>2024-03-27T14:54:55Z</time>
      </trkpt>
      <trkpt lat="43.49242" lon="6.17594">
        <ele>203.1</ele>
        <time>2024-03-27T14:54:56Z</time>
      </trkpt>
      <trkpt lat="43.49243" lon="6.17595">
        <ele>202.9</ele>
        <time>2024-03-27T14:54:57Z</time>
      </trkpt>
      <trkpt lat="43.49244" lon="6.17596">
        <ele>202.8</ele>
        <time>2024-03-27T14:54:58Z</time>
      </trkpt>
      <trkpt lat="43.49245" lon="6.17597">
        <ele>202.7</ele>
        <time>2024-03-27T14:54:59Z</time>
      </trkpt>
      <trkpt lat="43.49246" lon="6.17598">
        <ele>202.6</ele>
        <time>2024-03-27T14:55:00Z</time>
      </trkpt>
      <trkpt lat="43.49246" lon="6.17599">
        <ele>202.5</ele>
        <time>2024-03-27T14:55:01Z</time>
      </trkpt>
      <trkpt lat="43.49247" lon="6.17601">
        <ele>202.5</ele>
        <time>2024-03-27T14:55:02Z</time>
      </trkpt>
      <trkpt lat="43.49248" lon="6.17602">
        <ele>202.5</ele>
        <time>2024-03-27T14:55:03Z</time>
      </trkpt>
      <trkpt lat="43.49249" lon="6.17603">
        <ele>202.4</ele>
        <time>2024-03-27T14:55:04Z</time>
      </trkpt>
      <trkpt lat="43.49249" lon="6.17604">
        <ele>202.3</ele>
        <time>2024-03-27T14:55:05Z</time>
      </trkpt>
      <trkpt lat="43.4925" lon="6.17605">
        <ele>202.2</ele>
        <time>2024-03-27T14:55:06Z</time>
      </trkpt>
      <trkpt lat="43.49251" lon="6.17606">
        <ele>202.2</ele>
        <time>2024-03-27T14:55:07Z</time>
      </trkpt>
      <trkpt lat="43.49252" lon="6.17607">
        <ele>202.1</ele>
        <time>2024-03-27T14:55:08Z</time>
      </trkpt>
      <trkpt lat="43.49253" lon="6.17608">
        <ele>202</ele>
        <time>2024-03-27T14:55:09Z</time>
      </trkpt>
      <trkpt lat="43.49254" lon="6.17609">
        <ele>201.9</ele>
        <time>2024-03-27T14:55:10Z</time>
      </trkpt>
      <trkpt lat="43.49255" lon="6.17609">
        <ele>201.7</ele>
        <time>2024-03-27T14:55:11Z</time>
      </trkpt>
      <trkpt lat="43.49255" lon="6.1761">
        <ele>201.6</ele>
        <time>2024-03-27T14:55:12Z</time>
      </trkpt>
      <trkpt lat="43.49257" lon="6.17611">
        <ele>201.4</ele>
        <time>2024-03-27T14:55:13Z</time>
      </trkpt>
      <trkpt lat="43.49258" lon="6.17612">
        <ele>201.4</ele>
        <time>2024-03-27T14:55:14Z</time>
      </trkpt>
      <trkpt lat="43.49258" lon="6.17612">
        <ele>201.4</ele>
        <time>2024-03-27T14:55:15Z</time>
      </trkpt>
      <trkpt lat="43.49259" lon="6.17613">
        <ele>201.3</ele>
        <time>2024-03-27T14:55:16Z</time>
      </trkpt>
      <trkpt lat="43.4926" lon="6.17614">
        <ele>201.3</ele>
        <time>2024-03-27T14:55:17Z</time>
      </trkpt>
      <trkpt lat="43.49261" lon="6.17615">
        <ele>201.4</ele>
        <time>2024-03-27T14:55:18Z</time>
      </trkpt>
      <trkpt lat="43.49262" lon="6.17616">
        <ele>201.4</ele>
        <time>2024-03-27T14:55:19Z</time>
      </trkpt>
      <trkpt lat="43.49263" lon="6.17617">
        <ele>201.4</ele>
        <time>2024-03-27T14:55:20Z</time>
      </trkpt>
      <trkpt lat="43.49264" lon="6.17618">
        <ele>201.4</ele>
        <time>2024-03-27T14:55:21Z</time>
      </trkpt>
      <trkpt lat="43.49265" lon="6.17619">
        <ele>201.4</ele>
        <time>2024-03-27T14:55:22Z</time>
      </trkpt>
      <trkpt lat="43.49266" lon="6.17621">
        <ele>201.4</ele>
        <time>2024-03-27T14:55:23Z</time>
      </trkpt>
      <trkpt lat="43.49267" lon="6.17621">
        <ele>201.4</ele>
        <time>2024-03-27T14:55:24Z</time>
      </trkpt>
      <trkpt lat="43.49268" lon="6.17622">
        <ele>201.4</ele>
        <time>2024-03-27T14:55:25Z</time>
      </trkpt>
      <trkpt lat="43.49269" lon="6.17623">
        <ele>201.5</ele>
        <time>2024-03-27T14:55:26Z</time>
      </trkpt>
      <trkpt lat="43.4927" lon="6.17624">
        <ele>201.6</ele>
        <time>2024-03-27T14:55:27Z</time>
      </trkpt>
      <trkpt lat="43.49271" lon="6.17625">
        <ele>201.6</ele>
        <time>2024-03-27T14:55:28Z</time>
      </trkpt>
      <trkpt lat="43.49272" lon="6.17626">
        <ele>201.6</ele>
        <time>2024-03-27T14:55:29Z</time>
      </trkpt>
      <trkpt lat="43.49272" lon="6.17627">
        <ele>201.6</ele>
        <time>2024-03-27T14:55:30Z</time>
      </trkpt>
      <trkpt lat="43.49273" lon="6.17628">
        <ele>201.6</ele>
        <time>2024-03-27T14:55:31Z</time>
      </trkpt>
      <trkpt lat="43.49274" lon="6.17629">
        <ele>201.6</ele>
        <time>2024-03-27T14:55:32Z</time>
      </trkpt>
      <trkpt lat="43.49276" lon="6.1763">
        <ele>201.6</ele>
        <time>2024-03-27T14:55:33Z</time>
      </trkpt>
      <trkpt lat="43.49277" lon="6.17631">
        <ele>201.6</ele>
        <time>2024-03-27T14:55:34Z</time>
      </trkpt>
      <trkpt lat="43.49278" lon="6.17632">
        <ele>201.6</ele>
        <time>2024-03-27T14:55:35Z</time>
      </trkpt>
      <trkpt lat="43.49279" lon="6.17633">
        <ele>201.5</ele>
        <time>2024-03-27T14:55:36Z</time>
      </trkpt>
      <trkpt lat="43.4928" lon="6.17634">
        <ele>201.5</ele>
        <time>2024-03-27T14:55:37Z</time>
      </trkpt>
      <trkpt lat="43.49281" lon="6.17635">
        <ele>201.5</ele>
        <time>2024-03-27T14:55:38Z</time>
      </trkpt>
      <trkpt lat="43.49282" lon="6.17636">
        <ele>201.4</ele>
        <time>2024-03-27T14:55:39Z</time>
      </trkpt>
      <trkpt lat="43.49283" lon="6.17637">
        <ele>201.2</ele>
        <time>2024-03-27T14:55:40Z</time>
      </trkpt>
      <trkpt lat="43.49284" lon="6.17638">
        <ele>201.1</ele>
        <time>2024-03-27T14:55:41Z</time>
      </trkpt>
      <trkpt lat="43.49285" lon="6.17639">
        <ele>201.1</ele>
        <time>2024-03-27T14:55:42Z</time>
      </trkpt>
      <trkpt lat="43.49286" lon="6.1764">
        <ele>201.1</ele>
        <time>2024-03-27T14:55:43Z</time>
      </trkpt>
      <trkpt lat="43.49287" lon="6.17641">
        <ele>201</ele>
        <time>2024-03-27T14:55:44Z</time>
      </trkpt>
      <trkpt lat="43.49289" lon="6.17642">
        <ele>201</ele>
        <time>2024-03-27T14:55:45Z</time>
      </trkpt>
      <trkpt lat="43.4929" lon="6.17643">
        <ele>200.9</ele>
        <time>2024-03-27T14:55:46Z</time>
      </trkpt>
      <trkpt lat="43.49291" lon="6.17644">
        <ele>200.9</ele>
        <time>2024-03-27T14:55:47Z</time>
      </trkpt>
      <trkpt lat="43.49292" lon="6.17644">
        <ele>200.9</ele>
        <time>2024-03-27T14:55:48Z</time>
      </trkpt>
      <trkpt lat="43.49292" lon="6.17645">
        <ele>200.9</ele>
        <time>2024-03-27T14:55:49Z</time>
      </trkpt>
      <trkpt lat="43.49293" lon="6.17646">
        <ele>200.9</ele>
        <time>2024-03-27T14:55:50Z</time>
      </trkpt>
      <trkpt lat="43.49294" lon="6.17647">
        <ele>200.9</ele>
        <time>2024-03-27T14:55:51Z</time>
      </trkpt>
      <trkpt lat="43.49296" lon="6.17647">
        <ele>200.8</ele>
        <time>2024-03-27T14:55:52Z</time>
      </trkpt>
      <trkpt lat="43.49296" lon="6.17648">
        <ele>200.8</ele>
        <time>2024-03-27T14:55:53Z</time>
      </trkpt>
      <trkpt lat="43.49297" lon="6.17649">
        <ele>200.7</ele>
        <time>2024-03-27T14:55:54Z</time>
      </trkpt>
      <trkpt lat="43.49298" lon="6.1765">
        <ele>200.7</ele>
        <time>2024-03-27T14:55:55Z</time>
      </trkpt>
      <trkpt lat="43.49299" lon="6.17652">
        <ele>200.6</ele>
        <time>2024-03-27T14:55:56Z</time>
      </trkpt>
      <trkpt lat="43.493" lon="6.17653">
        <ele>200.5</ele>
        <time>2024-03-27T14:55:57Z</time>
      </trkpt>
      <trkpt lat="43.49301" lon="6.17654">
        <ele>200.4</ele>
        <time>2024-03-27T14:55:58Z</time>
      </trkpt>
      <trkpt lat="43.49302" lon="6.17655">
        <ele>200.2</ele>
        <time>2024-03-27T14:55:59Z</time>
      </trkpt>
      <trkpt lat="43.49303" lon="6.17657">
        <ele>200.1</ele>
        <time>2024-03-27T14:56:00Z</time>
      </trkpt>
      <trkpt lat="43.49304" lon="6.17657">
        <ele>200</ele>
        <time>2024-03-27T14:56:01Z</time>
      </trkpt>
      <trkpt lat="43.49305" lon="6.17659">
        <ele>199.9</ele>
        <time>2024-03-27T14:56:02Z</time>
      </trkpt>
      <trkpt lat="43.49306" lon="6.1766">
        <ele>199.8</ele>
        <time>2024-03-27T14:56:03Z</time>
      </trkpt>
      <trkpt lat="43.49306" lon="6.17661">
        <ele>199.7</ele>
        <time>2024-03-27T14:56:04Z</time>
      </trkpt>
      <trkpt lat="43.49307" lon="6.17662">
        <ele>199.6</ele>
        <time>2024-03-27T14:56:05Z</time>
      </trkpt>
      <trkpt lat="43.49308" lon="6.17663">
        <ele>199.6</ele>
        <time>2024-03-27T14:56:06Z</time>
      </trkpt>
      <trkpt lat="43.49309" lon="6.17663">
        <ele>199.5</ele>
        <time>2024-03-27T14:56:07Z</time>
      </trkpt>
      <trkpt lat="43.4931" lon="6.17664">
        <ele>199.5</ele>
        <time>2024-03-27T14:56:08Z</time>
      </trkpt>
      <trkpt lat="43.49311" lon="6.17665">
        <ele>199.4</ele>
        <time>2024-03-27T14:56:09Z</time>
      </trkpt>
      <trkpt lat="43.49312" lon="6.17666">
        <ele>199.3</ele>
        <time>2024-03-27T14:56:10Z</time>
      </trkpt>
      <trkpt lat="43.49313" lon="6.17666">
        <ele>199.1</ele>
        <time>2024-03-27T14:56:11Z</time>
      </trkpt>
      <trkpt lat="43.49314" lon="6.17667">
        <ele>199</ele>
        <time>2024-03-27T14:56:12Z</time>
      </trkpt>
      <trkpt lat="43.49315" lon="6.17669">
        <ele>198.9</ele>
        <time>2024-03-27T14:56:13Z</time>
      </trkpt>
      <trkpt lat="43.49316" lon="6.17669">
        <ele>198.7</ele>
        <time>2024-03-27T14:56:14Z</time>
      </trkpt>
      <trkpt lat="43.49317" lon="6.1767">
        <ele>198.6</ele>
        <time>2024-03-27T14:56:15Z</time>
      </trkpt>
      <trkpt lat="43.49318" lon="6.17671">
        <ele>198.5</ele>
        <time>2024-03-27T14:56:16Z</time>
      </trkpt>
      <trkpt lat="43.49319" lon="6.17672">
        <ele>198.4</ele>
        <time>2024-03-27T14:56:17Z</time>
      </trkpt>
      <trkpt lat="43.49319" lon="6.17673">
        <ele>198.2</ele>
        <time>2024-03-27T14:56:18Z</time>
      </trkpt>
      <trkpt lat="43.4932" lon="6.17674">
        <ele>198.1</ele>
        <time>2024-03-27T14:56:19Z</time>
      </trkpt>
      <trkpt lat="43.49321" lon="6.17675">
        <ele>198</ele>
        <time>2024-03-27T14:56:20Z</time>
      </trkpt>
      <trkpt lat="43.49322" lon="6.17676">
        <ele>197.9</ele>
        <time>2024-03-27T14:56:21Z</time>
      </trkpt>
      <trkpt lat="43.49322" lon="6.17677">
        <ele>197.8</ele>
        <time>2024-03-27T14:56:22Z</time>
      </trkpt>
      <trkpt lat="43.49323" lon="6.17677">
        <ele>197.7</ele>
        <time>2024-03-27T14:56:23Z</time>
      </trkpt>
      <trkpt lat="43.49324" lon="6.17678">
        <ele>197.6</ele>
        <time>2024-03-27T14:56:24Z</time>
      </trkpt>
      <trkpt lat="43.49325" lon="6.17679">
        <ele>197.6</ele>
        <time>2024-03-27T14:56:25Z</time>
      </trkpt>
      <trkpt lat="43.49325" lon="6.1768">
        <ele>197.5</ele>
        <time>2024-03-27T14:56:26Z</time>
      </trkpt>
      <trkpt lat="43.49326" lon="6.1768">
        <ele>197.3</ele>
        <time>2024-03-27T14:56:27Z</time>
      </trkpt>
      <trkpt lat="43.49327" lon="6.1768">
        <ele>197.2</ele>
        <time>2024-03-27T14:56:28Z</time>
      </trkpt>
      <trkpt lat="43.49327" lon="6.17681">
        <ele>197</ele>
        <time>2024-03-27T14:56:29Z</time>
      </trkpt>
      <trkpt lat="43.49328" lon="6.17682">
        <ele>196.9</ele>
        <time>2024-03-27T14:56:30Z</time>
      </trkpt>
      <trkpt lat="43.49328" lon="6.17683">
        <ele>196.8</ele>
        <time>2024-03-27T14:56:31Z</time>
      </trkpt>
      <trkpt lat="43.49329" lon="6.17684">
        <ele>196.6</ele>
        <time>2024-03-27T14:56:32Z</time>
      </trkpt>
      <trkpt lat="43.49329" lon="6.17685">
        <ele>196.5</ele>
        <time>2024-03-27T14:56:33Z</time>
      </trkpt>
      <trkpt lat="43.4933" lon="6.17685">
        <ele>196.4</ele>
        <time>2024-03-27T14:56:34Z</time>
      </trkpt>
      <trkpt lat="43.49331" lon="6.17686">
        <ele>196.3</ele>
        <time>2024-03-27T14:56:35Z</time>
      </trkpt>
      <trkpt lat="43.49332" lon="6.17688">
        <ele>196.1</ele>
        <time>2024-03-27T14:56:36Z</time>
      </trkpt>
      <trkpt lat="43.49332" lon="6.17689">
        <ele>196</ele>
        <time>2024-03-27T14:56:37Z</time>
      </trkpt>
      <trkpt lat="43.49333" lon="6.1769">
        <ele>195.9</ele>
        <time>2024-03-27T14:56:38Z</time>
      </trkpt>
      <trkpt lat="43.49333" lon="6.17691">
        <ele>195.8</ele>
        <time>2024-03-27T14:56:39Z</time>
      </trkpt>
      <trkpt lat="43.49334" lon="6.17693">
        <ele>195.7</ele>
        <time>2024-03-27T14:56:40Z</time>
      </trkpt>
      <trkpt lat="43.49334" lon="6.17694">
        <ele>195.6</ele>
        <time>2024-03-27T14:56:41Z</time>
      </trkpt>
      <trkpt lat="43.49334" lon="6.17695">
        <ele>195.5</ele>
        <time>2024-03-27T14:56:42Z</time>
      </trkpt>
      <trkpt lat="43.49334" lon="6.17696">
        <ele>195.4</ele>
        <time>2024-03-27T14:56:43Z</time>
      </trkpt>
      <trkpt lat="43.49334" lon="6.17697">
        <ele>195.4</ele>
        <time>2024-03-27T14:56:44Z</time>
      </trkpt>
      <trkpt lat="43.49334" lon="6.17698">
        <ele>195.3</ele>
        <time>2024-03-27T14:56:45Z</time>
      </trkpt>
      <trkpt lat="43.49334" lon="6.17699">
        <ele>195.3</ele>
        <time>2024-03-27T14:56:46Z</time>
      </trkpt>
      <trkpt lat="43.49333" lon="6.17701">
        <ele>195.2</ele>
        <time>2024-03-27T14:56:47Z</time>
      </trkpt>
      <trkpt lat="43.49333" lon="6.17701">
        <ele>195.1</ele>
        <time>2024-03-27T14:56:48Z</time>
      </trkpt>
      <trkpt lat="43.49333" lon="6.17702">
        <ele>195.2</ele>
        <time>2024-03-27T14:56:49Z</time>
      </trkpt>
      <trkpt lat="43.49333" lon="6.17703">
        <ele>195.2</ele>
        <time>2024-03-27T14:56:50Z</time>
      </trkpt>
      <trkpt lat="43.49332" lon="6.17704">
        <ele>195.1</ele>
        <time>2024-03-27T14:56:51Z</time>
      </trkpt>
      <trkpt lat="43.49332" lon="6.17704">
        <ele>195</ele>
        <time>2024-03-27T14:56:52Z</time>
      </trkpt>
      <trkpt lat="43.49331" lon="6.17705">
        <ele>195</ele>
        <time>2024-03-27T14:56:53Z</time>
      </trkpt>
      <trkpt lat="43.4933" lon="6.17706">
        <ele>195</ele>
        <time>2024-03-27T14:56:54Z</time>
      </trkpt>
      <trkpt lat="43.49329" lon="6.17707">
        <ele>194.9</ele>
        <time>2024-03-27T14:56:55Z</time>
      </trkpt>
      <trkpt lat="43.49328" lon="6.17707">
        <ele>194.9</ele>
        <time>2024-03-27T14:56:56Z</time>
      </trkpt>
      <trkpt lat="43.49328" lon="6.17708">
        <ele>194.9</ele>
        <time>2024-03-27T14:56:57Z</time>
      </trkpt>
      <trkpt lat="43.49327" lon="6.17708">
        <ele>194.9</ele>
        <time>2024-03-27T14:56:58Z</time>
      </trkpt>
      <trkpt lat="43.49327" lon="6.17709">
        <ele>194.8</ele>
        <time>2024-03-27T14:56:59Z</time>
      </trkpt>
      <trkpt lat="43.49326" lon="6.1771">
        <ele>194.8</ele>
        <time>2024-03-27T14:57:00Z</time>
      </trkpt>
      <trkpt lat="43.49326" lon="6.17712">
        <ele>194.8</ele>
        <time>2024-03-27T14:57:01Z</time>
      </trkpt>
      <trkpt lat="43.49325" lon="6.17713">
        <ele>194.7</ele>
        <time>2024-03-27T14:57:02Z</time>
      </trkpt>
      <trkpt lat="43.49325" lon="6.17714">
        <ele>194.6</ele>
        <time>2024-03-27T14:57:03Z</time>
      </trkpt>
      <trkpt lat="43.49324" lon="6.17715">
        <ele>194.5</ele>
        <time>2024-03-27T14:57:04Z</time>
      </trkpt>
      <trkpt lat="43.49323" lon="6.17716">
        <ele>194.5</ele>
        <time>2024-03-27T14:57:05Z</time>
      </trkpt>
      <trkpt lat="43.49322" lon="6.17717">
        <ele>194.5</ele>
        <time>2024-03-27T14:57:06Z</time>
      </trkpt>
      <trkpt lat="43.49322" lon="6.17718">
        <ele>194.5</ele>
        <time>2024-03-27T14:57:07Z</time>
      </trkpt>
      <trkpt lat="43.49321" lon="6.17718">
        <ele>194.6</ele>
        <time>2024-03-27T14:57:08Z</time>
      </trkpt>
      <trkpt lat="43.49321" lon="6.1772">
        <ele>194.6</ele>
        <time>2024-03-27T14:57:09Z</time>
      </trkpt>
      <trkpt lat="43.4932" lon="6.17721">
        <ele>194.5</ele>
        <time>2024-03-27T14:57:10Z</time>
      </trkpt>
      <trkpt lat="43.4932" lon="6.17722">
        <ele>194.6</ele>
        <time>2024-03-27T14:57:11Z</time>
      </trkpt>
      <trkpt lat="43.49319" lon="6.17723">
        <ele>194.6</ele>
        <time>2024-03-27T14:57:12Z</time>
      </trkpt>
      <trkpt lat="43.49318" lon="6.17724">
        <ele>194.5</ele>
        <time>2024-03-27T14:57:13Z</time>
      </trkpt>
      <trkpt lat="43.49318" lon="6.17725">
        <ele>194.4</ele>
        <time>2024-03-27T14:57:14Z</time>
      </trkpt>
      <trkpt lat="43.49317" lon="6.17726">
        <ele>194.3</ele>
        <time>2024-03-27T14:57:15Z</time>
      </trkpt>
      <trkpt lat="43.49316" lon="6.17727">
        <ele>194.2</ele>
        <time>2024-03-27T14:57:16Z</time>
      </trkpt>
      <trkpt lat="43.49316" lon="6.17729">
        <ele>194.2</ele>
        <time>2024-03-27T14:57:17Z</time>
      </trkpt>
      <trkpt lat="43.49315" lon="6.1773">
        <ele>194.1</ele>
        <time>2024-03-27T14:57:18Z</time>
      </trkpt>
      <trkpt lat="43.49315" lon="6.17731">
        <ele>194.1</ele>
        <time>2024-03-27T14:57:19Z</time>
      </trkpt>
      <trkpt lat="43.49314" lon="6.17732">
        <ele>194.1</ele>
        <time>2024-03-27T14:57:20Z</time>
      </trkpt>
      <trkpt lat="43.49313" lon="6.17732">
        <ele>194.1</ele>
        <time>2024-03-27T14:57:21Z</time>
      </trkpt>
      <trkpt lat="43.49312" lon="6.17733">
        <ele>194.1</ele>
        <time>2024-03-27T14:57:22Z</time>
      </trkpt>
      <trkpt lat="43.49311" lon="6.17734">
        <ele>194.1</ele>
        <time>2024-03-27T14:57:23Z</time>
      </trkpt>
      <trkpt lat="43.4931" lon="6.17735">
        <ele>194</ele>
        <time>2024-03-27T14:57:24Z</time>
      </trkpt>
      <trkpt lat="43.4931" lon="6.17736">
        <ele>193.9</ele>
        <time>2024-03-27T14:57:25Z</time>
      </trkpt>
      <trkpt lat="43.49309" lon="6.17737">
        <ele>193.8</ele>
        <time>2024-03-27T14:57:26Z</time>
      </trkpt>
      <trkpt lat="43.49308" lon="6.17739">
        <ele>193.7</ele>
        <time>2024-03-27T14:57:27Z</time>
      </trkpt>
      <trkpt lat="43.49308" lon="6.17739">
        <ele>193.6</ele>
        <time>2024-03-27T14:57:28Z</time>
      </trkpt>
      <trkpt lat="43.49307" lon="6.1774">
        <ele>193.5</ele>
        <time>2024-03-27T14:57:29Z</time>
      </trkpt>
      <trkpt lat="43.49306" lon="6.17742">
        <ele>193.4</ele>
        <time>2024-03-27T14:57:30Z</time>
      </trkpt>
      <trkpt lat="43.49305" lon="6.17743">
        <ele>193.3</ele>
        <time>2024-03-27T14:57:31Z</time>
      </trkpt>
      <trkpt lat="43.49305" lon="6.17744">
        <ele>193.2</ele>
        <time>2024-03-27T14:57:32Z</time>
      </trkpt>
      <trkpt lat="43.49304" lon="6.17745">
        <ele>193.1</ele>
        <time>2024-03-27T14:57:33Z</time>
      </trkpt>
      <trkpt lat="43.49304" lon="6.17746">
        <ele>193</ele>
        <time>2024-03-27T14:57:34Z</time>
      </trkpt>
      <trkpt lat="43.49303" lon="6.17747">
        <ele>193</ele>
        <time>2024-03-27T14:57:35Z</time>
      </trkpt>
      <trkpt lat="43.49303" lon="6.17748">
        <ele>192.9</ele>
        <time>2024-03-27T14:57:36Z</time>
      </trkpt>
      <trkpt lat="43.49302" lon="6.17749">
        <ele>192.7</ele>
        <time>2024-03-27T14:57:37Z</time>
      </trkpt>
      <trkpt lat="43.49301" lon="6.1775">
        <ele>192.5</ele>
        <time>2024-03-27T14:57:38Z</time>
      </trkpt>
      <trkpt lat="43.493" lon="6.17751">
        <ele>192.4</ele>
        <time>2024-03-27T14:57:39Z</time>
      </trkpt>
      <trkpt lat="43.49299" lon="6.17752">
        <ele>192.3</ele>
        <time>2024-03-27T14:57:40Z</time>
      </trkpt>
      <trkpt lat="43.49298" lon="6.17754">
        <ele>192.2</ele>
        <time>2024-03-27T14:57:41Z</time>
      </trkpt>
      <trkpt lat="43.49297" lon="6.17755">
        <ele>192.2</ele>
        <time>2024-03-27T14:57:42Z</time>
      </trkpt>
      <trkpt lat="43.49297" lon="6.17756">
        <ele>192.2</ele>
        <time>2024-03-27T14:57:43Z</time>
      </trkpt>
      <trkpt lat="43.49296" lon="6.17758">
        <ele>192.2</ele>
        <time>2024-03-27T14:57:44Z</time>
      </trkpt>
      <trkpt lat="43.49295" lon="6.17759">
        <ele>192.2</ele>
        <time>2024-03-27T14:57:45Z</time>
      </trkpt>
      <trkpt lat="43.49295" lon="6.17761">
        <ele>192.2</ele>
        <time>2024-03-27T14:57:46Z</time>
      </trkpt>
      <trkpt lat="43.49294" lon="6.17762">
        <ele>192.2</ele>
        <time>2024-03-27T14:57:47Z</time>
      </trkpt>
      <trkpt lat="43.49293" lon="6.17763">
        <ele>192.2</ele>
        <time>2024-03-27T14:57:48Z</time>
      </trkpt>
      <trkpt lat="43.49292" lon="6.17764">
        <ele>192.2</ele>
        <time>2024-03-27T14:57:49Z</time>
      </trkpt>
      <trkpt lat="43.49291" lon="6.17766">
        <ele>192.2</ele>
        <time>2024-03-27T14:57:50Z</time>
      </trkpt>
      <trkpt lat="43.4929" lon="6.17767">
        <ele>192.2</ele>
        <time>2024-03-27T14:57:51Z</time>
      </trkpt>
      <trkpt lat="43.4929" lon="6.17769">
        <ele>192.2</ele>
        <time>2024-03-27T14:57:52Z</time>
      </trkpt>
      <trkpt lat="43.49289" lon="6.1777">
        <ele>192.2</ele>
        <time>2024-03-27T14:57:53Z</time>
      </trkpt>
      <trkpt lat="43.49288" lon="6.17771">
        <ele>192.2</ele>
        <time>2024-03-27T14:57:54Z</time>
      </trkpt>
      <trkpt lat="43.49288" lon="6.17773">
        <ele>192.2</ele>
        <time>2024-03-27T14:57:55Z</time>
      </trkpt>
      <trkpt lat="43.49286" lon="6.17774">
        <ele>192.2</ele>
        <time>2024-03-27T14:57:56Z</time>
      </trkpt>
      <trkpt lat="43.49286" lon="6.17775">
        <ele>192.2</ele>
        <time>2024-03-27T14:57:57Z</time>
      </trkpt>
      <trkpt lat="43.49285" lon="6.17776">
        <ele>192.1</ele>
        <time>2024-03-27T14:57:58Z</time>
      </trkpt>
      <trkpt lat="43.49284" lon="6.17777">
        <ele>192.1</ele>
        <time>2024-03-27T14:57:59Z</time>
      </trkpt>
      <trkpt lat="43.49284" lon="6.17778">
        <ele>192.1</ele>
        <time>2024-03-27T14:58:00Z</time>
      </trkpt>
      <trkpt lat="43.49283" lon="6.1778">
        <ele>192</ele>
        <time>2024-03-27T14:58:01Z</time>
      </trkpt>
      <trkpt lat="43.49282" lon="6.17781">
        <ele>192</ele>
        <time>2024-03-27T14:58:02Z</time>
      </trkpt>
      <trkpt lat="43.49281" lon="6.17783">
        <ele>192</ele>
        <time>2024-03-27T14:58:03Z</time>
      </trkpt>
      <trkpt lat="43.4928" lon="6.17784">
        <ele>192</ele>
        <time>2024-03-27T14:58:04Z</time>
      </trkpt>
      <trkpt lat="43.4928" lon="6.17785">
        <ele>192</ele>
        <time>2024-03-27T14:58:05Z</time>
      </trkpt>
      <trkpt lat="43.49279" lon="6.17786">
        <ele>192.1</ele>
        <time>2024-03-27T14:58:06Z</time>
      </trkpt>
      <trkpt lat="43.49278" lon="6.17787">
        <ele>192.1</ele>
        <time>2024-03-27T14:58:07Z</time>
      </trkpt>
      <trkpt lat="43.49277" lon="6.17789">
        <ele>192.1</ele>
        <time>2024-03-27T14:58:08Z</time>
      </trkpt>
      <trkpt lat="43.49277" lon="6.1779">
        <ele>192.2</ele>
        <time>2024-03-27T14:58:09Z</time>
      </trkpt>
      <trkpt lat="43.49276" lon="6.17791">
        <ele>192.2</ele>
        <time>2024-03-27T14:58:10Z</time>
      </trkpt>
      <trkpt lat="43.49275" lon="6.17792">
        <ele>192.2</ele>
        <time>2024-03-27T14:58:11Z</time>
      </trkpt>
      <trkpt lat="43.49274" lon="6.17794">
        <ele>192.1</ele>
        <time>2024-03-27T14:58:12Z</time>
      </trkpt>
      <trkpt lat="43.49273" lon="6.17795">
        <ele>192.1</ele>
        <time>2024-03-27T14:58:13Z</time>
      </trkpt>
      <trkpt lat="43.49272" lon="6.17796">
        <ele>192</ele>
        <time>2024-03-27T14:58:14Z</time>
      </trkpt>
      <trkpt lat="43.49271" lon="6.17798">
        <ele>191.9</ele>
        <time>2024-03-27T14:58:15Z</time>
      </trkpt>
      <trkpt lat="43.4927" lon="6.17799">
        <ele>191.8</ele>
        <time>2024-03-27T14:58:16Z</time>
      </trkpt>
      <trkpt lat="43.4927" lon="6.178">
        <ele>191.7</ele>
        <time>2024-03-27T14:58:17Z</time>
      </trkpt>
      <trkpt lat="43.49269" lon="6.17801">
        <ele>191.6</ele>
        <time>2024-03-27T14:58:18Z</time>
      </trkpt>
      <trkpt lat="43.49268" lon="6.17803">
        <ele>191.6</ele>
        <time>2024-03-27T14:58:19Z</time>
      </trkpt>
      <trkpt lat="43.49268" lon="6.17804">
        <ele>191.5</ele>
        <time>2024-03-27T14:58:20Z</time>
      </trkpt>
      <trkpt lat="43.49268" lon="6.17806">
        <ele>191.5</ele>
        <time>2024-03-27T14:58:21Z</time>
      </trkpt>
      <trkpt lat="43.49267" lon="6.17807">
        <ele>191.4</ele>
        <time>2024-03-27T14:58:22Z</time>
      </trkpt>
      <trkpt lat="43.49266" lon="6.17808">
        <ele>191.4</ele>
        <time>2024-03-27T14:58:23Z</time>
      </trkpt>
      <trkpt lat="43.49265" lon="6.1781">
        <ele>191.3</ele>
        <time>2024-03-27T14:58:24Z</time>
      </trkpt>
      <trkpt lat="43.49265" lon="6.17812">
        <ele>191.2</ele>
        <time>2024-03-27T14:58:25Z</time>
      </trkpt>
      <trkpt lat="43.49264" lon="6.17814">
        <ele>191</ele>
        <time>2024-03-27T14:58:26Z</time>
      </trkpt>
      <trkpt lat="43.49264" lon="6.17816">
        <ele>190.9</ele>
        <time>2024-03-27T14:58:27Z</time>
      </trkpt>
      <trkpt lat="43.49265" lon="6.17819">
        <ele>190.9</ele>
        <time>2024-03-27T14:58:28Z</time>
      </trkpt>
      <trkpt lat="43.49266" lon="6.17822">
        <ele>190.9</ele>
        <time>2024-03-27T14:58:29Z</time>
      </trkpt>
      <trkpt lat="43.49266" lon="6.17823">
        <ele>190.9</ele>
        <time>2024-03-27T14:58:30Z</time>
      </trkpt>
      <trkpt lat="43.49266" lon="6.17824">
        <ele>190.8</ele>
        <time>2024-03-27T14:58:31Z</time>
      </trkpt>
      <trkpt lat="43.49267" lon="6.17825">
        <ele>190.8</ele>
        <time>2024-03-27T14:58:32Z</time>
      </trkpt>
      <trkpt lat="43.49268" lon="6.17827">
        <ele>190.8</ele>
        <time>2024-03-27T14:58:33Z</time>
      </trkpt>
      <trkpt lat="43.49268" lon="6.17827">
        <ele>190.8</ele>
        <time>2024-03-27T14:58:34Z</time>
      </trkpt>
      <trkpt lat="43.49268" lon="6.17828">
        <ele>190.7</ele>
        <time>2024-03-27T14:58:35Z</time>
      </trkpt>
      <trkpt lat="43.49268" lon="6.17828">
        <ele>190.7</ele>
        <time>2024-03-27T14:58:36Z</time>
      </trkpt>
      <trkpt lat="43.49269" lon="6.17828">
        <ele>190.7</ele>
        <time>2024-03-27T14:58:37Z</time>
      </trkpt>
      <trkpt lat="43.49269" lon="6.17829">
        <ele>190.7</ele>
        <time>2024-03-27T14:58:38Z</time>
      </trkpt>
      <trkpt lat="43.49269" lon="6.17829">
        <ele>190.8</ele>
        <time>2024-03-27T14:58:39Z</time>
      </trkpt>
      <trkpt lat="43.49269" lon="6.1783">
        <ele>190.8</ele>
        <time>2024-03-27T14:58:40Z</time>
      </trkpt>
      <trkpt lat="43.49269" lon="6.1783">
        <ele>190.8</ele>
        <time>2024-03-27T14:58:41Z</time>
      </trkpt>
      <trkpt lat="43.49269" lon="6.1783">
        <ele>190.8</ele>
        <time>2024-03-27T14:58:42Z</time>
      </trkpt>
      <trkpt lat="43.49269" lon="6.1783">
        <ele>190.8</ele>
        <time>2024-03-27T14:58:43Z</time>
      </trkpt>
      <trkpt lat="43.4927" lon="6.17831">
        <ele>190.8</ele>
        <time>2024-03-27T14:58:44Z</time>
      </trkpt>
      <trkpt lat="43.4927" lon="6.1783">
        <ele>190.9</ele>
        <time>2024-03-27T14:58:45Z</time>
      </trkpt>
      <trkpt lat="43.4927" lon="6.1783">
        <ele>190.9</ele>
        <time>2024-03-27T14:58:46Z</time>
      </trkpt>
      <trkpt lat="43.4927" lon="6.1783">
        <ele>190.9</ele>
        <time>2024-03-27T14:58:47Z</time>
      </trkpt>
      <trkpt lat="43.4927" lon="6.17831">
        <ele>190.9</ele>
        <time>2024-03-27T14:58:48Z</time>
      </trkpt>
      <trkpt lat="43.49269" lon="6.17831">
        <ele>190.9</ele>
        <time>2024-03-27T14:58:49Z</time>
      </trkpt>
      <trkpt lat="43.49269" lon="6.17831">
        <ele>190.9</ele>
        <time>2024-03-27T14:58:50Z</time>
      </trkpt>
      <trkpt lat="43.4927" lon="6.17831">
        <ele>190.9</ele>
        <time>2024-03-27T14:58:51Z</time>
      </trkpt>
      <trkpt lat="43.49269" lon="6.17831">
        <ele>190.9</ele>
        <time>2024-03-27T14:58:52Z</time>
      </trkpt>
      <trkpt lat="43.49269" lon="6.17831">
        <ele>190.9</ele>
        <time>2024-03-27T14:58:53Z</time>
      </trkpt>
      <trkpt lat="43.49269" lon="6.17831">
        <ele>190.9</ele>
        <time>2024-03-27T14:58:54Z</time>
      </trkpt>
      <trkpt lat="43.49269" lon="6.17832">
        <ele>190.9</ele>
        <time>2024-03-27T14:58:55Z</time>
      </trkpt>
      <trkpt lat="43.49269" lon="6.17832">
        <ele>190.8</ele>
        <time>2024-03-27T14:58:56Z</time>
      </trkpt>
      <trkpt lat="43.49269" lon="6.17833">
        <ele>190.9</ele>
        <time>2024-03-27T14:58:57Z</time>
      </trkpt>
      <trkpt lat="43.49269" lon="6.17833">
        <ele>190.9</ele>
        <time>2024-03-27T14:58:58Z</time>
      </trkpt>
      <trkpt lat="43.49269" lon="6.17833">
        <ele>190.9</ele>
        <time>2024-03-27T14:58:59Z</time>
      </trkpt>
      <trkpt lat="43.49269" lon="6.17834">
        <ele>190.9</ele>
        <time>2024-03-27T14:59:00Z</time>
      </trkpt>
      <trkpt lat="43.49269" lon="6.17834">
        <ele>191</ele>
        <time>2024-03-27T14:59:01Z</time>
      </trkpt>
      <trkpt lat="43.49269" lon="6.17834">
        <ele>190.9</ele>
        <time>2024-03-27T14:59:02Z</time>
      </trkpt>
      <trkpt lat="43.49269" lon="6.17835">
        <ele>191</ele>
        <time>2024-03-27T14:59:03Z</time>
      </trkpt>
      <trkpt lat="43.49269" lon="6.17835">
        <ele>191.1</ele>
        <time>2024-03-27T14:59:04Z</time>
      </trkpt>
      <trkpt lat="43.4927" lon="6.17835">
        <ele>191.1</ele>
        <time>2024-03-27T14:59:05Z</time>
      </trkpt>
      <trkpt lat="43.49269" lon="6.17836">
        <ele>191.1</ele>
        <time>2024-03-27T14:59:06Z</time>
      </trkpt>
      <trkpt lat="43.4927" lon="6.17836">
        <ele>191.1</ele>
        <time>2024-03-27T14:59:07Z</time>
      </trkpt>
      <trkpt lat="43.4927" lon="6.17836">
        <ele>191.2</ele>
        <time>2024-03-27T14:59:08Z</time>
      </trkpt>
      <trkpt lat="43.49269" lon="6.17836">
        <ele>191.2</ele>
        <time>2024-03-27T14:59:09Z</time>
      </trkpt>
      <trkpt lat="43.49269" lon="6.17837">
        <ele>191.3</ele>
        <time>2024-03-27T14:59:10Z</time>
      </trkpt>
      <trkpt lat="43.49269" lon="6.17837">
        <ele>191.3</ele>
        <time>2024-03-27T14:59:11Z</time>
      </trkpt>
      <trkpt lat="43.49269" lon="6.17837">
        <ele>191.3</ele>
        <time>2024-03-27T14:59:12Z</time>
      </trkpt>
      <trkpt lat="43.49269" lon="6.17837">
        <ele>191.3</ele>
        <time>2024-03-27T14:59:13Z</time>
      </trkpt>
      <trkpt lat="43.49269" lon="6.17837">
        <ele>191.3</ele>
        <time>2024-03-27T14:59:14Z</time>
      </trkpt>
      <trkpt lat="43.49269" lon="6.17837">
        <ele>191.3</ele>
        <time>2024-03-27T14:59:15Z</time>
      </trkpt>
      <trkpt lat="43.49269" lon="6.17838">
        <ele>191.4</ele>
        <time>2024-03-27T14:59:16Z</time>
      </trkpt>
      <trkpt lat="43.49268" lon="6.17838">
        <ele>191.4</ele>
        <time>2024-03-27T14:59:17Z</time>
      </trkpt>
      <trkpt lat="43.49268" lon="6.17838">
        <ele>191.5</ele>
        <time>2024-03-27T14:59:18Z</time>
      </trkpt>
      <trkpt lat="43.49268" lon="6.17838">
        <ele>191.5</ele>
        <time>2024-03-27T14:59:19Z</time>
      </trkpt>
      <trkpt lat="43.49268" lon="6.17838">
        <ele>191.6</ele>
        <time>2024-03-27T14:59:20Z</time>
      </trkpt>
      <trkpt lat="43.49267" lon="6.17839">
        <ele>191.6</ele>
        <time>2024-03-27T14:59:21Z</time>
      </trkpt>
      <trkpt lat="43.49267" lon="6.17839">
        <ele>191.6</ele>
        <time>2024-03-27T14:59:22Z</time>
      </trkpt>
      <trkpt lat="43.49267" lon="6.17839">
        <ele>191.6</ele>
        <time>2024-03-27T14:59:23Z</time>
      </trkpt>
      <trkpt lat="43.49267" lon="6.17838">
        <ele>191.5</ele>
        <time>2024-03-27T14:59:24Z</time>
      </trkpt>
      <trkpt lat="43.49267" lon="6.17838">
        <ele>191.5</ele>
        <time>2024-03-27T14:59:25Z</time>
      </trkpt>
      <trkpt lat="43.49267" lon="6.17839">
        <ele>191.4</ele>
        <time>2024-03-27T14:59:26Z</time>
      </trkpt>
      <trkpt lat="43.49267" lon="6.17839">
        <ele>191.4</ele>
        <time>2024-03-27T14:59:27Z</time>
      </trkpt>
      <trkpt lat="43.49267" lon="6.17839">
        <ele>191.4</ele>
        <time>2024-03-27T14:59:28Z</time>
      </trkpt>
      <trkpt lat="43.49267" lon="6.17839">
        <ele>191.4</ele>
        <time>2024-03-27T14:59:29Z</time>
      </trkpt>
      <trkpt lat="43.49267" lon="6.17839">
        <ele>191.5</ele>
        <time>2024-03-27T14:59:30Z</time>
      </trkpt>
      <trkpt lat="43.49268" lon="6.17838">
        <ele>191.5</ele>
        <time>2024-03-27T14:59:31Z</time>
      </trkpt>
      <trkpt lat="43.49268" lon="6.17838">
        <ele>191.5</ele>
        <time>2024-03-27T14:59:32Z</time>
      </trkpt>
      <trkpt lat="43.49268" lon="6.17838">
        <ele>191.5</ele>
        <time>2024-03-27T14:59:33Z</time>
      </trkpt>
      <trkpt lat="43.49268" lon="6.17839">
        <ele>191.5</ele>
        <time>2024-03-27T14:59:34Z</time>
      </trkpt>
      <trkpt lat="43.49268" lon="6.17839">
        <ele>191.5</ele>
        <time>2024-03-27T14:59:35Z</time>
      </trkpt>
      <trkpt lat="43.49268" lon="6.17839">
        <ele>191.5</ele>
        <time>2024-03-27T14:59:36Z</time>
      </trkpt>
      <trkpt lat="43.49268" lon="6.17839">
        <ele>191.5</ele>
        <time>2024-03-27T14:59:37Z</time>
      </trkpt>
      <trkpt lat="43.49268" lon="6.17839">
        <ele>191.5</ele>
        <time>2024-03-27T14:59:38Z</time>
      </trkpt>
      <trkpt lat="43.49268" lon="6.17839">
        <ele>191.5</ele>
        <time>2024-03-27T14:59:39Z</time>
      </trkpt>
      <trkpt lat="43.49268" lon="6.17839">
        <ele>191.5</ele>
        <time>2024-03-27T14:59:40Z</time>
      </trkpt>
      <trkpt lat="43.49268" lon="6.17839">
        <ele>191.5</ele>
        <time>2024-03-27T14:59:41Z</time>
      </trkpt>
      <trkpt lat="43.49268" lon="6.17839">
        <ele>191.5</ele>
        <time>2024-03-27T14:59:42Z</time>
      </trkpt>
      <trkpt lat="43.49268" lon="6.17839">
        <ele>191.5</ele>
        <time>2024-03-27T14:59:43Z</time>
      </trkpt>
      <trkpt lat="43.49268" lon="6.1784">
        <ele>191.5</ele>
        <time>2024-03-27T14:59:44Z</time>
      </trkpt>
      <trkpt lat="43.49268" lon="6.1784">
        <ele>191.5</ele>
        <time>2024-03-27T14:59:45Z</time>
      </trkpt>
      <trkpt lat="43.49268" lon="6.1784">
        <ele>191.5</ele>
        <time>2024-03-27T14:59:46Z</time>
      </trkpt>
      <trkpt lat="43.49268" lon="6.1784">
        <ele>191.6</ele>
        <time>2024-03-27T14:59:47Z</time>
      </trkpt>
      <trkpt lat="43.49268" lon="6.1784">
        <ele>191.6</ele>
        <time>2024-03-27T14:59:48Z</time>
      </trkpt>
      <trkpt lat="43.49268" lon="6.1784">
        <ele>191.7</ele>
        <time>2024-03-27T14:59:49Z</time>
      </trkpt>
      <trkpt lat="43.49268" lon="6.1784">
        <ele>191.7</ele>
        <time>2024-03-27T14:59:50Z</time>
      </trkpt>
      <trkpt lat="43.49268" lon="6.1784">
        <ele>191.6</ele>
        <time>2024-03-27T14:59:51Z</time>
      </trkpt>
      <trkpt lat="43.49268" lon="6.1784">
        <ele>191.6</ele>
        <time>2024-03-27T14:59:52Z</time>
      </trkpt>
      <trkpt lat="43.49268" lon="6.1784">
        <ele>191.5</ele>
        <time>2024-03-27T14:59:53Z</time>
      </trkpt>
      <trkpt lat="43.49268" lon="6.1784">
        <ele>191.5</ele>
        <time>2024-03-27T14:59:54Z</time>
      </trkpt>
      <trkpt lat="43.49268" lon="6.1784">
        <ele>191.5</ele>
        <time>2024-03-27T14:59:55Z</time>
      </trkpt>
      <trkpt lat="43.49268" lon="6.1784">
        <ele>191.5</ele>
        <time>2024-03-27T14:59:56Z</time>
      </trkpt>
      <trkpt lat="43.49269" lon="6.1784">
        <ele>191.4</ele>
        <time>2024-03-27T14:59:57Z</time>
      </trkpt>
      <trkpt lat="43.49269" lon="6.17839">
        <ele>191.4</ele>
        <time>2024-03-27T14:59:58Z</time>
      </trkpt>
      <trkpt lat="43.49269" lon="6.17839">
        <ele>191.3</ele>
        <time>2024-03-27T14:59:59Z</time>
      </trkpt>
      <trkpt lat="43.49269" lon="6.17839">
        <ele>191.3</ele>
        <time>2024-03-27T15:00:00Z</time>
      </trkpt>
      <trkpt lat="43.4927" lon="6.17839">
        <ele>191.3</ele>
        <time>2024-03-27T15:00:01Z</time>
      </trkpt>
      <trkpt lat="43.4927" lon="6.17839">
        <ele>191.3</ele>
        <time>2024-03-27T15:00:02Z</time>
      </trkpt>
      <trkpt lat="43.4927" lon="6.17839">
        <ele>191.3</ele>
        <time>2024-03-27T15:00:03Z</time>
      </trkpt>
      <trkpt lat="43.4927" lon="6.17839">
        <ele>191.3</ele>
        <time>2024-03-27T15:00:04Z</time>
      </trkpt>
      <trkpt lat="43.4927" lon="6.17839">
        <ele>191.4</ele>
        <time>2024-03-27T15:00:05Z</time>
      </trkpt>
      <trkpt lat="43.49271" lon="6.17839">
        <ele>191.4</ele>
        <time>2024-03-27T15:00:06Z</time>
      </trkpt>
      <trkpt lat="43.49271" lon="6.17839">
        <ele>191.5</ele>
        <time>2024-03-27T15:00:07Z</time>
      </trkpt>
      <trkpt lat="43.49271" lon="6.17839">
        <ele>191.5</ele>
        <time>2024-03-27T15:00:08Z</time>
      </trkpt>
      <trkpt lat="43.49271" lon="6.17839">
        <ele>191.5</ele>
        <time>2024-03-27T15:00:09Z</time>
      </trkpt>
      <trkpt lat="43.49271" lon="6.17839">
        <ele>191.5</ele>
        <time>2024-03-27T15:00:10Z</time>
      </trkpt>
      <trkpt lat="43.49271" lon="6.17839">
        <ele>191.6</ele>
        <time>2024-03-27T15:00:11Z</time>
      </trkpt>
      <trkpt lat="43.4927" lon="6.17839">
        <ele>191.6</ele>
        <time>2024-03-27T15:00:12Z</time>
      </trkpt>
      <trkpt lat="43.4927" lon="6.17839">
        <ele>191.7</ele>
        <time>2024-03-27T15:00:13Z</time>
      </trkpt>
      <trkpt lat="43.4927" lon="6.17839">
        <ele>191.7</ele>
        <time>2024-03-27T15:00:14Z</time>
      </trkpt>
      <trkpt lat="43.4927" lon="6.1784">
        <ele>191.7</ele>
        <time>2024-03-27T15:00:15Z</time>
      </trkpt>
      <trkpt lat="43.4927" lon="6.1784">
        <ele>191.7</ele>
        <time>2024-03-27T15:00:16Z</time>
      </trkpt>
      <trkpt lat="43.4927" lon="6.1784">
        <ele>191.7</ele>
        <time>2024-03-27T15:00:17Z</time>
      </trkpt>
      <trkpt lat="43.4927" lon="6.1784">
        <ele>191.7</ele>
        <time>2024-03-27T15:00:18Z</time>
      </trkpt>
      <trkpt lat="43.49269" lon="6.1784">
        <ele>191.7</ele>
        <time>2024-03-27T15:00:19Z</time>
      </trkpt>
      <trkpt lat="43.49269" lon="6.1784">
        <ele>191.7</ele>
        <time>2024-03-27T15:00:20Z</time>
      </trkpt>
      <trkpt lat="43.49269" lon="6.17841">
        <ele>191.7</ele>
        <time>2024-03-27T15:00:21Z</time>
      </trkpt>
      <trkpt lat="43.49269" lon="6.17841">
        <ele>191.7</ele>
        <time>2024-03-27T15:00:22Z</time>
      </trkpt>
      <trkpt lat="43.49269" lon="6.17841">
        <ele>191.7</ele>
        <time>2024-03-27T15:00:23Z</time>
      </trkpt>
      <trkpt lat="43.49269" lon="6.17841">
        <ele>191.7</ele>
        <time>2024-03-27T15:00:24Z</time>
      </trkpt>
      <trkpt lat="43.49269" lon="6.17841">
        <ele>191.8</ele>
        <time>2024-03-27T15:00:25Z</time>
      </trkpt>
      <trkpt lat="43.49269" lon="6.17841">
        <ele>191.8</ele>
        <time>2024-03-27T15:00:26Z</time>
      </trkpt>
      <trkpt lat="43.49269" lon="6.17841">
        <ele>191.8</ele>
        <time>2024-03-27T15:00:27Z</time>
      </trkpt>
      <trkpt lat="43.49269" lon="6.17841">
        <ele>191.8</ele>
        <time>2024-03-27T15:00:28Z</time>
      </trkpt>
      <trkpt lat="43.49269" lon="6.17841">
        <ele>191.8</ele>
        <time>2024-03-27T15:00:29Z</time>
      </trkpt>
      <trkpt lat="43.49269" lon="6.17841">
        <ele>191.9</ele>
        <time>2024-03-27T15:00:30Z</time>
      </trkpt>
      <trkpt lat="43.49269" lon="6.17841">
        <ele>192</ele>
        <time>2024-03-27T15:00:31Z</time>
      </trkpt>
      <trkpt lat="43.49269" lon="6.17841">
        <ele>192</ele>
        <time>2024-03-27T15:00:32Z</time>
      </trkpt>
      <trkpt lat="43.49269" lon="6.17841">
        <ele>192.1</ele>
        <time>2024-03-27T15:00:33Z</time>
      </trkpt>
      <trkpt lat="43.49268" lon="6.17841">
        <ele>192.1</ele>
        <time>2024-03-27T15:00:34Z</time>
      </trkpt>
      <trkpt lat="43.49268" lon="6.17841">
        <ele>192.1</ele>
        <time>2024-03-27T15:00:35Z</time>
      </trkpt>
      <trkpt lat="43.49268" lon="6.17841">
        <ele>192</ele>
        <time>2024-03-27T15:00:36Z</time>
      </trkpt>
      <trkpt lat="43.49268" lon="6.17841">
        <ele>192</ele>
        <time>2024-03-27T15:00:37Z</time>
      </trkpt>
      <trkpt lat="43.49268" lon="6.17841">
        <ele>191.9</ele>
        <time>2024-03-27T15:00:38Z</time>
      </trkpt>
      <trkpt lat="43.49268" lon="6.17841">
        <ele>191.8</ele>
        <time>2024-03-27T15:00:39Z</time>
      </trkpt>
      <trkpt lat="43.49268" lon="6.17841">
        <ele>191.7</ele>
        <time>2024-03-27T15:00:40Z</time>
      </trkpt>
      <trkpt lat="43.49268" lon="6.17841">
        <ele>191.7</ele>
        <time>2024-03-27T15:00:41Z</time>
      </trkpt>
      <trkpt lat="43.49268" lon="6.17841">
        <ele>191.6</ele>
        <time>2024-03-27T15:00:42Z</time>
      </trkpt>
      <trkpt lat="43.49268" lon="6.17841">
        <ele>191.4</ele>
        <time>2024-03-27T15:00:43Z</time>
      </trkpt>
      <trkpt lat="43.49268" lon="6.17841">
        <ele>191.4</ele>
        <time>2024-03-27T15:00:44Z</time>
      </trkpt>
      <trkpt lat="43.49268" lon="6.17841">
        <ele>191.5</ele>
        <time>2024-03-27T15:00:45Z</time>
      </trkpt>
      <trkpt lat="43.49267" lon="6.17841">
        <ele>191.5</ele>
        <time>2024-03-27T15:00:46Z</time>
      </trkpt>
      <trkpt lat="43.49267" lon="6.17841">
        <ele>191.5</ele>
        <time>2024-03-27T15:00:47Z</time>
      </trkpt>
      <trkpt lat="43.49268" lon="6.17841">
        <ele>191.4</ele>
        <time>2024-03-27T15:00:48Z</time>
      </trkpt>
      <trkpt lat="43.49267" lon="6.17842">
        <ele>191.3</ele>
        <time>2024-03-27T15:00:49Z</time>
      </trkpt>
      <trkpt lat="43.49267" lon="6.17842">
        <ele>191.4</ele>
        <time>2024-03-27T15:00:50Z</time>
      </trkpt>
      <trkpt lat="43.49267" lon="6.17842">
        <ele>191.3</ele>
        <time>2024-03-27T15:00:51Z</time>
      </trkpt>
      <trkpt lat="43.49268" lon="6.17842">
        <ele>191.3</ele>
        <time>2024-03-27T15:00:52Z</time>
      </trkpt>
      <trkpt lat="43.49268" lon="6.17842">
        <ele>191.3</ele>
        <time>2024-03-27T15:00:53Z</time>
      </trkpt>
      <trkpt lat="43.49268" lon="6.17842">
        <ele>191.3</ele>
        <time>2024-03-27T15:00:54Z</time>
      </trkpt>
      <trkpt lat="43.49268" lon="6.17842">
        <ele>191.3</ele>
        <time>2024-03-27T15:00:55Z</time>
      </trkpt>
      <trkpt lat="43.49268" lon="6.17842">
        <ele>191.4</ele>
        <time>2024-03-27T15:00:56Z</time>
      </trkpt>
      <trkpt lat="43.49268" lon="6.17842">
        <ele>191.4</ele>
        <time>2024-03-27T15:00:57Z</time>
      </trkpt>
      <trkpt lat="43.49268" lon="6.17842">
        <ele>191.4</ele>
        <time>2024-03-27T15:00:58Z</time>
      </trkpt>
      <trkpt lat="43.49268" lon="6.17842">
        <ele>191.5</ele>
        <time>2024-03-27T15:00:59Z</time>
      </trkpt>
      <trkpt lat="43.49267" lon="6.17842">
        <ele>191.6</ele>
        <time>2024-03-27T15:01:00Z</time>
      </trkpt>
      <trkpt lat="43.49267" lon="6.17841">
        <ele>191.6</ele>
        <time>2024-03-27T15:01:01Z</time>
      </trkpt>
      <trkpt lat="43.49267" lon="6.17841">
        <ele>191.7</ele>
        <time>2024-03-27T15:01:02Z</time>
      </trkpt>
      <trkpt lat="43.49267" lon="6.17841">
        <ele>191.7</ele>
        <time>2024-03-27T15:01:03Z</time>
      </trkpt>
      <trkpt lat="43.49267" lon="6.17841">
        <ele>191.7</ele>
        <time>2024-03-27T15:01:04Z</time>
      </trkpt>
      <trkpt lat="43.49267" lon="6.17841">
        <ele>191.8</ele>
        <time>2024-03-27T15:01:05Z</time>
      </trkpt>
      <trkpt lat="43.49267" lon="6.17841">
        <ele>191.8</ele>
        <time>2024-03-27T15:01:06Z</time>
      </trkpt>
      <trkpt lat="43.49267" lon="6.17841">
        <ele>191.8</ele>
        <time>2024-03-27T15:01:07Z</time>
      </trkpt>
      <trkpt lat="43.49267" lon="6.17841">
        <ele>191.9</ele>
        <time>2024-03-27T15:01:08Z</time>
      </trkpt>
      <trkpt lat="43.49267" lon="6.17841">
        <ele>192</ele>
        <time>2024-03-27T15:01:09Z</time>
      </trkpt>
      <trkpt lat="43.49267" lon="6.17841">
        <ele>191.9</ele>
        <time>2024-03-27T15:01:10Z</time>
      </trkpt>
      <trkpt lat="43.49267" lon="6.17841">
        <ele>191.9</ele>
        <time>2024-03-27T15:01:11Z</time>
      </trkpt>
      <trkpt lat="43.49266" lon="6.17841">
        <ele>191.8</ele>
        <time>2024-03-27T15:01:12Z</time>
      </trkpt>
      <trkpt lat="43.49266" lon="6.17841">
        <ele>191.9</ele>
        <time>2024-03-27T15:01:13Z</time>
      </trkpt>
      <trkpt lat="43.49267" lon="6.17841">
        <ele>191.9</ele>
        <time>2024-03-27T15:01:14Z</time>
      </trkpt>
      <trkpt lat="43.49267" lon="6.17841">
        <ele>191.9</ele>
        <time>2024-03-27T15:01:15Z</time>
      </trkpt>
      <trkpt lat="43.49267" lon="6.17841">
        <ele>191.9</ele>
        <time>2024-03-27T15:01:16Z</time>
      </trkpt>
      <trkpt lat="43.49267" lon="6.17841">
        <ele>191.8</ele>
        <time>2024-03-27T15:01:17Z</time>
      </trkpt>
      <trkpt lat="43.49267" lon="6.17841">
        <ele>191.7</ele>
        <time>2024-03-27T15:01:18Z</time>
      </trkpt>
      <trkpt lat="43.49267" lon="6.17841">
        <ele>191.7</ele>
        <time>2024-03-27T15:01:19Z</time>
      </trkpt>
      <trkpt lat="43.49267" lon="6.17841">
        <ele>191.7</ele>
        <time>2024-03-27T15:01:20Z</time>
      </trkpt>
      <trkpt lat="43.49267" lon="6.17841">
        <ele>191.7</ele>
        <time>2024-03-27T15:01:21Z</time>
      </trkpt>
      <trkpt lat="43.49267" lon="6.17841">
        <ele>191.6</ele>
        <time>2024-03-27T15:01:22Z</time>
      </trkpt>
      <trkpt lat="43.49267" lon="6.17841">
        <ele>191.5</ele>
        <time>2024-03-27T15:01:23Z</time>
      </trkpt>
      <trkpt lat="43.49267" lon="6.17841">
        <ele>191.5</ele>
        <time>2024-03-27T15:01:24Z</time>
      </trkpt>
      <trkpt lat="43.49267" lon="6.17841">
        <ele>191.5</ele>
        <time>2024-03-27T15:01:25Z</time>
      </trkpt>
      <trkpt lat="43.49267" lon="6.17841">
        <ele>191.5</ele>
        <time>2024-03-27T15:01:26Z</time>
      </trkpt>
      <trkpt lat="43.49267" lon="6.17841">
        <ele>191.5</ele>
        <time>2024-03-27T15:01:27Z</time>
      </trkpt>
      <trkpt lat="43.49267" lon="6.17841">
        <ele>191.5</ele>
        <time>2024-03-27T15:01:28Z</time>
      </trkpt>
      <trkpt lat="43.49267" lon="6.17841">
        <ele>191.5</ele>
        <time>2024-03-27T15:01:29Z</time>
      </trkpt>
      <trkpt lat="43.49267" lon="6.17841">
        <ele>191.4</ele>
        <time>2024-03-27T15:01:30Z</time>
      </trkpt>
      <trkpt lat="43.49267" lon="6.17841">
        <ele>191.4</ele>
        <time>2024-03-27T15:01:31Z</time>
      </trkpt>
      <trkpt lat="43.49267" lon="6.17841">
        <ele>191.3</ele>
        <time>2024-03-27T15:01:32Z</time>
      </trkpt>
      <trkpt lat="43.49267" lon="6.17841">
        <ele>191.3</ele>
        <time>2024-03-27T15:01:33Z</time>
      </trkpt>
      <trkpt lat="43.49267" lon="6.17841">
        <ele>191.3</ele>
        <time>2024-03-27T15:01:34Z</time>
      </trkpt>
      <trkpt lat="43.49267" lon="6.17841">
        <ele>191.2</ele>
        <time>2024-03-27T15:01:35Z</time>
      </trkpt>
      <trkpt lat="43.49267" lon="6.17841">
        <ele>191.2</ele>
        <time>2024-03-27T15:01:36Z</time>
      </trkpt>
      <trkpt lat="43.49267" lon="6.17841">
        <ele>191.2</ele>
        <time>2024-03-27T15:01:37Z</time>
      </trkpt>
      <trkpt lat="43.49266" lon="6.1784">
        <ele>191.2</ele>
        <time>2024-03-27T15:01:38Z</time>
      </trkpt>
      <trkpt lat="43.49266" lon="6.1784">
        <ele>191.1</ele>
        <time>2024-03-27T15:01:39Z</time>
      </trkpt>
      <trkpt lat="43.49266" lon="6.1784">
        <ele>191.1</ele>
        <time>2024-03-27T15:01:40Z</time>
      </trkpt>
      <trkpt lat="43.49266" lon="6.1784">
        <ele>191.2</ele>
        <time>2024-03-27T15:01:41Z</time>
      </trkpt>
      <trkpt lat="43.49267" lon="6.1784">
        <ele>191.2</ele>
        <time>2024-03-27T15:01:42Z</time>
      </trkpt>
      <trkpt lat="43.49267" lon="6.1784">
        <ele>191.3</ele>
        <time>2024-03-27T15:01:43Z</time>
      </trkpt>
      <trkpt lat="43.49267" lon="6.1784">
        <ele>191.3</ele>
        <time>2024-03-27T15:01:44Z</time>
      </trkpt>
      <trkpt lat="43.49267" lon="6.1784">
        <ele>191.2</ele>
        <time>2024-03-27T15:01:45Z</time>
      </trkpt>
      <trkpt lat="43.49267" lon="6.1784">
        <ele>191.2</ele>
        <time>2024-03-27T15:01:46Z</time>
      </trkpt>
      <trkpt lat="43.49267" lon="6.17839">
        <ele>191.2</ele>
        <time>2024-03-27T15:01:47Z</time>
      </trkpt>
      <trkpt lat="43.49267" lon="6.17839">
        <ele>191.1</ele>
        <time>2024-03-27T15:01:48Z</time>
      </trkpt>
      <trkpt lat="43.49267" lon="6.1784">
        <ele>191.1</ele>
        <time>2024-03-27T15:01:49Z</time>
      </trkpt>
      <trkpt lat="43.49267" lon="6.1784">
        <ele>191.1</ele>
        <time>2024-03-27T15:01:50Z</time>
      </trkpt>
      <trkpt lat="43.49267" lon="6.1784">
        <ele>191.2</ele>
        <time>2024-03-27T15:01:51Z</time>
      </trkpt>
      <trkpt lat="43.49267" lon="6.1784">
        <ele>191.3</ele>
        <time>2024-03-27T15:01:52Z</time>
      </trkpt>
      <trkpt lat="43.49267" lon="6.1784">
        <ele>191.4</ele>
        <time>2024-03-27T15:01:53Z</time>
      </trkpt>
      <trkpt lat="43.49267" lon="6.17839">
        <ele>191.4</ele>
        <time>2024-03-27T15:01:54Z</time>
      </trkpt>
      <trkpt lat="43.49267" lon="6.17839">
        <ele>191.4</ele>
        <time>2024-03-27T15:01:55Z</time>
      </trkpt>
      <trkpt lat="43.49267" lon="6.17839">
        <ele>191.4</ele>
        <time>2024-03-27T15:01:56Z</time>
      </trkpt>
      <trkpt lat="43.49267" lon="6.17839">
        <ele>191.4</ele>
        <time>2024-03-27T15:01:57Z</time>
      </trkpt>
      <trkpt lat="43.49267" lon="6.17839">
        <ele>191.4</ele>
        <time>2024-03-27T15:01:58Z</time>
      </trkpt>
      <trkpt lat="43.49267" lon="6.17839">
        <ele>191.4</ele>
        <time>2024-03-27T15:01:59Z</time>
      </trkpt>
      <trkpt lat="43.49267" lon="6.17839">
        <ele>191.4</ele>
        <time>2024-03-27T15:02:00Z</time>
      </trkpt>
      <trkpt lat="43.49267" lon="6.17839">
        <ele>191.4</ele>
        <time>2024-03-27T15:02:01Z</time>
      </trkpt>
      <trkpt lat="43.49267" lon="6.17839">
        <ele>191.4</ele>
        <time>2024-03-27T15:02:02Z</time>
      </trkpt>
      <trkpt lat="43.49268" lon="6.17839">
        <ele>191.4</ele>
        <time>2024-03-27T15:02:03Z</time>
      </trkpt>
      <trkpt lat="43.49268" lon="6.17839">
        <ele>191.4</ele>
        <time>2024-03-27T15:02:04Z</time>
      </trkpt>
      <trkpt lat="43.49268" lon="6.17839">
        <ele>191.4</ele>
        <time>2024-03-27T15:02:05Z</time>
      </trkpt>
      <trkpt lat="43.49268" lon="6.17839">
        <ele>191.3</ele>
        <time>2024-03-27T15:02:06Z</time>
      </trkpt>
      <trkpt lat="43.49268" lon="6.17839">
        <ele>191.4</ele>
        <time>2024-03-27T15:02:07Z</time>
      </trkpt>
      <trkpt lat="43.49268" lon="6.17839">
        <ele>191.4</ele>
        <time>2024-03-27T15:02:08Z</time>
      </trkpt>
      <trkpt lat="43.49268" lon="6.17839">
        <ele>191.4</ele>
        <time>2024-03-27T15:02:09Z</time>
      </trkpt>
      <trkpt lat="43.49268" lon="6.17839">
        <ele>191.4</ele>
        <time>2024-03-27T15:02:10Z</time>
      </trkpt>
      <trkpt lat="43.49268" lon="6.17839">
        <ele>191.4</ele>
        <time>2024-03-27T15:02:11Z</time>
      </trkpt>
      <trkpt lat="43.49268" lon="6.17839">
        <ele>191.4</ele>
        <time>2024-03-27T15:02:12Z</time>
      </trkpt>
      <trkpt lat="43.49268" lon="6.17839">
        <ele>191.4</ele>
        <time>2024-03-27T15:02:13Z</time>
      </trkpt>
      <trkpt lat="43.49268" lon="6.17839">
        <ele>191.4</ele>
        <time>2024-03-27T15:02:14Z</time>
      </trkpt>
      <trkpt lat="43.49268" lon="6.17839">
        <ele>191.5</ele>
        <time>2024-03-27T15:02:15Z</time>
      </trkpt>
      <trkpt lat="43.49268" lon="6.17839">
        <ele>191.5</ele>
        <time>2024-03-27T15:02:16Z</time>
      </trkpt>
      <trkpt lat="43.49267" lon="6.17839">
        <ele>191.6</ele>
        <time>2024-03-27T15:02:17Z</time>
      </trkpt>
      <trkpt lat="43.49267" lon="6.17839">
        <ele>191.6</ele>
        <time>2024-03-27T15:02:18Z</time>
      </trkpt>
      <trkpt lat="43.49268" lon="6.17839">
        <ele>191.7</ele>
        <time>2024-03-27T15:02:19Z</time>
      </trkpt>
      <trkpt lat="43.49268" lon="6.17839">
        <ele>191.7</ele>
        <time>2024-03-27T15:02:20Z</time>
      </trkpt>
      <trkpt lat="43.49268" lon="6.17839">
        <ele>191.7</ele>
        <time>2024-03-27T15:02:21Z</time>
      </trkpt>
      <trkpt lat="43.49268" lon="6.17839">
        <ele>191.7</ele>
        <time>2024-03-27T15:02:22Z</time>
      </trkpt>
      <trkpt lat="43.49267" lon="6.17839">
        <ele>191.7</ele>
        <time>2024-03-27T15:02:23Z</time>
      </trkpt>
      <trkpt lat="43.49267" lon="6.17839">
        <ele>191.7</ele>
        <time>2024-03-27T15:02:24Z</time>
      </trkpt>
      <trkpt lat="43.49267" lon="6.17839">
        <ele>191.7</ele>
        <time>2024-03-27T15:02:25Z</time>
      </trkpt>
      <trkpt lat="43.49267" lon="6.17839">
        <ele>191.7</ele>
        <time>2024-03-27T15:02:26Z</time>
      </trkpt>
      <trkpt lat="43.49267" lon="6.17839">
        <ele>191.5</ele>
        <time>2024-03-27T15:02:27Z</time>
      </trkpt>
      <trkpt lat="43.49267" lon="6.17839">
        <ele>191.5</ele>
        <time>2024-03-27T15:02:28Z</time>
      </trkpt>
      <trkpt lat="43.49267" lon="6.17839">
        <ele>191.5</ele>
        <time>2024-03-27T15:02:29Z</time>
      </trkpt>
      <trkpt lat="43.49267" lon="6.17839">
        <ele>191.5</ele>
        <time>2024-03-27T15:02:30Z</time>
      </trkpt>
      <trkpt lat="43.49267" lon="6.17838">
        <ele>191.6</ele>
        <time>2024-03-27T15:02:31Z</time>
      </trkpt>
      <trkpt lat="43.49267" lon="6.17838">
        <ele>191.7</ele>
        <time>2024-03-27T15:02:32Z</time>
      </trkpt>
      <trkpt lat="43.49267" lon="6.17838">
        <ele>191.7</ele>
        <time>2024-03-27T15:02:33Z</time>
      </trkpt>
      <trkpt lat="43.49267" lon="6.17838">
        <ele>191.6</ele>
        <time>2024-03-27T15:02:34Z</time>
      </trkpt>
      <trkpt lat="43.49267" lon="6.17838">
        <ele>191.6</ele>
        <time>2024-03-27T15:02:35Z</time>
      </trkpt>
      <trkpt lat="43.49267" lon="6.17838">
        <ele>191.6</ele>
        <time>2024-03-27T15:02:36Z</time>
      </trkpt>
      <trkpt lat="43.49267" lon="6.17838">
        <ele>191.6</ele>
        <time>2024-03-27T15:02:37Z</time>
      </trkpt>
      <trkpt lat="43.49267" lon="6.17838">
        <ele>191.5</ele>
        <time>2024-03-27T15:02:38Z</time>
      </trkpt>
      <trkpt lat="43.49268" lon="6.17838">
        <ele>191.5</ele>
        <time>2024-03-27T15:02:39Z</time>
      </trkpt>
      <trkpt lat="43.49267" lon="6.17839">
        <ele>191.4</ele>
        <time>2024-03-27T15:02:40Z</time>
      </trkpt>
      <trkpt lat="43.49267" lon="6.17839">
        <ele>191.4</ele>
        <time>2024-03-27T15:02:41Z</time>
      </trkpt>
      <trkpt lat="43.49267" lon="6.17839">
        <ele>191.4</ele>
        <time>2024-03-27T15:02:42Z</time>
      </trkpt>
      <trkpt lat="43.49267" lon="6.17839">
        <ele>191.3</ele>
        <time>2024-03-27T15:02:43Z</time>
      </trkpt>
      <trkpt lat="43.49267" lon="6.17839">
        <ele>191.3</ele>
        <time>2024-03-27T15:02:44Z</time>
      </trkpt>
      <trkpt lat="43.49267" lon="6.17839">
        <ele>191.3</ele>
        <time>2024-03-27T15:02:45Z</time>
      </trkpt>
      <trkpt lat="43.49268" lon="6.17839">
        <ele>191.3</ele>
        <time>2024-03-27T15:02:46Z</time>
      </trkpt>
      <trkpt lat="43.49268" lon="6.17839">
        <ele>191.3</ele>
        <time>2024-03-27T15:02:47Z</time>
      </trkpt>
      <trkpt lat="43.49268" lon="6.17839">
        <ele>191.3</ele>
        <time>2024-03-27T15:02:48Z</time>
      </trkpt>
      <trkpt lat="43.49268" lon="6.1784">
        <ele>191.3</ele>
        <time>2024-03-27T15:02:49Z</time>
      </trkpt>
      <trkpt lat="43.49268" lon="6.17841">
        <ele>191.3</ele>
        <time>2024-03-27T15:02:50Z</time>
      </trkpt>
      <trkpt lat="43.49269" lon="6.17842">
        <ele>191.3</ele>
        <time>2024-03-27T15:02:51Z</time>
      </trkpt>
      <trkpt lat="43.49269" lon="6.17844">
        <ele>191.2</ele>
        <time>2024-03-27T15:02:52Z</time>
      </trkpt>
      <trkpt lat="43.4927" lon="6.17845">
        <ele>191.2</ele>
        <time>2024-03-27T15:02:53Z</time>
      </trkpt>
      <trkpt lat="43.4927" lon="6.17845">
        <ele>191.1</ele>
        <time>2024-03-27T15:02:54Z</time>
      </trkpt>
      <trkpt lat="43.4927" lon="6.17846">
        <ele>191.1</ele>
        <time>2024-03-27T15:02:55Z</time>
      </trkpt>
      <trkpt lat="43.49271" lon="6.17846">
        <ele>191</ele>
        <time>2024-03-27T15:02:56Z</time>
      </trkpt>
      <trkpt lat="43.49271" lon="6.17846">
        <ele>191</ele>
        <time>2024-03-27T15:02:57Z</time>
      </trkpt>
      <trkpt lat="43.49271" lon="6.17847">
        <ele>191</ele>
        <time>2024-03-27T15:02:58Z</time>
      </trkpt>
      <trkpt lat="43.49272" lon="6.17848">
        <ele>190.8</ele>
        <time>2024-03-27T15:02:59Z</time>
      </trkpt>
      <trkpt lat="43.49272" lon="6.17849">
        <ele>190.7</ele>
        <time>2024-03-27T15:03:00Z</time>
      </trkpt>
      <trkpt lat="43.49273" lon="6.1785">
        <ele>190.7</ele>
        <time>2024-03-27T15:03:01Z</time>
      </trkpt>
      <trkpt lat="43.49273" lon="6.17851">
        <ele>190.6</ele>
        <time>2024-03-27T15:03:02Z</time>
      </trkpt>
      <trkpt lat="43.49273" lon="6.17852">
        <ele>190.5</ele>
        <time>2024-03-27T15:03:03Z</time>
      </trkpt>
      <trkpt lat="43.49274" lon="6.17852">
        <ele>190.4</ele>
        <time>2024-03-27T15:03:04Z</time>
      </trkpt>
      <trkpt lat="43.49274" lon="6.17854">
        <ele>190.3</ele>
        <time>2024-03-27T15:03:05Z</time>
      </trkpt>
      <trkpt lat="43.49275" lon="6.17854">
        <ele>190.1</ele>
        <time>2024-03-27T15:03:06Z</time>
      </trkpt>
      <trkpt lat="43.49275" lon="6.17855">
        <ele>190</ele>
        <time>2024-03-27T15:03:07Z</time>
      </trkpt>
      <trkpt lat="43.49276" lon="6.17855">
        <ele>189.9</ele>
        <time>2024-03-27T15:03:08Z</time>
      </trkpt>
      <trkpt lat="43.49277" lon="6.17856">
        <ele>189.8</ele>
        <time>2024-03-27T15:03:09Z</time>
      </trkpt>
      <trkpt lat="43.49277" lon="6.17857">
        <ele>189.8</ele>
        <time>2024-03-27T15:03:10Z</time>
      </trkpt>
      <trkpt lat="43.49278" lon="6.17858">
        <ele>189.6</ele>
        <time>2024-03-27T15:03:11Z</time>
      </trkpt>
      <trkpt lat="43.49279" lon="6.17859">
        <ele>189.4</ele>
        <time>2024-03-27T15:03:12Z</time>
      </trkpt>
      <trkpt lat="43.49279" lon="6.1786">
        <ele>189.4</ele>
        <time>2024-03-27T15:03:13Z</time>
      </trkpt>
      <trkpt lat="43.4928" lon="6.1786">
        <ele>189.3</ele>
        <time>2024-03-27T15:03:14Z</time>
      </trkpt>
      <trkpt lat="43.49281" lon="6.17861">
        <ele>189.2</ele>
        <time>2024-03-27T15:03:15Z</time>
      </trkpt>
      <trkpt lat="43.49282" lon="6.17861">
        <ele>189.2</ele>
        <time>2024-03-27T15:03:16Z</time>
      </trkpt>
      <trkpt lat="43.49282" lon="6.17862">
        <ele>189.1</ele>
        <time>2024-03-27T15:03:17Z</time>
      </trkpt>
      <trkpt lat="43.49283" lon="6.17863">
        <ele>189</ele>
        <time>2024-03-27T15:03:18Z</time>
      </trkpt>
      <trkpt lat="43.49284" lon="6.17864">
        <ele>188.9</ele>
        <time>2024-03-27T15:03:19Z</time>
      </trkpt>
      <trkpt lat="43.49284" lon="6.17865">
        <ele>188.9</ele>
        <time>2024-03-27T15:03:20Z</time>
      </trkpt>
      <trkpt lat="43.49285" lon="6.17867">
        <ele>188.8</ele>
        <time>2024-03-27T15:03:21Z</time>
      </trkpt>
      <trkpt lat="43.49285" lon="6.17868">
        <ele>188.7</ele>
        <time>2024-03-27T15:03:22Z</time>
      </trkpt>
      <trkpt lat="43.49286" lon="6.17868">
        <ele>188.5</ele>
        <time>2024-03-27T15:03:23Z</time>
      </trkpt>
      <trkpt lat="43.49287" lon="6.17869">
        <ele>188.5</ele>
        <time>2024-03-27T15:03:24Z</time>
      </trkpt>
      <trkpt lat="43.49287" lon="6.1787">
        <ele>188.3</ele>
        <time>2024-03-27T15:03:25Z</time>
      </trkpt>
      <trkpt lat="43.49288" lon="6.17871">
        <ele>188.2</ele>
        <time>2024-03-27T15:03:26Z</time>
      </trkpt>
      <trkpt lat="43.49289" lon="6.17872">
        <ele>188</ele>
        <time>2024-03-27T15:03:27Z</time>
      </trkpt>
      <trkpt lat="43.49289" lon="6.17873">
        <ele>187.9</ele>
        <time>2024-03-27T15:03:28Z</time>
      </trkpt>
      <trkpt lat="43.4929" lon="6.17873">
        <ele>187.7</ele>
        <time>2024-03-27T15:03:29Z</time>
      </trkpt>
      <trkpt lat="43.49291" lon="6.17874">
        <ele>187.6</ele>
        <time>2024-03-27T15:03:30Z</time>
      </trkpt>
      <trkpt lat="43.49291" lon="6.17875">
        <ele>187.4</ele>
        <time>2024-03-27T15:03:31Z</time>
      </trkpt>
      <trkpt lat="43.49291" lon="6.17876">
        <ele>187.3</ele>
        <time>2024-03-27T15:03:32Z</time>
      </trkpt>
      <trkpt lat="43.49292" lon="6.17877">
        <ele>187</ele>
        <time>2024-03-27T15:03:33Z</time>
      </trkpt>
      <trkpt lat="43.49293" lon="6.17878">
        <ele>186.8</ele>
        <time>2024-03-27T15:03:34Z</time>
      </trkpt>
      <trkpt lat="43.49293" lon="6.17879">
        <ele>186.6</ele>
        <time>2024-03-27T15:03:35Z</time>
      </trkpt>
      <trkpt lat="43.49294" lon="6.17879">
        <ele>186.4</ele>
        <time>2024-03-27T15:03:36Z</time>
      </trkpt>
      <trkpt lat="43.49294" lon="6.1788">
        <ele>186.2</ele>
        <time>2024-03-27T15:03:37Z</time>
      </trkpt>
      <trkpt lat="43.49295" lon="6.17881">
        <ele>186.1</ele>
        <time>2024-03-27T15:03:38Z</time>
      </trkpt>
      <trkpt lat="43.49296" lon="6.17882">
        <ele>185.9</ele>
        <time>2024-03-27T15:03:39Z</time>
      </trkpt>
      <trkpt lat="43.49296" lon="6.17883">
        <ele>185.8</ele>
        <time>2024-03-27T15:03:40Z</time>
      </trkpt>
      <trkpt lat="43.49297" lon="6.17884">
        <ele>185.6</ele>
        <time>2024-03-27T15:03:41Z</time>
      </trkpt>
      <trkpt lat="43.49298" lon="6.17884">
        <ele>185.6</ele>
        <time>2024-03-27T15:03:42Z</time>
      </trkpt>
      <trkpt lat="43.49298" lon="6.17885">
        <ele>185.4</ele>
        <time>2024-03-27T15:03:43Z</time>
      </trkpt>
      <trkpt lat="43.49299" lon="6.17886">
        <ele>185.3</ele>
        <time>2024-03-27T15:03:44Z</time>
      </trkpt>
      <trkpt lat="43.49299" lon="6.17887">
        <ele>185.2</ele>
        <time>2024-03-27T15:03:45Z</time>
      </trkpt>
      <trkpt lat="43.493" lon="6.17888">
        <ele>185</ele>
        <time>2024-03-27T15:03:46Z</time>
      </trkpt>
      <trkpt lat="43.49301" lon="6.17889">
        <ele>184.9</ele>
        <time>2024-03-27T15:03:47Z</time>
      </trkpt>
      <trkpt lat="43.49301" lon="6.1789">
        <ele>184.7</ele>
        <time>2024-03-27T15:03:48Z</time>
      </trkpt>
      <trkpt lat="43.49302" lon="6.17891">
        <ele>184.6</ele>
        <time>2024-03-27T15:03:49Z</time>
      </trkpt>
      <trkpt lat="43.49303" lon="6.17892">
        <ele>184.5</ele>
        <time>2024-03-27T15:03:50Z</time>
      </trkpt>
      <trkpt lat="43.49303" lon="6.17892">
        <ele>184.5</ele>
        <time>2024-03-27T15:03:51Z</time>
      </trkpt>
      <trkpt lat="43.49304" lon="6.17893">
        <ele>184.4</ele>
        <time>2024-03-27T15:03:52Z</time>
      </trkpt>
      <trkpt lat="43.49304" lon="6.17893">
        <ele>184.3</ele>
        <time>2024-03-27T15:03:53Z</time>
      </trkpt>
      <trkpt lat="43.49304" lon="6.17894">
        <ele>184.2</ele>
        <time>2024-03-27T15:03:54Z</time>
      </trkpt>
      <trkpt lat="43.49305" lon="6.17895">
        <ele>184.1</ele>
        <time>2024-03-27T15:03:55Z</time>
      </trkpt>
      <trkpt lat="43.49305" lon="6.17897">
        <ele>184.1</ele>
        <time>2024-03-27T15:03:56Z</time>
      </trkpt>
      <trkpt lat="43.49305" lon="6.17898">
        <ele>183.9</ele>
        <time>2024-03-27T15:03:57Z</time>
      </trkpt>
      <trkpt lat="43.49306" lon="6.17899">
        <ele>183.8</ele>
        <time>2024-03-27T15:03:58Z</time>
      </trkpt>
      <trkpt lat="43.49307" lon="6.17899">
        <ele>183.6</ele>
        <time>2024-03-27T15:03:59Z</time>
      </trkpt>
      <trkpt lat="43.49308" lon="6.179">
        <ele>183.5</ele>
        <time>2024-03-27T15:04:00Z</time>
      </trkpt>
      <trkpt lat="43.49308" lon="6.17901">
        <ele>183.4</ele>
        <time>2024-03-27T15:04:01Z</time>
      </trkpt>
      <trkpt lat="43.49308" lon="6.17902">
        <ele>183.3</ele>
        <time>2024-03-27T15:04:02Z</time>
      </trkpt>
      <trkpt lat="43.49309" lon="6.17903">
        <ele>183.1</ele>
        <time>2024-03-27T15:04:03Z</time>
      </trkpt>
      <trkpt lat="43.4931" lon="6.17903">
        <ele>183</ele>
        <time>2024-03-27T15:04:04Z</time>
      </trkpt>
      <trkpt lat="43.4931" lon="6.17904">
        <ele>182.8</ele>
        <time>2024-03-27T15:04:05Z</time>
      </trkpt>
      <trkpt lat="43.49311" lon="6.17905">
        <ele>182.7</ele>
        <time>2024-03-27T15:04:06Z</time>
      </trkpt>
      <trkpt lat="43.49311" lon="6.17906">
        <ele>182.5</ele>
        <time>2024-03-27T15:04:07Z</time>
      </trkpt>
      <trkpt lat="43.49311" lon="6.17906">
        <ele>182.3</ele>
        <time>2024-03-27T15:04:08Z</time>
      </trkpt>
      <trkpt lat="43.49311" lon="6.17907">
        <ele>182.1</ele>
        <time>2024-03-27T15:04:09Z</time>
      </trkpt>
      <trkpt lat="43.49312" lon="6.17908">
        <ele>181.9</ele>
        <time>2024-03-27T15:04:10Z</time>
      </trkpt>
      <trkpt lat="43.49313" lon="6.17909">
        <ele>181.8</ele>
        <time>2024-03-27T15:04:11Z</time>
      </trkpt>
      <trkpt lat="43.49313" lon="6.1791">
        <ele>181.6</ele>
        <time>2024-03-27T15:04:12Z</time>
      </trkpt>
      <trkpt lat="43.49314" lon="6.1791">
        <ele>181.4</ele>
        <time>2024-03-27T15:04:13Z</time>
      </trkpt>
      <trkpt lat="43.49314" lon="6.17911">
        <ele>181.2</ele>
        <time>2024-03-27T15:04:14Z</time>
      </trkpt>
      <trkpt lat="43.49315" lon="6.17912">
        <ele>181</ele>
        <time>2024-03-27T15:04:15Z</time>
      </trkpt>
      <trkpt lat="43.49316" lon="6.17912">
        <ele>180.8</ele>
        <time>2024-03-27T15:04:16Z</time>
      </trkpt>
      <trkpt lat="43.49316" lon="6.17912">
        <ele>180.6</ele>
        <time>2024-03-27T15:04:17Z</time>
      </trkpt>
      <trkpt lat="43.49317" lon="6.17913">
        <ele>180.5</ele>
        <time>2024-03-27T15:04:18Z</time>
      </trkpt>
      <trkpt lat="43.49317" lon="6.17914">
        <ele>180.4</ele>
        <time>2024-03-27T15:04:19Z</time>
      </trkpt>
      <trkpt lat="43.49318" lon="6.17914">
        <ele>180.3</ele>
        <time>2024-03-27T15:04:20Z</time>
      </trkpt>
      <trkpt lat="43.49319" lon="6.17914">
        <ele>180.2</ele>
        <time>2024-03-27T15:04:21Z</time>
      </trkpt>
      <trkpt lat="43.4932" lon="6.17915">
        <ele>180</ele>
        <time>2024-03-27T15:04:22Z</time>
      </trkpt>
      <trkpt lat="43.4932" lon="6.17916">
        <ele>179.9</ele>
        <time>2024-03-27T15:04:23Z</time>
      </trkpt>
      <trkpt lat="43.49321" lon="6.17917">
        <ele>179.6</ele>
        <time>2024-03-27T15:04:24Z</time>
      </trkpt>
      <trkpt lat="43.49321" lon="6.17917">
        <ele>179.4</ele>
        <time>2024-03-27T15:04:25Z</time>
      </trkpt>
      <trkpt lat="43.49322" lon="6.17918">
        <ele>179.2</ele>
        <time>2024-03-27T15:04:26Z</time>
      </trkpt>
      <trkpt lat="43.49322" lon="6.17919">
        <ele>179.1</ele>
        <time>2024-03-27T15:04:27Z</time>
      </trkpt>
      <trkpt lat="43.49323" lon="6.17919">
        <ele>179</ele>
        <time>2024-03-27T15:04:28Z</time>
      </trkpt>
      <trkpt lat="43.49323" lon="6.1792">
        <ele>178.9</ele>
        <time>2024-03-27T15:04:29Z</time>
      </trkpt>
      <trkpt lat="43.49324" lon="6.17921">
        <ele>178.8</ele>
        <time>2024-03-27T15:04:30Z</time>
      </trkpt>
      <trkpt lat="43.49324" lon="6.17922">
        <ele>178.6</ele>
        <time>2024-03-27T15:04:31Z</time>
      </trkpt>
      <trkpt lat="43.49324" lon="6.17922">
        <ele>178.3</ele>
        <time>2024-03-27T15:04:32Z</time>
      </trkpt>
      <trkpt lat="43.49324" lon="6.17924">
        <ele>178.1</ele>
        <time>2024-03-27T15:04:33Z</time>
      </trkpt>
      <trkpt lat="43.49325" lon="6.17925">
        <ele>177.9</ele>
        <time>2024-03-27T15:04:34Z</time>
      </trkpt>
      <trkpt lat="43.49325" lon="6.17926">
        <ele>177.8</ele>
        <time>2024-03-27T15:04:35Z</time>
      </trkpt>
      <trkpt lat="43.49325" lon="6.17927">
        <ele>177.7</ele>
        <time>2024-03-27T15:04:36Z</time>
      </trkpt>
      <trkpt lat="43.49325" lon="6.17928">
        <ele>177.6</ele>
        <time>2024-03-27T15:04:37Z</time>
      </trkpt>
      <trkpt lat="43.49324" lon="6.17929">
        <ele>177.4</ele>
        <time>2024-03-27T15:04:38Z</time>
      </trkpt>
      <trkpt lat="43.49324" lon="6.17929">
        <ele>177.2</ele>
        <time>2024-03-27T15:04:39Z</time>
      </trkpt>
      <trkpt lat="43.49325" lon="6.1793">
        <ele>177</ele>
        <time>2024-03-27T15:04:40Z</time>
      </trkpt>
      <trkpt lat="43.49324" lon="6.17931">
        <ele>176.7</ele>
        <time>2024-03-27T15:04:41Z</time>
      </trkpt>
      <trkpt lat="43.49324" lon="6.17932">
        <ele>176.5</ele>
        <time>2024-03-27T15:04:42Z</time>
      </trkpt>
      <trkpt lat="43.49324" lon="6.17934">
        <ele>176.4</ele>
        <time>2024-03-27T15:04:43Z</time>
      </trkpt>
      <trkpt lat="43.49324" lon="6.17935">
        <ele>176.3</ele>
        <time>2024-03-27T15:04:44Z</time>
      </trkpt>
      <trkpt lat="43.49324" lon="6.17936">
        <ele>176.1</ele>
        <time>2024-03-27T15:04:45Z</time>
      </trkpt>
      <trkpt lat="43.49324" lon="6.17938">
        <ele>176</ele>
        <time>2024-03-27T15:04:46Z</time>
      </trkpt>
      <trkpt lat="43.49323" lon="6.17939">
        <ele>175.9</ele>
        <time>2024-03-27T15:04:47Z</time>
      </trkpt>
      <trkpt lat="43.49323" lon="6.1794">
        <ele>175.7</ele>
        <time>2024-03-27T15:04:48Z</time>
      </trkpt>
      <trkpt lat="43.49323" lon="6.17941">
        <ele>175.5</ele>
        <time>2024-03-27T15:04:49Z</time>
      </trkpt>
      <trkpt lat="43.49323" lon="6.17943">
        <ele>175.3</ele>
        <time>2024-03-27T15:04:50Z</time>
      </trkpt>
      <trkpt lat="43.49323" lon="6.17944">
        <ele>175.1</ele>
        <time>2024-03-27T15:04:51Z</time>
      </trkpt>
      <trkpt lat="43.49323" lon="6.17945">
        <ele>174.9</ele>
        <time>2024-03-27T15:04:52Z</time>
      </trkpt>
      <trkpt lat="43.49323" lon="6.17947">
        <ele>174.6</ele>
        <time>2024-03-27T15:04:53Z</time>
      </trkpt>
      <trkpt lat="43.49323" lon="6.1795">
        <ele>174.3</ele>
        <time>2024-03-27T15:04:54Z</time>
      </trkpt>
      <trkpt lat="43.49324" lon="6.17951">
        <ele>174.1</ele>
        <time>2024-03-27T15:04:55Z</time>
      </trkpt>
      <trkpt lat="43.49325" lon="6.17952">
        <ele>174</ele>
        <time>2024-03-27T15:04:56Z</time>
      </trkpt>
      <trkpt lat="43.49325" lon="6.17953">
        <ele>173.8</ele>
        <time>2024-03-27T15:04:57Z</time>
      </trkpt>
      <trkpt lat="43.49326" lon="6.17953">
        <ele>173.7</ele>
        <time>2024-03-27T15:04:58Z</time>
      </trkpt>
      <trkpt lat="43.49326" lon="6.17954">
        <ele>173.5</ele>
        <time>2024-03-27T15:04:59Z</time>
      </trkpt>
      <trkpt lat="43.49326" lon="6.17954">
        <ele>173.4</ele>
        <time>2024-03-27T15:05:00Z</time>
      </trkpt>
      <trkpt lat="43.49326" lon="6.17954">
        <ele>173.3</ele>
        <time>2024-03-27T15:05:01Z</time>
      </trkpt>
      <trkpt lat="43.49326" lon="6.17953">
        <ele>173.2</ele>
        <time>2024-03-27T15:05:02Z</time>
      </trkpt>
      <trkpt lat="43.49326" lon="6.17953">
        <ele>173.1</ele>
        <time>2024-03-27T15:05:03Z</time>
      </trkpt>
      <trkpt lat="43.49326" lon="6.17953">
        <ele>173</ele>
        <time>2024-03-27T15:05:04Z</time>
      </trkpt>
      <trkpt lat="43.49326" lon="6.17953">
        <ele>172.9</ele>
        <time>2024-03-27T15:05:05Z</time>
      </trkpt>
      <trkpt lat="43.49326" lon="6.17953">
        <ele>172.9</ele>
        <time>2024-03-27T15:05:06Z</time>
      </trkpt>
      <trkpt lat="43.49326" lon="6.17953">
        <ele>172.8</ele>
        <time>2024-03-27T15:05:07Z</time>
      </trkpt>
      <trkpt lat="43.49327" lon="6.17953">
        <ele>172.8</ele>
        <time>2024-03-27T15:05:08Z</time>
      </trkpt>
      <trkpt lat="43.49327" lon="6.17954">
        <ele>172.8</ele>
        <time>2024-03-27T15:05:09Z</time>
      </trkpt>
      <trkpt lat="43.49327" lon="6.17954">
        <ele>172.8</ele>
        <time>2024-03-27T15:05:10Z</time>
      </trkpt>
      <trkpt lat="43.49327" lon="6.17954">
        <ele>172.8</ele>
        <time>2024-03-27T15:05:11Z</time>
      </trkpt>
      <trkpt lat="43.49327" lon="6.17954">
        <ele>172.8</ele>
        <time>2024-03-27T15:05:12Z</time>
      </trkpt>
      <trkpt lat="43.49327" lon="6.17954">
        <ele>172.9</ele>
        <time>2024-03-27T15:05:13Z</time>
      </trkpt>
      <trkpt lat="43.49327" lon="6.17954">
        <ele>173</ele>
        <time>2024-03-27T15:05:14Z</time>
      </trkpt>
      <trkpt lat="43.49328" lon="6.17954">
        <ele>173</ele>
        <time>2024-03-27T15:05:15Z</time>
      </trkpt>
      <trkpt lat="43.49329" lon="6.17954">
        <ele>173</ele>
        <time>2024-03-27T15:05:16Z</time>
      </trkpt>
      <trkpt lat="43.49329" lon="6.17954">
        <ele>173</ele>
        <time>2024-03-27T15:05:17Z</time>
      </trkpt>
      <trkpt lat="43.49331" lon="6.17954">
        <ele>172.9</ele>
        <time>2024-03-27T15:05:18Z</time>
      </trkpt>
      <trkpt lat="43.49332" lon="6.17955">
        <ele>172.9</ele>
        <time>2024-03-27T15:05:19Z</time>
      </trkpt>
      <trkpt lat="43.49332" lon="6.17955">
        <ele>172.9</ele>
        <time>2024-03-27T15:05:20Z</time>
      </trkpt>
      <trkpt lat="43.49333" lon="6.17956">
        <ele>172.9</ele>
        <time>2024-03-27T15:05:21Z</time>
      </trkpt>
      <trkpt lat="43.49334" lon="6.17956">
        <ele>172.9</ele>
        <time>2024-03-27T15:05:22Z</time>
      </trkpt>
      <trkpt lat="43.49336" lon="6.17957">
        <ele>173</ele>
        <time>2024-03-27T15:05:23Z</time>
      </trkpt>
      <trkpt lat="43.49337" lon="6.17956">
        <ele>172.9</ele>
        <time>2024-03-27T15:05:24Z</time>
      </trkpt>
      <trkpt lat="43.49339" lon="6.17957">
        <ele>172.9</ele>
        <time>2024-03-27T15:05:25Z</time>
      </trkpt>
      <trkpt lat="43.4934" lon="6.17957">
        <ele>172.8</ele>
        <time>2024-03-27T15:05:26Z</time>
      </trkpt>
      <trkpt lat="43.49341" lon="6.17956">
        <ele>172.8</ele>
        <time>2024-03-27T15:05:27Z</time>
      </trkpt>
      <trkpt lat="43.49342" lon="6.17956">
        <ele>172.8</ele>
        <time>2024-03-27T15:05:28Z</time>
      </trkpt>
      <trkpt lat="43.49343" lon="6.17956">
        <ele>172.8</ele>
        <time>2024-03-27T15:05:29Z</time>
      </trkpt>
      <trkpt lat="43.49344" lon="6.17956">
        <ele>172.7</ele>
        <time>2024-03-27T15:05:30Z</time>
      </trkpt>
      <trkpt lat="43.49345" lon="6.17956">
        <ele>172.7</ele>
        <time>2024-03-27T15:05:31Z</time>
      </trkpt>
      <trkpt lat="43.49346" lon="6.17956">
        <ele>172.6</ele>
        <time>2024-03-27T15:05:32Z</time>
      </trkpt>
      <trkpt lat="43.49347" lon="6.17956">
        <ele>172.6</ele>
        <time>2024-03-27T15:05:33Z</time>
      </trkpt>
      <trkpt lat="43.49348" lon="6.17956">
        <ele>172.6</ele>
        <time>2024-03-27T15:05:34Z</time>
      </trkpt>
      <trkpt lat="43.4935" lon="6.17955">
        <ele>172.7</ele>
        <time>2024-03-27T15:05:35Z</time>
      </trkpt>
      <trkpt lat="43.49351" lon="6.17954">
        <ele>172.7</ele>
        <time>2024-03-27T15:05:36Z</time>
      </trkpt>
      <trkpt lat="43.49351" lon="6.17953">
        <ele>172.7</ele>
        <time>2024-03-27T15:05:37Z</time>
      </trkpt>
      <trkpt lat="43.49352" lon="6.17951">
        <ele>172.7</ele>
        <time>2024-03-27T15:05:38Z</time>
      </trkpt>
      <trkpt lat="43.49354" lon="6.1795">
        <ele>172.7</ele>
        <time>2024-03-27T15:05:39Z</time>
      </trkpt>
      <trkpt lat="43.49355" lon="6.17949">
        <ele>172.8</ele>
        <time>2024-03-27T15:05:40Z</time>
      </trkpt>
      <trkpt lat="43.49356" lon="6.17948">
        <ele>172.7</ele>
        <time>2024-03-27T15:05:41Z</time>
      </trkpt>
      <trkpt lat="43.49357" lon="6.17947">
        <ele>172.7</ele>
        <time>2024-03-27T15:05:42Z</time>
      </trkpt>
      <trkpt lat="43.49358" lon="6.17946">
        <ele>172.6</ele>
        <time>2024-03-27T15:05:43Z</time>
      </trkpt>
      <trkpt lat="43.49359" lon="6.17946">
        <ele>172.5</ele>
        <time>2024-03-27T15:05:44Z</time>
      </trkpt>
      <trkpt lat="43.4936" lon="6.17946">
        <ele>172.5</ele>
        <time>2024-03-27T15:05:45Z</time>
      </trkpt>
      <trkpt lat="43.4936" lon="6.17946">
        <ele>172.4</ele>
        <time>2024-03-27T15:05:46Z</time>
      </trkpt>
      <trkpt lat="43.49361" lon="6.17947">
        <ele>172.4</ele>
        <time>2024-03-27T15:05:47Z</time>
      </trkpt>
      <trkpt lat="43.49363" lon="6.17947">
        <ele>172.4</ele>
        <time>2024-03-27T15:05:48Z</time>
      </trkpt>
      <trkpt lat="43.49363" lon="6.17947">
        <ele>172.2</ele>
        <time>2024-03-27T15:05:49Z</time>
      </trkpt>
      <trkpt lat="43.49364" lon="6.17948">
        <ele>172.1</ele>
        <time>2024-03-27T15:05:50Z</time>
      </trkpt>
      <trkpt lat="43.49365" lon="6.17949">
        <ele>171.9</ele>
        <time>2024-03-27T15:05:51Z</time>
      </trkpt>
      <trkpt lat="43.49366" lon="6.1795">
        <ele>171.8</ele>
        <time>2024-03-27T15:05:52Z</time>
      </trkpt>
      <trkpt lat="43.49367" lon="6.17951">
        <ele>171.6</ele>
        <time>2024-03-27T15:05:53Z</time>
      </trkpt>
      <trkpt lat="43.49368" lon="6.17952">
        <ele>171.4</ele>
        <time>2024-03-27T15:05:54Z</time>
      </trkpt>
      <trkpt lat="43.49369" lon="6.17953">
        <ele>171.2</ele>
        <time>2024-03-27T15:05:55Z</time>
      </trkpt>
      <trkpt lat="43.4937" lon="6.17954">
        <ele>171.1</ele>
        <time>2024-03-27T15:05:56Z</time>
      </trkpt>
      <trkpt lat="43.49371" lon="6.17954">
        <ele>170.9</ele>
        <time>2024-03-27T15:05:57Z</time>
      </trkpt>
      <trkpt lat="43.49372" lon="6.17955">
        <ele>170.8</ele>
        <time>2024-03-27T15:05:58Z</time>
      </trkpt>
      <trkpt lat="43.49373" lon="6.17956">
        <ele>170.7</ele>
        <time>2024-03-27T15:05:59Z</time>
      </trkpt>
      <trkpt lat="43.49374" lon="6.17956">
        <ele>170.6</ele>
        <time>2024-03-27T15:06:00Z</time>
      </trkpt>
      <trkpt lat="43.49375" lon="6.17957">
        <ele>170.6</ele>
        <time>2024-03-27T15:06:01Z</time>
      </trkpt>
      <trkpt lat="43.49376" lon="6.17957">
        <ele>170.5</ele>
        <time>2024-03-27T15:06:02Z</time>
      </trkpt>
      <trkpt lat="43.49377" lon="6.17958">
        <ele>170.5</ele>
        <time>2024-03-27T15:06:03Z</time>
      </trkpt>
      <trkpt lat="43.49378" lon="6.17959">
        <ele>170.4</ele>
        <time>2024-03-27T15:06:04Z</time>
      </trkpt>
      <trkpt lat="43.49379" lon="6.1796">
        <ele>170.4</ele>
        <time>2024-03-27T15:06:05Z</time>
      </trkpt>
      <trkpt lat="43.4938" lon="6.1796">
        <ele>170.3</ele>
        <time>2024-03-27T15:06:06Z</time>
      </trkpt>
      <trkpt lat="43.49381" lon="6.1796">
        <ele>170.3</ele>
        <time>2024-03-27T15:06:07Z</time>
      </trkpt>
      <trkpt lat="43.49382" lon="6.17961">
        <ele>170.2</ele>
        <time>2024-03-27T15:06:08Z</time>
      </trkpt>
      <trkpt lat="43.49383" lon="6.17961">
        <ele>170.2</ele>
        <time>2024-03-27T15:06:09Z</time>
      </trkpt>
      <trkpt lat="43.49385" lon="6.17962">
        <ele>170.1</ele>
        <time>2024-03-27T15:06:10Z</time>
      </trkpt>
      <trkpt lat="43.49386" lon="6.17962">
        <ele>170.1</ele>
        <time>2024-03-27T15:06:11Z</time>
      </trkpt>
      <trkpt lat="43.49387" lon="6.17963">
        <ele>170.1</ele>
        <time>2024-03-27T15:06:12Z</time>
      </trkpt>
      <trkpt lat="43.49388" lon="6.17963">
        <ele>170.1</ele>
        <time>2024-03-27T15:06:13Z</time>
      </trkpt>
      <trkpt lat="43.49389" lon="6.17964">
        <ele>170.1</ele>
        <time>2024-03-27T15:06:14Z</time>
      </trkpt>
      <trkpt lat="43.4939" lon="6.17964">
        <ele>170.1</ele>
        <time>2024-03-27T15:06:15Z</time>
      </trkpt>
      <trkpt lat="43.49392" lon="6.17965">
        <ele>170</ele>
        <time>2024-03-27T15:06:16Z</time>
      </trkpt>
      <trkpt lat="43.49393" lon="6.17966">
        <ele>170</ele>
        <time>2024-03-27T15:06:17Z</time>
      </trkpt>
      <trkpt lat="43.49394" lon="6.17966">
        <ele>170</ele>
        <time>2024-03-27T15:06:18Z</time>
      </trkpt>
      <trkpt lat="43.49395" lon="6.17967">
        <ele>170.1</ele>
        <time>2024-03-27T15:06:19Z</time>
      </trkpt>
      <trkpt lat="43.49396" lon="6.17967">
        <ele>170.1</ele>
        <time>2024-03-27T15:06:20Z</time>
      </trkpt>
      <trkpt lat="43.49397" lon="6.17968">
        <ele>170.1</ele>
        <time>2024-03-27T15:06:21Z</time>
      </trkpt>
      <trkpt lat="43.49398" lon="6.17968">
        <ele>170.1</ele>
        <time>2024-03-27T15:06:22Z</time>
      </trkpt>
      <trkpt lat="43.49399" lon="6.17969">
        <ele>170</ele>
        <time>2024-03-27T15:06:23Z</time>
      </trkpt>
      <trkpt lat="43.494" lon="6.1797">
        <ele>169.9</ele>
        <time>2024-03-27T15:06:24Z</time>
      </trkpt>
      <trkpt lat="43.49401" lon="6.1797">
        <ele>169.9</ele>
        <time>2024-03-27T15:06:25Z</time>
      </trkpt>
      <trkpt lat="43.49402" lon="6.17972">
        <ele>169.8</ele>
        <time>2024-03-27T15:06:26Z</time>
      </trkpt>
      <trkpt lat="43.49403" lon="6.17972">
        <ele>169.8</ele>
        <time>2024-03-27T15:06:27Z</time>
      </trkpt>
      <trkpt lat="43.49404" lon="6.17973">
        <ele>169.6</ele>
        <time>2024-03-27T15:06:28Z</time>
      </trkpt>
      <trkpt lat="43.49405" lon="6.17973">
        <ele>169.4</ele>
        <time>2024-03-27T15:06:29Z</time>
      </trkpt>
      <trkpt lat="43.49406" lon="6.17974">
        <ele>169.2</ele>
        <time>2024-03-27T15:06:30Z</time>
      </trkpt>
      <trkpt lat="43.49407" lon="6.17975">
        <ele>169.1</ele>
        <time>2024-03-27T15:06:31Z</time>
      </trkpt>
      <trkpt lat="43.49408" lon="6.17976">
        <ele>169</ele>
        <time>2024-03-27T15:06:32Z</time>
      </trkpt>
      <trkpt lat="43.49409" lon="6.17976">
        <ele>168.9</ele>
        <time>2024-03-27T15:06:33Z</time>
      </trkpt>
      <trkpt lat="43.4941" lon="6.17977">
        <ele>168.9</ele>
        <time>2024-03-27T15:06:34Z</time>
      </trkpt>
      <trkpt lat="43.49411" lon="6.17977">
        <ele>168.9</ele>
        <time>2024-03-27T15:06:35Z</time>
      </trkpt>
      <trkpt lat="43.49412" lon="6.17978">
        <ele>168.9</ele>
        <time>2024-03-27T15:06:36Z</time>
      </trkpt>
      <trkpt lat="43.49413" lon="6.17979">
        <ele>168.9</ele>
        <time>2024-03-27T15:06:37Z</time>
      </trkpt>
      <trkpt lat="43.49413" lon="6.1798">
        <ele>168.9</ele>
        <time>2024-03-27T15:06:38Z</time>
      </trkpt>
      <trkpt lat="43.49414" lon="6.17981">
        <ele>168.8</ele>
        <time>2024-03-27T15:06:39Z</time>
      </trkpt>
      <trkpt lat="43.49415" lon="6.17982">
        <ele>168.6</ele>
        <time>2024-03-27T15:06:40Z</time>
      </trkpt>
      <trkpt lat="43.49416" lon="6.17983">
        <ele>168.5</ele>
        <time>2024-03-27T15:06:41Z</time>
      </trkpt>
      <trkpt lat="43.49417" lon="6.17983">
        <ele>168.4</ele>
        <time>2024-03-27T15:06:42Z</time>
      </trkpt>
      <trkpt lat="43.49418" lon="6.17984">
        <ele>168.3</ele>
        <time>2024-03-27T15:06:43Z</time>
      </trkpt>
      <trkpt lat="43.49419" lon="6.17985">
        <ele>168.5</ele>
        <time>2024-03-27T15:06:44Z</time>
      </trkpt>
      <trkpt lat="43.4942" lon="6.17985">
        <ele>168.4</ele>
        <time>2024-03-27T15:06:45Z</time>
      </trkpt>
      <trkpt lat="43.49421" lon="6.17986">
        <ele>168.3</ele>
        <time>2024-03-27T15:06:46Z</time>
      </trkpt>
      <trkpt lat="43.49422" lon="6.17987">
        <ele>168.3</ele>
        <time>2024-03-27T15:06:47Z</time>
      </trkpt>
      <trkpt lat="43.49424" lon="6.17988">
        <ele>168.2</ele>
        <time>2024-03-27T15:06:48Z</time>
      </trkpt>
      <trkpt lat="43.49425" lon="6.17989">
        <ele>168</ele>
        <time>2024-03-27T15:06:49Z</time>
      </trkpt>
      <trkpt lat="43.49425" lon="6.17989">
        <ele>167.9</ele>
        <time>2024-03-27T15:06:50Z</time>
      </trkpt>
      <trkpt lat="43.49426" lon="6.1799">
        <ele>167.7</ele>
        <time>2024-03-27T15:06:51Z</time>
      </trkpt>
      <trkpt lat="43.49427" lon="6.17991">
        <ele>167.5</ele>
        <time>2024-03-27T15:06:52Z</time>
      </trkpt>
      <trkpt lat="43.49428" lon="6.17991">
        <ele>167.4</ele>
        <time>2024-03-27T15:06:53Z</time>
      </trkpt>
      <trkpt lat="43.49429" lon="6.17991">
        <ele>167.3</ele>
        <time>2024-03-27T15:06:54Z</time>
      </trkpt>
      <trkpt lat="43.4943" lon="6.17993">
        <ele>167.2</ele>
        <time>2024-03-27T15:06:55Z</time>
      </trkpt>
      <trkpt lat="43.49431" lon="6.17994">
        <ele>167</ele>
        <time>2024-03-27T15:06:56Z</time>
      </trkpt>
      <trkpt lat="43.49432" lon="6.17994">
        <ele>166.9</ele>
        <time>2024-03-27T15:06:57Z</time>
      </trkpt>
      <trkpt lat="43.49434" lon="6.17995">
        <ele>166.8</ele>
        <time>2024-03-27T15:06:58Z</time>
      </trkpt>
      <trkpt lat="43.49435" lon="6.17995">
        <ele>166.7</ele>
        <time>2024-03-27T15:06:59Z</time>
      </trkpt>
      <trkpt lat="43.49436" lon="6.17995">
        <ele>166.5</ele>
        <time>2024-03-27T15:07:00Z</time>
      </trkpt>
      <trkpt lat="43.49437" lon="6.17995">
        <ele>166.4</ele>
        <time>2024-03-27T15:07:01Z</time>
      </trkpt>
      <trkpt lat="43.49438" lon="6.17996">
        <ele>166.3</ele>
        <time>2024-03-27T15:07:02Z</time>
      </trkpt>
      <trkpt lat="43.49439" lon="6.17996">
        <ele>166.2</ele>
        <time>2024-03-27T15:07:03Z</time>
      </trkpt>
      <trkpt lat="43.4944" lon="6.17997">
        <ele>166.2</ele>
        <time>2024-03-27T15:07:04Z</time>
      </trkpt>
      <trkpt lat="43.49441" lon="6.17997">
        <ele>166.1</ele>
        <time>2024-03-27T15:07:05Z</time>
      </trkpt>
      <trkpt lat="43.49442" lon="6.17997">
        <ele>165.9</ele>
        <time>2024-03-27T15:07:06Z</time>
      </trkpt>
      <trkpt lat="43.49443" lon="6.17998">
        <ele>165.8</ele>
        <time>2024-03-27T15:07:07Z</time>
      </trkpt>
      <trkpt lat="43.49444" lon="6.17998">
        <ele>165.7</ele>
        <time>2024-03-27T15:07:08Z</time>
      </trkpt>
      <trkpt lat="43.49445" lon="6.17999">
        <ele>165.6</ele>
        <time>2024-03-27T15:07:09Z</time>
      </trkpt>
      <trkpt lat="43.49446" lon="6.17999">
        <ele>165.5</ele>
        <time>2024-03-27T15:07:10Z</time>
      </trkpt>
      <trkpt lat="43.49447" lon="6.18">
        <ele>165.3</ele>
        <time>2024-03-27T15:07:11Z</time>
      </trkpt>
      <trkpt lat="43.49448" lon="6.18001">
        <ele>165.2</ele>
        <time>2024-03-27T15:07:12Z</time>
      </trkpt>
      <trkpt lat="43.49449" lon="6.18002">
        <ele>165.1</ele>
        <time>2024-03-27T15:07:13Z</time>
      </trkpt>
      <trkpt lat="43.4945" lon="6.18003">
        <ele>165</ele>
        <time>2024-03-27T15:07:14Z</time>
      </trkpt>
      <trkpt lat="43.49451" lon="6.18004">
        <ele>164.7</ele>
        <time>2024-03-27T15:07:15Z</time>
      </trkpt>
      <trkpt lat="43.49452" lon="6.18005">
        <ele>164.5</ele>
        <time>2024-03-27T15:07:16Z</time>
      </trkpt>
      <trkpt lat="43.49453" lon="6.18007">
        <ele>164.4</ele>
        <time>2024-03-27T15:07:17Z</time>
      </trkpt>
      <trkpt lat="43.49454" lon="6.18008">
        <ele>164.2</ele>
        <time>2024-03-27T15:07:18Z</time>
      </trkpt>
      <trkpt lat="43.49454" lon="6.18009">
        <ele>164.2</ele>
        <time>2024-03-27T15:07:19Z</time>
      </trkpt>
      <trkpt lat="43.49456" lon="6.1801">
        <ele>164.1</ele>
        <time>2024-03-27T15:07:20Z</time>
      </trkpt>
      <trkpt lat="43.49457" lon="6.1801">
        <ele>164</ele>
        <time>2024-03-27T15:07:21Z</time>
      </trkpt>
      <trkpt lat="43.49458" lon="6.18011">
        <ele>163.9</ele>
        <time>2024-03-27T15:07:22Z</time>
      </trkpt>
      <trkpt lat="43.49459" lon="6.18012">
        <ele>163.8</ele>
        <time>2024-03-27T15:07:23Z</time>
      </trkpt>
      <trkpt lat="43.49459" lon="6.18013">
        <ele>163.6</ele>
        <time>2024-03-27T15:07:24Z</time>
      </trkpt>
      <trkpt lat="43.4946" lon="6.18015">
        <ele>163.6</ele>
        <time>2024-03-27T15:07:25Z</time>
      </trkpt>
      <trkpt lat="43.49461" lon="6.18016">
        <ele>163.6</ele>
        <time>2024-03-27T15:07:26Z</time>
      </trkpt>
      <trkpt lat="43.49463" lon="6.18016">
        <ele>163.6</ele>
        <time>2024-03-27T15:07:27Z</time>
      </trkpt>
      <trkpt lat="43.49464" lon="6.18017">
        <ele>163.5</ele>
        <time>2024-03-27T15:07:28Z</time>
      </trkpt>
      <trkpt lat="43.49465" lon="6.18017">
        <ele>163.4</ele>
        <time>2024-03-27T15:07:29Z</time>
      </trkpt>
      <trkpt lat="43.49466" lon="6.18018">
        <ele>163.3</ele>
        <time>2024-03-27T15:07:30Z</time>
      </trkpt>
      <trkpt lat="43.49467" lon="6.18018">
        <ele>163.3</ele>
        <time>2024-03-27T15:07:31Z</time>
      </trkpt>
      <trkpt lat="43.49468" lon="6.18018">
        <ele>163.2</ele>
        <time>2024-03-27T15:07:32Z</time>
      </trkpt>
      <trkpt lat="43.49469" lon="6.18019">
        <ele>163.2</ele>
        <time>2024-03-27T15:07:33Z</time>
      </trkpt>
      <trkpt lat="43.4947" lon="6.18019">
        <ele>163.2</ele>
        <time>2024-03-27T15:07:34Z</time>
      </trkpt>
      <trkpt lat="43.49471" lon="6.1802">
        <ele>163.2</ele>
        <time>2024-03-27T15:07:35Z</time>
      </trkpt>
      <trkpt lat="43.49472" lon="6.1802">
        <ele>163.2</ele>
        <time>2024-03-27T15:07:36Z</time>
      </trkpt>
      <trkpt lat="43.49473" lon="6.18021">
        <ele>163.2</ele>
        <time>2024-03-27T15:07:37Z</time>
      </trkpt>
      <trkpt lat="43.49474" lon="6.18021">
        <ele>163.2</ele>
        <time>2024-03-27T15:07:38Z</time>
      </trkpt>
      <trkpt lat="43.49475" lon="6.18022">
        <ele>163.2</ele>
        <time>2024-03-27T15:07:39Z</time>
      </trkpt>
      <trkpt lat="43.49476" lon="6.18023">
        <ele>163.2</ele>
        <time>2024-03-27T15:07:40Z</time>
      </trkpt>
      <trkpt lat="43.49477" lon="6.18023">
        <ele>163.2</ele>
        <time>2024-03-27T15:07:41Z</time>
      </trkpt>
      <trkpt lat="43.49478" lon="6.18023">
        <ele>163.2</ele>
        <time>2024-03-27T15:07:42Z</time>
      </trkpt>
      <trkpt lat="43.49479" lon="6.18023">
        <ele>163.1</ele>
        <time>2024-03-27T15:07:43Z</time>
      </trkpt>
      <trkpt lat="43.4948" lon="6.18024">
        <ele>163</ele>
        <time>2024-03-27T15:07:44Z</time>
      </trkpt>
      <trkpt lat="43.49481" lon="6.18025">
        <ele>162.9</ele>
        <time>2024-03-27T15:07:45Z</time>
      </trkpt>
      <trkpt lat="43.49483" lon="6.18026">
        <ele>162.8</ele>
        <time>2024-03-27T15:07:46Z</time>
      </trkpt>
      <trkpt lat="43.49483" lon="6.18027">
        <ele>162.9</ele>
        <time>2024-03-27T15:07:47Z</time>
      </trkpt>
      <trkpt lat="43.49484" lon="6.18027">
        <ele>162.8</ele>
        <time>2024-03-27T15:07:48Z</time>
      </trkpt>
      <trkpt lat="43.49485" lon="6.18028">
        <ele>162.8</ele>
        <time>2024-03-27T15:07:49Z</time>
      </trkpt>
      <trkpt lat="43.49486" lon="6.18028">
        <ele>162.7</ele>
        <time>2024-03-27T15:07:50Z</time>
      </trkpt>
      <trkpt lat="43.49487" lon="6.18029">
        <ele>162.7</ele>
        <time>2024-03-27T15:07:51Z</time>
      </trkpt>
      <trkpt lat="43.49488" lon="6.1803">
        <ele>162.7</ele>
        <time>2024-03-27T15:07:52Z</time>
      </trkpt>
      <trkpt lat="43.49489" lon="6.18031">
        <ele>162.6</ele>
        <time>2024-03-27T15:07:53Z</time>
      </trkpt>
      <trkpt lat="43.4949" lon="6.18032">
        <ele>162.6</ele>
        <time>2024-03-27T15:07:54Z</time>
      </trkpt>
      <trkpt lat="43.49491" lon="6.18032">
        <ele>162.6</ele>
        <time>2024-03-27T15:07:55Z</time>
      </trkpt>
      <trkpt lat="43.49492" lon="6.18033">
        <ele>162.6</ele>
        <time>2024-03-27T15:07:56Z</time>
      </trkpt>
      <trkpt lat="43.49493" lon="6.18034">
        <ele>162.6</ele>
        <time>2024-03-27T15:07:57Z</time>
      </trkpt>
      <trkpt lat="43.49494" lon="6.18034">
        <ele>162.7</ele>
        <time>2024-03-27T15:07:58Z</time>
      </trkpt>
      <trkpt lat="43.49495" lon="6.18035">
        <ele>162.7</ele>
        <time>2024-03-27T15:07:59Z</time>
      </trkpt>
      <trkpt lat="43.49495" lon="6.18036">
        <ele>162.7</ele>
        <time>2024-03-27T15:08:00Z</time>
      </trkpt>
      <trkpt lat="43.49496" lon="6.18037">
        <ele>162.7</ele>
        <time>2024-03-27T15:08:01Z</time>
      </trkpt>
      <trkpt lat="43.49497" lon="6.18038">
        <ele>162.7</ele>
        <time>2024-03-27T15:08:02Z</time>
      </trkpt>
      <trkpt lat="43.49498" lon="6.18039">
        <ele>162.8</ele>
        <time>2024-03-27T15:08:03Z</time>
      </trkpt>
      <trkpt lat="43.49499" lon="6.1804">
        <ele>162.8</ele>
        <time>2024-03-27T15:08:04Z</time>
      </trkpt>
      <trkpt lat="43.495" lon="6.1804">
        <ele>162.9</ele>
        <time>2024-03-27T15:08:05Z</time>
      </trkpt>
      <trkpt lat="43.49501" lon="6.18041">
        <ele>162.9</ele>
        <time>2024-03-27T15:08:06Z</time>
      </trkpt>
      <trkpt lat="43.49502" lon="6.18041">
        <ele>163</ele>
        <time>2024-03-27T15:08:07Z</time>
      </trkpt>
      <trkpt lat="43.49503" lon="6.18042">
        <ele>163</ele>
        <time>2024-03-27T15:08:08Z</time>
      </trkpt>
      <trkpt lat="43.49504" lon="6.18042">
        <ele>163.1</ele>
        <time>2024-03-27T15:08:09Z</time>
      </trkpt>
      <trkpt lat="43.49505" lon="6.18043">
        <ele>163.4</ele>
        <time>2024-03-27T15:08:10Z</time>
      </trkpt>
      <trkpt lat="43.49506" lon="6.18044">
        <ele>163.5</ele>
        <time>2024-03-27T15:08:11Z</time>
      </trkpt>
      <trkpt lat="43.49507" lon="6.18045">
        <ele>163.6</ele>
        <time>2024-03-27T15:08:12Z</time>
      </trkpt>
      <trkpt lat="43.49508" lon="6.18045">
        <ele>163.7</ele>
        <time>2024-03-27T15:08:13Z</time>
      </trkpt>
      <trkpt lat="43.49509" lon="6.18046">
        <ele>163.8</ele>
        <time>2024-03-27T15:08:14Z</time>
      </trkpt>
      <trkpt lat="43.49509" lon="6.18046">
        <ele>164.1</ele>
        <time>2024-03-27T15:08:15Z</time>
      </trkpt>
      <trkpt lat="43.4951" lon="6.18046">
        <ele>164.2</ele>
        <time>2024-03-27T15:08:16Z</time>
      </trkpt>
      <trkpt lat="43.49511" lon="6.18047">
        <ele>164.3</ele>
        <time>2024-03-27T15:08:17Z</time>
      </trkpt>
      <trkpt lat="43.49512" lon="6.18047">
        <ele>164.4</ele>
        <time>2024-03-27T15:08:18Z</time>
      </trkpt>
      <trkpt lat="43.49513" lon="6.18048">
        <ele>164.5</ele>
        <time>2024-03-27T15:08:19Z</time>
      </trkpt>
      <trkpt lat="43.49513" lon="6.18048">
        <ele>164.6</ele>
        <time>2024-03-27T15:08:20Z</time>
      </trkpt>
      <trkpt lat="43.49514" lon="6.18049">
        <ele>164.6</ele>
        <time>2024-03-27T15:08:21Z</time>
      </trkpt>
      <trkpt lat="43.49515" lon="6.18049">
        <ele>164.6</ele>
        <time>2024-03-27T15:08:22Z</time>
      </trkpt>
      <trkpt lat="43.49516" lon="6.1805">
        <ele>164.6</ele>
        <time>2024-03-27T15:08:23Z</time>
      </trkpt>
      <trkpt lat="43.49517" lon="6.1805">
        <ele>164.6</ele>
        <time>2024-03-27T15:08:24Z</time>
      </trkpt>
      <trkpt lat="43.49518" lon="6.18051">
        <ele>164.6</ele>
        <time>2024-03-27T15:08:25Z</time>
      </trkpt>
      <trkpt lat="43.49519" lon="6.18052">
        <ele>164.7</ele>
        <time>2024-03-27T15:08:26Z</time>
      </trkpt>
      <trkpt lat="43.4952" lon="6.18052">
        <ele>164.7</ele>
        <time>2024-03-27T15:08:27Z</time>
      </trkpt>
      <trkpt lat="43.49521" lon="6.18053">
        <ele>164.8</ele>
        <time>2024-03-27T15:08:28Z</time>
      </trkpt>
      <trkpt lat="43.49522" lon="6.18054">
        <ele>164.8</ele>
        <time>2024-03-27T15:08:29Z</time>
      </trkpt>
      <trkpt lat="43.49523" lon="6.18055">
        <ele>164.8</ele>
        <time>2024-03-27T15:08:30Z</time>
      </trkpt>
      <trkpt lat="43.49523" lon="6.18055">
        <ele>164.9</ele>
        <time>2024-03-27T15:08:31Z</time>
      </trkpt>
      <trkpt lat="43.49524" lon="6.18056">
        <ele>165</ele>
        <time>2024-03-27T15:08:32Z</time>
      </trkpt>
      <trkpt lat="43.49525" lon="6.18056">
        <ele>165.1</ele>
        <time>2024-03-27T15:08:33Z</time>
      </trkpt>
      <trkpt lat="43.49527" lon="6.18056">
        <ele>165.2</ele>
        <time>2024-03-27T15:08:34Z</time>
      </trkpt>
      <trkpt lat="43.49528" lon="6.18057">
        <ele>165.2</ele>
        <time>2024-03-27T15:08:35Z</time>
      </trkpt>
      <trkpt lat="43.49529" lon="6.18057">
        <ele>165.4</ele>
        <time>2024-03-27T15:08:36Z</time>
      </trkpt>
      <trkpt lat="43.4953" lon="6.18058">
        <ele>165.5</ele>
        <time>2024-03-27T15:08:37Z</time>
      </trkpt>
      <trkpt lat="43.4953" lon="6.18058">
        <ele>165.6</ele>
        <time>2024-03-27T15:08:38Z</time>
      </trkpt>
      <trkpt lat="43.49531" lon="6.18059">
        <ele>165.7</ele>
        <time>2024-03-27T15:08:39Z</time>
      </trkpt>
      <trkpt lat="43.49532" lon="6.1806">
        <ele>165.7</ele>
        <time>2024-03-27T15:08:40Z</time>
      </trkpt>
      <trkpt lat="43.49533" lon="6.18061">
        <ele>165.9</ele>
        <time>2024-03-27T15:08:41Z</time>
      </trkpt>
      <trkpt lat="43.49534" lon="6.18062">
        <ele>166</ele>
        <time>2024-03-27T15:08:42Z</time>
      </trkpt>
      <trkpt lat="43.49535" lon="6.18063">
        <ele>166</ele>
        <time>2024-03-27T15:08:43Z</time>
      </trkpt>
      <trkpt lat="43.49536" lon="6.18064">
        <ele>166.2</ele>
        <time>2024-03-27T15:08:44Z</time>
      </trkpt>
      <trkpt lat="43.49537" lon="6.18064">
        <ele>166.3</ele>
        <time>2024-03-27T15:08:45Z</time>
      </trkpt>
      <trkpt lat="43.49538" lon="6.18065">
        <ele>166.3</ele>
        <time>2024-03-27T15:08:46Z</time>
      </trkpt>
      <trkpt lat="43.49539" lon="6.18066">
        <ele>166.4</ele>
        <time>2024-03-27T15:08:47Z</time>
      </trkpt>
      <trkpt lat="43.49539" lon="6.18067">
        <ele>166.4</ele>
        <time>2024-03-27T15:08:48Z</time>
      </trkpt>
      <trkpt lat="43.4954" lon="6.18067">
        <ele>166.4</ele>
        <time>2024-03-27T15:08:49Z</time>
      </trkpt>
      <trkpt lat="43.49541" lon="6.18068">
        <ele>166.5</ele>
        <time>2024-03-27T15:08:50Z</time>
      </trkpt>
      <trkpt lat="43.49542" lon="6.18068">
        <ele>166.6</ele>
        <time>2024-03-27T15:08:51Z</time>
      </trkpt>
      <trkpt lat="43.49542" lon="6.18069">
        <ele>166.6</ele>
        <time>2024-03-27T15:08:52Z</time>
      </trkpt>
      <trkpt lat="43.49543" lon="6.18069">
        <ele>166.6</ele>
        <time>2024-03-27T15:08:53Z</time>
      </trkpt>
      <trkpt lat="43.49544" lon="6.1807">
        <ele>166.7</ele>
        <time>2024-03-27T15:08:54Z</time>
      </trkpt>
      <trkpt lat="43.49545" lon="6.18071">
        <ele>166.7</ele>
        <time>2024-03-27T15:08:55Z</time>
      </trkpt>
      <trkpt lat="43.49546" lon="6.1807">
        <ele>166.8</ele>
        <time>2024-03-27T15:08:56Z</time>
      </trkpt>
      <trkpt lat="43.49547" lon="6.18071">
        <ele>166.8</ele>
        <time>2024-03-27T15:08:57Z</time>
      </trkpt>
      <trkpt lat="43.49547" lon="6.18071">
        <ele>166.9</ele>
        <time>2024-03-27T15:08:58Z</time>
      </trkpt>
      <trkpt lat="43.49548" lon="6.18071">
        <ele>166.9</ele>
        <time>2024-03-27T15:08:59Z</time>
      </trkpt>
      <trkpt lat="43.49549" lon="6.18072">
        <ele>166.9</ele>
        <time>2024-03-27T15:09:00Z</time>
      </trkpt>
      <trkpt lat="43.4955" lon="6.18072">
        <ele>167</ele>
        <time>2024-03-27T15:09:01Z</time>
      </trkpt>
      <trkpt lat="43.49551" lon="6.18073">
        <ele>166.9</ele>
        <time>2024-03-27T15:09:02Z</time>
      </trkpt>
      <trkpt lat="43.49552" lon="6.18073">
        <ele>166.8</ele>
        <time>2024-03-27T15:09:03Z</time>
      </trkpt>
      <trkpt lat="43.49553" lon="6.18073">
        <ele>166.7</ele>
        <time>2024-03-27T15:09:04Z</time>
      </trkpt>
      <trkpt lat="43.49554" lon="6.18074">
        <ele>166.8</ele>
        <time>2024-03-27T15:09:05Z</time>
      </trkpt>
      <trkpt lat="43.49555" lon="6.18074">
        <ele>166.9</ele>
        <time>2024-03-27T15:09:06Z</time>
      </trkpt>
      <trkpt lat="43.49556" lon="6.18075">
        <ele>166.9</ele>
        <time>2024-03-27T15:09:07Z</time>
      </trkpt>
      <trkpt lat="43.49557" lon="6.18076">
        <ele>167</ele>
        <time>2024-03-27T15:09:08Z</time>
      </trkpt>
      <trkpt lat="43.49558" lon="6.18076">
        <ele>167.1</ele>
        <time>2024-03-27T15:09:09Z</time>
      </trkpt>
      <trkpt lat="43.49559" lon="6.18077">
        <ele>167.2</ele>
        <time>2024-03-27T15:09:10Z</time>
      </trkpt>
      <trkpt lat="43.4956" lon="6.18077">
        <ele>167.2</ele>
        <time>2024-03-27T15:09:11Z</time>
      </trkpt>
      <trkpt lat="43.49561" lon="6.18077">
        <ele>167.3</ele>
        <time>2024-03-27T15:09:12Z</time>
      </trkpt>
      <trkpt lat="43.49562" lon="6.18078">
        <ele>167.4</ele>
        <time>2024-03-27T15:09:13Z</time>
      </trkpt>
      <trkpt lat="43.49563" lon="6.18079">
        <ele>167.4</ele>
        <time>2024-03-27T15:09:14Z</time>
      </trkpt>
      <trkpt lat="43.49564" lon="6.18079">
        <ele>167.5</ele>
        <time>2024-03-27T15:09:15Z</time>
      </trkpt>
      <trkpt lat="43.49565" lon="6.1808">
        <ele>167.6</ele>
        <time>2024-03-27T15:09:16Z</time>
      </trkpt>
      <trkpt lat="43.49566" lon="6.1808">
        <ele>167.7</ele>
        <time>2024-03-27T15:09:17Z</time>
      </trkpt>
      <trkpt lat="43.49567" lon="6.18081">
        <ele>167.9</ele>
        <time>2024-03-27T15:09:18Z</time>
      </trkpt>
      <trkpt lat="43.49568" lon="6.18081">
        <ele>168</ele>
        <time>2024-03-27T15:09:19Z</time>
      </trkpt>
      <trkpt lat="43.4957" lon="6.18082">
        <ele>168.1</ele>
        <time>2024-03-27T15:09:20Z</time>
      </trkpt>
      <trkpt lat="43.49571" lon="6.18083">
        <ele>168.2</ele>
        <time>2024-03-27T15:09:21Z</time>
      </trkpt>
      <trkpt lat="43.49572" lon="6.18084">
        <ele>168.3</ele>
        <time>2024-03-27T15:09:22Z</time>
      </trkpt>
      <trkpt lat="43.49573" lon="6.18084">
        <ele>168.3</ele>
        <time>2024-03-27T15:09:23Z</time>
      </trkpt>
      <trkpt lat="43.49573" lon="6.18085">
        <ele>168.4</ele>
        <time>2024-03-27T15:09:24Z</time>
      </trkpt>
      <trkpt lat="43.49574" lon="6.18085">
        <ele>168.4</ele>
        <time>2024-03-27T15:09:25Z</time>
      </trkpt>
      <trkpt lat="43.49575" lon="6.18086">
        <ele>168.4</ele>
        <time>2024-03-27T15:09:26Z</time>
      </trkpt>
      <trkpt lat="43.49576" lon="6.18087">
        <ele>168.4</ele>
        <time>2024-03-27T15:09:27Z</time>
      </trkpt>
      <trkpt lat="43.49577" lon="6.18087">
        <ele>168.5</ele>
        <time>2024-03-27T15:09:28Z</time>
      </trkpt>
      <trkpt lat="43.49578" lon="6.18088">
        <ele>168.5</ele>
        <time>2024-03-27T15:09:29Z</time>
      </trkpt>
      <trkpt lat="43.49579" lon="6.18088">
        <ele>168.7</ele>
        <time>2024-03-27T15:09:30Z</time>
      </trkpt>
      <trkpt lat="43.4958" lon="6.18089">
        <ele>168.8</ele>
        <time>2024-03-27T15:09:31Z</time>
      </trkpt>
      <trkpt lat="43.49581" lon="6.18089">
        <ele>168.9</ele>
        <time>2024-03-27T15:09:32Z</time>
      </trkpt>
      <trkpt lat="43.49582" lon="6.1809">
        <ele>169.1</ele>
        <time>2024-03-27T15:09:33Z</time>
      </trkpt>
      <trkpt lat="43.49583" lon="6.1809">
        <ele>169.2</ele>
        <time>2024-03-27T15:09:34Z</time>
      </trkpt>
      <trkpt lat="43.49584" lon="6.18091">
        <ele>169.2</ele>
        <time>2024-03-27T15:09:35Z</time>
      </trkpt>
      <trkpt lat="43.49584" lon="6.18092">
        <ele>169.2</ele>
        <time>2024-03-27T15:09:36Z</time>
      </trkpt>
      <trkpt lat="43.49585" lon="6.18093">
        <ele>169.1</ele>
        <time>2024-03-27T15:09:37Z</time>
      </trkpt>
      <trkpt lat="43.49586" lon="6.18093">
        <ele>169.1</ele>
        <time>2024-03-27T15:09:38Z</time>
      </trkpt>
      <trkpt lat="43.49587" lon="6.18094">
        <ele>169</ele>
        <time>2024-03-27T15:09:39Z</time>
      </trkpt>
      <trkpt lat="43.49588" lon="6.18095">
        <ele>169</ele>
        <time>2024-03-27T15:09:40Z</time>
      </trkpt>
      <trkpt lat="43.49589" lon="6.18096">
        <ele>169</ele>
        <time>2024-03-27T15:09:41Z</time>
      </trkpt>
      <trkpt lat="43.4959" lon="6.18096">
        <ele>169</ele>
        <time>2024-03-27T15:09:42Z</time>
      </trkpt>
      <trkpt lat="43.49591" lon="6.18097">
        <ele>169</ele>
        <time>2024-03-27T15:09:43Z</time>
      </trkpt>
      <trkpt lat="43.49592" lon="6.18097">
        <ele>169.1</ele>
        <time>2024-03-27T15:09:44Z</time>
      </trkpt>
      <trkpt lat="43.49593" lon="6.18098">
        <ele>169.2</ele>
        <time>2024-03-27T15:09:45Z</time>
      </trkpt>
      <trkpt lat="43.49594" lon="6.18099">
        <ele>169.2</ele>
        <time>2024-03-27T15:09:46Z</time>
      </trkpt>
      <trkpt lat="43.49594" lon="6.18099">
        <ele>169.3</ele>
        <time>2024-03-27T15:09:47Z</time>
      </trkpt>
      <trkpt lat="43.49595" lon="6.181">
        <ele>169.3</ele>
        <time>2024-03-27T15:09:48Z</time>
      </trkpt>
      <trkpt lat="43.49596" lon="6.181">
        <ele>169.4</ele>
        <time>2024-03-27T15:09:49Z</time>
      </trkpt>
      <trkpt lat="43.49597" lon="6.18101">
        <ele>169.5</ele>
        <time>2024-03-27T15:09:50Z</time>
      </trkpt>
      <trkpt lat="43.49598" lon="6.18101">
        <ele>169.6</ele>
        <time>2024-03-27T15:09:51Z</time>
      </trkpt>
      <trkpt lat="43.49599" lon="6.18101">
        <ele>169.7</ele>
        <time>2024-03-27T15:09:52Z</time>
      </trkpt>
      <trkpt lat="43.49599" lon="6.18101">
        <ele>169.7</ele>
        <time>2024-03-27T15:09:53Z</time>
      </trkpt>
      <trkpt lat="43.496" lon="6.18102">
        <ele>169.8</ele>
        <time>2024-03-27T15:09:54Z</time>
      </trkpt>
      <trkpt lat="43.49601" lon="6.18102">
        <ele>169.9</ele>
        <time>2024-03-27T15:09:55Z</time>
      </trkpt>
      <trkpt lat="43.49603" lon="6.18102">
        <ele>169.9</ele>
        <time>2024-03-27T15:09:56Z</time>
      </trkpt>
      <trkpt lat="43.49604" lon="6.18103">
        <ele>169.9</ele>
        <time>2024-03-27T15:09:57Z</time>
      </trkpt>
      <trkpt lat="43.49604" lon="6.18103">
        <ele>170</ele>
        <time>2024-03-27T15:09:58Z</time>
      </trkpt>
      <trkpt lat="43.49605" lon="6.18104">
        <ele>170</ele>
        <time>2024-03-27T15:09:59Z</time>
      </trkpt>
      <trkpt lat="43.49606" lon="6.18104">
        <ele>170.1</ele>
        <time>2024-03-27T15:10:00Z</time>
      </trkpt>
      <trkpt lat="43.49607" lon="6.18104">
        <ele>170.1</ele>
        <time>2024-03-27T15:10:01Z</time>
      </trkpt>
      <trkpt lat="43.49608" lon="6.18104">
        <ele>170.1</ele>
        <time>2024-03-27T15:10:02Z</time>
      </trkpt>
      <trkpt lat="43.49609" lon="6.18105">
        <ele>170.1</ele>
        <time>2024-03-27T15:10:03Z</time>
      </trkpt>
      <trkpt lat="43.4961" lon="6.18105">
        <ele>170.1</ele>
        <time>2024-03-27T15:10:04Z</time>
      </trkpt>
      <trkpt lat="43.49611" lon="6.18106">
        <ele>170.3</ele>
        <time>2024-03-27T15:10:05Z</time>
      </trkpt>
      <trkpt lat="43.49611" lon="6.18106">
        <ele>170.4</ele>
        <time>2024-03-27T15:10:06Z</time>
      </trkpt>
      <trkpt lat="43.49612" lon="6.18107">
        <ele>170.5</ele>
        <time>2024-03-27T15:10:07Z</time>
      </trkpt>
      <trkpt lat="43.49613" lon="6.18107">
        <ele>170.5</ele>
        <time>2024-03-27T15:10:08Z</time>
      </trkpt>
      <trkpt lat="43.49613" lon="6.18108">
        <ele>170.6</ele>
        <time>2024-03-27T15:10:09Z</time>
      </trkpt>
      <trkpt lat="43.49614" lon="6.18109">
        <ele>170.6</ele>
        <time>2024-03-27T15:10:10Z</time>
      </trkpt>
      <trkpt lat="43.49615" lon="6.18109">
        <ele>170.6</ele>
        <time>2024-03-27T15:10:11Z</time>
      </trkpt>
      <trkpt lat="43.49616" lon="6.18109">
        <ele>170.6</ele>
        <time>2024-03-27T15:10:12Z</time>
      </trkpt>
      <trkpt lat="43.49617" lon="6.1811">
        <ele>170.6</ele>
        <time>2024-03-27T15:10:13Z</time>
      </trkpt>
      <trkpt lat="43.49617" lon="6.18111">
        <ele>170.6</ele>
        <time>2024-03-27T15:10:14Z</time>
      </trkpt>
      <trkpt lat="43.49618" lon="6.18111">
        <ele>170.7</ele>
        <time>2024-03-27T15:10:15Z</time>
      </trkpt>
      <trkpt lat="43.49619" lon="6.18112">
        <ele>170.8</ele>
        <time>2024-03-27T15:10:16Z</time>
      </trkpt>
      <trkpt lat="43.4962" lon="6.18112">
        <ele>170.8</ele>
        <time>2024-03-27T15:10:17Z</time>
      </trkpt>
      <trkpt lat="43.4962" lon="6.18112">
        <ele>171</ele>
        <time>2024-03-27T15:10:18Z</time>
      </trkpt>
      <trkpt lat="43.49621" lon="6.18113">
        <ele>171.1</ele>
        <time>2024-03-27T15:10:19Z</time>
      </trkpt>
      <trkpt lat="43.49622" lon="6.18113">
        <ele>171.3</ele>
        <time>2024-03-27T15:10:20Z</time>
      </trkpt>
      <trkpt lat="43.49623" lon="6.18114">
        <ele>171.3</ele>
        <time>2024-03-27T15:10:21Z</time>
      </trkpt>
      <trkpt lat="43.49624" lon="6.18114">
        <ele>171.4</ele>
        <time>2024-03-27T15:10:22Z</time>
      </trkpt>
      <trkpt lat="43.49625" lon="6.18115">
        <ele>171.6</ele>
        <time>2024-03-27T15:10:23Z</time>
      </trkpt>
      <trkpt lat="43.49626" lon="6.18116">
        <ele>171.7</ele>
        <time>2024-03-27T15:10:24Z</time>
      </trkpt>
      <trkpt lat="43.49627" lon="6.18115">
        <ele>171.7</ele>
        <time>2024-03-27T15:10:25Z</time>
      </trkpt>
      <trkpt lat="43.49627" lon="6.18116">
        <ele>171.7</ele>
        <time>2024-03-27T15:10:26Z</time>
      </trkpt>
      <trkpt lat="43.49628" lon="6.18117">
        <ele>171.8</ele>
        <time>2024-03-27T15:10:27Z</time>
      </trkpt>
      <trkpt lat="43.49629" lon="6.18118">
        <ele>171.9</ele>
        <time>2024-03-27T15:10:28Z</time>
      </trkpt>
      <trkpt lat="43.4963" lon="6.18119">
        <ele>171.9</ele>
        <time>2024-03-27T15:10:29Z</time>
      </trkpt>
      <trkpt lat="43.49631" lon="6.18119">
        <ele>172</ele>
        <time>2024-03-27T15:10:30Z</time>
      </trkpt>
      <trkpt lat="43.49632" lon="6.1812">
        <ele>172.1</ele>
        <time>2024-03-27T15:10:31Z</time>
      </trkpt>
      <trkpt lat="43.49632" lon="6.1812">
        <ele>172.1</ele>
        <time>2024-03-27T15:10:32Z</time>
      </trkpt>
      <trkpt lat="43.49633" lon="6.1812">
        <ele>172.2</ele>
        <time>2024-03-27T15:10:33Z</time>
      </trkpt>
      <trkpt lat="43.49634" lon="6.1812">
        <ele>172.2</ele>
        <time>2024-03-27T15:10:34Z</time>
      </trkpt>
      <trkpt lat="43.49635" lon="6.1812">
        <ele>172.3</ele>
        <time>2024-03-27T15:10:35Z</time>
      </trkpt>
      <trkpt lat="43.49635" lon="6.18121">
        <ele>172.4</ele>
        <time>2024-03-27T15:10:36Z</time>
      </trkpt>
      <trkpt lat="43.49636" lon="6.18121">
        <ele>172.5</ele>
        <time>2024-03-27T15:10:37Z</time>
      </trkpt>
      <trkpt lat="43.49637" lon="6.18122">
        <ele>172.7</ele>
        <time>2024-03-27T15:10:38Z</time>
      </trkpt>
      <trkpt lat="43.49638" lon="6.18122">
        <ele>172.9</ele>
        <time>2024-03-27T15:10:39Z</time>
      </trkpt>
      <trkpt lat="43.49639" lon="6.18122">
        <ele>173</ele>
        <time>2024-03-27T15:10:40Z</time>
      </trkpt>
      <trkpt lat="43.4964" lon="6.18123">
        <ele>173.1</ele>
        <time>2024-03-27T15:10:41Z</time>
      </trkpt>
      <trkpt lat="43.4964" lon="6.18123">
        <ele>173.2</ele>
        <time>2024-03-27T15:10:42Z</time>
      </trkpt>
      <trkpt lat="43.49641" lon="6.18124">
        <ele>173.3</ele>
        <time>2024-03-27T15:10:43Z</time>
      </trkpt>
      <trkpt lat="43.49642" lon="6.18124">
        <ele>173.5</ele>
        <time>2024-03-27T15:10:44Z</time>
      </trkpt>
      <trkpt lat="43.49643" lon="6.18125">
        <ele>173.6</ele>
        <time>2024-03-27T15:10:45Z</time>
      </trkpt>
      <trkpt lat="43.49644" lon="6.18125">
        <ele>173.6</ele>
        <time>2024-03-27T15:10:46Z</time>
      </trkpt>
      <trkpt lat="43.49644" lon="6.18124">
        <ele>173.7</ele>
        <time>2024-03-27T15:10:47Z</time>
      </trkpt>
      <trkpt lat="43.49645" lon="6.18124">
        <ele>173.8</ele>
        <time>2024-03-27T15:10:48Z</time>
      </trkpt>
      <trkpt lat="43.49646" lon="6.18124">
        <ele>173.8</ele>
        <time>2024-03-27T15:10:49Z</time>
      </trkpt>
      <trkpt lat="43.49647" lon="6.18124">
        <ele>173.9</ele>
        <time>2024-03-27T15:10:50Z</time>
      </trkpt>
      <trkpt lat="43.49649" lon="6.18124">
        <ele>173.9</ele>
        <time>2024-03-27T15:10:51Z</time>
      </trkpt>
      <trkpt lat="43.4965" lon="6.18124">
        <ele>174</ele>
        <time>2024-03-27T15:10:52Z</time>
      </trkpt>
      <trkpt lat="43.49651" lon="6.18125">
        <ele>174</ele>
        <time>2024-03-27T15:10:53Z</time>
      </trkpt>
      <trkpt lat="43.49652" lon="6.18125">
        <ele>174.1</ele>
        <time>2024-03-27T15:10:54Z</time>
      </trkpt>
      <trkpt lat="43.49653" lon="6.18126">
        <ele>174.3</ele>
        <time>2024-03-27T15:10:55Z</time>
      </trkpt>
      <trkpt lat="43.49654" lon="6.18126">
        <ele>174.3</ele>
        <time>2024-03-27T15:10:56Z</time>
      </trkpt>
      <trkpt lat="43.49655" lon="6.18125">
        <ele>174.4</ele>
        <time>2024-03-27T15:10:57Z</time>
      </trkpt>
      <trkpt lat="43.49656" lon="6.18125">
        <ele>174.2</ele>
        <time>2024-03-27T15:10:58Z</time>
      </trkpt>
      <trkpt lat="43.49657" lon="6.18125">
        <ele>174.2</ele>
        <time>2024-03-27T15:10:59Z</time>
      </trkpt>
      <trkpt lat="43.49658" lon="6.18124">
        <ele>174.2</ele>
        <time>2024-03-27T15:11:00Z</time>
      </trkpt>
      <trkpt lat="43.49659" lon="6.18124">
        <ele>174.2</ele>
        <time>2024-03-27T15:11:01Z</time>
      </trkpt>
      <trkpt lat="43.49659" lon="6.18124">
        <ele>174.1</ele>
        <time>2024-03-27T15:11:02Z</time>
      </trkpt>
      <trkpt lat="43.49661" lon="6.18124">
        <ele>174.2</ele>
        <time>2024-03-27T15:11:03Z</time>
      </trkpt>
      <trkpt lat="43.49661" lon="6.18124">
        <ele>174.2</ele>
        <time>2024-03-27T15:11:04Z</time>
      </trkpt>
      <trkpt lat="43.49662" lon="6.18124">
        <ele>174.3</ele>
        <time>2024-03-27T15:11:05Z</time>
      </trkpt>
      <trkpt lat="43.49663" lon="6.18124">
        <ele>174.4</ele>
        <time>2024-03-27T15:11:06Z</time>
      </trkpt>
      <trkpt lat="43.49663" lon="6.18123">
        <ele>174.4</ele>
        <time>2024-03-27T15:11:07Z</time>
      </trkpt>
      <trkpt lat="43.49663" lon="6.18124">
        <ele>174.5</ele>
        <time>2024-03-27T15:11:08Z</time>
      </trkpt>
      <trkpt lat="43.49664" lon="6.18124">
        <ele>174.5</ele>
        <time>2024-03-27T15:11:09Z</time>
      </trkpt>
      <trkpt lat="43.49664" lon="6.18124">
        <ele>174.5</ele>
        <time>2024-03-27T15:11:10Z</time>
      </trkpt>
      <trkpt lat="43.49664" lon="6.18124">
        <ele>174.5</ele>
        <time>2024-03-27T15:11:11Z</time>
      </trkpt>
      <trkpt lat="43.49664" lon="6.18124">
        <ele>174.4</ele>
        <time>2024-03-27T15:11:12Z</time>
      </trkpt>
      <trkpt lat="43.49664" lon="6.18123">
        <ele>174.4</ele>
        <time>2024-03-27T15:11:13Z</time>
      </trkpt>
      <trkpt lat="43.49665" lon="6.18123">
        <ele>174.5</ele>
        <time>2024-03-27T15:11:14Z</time>
      </trkpt>
      <trkpt lat="43.49665" lon="6.18124">
        <ele>174.5</ele>
        <time>2024-03-27T15:11:15Z</time>
      </trkpt>
      <trkpt lat="43.49665" lon="6.18123">
        <ele>174.5</ele>
        <time>2024-03-27T15:11:16Z</time>
      </trkpt>
      <trkpt lat="43.49665" lon="6.18123">
        <ele>174.5</ele>
        <time>2024-03-27T15:11:17Z</time>
      </trkpt>
      <trkpt lat="43.49665" lon="6.18123">
        <ele>174.6</ele>
        <time>2024-03-27T15:11:18Z</time>
      </trkpt>
      <trkpt lat="43.49665" lon="6.18123">
        <ele>174.7</ele>
        <time>2024-03-27T15:11:19Z</time>
      </trkpt>
      <trkpt lat="43.49666" lon="6.18123">
        <ele>174.7</ele>
        <time>2024-03-27T15:11:20Z</time>
      </trkpt>
      <trkpt lat="43.49666" lon="6.18123">
        <ele>174.8</ele>
        <time>2024-03-27T15:11:21Z</time>
      </trkpt>
      <trkpt lat="43.49666" lon="6.18123">
        <ele>174.8</ele>
        <time>2024-03-27T15:11:22Z</time>
      </trkpt>
      <trkpt lat="43.49666" lon="6.18123">
        <ele>174.8</ele>
        <time>2024-03-27T15:11:23Z</time>
      </trkpt>
      <trkpt lat="43.49666" lon="6.18123">
        <ele>174.8</ele>
        <time>2024-03-27T15:11:24Z</time>
      </trkpt>
      <trkpt lat="43.49666" lon="6.18123">
        <ele>174.9</ele>
        <time>2024-03-27T15:11:25Z</time>
      </trkpt>
      <trkpt lat="43.49667" lon="6.18123">
        <ele>174.9</ele>
        <time>2024-03-27T15:11:26Z</time>
      </trkpt>
      <trkpt lat="43.49667" lon="6.18123">
        <ele>175</ele>
        <time>2024-03-27T15:11:27Z</time>
      </trkpt>
      <trkpt lat="43.49667" lon="6.18123">
        <ele>175</ele>
        <time>2024-03-27T15:11:28Z</time>
      </trkpt>
      <trkpt lat="43.49668" lon="6.18123">
        <ele>174.9</ele>
        <time>2024-03-27T15:11:29Z</time>
      </trkpt>
      <trkpt lat="43.49668" lon="6.18123">
        <ele>174.9</ele>
        <time>2024-03-27T15:11:30Z</time>
      </trkpt>
      <trkpt lat="43.49668" lon="6.18123">
        <ele>174.8</ele>
        <time>2024-03-27T15:11:31Z</time>
      </trkpt>
      <trkpt lat="43.49668" lon="6.18123">
        <ele>174.7</ele>
        <time>2024-03-27T15:11:32Z</time>
      </trkpt>
      <trkpt lat="43.49668" lon="6.18123">
        <ele>174.7</ele>
        <time>2024-03-27T15:11:33Z</time>
      </trkpt>
      <trkpt lat="43.49668" lon="6.18123">
        <ele>174.6</ele>
        <time>2024-03-27T15:11:34Z</time>
      </trkpt>
      <trkpt lat="43.49669" lon="6.18123">
        <ele>174.6</ele>
        <time>2024-03-27T15:11:35Z</time>
      </trkpt>
      <trkpt lat="43.49669" lon="6.18123">
        <ele>174.6</ele>
        <time>2024-03-27T15:11:36Z</time>
      </trkpt>
      <trkpt lat="43.49669" lon="6.18123">
        <ele>174.6</ele>
        <time>2024-03-27T15:11:37Z</time>
      </trkpt>
      <trkpt lat="43.49669" lon="6.18123">
        <ele>174.6</ele>
        <time>2024-03-27T15:11:38Z</time>
      </trkpt>
      <trkpt lat="43.49669" lon="6.18124">
        <ele>174.6</ele>
        <time>2024-03-27T15:11:39Z</time>
      </trkpt>
      <trkpt lat="43.49669" lon="6.18124">
        <ele>174.5</ele>
        <time>2024-03-27T15:11:40Z</time>
      </trkpt>
      <trkpt lat="43.49669" lon="6.18124">
        <ele>174.5</ele>
        <time>2024-03-27T15:11:41Z</time>
      </trkpt>
      <trkpt lat="43.49669" lon="6.18124">
        <ele>174.5</ele>
        <time>2024-03-27T15:11:42Z</time>
      </trkpt>
      <trkpt lat="43.4967" lon="6.18124">
        <ele>174.5</ele>
        <time>2024-03-27T15:11:43Z</time>
      </trkpt>
      <trkpt lat="43.4967" lon="6.18124">
        <ele>174.6</ele>
        <time>2024-03-27T15:11:44Z</time>
      </trkpt>
      <trkpt lat="43.4967" lon="6.18124">
        <ele>174.5</ele>
        <time>2024-03-27T15:11:45Z</time>
      </trkpt>
      <trkpt lat="43.4967" lon="6.18123">
        <ele>174.5</ele>
        <time>2024-03-27T15:11:46Z</time>
      </trkpt>
      <trkpt lat="43.49671" lon="6.18123">
        <ele>174.5</ele>
        <time>2024-03-27T15:11:47Z</time>
      </trkpt>
      <trkpt lat="43.49671" lon="6.18123">
        <ele>174.4</ele>
        <time>2024-03-27T15:11:48Z</time>
      </trkpt>
      <trkpt lat="43.49671" lon="6.18123">
        <ele>174.4</ele>
        <time>2024-03-27T15:11:49Z</time>
      </trkpt>
      <trkpt lat="43.49671" lon="6.18123">
        <ele>174.3</ele>
        <time>2024-03-27T15:11:50Z</time>
      </trkpt>
      <trkpt lat="43.49671" lon="6.18123">
        <ele>174.3</ele>
        <time>2024-03-27T15:11:51Z</time>
      </trkpt>
      <trkpt lat="43.49671" lon="6.18123">
        <ele>174.3</ele>
        <time>2024-03-27T15:11:52Z</time>
      </trkpt>
      <trkpt lat="43.49671" lon="6.18123">
        <ele>174.2</ele>
        <time>2024-03-27T15:11:53Z</time>
      </trkpt>
      <trkpt lat="43.49671" lon="6.18123">
        <ele>174.2</ele>
        <time>2024-03-27T15:11:54Z</time>
      </trkpt>
      <trkpt lat="43.49672" lon="6.18123">
        <ele>174.3</ele>
        <time>2024-03-27T15:11:55Z</time>
      </trkpt>
      <trkpt lat="43.49672" lon="6.18122">
        <ele>174.3</ele>
        <time>2024-03-27T15:11:56Z</time>
      </trkpt>
      <trkpt lat="43.49672" lon="6.18122">
        <ele>174.3</ele>
        <time>2024-03-27T15:11:57Z</time>
      </trkpt>
      <trkpt lat="43.49672" lon="6.18122">
        <ele>174.3</ele>
        <time>2024-03-27T15:11:58Z</time>
      </trkpt>
      <trkpt lat="43.49672" lon="6.18122">
        <ele>174.3</ele>
        <time>2024-03-27T15:11:59Z</time>
      </trkpt>
      <trkpt lat="43.49672" lon="6.18122">
        <ele>174.3</ele>
        <time>2024-03-27T15:12:00Z</time>
      </trkpt>
      <trkpt lat="43.49672" lon="6.18122">
        <ele>174.4</ele>
        <time>2024-03-27T15:12:01Z</time>
      </trkpt>
      <trkpt lat="43.49673" lon="6.18122">
        <ele>174.4</ele>
        <time>2024-03-27T15:12:02Z</time>
      </trkpt>
      <trkpt lat="43.49673" lon="6.18122">
        <ele>174.4</ele>
        <time>2024-03-27T15:12:03Z</time>
      </trkpt>
      <trkpt lat="43.49673" lon="6.18122">
        <ele>174.4</ele>
        <time>2024-03-27T15:12:04Z</time>
      </trkpt>
      <trkpt lat="43.49673" lon="6.18122">
        <ele>174.4</ele>
        <time>2024-03-27T15:12:05Z</time>
      </trkpt>
      <trkpt lat="43.49673" lon="6.18122">
        <ele>174.4</ele>
        <time>2024-03-27T15:12:06Z</time>
      </trkpt>
      <trkpt lat="43.49673" lon="6.18122">
        <ele>174.4</ele>
        <time>2024-03-27T15:12:07Z</time>
      </trkpt>
      <trkpt lat="43.49673" lon="6.18122">
        <ele>174.4</ele>
        <time>2024-03-27T15:12:08Z</time>
      </trkpt>
      <trkpt lat="43.49673" lon="6.18122">
        <ele>174.4</ele>
        <time>2024-03-27T15:12:09Z</time>
      </trkpt>
      <trkpt lat="43.49673" lon="6.18122">
        <ele>174.4</ele>
        <time>2024-03-27T15:12:10Z</time>
      </trkpt>
      <trkpt lat="43.49673" lon="6.18122">
        <ele>174.4</ele>
        <time>2024-03-27T15:12:11Z</time>
      </trkpt>
      <trkpt lat="43.49673" lon="6.18122">
        <ele>174.4</ele>
        <time>2024-03-27T15:12:12Z</time>
      </trkpt>
      <trkpt lat="43.49673" lon="6.18122">
        <ele>174.4</ele>
        <time>2024-03-27T15:12:13Z</time>
      </trkpt>
      <trkpt lat="43.49674" lon="6.18122">
        <ele>174.4</ele>
        <time>2024-03-27T15:12:14Z</time>
      </trkpt>
      <trkpt lat="43.49674" lon="6.18122">
        <ele>174.3</ele>
        <time>2024-03-27T15:12:15Z</time>
      </trkpt>
      <trkpt lat="43.49674" lon="6.18122">
        <ele>174.3</ele>
        <time>2024-03-27T15:12:16Z</time>
      </trkpt>
      <trkpt lat="43.49674" lon="6.18121">
        <ele>174.3</ele>
        <time>2024-03-27T15:12:17Z</time>
      </trkpt>
      <trkpt lat="43.49674" lon="6.18121">
        <ele>174.3</ele>
        <time>2024-03-27T15:12:18Z</time>
      </trkpt>
      <trkpt lat="43.49674" lon="6.18121">
        <ele>174.2</ele>
        <time>2024-03-27T15:12:19Z</time>
      </trkpt>
      <trkpt lat="43.49674" lon="6.18121">
        <ele>174.2</ele>
        <time>2024-03-27T15:12:20Z</time>
      </trkpt>
      <trkpt lat="43.49674" lon="6.18121">
        <ele>174.2</ele>
        <time>2024-03-27T15:12:21Z</time>
      </trkpt>
      <trkpt lat="43.49674" lon="6.18121">
        <ele>174.1</ele>
        <time>2024-03-27T15:12:22Z</time>
      </trkpt>
      <trkpt lat="43.49674" lon="6.18121">
        <ele>174.1</ele>
        <time>2024-03-27T15:12:23Z</time>
      </trkpt>
      <trkpt lat="43.49674" lon="6.18121">
        <ele>174.2</ele>
        <time>2024-03-27T15:12:24Z</time>
      </trkpt>
      <trkpt lat="43.49674" lon="6.18121">
        <ele>174.2</ele>
        <time>2024-03-27T15:12:25Z</time>
      </trkpt>
      <trkpt lat="43.49674" lon="6.18121">
        <ele>174.2</ele>
        <time>2024-03-27T15:12:26Z</time>
      </trkpt>
      <trkpt lat="43.49674" lon="6.18121">
        <ele>174.1</ele>
        <time>2024-03-27T15:12:27Z</time>
      </trkpt>
      <trkpt lat="43.49674" lon="6.18121">
        <ele>174.1</ele>
        <time>2024-03-27T15:12:28Z</time>
      </trkpt>
      <trkpt lat="43.49674" lon="6.1812">
        <ele>174.1</ele>
        <time>2024-03-27T15:12:29Z</time>
      </trkpt>
      <trkpt lat="43.49674" lon="6.1812">
        <ele>174</ele>
        <time>2024-03-27T15:12:30Z</time>
      </trkpt>
      <trkpt lat="43.49674" lon="6.1812">
        <ele>173.9</ele>
        <time>2024-03-27T15:12:31Z</time>
      </trkpt>
      <trkpt lat="43.49674" lon="6.1812">
        <ele>173.8</ele>
        <time>2024-03-27T15:12:32Z</time>
      </trkpt>
      <trkpt lat="43.49674" lon="6.1812">
        <ele>173.9</ele>
        <time>2024-03-27T15:12:33Z</time>
      </trkpt>
      <trkpt lat="43.49674" lon="6.1812">
        <ele>173.9</ele>
        <time>2024-03-27T15:12:34Z</time>
      </trkpt>
      <trkpt lat="43.49674" lon="6.1812">
        <ele>173.9</ele>
        <time>2024-03-27T15:12:35Z</time>
      </trkpt>
      <trkpt lat="43.49674" lon="6.1812">
        <ele>173.9</ele>
        <time>2024-03-27T15:12:36Z</time>
      </trkpt>
      <trkpt lat="43.49674" lon="6.1812">
        <ele>173.9</ele>
        <time>2024-03-27T15:12:37Z</time>
      </trkpt>
      <trkpt lat="43.49674" lon="6.1812">
        <ele>173.9</ele>
        <time>2024-03-27T15:12:38Z</time>
      </trkpt>
      <trkpt lat="43.49674" lon="6.1812">
        <ele>173.9</ele>
        <time>2024-03-27T15:12:39Z</time>
      </trkpt>
      <trkpt lat="43.49674" lon="6.18121">
        <ele>173.9</ele>
        <time>2024-03-27T15:12:40Z</time>
      </trkpt>
      <trkpt lat="43.49674" lon="6.18121">
        <ele>173.9</ele>
        <time>2024-03-27T15:12:41Z</time>
      </trkpt>
      <trkpt lat="43.49674" lon="6.18121">
        <ele>174</ele>
        <time>2024-03-27T15:12:42Z</time>
      </trkpt>
      <trkpt lat="43.49674" lon="6.18121">
        <ele>174</ele>
        <time>2024-03-27T15:12:43Z</time>
      </trkpt>
      <trkpt lat="43.49674" lon="6.18121">
        <ele>174</ele>
        <time>2024-03-27T15:12:44Z</time>
      </trkpt>
      <trkpt lat="43.49674" lon="6.18121">
        <ele>174</ele>
        <time>2024-03-27T15:12:45Z</time>
      </trkpt>
      <trkpt lat="43.49674" lon="6.18121">
        <ele>174</ele>
        <time>2024-03-27T15:12:46Z</time>
      </trkpt>
      <trkpt lat="43.49674" lon="6.18121">
        <ele>174</ele>
        <time>2024-03-27T15:12:47Z</time>
      </trkpt>
      <trkpt lat="43.49674" lon="6.18121">
        <ele>174.1</ele>
        <time>2024-03-27T15:12:48Z</time>
      </trkpt>
      <trkpt lat="43.49674" lon="6.18121">
        <ele>174.1</ele>
        <time>2024-03-27T15:12:49Z</time>
      </trkpt>
      <trkpt lat="43.49674" lon="6.18121">
        <ele>174.2</ele>
        <time>2024-03-27T15:12:50Z</time>
      </trkpt>
      <trkpt lat="43.49674" lon="6.18121">
        <ele>174.2</ele>
        <time>2024-03-27T15:12:51Z</time>
      </trkpt>
      <trkpt lat="43.49674" lon="6.1812">
        <ele>174.3</ele>
        <time>2024-03-27T15:12:52Z</time>
      </trkpt>
      <trkpt lat="43.49674" lon="6.1812">
        <ele>174.2</ele>
        <time>2024-03-27T15:12:53Z</time>
      </trkpt>
      <trkpt lat="43.49674" lon="6.1812">
        <ele>174.2</ele>
        <time>2024-03-27T15:12:54Z</time>
      </trkpt>
      <trkpt lat="43.49674" lon="6.1812">
        <ele>174.2</ele>
        <time>2024-03-27T15:12:55Z</time>
      </trkpt>
      <trkpt lat="43.49674" lon="6.1812">
        <ele>174.2</ele>
        <time>2024-03-27T15:12:56Z</time>
      </trkpt>
      <trkpt lat="43.49675" lon="6.1812">
        <ele>174.3</ele>
        <time>2024-03-27T15:12:57Z</time>
      </trkpt>
      <trkpt lat="43.49675" lon="6.1812">
        <ele>174.3</ele>
        <time>2024-03-27T15:12:58Z</time>
      </trkpt>
      <trkpt lat="43.49674" lon="6.1812">
        <ele>174.3</ele>
        <time>2024-03-27T15:12:59Z</time>
      </trkpt>
      <trkpt lat="43.49674" lon="6.18121">
        <ele>174.3</ele>
        <time>2024-03-27T15:13:00Z</time>
      </trkpt>
      <trkpt lat="43.49675" lon="6.18121">
        <ele>174.3</ele>
        <time>2024-03-27T15:13:01Z</time>
      </trkpt>
      <trkpt lat="43.49675" lon="6.18121">
        <ele>174.3</ele>
        <time>2024-03-27T15:13:02Z</time>
      </trkpt>
      <trkpt lat="43.49675" lon="6.18121">
        <ele>174.3</ele>
        <time>2024-03-27T15:13:03Z</time>
      </trkpt>
      <trkpt lat="43.49675" lon="6.18121">
        <ele>174.3</ele>
        <time>2024-03-27T15:13:04Z</time>
      </trkpt>
      <trkpt lat="43.49675" lon="6.18121">
        <ele>174.3</ele>
        <time>2024-03-27T15:13:05Z</time>
      </trkpt>
      <trkpt lat="43.49675" lon="6.18121">
        <ele>174.3</ele>
        <time>2024-03-27T15:13:06Z</time>
      </trkpt>
      <trkpt lat="43.49675" lon="6.18121">
        <ele>174.2</ele>
        <time>2024-03-27T15:13:07Z</time>
      </trkpt>
      <trkpt lat="43.49675" lon="6.18121">
        <ele>174.1</ele>
        <time>2024-03-27T15:13:08Z</time>
      </trkpt>
      <trkpt lat="43.49675" lon="6.18121">
        <ele>174.1</ele>
        <time>2024-03-27T15:13:09Z</time>
      </trkpt>
      <trkpt lat="43.49675" lon="6.18121">
        <ele>174.1</ele>
        <time>2024-03-27T15:13:10Z</time>
      </trkpt>
      <trkpt lat="43.49675" lon="6.18121">
        <ele>174.1</ele>
        <time>2024-03-27T15:13:11Z</time>
      </trkpt>
      <trkpt lat="43.49675" lon="6.18121">
        <ele>174</ele>
        <time>2024-03-27T15:13:12Z</time>
      </trkpt>
      <trkpt lat="43.49675" lon="6.18121">
        <ele>174</ele>
        <time>2024-03-27T15:13:13Z</time>
      </trkpt>
      <trkpt lat="43.49675" lon="6.18122">
        <ele>174</ele>
        <time>2024-03-27T15:13:14Z</time>
      </trkpt>
      <trkpt lat="43.49675" lon="6.18122">
        <ele>173.9</ele>
        <time>2024-03-27T15:13:15Z</time>
      </trkpt>
      <trkpt lat="43.49675" lon="6.18124">
        <ele>173.9</ele>
        <time>2024-03-27T15:13:16Z</time>
      </trkpt>
      <trkpt lat="43.49675" lon="6.18125">
        <ele>173.9</ele>
        <time>2024-03-27T15:13:17Z</time>
      </trkpt>
      <trkpt lat="43.49676" lon="6.18125">
        <ele>173.9</ele>
        <time>2024-03-27T15:13:18Z</time>
      </trkpt>
      <trkpt lat="43.49677" lon="6.18125">
        <ele>173.9</ele>
        <time>2024-03-27T15:13:19Z</time>
      </trkpt>
      <trkpt lat="43.49678" lon="6.18126">
        <ele>173.9</ele>
        <time>2024-03-27T15:13:20Z</time>
      </trkpt>
      <trkpt lat="43.49679" lon="6.18126">
        <ele>174</ele>
        <time>2024-03-27T15:13:21Z</time>
      </trkpt>
      <trkpt lat="43.49679" lon="6.18127">
        <ele>174.1</ele>
        <time>2024-03-27T15:13:22Z</time>
      </trkpt>
      <trkpt lat="43.4968" lon="6.18128">
        <ele>174.2</ele>
        <time>2024-03-27T15:13:23Z</time>
      </trkpt>
      <trkpt lat="43.49681" lon="6.18128">
        <ele>174.2</ele>
        <time>2024-03-27T15:13:24Z</time>
      </trkpt>
      <trkpt lat="43.49681" lon="6.18129">
        <ele>174.3</ele>
        <time>2024-03-27T15:13:25Z</time>
      </trkpt>
      <trkpt lat="43.49682" lon="6.1813">
        <ele>174.3</ele>
        <time>2024-03-27T15:13:26Z</time>
      </trkpt>
      <trkpt lat="43.49683" lon="6.18131">
        <ele>174.3</ele>
        <time>2024-03-27T15:13:27Z</time>
      </trkpt>
      <trkpt lat="43.49683" lon="6.18132">
        <ele>174.3</ele>
        <time>2024-03-27T15:13:28Z</time>
      </trkpt>
      <trkpt lat="43.49684" lon="6.18132">
        <ele>174.3</ele>
        <time>2024-03-27T15:13:29Z</time>
      </trkpt>
      <trkpt lat="43.49684" lon="6.18134">
        <ele>174.3</ele>
        <time>2024-03-27T15:13:30Z</time>
      </trkpt>
      <trkpt lat="43.49684" lon="6.18135">
        <ele>174.3</ele>
        <time>2024-03-27T15:13:31Z</time>
      </trkpt>
      <trkpt lat="43.49684" lon="6.18136">
        <ele>174.3</ele>
        <time>2024-03-27T15:13:32Z</time>
      </trkpt>
      <trkpt lat="43.49684" lon="6.18137">
        <ele>174.4</ele>
        <time>2024-03-27T15:13:33Z</time>
      </trkpt>
      <trkpt lat="43.49685" lon="6.18137">
        <ele>174.4</ele>
        <time>2024-03-27T15:13:34Z</time>
      </trkpt>
      <trkpt lat="43.49685" lon="6.18137">
        <ele>174.6</ele>
        <time>2024-03-27T15:13:35Z</time>
      </trkpt>
      <trkpt lat="43.49684" lon="6.18137">
        <ele>174.8</ele>
        <time>2024-03-27T15:13:36Z</time>
      </trkpt>
      <trkpt lat="43.49684" lon="6.18138">
        <ele>174.9</ele>
        <time>2024-03-27T15:13:37Z</time>
      </trkpt>
      <trkpt lat="43.49684" lon="6.18138">
        <ele>175</ele>
        <time>2024-03-27T15:13:38Z</time>
      </trkpt>
      <trkpt lat="43.49683" lon="6.18138">
        <ele>175.2</ele>
        <time>2024-03-27T15:13:39Z</time>
      </trkpt>
      <trkpt lat="43.49683" lon="6.18138">
        <ele>175.3</ele>
        <time>2024-03-27T15:13:40Z</time>
      </trkpt>
      <trkpt lat="43.49683" lon="6.18139">
        <ele>175.3</ele>
        <time>2024-03-27T15:13:41Z</time>
      </trkpt>
      <trkpt lat="43.49683" lon="6.18139">
        <ele>175.2</ele>
        <time>2024-03-27T15:13:42Z</time>
      </trkpt>
      <trkpt lat="43.49683" lon="6.18139">
        <ele>175.1</ele>
        <time>2024-03-27T15:13:43Z</time>
      </trkpt>
      <trkpt lat="43.49683" lon="6.18139">
        <ele>175</ele>
        <time>2024-03-27T15:13:44Z</time>
      </trkpt>
      <trkpt lat="43.49682" lon="6.1814">
        <ele>174.9</ele>
        <time>2024-03-27T15:13:45Z</time>
      </trkpt>
      <trkpt lat="43.49682" lon="6.1814">
        <ele>174.8</ele>
        <time>2024-03-27T15:13:46Z</time>
      </trkpt>
      <trkpt lat="43.49681" lon="6.18141">
        <ele>174.8</ele>
        <time>2024-03-27T15:13:47Z</time>
      </trkpt>
      <trkpt lat="43.49681" lon="6.18142">
        <ele>174.5</ele>
        <time>2024-03-27T15:13:48Z</time>
      </trkpt>
      <trkpt lat="43.49681" lon="6.18144">
        <ele>174.3</ele>
        <time>2024-03-27T15:13:49Z</time>
      </trkpt>
      <trkpt lat="43.49681" lon="6.18144">
        <ele>174</ele>
        <time>2024-03-27T15:13:50Z</time>
      </trkpt>
      <trkpt lat="43.49681" lon="6.18144">
        <ele>173.8</ele>
        <time>2024-03-27T15:13:51Z</time>
      </trkpt>
      <trkpt lat="43.49681" lon="6.18144">
        <ele>173.7</ele>
        <time>2024-03-27T15:13:52Z</time>
      </trkpt>
      <trkpt lat="43.49681" lon="6.18144">
        <ele>173.5</ele>
        <time>2024-03-27T15:13:53Z</time>
      </trkpt>
      <trkpt lat="43.4968" lon="6.18145">
        <ele>173.4</ele>
        <time>2024-03-27T15:13:54Z</time>
      </trkpt>
      <trkpt lat="43.4968" lon="6.18145">
        <ele>173.3</ele>
        <time>2024-03-27T15:13:55Z</time>
      </trkpt>
      <trkpt lat="43.4968" lon="6.18146">
        <ele>173.2</ele>
        <time>2024-03-27T15:13:56Z</time>
      </trkpt>
      <trkpt lat="43.49681" lon="6.18147">
        <ele>173.2</ele>
        <time>2024-03-27T15:13:57Z</time>
      </trkpt>
      <trkpt lat="43.49681" lon="6.18147">
        <ele>173.2</ele>
        <time>2024-03-27T15:13:58Z</time>
      </trkpt>
      <trkpt lat="43.49681" lon="6.18147">
        <ele>173</ele>
        <time>2024-03-27T15:13:59Z</time>
      </trkpt>
      <trkpt lat="43.49681" lon="6.18147">
        <ele>173</ele>
        <time>2024-03-27T15:14:00Z</time>
      </trkpt>
      <trkpt lat="43.49681" lon="6.18147">
        <ele>172.9</ele>
        <time>2024-03-27T15:14:01Z</time>
      </trkpt>
      <trkpt lat="43.49681" lon="6.18148">
        <ele>172.9</ele>
        <time>2024-03-27T15:14:02Z</time>
      </trkpt>
      <trkpt lat="43.49681" lon="6.18148">
        <ele>172.8</ele>
        <time>2024-03-27T15:14:03Z</time>
      </trkpt>
      <trkpt lat="43.49681" lon="6.18147">
        <ele>172.8</ele>
        <time>2024-03-27T15:14:04Z</time>
      </trkpt>
      <trkpt lat="43.49682" lon="6.18148">
        <ele>172.7</ele>
        <time>2024-03-27T15:14:05Z</time>
      </trkpt>
      <trkpt lat="43.49682" lon="6.18148">
        <ele>172.7</ele>
        <time>2024-03-27T15:14:06Z</time>
      </trkpt>
      <trkpt lat="43.49682" lon="6.18148">
        <ele>172.7</ele>
        <time>2024-03-27T15:14:07Z</time>
      </trkpt>
      <trkpt lat="43.49682" lon="6.18148">
        <ele>172.7</ele>
        <time>2024-03-27T15:14:08Z</time>
      </trkpt>
      <trkpt lat="43.49682" lon="6.18148">
        <ele>172.6</ele>
        <time>2024-03-27T15:14:09Z</time>
      </trkpt>
      <trkpt lat="43.49682" lon="6.18148">
        <ele>172.5</ele>
        <time>2024-03-27T15:14:10Z</time>
      </trkpt>
      <trkpt lat="43.49683" lon="6.18149">
        <ele>172.5</ele>
        <time>2024-03-27T15:14:11Z</time>
      </trkpt>
      <trkpt lat="43.49683" lon="6.18149">
        <ele>172.5</ele>
        <time>2024-03-27T15:14:12Z</time>
      </trkpt>
      <trkpt lat="43.49683" lon="6.18149">
        <ele>172.5</ele>
        <time>2024-03-27T15:14:13Z</time>
      </trkpt>
      <trkpt lat="43.49683" lon="6.18149">
        <ele>172.5</ele>
        <time>2024-03-27T15:14:14Z</time>
      </trkpt>
      <trkpt lat="43.49683" lon="6.18149">
        <ele>172.5</ele>
        <time>2024-03-27T15:14:15Z</time>
      </trkpt>
      <trkpt lat="43.49683" lon="6.1815">
        <ele>172.5</ele>
        <time>2024-03-27T15:14:16Z</time>
      </trkpt>
      <trkpt lat="43.49683" lon="6.1815">
        <ele>172.4</ele>
        <time>2024-03-27T15:14:17Z</time>
      </trkpt>
      <trkpt lat="43.49683" lon="6.18152">
        <ele>172.3</ele>
        <time>2024-03-27T15:14:18Z</time>
      </trkpt>
      <trkpt lat="43.49683" lon="6.18153">
        <ele>172.3</ele>
        <time>2024-03-27T15:14:19Z</time>
      </trkpt>
      <trkpt lat="43.49683" lon="6.18154">
        <ele>172.4</ele>
        <time>2024-03-27T15:14:20Z</time>
      </trkpt>
      <trkpt lat="43.49684" lon="6.18154">
        <ele>172.4</ele>
        <time>2024-03-27T15:14:21Z</time>
      </trkpt>
      <trkpt lat="43.49683" lon="6.18155">
        <ele>172.4</ele>
        <time>2024-03-27T15:14:22Z</time>
      </trkpt>
      <trkpt lat="43.49682" lon="6.18156">
        <ele>172.4</ele>
        <time>2024-03-27T15:14:23Z</time>
      </trkpt>
      <trkpt lat="43.49682" lon="6.18157">
        <ele>172.5</ele>
        <time>2024-03-27T15:14:24Z</time>
      </trkpt>
      <trkpt lat="43.49682" lon="6.18158">
        <ele>172.5</ele>
        <time>2024-03-27T15:14:25Z</time>
      </trkpt>
      <trkpt lat="43.49682" lon="6.18158">
        <ele>172.3</ele>
        <time>2024-03-27T15:14:26Z</time>
      </trkpt>
      <trkpt lat="43.49681" lon="6.1816">
        <ele>172.2</ele>
        <time>2024-03-27T15:14:27Z</time>
      </trkpt>
      <trkpt lat="43.49681" lon="6.18161">
        <ele>172.1</ele>
        <time>2024-03-27T15:14:28Z</time>
      </trkpt>
      <trkpt lat="43.49681" lon="6.18162">
        <ele>172.1</ele>
        <time>2024-03-27T15:14:29Z</time>
      </trkpt>
      <trkpt lat="43.49681" lon="6.18162">
        <ele>172.1</ele>
        <time>2024-03-27T15:14:30Z</time>
      </trkpt>
      <trkpt lat="43.49681" lon="6.18163">
        <ele>172</ele>
        <time>2024-03-27T15:14:31Z</time>
      </trkpt>
      <trkpt lat="43.49682" lon="6.18163">
        <ele>171.9</ele>
        <time>2024-03-27T15:14:32Z</time>
      </trkpt>
      <trkpt lat="43.49682" lon="6.18164">
        <ele>171.9</ele>
        <time>2024-03-27T15:14:33Z</time>
      </trkpt>
      <trkpt lat="43.49682" lon="6.18165">
        <ele>171.9</ele>
        <time>2024-03-27T15:14:34Z</time>
      </trkpt>
      <trkpt lat="43.49682" lon="6.18165">
        <ele>171.8</ele>
        <time>2024-03-27T15:14:35Z</time>
      </trkpt>
      <trkpt lat="43.49683" lon="6.18166">
        <ele>171.9</ele>
        <time>2024-03-27T15:14:36Z</time>
      </trkpt>
      <trkpt lat="43.49683" lon="6.18166">
        <ele>171.9</ele>
        <time>2024-03-27T15:14:37Z</time>
      </trkpt>
      <trkpt lat="43.49683" lon="6.18166">
        <ele>171.8</ele>
        <time>2024-03-27T15:14:38Z</time>
      </trkpt>
      <trkpt lat="43.49682" lon="6.18166">
        <ele>171.8</ele>
        <time>2024-03-27T15:14:39Z</time>
      </trkpt>
      <trkpt lat="43.49682" lon="6.18167">
        <ele>171.8</ele>
        <time>2024-03-27T15:14:40Z</time>
      </trkpt>
      <trkpt lat="43.49682" lon="6.18167">
        <ele>171.7</ele>
        <time>2024-03-27T15:14:41Z</time>
      </trkpt>
      <trkpt lat="43.49683" lon="6.18167">
        <ele>171.7</ele>
        <time>2024-03-27T15:14:42Z</time>
      </trkpt>
      <trkpt lat="43.49683" lon="6.18167">
        <ele>171.6</ele>
        <time>2024-03-27T15:14:43Z</time>
      </trkpt>
      <trkpt lat="43.49683" lon="6.18167">
        <ele>171.6</ele>
        <time>2024-03-27T15:14:44Z</time>
      </trkpt>
      <trkpt lat="43.49683" lon="6.18167">
        <ele>171.6</ele>
        <time>2024-03-27T15:14:45Z</time>
      </trkpt>
      <trkpt lat="43.49683" lon="6.18167">
        <ele>171.6</ele>
        <time>2024-03-27T15:14:46Z</time>
      </trkpt>
      <trkpt lat="43.49683" lon="6.18167">
        <ele>171.6</ele>
        <time>2024-03-27T15:14:47Z</time>
      </trkpt>
      <trkpt lat="43.49683" lon="6.18167">
        <ele>171.6</ele>
        <time>2024-03-27T15:14:48Z</time>
      </trkpt>
      <trkpt lat="43.49683" lon="6.18167">
        <ele>171.6</ele>
        <time>2024-03-27T15:14:49Z</time>
      </trkpt>
      <trkpt lat="43.49683" lon="6.18167">
        <ele>171.6</ele>
        <time>2024-03-27T15:14:50Z</time>
      </trkpt>
      <trkpt lat="43.49683" lon="6.18167">
        <ele>171.6</ele>
        <time>2024-03-27T15:14:51Z</time>
      </trkpt>
      <trkpt lat="43.49683" lon="6.18168">
        <ele>171.5</ele>
        <time>2024-03-27T15:14:52Z</time>
      </trkpt>
      <trkpt lat="43.49683" lon="6.18168">
        <ele>171.5</ele>
        <time>2024-03-27T15:14:53Z</time>
      </trkpt>
      <trkpt lat="43.49683" lon="6.18168">
        <ele>171.6</ele>
        <time>2024-03-27T15:14:54Z</time>
      </trkpt>
      <trkpt lat="43.49683" lon="6.18168">
        <ele>171.6</ele>
        <time>2024-03-27T15:14:55Z</time>
      </trkpt>
      <trkpt lat="43.49683" lon="6.18168">
        <ele>171.7</ele>
        <time>2024-03-27T15:14:56Z</time>
      </trkpt>
      <trkpt lat="43.49683" lon="6.18168">
        <ele>171.8</ele>
        <time>2024-03-27T15:14:57Z</time>
      </trkpt>
      <trkpt lat="43.49683" lon="6.18168">
        <ele>171.8</ele>
        <time>2024-03-27T15:14:58Z</time>
      </trkpt>
      <trkpt lat="43.49683" lon="6.18168">
        <ele>171.9</ele>
        <time>2024-03-27T15:14:59Z</time>
      </trkpt>
      <trkpt lat="43.49683" lon="6.18168">
        <ele>172</ele>
        <time>2024-03-27T15:15:00Z</time>
      </trkpt>
      <trkpt lat="43.49683" lon="6.18168">
        <ele>172</ele>
        <time>2024-03-27T15:15:01Z</time>
      </trkpt>
      <trkpt lat="43.49682" lon="6.18168">
        <ele>172.1</ele>
        <time>2024-03-27T15:15:02Z</time>
      </trkpt>
      <trkpt lat="43.49682" lon="6.18168">
        <ele>172.2</ele>
        <time>2024-03-27T15:15:03Z</time>
      </trkpt>
      <trkpt lat="43.49682" lon="6.18168">
        <ele>172.2</ele>
        <time>2024-03-27T15:15:04Z</time>
      </trkpt>
      <trkpt lat="43.49682" lon="6.18168">
        <ele>172.2</ele>
        <time>2024-03-27T15:15:05Z</time>
      </trkpt>
      <trkpt lat="43.49682" lon="6.18168">
        <ele>172.3</ele>
        <time>2024-03-27T15:15:06Z</time>
      </trkpt>
      <trkpt lat="43.49682" lon="6.18168">
        <ele>172.3</ele>
        <time>2024-03-27T15:15:07Z</time>
      </trkpt>
      <trkpt lat="43.49682" lon="6.18168">
        <ele>172.3</ele>
        <time>2024-03-27T15:15:08Z</time>
      </trkpt>
      <trkpt lat="43.49682" lon="6.18168">
        <ele>172.2</ele>
        <time>2024-03-27T15:15:09Z</time>
      </trkpt>
      <trkpt lat="43.49682" lon="6.18168">
        <ele>172.3</ele>
        <time>2024-03-27T15:15:10Z</time>
      </trkpt>
      <trkpt lat="43.49681" lon="6.18168">
        <ele>172.3</ele>
        <time>2024-03-27T15:15:11Z</time>
      </trkpt>
      <trkpt lat="43.49681" lon="6.18168">
        <ele>172.2</ele>
        <time>2024-03-27T15:15:12Z</time>
      </trkpt>
      <trkpt lat="43.49681" lon="6.18168">
        <ele>172.2</ele>
        <time>2024-03-27T15:15:13Z</time>
      </trkpt>
      <trkpt lat="43.49681" lon="6.18168">
        <ele>172.2</ele>
        <time>2024-03-27T15:15:14Z</time>
      </trkpt>
      <trkpt lat="43.49681" lon="6.18168">
        <ele>172.2</ele>
        <time>2024-03-27T15:15:15Z</time>
      </trkpt>
      <trkpt lat="43.49681" lon="6.18169">
        <ele>172.1</ele>
        <time>2024-03-27T15:15:16Z</time>
      </trkpt>
      <trkpt lat="43.49681" lon="6.18169">
        <ele>172</ele>
        <time>2024-03-27T15:15:17Z</time>
      </trkpt>
      <trkpt lat="43.49681" lon="6.18169">
        <ele>172</ele>
        <time>2024-03-27T15:15:18Z</time>
      </trkpt>
      <trkpt lat="43.49681" lon="6.18169">
        <ele>171.9</ele>
        <time>2024-03-27T15:15:19Z</time>
      </trkpt>
      <trkpt lat="43.49681" lon="6.18169">
        <ele>171.8</ele>
        <time>2024-03-27T15:15:20Z</time>
      </trkpt>
      <trkpt lat="43.49681" lon="6.18169">
        <ele>171.8</ele>
        <time>2024-03-27T15:15:21Z</time>
      </trkpt>
      <trkpt lat="43.49681" lon="6.18169">
        <ele>172</ele>
        <time>2024-03-27T15:15:22Z</time>
      </trkpt>
      <trkpt lat="43.49681" lon="6.18169">
        <ele>172.1</ele>
        <time>2024-03-27T15:15:23Z</time>
      </trkpt>
      <trkpt lat="43.49681" lon="6.1817">
        <ele>172.2</ele>
        <time>2024-03-27T15:15:24Z</time>
      </trkpt>
      <trkpt lat="43.49681" lon="6.1817">
        <ele>172.3</ele>
        <time>2024-03-27T15:15:25Z</time>
      </trkpt>
      <trkpt lat="43.49681" lon="6.1817">
        <ele>172.3</ele>
        <time>2024-03-27T15:15:26Z</time>
      </trkpt>
      <trkpt lat="43.49681" lon="6.1817">
        <ele>172.4</ele>
        <time>2024-03-27T15:15:27Z</time>
      </trkpt>
      <trkpt lat="43.49681" lon="6.1817">
        <ele>172.4</ele>
        <time>2024-03-27T15:15:28Z</time>
      </trkpt>
      <trkpt lat="43.49681" lon="6.1817">
        <ele>172.5</ele>
        <time>2024-03-27T15:15:29Z</time>
      </trkpt>
      <trkpt lat="43.49681" lon="6.1817">
        <ele>172.4</ele>
        <time>2024-03-27T15:15:30Z</time>
      </trkpt>
      <trkpt lat="43.4968" lon="6.1817">
        <ele>172.5</ele>
        <time>2024-03-27T15:15:31Z</time>
      </trkpt>
      <trkpt lat="43.4968" lon="6.1817">
        <ele>172.5</ele>
        <time>2024-03-27T15:15:32Z</time>
      </trkpt>
      <trkpt lat="43.4968" lon="6.18169">
        <ele>172.5</ele>
        <time>2024-03-27T15:15:33Z</time>
      </trkpt>
      <trkpt lat="43.4968" lon="6.18169">
        <ele>172.5</ele>
        <time>2024-03-27T15:15:34Z</time>
      </trkpt>
      <trkpt lat="43.4968" lon="6.18169">
        <ele>172.6</ele>
        <time>2024-03-27T15:15:35Z</time>
      </trkpt>
      <trkpt lat="43.4968" lon="6.18169">
        <ele>172.6</ele>
        <time>2024-03-27T15:15:36Z</time>
      </trkpt>
      <trkpt lat="43.4968" lon="6.18169">
        <ele>172.6</ele>
        <time>2024-03-27T15:15:37Z</time>
      </trkpt>
      <trkpt lat="43.4968" lon="6.18169">
        <ele>172.6</ele>
        <time>2024-03-27T15:15:38Z</time>
      </trkpt>
      <trkpt lat="43.4968" lon="6.18168">
        <ele>172.6</ele>
        <time>2024-03-27T15:15:39Z</time>
      </trkpt>
      <trkpt lat="43.4968" lon="6.18168">
        <ele>172.6</ele>
        <time>2024-03-27T15:15:40Z</time>
      </trkpt>
      <trkpt lat="43.4968" lon="6.18168">
        <ele>172.6</ele>
        <time>2024-03-27T15:15:41Z</time>
      </trkpt>
      <trkpt lat="43.4968" lon="6.18168">
        <ele>172.6</ele>
        <time>2024-03-27T15:15:42Z</time>
      </trkpt>
      <trkpt lat="43.4968" lon="6.18169">
        <ele>172.6</ele>
        <time>2024-03-27T15:15:43Z</time>
      </trkpt>
      <trkpt lat="43.4968" lon="6.18169">
        <ele>172.5</ele>
        <time>2024-03-27T15:15:44Z</time>
      </trkpt>
      <trkpt lat="43.4968" lon="6.18169">
        <ele>172.5</ele>
        <time>2024-03-27T15:15:45Z</time>
      </trkpt>
      <trkpt lat="43.4968" lon="6.18169">
        <ele>172.4</ele>
        <time>2024-03-27T15:15:46Z</time>
      </trkpt>
      <trkpt lat="43.49679" lon="6.18169">
        <ele>172.4</ele>
        <time>2024-03-27T15:15:47Z</time>
      </trkpt>
      <trkpt lat="43.49679" lon="6.18169">
        <ele>172.5</ele>
        <time>2024-03-27T15:15:48Z</time>
      </trkpt>
      <trkpt lat="43.49679" lon="6.18169">
        <ele>172.5</ele>
        <time>2024-03-27T15:15:49Z</time>
      </trkpt>
      <trkpt lat="43.49679" lon="6.18169">
        <ele>172.5</ele>
        <time>2024-03-27T15:15:50Z</time>
      </trkpt>
      <trkpt lat="43.49679" lon="6.18169">
        <ele>172.5</ele>
        <time>2024-03-27T15:15:51Z</time>
      </trkpt>
      <trkpt lat="43.49679" lon="6.18169">
        <ele>172.5</ele>
        <time>2024-03-27T15:15:52Z</time>
      </trkpt>
      <trkpt lat="43.49679" lon="6.18169">
        <ele>172.4</ele>
        <time>2024-03-27T15:15:53Z</time>
      </trkpt>
      <trkpt lat="43.49679" lon="6.18168">
        <ele>172.4</ele>
        <time>2024-03-27T15:15:54Z</time>
      </trkpt>
      <trkpt lat="43.49679" lon="6.18168">
        <ele>172.4</ele>
        <time>2024-03-27T15:15:55Z</time>
      </trkpt>
      <trkpt lat="43.49679" lon="6.18168">
        <ele>172.4</ele>
        <time>2024-03-27T15:15:56Z</time>
      </trkpt>
      <trkpt lat="43.49679" lon="6.18167">
        <ele>172.4</ele>
        <time>2024-03-27T15:15:57Z</time>
      </trkpt>
      <trkpt lat="43.49679" lon="6.18167">
        <ele>172.3</ele>
        <time>2024-03-27T15:15:58Z</time>
      </trkpt>
      <trkpt lat="43.49679" lon="6.18167">
        <ele>172.3</ele>
        <time>2024-03-27T15:15:59Z</time>
      </trkpt>
      <trkpt lat="43.49678" lon="6.18167">
        <ele>172.2</ele>
        <time>2024-03-27T15:16:00Z</time>
      </trkpt>
      <trkpt lat="43.49678" lon="6.18167">
        <ele>172.2</ele>
        <time>2024-03-27T15:16:01Z</time>
      </trkpt>
      <trkpt lat="43.49678" lon="6.18167">
        <ele>172.2</ele>
        <time>2024-03-27T15:16:02Z</time>
      </trkpt>
      <trkpt lat="43.49678" lon="6.18167">
        <ele>172.2</ele>
        <time>2024-03-27T15:16:03Z</time>
      </trkpt>
      <trkpt lat="43.49678" lon="6.18167">
        <ele>172.2</ele>
        <time>2024-03-27T15:16:04Z</time>
      </trkpt>
      <trkpt lat="43.49678" lon="6.18167">
        <ele>172.2</ele>
        <time>2024-03-27T15:16:05Z</time>
      </trkpt>
      <trkpt lat="43.49679" lon="6.18167">
        <ele>172.2</ele>
        <time>2024-03-27T15:16:06Z</time>
      </trkpt>
      <trkpt lat="43.49679" lon="6.18167">
        <ele>172.2</ele>
        <time>2024-03-27T15:16:07Z</time>
      </trkpt>
      <trkpt lat="43.49678" lon="6.18167">
        <ele>172.2</ele>
        <time>2024-03-27T15:16:08Z</time>
      </trkpt>
      <trkpt lat="43.49678" lon="6.18168">
        <ele>172.2</ele>
        <time>2024-03-27T15:16:09Z</time>
      </trkpt>
      <trkpt lat="43.49678" lon="6.18168">
        <ele>172.1</ele>
        <time>2024-03-27T15:16:10Z</time>
      </trkpt>
      <trkpt lat="43.49678" lon="6.18168">
        <ele>172.2</ele>
        <time>2024-03-27T15:16:11Z</time>
      </trkpt>
      <trkpt lat="43.49678" lon="6.18168">
        <ele>172.3</ele>
        <time>2024-03-27T15:16:12Z</time>
      </trkpt>
      <trkpt lat="43.49679" lon="6.18169">
        <ele>172.3</ele>
        <time>2024-03-27T15:16:13Z</time>
      </trkpt>
      <trkpt lat="43.49679" lon="6.18169">
        <ele>172.4</ele>
        <time>2024-03-27T15:16:14Z</time>
      </trkpt>
      <trkpt lat="43.49679" lon="6.18169">
        <ele>172.3</ele>
        <time>2024-03-27T15:16:15Z</time>
      </trkpt>
      <trkpt lat="43.49679" lon="6.18169">
        <ele>172.3</ele>
        <time>2024-03-27T15:16:16Z</time>
      </trkpt>
      <trkpt lat="43.49679" lon="6.18169">
        <ele>172.3</ele>
        <time>2024-03-27T15:16:17Z</time>
      </trkpt>
      <trkpt lat="43.49679" lon="6.18169">
        <ele>172.4</ele>
        <time>2024-03-27T15:16:18Z</time>
      </trkpt>
      <trkpt lat="43.49679" lon="6.18169">
        <ele>172.4</ele>
        <time>2024-03-27T15:16:19Z</time>
      </trkpt>
      <trkpt lat="43.49679" lon="6.1817">
        <ele>172.4</ele>
        <time>2024-03-27T15:16:20Z</time>
      </trkpt>
      <trkpt lat="43.4968" lon="6.1817">
        <ele>172.4</ele>
        <time>2024-03-27T15:16:21Z</time>
      </trkpt>
      <trkpt lat="43.49681" lon="6.18171">
        <ele>172.4</ele>
        <time>2024-03-27T15:16:22Z</time>
      </trkpt>
      <trkpt lat="43.49682" lon="6.18172">
        <ele>172.5</ele>
        <time>2024-03-27T15:16:23Z</time>
      </trkpt>
      <trkpt lat="43.49683" lon="6.18173">
        <ele>172.5</ele>
        <time>2024-03-27T15:16:24Z</time>
      </trkpt>
      <trkpt lat="43.49684" lon="6.18173">
        <ele>172.5</ele>
        <time>2024-03-27T15:16:25Z</time>
      </trkpt>
      <trkpt lat="43.49685" lon="6.18174">
        <ele>172.5</ele>
        <time>2024-03-27T15:16:26Z</time>
      </trkpt>
      <trkpt lat="43.49686" lon="6.18175">
        <ele>172.5</ele>
        <time>2024-03-27T15:16:27Z</time>
      </trkpt>
      <trkpt lat="43.49686" lon="6.18176">
        <ele>172.6</ele>
        <time>2024-03-27T15:16:28Z</time>
      </trkpt>
      <trkpt lat="43.49688" lon="6.18176">
        <ele>172.5</ele>
        <time>2024-03-27T15:16:29Z</time>
      </trkpt>
      <trkpt lat="43.49689" lon="6.18176">
        <ele>172.4</ele>
        <time>2024-03-27T15:16:30Z</time>
      </trkpt>
      <trkpt lat="43.4969" lon="6.18177">
        <ele>172.3</ele>
        <time>2024-03-27T15:16:31Z</time>
      </trkpt>
      <trkpt lat="43.49691" lon="6.18177">
        <ele>172.3</ele>
        <time>2024-03-27T15:16:32Z</time>
      </trkpt>
      <trkpt lat="43.49692" lon="6.18178">
        <ele>172.2</ele>
        <time>2024-03-27T15:16:33Z</time>
      </trkpt>
      <trkpt lat="43.49693" lon="6.18179">
        <ele>172.2</ele>
        <time>2024-03-27T15:16:34Z</time>
      </trkpt>
      <trkpt lat="43.49694" lon="6.18179">
        <ele>172.2</ele>
        <time>2024-03-27T15:16:35Z</time>
      </trkpt>
      <trkpt lat="43.49695" lon="6.1818">
        <ele>172.2</ele>
        <time>2024-03-27T15:16:36Z</time>
      </trkpt>
      <trkpt lat="43.49695" lon="6.1818">
        <ele>172.2</ele>
        <time>2024-03-27T15:16:37Z</time>
      </trkpt>
      <trkpt lat="43.49696" lon="6.18182">
        <ele>172.2</ele>
        <time>2024-03-27T15:16:38Z</time>
      </trkpt>
      <trkpt lat="43.49697" lon="6.18183">
        <ele>172.3</ele>
        <time>2024-03-27T15:16:39Z</time>
      </trkpt>
      <trkpt lat="43.49697" lon="6.18183">
        <ele>172.3</ele>
        <time>2024-03-27T15:16:40Z</time>
      </trkpt>
      <trkpt lat="43.49698" lon="6.18184">
        <ele>172.2</ele>
        <time>2024-03-27T15:16:41Z</time>
      </trkpt>
      <trkpt lat="43.49699" lon="6.18185">
        <ele>172.1</ele>
        <time>2024-03-27T15:16:42Z</time>
      </trkpt>
      <trkpt lat="43.49701" lon="6.18185">
        <ele>172.1</ele>
        <time>2024-03-27T15:16:43Z</time>
      </trkpt>
      <trkpt lat="43.49702" lon="6.18185">
        <ele>172.1</ele>
        <time>2024-03-27T15:16:44Z</time>
      </trkpt>
      <trkpt lat="43.49703" lon="6.18186">
        <ele>172</ele>
        <time>2024-03-27T15:16:45Z</time>
      </trkpt>
      <trkpt lat="43.49705" lon="6.18186">
        <ele>171.9</ele>
        <time>2024-03-27T15:16:46Z</time>
      </trkpt>
      <trkpt lat="43.49706" lon="6.18187">
        <ele>171.8</ele>
        <time>2024-03-27T15:16:47Z</time>
      </trkpt>
      <trkpt lat="43.49706" lon="6.18187">
        <ele>171.7</ele>
        <time>2024-03-27T15:16:48Z</time>
      </trkpt>
      <trkpt lat="43.49707" lon="6.18188">
        <ele>171.6</ele>
        <time>2024-03-27T15:16:49Z</time>
      </trkpt>
      <trkpt lat="43.49708" lon="6.18189">
        <ele>171.6</ele>
        <time>2024-03-27T15:16:50Z</time>
      </trkpt>
      <trkpt lat="43.49709" lon="6.1819">
        <ele>171.5</ele>
        <time>2024-03-27T15:16:51Z</time>
      </trkpt>
      <trkpt lat="43.4971" lon="6.18191">
        <ele>171.5</ele>
        <time>2024-03-27T15:16:52Z</time>
      </trkpt>
      <trkpt lat="43.4971" lon="6.18193">
        <ele>171.5</ele>
        <time>2024-03-27T15:16:53Z</time>
      </trkpt>
      <trkpt lat="43.49711" lon="6.18194">
        <ele>171.6</ele>
        <time>2024-03-27T15:16:54Z</time>
      </trkpt>
      <trkpt lat="43.49712" lon="6.18196">
        <ele>171.6</ele>
        <time>2024-03-27T15:16:55Z</time>
      </trkpt>
      <trkpt lat="43.49713" lon="6.18197">
        <ele>171.6</ele>
        <time>2024-03-27T15:16:56Z</time>
      </trkpt>
      <trkpt lat="43.49713" lon="6.18198">
        <ele>171.5</ele>
        <time>2024-03-27T15:16:57Z</time>
      </trkpt>
      <trkpt lat="43.49714" lon="6.18199">
        <ele>171.4</ele>
        <time>2024-03-27T15:16:58Z</time>
      </trkpt>
      <trkpt lat="43.49714" lon="6.182">
        <ele>171.3</ele>
        <time>2024-03-27T15:16:59Z</time>
      </trkpt>
      <trkpt lat="43.49715" lon="6.18201">
        <ele>171.2</ele>
        <time>2024-03-27T15:17:00Z</time>
      </trkpt>
      <trkpt lat="43.49715" lon="6.18202">
        <ele>171</ele>
        <time>2024-03-27T15:17:01Z</time>
      </trkpt>
      <trkpt lat="43.49715" lon="6.18204">
        <ele>170.9</ele>
        <time>2024-03-27T15:17:02Z</time>
      </trkpt>
      <trkpt lat="43.49714" lon="6.18205">
        <ele>170.8</ele>
        <time>2024-03-27T15:17:03Z</time>
      </trkpt>
      <trkpt lat="43.49714" lon="6.18205">
        <ele>170.7</ele>
        <time>2024-03-27T15:17:04Z</time>
      </trkpt>
      <trkpt lat="43.49715" lon="6.18205">
        <ele>170.7</ele>
        <time>2024-03-27T15:17:05Z</time>
      </trkpt>
      <trkpt lat="43.49715" lon="6.18206">
        <ele>170.7</ele>
        <time>2024-03-27T15:17:06Z</time>
      </trkpt>
      <trkpt lat="43.49716" lon="6.18207">
        <ele>170.6</ele>
        <time>2024-03-27T15:17:07Z</time>
      </trkpt>
      <trkpt lat="43.49717" lon="6.18208">
        <ele>170.6</ele>
        <time>2024-03-27T15:17:08Z</time>
      </trkpt>
      <trkpt lat="43.49718" lon="6.18209">
        <ele>170.5</ele>
        <time>2024-03-27T15:17:09Z</time>
      </trkpt>
      <trkpt lat="43.49719" lon="6.1821">
        <ele>170.5</ele>
        <time>2024-03-27T15:17:10Z</time>
      </trkpt>
      <trkpt lat="43.49719" lon="6.18211">
        <ele>170.6</ele>
        <time>2024-03-27T15:17:11Z</time>
      </trkpt>
      <trkpt lat="43.4972" lon="6.18212">
        <ele>170.7</ele>
        <time>2024-03-27T15:17:12Z</time>
      </trkpt>
      <trkpt lat="43.4972" lon="6.18213">
        <ele>170.7</ele>
        <time>2024-03-27T15:17:13Z</time>
      </trkpt>
      <trkpt lat="43.49721" lon="6.18214">
        <ele>170.8</ele>
        <time>2024-03-27T15:17:14Z</time>
      </trkpt>
      <trkpt lat="43.49721" lon="6.18215">
        <ele>170.8</ele>
        <time>2024-03-27T15:17:15Z</time>
      </trkpt>
      <trkpt lat="43.49722" lon="6.18216">
        <ele>170.8</ele>
        <time>2024-03-27T15:17:16Z</time>
      </trkpt>
      <trkpt lat="43.49722" lon="6.18217">
        <ele>170.8</ele>
        <time>2024-03-27T15:17:17Z</time>
      </trkpt>
      <trkpt lat="43.49722" lon="6.18218">
        <ele>170.7</ele>
        <time>2024-03-27T15:17:18Z</time>
      </trkpt>
      <trkpt lat="43.49722" lon="6.1822">
        <ele>170.6</ele>
        <time>2024-03-27T15:17:19Z</time>
      </trkpt>
      <trkpt lat="43.49723" lon="6.18221">
        <ele>170.5</ele>
        <time>2024-03-27T15:17:20Z</time>
      </trkpt>
      <trkpt lat="43.49723" lon="6.18221">
        <ele>170.4</ele>
        <time>2024-03-27T15:17:21Z</time>
      </trkpt>
      <trkpt lat="43.49724" lon="6.18223">
        <ele>170.3</ele>
        <time>2024-03-27T15:17:22Z</time>
      </trkpt>
      <trkpt lat="43.49724" lon="6.18223">
        <ele>170.2</ele>
        <time>2024-03-27T15:17:23Z</time>
      </trkpt>
      <trkpt lat="43.49725" lon="6.18224">
        <ele>170.2</ele>
        <time>2024-03-27T15:17:24Z</time>
      </trkpt>
      <trkpt lat="43.49726" lon="6.18225">
        <ele>170.1</ele>
        <time>2024-03-27T15:17:25Z</time>
      </trkpt>
      <trkpt lat="43.49726" lon="6.18225">
        <ele>170.1</ele>
        <time>2024-03-27T15:17:26Z</time>
      </trkpt>
      <trkpt lat="43.49726" lon="6.18225">
        <ele>170.1</ele>
        <time>2024-03-27T15:17:27Z</time>
      </trkpt>
      <trkpt lat="43.49727" lon="6.18225">
        <ele>169.9</ele>
        <time>2024-03-27T15:17:28Z</time>
      </trkpt>
      <trkpt lat="43.49727" lon="6.18226">
        <ele>169.7</ele>
        <time>2024-03-27T15:17:29Z</time>
      </trkpt>
      <trkpt lat="43.49728" lon="6.18226">
        <ele>169.6</ele>
        <time>2024-03-27T15:17:30Z</time>
      </trkpt>
      <trkpt lat="43.49728" lon="6.18227">
        <ele>169.5</ele>
        <time>2024-03-27T15:17:31Z</time>
      </trkpt>
      <trkpt lat="43.49729" lon="6.18228">
        <ele>169.5</ele>
        <time>2024-03-27T15:17:32Z</time>
      </trkpt>
      <trkpt lat="43.49729" lon="6.18229">
        <ele>169.4</ele>
        <time>2024-03-27T15:17:33Z</time>
      </trkpt>
      <trkpt lat="43.49729" lon="6.1823">
        <ele>169.3</ele>
        <time>2024-03-27T15:17:34Z</time>
      </trkpt>
      <trkpt lat="43.49728" lon="6.18231">
        <ele>169.2</ele>
        <time>2024-03-27T15:17:35Z</time>
      </trkpt>
      <trkpt lat="43.49728" lon="6.18231">
        <ele>169.2</ele>
        <time>2024-03-27T15:17:36Z</time>
      </trkpt>
      <trkpt lat="43.49729" lon="6.18232">
        <ele>169.2</ele>
        <time>2024-03-27T15:17:37Z</time>
      </trkpt>
      <trkpt lat="43.49729" lon="6.18232">
        <ele>169</ele>
        <time>2024-03-27T15:17:38Z</time>
      </trkpt>
      <trkpt lat="43.49729" lon="6.18232">
        <ele>168.9</ele>
        <time>2024-03-27T15:17:39Z</time>
      </trkpt>
      <trkpt lat="43.49729" lon="6.18232">
        <ele>168.8</ele>
        <time>2024-03-27T15:17:40Z</time>
      </trkpt>
      <trkpt lat="43.49729" lon="6.18232">
        <ele>168.8</ele>
        <time>2024-03-27T15:17:41Z</time>
      </trkpt>
      <trkpt lat="43.49729" lon="6.18232">
        <ele>168.7</ele>
        <time>2024-03-27T15:17:42Z</time>
      </trkpt>
      <trkpt lat="43.49729" lon="6.18232">
        <ele>168.6</ele>
        <time>2024-03-27T15:17:43Z</time>
      </trkpt>
      <trkpt lat="43.49729" lon="6.18233">
        <ele>168.7</ele>
        <time>2024-03-27T15:17:44Z</time>
      </trkpt>
      <trkpt lat="43.49728" lon="6.18234">
        <ele>168.6</ele>
        <time>2024-03-27T15:17:45Z</time>
      </trkpt>
      <trkpt lat="43.49728" lon="6.18235">
        <ele>168.6</ele>
        <time>2024-03-27T15:17:46Z</time>
      </trkpt>
      <trkpt lat="43.49727" lon="6.18236">
        <ele>168.6</ele>
        <time>2024-03-27T15:17:47Z</time>
      </trkpt>
      <trkpt lat="43.49727" lon="6.18237">
        <ele>168.6</ele>
        <time>2024-03-27T15:17:48Z</time>
      </trkpt>
      <trkpt lat="43.49727" lon="6.18238">
        <ele>168.6</ele>
        <time>2024-03-27T15:17:49Z</time>
      </trkpt>
      <trkpt lat="43.49727" lon="6.1824">
        <ele>168.6</ele>
        <time>2024-03-27T15:17:50Z</time>
      </trkpt>
      <trkpt lat="43.49726" lon="6.18241">
        <ele>168.6</ele>
        <time>2024-03-27T15:17:51Z</time>
      </trkpt>
      <trkpt lat="43.49726" lon="6.18242">
        <ele>168.6</ele>
        <time>2024-03-27T15:17:52Z</time>
      </trkpt>
      <trkpt lat="43.49726" lon="6.18244">
        <ele>168.7</ele>
        <time>2024-03-27T15:17:53Z</time>
      </trkpt>
      <trkpt lat="43.49726" lon="6.18245">
        <ele>168.5</ele>
        <time>2024-03-27T15:17:54Z</time>
      </trkpt>
      <trkpt lat="43.49725" lon="6.18246">
        <ele>168.6</ele>
        <time>2024-03-27T15:17:55Z</time>
      </trkpt>
      <trkpt lat="43.49725" lon="6.18247">
        <ele>168.6</ele>
        <time>2024-03-27T15:17:56Z</time>
      </trkpt>
      <trkpt lat="43.49725" lon="6.18248">
        <ele>168.5</ele>
        <time>2024-03-27T15:17:57Z</time>
      </trkpt>
      <trkpt lat="43.49724" lon="6.18249">
        <ele>168.4</ele>
        <time>2024-03-27T15:17:58Z</time>
      </trkpt>
      <trkpt lat="43.49724" lon="6.18251">
        <ele>168.3</ele>
        <time>2024-03-27T15:17:59Z</time>
      </trkpt>
      <trkpt lat="43.49724" lon="6.18252">
        <ele>168.3</ele>
        <time>2024-03-27T15:18:00Z</time>
      </trkpt>
      <trkpt lat="43.49723" lon="6.18253">
        <ele>168.2</ele>
        <time>2024-03-27T15:18:01Z</time>
      </trkpt>
      <trkpt lat="43.49723" lon="6.18254">
        <ele>168.3</ele>
        <time>2024-03-27T15:18:02Z</time>
      </trkpt>
      <trkpt lat="43.49723" lon="6.18255">
        <ele>168.2</ele>
        <time>2024-03-27T15:18:03Z</time>
      </trkpt>
      <trkpt lat="43.49723" lon="6.18257">
        <ele>168.1</ele>
        <time>2024-03-27T15:18:04Z</time>
      </trkpt>
      <trkpt lat="43.49722" lon="6.18258">
        <ele>167.8</ele>
        <time>2024-03-27T15:18:05Z</time>
      </trkpt>
      <trkpt lat="43.49722" lon="6.1826">
        <ele>167.8</ele>
        <time>2024-03-27T15:18:06Z</time>
      </trkpt>
      <trkpt lat="43.49721" lon="6.18262">
        <ele>167.7</ele>
        <time>2024-03-27T15:18:07Z</time>
      </trkpt>
      <trkpt lat="43.49721" lon="6.18263">
        <ele>167.6</ele>
        <time>2024-03-27T15:18:08Z</time>
      </trkpt>
      <trkpt lat="43.49721" lon="6.18265">
        <ele>167.6</ele>
        <time>2024-03-27T15:18:09Z</time>
      </trkpt>
      <trkpt lat="43.49721" lon="6.18266">
        <ele>167.6</ele>
        <time>2024-03-27T15:18:10Z</time>
      </trkpt>
      <trkpt lat="43.49721" lon="6.18268">
        <ele>167.5</ele>
        <time>2024-03-27T15:18:11Z</time>
      </trkpt>
      <trkpt lat="43.49721" lon="6.1827">
        <ele>167.5</ele>
        <time>2024-03-27T15:18:12Z</time>
      </trkpt>
      <trkpt lat="43.49721" lon="6.18272">
        <ele>167.5</ele>
        <time>2024-03-27T15:18:13Z</time>
      </trkpt>
      <trkpt lat="43.49721" lon="6.18273">
        <ele>167.7</ele>
        <time>2024-03-27T15:18:14Z</time>
      </trkpt>
      <trkpt lat="43.49721" lon="6.18274">
        <ele>167.7</ele>
        <time>2024-03-27T15:18:15Z</time>
      </trkpt>
      <trkpt lat="43.49722" lon="6.18276">
        <ele>167.7</ele>
        <time>2024-03-27T15:18:16Z</time>
      </trkpt>
      <trkpt lat="43.49722" lon="6.18277">
        <ele>167.7</ele>
        <time>2024-03-27T15:18:17Z</time>
      </trkpt>
      <trkpt lat="43.49723" lon="6.18278">
        <ele>167.6</ele>
        <time>2024-03-27T15:18:18Z</time>
      </trkpt>
      <trkpt lat="43.49723" lon="6.1828">
        <ele>167.7</ele>
        <time>2024-03-27T15:18:19Z</time>
      </trkpt>
      <trkpt lat="43.49724" lon="6.18282">
        <ele>167.7</ele>
        <time>2024-03-27T15:18:20Z</time>
      </trkpt>
      <trkpt lat="43.49725" lon="6.18283">
        <ele>167.8</ele>
        <time>2024-03-27T15:18:21Z</time>
      </trkpt>
      <trkpt lat="43.49725" lon="6.18284">
        <ele>167.8</ele>
        <time>2024-03-27T15:18:22Z</time>
      </trkpt>
      <trkpt lat="43.49726" lon="6.18285">
        <ele>167.8</ele>
        <time>2024-03-27T15:18:23Z</time>
      </trkpt>
      <trkpt lat="43.49727" lon="6.18286">
        <ele>167.7</ele>
        <time>2024-03-27T15:18:24Z</time>
      </trkpt>
      <trkpt lat="43.49727" lon="6.18287">
        <ele>167.7</ele>
        <time>2024-03-27T15:18:25Z</time>
      </trkpt>
      <trkpt lat="43.49728" lon="6.18289">
        <ele>167.6</ele>
        <time>2024-03-27T15:18:26Z</time>
      </trkpt>
      <trkpt lat="43.49728" lon="6.18291">
        <ele>167.5</ele>
        <time>2024-03-27T15:18:27Z</time>
      </trkpt>
      <trkpt lat="43.49729" lon="6.18293">
        <ele>167.6</ele>
        <time>2024-03-27T15:18:28Z</time>
      </trkpt>
      <trkpt lat="43.49729" lon="6.18294">
        <ele>167.6</ele>
        <time>2024-03-27T15:18:29Z</time>
      </trkpt>
      <trkpt lat="43.4973" lon="6.18295">
        <ele>167.6</ele>
        <time>2024-03-27T15:18:30Z</time>
      </trkpt>
      <trkpt lat="43.49731" lon="6.18296">
        <ele>167.5</ele>
        <time>2024-03-27T15:18:31Z</time>
      </trkpt>
      <trkpt lat="43.49731" lon="6.18298">
        <ele>167.4</ele>
        <time>2024-03-27T15:18:32Z</time>
      </trkpt>
      <trkpt lat="43.49731" lon="6.18299">
        <ele>167.4</ele>
        <time>2024-03-27T15:18:33Z</time>
      </trkpt>
      <trkpt lat="43.49731" lon="6.183">
        <ele>167.3</ele>
        <time>2024-03-27T15:18:34Z</time>
      </trkpt>
      <trkpt lat="43.49731" lon="6.18301">
        <ele>167.3</ele>
        <time>2024-03-27T15:18:35Z</time>
      </trkpt>
      <trkpt lat="43.49731" lon="6.18303">
        <ele>167.5</ele>
        <time>2024-03-27T15:18:36Z</time>
      </trkpt>
      <trkpt lat="43.49731" lon="6.18304">
        <ele>167.5</ele>
        <time>2024-03-27T15:18:37Z</time>
      </trkpt>
      <trkpt lat="43.49731" lon="6.18305">
        <ele>167.5</ele>
        <time>2024-03-27T15:18:38Z</time>
      </trkpt>
      <trkpt lat="43.49731" lon="6.18306">
        <ele>167.6</ele>
        <time>2024-03-27T15:18:39Z</time>
      </trkpt>
      <trkpt lat="43.49731" lon="6.18306">
        <ele>167.5</ele>
        <time>2024-03-27T15:18:40Z</time>
      </trkpt>
      <trkpt lat="43.4973" lon="6.18306">
        <ele>167.5</ele>
        <time>2024-03-27T15:18:41Z</time>
      </trkpt>
      <trkpt lat="43.49729" lon="6.18307">
        <ele>167.6</ele>
        <time>2024-03-27T15:18:42Z</time>
      </trkpt>
      <trkpt lat="43.49729" lon="6.18307">
        <ele>167.7</ele>
        <time>2024-03-27T15:18:43Z</time>
      </trkpt>
      <trkpt lat="43.49728" lon="6.18308">
        <ele>167.8</ele>
        <time>2024-03-27T15:18:44Z</time>
      </trkpt>
      <trkpt lat="43.49728" lon="6.18309">
        <ele>167.9</ele>
        <time>2024-03-27T15:18:45Z</time>
      </trkpt>
      <trkpt lat="43.49727" lon="6.18311">
        <ele>168</ele>
        <time>2024-03-27T15:18:46Z</time>
      </trkpt>
      <trkpt lat="43.49727" lon="6.18312">
        <ele>168</ele>
        <time>2024-03-27T15:18:47Z</time>
      </trkpt>
      <trkpt lat="43.49727" lon="6.18313">
        <ele>168</ele>
        <time>2024-03-27T15:18:48Z</time>
      </trkpt>
      <trkpt lat="43.49726" lon="6.18314">
        <ele>168</ele>
        <time>2024-03-27T15:18:49Z</time>
      </trkpt>
      <trkpt lat="43.49725" lon="6.18315">
        <ele>168.1</ele>
        <time>2024-03-27T15:18:50Z</time>
      </trkpt>
      <trkpt lat="43.49725" lon="6.18316">
        <ele>168.1</ele>
        <time>2024-03-27T15:18:51Z</time>
      </trkpt>
      <trkpt lat="43.49724" lon="6.18317">
        <ele>168.1</ele>
        <time>2024-03-27T15:18:52Z</time>
      </trkpt>
      <trkpt lat="43.49724" lon="6.18318">
        <ele>168.3</ele>
        <time>2024-03-27T15:18:53Z</time>
      </trkpt>
      <trkpt lat="43.49723" lon="6.18319">
        <ele>168.3</ele>
        <time>2024-03-27T15:18:54Z</time>
      </trkpt>
      <trkpt lat="43.49722" lon="6.18321">
        <ele>168.2</ele>
        <time>2024-03-27T15:18:55Z</time>
      </trkpt>
      <trkpt lat="43.49721" lon="6.18322">
        <ele>168.3</ele>
        <time>2024-03-27T15:18:56Z</time>
      </trkpt>
      <trkpt lat="43.49721" lon="6.18323">
        <ele>168.4</ele>
        <time>2024-03-27T15:18:57Z</time>
      </trkpt>
      <trkpt lat="43.4972" lon="6.18325">
        <ele>168.4</ele>
        <time>2024-03-27T15:18:58Z</time>
      </trkpt>
      <trkpt lat="43.4972" lon="6.18326">
        <ele>168.3</ele>
        <time>2024-03-27T15:18:59Z</time>
      </trkpt>
      <trkpt lat="43.49719" lon="6.18328">
        <ele>168.4</ele>
        <time>2024-03-27T15:19:00Z</time>
      </trkpt>
      <trkpt lat="43.49719" lon="6.18329">
        <ele>168.5</ele>
        <time>2024-03-27T15:19:01Z</time>
      </trkpt>
      <trkpt lat="43.49718" lon="6.1833">
        <ele>168.5</ele>
        <time>2024-03-27T15:19:02Z</time>
      </trkpt>
      <trkpt lat="43.49717" lon="6.18332">
        <ele>168.5</ele>
        <time>2024-03-27T15:19:03Z</time>
      </trkpt>
      <trkpt lat="43.49717" lon="6.18333">
        <ele>168.5</ele>
        <time>2024-03-27T15:19:04Z</time>
      </trkpt>
      <trkpt lat="43.49716" lon="6.18334">
        <ele>168.6</ele>
        <time>2024-03-27T15:19:05Z</time>
      </trkpt>
      <trkpt lat="43.49715" lon="6.18336">
        <ele>168.7</ele>
        <time>2024-03-27T15:19:06Z</time>
      </trkpt>
      <trkpt lat="43.49715" lon="6.18338">
        <ele>168.7</ele>
        <time>2024-03-27T15:19:07Z</time>
      </trkpt>
      <trkpt lat="43.49714" lon="6.1834">
        <ele>168.6</ele>
        <time>2024-03-27T15:19:08Z</time>
      </trkpt>
      <trkpt lat="43.49713" lon="6.18341">
        <ele>168.8</ele>
        <time>2024-03-27T15:19:09Z</time>
      </trkpt>
      <trkpt lat="43.49713" lon="6.18342">
        <ele>169</ele>
        <time>2024-03-27T15:19:10Z</time>
      </trkpt>
      <trkpt lat="43.49713" lon="6.18344">
        <ele>168.8</ele>
        <time>2024-03-27T15:19:11Z</time>
      </trkpt>
      <trkpt lat="43.49712" lon="6.18345">
        <ele>168.7</ele>
        <time>2024-03-27T15:19:12Z</time>
      </trkpt>
      <trkpt lat="43.49712" lon="6.18347">
        <ele>168.6</ele>
        <time>2024-03-27T15:19:13Z</time>
      </trkpt>
      <trkpt lat="43.49711" lon="6.18349">
        <ele>168.7</ele>
        <time>2024-03-27T15:19:14Z</time>
      </trkpt>
      <trkpt lat="43.49711" lon="6.1835">
        <ele>168.8</ele>
        <time>2024-03-27T15:19:15Z</time>
      </trkpt>
      <trkpt lat="43.49711" lon="6.18352">
        <ele>168.8</ele>
        <time>2024-03-27T15:19:16Z</time>
      </trkpt>
      <trkpt lat="43.4971" lon="6.18353">
        <ele>168.8</ele>
        <time>2024-03-27T15:19:17Z</time>
      </trkpt>
      <trkpt lat="43.4971" lon="6.18355">
        <ele>168.8</ele>
        <time>2024-03-27T15:19:18Z</time>
      </trkpt>
      <trkpt lat="43.49709" lon="6.18357">
        <ele>168.8</ele>
        <time>2024-03-27T15:19:19Z</time>
      </trkpt>
      <trkpt lat="43.49709" lon="6.18358">
        <ele>168.8</ele>
        <time>2024-03-27T15:19:20Z</time>
      </trkpt>
      <trkpt lat="43.49708" lon="6.18359">
        <ele>168.8</ele>
        <time>2024-03-27T15:19:21Z</time>
      </trkpt>
      <trkpt lat="43.49708" lon="6.18361">
        <ele>168.7</ele>
        <time>2024-03-27T15:19:22Z</time>
      </trkpt>
      <trkpt lat="43.49707" lon="6.18363">
        <ele>168.8</ele>
        <time>2024-03-27T15:19:23Z</time>
      </trkpt>
      <trkpt lat="43.49707" lon="6.18364">
        <ele>168.9</ele>
        <time>2024-03-27T15:19:24Z</time>
      </trkpt>
      <trkpt lat="43.49707" lon="6.18365">
        <ele>168.8</ele>
        <time>2024-03-27T15:19:25Z</time>
      </trkpt>
      <trkpt lat="43.49706" lon="6.18367">
        <ele>168.8</ele>
        <time>2024-03-27T15:19:26Z</time>
      </trkpt>
      <trkpt lat="43.49706" lon="6.18369">
        <ele>168.8</ele>
        <time>2024-03-27T15:19:27Z</time>
      </trkpt>
      <trkpt lat="43.49705" lon="6.18371">
        <ele>168.8</ele>
        <time>2024-03-27T15:19:28Z</time>
      </trkpt>
      <trkpt lat="43.49705" lon="6.18372">
        <ele>168.9</ele>
        <time>2024-03-27T15:19:29Z</time>
      </trkpt>
      <trkpt lat="43.49705" lon="6.18374">
        <ele>169</ele>
        <time>2024-03-27T15:19:30Z</time>
      </trkpt>
      <trkpt lat="43.49704" lon="6.18375">
        <ele>169.1</ele>
        <time>2024-03-27T15:19:31Z</time>
      </trkpt>
      <trkpt lat="43.49703" lon="6.18376">
        <ele>169.2</ele>
        <time>2024-03-27T15:19:32Z</time>
      </trkpt>
      <trkpt lat="43.49703" lon="6.18378">
        <ele>169.4</ele>
        <time>2024-03-27T15:19:33Z</time>
      </trkpt>
      <trkpt lat="43.49703" lon="6.18379">
        <ele>169.5</ele>
        <time>2024-03-27T15:19:34Z</time>
      </trkpt>
      <trkpt lat="43.49702" lon="6.18381">
        <ele>169.6</ele>
        <time>2024-03-27T15:19:35Z</time>
      </trkpt>
      <trkpt lat="43.49701" lon="6.18382">
        <ele>169.7</ele>
        <time>2024-03-27T15:19:36Z</time>
      </trkpt>
      <trkpt lat="43.49701" lon="6.18384">
        <ele>169.7</ele>
        <time>2024-03-27T15:19:37Z</time>
      </trkpt>
      <trkpt lat="43.497" lon="6.18385">
        <ele>169.6</ele>
        <time>2024-03-27T15:19:38Z</time>
      </trkpt>
      <trkpt lat="43.497" lon="6.18386">
        <ele>169.7</ele>
        <time>2024-03-27T15:19:39Z</time>
      </trkpt>
      <trkpt lat="43.49699" lon="6.18387">
        <ele>169.7</ele>
        <time>2024-03-27T15:19:40Z</time>
      </trkpt>
      <trkpt lat="43.49699" lon="6.18389">
        <ele>169.8</ele>
        <time>2024-03-27T15:19:41Z</time>
      </trkpt>
      <trkpt lat="43.49699" lon="6.18391">
        <ele>169.8</ele>
        <time>2024-03-27T15:19:42Z</time>
      </trkpt>
      <trkpt lat="43.49698" lon="6.18392">
        <ele>169.8</ele>
        <time>2024-03-27T15:19:43Z</time>
      </trkpt>
      <trkpt lat="43.49698" lon="6.18393">
        <ele>169.8</ele>
        <time>2024-03-27T15:19:44Z</time>
      </trkpt>
      <trkpt lat="43.49697" lon="6.18395">
        <ele>169.8</ele>
        <time>2024-03-27T15:19:45Z</time>
      </trkpt>
      <trkpt lat="43.49697" lon="6.18396">
        <ele>169.7</ele>
        <time>2024-03-27T15:19:46Z</time>
      </trkpt>
      <trkpt lat="43.49696" lon="6.18397">
        <ele>169.8</ele>
        <time>2024-03-27T15:19:47Z</time>
      </trkpt>
      <trkpt lat="43.49696" lon="6.18399">
        <ele>169.8</ele>
        <time>2024-03-27T15:19:48Z</time>
      </trkpt>
      <trkpt lat="43.49695" lon="6.184">
        <ele>169.8</ele>
        <time>2024-03-27T15:19:49Z</time>
      </trkpt>
      <trkpt lat="43.49695" lon="6.18401">
        <ele>169.8</ele>
        <time>2024-03-27T15:19:50Z</time>
      </trkpt>
      <trkpt lat="43.49694" lon="6.18402">
        <ele>169.8</ele>
        <time>2024-03-27T15:19:51Z</time>
      </trkpt>
      <trkpt lat="43.49694" lon="6.18404">
        <ele>169.8</ele>
        <time>2024-03-27T15:19:52Z</time>
      </trkpt>
      <trkpt lat="43.49693" lon="6.18405">
        <ele>169.8</ele>
        <time>2024-03-27T15:19:53Z</time>
      </trkpt>
      <trkpt lat="43.49693" lon="6.18407">
        <ele>169.9</ele>
        <time>2024-03-27T15:19:54Z</time>
      </trkpt>
      <trkpt lat="43.49693" lon="6.18408">
        <ele>170</ele>
        <time>2024-03-27T15:19:55Z</time>
      </trkpt>
      <trkpt lat="43.49692" lon="6.18409">
        <ele>170</ele>
        <time>2024-03-27T15:19:56Z</time>
      </trkpt>
      <trkpt lat="43.49692" lon="6.18411">
        <ele>170.1</ele>
        <time>2024-03-27T15:19:57Z</time>
      </trkpt>
      <trkpt lat="43.49691" lon="6.18412">
        <ele>170.2</ele>
        <time>2024-03-27T15:19:58Z</time>
      </trkpt>
      <trkpt lat="43.4969" lon="6.18413">
        <ele>170.3</ele>
        <time>2024-03-27T15:19:59Z</time>
      </trkpt>
      <trkpt lat="43.4969" lon="6.18415">
        <ele>170.4</ele>
        <time>2024-03-27T15:20:00Z</time>
      </trkpt>
      <trkpt lat="43.49689" lon="6.18416">
        <ele>170.5</ele>
        <time>2024-03-27T15:20:01Z</time>
      </trkpt>
      <trkpt lat="43.49689" lon="6.18418">
        <ele>170.6</ele>
        <time>2024-03-27T15:20:02Z</time>
      </trkpt>
      <trkpt lat="43.49688" lon="6.18419">
        <ele>170.6</ele>
        <time>2024-03-27T15:20:03Z</time>
      </trkpt>
      <trkpt lat="43.49688" lon="6.1842">
        <ele>170.7</ele>
        <time>2024-03-27T15:20:04Z</time>
      </trkpt>
      <trkpt lat="43.49687" lon="6.18422">
        <ele>170.7</ele>
        <time>2024-03-27T15:20:05Z</time>
      </trkpt>
      <trkpt lat="43.49686" lon="6.18423">
        <ele>170.7</ele>
        <time>2024-03-27T15:20:06Z</time>
      </trkpt>
      <trkpt lat="43.49686" lon="6.18425">
        <ele>170.8</ele>
        <time>2024-03-27T15:20:07Z</time>
      </trkpt>
      <trkpt lat="43.49685" lon="6.18426">
        <ele>170.9</ele>
        <time>2024-03-27T15:20:08Z</time>
      </trkpt>
      <trkpt lat="43.49684" lon="6.18428">
        <ele>171</ele>
        <time>2024-03-27T15:20:09Z</time>
      </trkpt>
      <trkpt lat="43.49684" lon="6.18429">
        <ele>171.1</ele>
        <time>2024-03-27T15:20:10Z</time>
      </trkpt>
      <trkpt lat="43.49683" lon="6.18431">
        <ele>171.1</ele>
        <time>2024-03-27T15:20:11Z</time>
      </trkpt>
      <trkpt lat="43.49683" lon="6.18432">
        <ele>171.2</ele>
        <time>2024-03-27T15:20:12Z</time>
      </trkpt>
      <trkpt lat="43.49682" lon="6.18433">
        <ele>171.3</ele>
        <time>2024-03-27T15:20:13Z</time>
      </trkpt>
      <trkpt lat="43.49682" lon="6.18435">
        <ele>171.4</ele>
        <time>2024-03-27T15:20:14Z</time>
      </trkpt>
      <trkpt lat="43.49681" lon="6.18436">
        <ele>171.5</ele>
        <time>2024-03-27T15:20:15Z</time>
      </trkpt>
      <trkpt lat="43.49681" lon="6.18437">
        <ele>171.6</ele>
        <time>2024-03-27T15:20:16Z</time>
      </trkpt>
      <trkpt lat="43.4968" lon="6.18438">
        <ele>171.8</ele>
        <time>2024-03-27T15:20:17Z</time>
      </trkpt>
      <trkpt lat="43.49679" lon="6.18439">
        <ele>171.9</ele>
        <time>2024-03-27T15:20:18Z</time>
      </trkpt>
      <trkpt lat="43.49678" lon="6.1844">
        <ele>172</ele>
        <time>2024-03-27T15:20:19Z</time>
      </trkpt>
      <trkpt lat="43.49678" lon="6.18442">
        <ele>172.1</ele>
        <time>2024-03-27T15:20:20Z</time>
      </trkpt>
      <trkpt lat="43.49677" lon="6.18443">
        <ele>172.2</ele>
        <time>2024-03-27T15:20:21Z</time>
      </trkpt>
      <trkpt lat="43.49676" lon="6.18444">
        <ele>172.3</ele>
        <time>2024-03-27T15:20:22Z</time>
      </trkpt>
      <trkpt lat="43.49675" lon="6.18445">
        <ele>172.4</ele>
        <time>2024-03-27T15:20:23Z</time>
      </trkpt>
      <trkpt lat="43.49675" lon="6.18446">
        <ele>172.6</ele>
        <time>2024-03-27T15:20:24Z</time>
      </trkpt>
      <trkpt lat="43.49674" lon="6.18447">
        <ele>172.7</ele>
        <time>2024-03-27T15:20:25Z</time>
      </trkpt>
      <trkpt lat="43.49673" lon="6.18448">
        <ele>172.8</ele>
        <time>2024-03-27T15:20:26Z</time>
      </trkpt>
      <trkpt lat="43.49673" lon="6.18449">
        <ele>172.9</ele>
        <time>2024-03-27T15:20:27Z</time>
      </trkpt>
      <trkpt lat="43.49672" lon="6.1845">
        <ele>173</ele>
        <time>2024-03-27T15:20:28Z</time>
      </trkpt>
      <trkpt lat="43.49671" lon="6.18452">
        <ele>173.1</ele>
        <time>2024-03-27T15:20:29Z</time>
      </trkpt>
      <trkpt lat="43.49671" lon="6.18453">
        <ele>173.2</ele>
        <time>2024-03-27T15:20:30Z</time>
      </trkpt>
      <trkpt lat="43.4967" lon="6.18455">
        <ele>173.2</ele>
        <time>2024-03-27T15:20:31Z</time>
      </trkpt>
      <trkpt lat="43.4967" lon="6.18456">
        <ele>173.3</ele>
        <time>2024-03-27T15:20:32Z</time>
      </trkpt>
      <trkpt lat="43.4967" lon="6.18459">
        <ele>173.3</ele>
        <time>2024-03-27T15:20:33Z</time>
      </trkpt>
      <trkpt lat="43.4967" lon="6.1846">
        <ele>173.4</ele>
        <time>2024-03-27T15:20:34Z</time>
      </trkpt>
      <trkpt lat="43.49669" lon="6.18462">
        <ele>173.4</ele>
        <time>2024-03-27T15:20:35Z</time>
      </trkpt>
      <trkpt lat="43.49669" lon="6.18463">
        <ele>173.5</ele>
        <time>2024-03-27T15:20:36Z</time>
      </trkpt>
      <trkpt lat="43.49669" lon="6.18465">
        <ele>173.5</ele>
        <time>2024-03-27T15:20:37Z</time>
      </trkpt>
      <trkpt lat="43.49668" lon="6.18467">
        <ele>173.5</ele>
        <time>2024-03-27T15:20:38Z</time>
      </trkpt>
      <trkpt lat="43.49668" lon="6.18469">
        <ele>173.5</ele>
        <time>2024-03-27T15:20:39Z</time>
      </trkpt>
      <trkpt lat="43.49668" lon="6.1847">
        <ele>173.3</ele>
        <time>2024-03-27T15:20:40Z</time>
      </trkpt>
      <trkpt lat="43.49667" lon="6.18472">
        <ele>173.2</ele>
        <time>2024-03-27T15:20:41Z</time>
      </trkpt>
      <trkpt lat="43.49667" lon="6.18474">
        <ele>173.2</ele>
        <time>2024-03-27T15:20:42Z</time>
      </trkpt>
      <trkpt lat="43.49667" lon="6.18475">
        <ele>173.2</ele>
        <time>2024-03-27T15:20:43Z</time>
      </trkpt>
      <trkpt lat="43.49667" lon="6.18476">
        <ele>173.2</ele>
        <time>2024-03-27T15:20:44Z</time>
      </trkpt>
      <trkpt lat="43.49666" lon="6.18477">
        <ele>173.2</ele>
        <time>2024-03-27T15:20:45Z</time>
      </trkpt>
      <trkpt lat="43.49665" lon="6.18479">
        <ele>173.2</ele>
        <time>2024-03-27T15:20:46Z</time>
      </trkpt>
      <trkpt lat="43.49665" lon="6.1848">
        <ele>173.1</ele>
        <time>2024-03-27T15:20:47Z</time>
      </trkpt>
      <trkpt lat="43.49664" lon="6.18481">
        <ele>173</ele>
        <time>2024-03-27T15:20:48Z</time>
      </trkpt>
      <trkpt lat="43.49664" lon="6.18482">
        <ele>173</ele>
        <time>2024-03-27T15:20:49Z</time>
      </trkpt>
      <trkpt lat="43.49664" lon="6.18483">
        <ele>173.1</ele>
        <time>2024-03-27T15:20:50Z</time>
      </trkpt>
      <trkpt lat="43.49663" lon="6.18485">
        <ele>173.1</ele>
        <time>2024-03-27T15:20:51Z</time>
      </trkpt>
      <trkpt lat="43.49663" lon="6.18486">
        <ele>173.1</ele>
        <time>2024-03-27T15:20:52Z</time>
      </trkpt>
      <trkpt lat="43.49662" lon="6.18487">
        <ele>173.1</ele>
        <time>2024-03-27T15:20:53Z</time>
      </trkpt>
      <trkpt lat="43.49662" lon="6.18488">
        <ele>173</ele>
        <time>2024-03-27T15:20:54Z</time>
      </trkpt>
      <trkpt lat="43.49661" lon="6.1849">
        <ele>172.9</ele>
        <time>2024-03-27T15:20:55Z</time>
      </trkpt>
      <trkpt lat="43.49661" lon="6.1849">
        <ele>172.8</ele>
        <time>2024-03-27T15:20:56Z</time>
      </trkpt>
      <trkpt lat="43.49661" lon="6.18491">
        <ele>172.6</ele>
        <time>2024-03-27T15:20:57Z</time>
      </trkpt>
      <trkpt lat="43.4966" lon="6.18493">
        <ele>172.5</ele>
        <time>2024-03-27T15:20:58Z</time>
      </trkpt>
      <trkpt lat="43.4966" lon="6.18494">
        <ele>172.4</ele>
        <time>2024-03-27T15:20:59Z</time>
      </trkpt>
      <trkpt lat="43.49659" lon="6.18495">
        <ele>172.4</ele>
        <time>2024-03-27T15:21:00Z</time>
      </trkpt>
      <trkpt lat="43.49658" lon="6.18496">
        <ele>172.4</ele>
        <time>2024-03-27T15:21:01Z</time>
      </trkpt>
      <trkpt lat="43.49658" lon="6.18498">
        <ele>172.5</ele>
        <time>2024-03-27T15:21:02Z</time>
      </trkpt>
      <trkpt lat="43.49657" lon="6.18499">
        <ele>172.5</ele>
        <time>2024-03-27T15:21:03Z</time>
      </trkpt>
      <trkpt lat="43.49657" lon="6.185">
        <ele>172.4</ele>
        <time>2024-03-27T15:21:04Z</time>
      </trkpt>
      <trkpt lat="43.49657" lon="6.18502">
        <ele>172.4</ele>
        <time>2024-03-27T15:21:05Z</time>
      </trkpt>
      <trkpt lat="43.49656" lon="6.18503">
        <ele>172.4</ele>
        <time>2024-03-27T15:21:06Z</time>
      </trkpt>
      <trkpt lat="43.49656" lon="6.18504">
        <ele>172.6</ele>
        <time>2024-03-27T15:21:07Z</time>
      </trkpt>
      <trkpt lat="43.49655" lon="6.18505">
        <ele>172.6</ele>
        <time>2024-03-27T15:21:08Z</time>
      </trkpt>
      <trkpt lat="43.49655" lon="6.18507">
        <ele>172.6</ele>
        <time>2024-03-27T15:21:09Z</time>
      </trkpt>
      <trkpt lat="43.49654" lon="6.18508">
        <ele>172.6</ele>
        <time>2024-03-27T15:21:10Z</time>
      </trkpt>
      <trkpt lat="43.49654" lon="6.1851">
        <ele>172.7</ele>
        <time>2024-03-27T15:21:11Z</time>
      </trkpt>
      <trkpt lat="43.49653" lon="6.18511">
        <ele>172.7</ele>
        <time>2024-03-27T15:21:12Z</time>
      </trkpt>
      <trkpt lat="43.49653" lon="6.18513">
        <ele>172.6</ele>
        <time>2024-03-27T15:21:13Z</time>
      </trkpt>
      <trkpt lat="43.49653" lon="6.18514">
        <ele>172.6</ele>
        <time>2024-03-27T15:21:14Z</time>
      </trkpt>
      <trkpt lat="43.49652" lon="6.18515">
        <ele>172.6</ele>
        <time>2024-03-27T15:21:15Z</time>
      </trkpt>
      <trkpt lat="43.49652" lon="6.18517">
        <ele>173.1</ele>
        <time>2024-03-27T15:21:16Z</time>
      </trkpt>
      <trkpt lat="43.49652" lon="6.18518">
        <ele>173.1</ele>
        <time>2024-03-27T15:21:17Z</time>
      </trkpt>
      <trkpt lat="43.49651" lon="6.18519">
        <ele>173</ele>
        <time>2024-03-27T15:21:18Z</time>
      </trkpt>
      <trkpt lat="43.49651" lon="6.18521">
        <ele>173</ele>
        <time>2024-03-27T15:21:19Z</time>
      </trkpt>
      <trkpt lat="43.4965" lon="6.18522">
        <ele>173</ele>
        <time>2024-03-27T15:21:20Z</time>
      </trkpt>
      <trkpt lat="43.4965" lon="6.18524">
        <ele>172.9</ele>
        <time>2024-03-27T15:21:21Z</time>
      </trkpt>
      <trkpt lat="43.4965" lon="6.18525">
        <ele>172.9</ele>
        <time>2024-03-27T15:21:22Z</time>
      </trkpt>
      <trkpt lat="43.49649" lon="6.18526">
        <ele>172.8</ele>
        <time>2024-03-27T15:21:23Z</time>
      </trkpt>
      <trkpt lat="43.49649" lon="6.18528">
        <ele>172.7</ele>
        <time>2024-03-27T15:21:24Z</time>
      </trkpt>
      <trkpt lat="43.49648" lon="6.18529">
        <ele>172.7</ele>
        <time>2024-03-27T15:21:25Z</time>
      </trkpt>
      <trkpt lat="43.49648" lon="6.1853">
        <ele>172.6</ele>
        <time>2024-03-27T15:21:26Z</time>
      </trkpt>
      <trkpt lat="43.49647" lon="6.18531">
        <ele>172.6</ele>
        <time>2024-03-27T15:21:27Z</time>
      </trkpt>
      <trkpt lat="43.49647" lon="6.18532">
        <ele>172.6</ele>
        <time>2024-03-27T15:21:28Z</time>
      </trkpt>
      <trkpt lat="43.49647" lon="6.18534">
        <ele>172.6</ele>
        <time>2024-03-27T15:21:29Z</time>
      </trkpt>
      <trkpt lat="43.49646" lon="6.18535">
        <ele>172.6</ele>
        <time>2024-03-27T15:21:30Z</time>
      </trkpt>
      <trkpt lat="43.49646" lon="6.18537">
        <ele>172.7</ele>
        <time>2024-03-27T15:21:31Z</time>
      </trkpt>
      <trkpt lat="43.49645" lon="6.18538">
        <ele>172.7</ele>
        <time>2024-03-27T15:21:32Z</time>
      </trkpt>
      <trkpt lat="43.49645" lon="6.18539">
        <ele>172.8</ele>
        <time>2024-03-27T15:21:33Z</time>
      </trkpt>
      <trkpt lat="43.49644" lon="6.1854">
        <ele>172.9</ele>
        <time>2024-03-27T15:21:34Z</time>
      </trkpt>
      <trkpt lat="43.49644" lon="6.18542">
        <ele>172.9</ele>
        <time>2024-03-27T15:21:35Z</time>
      </trkpt>
      <trkpt lat="43.49643" lon="6.18543">
        <ele>173</ele>
        <time>2024-03-27T15:21:36Z</time>
      </trkpt>
      <trkpt lat="43.49643" lon="6.18545">
        <ele>173</ele>
        <time>2024-03-27T15:21:37Z</time>
      </trkpt>
      <trkpt lat="43.49642" lon="6.18546">
        <ele>173.1</ele>
        <time>2024-03-27T15:21:38Z</time>
      </trkpt>
      <trkpt lat="43.49642" lon="6.18548">
        <ele>173.1</ele>
        <time>2024-03-27T15:21:39Z</time>
      </trkpt>
      <trkpt lat="43.49641" lon="6.18549">
        <ele>173.1</ele>
        <time>2024-03-27T15:21:40Z</time>
      </trkpt>
      <trkpt lat="43.49641" lon="6.18551">
        <ele>173</ele>
        <time>2024-03-27T15:21:41Z</time>
      </trkpt>
      <trkpt lat="43.49641" lon="6.18552">
        <ele>172.9</ele>
        <time>2024-03-27T15:21:42Z</time>
      </trkpt>
      <trkpt lat="43.4964" lon="6.18554">
        <ele>172.7</ele>
        <time>2024-03-27T15:21:43Z</time>
      </trkpt>
      <trkpt lat="43.4964" lon="6.18555">
        <ele>172.5</ele>
        <time>2024-03-27T15:21:44Z</time>
      </trkpt>
      <trkpt lat="43.49639" lon="6.18556">
        <ele>172.4</ele>
        <time>2024-03-27T15:21:45Z</time>
      </trkpt>
      <trkpt lat="43.49639" lon="6.18558">
        <ele>172.2</ele>
        <time>2024-03-27T15:21:46Z</time>
      </trkpt>
      <trkpt lat="43.49639" lon="6.18559">
        <ele>172.2</ele>
        <time>2024-03-27T15:21:47Z</time>
      </trkpt>
      <trkpt lat="43.49638" lon="6.18561">
        <ele>172.2</ele>
        <time>2024-03-27T15:21:48Z</time>
      </trkpt>
      <trkpt lat="43.49638" lon="6.18562">
        <ele>172.3</ele>
        <time>2024-03-27T15:21:49Z</time>
      </trkpt>
      <trkpt lat="43.49637" lon="6.18563">
        <ele>172.4</ele>
        <time>2024-03-27T15:21:50Z</time>
      </trkpt>
      <trkpt lat="43.49637" lon="6.18564">
        <ele>172.5</ele>
        <time>2024-03-27T15:21:51Z</time>
      </trkpt>
      <trkpt lat="43.49637" lon="6.18566">
        <ele>172.5</ele>
        <time>2024-03-27T15:21:52Z</time>
      </trkpt>
      <trkpt lat="43.49636" lon="6.18568">
        <ele>172.6</ele>
        <time>2024-03-27T15:21:53Z</time>
      </trkpt>
      <trkpt lat="43.49636" lon="6.18569">
        <ele>172.6</ele>
        <time>2024-03-27T15:21:54Z</time>
      </trkpt>
      <trkpt lat="43.49635" lon="6.18571">
        <ele>172.7</ele>
        <time>2024-03-27T15:21:55Z</time>
      </trkpt>
      <trkpt lat="43.49635" lon="6.18572">
        <ele>172.7</ele>
        <time>2024-03-27T15:21:56Z</time>
      </trkpt>
      <trkpt lat="43.49634" lon="6.18574">
        <ele>172.7</ele>
        <time>2024-03-27T15:21:57Z</time>
      </trkpt>
      <trkpt lat="43.49634" lon="6.18575">
        <ele>172.8</ele>
        <time>2024-03-27T15:21:58Z</time>
      </trkpt>
      <trkpt lat="43.49634" lon="6.18577">
        <ele>172.8</ele>
        <time>2024-03-27T15:21:59Z</time>
      </trkpt>
      <trkpt lat="43.49633" lon="6.18578">
        <ele>172.9</ele>
        <time>2024-03-27T15:22:00Z</time>
      </trkpt>
      <trkpt lat="43.49633" lon="6.1858">
        <ele>173</ele>
        <time>2024-03-27T15:22:01Z</time>
      </trkpt>
      <trkpt lat="43.49632" lon="6.18581">
        <ele>173</ele>
        <time>2024-03-27T15:22:02Z</time>
      </trkpt>
      <trkpt lat="43.49631" lon="6.18582">
        <ele>173</ele>
        <time>2024-03-27T15:22:03Z</time>
      </trkpt>
      <trkpt lat="43.49631" lon="6.18583">
        <ele>173.1</ele>
        <time>2024-03-27T15:22:04Z</time>
      </trkpt>
      <trkpt lat="43.4963" lon="6.18585">
        <ele>173.1</ele>
        <time>2024-03-27T15:22:05Z</time>
      </trkpt>
      <trkpt lat="43.4963" lon="6.18586">
        <ele>173.2</ele>
        <time>2024-03-27T15:22:06Z</time>
      </trkpt>
      <trkpt lat="43.49629" lon="6.18587">
        <ele>173.3</ele>
        <time>2024-03-27T15:22:07Z</time>
      </trkpt>
      <trkpt lat="43.49629" lon="6.18588">
        <ele>173.3</ele>
        <time>2024-03-27T15:22:08Z</time>
      </trkpt>
      <trkpt lat="43.49628" lon="6.18589">
        <ele>173.4</ele>
        <time>2024-03-27T15:22:09Z</time>
      </trkpt>
      <trkpt lat="43.49628" lon="6.1859">
        <ele>173.4</ele>
        <time>2024-03-27T15:22:10Z</time>
      </trkpt>
      <trkpt lat="43.49627" lon="6.18591">
        <ele>173.4</ele>
        <time>2024-03-27T15:22:11Z</time>
      </trkpt>
      <trkpt lat="43.49627" lon="6.18593">
        <ele>173.4</ele>
        <time>2024-03-27T15:22:12Z</time>
      </trkpt>
      <trkpt lat="43.49626" lon="6.18594">
        <ele>173.5</ele>
        <time>2024-03-27T15:22:13Z</time>
      </trkpt>
      <trkpt lat="43.49625" lon="6.18595">
        <ele>173.4</ele>
        <time>2024-03-27T15:22:14Z</time>
      </trkpt>
      <trkpt lat="43.49625" lon="6.18596">
        <ele>173.4</ele>
        <time>2024-03-27T15:22:15Z</time>
      </trkpt>
      <trkpt lat="43.49624" lon="6.18597">
        <ele>173.4</ele>
        <time>2024-03-27T15:22:16Z</time>
      </trkpt>
      <trkpt lat="43.49623" lon="6.18597">
        <ele>173.4</ele>
        <time>2024-03-27T15:22:17Z</time>
      </trkpt>
      <trkpt lat="43.49622" lon="6.18598">
        <ele>173.3</ele>
        <time>2024-03-27T15:22:18Z</time>
      </trkpt>
      <trkpt lat="43.49621" lon="6.18598">
        <ele>173.3</ele>
        <time>2024-03-27T15:22:19Z</time>
      </trkpt>
      <trkpt lat="43.4962" lon="6.18598">
        <ele>173.3</ele>
        <time>2024-03-27T15:22:20Z</time>
      </trkpt>
      <trkpt lat="43.49619" lon="6.18597">
        <ele>173.3</ele>
        <time>2024-03-27T15:22:21Z</time>
      </trkpt>
      <trkpt lat="43.49618" lon="6.18597">
        <ele>173.4</ele>
        <time>2024-03-27T15:22:22Z</time>
      </trkpt>
      <trkpt lat="43.49617" lon="6.18596">
        <ele>173.4</ele>
        <time>2024-03-27T15:22:23Z</time>
      </trkpt>
      <trkpt lat="43.49616" lon="6.18596">
        <ele>173.5</ele>
        <time>2024-03-27T15:22:24Z</time>
      </trkpt>
      <trkpt lat="43.49615" lon="6.18595">
        <ele>173.5</ele>
        <time>2024-03-27T15:22:25Z</time>
      </trkpt>
      <trkpt lat="43.49615" lon="6.18595">
        <ele>173.4</ele>
        <time>2024-03-27T15:22:26Z</time>
      </trkpt>
      <trkpt lat="43.49614" lon="6.18594">
        <ele>173.4</ele>
        <time>2024-03-27T15:22:27Z</time>
      </trkpt>
      <trkpt lat="43.49613" lon="6.18594">
        <ele>173.4</ele>
        <time>2024-03-27T15:22:28Z</time>
      </trkpt>
      <trkpt lat="43.49612" lon="6.18593">
        <ele>173.4</ele>
        <time>2024-03-27T15:22:29Z</time>
      </trkpt>
      <trkpt lat="43.49611" lon="6.18593">
        <ele>173.5</ele>
        <time>2024-03-27T15:22:30Z</time>
      </trkpt>
      <trkpt lat="43.4961" lon="6.18592">
        <ele>173.5</ele>
        <time>2024-03-27T15:22:31Z</time>
      </trkpt>
      <trkpt lat="43.49609" lon="6.18592">
        <ele>173.6</ele>
        <time>2024-03-27T15:22:32Z</time>
      </trkpt>
      <trkpt lat="43.49608" lon="6.18592">
        <ele>173.6</ele>
        <time>2024-03-27T15:22:33Z</time>
      </trkpt>
      <trkpt lat="43.49607" lon="6.18592">
        <ele>173.6</ele>
        <time>2024-03-27T15:22:34Z</time>
      </trkpt>
      <trkpt lat="43.49606" lon="6.18592">
        <ele>173.5</ele>
        <time>2024-03-27T15:22:35Z</time>
      </trkpt>
      <trkpt lat="43.49605" lon="6.18592">
        <ele>173.6</ele>
        <time>2024-03-27T15:22:36Z</time>
      </trkpt>
      <trkpt lat="43.49605" lon="6.18592">
        <ele>173.7</ele>
        <time>2024-03-27T15:22:37Z</time>
      </trkpt>
      <trkpt lat="43.49604" lon="6.18593">
        <ele>173.8</ele>
        <time>2024-03-27T15:22:38Z</time>
      </trkpt>
      <trkpt lat="43.49603" lon="6.18594">
        <ele>173.9</ele>
        <time>2024-03-27T15:22:39Z</time>
      </trkpt>
      <trkpt lat="43.49602" lon="6.18595">
        <ele>174</ele>
        <time>2024-03-27T15:22:40Z</time>
      </trkpt>
      <trkpt lat="43.49601" lon="6.18596">
        <ele>174.1</ele>
        <time>2024-03-27T15:22:41Z</time>
      </trkpt>
      <trkpt lat="43.496" lon="6.18598">
        <ele>174.2</ele>
        <time>2024-03-27T15:22:42Z</time>
      </trkpt>
      <trkpt lat="43.496" lon="6.18599">
        <ele>174.3</ele>
        <time>2024-03-27T15:22:43Z</time>
      </trkpt>
      <trkpt lat="43.49599" lon="6.18599">
        <ele>174.4</ele>
        <time>2024-03-27T15:22:44Z</time>
      </trkpt>
      <trkpt lat="43.49598" lon="6.18601">
        <ele>174.4</ele>
        <time>2024-03-27T15:22:45Z</time>
      </trkpt>
      <trkpt lat="43.49598" lon="6.18602">
        <ele>174.5</ele>
        <time>2024-03-27T15:22:46Z</time>
      </trkpt>
      <trkpt lat="43.49597" lon="6.18604">
        <ele>174.5</ele>
        <time>2024-03-27T15:22:47Z</time>
      </trkpt>
      <trkpt lat="43.49597" lon="6.18605">
        <ele>174.6</ele>
        <time>2024-03-27T15:22:48Z</time>
      </trkpt>
      <trkpt lat="43.49596" lon="6.18606">
        <ele>174.6</ele>
        <time>2024-03-27T15:22:49Z</time>
      </trkpt>
      <trkpt lat="43.49595" lon="6.18608">
        <ele>174.6</ele>
        <time>2024-03-27T15:22:50Z</time>
      </trkpt>
      <trkpt lat="43.49595" lon="6.18609">
        <ele>174.5</ele>
        <time>2024-03-27T15:22:51Z</time>
      </trkpt>
      <trkpt lat="43.49594" lon="6.18611">
        <ele>174.7</ele>
        <time>2024-03-27T15:22:52Z</time>
      </trkpt>
      <trkpt lat="43.49593" lon="6.18612">
        <ele>174.6</ele>
        <time>2024-03-27T15:22:53Z</time>
      </trkpt>
      <trkpt lat="43.49592" lon="6.18614">
        <ele>174.6</ele>
        <time>2024-03-27T15:22:54Z</time>
      </trkpt>
      <trkpt lat="43.49592" lon="6.18615">
        <ele>174.5</ele>
        <time>2024-03-27T15:22:55Z</time>
      </trkpt>
      <trkpt lat="43.49591" lon="6.18617">
        <ele>174.5</ele>
        <time>2024-03-27T15:22:56Z</time>
      </trkpt>
      <trkpt lat="43.49591" lon="6.18618">
        <ele>174.5</ele>
        <time>2024-03-27T15:22:57Z</time>
      </trkpt>
      <trkpt lat="43.4959" lon="6.18619">
        <ele>174.5</ele>
        <time>2024-03-27T15:22:58Z</time>
      </trkpt>
      <trkpt lat="43.4959" lon="6.18621">
        <ele>174.5</ele>
        <time>2024-03-27T15:22:59Z</time>
      </trkpt>
      <trkpt lat="43.49589" lon="6.18622">
        <ele>174.6</ele>
        <time>2024-03-27T15:23:00Z</time>
      </trkpt>
      <trkpt lat="43.49588" lon="6.18623">
        <ele>174.7</ele>
        <time>2024-03-27T15:23:01Z</time>
      </trkpt>
      <trkpt lat="43.49587" lon="6.18625">
        <ele>174.7</ele>
        <time>2024-03-27T15:23:02Z</time>
      </trkpt>
      <trkpt lat="43.49587" lon="6.18627">
        <ele>174.6</ele>
        <time>2024-03-27T15:23:03Z</time>
      </trkpt>
      <trkpt lat="43.49587" lon="6.18629">
        <ele>174.6</ele>
        <time>2024-03-27T15:23:04Z</time>
      </trkpt>
      <trkpt lat="43.49586" lon="6.1863">
        <ele>174.6</ele>
        <time>2024-03-27T15:23:05Z</time>
      </trkpt>
      <trkpt lat="43.49586" lon="6.18631">
        <ele>174.6</ele>
        <time>2024-03-27T15:23:06Z</time>
      </trkpt>
      <trkpt lat="43.49585" lon="6.18632">
        <ele>174.5</ele>
        <time>2024-03-27T15:23:07Z</time>
      </trkpt>
      <trkpt lat="43.49585" lon="6.18634">
        <ele>174.4</ele>
        <time>2024-03-27T15:23:08Z</time>
      </trkpt>
      <trkpt lat="43.49584" lon="6.18636">
        <ele>174.2</ele>
        <time>2024-03-27T15:23:09Z</time>
      </trkpt>
      <trkpt lat="43.49583" lon="6.18637">
        <ele>174.1</ele>
        <time>2024-03-27T15:23:10Z</time>
      </trkpt>
      <trkpt lat="43.49583" lon="6.18638">
        <ele>174.1</ele>
        <time>2024-03-27T15:23:11Z</time>
      </trkpt>
      <trkpt lat="43.49582" lon="6.18639">
        <ele>174.1</ele>
        <time>2024-03-27T15:23:12Z</time>
      </trkpt>
      <trkpt lat="43.49581" lon="6.18641">
        <ele>174.3</ele>
        <time>2024-03-27T15:23:13Z</time>
      </trkpt>
      <trkpt lat="43.49581" lon="6.18643">
        <ele>174.4</ele>
        <time>2024-03-27T15:23:14Z</time>
      </trkpt>
      <trkpt lat="43.4958" lon="6.18644">
        <ele>174.4</ele>
        <time>2024-03-27T15:23:15Z</time>
      </trkpt>
      <trkpt lat="43.49579" lon="6.18646">
        <ele>174.4</ele>
        <time>2024-03-27T15:23:16Z</time>
      </trkpt>
      <trkpt lat="43.49579" lon="6.18647">
        <ele>174.4</ele>
        <time>2024-03-27T15:23:17Z</time>
      </trkpt>
      <trkpt lat="43.49578" lon="6.18648">
        <ele>174.4</ele>
        <time>2024-03-27T15:23:18Z</time>
      </trkpt>
      <trkpt lat="43.49578" lon="6.1865">
        <ele>174.5</ele>
        <time>2024-03-27T15:23:19Z</time>
      </trkpt>
      <trkpt lat="43.49577" lon="6.18652">
        <ele>174.6</ele>
        <time>2024-03-27T15:23:20Z</time>
      </trkpt>
      <trkpt lat="43.49577" lon="6.18653">
        <ele>174.6</ele>
        <time>2024-03-27T15:23:21Z</time>
      </trkpt>
      <trkpt lat="43.49576" lon="6.18655">
        <ele>174.6</ele>
        <time>2024-03-27T15:23:22Z</time>
      </trkpt>
      <trkpt lat="43.49575" lon="6.18656">
        <ele>174.5</ele>
        <time>2024-03-27T15:23:23Z</time>
      </trkpt>
      <trkpt lat="43.49574" lon="6.18657">
        <ele>174.5</ele>
        <time>2024-03-27T15:23:24Z</time>
      </trkpt>
      <trkpt lat="43.49574" lon="6.18659">
        <ele>174.5</ele>
        <time>2024-03-27T15:23:25Z</time>
      </trkpt>
      <trkpt lat="43.49573" lon="6.1866">
        <ele>174.5</ele>
        <time>2024-03-27T15:23:26Z</time>
      </trkpt>
      <trkpt lat="43.49572" lon="6.18662">
        <ele>174.5</ele>
        <time>2024-03-27T15:23:27Z</time>
      </trkpt>
      <trkpt lat="43.49572" lon="6.18663">
        <ele>174.5</ele>
        <time>2024-03-27T15:23:28Z</time>
      </trkpt>
      <trkpt lat="43.49571" lon="6.18664">
        <ele>174.4</ele>
        <time>2024-03-27T15:23:29Z</time>
      </trkpt>
      <trkpt lat="43.49571" lon="6.18666">
        <ele>174.2</ele>
        <time>2024-03-27T15:23:30Z</time>
      </trkpt>
      <trkpt lat="43.4957" lon="6.18667">
        <ele>174.2</ele>
        <time>2024-03-27T15:23:31Z</time>
      </trkpt>
      <trkpt lat="43.49569" lon="6.18668">
        <ele>174.3</ele>
        <time>2024-03-27T15:23:32Z</time>
      </trkpt>
      <trkpt lat="43.49568" lon="6.1867">
        <ele>174.4</ele>
        <time>2024-03-27T15:23:33Z</time>
      </trkpt>
      <trkpt lat="43.49568" lon="6.18672">
        <ele>174.5</ele>
        <time>2024-03-27T15:23:34Z</time>
      </trkpt>
      <trkpt lat="43.49567" lon="6.18673">
        <ele>174.5</ele>
        <time>2024-03-27T15:23:35Z</time>
      </trkpt>
      <trkpt lat="43.49567" lon="6.18674">
        <ele>174.6</ele>
        <time>2024-03-27T15:23:36Z</time>
      </trkpt>
      <trkpt lat="43.49566" lon="6.18676">
        <ele>174.8</ele>
        <time>2024-03-27T15:23:37Z</time>
      </trkpt>
      <trkpt lat="43.49566" lon="6.18677">
        <ele>174.8</ele>
        <time>2024-03-27T15:23:38Z</time>
      </trkpt>
      <trkpt lat="43.49566" lon="6.18679">
        <ele>174.9</ele>
        <time>2024-03-27T15:23:39Z</time>
      </trkpt>
      <trkpt lat="43.49566" lon="6.1868">
        <ele>175</ele>
        <time>2024-03-27T15:23:40Z</time>
      </trkpt>
      <trkpt lat="43.49566" lon="6.18682">
        <ele>175.1</ele>
        <time>2024-03-27T15:23:41Z</time>
      </trkpt>
      <trkpt lat="43.49566" lon="6.18684">
        <ele>175.2</ele>
        <time>2024-03-27T15:23:42Z</time>
      </trkpt>
      <trkpt lat="43.49566" lon="6.18685">
        <ele>175.4</ele>
        <time>2024-03-27T15:23:43Z</time>
      </trkpt>
      <trkpt lat="43.49566" lon="6.18687">
        <ele>175.5</ele>
        <time>2024-03-27T15:23:44Z</time>
      </trkpt>
      <trkpt lat="43.49567" lon="6.18689">
        <ele>175.4</ele>
        <time>2024-03-27T15:23:45Z</time>
      </trkpt>
      <trkpt lat="43.49568" lon="6.1869">
        <ele>175.3</ele>
        <time>2024-03-27T15:23:46Z</time>
      </trkpt>
      <trkpt lat="43.49568" lon="6.18691">
        <ele>175.4</ele>
        <time>2024-03-27T15:23:47Z</time>
      </trkpt>
      <trkpt lat="43.49569" lon="6.18692">
        <ele>175.3</ele>
        <time>2024-03-27T15:23:48Z</time>
      </trkpt>
      <trkpt lat="43.4957" lon="6.18693">
        <ele>175.2</ele>
        <time>2024-03-27T15:23:49Z</time>
      </trkpt>
      <trkpt lat="43.4957" lon="6.18694">
        <ele>175.1</ele>
        <time>2024-03-27T15:23:50Z</time>
      </trkpt>
      <trkpt lat="43.49571" lon="6.18696">
        <ele>174.9</ele>
        <time>2024-03-27T15:23:51Z</time>
      </trkpt>
      <trkpt lat="43.49572" lon="6.18697">
        <ele>174.8</ele>
        <time>2024-03-27T15:23:52Z</time>
      </trkpt>
      <trkpt lat="43.49573" lon="6.18698">
        <ele>174.7</ele>
        <time>2024-03-27T15:23:53Z</time>
      </trkpt>
      <trkpt lat="43.49574" lon="6.18699">
        <ele>174.7</ele>
        <time>2024-03-27T15:23:54Z</time>
      </trkpt>
      <trkpt lat="43.49575" lon="6.187">
        <ele>174.6</ele>
        <time>2024-03-27T15:23:55Z</time>
      </trkpt>
      <trkpt lat="43.49575" lon="6.18701">
        <ele>174.6</ele>
        <time>2024-03-27T15:23:56Z</time>
      </trkpt>
      <trkpt lat="43.49576" lon="6.18702">
        <ele>174.6</ele>
        <time>2024-03-27T15:23:57Z</time>
      </trkpt>
      <trkpt lat="43.49577" lon="6.18703">
        <ele>174.6</ele>
        <time>2024-03-27T15:23:58Z</time>
      </trkpt>
      <trkpt lat="43.49578" lon="6.18704">
        <ele>174.6</ele>
        <time>2024-03-27T15:23:59Z</time>
      </trkpt>
      <trkpt lat="43.49579" lon="6.18705">
        <ele>174.6</ele>
        <time>2024-03-27T15:24:00Z</time>
      </trkpt>
      <trkpt lat="43.4958" lon="6.18706">
        <ele>174.6</ele>
        <time>2024-03-27T15:24:01Z</time>
      </trkpt>
      <trkpt lat="43.4958" lon="6.18707">
        <ele>174.5</ele>
        <time>2024-03-27T15:24:02Z</time>
      </trkpt>
      <trkpt lat="43.49581" lon="6.18708">
        <ele>174.6</ele>
        <time>2024-03-27T15:24:03Z</time>
      </trkpt>
      <trkpt lat="43.49582" lon="6.18709">
        <ele>174.6</ele>
        <time>2024-03-27T15:24:04Z</time>
      </trkpt>
      <trkpt lat="43.49583" lon="6.1871">
        <ele>174.5</ele>
        <time>2024-03-27T15:24:05Z</time>
      </trkpt>
      <trkpt lat="43.49583" lon="6.18711">
        <ele>174.5</ele>
        <time>2024-03-27T15:24:06Z</time>
      </trkpt>
      <trkpt lat="43.49584" lon="6.18712">
        <ele>174.4</ele>
        <time>2024-03-27T15:24:07Z</time>
      </trkpt>
      <trkpt lat="43.49585" lon="6.18714">
        <ele>174.3</ele>
        <time>2024-03-27T15:24:08Z</time>
      </trkpt>
      <trkpt lat="43.49586" lon="6.18715">
        <ele>174.3</ele>
        <time>2024-03-27T15:24:09Z</time>
      </trkpt>
      <trkpt lat="43.49587" lon="6.18717">
        <ele>174.2</ele>
        <time>2024-03-27T15:24:10Z</time>
      </trkpt>
      <trkpt lat="43.49587" lon="6.18718">
        <ele>174.2</ele>
        <time>2024-03-27T15:24:11Z</time>
      </trkpt>
      <trkpt lat="43.49588" lon="6.18719">
        <ele>174.2</ele>
        <time>2024-03-27T15:24:12Z</time>
      </trkpt>
      <trkpt lat="43.49589" lon="6.1872">
        <ele>174.2</ele>
        <time>2024-03-27T15:24:13Z</time>
      </trkpt>
      <trkpt lat="43.49589" lon="6.18721">
        <ele>174.2</ele>
        <time>2024-03-27T15:24:14Z</time>
      </trkpt>
      <trkpt lat="43.4959" lon="6.18722">
        <ele>174.2</ele>
        <time>2024-03-27T15:24:15Z</time>
      </trkpt>
      <trkpt lat="43.49591" lon="6.18723">
        <ele>174.1</ele>
        <time>2024-03-27T15:24:16Z</time>
      </trkpt>
      <trkpt lat="43.49592" lon="6.18724">
        <ele>174.1</ele>
        <time>2024-03-27T15:24:17Z</time>
      </trkpt>
      <trkpt lat="43.49592" lon="6.18726">
        <ele>174</ele>
        <time>2024-03-27T15:24:18Z</time>
      </trkpt>
      <trkpt lat="43.49593" lon="6.18727">
        <ele>174</ele>
        <time>2024-03-27T15:24:19Z</time>
      </trkpt>
      <trkpt lat="43.49594" lon="6.18729">
        <ele>174</ele>
        <time>2024-03-27T15:24:20Z</time>
      </trkpt>
      <trkpt lat="43.49595" lon="6.1873">
        <ele>173.9</ele>
        <time>2024-03-27T15:24:21Z</time>
      </trkpt>
      <trkpt lat="43.49595" lon="6.18731">
        <ele>173.9</ele>
        <time>2024-03-27T15:24:22Z</time>
      </trkpt>
      <trkpt lat="43.49596" lon="6.18732">
        <ele>173.8</ele>
        <time>2024-03-27T15:24:23Z</time>
      </trkpt>
      <trkpt lat="43.49597" lon="6.18733">
        <ele>173.9</ele>
        <time>2024-03-27T15:24:24Z</time>
      </trkpt>
      <trkpt lat="43.49598" lon="6.18733">
        <ele>173.9</ele>
        <time>2024-03-27T15:24:25Z</time>
      </trkpt>
      <trkpt lat="43.49599" lon="6.18735">
        <ele>173.9</ele>
        <time>2024-03-27T15:24:26Z</time>
      </trkpt>
      <trkpt lat="43.49599" lon="6.18736">
        <ele>173.8</ele>
        <time>2024-03-27T15:24:27Z</time>
      </trkpt>
      <trkpt lat="43.496" lon="6.18737">
        <ele>173.7</ele>
        <time>2024-03-27T15:24:28Z</time>
      </trkpt>
      <trkpt lat="43.49601" lon="6.18738">
        <ele>173.6</ele>
        <time>2024-03-27T15:24:29Z</time>
      </trkpt>
      <trkpt lat="43.49602" lon="6.18739">
        <ele>173.6</ele>
        <time>2024-03-27T15:24:30Z</time>
      </trkpt>
      <trkpt lat="43.49602" lon="6.1874">
        <ele>173.5</ele>
        <time>2024-03-27T15:24:31Z</time>
      </trkpt>
      <trkpt lat="43.49603" lon="6.18741">
        <ele>173.5</ele>
        <time>2024-03-27T15:24:32Z</time>
      </trkpt>
      <trkpt lat="43.49604" lon="6.18742">
        <ele>173.4</ele>
        <time>2024-03-27T15:24:33Z</time>
      </trkpt>
      <trkpt lat="43.49605" lon="6.18743">
        <ele>173.4</ele>
        <time>2024-03-27T15:24:34Z</time>
      </trkpt>
      <trkpt lat="43.49606" lon="6.18744">
        <ele>173.2</ele>
        <time>2024-03-27T15:24:35Z</time>
      </trkpt>
      <trkpt lat="43.49606" lon="6.18745">
        <ele>173.3</ele>
        <time>2024-03-27T15:24:36Z</time>
      </trkpt>
      <trkpt lat="43.49607" lon="6.18746">
        <ele>173.3</ele>
        <time>2024-03-27T15:24:37Z</time>
      </trkpt>
      <trkpt lat="43.49608" lon="6.18747">
        <ele>173.5</ele>
        <time>2024-03-27T15:24:38Z</time>
      </trkpt>
      <trkpt lat="43.49608" lon="6.18748">
        <ele>173.6</ele>
        <time>2024-03-27T15:24:39Z</time>
      </trkpt>
      <trkpt lat="43.49609" lon="6.18749">
        <ele>173.7</ele>
        <time>2024-03-27T15:24:40Z</time>
      </trkpt>
      <trkpt lat="43.49609" lon="6.18749">
        <ele>173.7</ele>
        <time>2024-03-27T15:24:41Z</time>
      </trkpt>
      <trkpt lat="43.49609" lon="6.18751">
        <ele>173.6</ele>
        <time>2024-03-27T15:24:42Z</time>
      </trkpt>
      <trkpt lat="43.49609" lon="6.18751">
        <ele>173.7</ele>
        <time>2024-03-27T15:24:43Z</time>
      </trkpt>
      <trkpt lat="43.49609" lon="6.18752">
        <ele>173.7</ele>
        <time>2024-03-27T15:24:44Z</time>
      </trkpt>
      <trkpt lat="43.49609" lon="6.18753">
        <ele>173.6</ele>
        <time>2024-03-27T15:24:45Z</time>
      </trkpt>
      <trkpt lat="43.49608" lon="6.18755">
        <ele>173.6</ele>
        <time>2024-03-27T15:24:46Z</time>
      </trkpt>
      <trkpt lat="43.49608" lon="6.18756">
        <ele>173.5</ele>
        <time>2024-03-27T15:24:47Z</time>
      </trkpt>
      <trkpt lat="43.49607" lon="6.18757">
        <ele>173.5</ele>
        <time>2024-03-27T15:24:48Z</time>
      </trkpt>
      <trkpt lat="43.49607" lon="6.18758">
        <ele>173.4</ele>
        <time>2024-03-27T15:24:49Z</time>
      </trkpt>
      <trkpt lat="43.49607" lon="6.1876">
        <ele>173.4</ele>
        <time>2024-03-27T15:24:50Z</time>
      </trkpt>
      <trkpt lat="43.49606" lon="6.18761">
        <ele>173.4</ele>
        <time>2024-03-27T15:24:51Z</time>
      </trkpt>
      <trkpt lat="43.49606" lon="6.18762">
        <ele>173.3</ele>
        <time>2024-03-27T15:24:52Z</time>
      </trkpt>
      <trkpt lat="43.49605" lon="6.18763">
        <ele>173.3</ele>
        <time>2024-03-27T15:24:53Z</time>
      </trkpt>
      <trkpt lat="43.49604" lon="6.18764">
        <ele>173.3</ele>
        <time>2024-03-27T15:24:54Z</time>
      </trkpt>
      <trkpt lat="43.49604" lon="6.18765">
        <ele>173.5</ele>
        <time>2024-03-27T15:24:55Z</time>
      </trkpt>
      <trkpt lat="43.49603" lon="6.18766">
        <ele>173.6</ele>
        <time>2024-03-27T15:24:56Z</time>
      </trkpt>
      <trkpt lat="43.49603" lon="6.18767">
        <ele>173.8</ele>
        <time>2024-03-27T15:24:57Z</time>
      </trkpt>
      <trkpt lat="43.49602" lon="6.18768">
        <ele>173.9</ele>
        <time>2024-03-27T15:24:58Z</time>
      </trkpt>
      <trkpt lat="43.49602" lon="6.18769">
        <ele>174</ele>
        <time>2024-03-27T15:24:59Z</time>
      </trkpt>
      <trkpt lat="43.49601" lon="6.18769">
        <ele>174.1</ele>
        <time>2024-03-27T15:25:00Z</time>
      </trkpt>
      <trkpt lat="43.496" lon="6.1877">
        <ele>174.1</ele>
        <time>2024-03-27T15:25:01Z</time>
      </trkpt>
      <trkpt lat="43.496" lon="6.18771">
        <ele>174.2</ele>
        <time>2024-03-27T15:25:02Z</time>
      </trkpt>
      <trkpt lat="43.49599" lon="6.18772">
        <ele>174.2</ele>
        <time>2024-03-27T15:25:03Z</time>
      </trkpt>
      <trkpt lat="43.49599" lon="6.18773">
        <ele>174.2</ele>
        <time>2024-03-27T15:25:04Z</time>
      </trkpt>
      <trkpt lat="43.49598" lon="6.18774">
        <ele>174.3</ele>
        <time>2024-03-27T15:25:05Z</time>
      </trkpt>
      <trkpt lat="43.49598" lon="6.18774">
        <ele>174.3</ele>
        <time>2024-03-27T15:25:06Z</time>
      </trkpt>
      <trkpt lat="43.49597" lon="6.18775">
        <ele>174.3</ele>
        <time>2024-03-27T15:25:07Z</time>
      </trkpt>
      <trkpt lat="43.49597" lon="6.18776">
        <ele>174.3</ele>
        <time>2024-03-27T15:25:08Z</time>
      </trkpt>
      <trkpt lat="43.49596" lon="6.18777">
        <ele>174.3</ele>
        <time>2024-03-27T15:25:09Z</time>
      </trkpt>
      <trkpt lat="43.49596" lon="6.18778">
        <ele>174.4</ele>
        <time>2024-03-27T15:25:10Z</time>
      </trkpt>
      <trkpt lat="43.49595" lon="6.18779">
        <ele>174.5</ele>
        <time>2024-03-27T15:25:11Z</time>
      </trkpt>
      <trkpt lat="43.49594" lon="6.1878">
        <ele>174.5</ele>
        <time>2024-03-27T15:25:12Z</time>
      </trkpt>
      <trkpt lat="43.49594" lon="6.18781">
        <ele>174.5</ele>
        <time>2024-03-27T15:25:13Z</time>
      </trkpt>
      <trkpt lat="43.49594" lon="6.18782">
        <ele>174.7</ele>
        <time>2024-03-27T15:25:14Z</time>
      </trkpt>
      <trkpt lat="43.49593" lon="6.18783">
        <ele>174.8</ele>
        <time>2024-03-27T15:25:15Z</time>
      </trkpt>
      <trkpt lat="43.49593" lon="6.18784">
        <ele>174.9</ele>
        <time>2024-03-27T15:25:16Z</time>
      </trkpt>
      <trkpt lat="43.49592" lon="6.18784">
        <ele>175</ele>
        <time>2024-03-27T15:25:17Z</time>
      </trkpt>
      <trkpt lat="43.49591" lon="6.18785">
        <ele>175</ele>
        <time>2024-03-27T15:25:18Z</time>
      </trkpt>
      <trkpt lat="43.49591" lon="6.18786">
        <ele>175.1</ele>
        <time>2024-03-27T15:25:19Z</time>
      </trkpt>
      <trkpt lat="43.4959" lon="6.18787">
        <ele>175.2</ele>
        <time>2024-03-27T15:25:20Z</time>
      </trkpt>
      <trkpt lat="43.4959" lon="6.18788">
        <ele>175.1</ele>
        <time>2024-03-27T15:25:21Z</time>
      </trkpt>
      <trkpt lat="43.49589" lon="6.18789">
        <ele>175.2</ele>
        <time>2024-03-27T15:25:22Z</time>
      </trkpt>
      <trkpt lat="43.49589" lon="6.18789">
        <ele>175.3</ele>
        <time>2024-03-27T15:25:23Z</time>
      </trkpt>
      <trkpt lat="43.49588" lon="6.1879">
        <ele>175.3</ele>
        <time>2024-03-27T15:25:24Z</time>
      </trkpt>
      <trkpt lat="43.49588" lon="6.1879">
        <ele>175.2</ele>
        <time>2024-03-27T15:25:25Z</time>
      </trkpt>
      <trkpt lat="43.49587" lon="6.1879">
        <ele>175.3</ele>
        <time>2024-03-27T15:25:26Z</time>
      </trkpt>
      <trkpt lat="43.49586" lon="6.18791">
        <ele>175.4</ele>
        <time>2024-03-27T15:25:27Z</time>
      </trkpt>
      <trkpt lat="43.49586" lon="6.18791">
        <ele>175.4</ele>
        <time>2024-03-27T15:25:28Z</time>
      </trkpt>
      <trkpt lat="43.49585" lon="6.18791">
        <ele>175.4</ele>
        <time>2024-03-27T15:25:29Z</time>
      </trkpt>
      <trkpt lat="43.49584" lon="6.18791">
        <ele>175.3</ele>
        <time>2024-03-27T15:25:30Z</time>
      </trkpt>
      <trkpt lat="43.49583" lon="6.18791">
        <ele>175.2</ele>
        <time>2024-03-27T15:25:31Z</time>
      </trkpt>
      <trkpt lat="43.49582" lon="6.18791">
        <ele>175.2</ele>
        <time>2024-03-27T15:25:32Z</time>
      </trkpt>
      <trkpt lat="43.49582" lon="6.18791">
        <ele>175.2</ele>
        <time>2024-03-27T15:25:33Z</time>
      </trkpt>
      <trkpt lat="43.49581" lon="6.18791">
        <ele>175</ele>
        <time>2024-03-27T15:25:34Z</time>
      </trkpt>
      <trkpt lat="43.49581" lon="6.18791">
        <ele>175.1</ele>
        <time>2024-03-27T15:25:35Z</time>
      </trkpt>
      <trkpt lat="43.4958" lon="6.1879">
        <ele>175.1</ele>
        <time>2024-03-27T15:25:36Z</time>
      </trkpt>
      <trkpt lat="43.49579" lon="6.18789">
        <ele>175.2</ele>
        <time>2024-03-27T15:25:37Z</time>
      </trkpt>
      <trkpt lat="43.49579" lon="6.18789">
        <ele>175.3</ele>
        <time>2024-03-27T15:25:38Z</time>
      </trkpt>
      <trkpt lat="43.49579" lon="6.18788">
        <ele>175.3</ele>
        <time>2024-03-27T15:25:39Z</time>
      </trkpt>
      <trkpt lat="43.49579" lon="6.18787">
        <ele>175.2</ele>
        <time>2024-03-27T15:25:40Z</time>
      </trkpt>
      <trkpt lat="43.49579" lon="6.18787">
        <ele>175.1</ele>
        <time>2024-03-27T15:25:41Z</time>
      </trkpt>
      <trkpt lat="43.49579" lon="6.18786">
        <ele>175.1</ele>
        <time>2024-03-27T15:25:42Z</time>
      </trkpt>
      <trkpt lat="43.49579" lon="6.18786">
        <ele>174.9</ele>
        <time>2024-03-27T15:25:43Z</time>
      </trkpt>
      <trkpt lat="43.49579" lon="6.18786">
        <ele>174.9</ele>
        <time>2024-03-27T15:25:44Z</time>
      </trkpt>
      <trkpt lat="43.49579" lon="6.18786">
        <ele>174.8</ele>
        <time>2024-03-27T15:25:45Z</time>
      </trkpt>
      <trkpt lat="43.49579" lon="6.18786">
        <ele>174.8</ele>
        <time>2024-03-27T15:25:46Z</time>
      </trkpt>
      <trkpt lat="43.49579" lon="6.18786">
        <ele>174.7</ele>
        <time>2024-03-27T15:25:47Z</time>
      </trkpt>
      <trkpt lat="43.49578" lon="6.18786">
        <ele>174.6</ele>
        <time>2024-03-27T15:25:48Z</time>
      </trkpt>
      <trkpt lat="43.49578" lon="6.18786">
        <ele>174.6</ele>
        <time>2024-03-27T15:25:49Z</time>
      </trkpt>
      <trkpt lat="43.49578" lon="6.18786">
        <ele>174.4</ele>
        <time>2024-03-27T15:25:50Z</time>
      </trkpt>
      <trkpt lat="43.49578" lon="6.18786">
        <ele>174.3</ele>
        <time>2024-03-27T15:25:51Z</time>
      </trkpt>
      <trkpt lat="43.49578" lon="6.18786">
        <ele>174.3</ele>
        <time>2024-03-27T15:25:52Z</time>
      </trkpt>
      <trkpt lat="43.49578" lon="6.18786">
        <ele>174.3</ele>
        <time>2024-03-27T15:25:53Z</time>
      </trkpt>
      <trkpt lat="43.49578" lon="6.18786">
        <ele>174.3</ele>
        <time>2024-03-27T15:25:54Z</time>
      </trkpt>
      <trkpt lat="43.49578" lon="6.18786">
        <ele>174.3</ele>
        <time>2024-03-27T15:25:55Z</time>
      </trkpt>
      <trkpt lat="43.49578" lon="6.18787">
        <ele>174.4</ele>
        <time>2024-03-27T15:25:56Z</time>
      </trkpt>
      <trkpt lat="43.49578" lon="6.18787">
        <ele>174.5</ele>
        <time>2024-03-27T15:25:57Z</time>
      </trkpt>
      <trkpt lat="43.49578" lon="6.18787">
        <ele>174.6</ele>
        <time>2024-03-27T15:25:58Z</time>
      </trkpt>
      <trkpt lat="43.49578" lon="6.18787">
        <ele>174.6</ele>
        <time>2024-03-27T15:25:59Z</time>
      </trkpt>
      <trkpt lat="43.49578" lon="6.18787">
        <ele>174.6</ele>
        <time>2024-03-27T15:26:00Z</time>
      </trkpt>
      <trkpt lat="43.49578" lon="6.18787">
        <ele>174.6</ele>
        <time>2024-03-27T15:26:01Z</time>
      </trkpt>
      <trkpt lat="43.49578" lon="6.18787">
        <ele>174.6</ele>
        <time>2024-03-27T15:26:02Z</time>
      </trkpt>
      <trkpt lat="43.49578" lon="6.18787">
        <ele>174.7</ele>
        <time>2024-03-27T15:26:03Z</time>
      </trkpt>
      <trkpt lat="43.49578" lon="6.18787">
        <ele>174.8</ele>
        <time>2024-03-27T15:26:04Z</time>
      </trkpt>
      <trkpt lat="43.49578" lon="6.18787">
        <ele>174.9</ele>
        <time>2024-03-27T15:26:05Z</time>
      </trkpt>
      <trkpt lat="43.49578" lon="6.18787">
        <ele>174.7</ele>
        <time>2024-03-27T15:26:06Z</time>
      </trkpt>
      <trkpt lat="43.49578" lon="6.18787">
        <ele>174.8</ele>
        <time>2024-03-27T15:26:07Z</time>
      </trkpt>
      <trkpt lat="43.49578" lon="6.18787">
        <ele>174.8</ele>
        <time>2024-03-27T15:26:08Z</time>
      </trkpt>
      <trkpt lat="43.49578" lon="6.18787">
        <ele>174.8</ele>
        <time>2024-03-27T15:26:09Z</time>
      </trkpt>
      <trkpt lat="43.49578" lon="6.18787">
        <ele>174.8</ele>
        <time>2024-03-27T15:26:10Z</time>
      </trkpt>
      <trkpt lat="43.49578" lon="6.18787">
        <ele>174.7</ele>
        <time>2024-03-27T15:26:11Z</time>
      </trkpt>
      <trkpt lat="43.49578" lon="6.18787">
        <ele>174.8</ele>
        <time>2024-03-27T15:26:12Z</time>
      </trkpt>
      <trkpt lat="43.49578" lon="6.18787">
        <ele>174.8</ele>
        <time>2024-03-27T15:26:13Z</time>
      </trkpt>
      <trkpt lat="43.49578" lon="6.18787">
        <ele>174.8</ele>
        <time>2024-03-27T15:26:14Z</time>
      </trkpt>
      <trkpt lat="43.49578" lon="6.18787">
        <ele>174.9</ele>
        <time>2024-03-27T15:26:15Z</time>
      </trkpt>
      <trkpt lat="43.49578" lon="6.18787">
        <ele>174.9</ele>
        <time>2024-03-27T15:26:16Z</time>
      </trkpt>
      <trkpt lat="43.49578" lon="6.18787">
        <ele>174.9</ele>
        <time>2024-03-27T15:26:17Z</time>
      </trkpt>
      <trkpt lat="43.49578" lon="6.18787">
        <ele>174.9</ele>
        <time>2024-03-27T15:26:18Z</time>
      </trkpt>
      <trkpt lat="43.49578" lon="6.18787">
        <ele>174.9</ele>
        <time>2024-03-27T15:26:19Z</time>
      </trkpt>
      <trkpt lat="43.49578" lon="6.18787">
        <ele>174.9</ele>
        <time>2024-03-27T15:26:20Z</time>
      </trkpt>
      <trkpt lat="43.49578" lon="6.18787">
        <ele>174.8</ele>
        <time>2024-03-27T15:26:21Z</time>
      </trkpt>
      <trkpt lat="43.49578" lon="6.18787">
        <ele>174.7</ele>
        <time>2024-03-27T15:26:22Z</time>
      </trkpt>
      <trkpt lat="43.49578" lon="6.18788">
        <ele>174.7</ele>
        <time>2024-03-27T15:26:23Z</time>
      </trkpt>
      <trkpt lat="43.49578" lon="6.18788">
        <ele>174.6</ele>
        <time>2024-03-27T15:26:24Z</time>
      </trkpt>
      <trkpt lat="43.49578" lon="6.18787">
        <ele>174.7</ele>
        <time>2024-03-27T15:26:25Z</time>
      </trkpt>
      <trkpt lat="43.49577" lon="6.18787">
        <ele>174.7</ele>
        <time>2024-03-27T15:26:26Z</time>
      </trkpt>
      <trkpt lat="43.49577" lon="6.18787">
        <ele>174.7</ele>
        <time>2024-03-27T15:26:27Z</time>
      </trkpt>
      <trkpt lat="43.49577" lon="6.18787">
        <ele>174.7</ele>
        <time>2024-03-27T15:26:28Z</time>
      </trkpt>
      <trkpt lat="43.49577" lon="6.18787">
        <ele>174.7</ele>
        <time>2024-03-27T15:26:29Z</time>
      </trkpt>
      <trkpt lat="43.49577" lon="6.18787">
        <ele>174.7</ele>
        <time>2024-03-27T15:26:30Z</time>
      </trkpt>
      <trkpt lat="43.49577" lon="6.18787">
        <ele>174.7</ele>
        <time>2024-03-27T15:26:31Z</time>
      </trkpt>
      <trkpt lat="43.49577" lon="6.18787">
        <ele>174.7</ele>
        <time>2024-03-27T15:26:32Z</time>
      </trkpt>
      <trkpt lat="43.49577" lon="6.18787">
        <ele>174.6</ele>
        <time>2024-03-27T15:26:33Z</time>
      </trkpt>
      <trkpt lat="43.49577" lon="6.18788">
        <ele>174.7</ele>
        <time>2024-03-27T15:26:34Z</time>
      </trkpt>
      <trkpt lat="43.49577" lon="6.18788">
        <ele>174.6</ele>
        <time>2024-03-27T15:26:35Z</time>
      </trkpt>
      <trkpt lat="43.49577" lon="6.18788">
        <ele>174.6</ele>
        <time>2024-03-27T15:26:36Z</time>
      </trkpt>
      <trkpt lat="43.49577" lon="6.18788">
        <ele>174.7</ele>
        <time>2024-03-27T15:26:37Z</time>
      </trkpt>
      <trkpt lat="43.49577" lon="6.18788">
        <ele>174.8</ele>
        <time>2024-03-27T15:26:38Z</time>
      </trkpt>
      <trkpt lat="43.49577" lon="6.18788">
        <ele>174.7</ele>
        <time>2024-03-27T15:26:39Z</time>
      </trkpt>
      <trkpt lat="43.49577" lon="6.18788">
        <ele>174.7</ele>
        <time>2024-03-27T15:26:40Z</time>
      </trkpt>
      <trkpt lat="43.49577" lon="6.18788">
        <ele>174.7</ele>
        <time>2024-03-27T15:26:41Z</time>
      </trkpt>
      <trkpt lat="43.49577" lon="6.18788">
        <ele>174.6</ele>
        <time>2024-03-27T15:26:42Z</time>
      </trkpt>
      <trkpt lat="43.49577" lon="6.18788">
        <ele>174.6</ele>
        <time>2024-03-27T15:26:43Z</time>
      </trkpt>
      <trkpt lat="43.49577" lon="6.18788">
        <ele>174.6</ele>
        <time>2024-03-27T15:26:44Z</time>
      </trkpt>
      <trkpt lat="43.49577" lon="6.18788">
        <ele>174.6</ele>
        <time>2024-03-27T15:26:45Z</time>
      </trkpt>
      <trkpt lat="43.49577" lon="6.18788">
        <ele>174.6</ele>
        <time>2024-03-27T15:26:46Z</time>
      </trkpt>
      <trkpt lat="43.49578" lon="6.18788">
        <ele>174.5</ele>
        <time>2024-03-27T15:26:47Z</time>
      </trkpt>
      <trkpt lat="43.49578" lon="6.18788">
        <ele>174.5</ele>
        <time>2024-03-27T15:26:48Z</time>
      </trkpt>
      <trkpt lat="43.49578" lon="6.18788">
        <ele>174.5</ele>
        <time>2024-03-27T15:26:49Z</time>
      </trkpt>
      <trkpt lat="43.49578" lon="6.18788">
        <ele>174.5</ele>
        <time>2024-03-27T15:26:50Z</time>
      </trkpt>
      <trkpt lat="43.49578" lon="6.18787">
        <ele>174.7</ele>
        <time>2024-03-27T15:26:51Z</time>
      </trkpt>
      <trkpt lat="43.49578" lon="6.18788">
        <ele>174.7</ele>
        <time>2024-03-27T15:26:52Z</time>
      </trkpt>
      <trkpt lat="43.49578" lon="6.18788">
        <ele>174.8</ele>
        <time>2024-03-27T15:26:53Z</time>
      </trkpt>
      <trkpt lat="43.49578" lon="6.18788">
        <ele>174.8</ele>
        <time>2024-03-27T15:26:54Z</time>
      </trkpt>
      <trkpt lat="43.49578" lon="6.18788">
        <ele>174.9</ele>
        <time>2024-03-27T15:26:55Z</time>
      </trkpt>
      <trkpt lat="43.49578" lon="6.18788">
        <ele>175</ele>
        <time>2024-03-27T15:26:56Z</time>
      </trkpt>
      <trkpt lat="43.49578" lon="6.18788">
        <ele>175</ele>
        <time>2024-03-27T15:26:57Z</time>
      </trkpt>
      <trkpt lat="43.49578" lon="6.18788">
        <ele>175.1</ele>
        <time>2024-03-27T15:26:58Z</time>
      </trkpt>
      <trkpt lat="43.49578" lon="6.18788">
        <ele>175.1</ele>
        <time>2024-03-27T15:26:59Z</time>
      </trkpt>
      <trkpt lat="43.49577" lon="6.18788">
        <ele>175.1</ele>
        <time>2024-03-27T15:27:00Z</time>
      </trkpt>
      <trkpt lat="43.49577" lon="6.18789">
        <ele>175.1</ele>
        <time>2024-03-27T15:27:01Z</time>
      </trkpt>
      <trkpt lat="43.49577" lon="6.18789">
        <ele>175.1</ele>
        <time>2024-03-27T15:27:02Z</time>
      </trkpt>
      <trkpt lat="43.49577" lon="6.18789">
        <ele>175</ele>
        <time>2024-03-27T15:27:03Z</time>
      </trkpt>
      <trkpt lat="43.49577" lon="6.18789">
        <ele>175</ele>
        <time>2024-03-27T15:27:04Z</time>
      </trkpt>
      <trkpt lat="43.49577" lon="6.18788">
        <ele>175.1</ele>
        <time>2024-03-27T15:27:05Z</time>
      </trkpt>
      <trkpt lat="43.49577" lon="6.18788">
        <ele>175.2</ele>
        <time>2024-03-27T15:27:06Z</time>
      </trkpt>
      <trkpt lat="43.49577" lon="6.18788">
        <ele>175.2</ele>
        <time>2024-03-27T15:27:07Z</time>
      </trkpt>
      <trkpt lat="43.49577" lon="6.18788">
        <ele>175.2</ele>
        <time>2024-03-27T15:27:08Z</time>
      </trkpt>
      <trkpt lat="43.49577" lon="6.18788">
        <ele>175.1</ele>
        <time>2024-03-27T15:27:09Z</time>
      </trkpt>
      <trkpt lat="43.49577" lon="6.18788">
        <ele>175.1</ele>
        <time>2024-03-27T15:27:10Z</time>
      </trkpt>
      <trkpt lat="43.49577" lon="6.18788">
        <ele>175</ele>
        <time>2024-03-27T15:27:11Z</time>
      </trkpt>
      <trkpt lat="43.49577" lon="6.18789">
        <ele>175</ele>
        <time>2024-03-27T15:27:12Z</time>
      </trkpt>
      <trkpt lat="43.49576" lon="6.18789">
        <ele>175</ele>
        <time>2024-03-27T15:27:13Z</time>
      </trkpt>
      <trkpt lat="43.49576" lon="6.18789">
        <ele>175</ele>
        <time>2024-03-27T15:27:14Z</time>
      </trkpt>
      <trkpt lat="43.49577" lon="6.18789">
        <ele>175</ele>
        <time>2024-03-27T15:27:15Z</time>
      </trkpt>
      <trkpt lat="43.49576" lon="6.18789">
        <ele>175</ele>
        <time>2024-03-27T15:27:16Z</time>
      </trkpt>
      <trkpt lat="43.49577" lon="6.18789">
        <ele>175</ele>
        <time>2024-03-27T15:27:17Z</time>
      </trkpt>
      <trkpt lat="43.49577" lon="6.18789">
        <ele>175</ele>
        <time>2024-03-27T15:27:18Z</time>
      </trkpt>
      <trkpt lat="43.49577" lon="6.18789">
        <ele>175</ele>
        <time>2024-03-27T15:27:19Z</time>
      </trkpt>
      <trkpt lat="43.49577" lon="6.18789">
        <ele>175</ele>
        <time>2024-03-27T15:27:20Z</time>
      </trkpt>
      <trkpt lat="43.49577" lon="6.18789">
        <ele>175</ele>
        <time>2024-03-27T15:27:21Z</time>
      </trkpt>
      <trkpt lat="43.49577" lon="6.18789">
        <ele>175</ele>
        <time>2024-03-27T15:27:22Z</time>
      </trkpt>
      <trkpt lat="43.49577" lon="6.18789">
        <ele>175</ele>
        <time>2024-03-27T15:27:23Z</time>
      </trkpt>
      <trkpt lat="43.49576" lon="6.18789">
        <ele>175</ele>
        <time>2024-03-27T15:27:24Z</time>
      </trkpt>
      <trkpt lat="43.49576" lon="6.18789">
        <ele>175</ele>
        <time>2024-03-27T15:27:25Z</time>
      </trkpt>
      <trkpt lat="43.49576" lon="6.18789">
        <ele>175</ele>
        <time>2024-03-27T15:27:26Z</time>
      </trkpt>
      <trkpt lat="43.49576" lon="6.18789">
        <ele>175</ele>
        <time>2024-03-27T15:27:27Z</time>
      </trkpt>
      <trkpt lat="43.49577" lon="6.18789">
        <ele>175</ele>
        <time>2024-03-27T15:27:28Z</time>
      </trkpt>
      <trkpt lat="43.49577" lon="6.18789">
        <ele>175</ele>
        <time>2024-03-27T15:27:29Z</time>
      </trkpt>
      <trkpt lat="43.49577" lon="6.18789">
        <ele>175</ele>
        <time>2024-03-27T15:27:30Z</time>
      </trkpt>
      <trkpt lat="43.49577" lon="6.18789">
        <ele>175</ele>
        <time>2024-03-27T15:27:31Z</time>
      </trkpt>
      <trkpt lat="43.49577" lon="6.18789">
        <ele>175</ele>
        <time>2024-03-27T15:27:32Z</time>
      </trkpt>
      <trkpt lat="43.49577" lon="6.18789">
        <ele>175.1</ele>
        <time>2024-03-27T15:27:33Z</time>
      </trkpt>
      <trkpt lat="43.49577" lon="6.18789">
        <ele>175.1</ele>
        <time>2024-03-27T15:27:34Z</time>
      </trkpt>
      <trkpt lat="43.49577" lon="6.18789">
        <ele>175.1</ele>
        <time>2024-03-27T15:27:35Z</time>
      </trkpt>
      <trkpt lat="43.49577" lon="6.1879">
        <ele>175.1</ele>
        <time>2024-03-27T15:27:36Z</time>
      </trkpt>
      <trkpt lat="43.49577" lon="6.1879">
        <ele>175.1</ele>
        <time>2024-03-27T15:27:37Z</time>
      </trkpt>
      <trkpt lat="43.49577" lon="6.1879">
        <ele>175.1</ele>
        <time>2024-03-27T15:27:38Z</time>
      </trkpt>
      <trkpt lat="43.49576" lon="6.1879">
        <ele>175.2</ele>
        <time>2024-03-27T15:27:39Z</time>
      </trkpt>
      <trkpt lat="43.49576" lon="6.1879">
        <ele>175.2</ele>
        <time>2024-03-27T15:27:40Z</time>
      </trkpt>
      <trkpt lat="43.49576" lon="6.1879">
        <ele>175.2</ele>
        <time>2024-03-27T15:27:41Z</time>
      </trkpt>
      <trkpt lat="43.49576" lon="6.1879">
        <ele>175.2</ele>
        <time>2024-03-27T15:27:42Z</time>
      </trkpt>
      <trkpt lat="43.49576" lon="6.1879">
        <ele>175.2</ele>
        <time>2024-03-27T15:27:43Z</time>
      </trkpt>
      <trkpt lat="43.49576" lon="6.1879">
        <ele>175.2</ele>
        <time>2024-03-27T15:27:44Z</time>
      </trkpt>
      <trkpt lat="43.49576" lon="6.1879">
        <ele>175.1</ele>
        <time>2024-03-27T15:27:45Z</time>
      </trkpt>
      <trkpt lat="43.49576" lon="6.1879">
        <ele>175.1</ele>
        <time>2024-03-27T15:27:46Z</time>
      </trkpt>
      <trkpt lat="43.49576" lon="6.1879">
        <ele>175.1</ele>
        <time>2024-03-27T15:27:47Z</time>
      </trkpt>
      <trkpt lat="43.49576" lon="6.1879">
        <ele>175.2</ele>
        <time>2024-03-27T15:27:48Z</time>
      </trkpt>
      <trkpt lat="43.49576" lon="6.1879">
        <ele>175.1</ele>
        <time>2024-03-27T15:27:49Z</time>
      </trkpt>
      <trkpt lat="43.49576" lon="6.1879">
        <ele>175.1</ele>
        <time>2024-03-27T15:27:50Z</time>
      </trkpt>
      <trkpt lat="43.49576" lon="6.1879">
        <ele>175.1</ele>
        <time>2024-03-27T15:27:51Z</time>
      </trkpt>
      <trkpt lat="43.49576" lon="6.1879">
        <ele>175.1</ele>
        <time>2024-03-27T15:27:52Z</time>
      </trkpt>
      <trkpt lat="43.49576" lon="6.1879">
        <ele>175.1</ele>
        <time>2024-03-27T15:27:53Z</time>
      </trkpt>
      <trkpt lat="43.49576" lon="6.1879">
        <ele>175.1</ele>
        <time>2024-03-27T15:27:54Z</time>
      </trkpt>
      <trkpt lat="43.49576" lon="6.1879">
        <ele>175.2</ele>
        <time>2024-03-27T15:27:55Z</time>
      </trkpt>
      <trkpt lat="43.49576" lon="6.1879">
        <ele>175.2</ele>
        <time>2024-03-27T15:27:56Z</time>
      </trkpt>
      <trkpt lat="43.49576" lon="6.1879">
        <ele>175.2</ele>
        <time>2024-03-27T15:27:57Z</time>
      </trkpt>
      <trkpt lat="43.49576" lon="6.1879">
        <ele>175.1</ele>
        <time>2024-03-27T15:27:58Z</time>
      </trkpt>
      <trkpt lat="43.49576" lon="6.18791">
        <ele>175.1</ele>
        <time>2024-03-27T15:27:59Z</time>
      </trkpt>
      <trkpt lat="43.49576" lon="6.18791">
        <ele>175.2</ele>
        <time>2024-03-27T15:28:00Z</time>
      </trkpt>
      <trkpt lat="43.49576" lon="6.18791">
        <ele>175.2</ele>
        <time>2024-03-27T15:28:01Z</time>
      </trkpt>
      <trkpt lat="43.49576" lon="6.18791">
        <ele>175.2</ele>
        <time>2024-03-27T15:28:02Z</time>
      </trkpt>
      <trkpt lat="43.49576" lon="6.18791">
        <ele>175.2</ele>
        <time>2024-03-27T15:28:03Z</time>
      </trkpt>
      <trkpt lat="43.49575" lon="6.18791">
        <ele>175.2</ele>
        <time>2024-03-27T15:28:04Z</time>
      </trkpt>
      <trkpt lat="43.49575" lon="6.18791">
        <ele>175.2</ele>
        <time>2024-03-27T15:28:05Z</time>
      </trkpt>
      <trkpt lat="43.49575" lon="6.18791">
        <ele>175.4</ele>
        <time>2024-03-27T15:28:06Z</time>
      </trkpt>
      <trkpt lat="43.49575" lon="6.18791">
        <ele>175.5</ele>
        <time>2024-03-27T15:28:07Z</time>
      </trkpt>
      <trkpt lat="43.49575" lon="6.18791">
        <ele>175.6</ele>
        <time>2024-03-27T15:28:08Z</time>
      </trkpt>
      <trkpt lat="43.49575" lon="6.18791">
        <ele>175.7</ele>
        <time>2024-03-27T15:28:09Z</time>
      </trkpt>
      <trkpt lat="43.49575" lon="6.18791">
        <ele>175.8</ele>
        <time>2024-03-27T15:28:10Z</time>
      </trkpt>
      <trkpt lat="43.49575" lon="6.18791">
        <ele>175.8</ele>
        <time>2024-03-27T15:28:11Z</time>
      </trkpt>
      <trkpt lat="43.49575" lon="6.18791">
        <ele>175.8</ele>
        <time>2024-03-27T15:28:12Z</time>
      </trkpt>
      <trkpt lat="43.49575" lon="6.18791">
        <ele>175.8</ele>
        <time>2024-03-27T15:28:13Z</time>
      </trkpt>
      <trkpt lat="43.49575" lon="6.18791">
        <ele>175.8</ele>
        <time>2024-03-27T15:28:14Z</time>
      </trkpt>
      <trkpt lat="43.49575" lon="6.18791">
        <ele>175.8</ele>
        <time>2024-03-27T15:28:15Z</time>
      </trkpt>
      <trkpt lat="43.49575" lon="6.18791">
        <ele>175.7</ele>
        <time>2024-03-27T15:28:16Z</time>
      </trkpt>
      <trkpt lat="43.49575" lon="6.18791">
        <ele>175.6</ele>
        <time>2024-03-27T15:28:17Z</time>
      </trkpt>
      <trkpt lat="43.49575" lon="6.18791">
        <ele>175.6</ele>
        <time>2024-03-27T15:28:18Z</time>
      </trkpt>
      <trkpt lat="43.49575" lon="6.18791">
        <ele>175.5</ele>
        <time>2024-03-27T15:28:19Z</time>
      </trkpt>
      <trkpt lat="43.49575" lon="6.18791">
        <ele>175.5</ele>
        <time>2024-03-27T15:28:20Z</time>
      </trkpt>
      <trkpt lat="43.49575" lon="6.18791">
        <ele>175.5</ele>
        <time>2024-03-27T15:28:21Z</time>
      </trkpt>
      <trkpt lat="43.49575" lon="6.18791">
        <ele>175.4</ele>
        <time>2024-03-27T15:28:22Z</time>
      </trkpt>
      <trkpt lat="43.49575" lon="6.18791">
        <ele>175.5</ele>
        <time>2024-03-27T15:28:23Z</time>
      </trkpt>
      <trkpt lat="43.49574" lon="6.18791">
        <ele>175.4</ele>
        <time>2024-03-27T15:28:24Z</time>
      </trkpt>
      <trkpt lat="43.49574" lon="6.18791">
        <ele>175.4</ele>
        <time>2024-03-27T15:28:25Z</time>
      </trkpt>
      <trkpt lat="43.49574" lon="6.18792">
        <ele>175.4</ele>
        <time>2024-03-27T15:28:26Z</time>
      </trkpt>
      <trkpt lat="43.49574" lon="6.18792">
        <ele>175.4</ele>
        <time>2024-03-27T15:28:27Z</time>
      </trkpt>
      <trkpt lat="43.49574" lon="6.18793">
        <ele>175.3</ele>
        <time>2024-03-27T15:28:28Z</time>
      </trkpt>
      <trkpt lat="43.49574" lon="6.18793">
        <ele>175.3</ele>
        <time>2024-03-27T15:28:29Z</time>
      </trkpt>
      <trkpt lat="43.49575" lon="6.18794">
        <ele>175.3</ele>
        <time>2024-03-27T15:28:30Z</time>
      </trkpt>
      <trkpt lat="43.49575" lon="6.18794">
        <ele>175.3</ele>
        <time>2024-03-27T15:28:31Z</time>
      </trkpt>
      <trkpt lat="43.49575" lon="6.18795">
        <ele>175.3</ele>
        <time>2024-03-27T15:28:32Z</time>
      </trkpt>
      <trkpt lat="43.49575" lon="6.18795">
        <ele>175.3</ele>
        <time>2024-03-27T15:28:33Z</time>
      </trkpt>
      <trkpt lat="43.49576" lon="6.18796">
        <ele>175.3</ele>
        <time>2024-03-27T15:28:34Z</time>
      </trkpt>
      <trkpt lat="43.49576" lon="6.18797">
        <ele>175.3</ele>
        <time>2024-03-27T15:28:35Z</time>
      </trkpt>
      <trkpt lat="43.49576" lon="6.18797">
        <ele>175.4</ele>
        <time>2024-03-27T15:28:36Z</time>
      </trkpt>
      <trkpt lat="43.49576" lon="6.18798">
        <ele>175.4</ele>
        <time>2024-03-27T15:28:37Z</time>
      </trkpt>
      <trkpt lat="43.49576" lon="6.18799">
        <ele>175.4</ele>
        <time>2024-03-27T15:28:38Z</time>
      </trkpt>
      <trkpt lat="43.49577" lon="6.18799">
        <ele>175.5</ele>
        <time>2024-03-27T15:28:39Z</time>
      </trkpt>
      <trkpt lat="43.49577" lon="6.188">
        <ele>175.5</ele>
        <time>2024-03-27T15:28:40Z</time>
      </trkpt>
      <trkpt lat="43.49577" lon="6.188">
        <ele>175.6</ele>
        <time>2024-03-27T15:28:41Z</time>
      </trkpt>
      <trkpt lat="43.49577" lon="6.188">
        <ele>175.6</ele>
        <time>2024-03-27T15:28:42Z</time>
      </trkpt>
      <trkpt lat="43.49576" lon="6.188">
        <ele>175.6</ele>
        <time>2024-03-27T15:28:43Z</time>
      </trkpt>
      <trkpt lat="43.49576" lon="6.188">
        <ele>175.6</ele>
        <time>2024-03-27T15:28:44Z</time>
      </trkpt>
      <trkpt lat="43.49576" lon="6.188">
        <ele>175.6</ele>
        <time>2024-03-27T15:28:45Z</time>
      </trkpt>
      <trkpt lat="43.49576" lon="6.188">
        <ele>175.6</ele>
        <time>2024-03-27T15:28:46Z</time>
      </trkpt>
      <trkpt lat="43.49576" lon="6.188">
        <ele>175.6</ele>
        <time>2024-03-27T15:28:47Z</time>
      </trkpt>
      <trkpt lat="43.49576" lon="6.188">
        <ele>175.6</ele>
        <time>2024-03-27T15:28:48Z</time>
      </trkpt>
      <trkpt lat="43.49576" lon="6.188">
        <ele>175.6</ele>
        <time>2024-03-27T15:28:49Z</time>
      </trkpt>
      <trkpt lat="43.49576" lon="6.188">
        <ele>175.6</ele>
        <time>2024-03-27T15:28:50Z</time>
      </trkpt>
      <trkpt lat="43.49576" lon="6.188">
        <ele>175.6</ele>
        <time>2024-03-27T15:28:51Z</time>
      </trkpt>
      <trkpt lat="43.49576" lon="6.18801">
        <ele>175.6</ele>
        <time>2024-03-27T15:28:52Z</time>
      </trkpt>
      <trkpt lat="43.49576" lon="6.18801">
        <ele>175.6</ele>
        <time>2024-03-27T15:28:53Z</time>
      </trkpt>
      <trkpt lat="43.49576" lon="6.18801">
        <ele>175.6</ele>
        <time>2024-03-27T15:28:54Z</time>
      </trkpt>
      <trkpt lat="43.49576" lon="6.18801">
        <ele>175.7</ele>
        <time>2024-03-27T15:28:55Z</time>
      </trkpt>
      <trkpt lat="43.49576" lon="6.18801">
        <ele>175.8</ele>
        <time>2024-03-27T15:28:56Z</time>
      </trkpt>
      <trkpt lat="43.49576" lon="6.18801">
        <ele>175.8</ele>
        <time>2024-03-27T15:28:57Z</time>
      </trkpt>
      <trkpt lat="43.49575" lon="6.18801">
        <ele>175.8</ele>
        <time>2024-03-27T15:28:58Z</time>
      </trkpt>
      <trkpt lat="43.49575" lon="6.18801">
        <ele>175.8</ele>
        <time>2024-03-27T15:28:59Z</time>
      </trkpt>
      <trkpt lat="43.49575" lon="6.18801">
        <ele>175.7</ele>
        <time>2024-03-27T15:29:00Z</time>
      </trkpt>
      <trkpt lat="43.49575" lon="6.18801">
        <ele>175.7</ele>
        <time>2024-03-27T15:29:01Z</time>
      </trkpt>
      <trkpt lat="43.49575" lon="6.18801">
        <ele>175.7</ele>
        <time>2024-03-27T15:29:02Z</time>
      </trkpt>
      <trkpt lat="43.49575" lon="6.18801">
        <ele>175.8</ele>
        <time>2024-03-27T15:29:03Z</time>
      </trkpt>
      <trkpt lat="43.49575" lon="6.18801">
        <ele>175.9</ele>
        <time>2024-03-27T15:29:04Z</time>
      </trkpt>
      <trkpt lat="43.49575" lon="6.18801">
        <ele>176</ele>
        <time>2024-03-27T15:29:05Z</time>
      </trkpt>
      <trkpt lat="43.49575" lon="6.18801">
        <ele>176.1</ele>
        <time>2024-03-27T15:29:06Z</time>
      </trkpt>
      <trkpt lat="43.49575" lon="6.18801">
        <ele>176.1</ele>
        <time>2024-03-27T15:29:07Z</time>
      </trkpt>
      <trkpt lat="43.49575" lon="6.18801">
        <ele>176.2</ele>
        <time>2024-03-27T15:29:08Z</time>
      </trkpt>
      <trkpt lat="43.49575" lon="6.18801">
        <ele>176.2</ele>
        <time>2024-03-27T15:29:09Z</time>
      </trkpt>
      <trkpt lat="43.49575" lon="6.18801">
        <ele>176.1</ele>
        <time>2024-03-27T15:29:10Z</time>
      </trkpt>
      <trkpt lat="43.49575" lon="6.18802">
        <ele>175.9</ele>
        <time>2024-03-27T15:29:11Z</time>
      </trkpt>
      <trkpt lat="43.49575" lon="6.18802">
        <ele>175.7</ele>
        <time>2024-03-27T15:29:12Z</time>
      </trkpt>
      <trkpt lat="43.49575" lon="6.18803">
        <ele>175.6</ele>
        <time>2024-03-27T15:29:13Z</time>
      </trkpt>
      <trkpt lat="43.49575" lon="6.18804">
        <ele>175.7</ele>
        <time>2024-03-27T15:29:14Z</time>
      </trkpt>
      <trkpt lat="43.49575" lon="6.18805">
        <ele>175.7</ele>
        <time>2024-03-27T15:29:15Z</time>
      </trkpt>
      <trkpt lat="43.49574" lon="6.18805">
        <ele>175.7</ele>
        <time>2024-03-27T15:29:16Z</time>
      </trkpt>
      <trkpt lat="43.49574" lon="6.18806">
        <ele>175.9</ele>
        <time>2024-03-27T15:29:17Z</time>
      </trkpt>
      <trkpt lat="43.49573" lon="6.18807">
        <ele>176</ele>
        <time>2024-03-27T15:29:18Z</time>
      </trkpt>
      <trkpt lat="43.49573" lon="6.18808">
        <ele>176.1</ele>
        <time>2024-03-27T15:29:19Z</time>
      </trkpt>
      <trkpt lat="43.49572" lon="6.18809">
        <ele>176.2</ele>
        <time>2024-03-27T15:29:20Z</time>
      </trkpt>
      <trkpt lat="43.49572" lon="6.18809">
        <ele>176.2</ele>
        <time>2024-03-27T15:29:21Z</time>
      </trkpt>
      <trkpt lat="43.49571" lon="6.1881">
        <ele>176.1</ele>
        <time>2024-03-27T15:29:22Z</time>
      </trkpt>
      <trkpt lat="43.49571" lon="6.18811">
        <ele>176.2</ele>
        <time>2024-03-27T15:29:23Z</time>
      </trkpt>
      <trkpt lat="43.49571" lon="6.18812">
        <ele>176.3</ele>
        <time>2024-03-27T15:29:24Z</time>
      </trkpt>
      <trkpt lat="43.4957" lon="6.18813">
        <ele>176.3</ele>
        <time>2024-03-27T15:29:25Z</time>
      </trkpt>
      <trkpt lat="43.4957" lon="6.18814">
        <ele>176.4</ele>
        <time>2024-03-27T15:29:26Z</time>
      </trkpt>
      <trkpt lat="43.49569" lon="6.18816">
        <ele>176.4</ele>
        <time>2024-03-27T15:29:27Z</time>
      </trkpt>
      <trkpt lat="43.49569" lon="6.18816">
        <ele>176.6</ele>
        <time>2024-03-27T15:29:28Z</time>
      </trkpt>
      <trkpt lat="43.49568" lon="6.18817">
        <ele>176.6</ele>
        <time>2024-03-27T15:29:29Z</time>
      </trkpt>
      <trkpt lat="43.49567" lon="6.18818">
        <ele>176.6</ele>
        <time>2024-03-27T15:29:30Z</time>
      </trkpt>
      <trkpt lat="43.49567" lon="6.18819">
        <ele>176.5</ele>
        <time>2024-03-27T15:29:31Z</time>
      </trkpt>
      <trkpt lat="43.49566" lon="6.1882">
        <ele>176.3</ele>
        <time>2024-03-27T15:29:32Z</time>
      </trkpt>
      <trkpt lat="43.49566" lon="6.18821">
        <ele>176.3</ele>
        <time>2024-03-27T15:29:33Z</time>
      </trkpt>
      <trkpt lat="43.49565" lon="6.18821">
        <ele>176.3</ele>
        <time>2024-03-27T15:29:34Z</time>
      </trkpt>
      <trkpt lat="43.49564" lon="6.18822">
        <ele>176.3</ele>
        <time>2024-03-27T15:29:35Z</time>
      </trkpt>
      <trkpt lat="43.49563" lon="6.18822">
        <ele>176.2</ele>
        <time>2024-03-27T15:29:36Z</time>
      </trkpt>
      <trkpt lat="43.49562" lon="6.18822">
        <ele>176.2</ele>
        <time>2024-03-27T15:29:37Z</time>
      </trkpt>
      <trkpt lat="43.49561" lon="6.18822">
        <ele>176.2</ele>
        <time>2024-03-27T15:29:38Z</time>
      </trkpt>
      <trkpt lat="43.4956" lon="6.18822">
        <ele>176.3</ele>
        <time>2024-03-27T15:29:39Z</time>
      </trkpt>
      <trkpt lat="43.49559" lon="6.18821">
        <ele>176.3</ele>
        <time>2024-03-27T15:29:40Z</time>
      </trkpt>
      <trkpt lat="43.49558" lon="6.18821">
        <ele>176.4</ele>
        <time>2024-03-27T15:29:41Z</time>
      </trkpt>
      <trkpt lat="43.49557" lon="6.1882">
        <ele>176.4</ele>
        <time>2024-03-27T15:29:42Z</time>
      </trkpt>
      <trkpt lat="43.49556" lon="6.18819">
        <ele>176.4</ele>
        <time>2024-03-27T15:29:43Z</time>
      </trkpt>
      <trkpt lat="43.49556" lon="6.18818">
        <ele>176.4</ele>
        <time>2024-03-27T15:29:44Z</time>
      </trkpt>
      <trkpt lat="43.49554" lon="6.18817">
        <ele>176.4</ele>
        <time>2024-03-27T15:29:45Z</time>
      </trkpt>
      <trkpt lat="43.49553" lon="6.18816">
        <ele>176.5</ele>
        <time>2024-03-27T15:29:46Z</time>
      </trkpt>
      <trkpt lat="43.49551" lon="6.18815">
        <ele>176.4</ele>
        <time>2024-03-27T15:29:47Z</time>
      </trkpt>
      <trkpt lat="43.4955" lon="6.18815">
        <ele>176.4</ele>
        <time>2024-03-27T15:29:48Z</time>
      </trkpt>
      <trkpt lat="43.49548" lon="6.18814">
        <ele>176.4</ele>
        <time>2024-03-27T15:29:49Z</time>
      </trkpt>
      <trkpt lat="43.49547" lon="6.18813">
        <ele>176.3</ele>
        <time>2024-03-27T15:29:50Z</time>
      </trkpt>
      <trkpt lat="43.49545" lon="6.18812">
        <ele>176.2</ele>
        <time>2024-03-27T15:29:51Z</time>
      </trkpt>
      <trkpt lat="43.49544" lon="6.18811">
        <ele>176.1</ele>
        <time>2024-03-27T15:29:52Z</time>
      </trkpt>
      <trkpt lat="43.49542" lon="6.18809">
        <ele>176</ele>
        <time>2024-03-27T15:29:53Z</time>
      </trkpt>
      <trkpt lat="43.49541" lon="6.18807">
        <ele>175.9</ele>
        <time>2024-03-27T15:29:54Z</time>
      </trkpt>
      <trkpt lat="43.49539" lon="6.18806">
        <ele>175.9</ele>
        <time>2024-03-27T15:29:55Z</time>
      </trkpt>
      <trkpt lat="43.49538" lon="6.18805">
        <ele>175.9</ele>
        <time>2024-03-27T15:29:56Z</time>
      </trkpt>
      <trkpt lat="43.49538" lon="6.18805">
        <ele>175.9</ele>
        <time>2024-03-27T15:29:57Z</time>
      </trkpt>
      <trkpt lat="43.49538" lon="6.18805">
        <ele>175.9</ele>
        <time>2024-03-27T15:29:58Z</time>
      </trkpt>
      <trkpt lat="43.49538" lon="6.18805">
        <ele>175.9</ele>
        <time>2024-03-27T15:29:59Z</time>
      </trkpt>
      <trkpt lat="43.49538" lon="6.18805">
        <ele>175.8</ele>
        <time>2024-03-27T15:30:00Z</time>
      </trkpt>
      <trkpt lat="43.49538" lon="6.18805">
        <ele>175.8</ele>
        <time>2024-03-27T15:30:01Z</time>
      </trkpt>
      <trkpt lat="43.49538" lon="6.18805">
        <ele>175.8</ele>
        <time>2024-03-27T15:30:02Z</time>
      </trkpt>
      <trkpt lat="43.49538" lon="6.18804">
        <ele>175.9</ele>
        <time>2024-03-27T15:30:03Z</time>
      </trkpt>
      <trkpt lat="43.49537" lon="6.18804">
        <ele>175.9</ele>
        <time>2024-03-27T15:30:04Z</time>
      </trkpt>
      <trkpt lat="43.49536" lon="6.18804">
        <ele>175.8</ele>
        <time>2024-03-27T15:30:05Z</time>
      </trkpt>
      <trkpt lat="43.49535" lon="6.18803">
        <ele>175.8</ele>
        <time>2024-03-27T15:30:06Z</time>
      </trkpt>
      <trkpt lat="43.49534" lon="6.18802">
        <ele>175.7</ele>
        <time>2024-03-27T15:30:07Z</time>
      </trkpt>
      <trkpt lat="43.49533" lon="6.18801">
        <ele>175.6</ele>
        <time>2024-03-27T15:30:08Z</time>
      </trkpt>
      <trkpt lat="43.49532" lon="6.188">
        <ele>175.6</ele>
        <time>2024-03-27T15:30:09Z</time>
      </trkpt>
      <trkpt lat="43.49532" lon="6.18799">
        <ele>175.6</ele>
        <time>2024-03-27T15:30:10Z</time>
      </trkpt>
      <trkpt lat="43.49531" lon="6.18798">
        <ele>175.7</ele>
        <time>2024-03-27T15:30:11Z</time>
      </trkpt>
      <trkpt lat="43.4953" lon="6.18798">
        <ele>175.7</ele>
        <time>2024-03-27T15:30:12Z</time>
      </trkpt>
      <trkpt lat="43.49529" lon="6.18797">
        <ele>175.6</ele>
        <time>2024-03-27T15:30:13Z</time>
      </trkpt>
      <trkpt lat="43.49528" lon="6.18797">
        <ele>175.6</ele>
        <time>2024-03-27T15:30:14Z</time>
      </trkpt>
      <trkpt lat="43.49526" lon="6.18797">
        <ele>175.6</ele>
        <time>2024-03-27T15:30:15Z</time>
      </trkpt>
      <trkpt lat="43.49525" lon="6.18796">
        <ele>175.6</ele>
        <time>2024-03-27T15:30:16Z</time>
      </trkpt>
      <trkpt lat="43.49524" lon="6.18795">
        <ele>175.7</ele>
        <time>2024-03-27T15:30:17Z</time>
      </trkpt>
      <trkpt lat="43.49523" lon="6.18794">
        <ele>175.7</ele>
        <time>2024-03-27T15:30:18Z</time>
      </trkpt>
      <trkpt lat="43.49523" lon="6.18793">
        <ele>175.6</ele>
        <time>2024-03-27T15:30:19Z</time>
      </trkpt>
      <trkpt lat="43.49522" lon="6.18792">
        <ele>175.6</ele>
        <time>2024-03-27T15:30:20Z</time>
      </trkpt>
      <trkpt lat="43.49521" lon="6.18791">
        <ele>175.7</ele>
        <time>2024-03-27T15:30:21Z</time>
      </trkpt>
      <trkpt lat="43.4952" lon="6.1879">
        <ele>175.8</ele>
        <time>2024-03-27T15:30:22Z</time>
      </trkpt>
      <trkpt lat="43.4952" lon="6.18788">
        <ele>175.8</ele>
        <time>2024-03-27T15:30:23Z</time>
      </trkpt>
      <trkpt lat="43.4952" lon="6.18787">
        <ele>175.8</ele>
        <time>2024-03-27T15:30:24Z</time>
      </trkpt>
      <trkpt lat="43.49519" lon="6.18786">
        <ele>175.8</ele>
        <time>2024-03-27T15:30:25Z</time>
      </trkpt>
      <trkpt lat="43.49518" lon="6.18785">
        <ele>175.8</ele>
        <time>2024-03-27T15:30:26Z</time>
      </trkpt>
      <trkpt lat="43.49517" lon="6.18784">
        <ele>175.9</ele>
        <time>2024-03-27T15:30:27Z</time>
      </trkpt>
      <trkpt lat="43.49516" lon="6.18783">
        <ele>175.9</ele>
        <time>2024-03-27T15:30:28Z</time>
      </trkpt>
      <trkpt lat="43.49515" lon="6.18782">
        <ele>176</ele>
        <time>2024-03-27T15:30:29Z</time>
      </trkpt>
      <trkpt lat="43.49514" lon="6.18781">
        <ele>176</ele>
        <time>2024-03-27T15:30:30Z</time>
      </trkpt>
      <trkpt lat="43.49514" lon="6.1878">
        <ele>176</ele>
        <time>2024-03-27T15:30:31Z</time>
      </trkpt>
      <trkpt lat="43.49513" lon="6.18779">
        <ele>176</ele>
        <time>2024-03-27T15:30:32Z</time>
      </trkpt>
      <trkpt lat="43.49512" lon="6.18779">
        <ele>175.9</ele>
        <time>2024-03-27T15:30:33Z</time>
      </trkpt>
      <trkpt lat="43.49511" lon="6.18778">
        <ele>175.8</ele>
        <time>2024-03-27T15:30:34Z</time>
      </trkpt>
      <trkpt lat="43.49511" lon="6.18777">
        <ele>175.8</ele>
        <time>2024-03-27T15:30:35Z</time>
      </trkpt>
      <trkpt lat="43.4951" lon="6.18776">
        <ele>175.8</ele>
        <time>2024-03-27T15:30:36Z</time>
      </trkpt>
      <trkpt lat="43.49509" lon="6.18775">
        <ele>175.9</ele>
        <time>2024-03-27T15:30:37Z</time>
      </trkpt>
      <trkpt lat="43.49508" lon="6.18774">
        <ele>175.9</ele>
        <time>2024-03-27T15:30:38Z</time>
      </trkpt>
      <trkpt lat="43.49507" lon="6.18774">
        <ele>175.9</ele>
        <time>2024-03-27T15:30:39Z</time>
      </trkpt>
      <trkpt lat="43.49506" lon="6.18773">
        <ele>175.9</ele>
        <time>2024-03-27T15:30:40Z</time>
      </trkpt>
      <trkpt lat="43.49505" lon="6.18772">
        <ele>176</ele>
        <time>2024-03-27T15:30:41Z</time>
      </trkpt>
      <trkpt lat="43.49505" lon="6.18771">
        <ele>176.1</ele>
        <time>2024-03-27T15:30:42Z</time>
      </trkpt>
      <trkpt lat="43.49504" lon="6.1877">
        <ele>176.2</ele>
        <time>2024-03-27T15:30:43Z</time>
      </trkpt>
      <trkpt lat="43.49504" lon="6.18769">
        <ele>176.3</ele>
        <time>2024-03-27T15:30:44Z</time>
      </trkpt>
      <trkpt lat="43.49503" lon="6.18768">
        <ele>176.8</ele>
        <time>2024-03-27T15:30:45Z</time>
      </trkpt>
      <trkpt lat="43.49502" lon="6.18767">
        <ele>176.9</ele>
        <time>2024-03-27T15:30:46Z</time>
      </trkpt>
      <trkpt lat="43.49501" lon="6.18767">
        <ele>176.9</ele>
        <time>2024-03-27T15:30:47Z</time>
      </trkpt>
      <trkpt lat="43.495" lon="6.18767">
        <ele>176.9</ele>
        <time>2024-03-27T15:30:48Z</time>
      </trkpt>
      <trkpt lat="43.495" lon="6.18767">
        <ele>176.8</ele>
        <time>2024-03-27T15:30:49Z</time>
      </trkpt>
      <trkpt lat="43.49498" lon="6.18767">
        <ele>176.8</ele>
        <time>2024-03-27T15:30:50Z</time>
      </trkpt>
      <trkpt lat="43.49497" lon="6.18767">
        <ele>176.8</ele>
        <time>2024-03-27T15:30:51Z</time>
      </trkpt>
      <trkpt lat="43.49496" lon="6.18767">
        <ele>176.8</ele>
        <time>2024-03-27T15:30:52Z</time>
      </trkpt>
      <trkpt lat="43.49495" lon="6.18768">
        <ele>176.7</ele>
        <time>2024-03-27T15:30:53Z</time>
      </trkpt>
      <trkpt lat="43.49494" lon="6.18768">
        <ele>176.8</ele>
        <time>2024-03-27T15:30:54Z</time>
      </trkpt>
      <trkpt lat="43.49493" lon="6.18769">
        <ele>176.7</ele>
        <time>2024-03-27T15:30:55Z</time>
      </trkpt>
      <trkpt lat="43.49493" lon="6.1877">
        <ele>176.7</ele>
        <time>2024-03-27T15:30:56Z</time>
      </trkpt>
      <trkpt lat="43.49493" lon="6.1877">
        <ele>176.8</ele>
        <time>2024-03-27T15:30:57Z</time>
      </trkpt>
      <trkpt lat="43.49492" lon="6.1877">
        <ele>176.8</ele>
        <time>2024-03-27T15:30:58Z</time>
      </trkpt>
      <trkpt lat="43.49492" lon="6.1877">
        <ele>176.8</ele>
        <time>2024-03-27T15:30:59Z</time>
      </trkpt>
      <trkpt lat="43.49492" lon="6.1877">
        <ele>176.9</ele>
        <time>2024-03-27T15:31:00Z</time>
      </trkpt>
      <trkpt lat="43.49492" lon="6.1877">
        <ele>176.8</ele>
        <time>2024-03-27T15:31:01Z</time>
      </trkpt>
      <trkpt lat="43.49492" lon="6.18771">
        <ele>176.6</ele>
        <time>2024-03-27T15:31:02Z</time>
      </trkpt>
      <trkpt lat="43.49491" lon="6.18771">
        <ele>176.6</ele>
        <time>2024-03-27T15:31:03Z</time>
      </trkpt>
      <trkpt lat="43.49491" lon="6.18771">
        <ele>176.6</ele>
        <time>2024-03-27T15:31:04Z</time>
      </trkpt>
      <trkpt lat="43.49491" lon="6.18771">
        <ele>176.6</ele>
        <time>2024-03-27T15:31:05Z</time>
      </trkpt>
      <trkpt lat="43.4949" lon="6.18773">
        <ele>176.6</ele>
        <time>2024-03-27T15:31:06Z</time>
      </trkpt>
      <trkpt lat="43.4949" lon="6.18774">
        <ele>176.7</ele>
        <time>2024-03-27T15:31:07Z</time>
      </trkpt>
      <trkpt lat="43.49489" lon="6.18775">
        <ele>176.8</ele>
        <time>2024-03-27T15:31:08Z</time>
      </trkpt>
      <trkpt lat="43.49489" lon="6.18776">
        <ele>176.9</ele>
        <time>2024-03-27T15:31:09Z</time>
      </trkpt>
      <trkpt lat="43.49489" lon="6.18776">
        <ele>176.9</ele>
        <time>2024-03-27T15:31:10Z</time>
      </trkpt>
      <trkpt lat="43.49488" lon="6.18777">
        <ele>176.7</ele>
        <time>2024-03-27T15:31:11Z</time>
      </trkpt>
      <trkpt lat="43.49487" lon="6.18778">
        <ele>176.7</ele>
        <time>2024-03-27T15:31:12Z</time>
      </trkpt>
      <trkpt lat="43.49487" lon="6.18779">
        <ele>176.6</ele>
        <time>2024-03-27T15:31:13Z</time>
      </trkpt>
      <trkpt lat="43.49486" lon="6.1878">
        <ele>176.6</ele>
        <time>2024-03-27T15:31:14Z</time>
      </trkpt>
      <trkpt lat="43.49486" lon="6.18781">
        <ele>176.6</ele>
        <time>2024-03-27T15:31:15Z</time>
      </trkpt>
      <trkpt lat="43.49485" lon="6.18783">
        <ele>176.6</ele>
        <time>2024-03-27T15:31:16Z</time>
      </trkpt>
      <trkpt lat="43.49484" lon="6.18784">
        <ele>176.7</ele>
        <time>2024-03-27T15:31:17Z</time>
      </trkpt>
      <trkpt lat="43.49484" lon="6.18785">
        <ele>176.7</ele>
        <time>2024-03-27T15:31:18Z</time>
      </trkpt>
      <trkpt lat="43.49483" lon="6.18786">
        <ele>176.7</ele>
        <time>2024-03-27T15:31:19Z</time>
      </trkpt>
      <trkpt lat="43.49482" lon="6.18786">
        <ele>176.7</ele>
        <time>2024-03-27T15:31:20Z</time>
      </trkpt>
      <trkpt lat="43.49481" lon="6.18786">
        <ele>176.8</ele>
        <time>2024-03-27T15:31:21Z</time>
      </trkpt>
      <trkpt lat="43.4948" lon="6.18786">
        <ele>176.8</ele>
        <time>2024-03-27T15:31:22Z</time>
      </trkpt>
      <trkpt lat="43.49479" lon="6.18786">
        <ele>176.8</ele>
        <time>2024-03-27T15:31:23Z</time>
      </trkpt>
      <trkpt lat="43.49479" lon="6.18786">
        <ele>176.9</ele>
        <time>2024-03-27T15:31:24Z</time>
      </trkpt>
      <trkpt lat="43.49478" lon="6.18786">
        <ele>176.9</ele>
        <time>2024-03-27T15:31:25Z</time>
      </trkpt>
      <trkpt lat="43.49477" lon="6.18786">
        <ele>176.9</ele>
        <time>2024-03-27T15:31:26Z</time>
      </trkpt>
      <trkpt lat="43.49477" lon="6.18786">
        <ele>176.9</ele>
        <time>2024-03-27T15:31:27Z</time>
      </trkpt>
      <trkpt lat="43.49477" lon="6.18785">
        <ele>176.8</ele>
        <time>2024-03-27T15:31:28Z</time>
      </trkpt>
      <trkpt lat="43.49477" lon="6.18784">
        <ele>176.8</ele>
        <time>2024-03-27T15:31:29Z</time>
      </trkpt>
      <trkpt lat="43.49476" lon="6.18783">
        <ele>176.7</ele>
        <time>2024-03-27T15:31:30Z</time>
      </trkpt>
      <trkpt lat="43.49475" lon="6.18782">
        <ele>176.7</ele>
        <time>2024-03-27T15:31:31Z</time>
      </trkpt>
      <trkpt lat="43.49474" lon="6.18782">
        <ele>176.6</ele>
        <time>2024-03-27T15:31:32Z</time>
      </trkpt>
      <trkpt lat="43.49474" lon="6.18781">
        <ele>176.6</ele>
        <time>2024-03-27T15:31:33Z</time>
      </trkpt>
      <trkpt lat="43.49473" lon="6.1878">
        <ele>176.6</ele>
        <time>2024-03-27T15:31:34Z</time>
      </trkpt>
      <trkpt lat="43.49473" lon="6.18779">
        <ele>176.5</ele>
        <time>2024-03-27T15:31:35Z</time>
      </trkpt>
      <trkpt lat="43.49472" lon="6.18778">
        <ele>176.4</ele>
        <time>2024-03-27T15:31:36Z</time>
      </trkpt>
      <trkpt lat="43.49472" lon="6.18777">
        <ele>176.3</ele>
        <time>2024-03-27T15:31:37Z</time>
      </trkpt>
      <trkpt lat="43.49471" lon="6.18776">
        <ele>176.3</ele>
        <time>2024-03-27T15:31:38Z</time>
      </trkpt>
      <trkpt lat="43.4947" lon="6.18775">
        <ele>176.2</ele>
        <time>2024-03-27T15:31:39Z</time>
      </trkpt>
      <trkpt lat="43.4947" lon="6.18775">
        <ele>176.2</ele>
        <time>2024-03-27T15:31:40Z</time>
      </trkpt>
      <trkpt lat="43.49469" lon="6.18774">
        <ele>176.2</ele>
        <time>2024-03-27T15:31:41Z</time>
      </trkpt>
      <trkpt lat="43.49468" lon="6.18774">
        <ele>176.1</ele>
        <time>2024-03-27T15:31:42Z</time>
      </trkpt>
      <trkpt lat="43.49468" lon="6.18773">
        <ele>176</ele>
        <time>2024-03-27T15:31:43Z</time>
      </trkpt>
      <trkpt lat="43.49467" lon="6.18772">
        <ele>175.9</ele>
        <time>2024-03-27T15:31:44Z</time>
      </trkpt>
      <trkpt lat="43.49466" lon="6.18771">
        <ele>176</ele>
        <time>2024-03-27T15:31:45Z</time>
      </trkpt>
      <trkpt lat="43.49466" lon="6.1877">
        <ele>176</ele>
        <time>2024-03-27T15:31:46Z</time>
      </trkpt>
      <trkpt lat="43.49465" lon="6.1877">
        <ele>175.9</ele>
        <time>2024-03-27T15:31:47Z</time>
      </trkpt>
      <trkpt lat="43.49465" lon="6.18769">
        <ele>175.9</ele>
        <time>2024-03-27T15:31:48Z</time>
      </trkpt>
      <trkpt lat="43.49464" lon="6.18768">
        <ele>175.8</ele>
        <time>2024-03-27T15:31:49Z</time>
      </trkpt>
      <trkpt lat="43.49463" lon="6.18767">
        <ele>175.8</ele>
        <time>2024-03-27T15:31:50Z</time>
      </trkpt>
      <trkpt lat="43.49462" lon="6.18766">
        <ele>175.7</ele>
        <time>2024-03-27T15:31:51Z</time>
      </trkpt>
      <trkpt lat="43.49462" lon="6.18765">
        <ele>175.7</ele>
        <time>2024-03-27T15:31:52Z</time>
      </trkpt>
      <trkpt lat="43.49461" lon="6.18765">
        <ele>175.7</ele>
        <time>2024-03-27T15:31:53Z</time>
      </trkpt>
      <trkpt lat="43.4946" lon="6.18764">
        <ele>175.6</ele>
        <time>2024-03-27T15:31:54Z</time>
      </trkpt>
      <trkpt lat="43.49459" lon="6.18763">
        <ele>175.5</ele>
        <time>2024-03-27T15:31:55Z</time>
      </trkpt>
      <trkpt lat="43.49459" lon="6.18763">
        <ele>175.4</ele>
        <time>2024-03-27T15:31:56Z</time>
      </trkpt>
      <trkpt lat="43.49459" lon="6.18763">
        <ele>175.3</ele>
        <time>2024-03-27T15:31:57Z</time>
      </trkpt>
      <trkpt lat="43.49458" lon="6.18763">
        <ele>175.2</ele>
        <time>2024-03-27T15:31:58Z</time>
      </trkpt>
      <trkpt lat="43.49457" lon="6.18763">
        <ele>175.1</ele>
        <time>2024-03-27T15:31:59Z</time>
      </trkpt>
      <trkpt lat="43.49457" lon="6.18763">
        <ele>175</ele>
        <time>2024-03-27T15:32:00Z</time>
      </trkpt>
      <trkpt lat="43.49456" lon="6.18762">
        <ele>174.9</ele>
        <time>2024-03-27T15:32:01Z</time>
      </trkpt>
      <trkpt lat="43.49455" lon="6.18762">
        <ele>174.9</ele>
        <time>2024-03-27T15:32:02Z</time>
      </trkpt>
      <trkpt lat="43.49454" lon="6.18761">
        <ele>174.9</ele>
        <time>2024-03-27T15:32:03Z</time>
      </trkpt>
      <trkpt lat="43.49453" lon="6.1876">
        <ele>174.8</ele>
        <time>2024-03-27T15:32:04Z</time>
      </trkpt>
      <trkpt lat="43.49452" lon="6.1876">
        <ele>174.8</ele>
        <time>2024-03-27T15:32:05Z</time>
      </trkpt>
      <trkpt lat="43.49451" lon="6.18759">
        <ele>174.8</ele>
        <time>2024-03-27T15:32:06Z</time>
      </trkpt>
      <trkpt lat="43.49451" lon="6.18758">
        <ele>174.8</ele>
        <time>2024-03-27T15:32:07Z</time>
      </trkpt>
      <trkpt lat="43.4945" lon="6.18757">
        <ele>174.9</ele>
        <time>2024-03-27T15:32:08Z</time>
      </trkpt>
      <trkpt lat="43.49449" lon="6.18757">
        <ele>174.9</ele>
        <time>2024-03-27T15:32:09Z</time>
      </trkpt>
      <trkpt lat="43.49448" lon="6.18756">
        <ele>174.9</ele>
        <time>2024-03-27T15:32:10Z</time>
      </trkpt>
      <trkpt lat="43.49447" lon="6.18755">
        <ele>175</ele>
        <time>2024-03-27T15:32:11Z</time>
      </trkpt>
      <trkpt lat="43.49447" lon="6.18754">
        <ele>175</ele>
        <time>2024-03-27T15:32:12Z</time>
      </trkpt>
      <trkpt lat="43.49446" lon="6.18754">
        <ele>174.9</ele>
        <time>2024-03-27T15:32:13Z</time>
      </trkpt>
      <trkpt lat="43.49445" lon="6.18753">
        <ele>174.9</ele>
        <time>2024-03-27T15:32:14Z</time>
      </trkpt>
      <trkpt lat="43.49444" lon="6.18752">
        <ele>174.8</ele>
        <time>2024-03-27T15:32:15Z</time>
      </trkpt>
      <trkpt lat="43.49443" lon="6.18752">
        <ele>174.7</ele>
        <time>2024-03-27T15:32:16Z</time>
      </trkpt>
      <trkpt lat="43.49442" lon="6.18751">
        <ele>174.6</ele>
        <time>2024-03-27T15:32:17Z</time>
      </trkpt>
      <trkpt lat="43.49441" lon="6.18751">
        <ele>174.5</ele>
        <time>2024-03-27T15:32:18Z</time>
      </trkpt>
      <trkpt lat="43.49441" lon="6.1875">
        <ele>174.5</ele>
        <time>2024-03-27T15:32:19Z</time>
      </trkpt>
      <trkpt lat="43.4944" lon="6.1875">
        <ele>174.5</ele>
        <time>2024-03-27T15:32:20Z</time>
      </trkpt>
      <trkpt lat="43.49439" lon="6.18749">
        <ele>174.5</ele>
        <time>2024-03-27T15:32:21Z</time>
      </trkpt>
      <trkpt lat="43.49438" lon="6.18749">
        <ele>174.6</ele>
        <time>2024-03-27T15:32:22Z</time>
      </trkpt>
      <trkpt lat="43.49437" lon="6.18749">
        <ele>174.6</ele>
        <time>2024-03-27T15:32:23Z</time>
      </trkpt>
      <trkpt lat="43.49437" lon="6.1875">
        <ele>174.7</ele>
        <time>2024-03-27T15:32:24Z</time>
      </trkpt>
      <trkpt lat="43.49436" lon="6.18751">
        <ele>174.7</ele>
        <time>2024-03-27T15:32:25Z</time>
      </trkpt>
      <trkpt lat="43.49435" lon="6.18751">
        <ele>174.8</ele>
        <time>2024-03-27T15:32:26Z</time>
      </trkpt>
      <trkpt lat="43.49435" lon="6.18753">
        <ele>174.9</ele>
        <time>2024-03-27T15:32:27Z</time>
      </trkpt>
      <trkpt lat="43.49434" lon="6.18754">
        <ele>174.9</ele>
        <time>2024-03-27T15:32:28Z</time>
      </trkpt>
      <trkpt lat="43.49434" lon="6.18755">
        <ele>175</ele>
        <time>2024-03-27T15:32:29Z</time>
      </trkpt>
      <trkpt lat="43.49433" lon="6.18756">
        <ele>175</ele>
        <time>2024-03-27T15:32:30Z</time>
      </trkpt>
      <trkpt lat="43.49432" lon="6.18757">
        <ele>175</ele>
        <time>2024-03-27T15:32:31Z</time>
      </trkpt>
      <trkpt lat="43.49432" lon="6.18758">
        <ele>175.1</ele>
        <time>2024-03-27T15:32:32Z</time>
      </trkpt>
      <trkpt lat="43.49432" lon="6.18758">
        <ele>175.1</ele>
        <time>2024-03-27T15:32:33Z</time>
      </trkpt>
      <trkpt lat="43.49431" lon="6.18759">
        <ele>175.1</ele>
        <time>2024-03-27T15:32:34Z</time>
      </trkpt>
      <trkpt lat="43.4943" lon="6.1876">
        <ele>175.1</ele>
        <time>2024-03-27T15:32:35Z</time>
      </trkpt>
      <trkpt lat="43.4943" lon="6.18761">
        <ele>175.1</ele>
        <time>2024-03-27T15:32:36Z</time>
      </trkpt>
      <trkpt lat="43.49429" lon="6.18762">
        <ele>175.2</ele>
        <time>2024-03-27T15:32:37Z</time>
      </trkpt>
      <trkpt lat="43.49429" lon="6.18763">
        <ele>175.3</ele>
        <time>2024-03-27T15:32:38Z</time>
      </trkpt>
      <trkpt lat="43.49428" lon="6.18764">
        <ele>175.3</ele>
        <time>2024-03-27T15:32:39Z</time>
      </trkpt>
      <trkpt lat="43.49427" lon="6.18765">
        <ele>175.3</ele>
        <time>2024-03-27T15:32:40Z</time>
      </trkpt>
      <trkpt lat="43.49427" lon="6.18766">
        <ele>175.3</ele>
        <time>2024-03-27T15:32:41Z</time>
      </trkpt>
      <trkpt lat="43.49426" lon="6.18767">
        <ele>175.3</ele>
        <time>2024-03-27T15:32:42Z</time>
      </trkpt>
      <trkpt lat="43.49426" lon="6.18768">
        <ele>175.3</ele>
        <time>2024-03-27T15:32:43Z</time>
      </trkpt>
      <trkpt lat="43.49426" lon="6.18769">
        <ele>175.2</ele>
        <time>2024-03-27T15:32:44Z</time>
      </trkpt>
      <trkpt lat="43.49425" lon="6.18771">
        <ele>175.2</ele>
        <time>2024-03-27T15:32:45Z</time>
      </trkpt>
      <trkpt lat="43.49425" lon="6.18771">
        <ele>175.2</ele>
        <time>2024-03-27T15:32:46Z</time>
      </trkpt>
      <trkpt lat="43.49425" lon="6.18772">
        <ele>175.1</ele>
        <time>2024-03-27T15:32:47Z</time>
      </trkpt>
      <trkpt lat="43.49424" lon="6.18773">
        <ele>175.1</ele>
        <time>2024-03-27T15:32:48Z</time>
      </trkpt>
      <trkpt lat="43.49423" lon="6.18775">
        <ele>175.1</ele>
        <time>2024-03-27T15:32:49Z</time>
      </trkpt>
      <trkpt lat="43.49423" lon="6.18776">
        <ele>175.1</ele>
        <time>2024-03-27T15:32:50Z</time>
      </trkpt>
      <trkpt lat="43.49423" lon="6.18776">
        <ele>175.2</ele>
        <time>2024-03-27T15:32:51Z</time>
      </trkpt>
      <trkpt lat="43.49422" lon="6.18778">
        <ele>175.2</ele>
        <time>2024-03-27T15:32:52Z</time>
      </trkpt>
      <trkpt lat="43.49422" lon="6.18779">
        <ele>175.2</ele>
        <time>2024-03-27T15:32:53Z</time>
      </trkpt>
      <trkpt lat="43.49421" lon="6.1878">
        <ele>175.4</ele>
        <time>2024-03-27T15:32:54Z</time>
      </trkpt>
      <trkpt lat="43.49421" lon="6.18781">
        <ele>175.5</ele>
        <time>2024-03-27T15:32:55Z</time>
      </trkpt>
      <trkpt lat="43.4942" lon="6.18782">
        <ele>175.5</ele>
        <time>2024-03-27T15:32:56Z</time>
      </trkpt>
      <trkpt lat="43.4942" lon="6.18783">
        <ele>175.5</ele>
        <time>2024-03-27T15:32:57Z</time>
      </trkpt>
      <trkpt lat="43.49419" lon="6.18785">
        <ele>175.6</ele>
        <time>2024-03-27T15:32:58Z</time>
      </trkpt>
      <trkpt lat="43.49418" lon="6.18786">
        <ele>175.6</ele>
        <time>2024-03-27T15:32:59Z</time>
      </trkpt>
      <trkpt lat="43.49418" lon="6.18787">
        <ele>175.6</ele>
        <time>2024-03-27T15:33:00Z</time>
      </trkpt>
      <trkpt lat="43.49418" lon="6.18788">
        <ele>175.6</ele>
        <time>2024-03-27T15:33:01Z</time>
      </trkpt>
      <trkpt lat="43.49417" lon="6.18789">
        <ele>175.6</ele>
        <time>2024-03-27T15:33:02Z</time>
      </trkpt>
      <trkpt lat="43.49416" lon="6.1879">
        <ele>175.6</ele>
        <time>2024-03-27T15:33:03Z</time>
      </trkpt>
      <trkpt lat="43.49415" lon="6.18791">
        <ele>175.6</ele>
        <time>2024-03-27T15:33:04Z</time>
      </trkpt>
      <trkpt lat="43.49415" lon="6.18792">
        <ele>175.6</ele>
        <time>2024-03-27T15:33:05Z</time>
      </trkpt>
      <trkpt lat="43.49414" lon="6.18793">
        <ele>175.6</ele>
        <time>2024-03-27T15:33:06Z</time>
      </trkpt>
      <trkpt lat="43.49413" lon="6.18794">
        <ele>175.6</ele>
        <time>2024-03-27T15:33:07Z</time>
      </trkpt>
      <trkpt lat="43.49412" lon="6.18795">
        <ele>175.6</ele>
        <time>2024-03-27T15:33:08Z</time>
      </trkpt>
      <trkpt lat="43.49412" lon="6.18796">
        <ele>175.6</ele>
        <time>2024-03-27T15:33:09Z</time>
      </trkpt>
      <trkpt lat="43.49412" lon="6.18797">
        <ele>175.7</ele>
        <time>2024-03-27T15:33:10Z</time>
      </trkpt>
      <trkpt lat="43.49411" lon="6.18798">
        <ele>175.7</ele>
        <time>2024-03-27T15:33:11Z</time>
      </trkpt>
      <trkpt lat="43.4941" lon="6.18799">
        <ele>175.8</ele>
        <time>2024-03-27T15:33:12Z</time>
      </trkpt>
      <trkpt lat="43.4941" lon="6.188">
        <ele>175.8</ele>
        <time>2024-03-27T15:33:13Z</time>
      </trkpt>
      <trkpt lat="43.49409" lon="6.18801">
        <ele>176</ele>
        <time>2024-03-27T15:33:14Z</time>
      </trkpt>
      <trkpt lat="43.49409" lon="6.18803">
        <ele>176.2</ele>
        <time>2024-03-27T15:33:15Z</time>
      </trkpt>
      <trkpt lat="43.49409" lon="6.18804">
        <ele>176.3</ele>
        <time>2024-03-27T15:33:16Z</time>
      </trkpt>
      <trkpt lat="43.49408" lon="6.18804">
        <ele>176.3</ele>
        <time>2024-03-27T15:33:17Z</time>
      </trkpt>
      <trkpt lat="43.49407" lon="6.18805">
        <ele>176.3</ele>
        <time>2024-03-27T15:33:18Z</time>
      </trkpt>
      <trkpt lat="43.49407" lon="6.18806">
        <ele>176.3</ele>
        <time>2024-03-27T15:33:19Z</time>
      </trkpt>
      <trkpt lat="43.49407" lon="6.18807">
        <ele>176.3</ele>
        <time>2024-03-27T15:33:20Z</time>
      </trkpt>
      <trkpt lat="43.49406" lon="6.18809">
        <ele>176.4</ele>
        <time>2024-03-27T15:33:21Z</time>
      </trkpt>
      <trkpt lat="43.49406" lon="6.18809">
        <ele>176.4</ele>
        <time>2024-03-27T15:33:22Z</time>
      </trkpt>
      <trkpt lat="43.49405" lon="6.18811">
        <ele>176.3</ele>
        <time>2024-03-27T15:33:23Z</time>
      </trkpt>
      <trkpt lat="43.49405" lon="6.18812">
        <ele>176.3</ele>
        <time>2024-03-27T15:33:24Z</time>
      </trkpt>
      <trkpt lat="43.49404" lon="6.18812">
        <ele>176.3</ele>
        <time>2024-03-27T15:33:25Z</time>
      </trkpt>
      <trkpt lat="43.49404" lon="6.18814">
        <ele>176.3</ele>
        <time>2024-03-27T15:33:26Z</time>
      </trkpt>
      <trkpt lat="43.49404" lon="6.18815">
        <ele>176.3</ele>
        <time>2024-03-27T15:33:27Z</time>
      </trkpt>
      <trkpt lat="43.49403" lon="6.18816">
        <ele>176.3</ele>
        <time>2024-03-27T15:33:28Z</time>
      </trkpt>
      <trkpt lat="43.49403" lon="6.18816">
        <ele>176.2</ele>
        <time>2024-03-27T15:33:29Z</time>
      </trkpt>
      <trkpt lat="43.49402" lon="6.18818">
        <ele>176.2</ele>
        <time>2024-03-27T15:33:30Z</time>
      </trkpt>
      <trkpt lat="43.49402" lon="6.18819">
        <ele>176.2</ele>
        <time>2024-03-27T15:33:31Z</time>
      </trkpt>
      <trkpt lat="43.49401" lon="6.1882">
        <ele>176.2</ele>
        <time>2024-03-27T15:33:32Z</time>
      </trkpt>
      <trkpt lat="43.49401" lon="6.18821">
        <ele>176.2</ele>
        <time>2024-03-27T15:33:33Z</time>
      </trkpt>
      <trkpt lat="43.494" lon="6.18822">
        <ele>176.2</ele>
        <time>2024-03-27T15:33:34Z</time>
      </trkpt>
      <trkpt lat="43.494" lon="6.18823">
        <ele>176.2</ele>
        <time>2024-03-27T15:33:35Z</time>
      </trkpt>
      <trkpt lat="43.494" lon="6.18824">
        <ele>176.4</ele>
        <time>2024-03-27T15:33:36Z</time>
      </trkpt>
      <trkpt lat="43.49399" lon="6.18825">
        <ele>176.5</ele>
        <time>2024-03-27T15:33:37Z</time>
      </trkpt>
      <trkpt lat="43.49398" lon="6.18826">
        <ele>176.5</ele>
        <time>2024-03-27T15:33:38Z</time>
      </trkpt>
      <trkpt lat="43.49398" lon="6.18827">
        <ele>176.5</ele>
        <time>2024-03-27T15:33:39Z</time>
      </trkpt>
      <trkpt lat="43.49397" lon="6.18828">
        <ele>176.5</ele>
        <time>2024-03-27T15:33:40Z</time>
      </trkpt>
      <trkpt lat="43.49397" lon="6.18829">
        <ele>176.6</ele>
        <time>2024-03-27T15:33:41Z</time>
      </trkpt>
      <trkpt lat="43.49397" lon="6.1883">
        <ele>176.7</ele>
        <time>2024-03-27T15:33:42Z</time>
      </trkpt>
      <trkpt lat="43.49397" lon="6.18832">
        <ele>176.8</ele>
        <time>2024-03-27T15:33:43Z</time>
      </trkpt>
      <trkpt lat="43.49396" lon="6.18833">
        <ele>176.8</ele>
        <time>2024-03-27T15:33:44Z</time>
      </trkpt>
      <trkpt lat="43.49396" lon="6.18834">
        <ele>176.9</ele>
        <time>2024-03-27T15:33:45Z</time>
      </trkpt>
      <trkpt lat="43.49396" lon="6.18835">
        <ele>176.9</ele>
        <time>2024-03-27T15:33:46Z</time>
      </trkpt>
      <trkpt lat="43.49395" lon="6.18835">
        <ele>177</ele>
        <time>2024-03-27T15:33:47Z</time>
      </trkpt>
      <trkpt lat="43.49395" lon="6.18836">
        <ele>176.9</ele>
        <time>2024-03-27T15:33:48Z</time>
      </trkpt>
      <trkpt lat="43.49394" lon="6.18837">
        <ele>176.9</ele>
        <time>2024-03-27T15:33:49Z</time>
      </trkpt>
      <trkpt lat="43.49394" lon="6.18838">
        <ele>176.9</ele>
        <time>2024-03-27T15:33:50Z</time>
      </trkpt>
      <trkpt lat="43.49393" lon="6.18839">
        <ele>176.9</ele>
        <time>2024-03-27T15:33:51Z</time>
      </trkpt>
      <trkpt lat="43.49393" lon="6.1884">
        <ele>176.9</ele>
        <time>2024-03-27T15:33:52Z</time>
      </trkpt>
      <trkpt lat="43.49393" lon="6.1884">
        <ele>177</ele>
        <time>2024-03-27T15:33:53Z</time>
      </trkpt>
      <trkpt lat="43.49393" lon="6.18841">
        <ele>177</ele>
        <time>2024-03-27T15:33:54Z</time>
      </trkpt>
      <trkpt lat="43.49392" lon="6.18842">
        <ele>176.9</ele>
        <time>2024-03-27T15:33:55Z</time>
      </trkpt>
      <trkpt lat="43.49392" lon="6.18843">
        <ele>176.9</ele>
        <time>2024-03-27T15:33:56Z</time>
      </trkpt>
      <trkpt lat="43.49392" lon="6.18844">
        <ele>176.9</ele>
        <time>2024-03-27T15:33:57Z</time>
      </trkpt>
      <trkpt lat="43.49391" lon="6.18845">
        <ele>177.1</ele>
        <time>2024-03-27T15:33:58Z</time>
      </trkpt>
      <trkpt lat="43.49391" lon="6.18847">
        <ele>177.2</ele>
        <time>2024-03-27T15:33:59Z</time>
      </trkpt>
      <trkpt lat="43.49391" lon="6.18848">
        <ele>177.4</ele>
        <time>2024-03-27T15:34:00Z</time>
      </trkpt>
      <trkpt lat="43.4939" lon="6.18849">
        <ele>177.6</ele>
        <time>2024-03-27T15:34:01Z</time>
      </trkpt>
      <trkpt lat="43.49391" lon="6.1885">
        <ele>177.8</ele>
        <time>2024-03-27T15:34:02Z</time>
      </trkpt>
      <trkpt lat="43.49391" lon="6.1885">
        <ele>177.9</ele>
        <time>2024-03-27T15:34:03Z</time>
      </trkpt>
      <trkpt lat="43.49391" lon="6.1885">
        <ele>178</ele>
        <time>2024-03-27T15:34:04Z</time>
      </trkpt>
      <trkpt lat="43.49391" lon="6.1885">
        <ele>177.9</ele>
        <time>2024-03-27T15:34:05Z</time>
      </trkpt>
      <trkpt lat="43.49391" lon="6.1885">
        <ele>178</ele>
        <time>2024-03-27T15:34:06Z</time>
      </trkpt>
      <trkpt lat="43.49391" lon="6.1885">
        <ele>177.9</ele>
        <time>2024-03-27T15:34:07Z</time>
      </trkpt>
      <trkpt lat="43.49391" lon="6.18851">
        <ele>177.9</ele>
        <time>2024-03-27T15:34:08Z</time>
      </trkpt>
      <trkpt lat="43.49391" lon="6.18851">
        <ele>177.8</ele>
        <time>2024-03-27T15:34:09Z</time>
      </trkpt>
      <trkpt lat="43.49392" lon="6.18851">
        <ele>177.8</ele>
        <time>2024-03-27T15:34:10Z</time>
      </trkpt>
      <trkpt lat="43.49392" lon="6.18852">
        <ele>177.7</ele>
        <time>2024-03-27T15:34:11Z</time>
      </trkpt>
      <trkpt lat="43.49393" lon="6.18852">
        <ele>177.7</ele>
        <time>2024-03-27T15:34:12Z</time>
      </trkpt>
      <trkpt lat="43.49393" lon="6.18852">
        <ele>177.8</ele>
        <time>2024-03-27T15:34:13Z</time>
      </trkpt>
      <trkpt lat="43.49393" lon="6.18853">
        <ele>177.8</ele>
        <time>2024-03-27T15:34:14Z</time>
      </trkpt>
      <trkpt lat="43.49394" lon="6.18853">
        <ele>177.6</ele>
        <time>2024-03-27T15:34:15Z</time>
      </trkpt>
      <trkpt lat="43.49394" lon="6.18853">
        <ele>177.4</ele>
        <time>2024-03-27T15:34:16Z</time>
      </trkpt>
      <trkpt lat="43.49394" lon="6.18853">
        <ele>177.4</ele>
        <time>2024-03-27T15:34:17Z</time>
      </trkpt>
      <trkpt lat="43.49394" lon="6.18853">
        <ele>177.3</ele>
        <time>2024-03-27T15:34:18Z</time>
      </trkpt>
      <trkpt lat="43.49394" lon="6.18853">
        <ele>177.3</ele>
        <time>2024-03-27T15:34:19Z</time>
      </trkpt>
      <trkpt lat="43.49394" lon="6.18853">
        <ele>177.3</ele>
        <time>2024-03-27T15:34:20Z</time>
      </trkpt>
      <trkpt lat="43.49393" lon="6.18853">
        <ele>177.2</ele>
        <time>2024-03-27T15:34:21Z</time>
      </trkpt>
      <trkpt lat="43.49393" lon="6.18854">
        <ele>177.2</ele>
        <time>2024-03-27T15:34:22Z</time>
      </trkpt>
      <trkpt lat="43.49392" lon="6.18855">
        <ele>177.3</ele>
        <time>2024-03-27T15:34:23Z</time>
      </trkpt>
      <trkpt lat="43.49392" lon="6.18855">
        <ele>177.4</ele>
        <time>2024-03-27T15:34:24Z</time>
      </trkpt>
      <trkpt lat="43.49392" lon="6.18855">
        <ele>177.3</ele>
        <time>2024-03-27T15:34:25Z</time>
      </trkpt>
      <trkpt lat="43.49392" lon="6.18855">
        <ele>177.3</ele>
        <time>2024-03-27T15:34:26Z</time>
      </trkpt>
      <trkpt lat="43.49391" lon="6.18854">
        <ele>177.3</ele>
        <time>2024-03-27T15:34:27Z</time>
      </trkpt>
      <trkpt lat="43.49392" lon="6.18855">
        <ele>177.2</ele>
        <time>2024-03-27T15:34:28Z</time>
      </trkpt>
      <trkpt lat="43.49392" lon="6.18855">
        <ele>177.2</ele>
        <time>2024-03-27T15:34:29Z</time>
      </trkpt>
      <trkpt lat="43.49392" lon="6.18855">
        <ele>177.2</ele>
        <time>2024-03-27T15:34:30Z</time>
      </trkpt>
      <trkpt lat="43.49391" lon="6.18855">
        <ele>177.1</ele>
        <time>2024-03-27T15:34:31Z</time>
      </trkpt>
      <trkpt lat="43.49391" lon="6.18855">
        <ele>177.1</ele>
        <time>2024-03-27T15:34:32Z</time>
      </trkpt>
      <trkpt lat="43.4939" lon="6.18854">
        <ele>177.1</ele>
        <time>2024-03-27T15:34:33Z</time>
      </trkpt>
      <trkpt lat="43.4939" lon="6.18854">
        <ele>177.1</ele>
        <time>2024-03-27T15:34:34Z</time>
      </trkpt>
      <trkpt lat="43.49389" lon="6.18854">
        <ele>177.2</ele>
        <time>2024-03-27T15:34:35Z</time>
      </trkpt>
      <trkpt lat="43.49388" lon="6.18854">
        <ele>177.2</ele>
        <time>2024-03-27T15:34:36Z</time>
      </trkpt>
      <trkpt lat="43.49387" lon="6.18853">
        <ele>177.3</ele>
        <time>2024-03-27T15:34:37Z</time>
      </trkpt>
      <trkpt lat="43.49386" lon="6.18853">
        <ele>177.3</ele>
        <time>2024-03-27T15:34:38Z</time>
      </trkpt>
      <trkpt lat="43.49385" lon="6.18853">
        <ele>177.4</ele>
        <time>2024-03-27T15:34:39Z</time>
      </trkpt>
      <trkpt lat="43.49384" lon="6.18854">
        <ele>177.3</ele>
        <time>2024-03-27T15:34:40Z</time>
      </trkpt>
      <trkpt lat="43.49383" lon="6.18853">
        <ele>177.3</ele>
        <time>2024-03-27T15:34:41Z</time>
      </trkpt>
      <trkpt lat="43.49381" lon="6.18853">
        <ele>177.2</ele>
        <time>2024-03-27T15:34:42Z</time>
      </trkpt>
      <trkpt lat="43.4938" lon="6.18853">
        <ele>177.1</ele>
        <time>2024-03-27T15:34:43Z</time>
      </trkpt>
      <trkpt lat="43.49379" lon="6.18853">
        <ele>177</ele>
        <time>2024-03-27T15:34:44Z</time>
      </trkpt>
      <trkpt lat="43.49378" lon="6.18852">
        <ele>176.9</ele>
        <time>2024-03-27T15:34:45Z</time>
      </trkpt>
      <trkpt lat="43.49377" lon="6.18852">
        <ele>176.8</ele>
        <time>2024-03-27T15:34:46Z</time>
      </trkpt>
      <trkpt lat="43.49376" lon="6.18851">
        <ele>176.7</ele>
        <time>2024-03-27T15:34:47Z</time>
      </trkpt>
      <trkpt lat="43.49374" lon="6.18851">
        <ele>176.6</ele>
        <time>2024-03-27T15:34:48Z</time>
      </trkpt>
      <trkpt lat="43.49373" lon="6.18851">
        <ele>176.7</ele>
        <time>2024-03-27T15:34:49Z</time>
      </trkpt>
      <trkpt lat="43.49372" lon="6.18851">
        <ele>176.6</ele>
        <time>2024-03-27T15:34:50Z</time>
      </trkpt>
      <trkpt lat="43.49371" lon="6.18851">
        <ele>176.6</ele>
        <time>2024-03-27T15:34:51Z</time>
      </trkpt>
      <trkpt lat="43.4937" lon="6.18851">
        <ele>176.7</ele>
        <time>2024-03-27T15:34:52Z</time>
      </trkpt>
      <trkpt lat="43.49368" lon="6.18851">
        <ele>176.7</ele>
        <time>2024-03-27T15:34:53Z</time>
      </trkpt>
      <trkpt lat="43.49367" lon="6.18851">
        <ele>176.7</ele>
        <time>2024-03-27T15:34:54Z</time>
      </trkpt>
      <trkpt lat="43.49366" lon="6.18851">
        <ele>176.6</ele>
        <time>2024-03-27T15:34:55Z</time>
      </trkpt>
      <trkpt lat="43.49366" lon="6.18851">
        <ele>176.6</ele>
        <time>2024-03-27T15:34:56Z</time>
      </trkpt>
      <trkpt lat="43.49365" lon="6.18852">
        <ele>176.5</ele>
        <time>2024-03-27T15:34:57Z</time>
      </trkpt>
      <trkpt lat="43.49365" lon="6.18852">
        <ele>176.5</ele>
        <time>2024-03-27T15:34:58Z</time>
      </trkpt>
      <trkpt lat="43.49364" lon="6.18851">
        <ele>176.4</ele>
        <time>2024-03-27T15:34:59Z</time>
      </trkpt>
      <trkpt lat="43.49363" lon="6.18851">
        <ele>176.5</ele>
        <time>2024-03-27T15:35:00Z</time>
      </trkpt>
      <trkpt lat="43.49362" lon="6.18851">
        <ele>176.4</ele>
        <time>2024-03-27T15:35:01Z</time>
      </trkpt>
      <trkpt lat="43.49361" lon="6.18852">
        <ele>176.5</ele>
        <time>2024-03-27T15:35:02Z</time>
      </trkpt>
      <trkpt lat="43.4936" lon="6.18852">
        <ele>176.6</ele>
        <time>2024-03-27T15:35:03Z</time>
      </trkpt>
      <trkpt lat="43.49359" lon="6.18852">
        <ele>176.6</ele>
        <time>2024-03-27T15:35:04Z</time>
      </trkpt>
      <trkpt lat="43.49358" lon="6.18853">
        <ele>176.7</ele>
        <time>2024-03-27T15:35:05Z</time>
      </trkpt>
      <trkpt lat="43.49357" lon="6.18854">
        <ele>176.7</ele>
        <time>2024-03-27T15:35:06Z</time>
      </trkpt>
      <trkpt lat="43.49357" lon="6.18855">
        <ele>176.7</ele>
        <time>2024-03-27T15:35:07Z</time>
      </trkpt>
      <trkpt lat="43.49356" lon="6.18855">
        <ele>176.7</ele>
        <time>2024-03-27T15:35:08Z</time>
      </trkpt>
      <trkpt lat="43.49355" lon="6.18856">
        <ele>176.8</ele>
        <time>2024-03-27T15:35:09Z</time>
      </trkpt>
      <trkpt lat="43.49354" lon="6.18857">
        <ele>176.8</ele>
        <time>2024-03-27T15:35:10Z</time>
      </trkpt>
      <trkpt lat="43.49353" lon="6.18857">
        <ele>176.9</ele>
        <time>2024-03-27T15:35:11Z</time>
      </trkpt>
      <trkpt lat="43.49352" lon="6.18858">
        <ele>176.9</ele>
        <time>2024-03-27T15:35:12Z</time>
      </trkpt>
      <trkpt lat="43.49351" lon="6.18858">
        <ele>177</ele>
        <time>2024-03-27T15:35:13Z</time>
      </trkpt>
      <trkpt lat="43.49351" lon="6.18859">
        <ele>177</ele>
        <time>2024-03-27T15:35:14Z</time>
      </trkpt>
      <trkpt lat="43.4935" lon="6.1886">
        <ele>177.2</ele>
        <time>2024-03-27T15:35:15Z</time>
      </trkpt>
      <trkpt lat="43.49349" lon="6.1886">
        <ele>177.3</ele>
        <time>2024-03-27T15:35:16Z</time>
      </trkpt>
      <trkpt lat="43.49348" lon="6.18861">
        <ele>177.4</ele>
        <time>2024-03-27T15:35:17Z</time>
      </trkpt>
      <trkpt lat="43.49347" lon="6.18862">
        <ele>177.4</ele>
        <time>2024-03-27T15:35:18Z</time>
      </trkpt>
      <trkpt lat="43.49346" lon="6.18862">
        <ele>177.4</ele>
        <time>2024-03-27T15:35:19Z</time>
      </trkpt>
      <trkpt lat="43.49345" lon="6.18862">
        <ele>177.4</ele>
        <time>2024-03-27T15:35:20Z</time>
      </trkpt>
      <trkpt lat="43.49344" lon="6.18863">
        <ele>177.4</ele>
        <time>2024-03-27T15:35:21Z</time>
      </trkpt>
      <trkpt lat="43.49343" lon="6.18864">
        <ele>177.3</ele>
        <time>2024-03-27T15:35:22Z</time>
      </trkpt>
      <trkpt lat="43.49342" lon="6.18864">
        <ele>177.3</ele>
        <time>2024-03-27T15:35:23Z</time>
      </trkpt>
      <trkpt lat="43.49341" lon="6.18863">
        <ele>177.1</ele>
        <time>2024-03-27T15:35:24Z</time>
      </trkpt>
      <trkpt lat="43.4934" lon="6.18862">
        <ele>177.1</ele>
        <time>2024-03-27T15:35:25Z</time>
      </trkpt>
      <trkpt lat="43.49339" lon="6.18862">
        <ele>176.8</ele>
        <time>2024-03-27T15:35:26Z</time>
      </trkpt>
      <trkpt lat="43.49338" lon="6.18862">
        <ele>176.6</ele>
        <time>2024-03-27T15:35:27Z</time>
      </trkpt>
      <trkpt lat="43.49337" lon="6.18862">
        <ele>176.4</ele>
        <time>2024-03-27T15:35:28Z</time>
      </trkpt>
      <trkpt lat="43.49336" lon="6.18862">
        <ele>176.3</ele>
        <time>2024-03-27T15:35:29Z</time>
      </trkpt>
      <trkpt lat="43.49336" lon="6.18861">
        <ele>176.3</ele>
        <time>2024-03-27T15:35:30Z</time>
      </trkpt>
      <trkpt lat="43.49335" lon="6.1886">
        <ele>176.3</ele>
        <time>2024-03-27T15:35:31Z</time>
      </trkpt>
      <trkpt lat="43.49334" lon="6.18859">
        <ele>176.2</ele>
        <time>2024-03-27T15:35:32Z</time>
      </trkpt>
      <trkpt lat="43.49333" lon="6.18859">
        <ele>176.2</ele>
        <time>2024-03-27T15:35:33Z</time>
      </trkpt>
      <trkpt lat="43.49332" lon="6.18858">
        <ele>176.1</ele>
        <time>2024-03-27T15:35:34Z</time>
      </trkpt>
      <trkpt lat="43.49332" lon="6.18858">
        <ele>176.1</ele>
        <time>2024-03-27T15:35:35Z</time>
      </trkpt>
      <trkpt lat="43.49331" lon="6.18857">
        <ele>176.1</ele>
        <time>2024-03-27T15:35:36Z</time>
      </trkpt>
      <trkpt lat="43.49331" lon="6.18856">
        <ele>176</ele>
        <time>2024-03-27T15:35:37Z</time>
      </trkpt>
      <trkpt lat="43.4933" lon="6.18856">
        <ele>176</ele>
        <time>2024-03-27T15:35:38Z</time>
      </trkpt>
      <trkpt lat="43.4933" lon="6.18855">
        <ele>176.1</ele>
        <time>2024-03-27T15:35:39Z</time>
      </trkpt>
      <trkpt lat="43.49329" lon="6.18855">
        <ele>176.1</ele>
        <time>2024-03-27T15:35:40Z</time>
      </trkpt>
      <trkpt lat="43.49329" lon="6.18855">
        <ele>176</ele>
        <time>2024-03-27T15:35:41Z</time>
      </trkpt>
      <trkpt lat="43.49329" lon="6.18855">
        <ele>175.9</ele>
        <time>2024-03-27T15:35:42Z</time>
      </trkpt>
      <trkpt lat="43.49328" lon="6.18855">
        <ele>175.9</ele>
        <time>2024-03-27T15:35:43Z</time>
      </trkpt>
      <trkpt lat="43.49328" lon="6.18855">
        <ele>175.9</ele>
        <time>2024-03-27T15:35:44Z</time>
      </trkpt>
      <trkpt lat="43.49327" lon="6.18856">
        <ele>175.8</ele>
        <time>2024-03-27T15:35:45Z</time>
      </trkpt>
      <trkpt lat="43.49327" lon="6.18856">
        <ele>175.8</ele>
        <time>2024-03-27T15:35:46Z</time>
      </trkpt>
      <trkpt lat="43.49327" lon="6.18856">
        <ele>175.8</ele>
        <time>2024-03-27T15:35:47Z</time>
      </trkpt>
      <trkpt lat="43.49327" lon="6.18856">
        <ele>175.8</ele>
        <time>2024-03-27T15:35:48Z</time>
      </trkpt>
      <trkpt lat="43.49327" lon="6.18856">
        <ele>175.8</ele>
        <time>2024-03-27T15:35:49Z</time>
      </trkpt>
      <trkpt lat="43.49327" lon="6.18857">
        <ele>175.7</ele>
        <time>2024-03-27T15:35:50Z</time>
      </trkpt>
      <trkpt lat="43.49327" lon="6.18857">
        <ele>175.7</ele>
        <time>2024-03-27T15:35:51Z</time>
      </trkpt>
      <trkpt lat="43.49326" lon="6.18856">
        <ele>175.7</ele>
        <time>2024-03-27T15:35:52Z</time>
      </trkpt>
      <trkpt lat="43.49326" lon="6.18857">
        <ele>175.7</ele>
        <time>2024-03-27T15:35:53Z</time>
      </trkpt>
      <trkpt lat="43.49326" lon="6.18856">
        <ele>175.7</ele>
        <time>2024-03-27T15:35:54Z</time>
      </trkpt>
      <trkpt lat="43.49326" lon="6.18856">
        <ele>175.7</ele>
        <time>2024-03-27T15:35:55Z</time>
      </trkpt>
      <trkpt lat="43.49325" lon="6.18856">
        <ele>175.7</ele>
        <time>2024-03-27T15:35:56Z</time>
      </trkpt>
      <trkpt lat="43.49324" lon="6.18855">
        <ele>175.7</ele>
        <time>2024-03-27T15:35:57Z</time>
      </trkpt>
      <trkpt lat="43.49323" lon="6.18855">
        <ele>175.7</ele>
        <time>2024-03-27T15:35:58Z</time>
      </trkpt>
      <trkpt lat="43.49322" lon="6.18855">
        <ele>175.6</ele>
        <time>2024-03-27T15:35:59Z</time>
      </trkpt>
      <trkpt lat="43.49321" lon="6.18855">
        <ele>175.6</ele>
        <time>2024-03-27T15:36:00Z</time>
      </trkpt>
      <trkpt lat="43.4932" lon="6.18855">
        <ele>175.6</ele>
        <time>2024-03-27T15:36:01Z</time>
      </trkpt>
      <trkpt lat="43.4932" lon="6.18855">
        <ele>175.6</ele>
        <time>2024-03-27T15:36:02Z</time>
      </trkpt>
      <trkpt lat="43.49319" lon="6.18854">
        <ele>175.7</ele>
        <time>2024-03-27T15:36:03Z</time>
      </trkpt>
      <trkpt lat="43.49318" lon="6.18854">
        <ele>175.7</ele>
        <time>2024-03-27T15:36:04Z</time>
      </trkpt>
      <trkpt lat="43.49318" lon="6.18854">
        <ele>175.6</ele>
        <time>2024-03-27T15:36:05Z</time>
      </trkpt>
      <trkpt lat="43.49317" lon="6.18853">
        <ele>175.6</ele>
        <time>2024-03-27T15:36:06Z</time>
      </trkpt>
      <trkpt lat="43.49316" lon="6.18853">
        <ele>175.5</ele>
        <time>2024-03-27T15:36:07Z</time>
      </trkpt>
      <trkpt lat="43.49315" lon="6.18853">
        <ele>175.6</ele>
        <time>2024-03-27T15:36:08Z</time>
      </trkpt>
      <trkpt lat="43.49315" lon="6.18853">
        <ele>175.6</ele>
        <time>2024-03-27T15:36:09Z</time>
      </trkpt>
      <trkpt lat="43.49314" lon="6.18852">
        <ele>175.6</ele>
        <time>2024-03-27T15:36:10Z</time>
      </trkpt>
      <trkpt lat="43.49313" lon="6.18852">
        <ele>175.6</ele>
        <time>2024-03-27T15:36:11Z</time>
      </trkpt>
      <trkpt lat="43.49313" lon="6.18852">
        <ele>175.7</ele>
        <time>2024-03-27T15:36:12Z</time>
      </trkpt>
      <trkpt lat="43.49311" lon="6.18852">
        <ele>175.7</ele>
        <time>2024-03-27T15:36:13Z</time>
      </trkpt>
      <trkpt lat="43.4931" lon="6.18852">
        <ele>175.7</ele>
        <time>2024-03-27T15:36:14Z</time>
      </trkpt>
      <trkpt lat="43.4931" lon="6.18851">
        <ele>175.9</ele>
        <time>2024-03-27T15:36:15Z</time>
      </trkpt>
      <trkpt lat="43.4931" lon="6.1885">
        <ele>176.1</ele>
        <time>2024-03-27T15:36:16Z</time>
      </trkpt>
      <trkpt lat="43.49308" lon="6.18851">
        <ele>176.1</ele>
        <time>2024-03-27T15:36:17Z</time>
      </trkpt>
      <trkpt lat="43.49308" lon="6.18851">
        <ele>176.3</ele>
        <time>2024-03-27T15:36:18Z</time>
      </trkpt>
      <trkpt lat="43.49307" lon="6.1885">
        <ele>176.5</ele>
        <time>2024-03-27T15:36:19Z</time>
      </trkpt>
      <trkpt lat="43.49307" lon="6.1885">
        <ele>176.6</ele>
        <time>2024-03-27T15:36:20Z</time>
      </trkpt>
      <trkpt lat="43.49306" lon="6.18849">
        <ele>176.7</ele>
        <time>2024-03-27T15:36:21Z</time>
      </trkpt>
      <trkpt lat="43.49306" lon="6.18849">
        <ele>176.9</ele>
        <time>2024-03-27T15:36:22Z</time>
      </trkpt>
      <trkpt lat="43.49305" lon="6.18847">
        <ele>177.1</ele>
        <time>2024-03-27T15:36:23Z</time>
      </trkpt>
      <trkpt lat="43.49305" lon="6.18847">
        <ele>177.3</ele>
        <time>2024-03-27T15:36:24Z</time>
      </trkpt>
      <trkpt lat="43.49304" lon="6.18847">
        <ele>177.5</ele>
        <time>2024-03-27T15:36:25Z</time>
      </trkpt>
      <trkpt lat="43.49304" lon="6.18847">
        <ele>177.5</ele>
        <time>2024-03-27T15:36:26Z</time>
      </trkpt>
      <trkpt lat="43.49303" lon="6.18847">
        <ele>177.5</ele>
        <time>2024-03-27T15:36:27Z</time>
      </trkpt>
      <trkpt lat="43.49303" lon="6.18847">
        <ele>177.5</ele>
        <time>2024-03-27T15:36:28Z</time>
      </trkpt>
      <trkpt lat="43.49303" lon="6.18847">
        <ele>177.4</ele>
        <time>2024-03-27T15:36:29Z</time>
      </trkpt>
      <trkpt lat="43.49302" lon="6.18847">
        <ele>177.5</ele>
        <time>2024-03-27T15:36:30Z</time>
      </trkpt>
      <trkpt lat="43.49302" lon="6.18847">
        <ele>177.5</ele>
        <time>2024-03-27T15:36:31Z</time>
      </trkpt>
      <trkpt lat="43.49302" lon="6.18847">
        <ele>177.6</ele>
        <time>2024-03-27T15:36:32Z</time>
      </trkpt>
      <trkpt lat="43.49301" lon="6.18847">
        <ele>177.6</ele>
        <time>2024-03-27T15:36:33Z</time>
      </trkpt>
      <trkpt lat="43.49301" lon="6.18847">
        <ele>177.6</ele>
        <time>2024-03-27T15:36:34Z</time>
      </trkpt>
      <trkpt lat="43.49301" lon="6.18847">
        <ele>177.6</ele>
        <time>2024-03-27T15:36:35Z</time>
      </trkpt>
      <trkpt lat="43.49301" lon="6.18847">
        <ele>177.5</ele>
        <time>2024-03-27T15:36:36Z</time>
      </trkpt>
      <trkpt lat="43.49301" lon="6.18847">
        <ele>177.5</ele>
        <time>2024-03-27T15:36:37Z</time>
      </trkpt>
      <trkpt lat="43.49301" lon="6.18846">
        <ele>177.6</ele>
        <time>2024-03-27T15:36:38Z</time>
      </trkpt>
      <trkpt lat="43.49301" lon="6.18845">
        <ele>177.7</ele>
        <time>2024-03-27T15:36:39Z</time>
      </trkpt>
      <trkpt lat="43.49302" lon="6.18843">
        <ele>177.7</ele>
        <time>2024-03-27T15:36:40Z</time>
      </trkpt>
      <trkpt lat="43.49302" lon="6.18842">
        <ele>177.8</ele>
        <time>2024-03-27T15:36:41Z</time>
      </trkpt>
      <trkpt lat="43.49302" lon="6.1884">
        <ele>177.9</ele>
        <time>2024-03-27T15:36:42Z</time>
      </trkpt>
      <trkpt lat="43.49302" lon="6.18839">
        <ele>178</ele>
        <time>2024-03-27T15:36:43Z</time>
      </trkpt>
      <trkpt lat="43.49302" lon="6.18837">
        <ele>178</ele>
        <time>2024-03-27T15:36:44Z</time>
      </trkpt>
      <trkpt lat="43.49303" lon="6.18836">
        <ele>178.1</ele>
        <time>2024-03-27T15:36:45Z</time>
      </trkpt>
      <trkpt lat="43.49303" lon="6.18834">
        <ele>178.1</ele>
        <time>2024-03-27T15:36:46Z</time>
      </trkpt>
      <trkpt lat="43.49304" lon="6.18833">
        <ele>178.2</ele>
        <time>2024-03-27T15:36:47Z</time>
      </trkpt>
      <trkpt lat="43.49304" lon="6.18832">
        <ele>178.1</ele>
        <time>2024-03-27T15:36:48Z</time>
      </trkpt>
      <trkpt lat="43.49304" lon="6.1883">
        <ele>178</ele>
        <time>2024-03-27T15:36:49Z</time>
      </trkpt>
      <trkpt lat="43.49305" lon="6.18829">
        <ele>178</ele>
        <time>2024-03-27T15:36:50Z</time>
      </trkpt>
      <trkpt lat="43.49305" lon="6.18828">
        <ele>177.9</ele>
        <time>2024-03-27T15:36:51Z</time>
      </trkpt>
      <trkpt lat="43.49305" lon="6.18826">
        <ele>177.8</ele>
        <time>2024-03-27T15:36:52Z</time>
      </trkpt>
      <trkpt lat="43.49305" lon="6.18825">
        <ele>177.6</ele>
        <time>2024-03-27T15:36:53Z</time>
      </trkpt>
      <trkpt lat="43.49306" lon="6.18824">
        <ele>177.5</ele>
        <time>2024-03-27T15:36:54Z</time>
      </trkpt>
      <trkpt lat="43.49306" lon="6.18823">
        <ele>177.4</ele>
        <time>2024-03-27T15:36:55Z</time>
      </trkpt>
      <trkpt lat="43.49306" lon="6.18821">
        <ele>177.4</ele>
        <time>2024-03-27T15:36:56Z</time>
      </trkpt>
      <trkpt lat="43.49307" lon="6.1882">
        <ele>177.3</ele>
        <time>2024-03-27T15:36:57Z</time>
      </trkpt>
      <trkpt lat="43.49307" lon="6.18818">
        <ele>177.3</ele>
        <time>2024-03-27T15:36:58Z</time>
      </trkpt>
      <trkpt lat="43.49307" lon="6.18817">
        <ele>177.3</ele>
        <time>2024-03-27T15:36:59Z</time>
      </trkpt>
      <trkpt lat="43.49307" lon="6.18816">
        <ele>177.2</ele>
        <time>2024-03-27T15:37:00Z</time>
      </trkpt>
      <trkpt lat="43.49307" lon="6.18814">
        <ele>177.2</ele>
        <time>2024-03-27T15:37:01Z</time>
      </trkpt>
      <trkpt lat="43.49308" lon="6.18813">
        <ele>177.2</ele>
        <time>2024-03-27T15:37:02Z</time>
      </trkpt>
      <trkpt lat="43.49308" lon="6.18811">
        <ele>177.3</ele>
        <time>2024-03-27T15:37:03Z</time>
      </trkpt>
      <trkpt lat="43.49308" lon="6.18809">
        <ele>177.4</ele>
        <time>2024-03-27T15:37:04Z</time>
      </trkpt>
      <trkpt lat="43.49309" lon="6.18808">
        <ele>177.4</ele>
        <time>2024-03-27T15:37:05Z</time>
      </trkpt>
      <trkpt lat="43.49309" lon="6.18807">
        <ele>177.4</ele>
        <time>2024-03-27T15:37:06Z</time>
      </trkpt>
      <trkpt lat="43.49309" lon="6.18805">
        <ele>177.3</ele>
        <time>2024-03-27T15:37:07Z</time>
      </trkpt>
      <trkpt lat="43.4931" lon="6.18803">
        <ele>177.3</ele>
        <time>2024-03-27T15:37:08Z</time>
      </trkpt>
      <trkpt lat="43.4931" lon="6.18802">
        <ele>177.2</ele>
        <time>2024-03-27T15:37:09Z</time>
      </trkpt>
      <trkpt lat="43.49311" lon="6.18801">
        <ele>177.1</ele>
        <time>2024-03-27T15:37:10Z</time>
      </trkpt>
      <trkpt lat="43.49311" lon="6.18799">
        <ele>177.1</ele>
        <time>2024-03-27T15:37:11Z</time>
      </trkpt>
      <trkpt lat="43.49311" lon="6.18798">
        <ele>177.1</ele>
        <time>2024-03-27T15:37:12Z</time>
      </trkpt>
      <trkpt lat="43.49311" lon="6.18796">
        <ele>177.2</ele>
        <time>2024-03-27T15:37:13Z</time>
      </trkpt>
      <trkpt lat="43.49312" lon="6.18795">
        <ele>177.1</ele>
        <time>2024-03-27T15:37:14Z</time>
      </trkpt>
      <trkpt lat="43.49312" lon="6.18793">
        <ele>177.1</ele>
        <time>2024-03-27T15:37:15Z</time>
      </trkpt>
      <trkpt lat="43.49312" lon="6.18791">
        <ele>177.1</ele>
        <time>2024-03-27T15:37:16Z</time>
      </trkpt>
      <trkpt lat="43.49313" lon="6.1879">
        <ele>177.1</ele>
        <time>2024-03-27T15:37:17Z</time>
      </trkpt>
      <trkpt lat="43.49312" lon="6.18789">
        <ele>177</ele>
        <time>2024-03-27T15:37:18Z</time>
      </trkpt>
      <trkpt lat="43.49312" lon="6.18788">
        <ele>177</ele>
        <time>2024-03-27T15:37:19Z</time>
      </trkpt>
      <trkpt lat="43.49313" lon="6.18787">
        <ele>176.9</ele>
        <time>2024-03-27T15:37:20Z</time>
      </trkpt>
      <trkpt lat="43.49313" lon="6.18785">
        <ele>176.8</ele>
        <time>2024-03-27T15:37:21Z</time>
      </trkpt>
      <trkpt lat="43.49313" lon="6.18784">
        <ele>176.8</ele>
        <time>2024-03-27T15:37:22Z</time>
      </trkpt>
      <trkpt lat="43.49314" lon="6.18783">
        <ele>176.7</ele>
        <time>2024-03-27T15:37:23Z</time>
      </trkpt>
      <trkpt lat="43.49314" lon="6.18781">
        <ele>176.7</ele>
        <time>2024-03-27T15:37:24Z</time>
      </trkpt>
      <trkpt lat="43.49314" lon="6.1878">
        <ele>176.6</ele>
        <time>2024-03-27T15:37:25Z</time>
      </trkpt>
      <trkpt lat="43.49314" lon="6.18778">
        <ele>176.6</ele>
        <time>2024-03-27T15:37:26Z</time>
      </trkpt>
      <trkpt lat="43.49315" lon="6.18776">
        <ele>176.6</ele>
        <time>2024-03-27T15:37:27Z</time>
      </trkpt>
      <trkpt lat="43.49315" lon="6.18775">
        <ele>176.6</ele>
        <time>2024-03-27T15:37:28Z</time>
      </trkpt>
      <trkpt lat="43.49315" lon="6.18774">
        <ele>176.6</ele>
        <time>2024-03-27T15:37:29Z</time>
      </trkpt>
      <trkpt lat="43.49315" lon="6.18772">
        <ele>176.6</ele>
        <time>2024-03-27T15:37:30Z</time>
      </trkpt>
      <trkpt lat="43.49315" lon="6.18771">
        <ele>176.6</ele>
        <time>2024-03-27T15:37:31Z</time>
      </trkpt>
      <trkpt lat="43.49316" lon="6.18769">
        <ele>176.6</ele>
        <time>2024-03-27T15:37:32Z</time>
      </trkpt>
      <trkpt lat="43.49316" lon="6.18768">
        <ele>176.6</ele>
        <time>2024-03-27T15:37:33Z</time>
      </trkpt>
      <trkpt lat="43.49317" lon="6.18766">
        <ele>176.7</ele>
        <time>2024-03-27T15:37:34Z</time>
      </trkpt>
      <trkpt lat="43.49317" lon="6.18765">
        <ele>176.7</ele>
        <time>2024-03-27T15:37:35Z</time>
      </trkpt>
      <trkpt lat="43.49318" lon="6.18763">
        <ele>176.8</ele>
        <time>2024-03-27T15:37:36Z</time>
      </trkpt>
      <trkpt lat="43.49319" lon="6.18761">
        <ele>176.8</ele>
        <time>2024-03-27T15:37:37Z</time>
      </trkpt>
      <trkpt lat="43.49319" lon="6.18759">
        <ele>176.8</ele>
        <time>2024-03-27T15:37:38Z</time>
      </trkpt>
      <trkpt lat="43.49319" lon="6.18757">
        <ele>176.8</ele>
        <time>2024-03-27T15:37:39Z</time>
      </trkpt>
      <trkpt lat="43.4932" lon="6.18756">
        <ele>176.8</ele>
        <time>2024-03-27T15:37:40Z</time>
      </trkpt>
      <trkpt lat="43.4932" lon="6.18755">
        <ele>176.9</ele>
        <time>2024-03-27T15:37:41Z</time>
      </trkpt>
      <trkpt lat="43.49321" lon="6.18753">
        <ele>176.9</ele>
        <time>2024-03-27T15:37:42Z</time>
      </trkpt>
      <trkpt lat="43.49321" lon="6.18752">
        <ele>176.9</ele>
        <time>2024-03-27T15:37:43Z</time>
      </trkpt>
      <trkpt lat="43.49323" lon="6.1875">
        <ele>176.8</ele>
        <time>2024-03-27T15:37:44Z</time>
      </trkpt>
      <trkpt lat="43.49323" lon="6.18748">
        <ele>176.8</ele>
        <time>2024-03-27T15:37:45Z</time>
      </trkpt>
      <trkpt lat="43.49323" lon="6.18747">
        <ele>176.7</ele>
        <time>2024-03-27T15:37:46Z</time>
      </trkpt>
      <trkpt lat="43.49323" lon="6.18745">
        <ele>176.8</ele>
        <time>2024-03-27T15:37:47Z</time>
      </trkpt>
      <trkpt lat="43.49323" lon="6.18743">
        <ele>176.8</ele>
        <time>2024-03-27T15:37:48Z</time>
      </trkpt>
      <trkpt lat="43.49324" lon="6.18742">
        <ele>176.7</ele>
        <time>2024-03-27T15:37:49Z</time>
      </trkpt>
      <trkpt lat="43.49324" lon="6.1874">
        <ele>176.6</ele>
        <time>2024-03-27T15:37:50Z</time>
      </trkpt>
      <trkpt lat="43.49325" lon="6.18738">
        <ele>176.7</ele>
        <time>2024-03-27T15:37:51Z</time>
      </trkpt>
      <trkpt lat="43.49325" lon="6.18736">
        <ele>176.7</ele>
        <time>2024-03-27T15:37:52Z</time>
      </trkpt>
      <trkpt lat="43.49325" lon="6.18735">
        <ele>176.7</ele>
        <time>2024-03-27T15:37:53Z</time>
      </trkpt>
      <trkpt lat="43.49324" lon="6.18733">
        <ele>176.6</ele>
        <time>2024-03-27T15:37:54Z</time>
      </trkpt>
      <trkpt lat="43.49323" lon="6.18732">
        <ele>176.5</ele>
        <time>2024-03-27T15:37:55Z</time>
      </trkpt>
      <trkpt lat="43.49322" lon="6.18731">
        <ele>176.4</ele>
        <time>2024-03-27T15:37:56Z</time>
      </trkpt>
      <trkpt lat="43.49321" lon="6.18731">
        <ele>176.3</ele>
        <time>2024-03-27T15:37:57Z</time>
      </trkpt>
      <trkpt lat="43.4932" lon="6.18731">
        <ele>176.3</ele>
        <time>2024-03-27T15:37:58Z</time>
      </trkpt>
      <trkpt lat="43.49319" lon="6.18731">
        <ele>176.2</ele>
        <time>2024-03-27T15:37:59Z</time>
      </trkpt>
      <trkpt lat="43.49318" lon="6.18731">
        <ele>176.2</ele>
        <time>2024-03-27T15:38:00Z</time>
      </trkpt>
      <trkpt lat="43.49317" lon="6.18732">
        <ele>176.2</ele>
        <time>2024-03-27T15:38:01Z</time>
      </trkpt>
      <trkpt lat="43.49316" lon="6.18733">
        <ele>176.2</ele>
        <time>2024-03-27T15:38:02Z</time>
      </trkpt>
      <trkpt lat="43.49316" lon="6.18734">
        <ele>176.2</ele>
        <time>2024-03-27T15:38:03Z</time>
      </trkpt>
      <trkpt lat="43.49315" lon="6.18736">
        <ele>176.2</ele>
        <time>2024-03-27T15:38:04Z</time>
      </trkpt>
      <trkpt lat="43.49314" lon="6.18737">
        <ele>176.2</ele>
        <time>2024-03-27T15:38:05Z</time>
      </trkpt>
      <trkpt lat="43.49314" lon="6.18738">
        <ele>176.2</ele>
        <time>2024-03-27T15:38:06Z</time>
      </trkpt>
      <trkpt lat="43.49313" lon="6.1874">
        <ele>176.3</ele>
        <time>2024-03-27T15:38:07Z</time>
      </trkpt>
      <trkpt lat="43.49312" lon="6.18741">
        <ele>176.3</ele>
        <time>2024-03-27T15:38:08Z</time>
      </trkpt>
      <trkpt lat="43.49311" lon="6.18742">
        <ele>176.4</ele>
        <time>2024-03-27T15:38:09Z</time>
      </trkpt>
      <trkpt lat="43.49311" lon="6.18744">
        <ele>176.5</ele>
        <time>2024-03-27T15:38:10Z</time>
      </trkpt>
      <trkpt lat="43.49311" lon="6.18744">
        <ele>176.5</ele>
        <time>2024-03-27T15:38:11Z</time>
      </trkpt>
      <trkpt lat="43.49311" lon="6.18745">
        <ele>176.5</ele>
        <time>2024-03-27T15:38:12Z</time>
      </trkpt>
      <trkpt lat="43.4931" lon="6.18747">
        <ele>176.6</ele>
        <time>2024-03-27T15:38:13Z</time>
      </trkpt>
      <trkpt lat="43.49309" lon="6.18747">
        <ele>176.7</ele>
        <time>2024-03-27T15:38:14Z</time>
      </trkpt>
      <trkpt lat="43.49308" lon="6.18748">
        <ele>176.7</ele>
        <time>2024-03-27T15:38:15Z</time>
      </trkpt>
      <trkpt lat="43.49307" lon="6.18748">
        <ele>176.9</ele>
        <time>2024-03-27T15:38:16Z</time>
      </trkpt>
      <trkpt lat="43.49306" lon="6.18748">
        <ele>177</ele>
        <time>2024-03-27T15:38:17Z</time>
      </trkpt>
      <trkpt lat="43.49305" lon="6.18747">
        <ele>177</ele>
        <time>2024-03-27T15:38:18Z</time>
      </trkpt>
      <trkpt lat="43.49304" lon="6.18746">
        <ele>177.1</ele>
        <time>2024-03-27T15:38:19Z</time>
      </trkpt>
      <trkpt lat="43.49302" lon="6.18746">
        <ele>177.1</ele>
        <time>2024-03-27T15:38:20Z</time>
      </trkpt>
      <trkpt lat="43.49301" lon="6.18746">
        <ele>177.1</ele>
        <time>2024-03-27T15:38:21Z</time>
      </trkpt>
      <trkpt lat="43.493" lon="6.18745">
        <ele>177.2</ele>
        <time>2024-03-27T15:38:22Z</time>
      </trkpt>
      <trkpt lat="43.49299" lon="6.18745">
        <ele>177.2</ele>
        <time>2024-03-27T15:38:23Z</time>
      </trkpt>
      <trkpt lat="43.49298" lon="6.18745">
        <ele>177.2</ele>
        <time>2024-03-27T15:38:24Z</time>
      </trkpt>
      <trkpt lat="43.49297" lon="6.18744">
        <ele>177.2</ele>
        <time>2024-03-27T15:38:25Z</time>
      </trkpt>
      <trkpt lat="43.49296" lon="6.18744">
        <ele>177.2</ele>
        <time>2024-03-27T15:38:26Z</time>
      </trkpt>
      <trkpt lat="43.49295" lon="6.18744">
        <ele>177.3</ele>
        <time>2024-03-27T15:38:27Z</time>
      </trkpt>
      <trkpt lat="43.49294" lon="6.18743">
        <ele>177.4</ele>
        <time>2024-03-27T15:38:28Z</time>
      </trkpt>
      <trkpt lat="43.49293" lon="6.18743">
        <ele>177.5</ele>
        <time>2024-03-27T15:38:29Z</time>
      </trkpt>
      <trkpt lat="43.49292" lon="6.18742">
        <ele>177.6</ele>
        <time>2024-03-27T15:38:30Z</time>
      </trkpt>
      <trkpt lat="43.49291" lon="6.18742">
        <ele>177.6</ele>
        <time>2024-03-27T15:38:31Z</time>
      </trkpt>
      <trkpt lat="43.4929" lon="6.18742">
        <ele>177.6</ele>
        <time>2024-03-27T15:38:32Z</time>
      </trkpt>
      <trkpt lat="43.49289" lon="6.18741">
        <ele>177.6</ele>
        <time>2024-03-27T15:38:33Z</time>
      </trkpt>
      <trkpt lat="43.49288" lon="6.18741">
        <ele>177.7</ele>
        <time>2024-03-27T15:38:34Z</time>
      </trkpt>
      <trkpt lat="43.49287" lon="6.18741">
        <ele>177.7</ele>
        <time>2024-03-27T15:38:35Z</time>
      </trkpt>
      <trkpt lat="43.49287" lon="6.18741">
        <ele>177.8</ele>
        <time>2024-03-27T15:38:36Z</time>
      </trkpt>
      <trkpt lat="43.49286" lon="6.18741">
        <ele>177.8</ele>
        <time>2024-03-27T15:38:37Z</time>
      </trkpt>
      <trkpt lat="43.49285" lon="6.18741">
        <ele>177.9</ele>
        <time>2024-03-27T15:38:38Z</time>
      </trkpt>
      <trkpt lat="43.49284" lon="6.18741">
        <ele>177.9</ele>
        <time>2024-03-27T15:38:39Z</time>
      </trkpt>
      <trkpt lat="43.49283" lon="6.1874">
        <ele>177.8</ele>
        <time>2024-03-27T15:38:40Z</time>
      </trkpt>
      <trkpt lat="43.49281" lon="6.18739">
        <ele>177.9</ele>
        <time>2024-03-27T15:38:41Z</time>
      </trkpt>
      <trkpt lat="43.4928" lon="6.18738">
        <ele>178</ele>
        <time>2024-03-27T15:38:42Z</time>
      </trkpt>
      <trkpt lat="43.49279" lon="6.18738">
        <ele>178.1</ele>
        <time>2024-03-27T15:38:43Z</time>
      </trkpt>
      <trkpt lat="43.49278" lon="6.18738">
        <ele>178.2</ele>
        <time>2024-03-27T15:38:44Z</time>
      </trkpt>
      <trkpt lat="43.49277" lon="6.18737">
        <ele>178.2</ele>
        <time>2024-03-27T15:38:45Z</time>
      </trkpt>
      <trkpt lat="43.49276" lon="6.18737">
        <ele>178.2</ele>
        <time>2024-03-27T15:38:46Z</time>
      </trkpt>
      <trkpt lat="43.49275" lon="6.18736">
        <ele>178.2</ele>
        <time>2024-03-27T15:38:47Z</time>
      </trkpt>
      <trkpt lat="43.49274" lon="6.18736">
        <ele>178.2</ele>
        <time>2024-03-27T15:38:48Z</time>
      </trkpt>
      <trkpt lat="43.49274" lon="6.18735">
        <ele>178.2</ele>
        <time>2024-03-27T15:38:49Z</time>
      </trkpt>
      <trkpt lat="43.49272" lon="6.18736">
        <ele>178.1</ele>
        <time>2024-03-27T15:38:50Z</time>
      </trkpt>
      <trkpt lat="43.49271" lon="6.18736">
        <ele>178.1</ele>
        <time>2024-03-27T15:38:51Z</time>
      </trkpt>
      <trkpt lat="43.49271" lon="6.18737">
        <ele>178.1</ele>
        <time>2024-03-27T15:38:52Z</time>
      </trkpt>
      <trkpt lat="43.4927" lon="6.18738">
        <ele>178.2</ele>
        <time>2024-03-27T15:38:53Z</time>
      </trkpt>
      <trkpt lat="43.4927" lon="6.18739">
        <ele>178.2</ele>
        <time>2024-03-27T15:38:54Z</time>
      </trkpt>
      <trkpt lat="43.4927" lon="6.18741">
        <ele>178.1</ele>
        <time>2024-03-27T15:38:55Z</time>
      </trkpt>
      <trkpt lat="43.49269" lon="6.18742">
        <ele>178.2</ele>
        <time>2024-03-27T15:38:56Z</time>
      </trkpt>
      <trkpt lat="43.49269" lon="6.18742">
        <ele>178.3</ele>
        <time>2024-03-27T15:38:57Z</time>
      </trkpt>
      <trkpt lat="43.49268" lon="6.18743">
        <ele>178.1</ele>
        <time>2024-03-27T15:38:58Z</time>
      </trkpt>
      <trkpt lat="43.49267" lon="6.18743">
        <ele>177.9</ele>
        <time>2024-03-27T15:38:59Z</time>
      </trkpt>
      <trkpt lat="43.49266" lon="6.18743">
        <ele>177.8</ele>
        <time>2024-03-27T15:39:00Z</time>
      </trkpt>
      <trkpt lat="43.49265" lon="6.18742">
        <ele>177.6</ele>
        <time>2024-03-27T15:39:01Z</time>
      </trkpt>
      <trkpt lat="43.49264" lon="6.18741">
        <ele>177.4</ele>
        <time>2024-03-27T15:39:02Z</time>
      </trkpt>
      <trkpt lat="43.49263" lon="6.18741">
        <ele>177.3</ele>
        <time>2024-03-27T15:39:03Z</time>
      </trkpt>
      <trkpt lat="43.49262" lon="6.1874">
        <ele>177.2</ele>
        <time>2024-03-27T15:39:04Z</time>
      </trkpt>
      <trkpt lat="43.49261" lon="6.1874">
        <ele>177.1</ele>
        <time>2024-03-27T15:39:05Z</time>
      </trkpt>
      <trkpt lat="43.49261" lon="6.18739">
        <ele>176.9</ele>
        <time>2024-03-27T15:39:06Z</time>
      </trkpt>
      <trkpt lat="43.4926" lon="6.18738">
        <ele>176.9</ele>
        <time>2024-03-27T15:39:07Z</time>
      </trkpt>
      <trkpt lat="43.49259" lon="6.18738">
        <ele>176.8</ele>
        <time>2024-03-27T15:39:08Z</time>
      </trkpt>
      <trkpt lat="43.49259" lon="6.18737">
        <ele>176.8</ele>
        <time>2024-03-27T15:39:09Z</time>
      </trkpt>
      <trkpt lat="43.49258" lon="6.18736">
        <ele>176.6</ele>
        <time>2024-03-27T15:39:10Z</time>
      </trkpt>
      <trkpt lat="43.49257" lon="6.18736">
        <ele>176.6</ele>
        <time>2024-03-27T15:39:11Z</time>
      </trkpt>
      <trkpt lat="43.49256" lon="6.18735">
        <ele>176.6</ele>
        <time>2024-03-27T15:39:12Z</time>
      </trkpt>
      <trkpt lat="43.49255" lon="6.18734">
        <ele>176.6</ele>
        <time>2024-03-27T15:39:13Z</time>
      </trkpt>
      <trkpt lat="43.49254" lon="6.18734">
        <ele>176.6</ele>
        <time>2024-03-27T15:39:14Z</time>
      </trkpt>
      <trkpt lat="43.49254" lon="6.18733">
        <ele>176.6</ele>
        <time>2024-03-27T15:39:15Z</time>
      </trkpt>
      <trkpt lat="43.49253" lon="6.18732">
        <ele>176.6</ele>
        <time>2024-03-27T15:39:16Z</time>
      </trkpt>
      <trkpt lat="43.49252" lon="6.18732">
        <ele>176.6</ele>
        <time>2024-03-27T15:39:17Z</time>
      </trkpt>
      <trkpt lat="43.49251" lon="6.18731">
        <ele>176.6</ele>
        <time>2024-03-27T15:39:18Z</time>
      </trkpt>
      <trkpt lat="43.4925" lon="6.18731">
        <ele>176.6</ele>
        <time>2024-03-27T15:39:19Z</time>
      </trkpt>
      <trkpt lat="43.49249" lon="6.18731">
        <ele>176.5</ele>
        <time>2024-03-27T15:39:20Z</time>
      </trkpt>
      <trkpt lat="43.49248" lon="6.1873">
        <ele>176.5</ele>
        <time>2024-03-27T15:39:21Z</time>
      </trkpt>
      <trkpt lat="43.49247" lon="6.1873">
        <ele>176.5</ele>
        <time>2024-03-27T15:39:22Z</time>
      </trkpt>
      <trkpt lat="43.49247" lon="6.18729">
        <ele>176.6</ele>
        <time>2024-03-27T15:39:23Z</time>
      </trkpt>
      <trkpt lat="43.49246" lon="6.18729">
        <ele>176.6</ele>
        <time>2024-03-27T15:39:24Z</time>
      </trkpt>
      <trkpt lat="43.49245" lon="6.1873">
        <ele>176.6</ele>
        <time>2024-03-27T15:39:25Z</time>
      </trkpt>
      <trkpt lat="43.49244" lon="6.1873">
        <ele>176.7</ele>
        <time>2024-03-27T15:39:26Z</time>
      </trkpt>
      <trkpt lat="43.49243" lon="6.1873">
        <ele>176.7</ele>
        <time>2024-03-27T15:39:27Z</time>
      </trkpt>
      <trkpt lat="43.49242" lon="6.1873">
        <ele>176.7</ele>
        <time>2024-03-27T15:39:28Z</time>
      </trkpt>
      <trkpt lat="43.49241" lon="6.18731">
        <ele>176.6</ele>
        <time>2024-03-27T15:39:29Z</time>
      </trkpt>
      <trkpt lat="43.4924" lon="6.18731">
        <ele>176.7</ele>
        <time>2024-03-27T15:39:30Z</time>
      </trkpt>
      <trkpt lat="43.49239" lon="6.18731">
        <ele>176.7</ele>
        <time>2024-03-27T15:39:31Z</time>
      </trkpt>
      <trkpt lat="43.49238" lon="6.1873">
        <ele>176.8</ele>
        <time>2024-03-27T15:39:32Z</time>
      </trkpt>
      <trkpt lat="43.49237" lon="6.1873">
        <ele>176.8</ele>
        <time>2024-03-27T15:39:33Z</time>
      </trkpt>
      <trkpt lat="43.49237" lon="6.1873">
        <ele>176.8</ele>
        <time>2024-03-27T15:39:34Z</time>
      </trkpt>
      <trkpt lat="43.49235" lon="6.1873">
        <ele>176.9</ele>
        <time>2024-03-27T15:39:35Z</time>
      </trkpt>
      <trkpt lat="43.49235" lon="6.1873">
        <ele>176.9</ele>
        <time>2024-03-27T15:39:36Z</time>
      </trkpt>
      <trkpt lat="43.49235" lon="6.1873">
        <ele>176.9</ele>
        <time>2024-03-27T15:39:37Z</time>
      </trkpt>
      <trkpt lat="43.49235" lon="6.1873">
        <ele>176.9</ele>
        <time>2024-03-27T15:39:38Z</time>
      </trkpt>
      <trkpt lat="43.49234" lon="6.1873">
        <ele>176.9</ele>
        <time>2024-03-27T15:39:39Z</time>
      </trkpt>
      <trkpt lat="43.49234" lon="6.18731">
        <ele>176.9</ele>
        <time>2024-03-27T15:39:40Z</time>
      </trkpt>
      <trkpt lat="43.49234" lon="6.18731">
        <ele>176.9</ele>
        <time>2024-03-27T15:39:41Z</time>
      </trkpt>
      <trkpt lat="43.49234" lon="6.18731">
        <ele>176.9</ele>
        <time>2024-03-27T15:39:42Z</time>
      </trkpt>
      <trkpt lat="43.49234" lon="6.18731">
        <ele>176.9</ele>
        <time>2024-03-27T15:39:43Z</time>
      </trkpt>
      <trkpt lat="43.49234" lon="6.18731">
        <ele>176.8</ele>
        <time>2024-03-27T15:39:44Z</time>
      </trkpt>
      <trkpt lat="43.49234" lon="6.18731">
        <ele>176.8</ele>
        <time>2024-03-27T15:39:45Z</time>
      </trkpt>
      <trkpt lat="43.49233" lon="6.18731">
        <ele>176.8</ele>
        <time>2024-03-27T15:39:46Z</time>
      </trkpt>
      <trkpt lat="43.49233" lon="6.18731">
        <ele>176.8</ele>
        <time>2024-03-27T15:39:47Z</time>
      </trkpt>
      <trkpt lat="43.49233" lon="6.18731">
        <ele>176.8</ele>
        <time>2024-03-27T15:39:48Z</time>
      </trkpt>
      <trkpt lat="43.49233" lon="6.18731">
        <ele>176.8</ele>
        <time>2024-03-27T15:39:49Z</time>
      </trkpt>
      <trkpt lat="43.49233" lon="6.18731">
        <ele>176.8</ele>
        <time>2024-03-27T15:39:50Z</time>
      </trkpt>
      <trkpt lat="43.49232" lon="6.18731">
        <ele>176.7</ele>
        <time>2024-03-27T15:39:51Z</time>
      </trkpt>
      <trkpt lat="43.49232" lon="6.18731">
        <ele>176.6</ele>
        <time>2024-03-27T15:39:52Z</time>
      </trkpt>
      <trkpt lat="43.49232" lon="6.18731">
        <ele>176.6</ele>
        <time>2024-03-27T15:39:53Z</time>
      </trkpt>
      <trkpt lat="43.49232" lon="6.18732">
        <ele>176.5</ele>
        <time>2024-03-27T15:39:54Z</time>
      </trkpt>
      <trkpt lat="43.49231" lon="6.18732">
        <ele>176.5</ele>
        <time>2024-03-27T15:39:55Z</time>
      </trkpt>
      <trkpt lat="43.49231" lon="6.18732">
        <ele>176.5</ele>
        <time>2024-03-27T15:39:56Z</time>
      </trkpt>
      <trkpt lat="43.49231" lon="6.18732">
        <ele>176.6</ele>
        <time>2024-03-27T15:39:57Z</time>
      </trkpt>
      <trkpt lat="43.49231" lon="6.18732">
        <ele>176.6</ele>
        <time>2024-03-27T15:39:58Z</time>
      </trkpt>
      <trkpt lat="43.49231" lon="6.18732">
        <ele>176.6</ele>
        <time>2024-03-27T15:39:59Z</time>
      </trkpt>
      <trkpt lat="43.49231" lon="6.18732">
        <ele>176.6</ele>
        <time>2024-03-27T15:40:00Z</time>
      </trkpt>
      <trkpt lat="43.49231" lon="6.18732">
        <ele>176.8</ele>
        <time>2024-03-27T15:40:01Z</time>
      </trkpt>
      <trkpt lat="43.49231" lon="6.18731">
        <ele>176.9</ele>
        <time>2024-03-27T15:40:02Z</time>
      </trkpt>
      <trkpt lat="43.49231" lon="6.18731">
        <ele>176.8</ele>
        <time>2024-03-27T15:40:03Z</time>
      </trkpt>
      <trkpt lat="43.49232" lon="6.18731">
        <ele>176.8</ele>
        <time>2024-03-27T15:40:04Z</time>
      </trkpt>
      <trkpt lat="43.49231" lon="6.18731">
        <ele>176.8</ele>
        <time>2024-03-27T15:40:05Z</time>
      </trkpt>
      <trkpt lat="43.49231" lon="6.18731">
        <ele>176.8</ele>
        <time>2024-03-27T15:40:06Z</time>
      </trkpt>
      <trkpt lat="43.49231" lon="6.18731">
        <ele>176.7</ele>
        <time>2024-03-27T15:40:07Z</time>
      </trkpt>
      <trkpt lat="43.49231" lon="6.18731">
        <ele>176.7</ele>
        <time>2024-03-27T15:40:08Z</time>
      </trkpt>
      <trkpt lat="43.49231" lon="6.18731">
        <ele>176.7</ele>
        <time>2024-03-27T15:40:09Z</time>
      </trkpt>
      <trkpt lat="43.49231" lon="6.18731">
        <ele>176.7</ele>
        <time>2024-03-27T15:40:10Z</time>
      </trkpt>
      <trkpt lat="43.4923" lon="6.18732">
        <ele>176.7</ele>
        <time>2024-03-27T15:40:11Z</time>
      </trkpt>
      <trkpt lat="43.49231" lon="6.18732">
        <ele>176.7</ele>
        <time>2024-03-27T15:40:12Z</time>
      </trkpt>
      <trkpt lat="43.49231" lon="6.18731">
        <ele>176.7</ele>
        <time>2024-03-27T15:40:13Z</time>
      </trkpt>
      <trkpt lat="43.49231" lon="6.1873">
        <ele>176.7</ele>
        <time>2024-03-27T15:40:14Z</time>
      </trkpt>
      <trkpt lat="43.4923" lon="6.18729">
        <ele>176.8</ele>
        <time>2024-03-27T15:40:15Z</time>
      </trkpt>
      <trkpt lat="43.4923" lon="6.18728">
        <ele>177</ele>
        <time>2024-03-27T15:40:16Z</time>
      </trkpt>
      <trkpt lat="43.49231" lon="6.18727">
        <ele>177</ele>
        <time>2024-03-27T15:40:17Z</time>
      </trkpt>
      <trkpt lat="43.49231" lon="6.18726">
        <ele>177</ele>
        <time>2024-03-27T15:40:18Z</time>
      </trkpt>
      <trkpt lat="43.49232" lon="6.18724">
        <ele>176.9</ele>
        <time>2024-03-27T15:40:19Z</time>
      </trkpt>
      <trkpt lat="43.49232" lon="6.18723">
        <ele>176.9</ele>
        <time>2024-03-27T15:40:20Z</time>
      </trkpt>
      <trkpt lat="43.49233" lon="6.18722">
        <ele>176.9</ele>
        <time>2024-03-27T15:40:21Z</time>
      </trkpt>
      <trkpt lat="43.49233" lon="6.1872">
        <ele>176.8</ele>
        <time>2024-03-27T15:40:22Z</time>
      </trkpt>
      <trkpt lat="43.49233" lon="6.18719">
        <ele>176.8</ele>
        <time>2024-03-27T15:40:23Z</time>
      </trkpt>
      <trkpt lat="43.49233" lon="6.18717">
        <ele>176.8</ele>
        <time>2024-03-27T15:40:24Z</time>
      </trkpt>
      <trkpt lat="43.49234" lon="6.18715">
        <ele>176.8</ele>
        <time>2024-03-27T15:40:25Z</time>
      </trkpt>
      <trkpt lat="43.49234" lon="6.18713">
        <ele>176.7</ele>
        <time>2024-03-27T15:40:26Z</time>
      </trkpt>
      <trkpt lat="43.49234" lon="6.18711">
        <ele>176.7</ele>
        <time>2024-03-27T15:40:27Z</time>
      </trkpt>
      <trkpt lat="43.49234" lon="6.1871">
        <ele>176.6</ele>
        <time>2024-03-27T15:40:28Z</time>
      </trkpt>
      <trkpt lat="43.49234" lon="6.18709">
        <ele>176.6</ele>
        <time>2024-03-27T15:40:29Z</time>
      </trkpt>
      <trkpt lat="43.49234" lon="6.18707">
        <ele>176.6</ele>
        <time>2024-03-27T15:40:30Z</time>
      </trkpt>
      <trkpt lat="43.49234" lon="6.18706">
        <ele>176.6</ele>
        <time>2024-03-27T15:40:31Z</time>
      </trkpt>
      <trkpt lat="43.49234" lon="6.18705">
        <ele>176.6</ele>
        <time>2024-03-27T15:40:32Z</time>
      </trkpt>
      <trkpt lat="43.49234" lon="6.18703">
        <ele>176.4</ele>
        <time>2024-03-27T15:40:33Z</time>
      </trkpt>
      <trkpt lat="43.49234" lon="6.18702">
        <ele>176.4</ele>
        <time>2024-03-27T15:40:34Z</time>
      </trkpt>
      <trkpt lat="43.49235" lon="6.187">
        <ele>176.3</ele>
        <time>2024-03-27T15:40:35Z</time>
      </trkpt>
      <trkpt lat="43.49235" lon="6.18699">
        <ele>176.3</ele>
        <time>2024-03-27T15:40:36Z</time>
      </trkpt>
      <trkpt lat="43.49236" lon="6.18697">
        <ele>176.2</ele>
        <time>2024-03-27T15:40:37Z</time>
      </trkpt>
      <trkpt lat="43.49236" lon="6.18696">
        <ele>176.2</ele>
        <time>2024-03-27T15:40:38Z</time>
      </trkpt>
      <trkpt lat="43.49236" lon="6.18695">
        <ele>176.1</ele>
        <time>2024-03-27T15:40:39Z</time>
      </trkpt>
      <trkpt lat="43.49237" lon="6.18692">
        <ele>176</ele>
        <time>2024-03-27T15:40:40Z</time>
      </trkpt>
      <trkpt lat="43.49237" lon="6.18691">
        <ele>175.9</ele>
        <time>2024-03-27T15:40:41Z</time>
      </trkpt>
      <trkpt lat="43.49237" lon="6.18689">
        <ele>175.7</ele>
        <time>2024-03-27T15:40:42Z</time>
      </trkpt>
      <trkpt lat="43.49238" lon="6.18687">
        <ele>175.6</ele>
        <time>2024-03-27T15:40:43Z</time>
      </trkpt>
      <trkpt lat="43.49238" lon="6.18686">
        <ele>175.6</ele>
        <time>2024-03-27T15:40:44Z</time>
      </trkpt>
      <trkpt lat="43.49238" lon="6.18684">
        <ele>175.4</ele>
        <time>2024-03-27T15:40:45Z</time>
      </trkpt>
      <trkpt lat="43.49238" lon="6.18682">
        <ele>175.3</ele>
        <time>2024-03-27T15:40:46Z</time>
      </trkpt>
      <trkpt lat="43.49237" lon="6.18681">
        <ele>175.2</ele>
        <time>2024-03-27T15:40:47Z</time>
      </trkpt>
      <trkpt lat="43.49237" lon="6.1868">
        <ele>175.2</ele>
        <time>2024-03-27T15:40:48Z</time>
      </trkpt>
      <trkpt lat="43.49237" lon="6.18678">
        <ele>175.3</ele>
        <time>2024-03-27T15:40:49Z</time>
      </trkpt>
      <trkpt lat="43.49236" lon="6.18676">
        <ele>175.3</ele>
        <time>2024-03-27T15:40:50Z</time>
      </trkpt>
      <trkpt lat="43.49236" lon="6.18675">
        <ele>175.3</ele>
        <time>2024-03-27T15:40:51Z</time>
      </trkpt>
      <trkpt lat="43.49235" lon="6.18673">
        <ele>175.3</ele>
        <time>2024-03-27T15:40:52Z</time>
      </trkpt>
      <trkpt lat="43.49236" lon="6.18671">
        <ele>175.3</ele>
        <time>2024-03-27T15:40:53Z</time>
      </trkpt>
      <trkpt lat="43.49236" lon="6.1867">
        <ele>175.2</ele>
        <time>2024-03-27T15:40:54Z</time>
      </trkpt>
      <trkpt lat="43.49235" lon="6.18668">
        <ele>175.2</ele>
        <time>2024-03-27T15:40:55Z</time>
      </trkpt>
      <trkpt lat="43.49236" lon="6.18666">
        <ele>175.1</ele>
        <time>2024-03-27T15:40:56Z</time>
      </trkpt>
      <trkpt lat="43.49236" lon="6.18664">
        <ele>175.1</ele>
        <time>2024-03-27T15:40:57Z</time>
      </trkpt>
      <trkpt lat="43.49236" lon="6.18662">
        <ele>175.1</ele>
        <time>2024-03-27T15:40:58Z</time>
      </trkpt>
      <trkpt lat="43.49236" lon="6.1866">
        <ele>175.1</ele>
        <time>2024-03-27T15:40:59Z</time>
      </trkpt>
      <trkpt lat="43.49235" lon="6.18659">
        <ele>175.1</ele>
        <time>2024-03-27T15:41:00Z</time>
      </trkpt>
      <trkpt lat="43.49235" lon="6.18657">
        <ele>175.2</ele>
        <time>2024-03-27T15:41:01Z</time>
      </trkpt>
      <trkpt lat="43.49235" lon="6.18656">
        <ele>175.2</ele>
        <time>2024-03-27T15:41:02Z</time>
      </trkpt>
      <trkpt lat="43.49234" lon="6.18654">
        <ele>175.1</ele>
        <time>2024-03-27T15:41:03Z</time>
      </trkpt>
      <trkpt lat="43.49233" lon="6.18653">
        <ele>175.1</ele>
        <time>2024-03-27T15:41:04Z</time>
      </trkpt>
      <trkpt lat="43.49233" lon="6.18651">
        <ele>175</ele>
        <time>2024-03-27T15:41:05Z</time>
      </trkpt>
      <trkpt lat="43.49233" lon="6.18649">
        <ele>175.1</ele>
        <time>2024-03-27T15:41:06Z</time>
      </trkpt>
      <trkpt lat="43.49233" lon="6.18648">
        <ele>175.1</ele>
        <time>2024-03-27T15:41:07Z</time>
      </trkpt>
      <trkpt lat="43.49233" lon="6.18646">
        <ele>175</ele>
        <time>2024-03-27T15:41:08Z</time>
      </trkpt>
      <trkpt lat="43.49233" lon="6.18645">
        <ele>175</ele>
        <time>2024-03-27T15:41:09Z</time>
      </trkpt>
      <trkpt lat="43.49233" lon="6.18643">
        <ele>174.9</ele>
        <time>2024-03-27T15:41:10Z</time>
      </trkpt>
      <trkpt lat="43.49232" lon="6.18641">
        <ele>174.9</ele>
        <time>2024-03-27T15:41:11Z</time>
      </trkpt>
      <trkpt lat="43.49231" lon="6.18639">
        <ele>174.9</ele>
        <time>2024-03-27T15:41:12Z</time>
      </trkpt>
      <trkpt lat="43.49231" lon="6.18638">
        <ele>174.9</ele>
        <time>2024-03-27T15:41:13Z</time>
      </trkpt>
      <trkpt lat="43.49232" lon="6.18637">
        <ele>174.9</ele>
        <time>2024-03-27T15:41:14Z</time>
      </trkpt>
      <trkpt lat="43.49233" lon="6.18635">
        <ele>174.9</ele>
        <time>2024-03-27T15:41:15Z</time>
      </trkpt>
      <trkpt lat="43.49233" lon="6.18633">
        <ele>174.8</ele>
        <time>2024-03-27T15:41:16Z</time>
      </trkpt>
      <trkpt lat="43.49233" lon="6.18632">
        <ele>174.8</ele>
        <time>2024-03-27T15:41:17Z</time>
      </trkpt>
      <trkpt lat="43.49233" lon="6.1863">
        <ele>174.7</ele>
        <time>2024-03-27T15:41:18Z</time>
      </trkpt>
      <trkpt lat="43.49234" lon="6.18628">
        <ele>174.7</ele>
        <time>2024-03-27T15:41:19Z</time>
      </trkpt>
      <trkpt lat="43.49234" lon="6.18626">
        <ele>174.7</ele>
        <time>2024-03-27T15:41:20Z</time>
      </trkpt>
      <trkpt lat="43.49233" lon="6.18625">
        <ele>174.6</ele>
        <time>2024-03-27T15:41:21Z</time>
      </trkpt>
      <trkpt lat="43.49233" lon="6.18623">
        <ele>174.6</ele>
        <time>2024-03-27T15:41:22Z</time>
      </trkpt>
      <trkpt lat="43.49233" lon="6.18621">
        <ele>174.5</ele>
        <time>2024-03-27T15:41:23Z</time>
      </trkpt>
      <trkpt lat="43.49232" lon="6.18619">
        <ele>174.4</ele>
        <time>2024-03-27T15:41:24Z</time>
      </trkpt>
      <trkpt lat="43.49232" lon="6.18618">
        <ele>174.3</ele>
        <time>2024-03-27T15:41:25Z</time>
      </trkpt>
      <trkpt lat="43.49232" lon="6.18616">
        <ele>174.2</ele>
        <time>2024-03-27T15:41:26Z</time>
      </trkpt>
      <trkpt lat="43.49232" lon="6.18614">
        <ele>174.1</ele>
        <time>2024-03-27T15:41:27Z</time>
      </trkpt>
      <trkpt lat="43.49231" lon="6.18612">
        <ele>174.1</ele>
        <time>2024-03-27T15:41:28Z</time>
      </trkpt>
      <trkpt lat="43.49231" lon="6.18611">
        <ele>174</ele>
        <time>2024-03-27T15:41:29Z</time>
      </trkpt>
      <trkpt lat="43.4923" lon="6.18609">
        <ele>173.9</ele>
        <time>2024-03-27T15:41:30Z</time>
      </trkpt>
      <trkpt lat="43.4923" lon="6.18608">
        <ele>173.7</ele>
        <time>2024-03-27T15:41:31Z</time>
      </trkpt>
      <trkpt lat="43.4923" lon="6.18607">
        <ele>173.7</ele>
        <time>2024-03-27T15:41:32Z</time>
      </trkpt>
      <trkpt lat="43.49231" lon="6.18605">
        <ele>173.7</ele>
        <time>2024-03-27T15:41:33Z</time>
      </trkpt>
      <trkpt lat="43.49231" lon="6.18602">
        <ele>173.7</ele>
        <time>2024-03-27T15:41:34Z</time>
      </trkpt>
      <trkpt lat="43.49231" lon="6.186">
        <ele>173.7</ele>
        <time>2024-03-27T15:41:35Z</time>
      </trkpt>
      <trkpt lat="43.4923" lon="6.18599">
        <ele>173.6</ele>
        <time>2024-03-27T15:41:36Z</time>
      </trkpt>
      <trkpt lat="43.4923" lon="6.18598">
        <ele>173.7</ele>
        <time>2024-03-27T15:41:37Z</time>
      </trkpt>
      <trkpt lat="43.4923" lon="6.18596">
        <ele>173.7</ele>
        <time>2024-03-27T15:41:38Z</time>
      </trkpt>
      <trkpt lat="43.4923" lon="6.18595">
        <ele>173.6</ele>
        <time>2024-03-27T15:41:39Z</time>
      </trkpt>
      <trkpt lat="43.4923" lon="6.18593">
        <ele>173.6</ele>
        <time>2024-03-27T15:41:40Z</time>
      </trkpt>
      <trkpt lat="43.49229" lon="6.18591">
        <ele>173.4</ele>
        <time>2024-03-27T15:41:41Z</time>
      </trkpt>
      <trkpt lat="43.4923" lon="6.18589">
        <ele>173.4</ele>
        <time>2024-03-27T15:41:42Z</time>
      </trkpt>
      <trkpt lat="43.4923" lon="6.18588">
        <ele>173.3</ele>
        <time>2024-03-27T15:41:43Z</time>
      </trkpt>
      <trkpt lat="43.4923" lon="6.18586">
        <ele>173.2</ele>
        <time>2024-03-27T15:41:44Z</time>
      </trkpt>
      <trkpt lat="43.49231" lon="6.18584">
        <ele>173.2</ele>
        <time>2024-03-27T15:41:45Z</time>
      </trkpt>
      <trkpt lat="43.49231" lon="6.18582">
        <ele>173.1</ele>
        <time>2024-03-27T15:41:46Z</time>
      </trkpt>
      <trkpt lat="43.49231" lon="6.18581">
        <ele>173.1</ele>
        <time>2024-03-27T15:41:47Z</time>
      </trkpt>
      <trkpt lat="43.4923" lon="6.18579">
        <ele>173.1</ele>
        <time>2024-03-27T15:41:48Z</time>
      </trkpt>
      <trkpt lat="43.49231" lon="6.18579">
        <ele>173.1</ele>
        <time>2024-03-27T15:41:49Z</time>
      </trkpt>
      <trkpt lat="43.49231" lon="6.18578">
        <ele>173</ele>
        <time>2024-03-27T15:41:50Z</time>
      </trkpt>
      <trkpt lat="43.49231" lon="6.18578">
        <ele>173</ele>
        <time>2024-03-27T15:41:51Z</time>
      </trkpt>
      <trkpt lat="43.49232" lon="6.18577">
        <ele>172.9</ele>
        <time>2024-03-27T15:41:52Z</time>
      </trkpt>
      <trkpt lat="43.49232" lon="6.18577">
        <ele>172.9</ele>
        <time>2024-03-27T15:41:53Z</time>
      </trkpt>
      <trkpt lat="43.49232" lon="6.18577">
        <ele>172.9</ele>
        <time>2024-03-27T15:41:54Z</time>
      </trkpt>
      <trkpt lat="43.49232" lon="6.18577">
        <ele>172.9</ele>
        <time>2024-03-27T15:41:55Z</time>
      </trkpt>
      <trkpt lat="43.49232" lon="6.18576">
        <ele>172.9</ele>
        <time>2024-03-27T15:41:56Z</time>
      </trkpt>
      <trkpt lat="43.49233" lon="6.18576">
        <ele>172.9</ele>
        <time>2024-03-27T15:41:57Z</time>
      </trkpt>
      <trkpt lat="43.49233" lon="6.18576">
        <ele>172.9</ele>
        <time>2024-03-27T15:41:58Z</time>
      </trkpt>
      <trkpt lat="43.49233" lon="6.18576">
        <ele>172.9</ele>
        <time>2024-03-27T15:41:59Z</time>
      </trkpt>
      <trkpt lat="43.49233" lon="6.18575">
        <ele>172.9</ele>
        <time>2024-03-27T15:42:00Z</time>
      </trkpt>
      <trkpt lat="43.49232" lon="6.18575">
        <ele>173</ele>
        <time>2024-03-27T15:42:01Z</time>
      </trkpt>
      <trkpt lat="43.49232" lon="6.18575">
        <ele>173</ele>
        <time>2024-03-27T15:42:02Z</time>
      </trkpt>
      <trkpt lat="43.49232" lon="6.18575">
        <ele>173.1</ele>
        <time>2024-03-27T15:42:03Z</time>
      </trkpt>
      <trkpt lat="43.49232" lon="6.18575">
        <ele>173.1</ele>
        <time>2024-03-27T15:42:04Z</time>
      </trkpt>
      <trkpt lat="43.49231" lon="6.18575">
        <ele>173.1</ele>
        <time>2024-03-27T15:42:05Z</time>
      </trkpt>
      <trkpt lat="43.49231" lon="6.18575">
        <ele>173.1</ele>
        <time>2024-03-27T15:42:06Z</time>
      </trkpt>
      <trkpt lat="43.49231" lon="6.18575">
        <ele>173.1</ele>
        <time>2024-03-27T15:42:07Z</time>
      </trkpt>
      <trkpt lat="43.49231" lon="6.18575">
        <ele>173</ele>
        <time>2024-03-27T15:42:08Z</time>
      </trkpt>
      <trkpt lat="43.49231" lon="6.18574">
        <ele>173</ele>
        <time>2024-03-27T15:42:09Z</time>
      </trkpt>
      <trkpt lat="43.49231" lon="6.18573">
        <ele>172.9</ele>
        <time>2024-03-27T15:42:10Z</time>
      </trkpt>
      <trkpt lat="43.49231" lon="6.18571">
        <ele>172.9</ele>
        <time>2024-03-27T15:42:11Z</time>
      </trkpt>
      <trkpt lat="43.4923" lon="6.1857">
        <ele>172.9</ele>
        <time>2024-03-27T15:42:12Z</time>
      </trkpt>
      <trkpt lat="43.4923" lon="6.18568">
        <ele>172.9</ele>
        <time>2024-03-27T15:42:13Z</time>
      </trkpt>
      <trkpt lat="43.4923" lon="6.18566">
        <ele>172.9</ele>
        <time>2024-03-27T15:42:14Z</time>
      </trkpt>
      <trkpt lat="43.4923" lon="6.18565">
        <ele>172.8</ele>
        <time>2024-03-27T15:42:15Z</time>
      </trkpt>
      <trkpt lat="43.4923" lon="6.18563">
        <ele>172.7</ele>
        <time>2024-03-27T15:42:16Z</time>
      </trkpt>
      <trkpt lat="43.4923" lon="6.18562">
        <ele>172.7</ele>
        <time>2024-03-27T15:42:17Z</time>
      </trkpt>
      <trkpt lat="43.49229" lon="6.1856">
        <ele>172.6</ele>
        <time>2024-03-27T15:42:18Z</time>
      </trkpt>
      <trkpt lat="43.4923" lon="6.18559">
        <ele>172.5</ele>
        <time>2024-03-27T15:42:19Z</time>
      </trkpt>
      <trkpt lat="43.4923" lon="6.18557">
        <ele>172.4</ele>
        <time>2024-03-27T15:42:20Z</time>
      </trkpt>
      <trkpt lat="43.4923" lon="6.18556">
        <ele>172.4</ele>
        <time>2024-03-27T15:42:21Z</time>
      </trkpt>
      <trkpt lat="43.4923" lon="6.18554">
        <ele>172.3</ele>
        <time>2024-03-27T15:42:22Z</time>
      </trkpt>
      <trkpt lat="43.4923" lon="6.18552">
        <ele>172.3</ele>
        <time>2024-03-27T15:42:23Z</time>
      </trkpt>
      <trkpt lat="43.4923" lon="6.18551">
        <ele>172.2</ele>
        <time>2024-03-27T15:42:24Z</time>
      </trkpt>
      <trkpt lat="43.4923" lon="6.18549">
        <ele>172.3</ele>
        <time>2024-03-27T15:42:25Z</time>
      </trkpt>
      <trkpt lat="43.4923" lon="6.18547">
        <ele>172.4</ele>
        <time>2024-03-27T15:42:26Z</time>
      </trkpt>
      <trkpt lat="43.4923" lon="6.18546">
        <ele>172.5</ele>
        <time>2024-03-27T15:42:27Z</time>
      </trkpt>
      <trkpt lat="43.4923" lon="6.18544">
        <ele>172.7</ele>
        <time>2024-03-27T15:42:28Z</time>
      </trkpt>
      <trkpt lat="43.4923" lon="6.18543">
        <ele>172.8</ele>
        <time>2024-03-27T15:42:29Z</time>
      </trkpt>
      <trkpt lat="43.4923" lon="6.18541">
        <ele>172.8</ele>
        <time>2024-03-27T15:42:30Z</time>
      </trkpt>
      <trkpt lat="43.49231" lon="6.1854">
        <ele>172.9</ele>
        <time>2024-03-27T15:42:31Z</time>
      </trkpt>
      <trkpt lat="43.49231" lon="6.18538">
        <ele>172.9</ele>
        <time>2024-03-27T15:42:32Z</time>
      </trkpt>
      <trkpt lat="43.49231" lon="6.18536">
        <ele>172.8</ele>
        <time>2024-03-27T15:42:33Z</time>
      </trkpt>
      <trkpt lat="43.49231" lon="6.18535">
        <ele>172.8</ele>
        <time>2024-03-27T15:42:34Z</time>
      </trkpt>
      <trkpt lat="43.49231" lon="6.18534">
        <ele>172.6</ele>
        <time>2024-03-27T15:42:35Z</time>
      </trkpt>
      <trkpt lat="43.49231" lon="6.18532">
        <ele>172.5</ele>
        <time>2024-03-27T15:42:36Z</time>
      </trkpt>
      <trkpt lat="43.49231" lon="6.18531">
        <ele>172.5</ele>
        <time>2024-03-27T15:42:37Z</time>
      </trkpt>
      <trkpt lat="43.49231" lon="6.18529">
        <ele>172.4</ele>
        <time>2024-03-27T15:42:38Z</time>
      </trkpt>
      <trkpt lat="43.49231" lon="6.18528">
        <ele>172.3</ele>
        <time>2024-03-27T15:42:39Z</time>
      </trkpt>
      <trkpt lat="43.49232" lon="6.18526">
        <ele>172.2</ele>
        <time>2024-03-27T15:42:40Z</time>
      </trkpt>
      <trkpt lat="43.49232" lon="6.18525">
        <ele>172.2</ele>
        <time>2024-03-27T15:42:41Z</time>
      </trkpt>
      <trkpt lat="43.49232" lon="6.18524">
        <ele>172.1</ele>
        <time>2024-03-27T15:42:42Z</time>
      </trkpt>
      <trkpt lat="43.49232" lon="6.18523">
        <ele>172.1</ele>
        <time>2024-03-27T15:42:43Z</time>
      </trkpt>
      <trkpt lat="43.49231" lon="6.18523">
        <ele>172</ele>
        <time>2024-03-27T15:42:44Z</time>
      </trkpt>
      <trkpt lat="43.49231" lon="6.18523">
        <ele>172.2</ele>
        <time>2024-03-27T15:42:45Z</time>
      </trkpt>
      <trkpt lat="43.49231" lon="6.18523">
        <ele>172.3</ele>
        <time>2024-03-27T15:42:46Z</time>
      </trkpt>
      <trkpt lat="43.4923" lon="6.18523">
        <ele>172.3</ele>
        <time>2024-03-27T15:42:47Z</time>
      </trkpt>
      <trkpt lat="43.4923" lon="6.18523">
        <ele>172.3</ele>
        <time>2024-03-27T15:42:48Z</time>
      </trkpt>
      <trkpt lat="43.4923" lon="6.18523">
        <ele>172.3</ele>
        <time>2024-03-27T15:42:49Z</time>
      </trkpt>
      <trkpt lat="43.4923" lon="6.18523">
        <ele>172.4</ele>
        <time>2024-03-27T15:42:50Z</time>
      </trkpt>
      <trkpt lat="43.4923" lon="6.18523">
        <ele>172.4</ele>
        <time>2024-03-27T15:42:51Z</time>
      </trkpt>
      <trkpt lat="43.4923" lon="6.18522">
        <ele>172.5</ele>
        <time>2024-03-27T15:42:52Z</time>
      </trkpt>
      <trkpt lat="43.4923" lon="6.18522">
        <ele>172.5</ele>
        <time>2024-03-27T15:42:53Z</time>
      </trkpt>
      <trkpt lat="43.4923" lon="6.18522">
        <ele>172.4</ele>
        <time>2024-03-27T15:42:54Z</time>
      </trkpt>
      <trkpt lat="43.4923" lon="6.18522">
        <ele>172.4</ele>
        <time>2024-03-27T15:42:55Z</time>
      </trkpt>
      <trkpt lat="43.4923" lon="6.18522">
        <ele>172.4</ele>
        <time>2024-03-27T15:42:56Z</time>
      </trkpt>
      <trkpt lat="43.4923" lon="6.18522">
        <ele>172.3</ele>
        <time>2024-03-27T15:42:57Z</time>
      </trkpt>
      <trkpt lat="43.4923" lon="6.18522">
        <ele>172.2</ele>
        <time>2024-03-27T15:42:58Z</time>
      </trkpt>
      <trkpt lat="43.49229" lon="6.18522">
        <ele>172.2</ele>
        <time>2024-03-27T15:42:59Z</time>
      </trkpt>
      <trkpt lat="43.49229" lon="6.18522">
        <ele>172.2</ele>
        <time>2024-03-27T15:43:00Z</time>
      </trkpt>
      <trkpt lat="43.49229" lon="6.18522">
        <ele>172.1</ele>
        <time>2024-03-27T15:43:01Z</time>
      </trkpt>
      <trkpt lat="43.49229" lon="6.18521">
        <ele>172.1</ele>
        <time>2024-03-27T15:43:02Z</time>
      </trkpt>
      <trkpt lat="43.49228" lon="6.18521">
        <ele>172.2</ele>
        <time>2024-03-27T15:43:03Z</time>
      </trkpt>
      <trkpt lat="43.49228" lon="6.18521">
        <ele>172.3</ele>
        <time>2024-03-27T15:43:04Z</time>
      </trkpt>
      <trkpt lat="43.49227" lon="6.18521">
        <ele>172.5</ele>
        <time>2024-03-27T15:43:05Z</time>
      </trkpt>
      <trkpt lat="43.49227" lon="6.1852">
        <ele>172.6</ele>
        <time>2024-03-27T15:43:06Z</time>
      </trkpt>
      <trkpt lat="43.49226" lon="6.1852">
        <ele>172.8</ele>
        <time>2024-03-27T15:43:07Z</time>
      </trkpt>
      <trkpt lat="43.49226" lon="6.1852">
        <ele>172.9</ele>
        <time>2024-03-27T15:43:08Z</time>
      </trkpt>
      <trkpt lat="43.49227" lon="6.18519">
        <ele>173</ele>
        <time>2024-03-27T15:43:09Z</time>
      </trkpt>
      <trkpt lat="43.49227" lon="6.18518">
        <ele>173.1</ele>
        <time>2024-03-27T15:43:10Z</time>
      </trkpt>
      <trkpt lat="43.49227" lon="6.18517">
        <ele>173.2</ele>
        <time>2024-03-27T15:43:11Z</time>
      </trkpt>
      <trkpt lat="43.49227" lon="6.18516">
        <ele>173.3</ele>
        <time>2024-03-27T15:43:12Z</time>
      </trkpt>
      <trkpt lat="43.49227" lon="6.18515">
        <ele>173.4</ele>
        <time>2024-03-27T15:43:13Z</time>
      </trkpt>
      <trkpt lat="43.49226" lon="6.18514">
        <ele>173.4</ele>
        <time>2024-03-27T15:43:14Z</time>
      </trkpt>
      <trkpt lat="43.49226" lon="6.18513">
        <ele>173.4</ele>
        <time>2024-03-27T15:43:15Z</time>
      </trkpt>
      <trkpt lat="43.49226" lon="6.18511">
        <ele>173.6</ele>
        <time>2024-03-27T15:43:16Z</time>
      </trkpt>
      <trkpt lat="43.49226" lon="6.1851">
        <ele>173.7</ele>
        <time>2024-03-27T15:43:17Z</time>
      </trkpt>
      <trkpt lat="43.49226" lon="6.18508">
        <ele>173.7</ele>
        <time>2024-03-27T15:43:18Z</time>
      </trkpt>
      <trkpt lat="43.49226" lon="6.18507">
        <ele>173.8</ele>
        <time>2024-03-27T15:43:19Z</time>
      </trkpt>
      <trkpt lat="43.49225" lon="6.18506">
        <ele>173.8</ele>
        <time>2024-03-27T15:43:20Z</time>
      </trkpt>
      <trkpt lat="43.49225" lon="6.18505">
        <ele>173.9</ele>
        <time>2024-03-27T15:43:21Z</time>
      </trkpt>
      <trkpt lat="43.49224" lon="6.18504">
        <ele>173.9</ele>
        <time>2024-03-27T15:43:22Z</time>
      </trkpt>
      <trkpt lat="43.49224" lon="6.18503">
        <ele>174</ele>
        <time>2024-03-27T15:43:23Z</time>
      </trkpt>
      <trkpt lat="43.49223" lon="6.18503">
        <ele>174.1</ele>
        <time>2024-03-27T15:43:24Z</time>
      </trkpt>
      <trkpt lat="43.49224" lon="6.18502">
        <ele>174.1</ele>
        <time>2024-03-27T15:43:25Z</time>
      </trkpt>
      <trkpt lat="43.49224" lon="6.18501">
        <ele>174.1</ele>
        <time>2024-03-27T15:43:26Z</time>
      </trkpt>
      <trkpt lat="43.49223" lon="6.185">
        <ele>174.2</ele>
        <time>2024-03-27T15:43:27Z</time>
      </trkpt>
      <trkpt lat="43.49223" lon="6.185">
        <ele>174.2</ele>
        <time>2024-03-27T15:43:28Z</time>
      </trkpt>
      <trkpt lat="43.49223" lon="6.185">
        <ele>174.4</ele>
        <time>2024-03-27T15:43:29Z</time>
      </trkpt>
      <trkpt lat="43.49222" lon="6.185">
        <ele>174.5</ele>
        <time>2024-03-27T15:43:30Z</time>
      </trkpt>
      <trkpt lat="43.49222" lon="6.185">
        <ele>174.6</ele>
        <time>2024-03-27T15:43:31Z</time>
      </trkpt>
      <trkpt lat="43.49222" lon="6.185">
        <ele>174.6</ele>
        <time>2024-03-27T15:43:32Z</time>
      </trkpt>
      <trkpt lat="43.49222" lon="6.185">
        <ele>174.7</ele>
        <time>2024-03-27T15:43:33Z</time>
      </trkpt>
      <trkpt lat="43.49221" lon="6.18499">
        <ele>174.7</ele>
        <time>2024-03-27T15:43:34Z</time>
      </trkpt>
      <trkpt lat="43.49221" lon="6.18499">
        <ele>174.7</ele>
        <time>2024-03-27T15:43:35Z</time>
      </trkpt>
      <trkpt lat="43.49221" lon="6.18499">
        <ele>174.6</ele>
        <time>2024-03-27T15:43:36Z</time>
      </trkpt>
      <trkpt lat="43.49221" lon="6.18499">
        <ele>174.6</ele>
        <time>2024-03-27T15:43:37Z</time>
      </trkpt>
      <trkpt lat="43.49221" lon="6.18499">
        <ele>174.6</ele>
        <time>2024-03-27T15:43:38Z</time>
      </trkpt>
      <trkpt lat="43.49221" lon="6.18499">
        <ele>174.6</ele>
        <time>2024-03-27T15:43:39Z</time>
      </trkpt>
      <trkpt lat="43.4922" lon="6.185">
        <ele>174.5</ele>
        <time>2024-03-27T15:43:40Z</time>
      </trkpt>
      <trkpt lat="43.4922" lon="6.18499">
        <ele>174.4</ele>
        <time>2024-03-27T15:43:41Z</time>
      </trkpt>
      <trkpt lat="43.4922" lon="6.18498">
        <ele>174.3</ele>
        <time>2024-03-27T15:43:42Z</time>
      </trkpt>
      <trkpt lat="43.4922" lon="6.18498">
        <ele>174.3</ele>
        <time>2024-03-27T15:43:43Z</time>
      </trkpt>
      <trkpt lat="43.4922" lon="6.18498">
        <ele>174.3</ele>
        <time>2024-03-27T15:43:44Z</time>
      </trkpt>
      <trkpt lat="43.4922" lon="6.18497">
        <ele>174.3</ele>
        <time>2024-03-27T15:43:45Z</time>
      </trkpt>
      <trkpt lat="43.4922" lon="6.18497">
        <ele>174.2</ele>
        <time>2024-03-27T15:43:46Z</time>
      </trkpt>
      <trkpt lat="43.4922" lon="6.18496">
        <ele>174.2</ele>
        <time>2024-03-27T15:43:47Z</time>
      </trkpt>
      <trkpt lat="43.4922" lon="6.18496">
        <ele>174.2</ele>
        <time>2024-03-27T15:43:48Z</time>
      </trkpt>
      <trkpt lat="43.49219" lon="6.18495">
        <ele>174.2</ele>
        <time>2024-03-27T15:43:49Z</time>
      </trkpt>
      <trkpt lat="43.4922" lon="6.18495">
        <ele>174.1</ele>
        <time>2024-03-27T15:43:50Z</time>
      </trkpt>
      <trkpt lat="43.4922" lon="6.18495">
        <ele>174.2</ele>
        <time>2024-03-27T15:43:51Z</time>
      </trkpt>
      <trkpt lat="43.4922" lon="6.18495">
        <ele>174.1</ele>
        <time>2024-03-27T15:43:52Z</time>
      </trkpt>
      <trkpt lat="43.4922" lon="6.18495">
        <ele>174.2</ele>
        <time>2024-03-27T15:43:53Z</time>
      </trkpt>
      <trkpt lat="43.4922" lon="6.18495">
        <ele>174.2</ele>
        <time>2024-03-27T15:43:54Z</time>
      </trkpt>
      <trkpt lat="43.4922" lon="6.18495">
        <ele>174.1</ele>
        <time>2024-03-27T15:43:55Z</time>
      </trkpt>
      <trkpt lat="43.4922" lon="6.18494">
        <ele>174.2</ele>
        <time>2024-03-27T15:43:56Z</time>
      </trkpt>
      <trkpt lat="43.4922" lon="6.18494">
        <ele>174.2</ele>
        <time>2024-03-27T15:43:57Z</time>
      </trkpt>
      <trkpt lat="43.4922" lon="6.18494">
        <ele>174.2</ele>
        <time>2024-03-27T15:43:58Z</time>
      </trkpt>
      <trkpt lat="43.4922" lon="6.18494">
        <ele>174.3</ele>
        <time>2024-03-27T15:43:59Z</time>
      </trkpt>
      <trkpt lat="43.4922" lon="6.18494">
        <ele>174.3</ele>
        <time>2024-03-27T15:44:00Z</time>
      </trkpt>
      <trkpt lat="43.4922" lon="6.18494">
        <ele>174.3</ele>
        <time>2024-03-27T15:44:01Z</time>
      </trkpt>
      <trkpt lat="43.4922" lon="6.18494">
        <ele>174.4</ele>
        <time>2024-03-27T15:44:02Z</time>
      </trkpt>
      <trkpt lat="43.4922" lon="6.18493">
        <ele>174.4</ele>
        <time>2024-03-27T15:44:03Z</time>
      </trkpt>
      <trkpt lat="43.4922" lon="6.18493">
        <ele>174.4</ele>
        <time>2024-03-27T15:44:04Z</time>
      </trkpt>
      <trkpt lat="43.4922" lon="6.18493">
        <ele>174.3</ele>
        <time>2024-03-27T15:44:05Z</time>
      </trkpt>
      <trkpt lat="43.4922" lon="6.18493">
        <ele>174.2</ele>
        <time>2024-03-27T15:44:06Z</time>
      </trkpt>
      <trkpt lat="43.4922" lon="6.18493">
        <ele>174.2</ele>
        <time>2024-03-27T15:44:07Z</time>
      </trkpt>
      <trkpt lat="43.4922" lon="6.18493">
        <ele>174.2</ele>
        <time>2024-03-27T15:44:08Z</time>
      </trkpt>
      <trkpt lat="43.4922" lon="6.18493">
        <ele>174.2</ele>
        <time>2024-03-27T15:44:09Z</time>
      </trkpt>
      <trkpt lat="43.4922" lon="6.18493">
        <ele>174.1</ele>
        <time>2024-03-27T15:44:10Z</time>
      </trkpt>
      <trkpt lat="43.49219" lon="6.18493">
        <ele>174</ele>
        <time>2024-03-27T15:44:11Z</time>
      </trkpt>
      <trkpt lat="43.49219" lon="6.18493">
        <ele>174</ele>
        <time>2024-03-27T15:44:12Z</time>
      </trkpt>
      <trkpt lat="43.49219" lon="6.18493">
        <ele>174</ele>
        <time>2024-03-27T15:44:13Z</time>
      </trkpt>
      <trkpt lat="43.49219" lon="6.18493">
        <ele>174</ele>
        <time>2024-03-27T15:44:14Z</time>
      </trkpt>
      <trkpt lat="43.49219" lon="6.18493">
        <ele>173.9</ele>
        <time>2024-03-27T15:44:15Z</time>
      </trkpt>
      <trkpt lat="43.49219" lon="6.18493">
        <ele>173.9</ele>
        <time>2024-03-27T15:44:16Z</time>
      </trkpt>
      <trkpt lat="43.49219" lon="6.18493">
        <ele>173.9</ele>
        <time>2024-03-27T15:44:17Z</time>
      </trkpt>
      <trkpt lat="43.49219" lon="6.18492">
        <ele>174</ele>
        <time>2024-03-27T15:44:18Z</time>
      </trkpt>
      <trkpt lat="43.49219" lon="6.18492">
        <ele>173.9</ele>
        <time>2024-03-27T15:44:19Z</time>
      </trkpt>
      <trkpt lat="43.49219" lon="6.18492">
        <ele>173.9</ele>
        <time>2024-03-27T15:44:20Z</time>
      </trkpt>
      <trkpt lat="43.49219" lon="6.18492">
        <ele>173.9</ele>
        <time>2024-03-27T15:44:21Z</time>
      </trkpt>
      <trkpt lat="43.49219" lon="6.18492">
        <ele>173.9</ele>
        <time>2024-03-27T15:44:22Z</time>
      </trkpt>
      <trkpt lat="43.49219" lon="6.18492">
        <ele>173.9</ele>
        <time>2024-03-27T15:44:23Z</time>
      </trkpt>
      <trkpt lat="43.49219" lon="6.18492">
        <ele>173.9</ele>
        <time>2024-03-27T15:44:24Z</time>
      </trkpt>
      <trkpt lat="43.49219" lon="6.18492">
        <ele>173.9</ele>
        <time>2024-03-27T15:44:25Z</time>
      </trkpt>
      <trkpt lat="43.49219" lon="6.18492">
        <ele>173.9</ele>
        <time>2024-03-27T15:44:26Z</time>
      </trkpt>
      <trkpt lat="43.49219" lon="6.18492">
        <ele>173.9</ele>
        <time>2024-03-27T15:44:27Z</time>
      </trkpt>
      <trkpt lat="43.49219" lon="6.18492">
        <ele>173.9</ele>
        <time>2024-03-27T15:44:28Z</time>
      </trkpt>
      <trkpt lat="43.49219" lon="6.18492">
        <ele>173.8</ele>
        <time>2024-03-27T15:44:29Z</time>
      </trkpt>
      <trkpt lat="43.49219" lon="6.18492">
        <ele>173.8</ele>
        <time>2024-03-27T15:44:30Z</time>
      </trkpt>
      <trkpt lat="43.49219" lon="6.18491">
        <ele>173.8</ele>
        <time>2024-03-27T15:44:31Z</time>
      </trkpt>
      <trkpt lat="43.49219" lon="6.18491">
        <ele>173.8</ele>
        <time>2024-03-27T15:44:32Z</time>
      </trkpt>
      <trkpt lat="43.49219" lon="6.18491">
        <ele>173.9</ele>
        <time>2024-03-27T15:44:33Z</time>
      </trkpt>
      <trkpt lat="43.49219" lon="6.18491">
        <ele>173.9</ele>
        <time>2024-03-27T15:44:34Z</time>
      </trkpt>
      <trkpt lat="43.4922" lon="6.18491">
        <ele>173.9</ele>
        <time>2024-03-27T15:44:35Z</time>
      </trkpt>
      <trkpt lat="43.49219" lon="6.1849">
        <ele>173.7</ele>
        <time>2024-03-27T15:44:36Z</time>
      </trkpt>
      <trkpt lat="43.49219" lon="6.1849">
        <ele>173.7</ele>
        <time>2024-03-27T15:44:37Z</time>
      </trkpt>
      <trkpt lat="43.49219" lon="6.1849">
        <ele>173.7</ele>
        <time>2024-03-27T15:44:38Z</time>
      </trkpt>
      <trkpt lat="43.49219" lon="6.1849">
        <ele>173.7</ele>
        <time>2024-03-27T15:44:39Z</time>
      </trkpt>
      <trkpt lat="43.4922" lon="6.1849">
        <ele>173.7</ele>
        <time>2024-03-27T15:44:40Z</time>
      </trkpt>
      <trkpt lat="43.4922" lon="6.1849">
        <ele>173.7</ele>
        <time>2024-03-27T15:44:41Z</time>
      </trkpt>
      <trkpt lat="43.4922" lon="6.1849">
        <ele>173.7</ele>
        <time>2024-03-27T15:44:42Z</time>
      </trkpt>
      <trkpt lat="43.4922" lon="6.1849">
        <ele>173.7</ele>
        <time>2024-03-27T15:44:43Z</time>
      </trkpt>
      <trkpt lat="43.4922" lon="6.1849">
        <ele>173.7</ele>
        <time>2024-03-27T15:44:44Z</time>
      </trkpt>
      <trkpt lat="43.4922" lon="6.18489">
        <ele>173.7</ele>
        <time>2024-03-27T15:44:45Z</time>
      </trkpt>
      <trkpt lat="43.4922" lon="6.18489">
        <ele>173.7</ele>
        <time>2024-03-27T15:44:46Z</time>
      </trkpt>
      <trkpt lat="43.4922" lon="6.18489">
        <ele>173.7</ele>
        <time>2024-03-27T15:44:47Z</time>
      </trkpt>
      <trkpt lat="43.4922" lon="6.18489">
        <ele>173.8</ele>
        <time>2024-03-27T15:44:48Z</time>
      </trkpt>
      <trkpt lat="43.4922" lon="6.18489">
        <ele>173.8</ele>
        <time>2024-03-27T15:44:49Z</time>
      </trkpt>
      <trkpt lat="43.4922" lon="6.18489">
        <ele>173.8</ele>
        <time>2024-03-27T15:44:50Z</time>
      </trkpt>
      <trkpt lat="43.4922" lon="6.18489">
        <ele>173.9</ele>
        <time>2024-03-27T15:44:51Z</time>
      </trkpt>
      <trkpt lat="43.4922" lon="6.1849">
        <ele>173.9</ele>
        <time>2024-03-27T15:44:52Z</time>
      </trkpt>
      <trkpt lat="43.4922" lon="6.1849">
        <ele>174</ele>
        <time>2024-03-27T15:44:53Z</time>
      </trkpt>
      <trkpt lat="43.4922" lon="6.1849">
        <ele>174</ele>
        <time>2024-03-27T15:44:54Z</time>
      </trkpt>
      <trkpt lat="43.4922" lon="6.1849">
        <ele>174</ele>
        <time>2024-03-27T15:44:55Z</time>
      </trkpt>
      <trkpt lat="43.4922" lon="6.18489">
        <ele>174</ele>
        <time>2024-03-27T15:44:56Z</time>
      </trkpt>
      <trkpt lat="43.4922" lon="6.1849">
        <ele>174.1</ele>
        <time>2024-03-27T15:44:57Z</time>
      </trkpt>
      <trkpt lat="43.4922" lon="6.18489">
        <ele>174.1</ele>
        <time>2024-03-27T15:44:58Z</time>
      </trkpt>
      <trkpt lat="43.4922" lon="6.18489">
        <ele>174.1</ele>
        <time>2024-03-27T15:44:59Z</time>
      </trkpt>
      <trkpt lat="43.4922" lon="6.18489">
        <ele>174.1</ele>
        <time>2024-03-27T15:45:00Z</time>
      </trkpt>
      <trkpt lat="43.4922" lon="6.18489">
        <ele>174.1</ele>
        <time>2024-03-27T15:45:01Z</time>
      </trkpt>
      <trkpt lat="43.49221" lon="6.18489">
        <ele>174.1</ele>
        <time>2024-03-27T15:45:02Z</time>
      </trkpt>
      <trkpt lat="43.49221" lon="6.18489">
        <ele>174</ele>
        <time>2024-03-27T15:45:03Z</time>
      </trkpt>
      <trkpt lat="43.49221" lon="6.18489">
        <ele>173.9</ele>
        <time>2024-03-27T15:45:04Z</time>
      </trkpt>
      <trkpt lat="43.49221" lon="6.18489">
        <ele>173.9</ele>
        <time>2024-03-27T15:45:05Z</time>
      </trkpt>
      <trkpt lat="43.49221" lon="6.18489">
        <ele>173.9</ele>
        <time>2024-03-27T15:45:06Z</time>
      </trkpt>
      <trkpt lat="43.49221" lon="6.18489">
        <ele>173.9</ele>
        <time>2024-03-27T15:45:07Z</time>
      </trkpt>
      <trkpt lat="43.49221" lon="6.18489">
        <ele>174</ele>
        <time>2024-03-27T15:45:08Z</time>
      </trkpt>
      <trkpt lat="43.49221" lon="6.18489">
        <ele>174</ele>
        <time>2024-03-27T15:45:09Z</time>
      </trkpt>
      <trkpt lat="43.49221" lon="6.18488">
        <ele>174</ele>
        <time>2024-03-27T15:45:10Z</time>
      </trkpt>
      <trkpt lat="43.49221" lon="6.18488">
        <ele>173.9</ele>
        <time>2024-03-27T15:45:11Z</time>
      </trkpt>
      <trkpt lat="43.49221" lon="6.18487">
        <ele>173.9</ele>
        <time>2024-03-27T15:45:12Z</time>
      </trkpt>
      <trkpt lat="43.49222" lon="6.18487">
        <ele>173.9</ele>
        <time>2024-03-27T15:45:13Z</time>
      </trkpt>
      <trkpt lat="43.49222" lon="6.18486">
        <ele>173.8</ele>
        <time>2024-03-27T15:45:14Z</time>
      </trkpt>
      <trkpt lat="43.49222" lon="6.18485">
        <ele>173.8</ele>
        <time>2024-03-27T15:45:15Z</time>
      </trkpt>
      <trkpt lat="43.49222" lon="6.18484">
        <ele>173.8</ele>
        <time>2024-03-27T15:45:16Z</time>
      </trkpt>
      <trkpt lat="43.49222" lon="6.18483">
        <ele>173.8</ele>
        <time>2024-03-27T15:45:17Z</time>
      </trkpt>
      <trkpt lat="43.49222" lon="6.18482">
        <ele>173.7</ele>
        <time>2024-03-27T15:45:18Z</time>
      </trkpt>
      <trkpt lat="43.49222" lon="6.18481">
        <ele>173.7</ele>
        <time>2024-03-27T15:45:19Z</time>
      </trkpt>
      <trkpt lat="43.49223" lon="6.1848">
        <ele>173.7</ele>
        <time>2024-03-27T15:45:20Z</time>
      </trkpt>
      <trkpt lat="43.49223" lon="6.18478">
        <ele>173.6</ele>
        <time>2024-03-27T15:45:21Z</time>
      </trkpt>
      <trkpt lat="43.49223" lon="6.18477">
        <ele>173.6</ele>
        <time>2024-03-27T15:45:22Z</time>
      </trkpt>
      <trkpt lat="43.49223" lon="6.18476">
        <ele>173.6</ele>
        <time>2024-03-27T15:45:23Z</time>
      </trkpt>
      <trkpt lat="43.49223" lon="6.18475">
        <ele>173.6</ele>
        <time>2024-03-27T15:45:24Z</time>
      </trkpt>
      <trkpt lat="43.49223" lon="6.18474">
        <ele>173.5</ele>
        <time>2024-03-27T15:45:25Z</time>
      </trkpt>
      <trkpt lat="43.49224" lon="6.18472">
        <ele>173.5</ele>
        <time>2024-03-27T15:45:26Z</time>
      </trkpt>
      <trkpt lat="43.49224" lon="6.18471">
        <ele>173.5</ele>
        <time>2024-03-27T15:45:27Z</time>
      </trkpt>
      <trkpt lat="43.49224" lon="6.1847">
        <ele>173.5</ele>
        <time>2024-03-27T15:45:28Z</time>
      </trkpt>
      <trkpt lat="43.49224" lon="6.18469">
        <ele>173.3</ele>
        <time>2024-03-27T15:45:29Z</time>
      </trkpt>
      <trkpt lat="43.49224" lon="6.18468">
        <ele>173.3</ele>
        <time>2024-03-27T15:45:30Z</time>
      </trkpt>
      <trkpt lat="43.49225" lon="6.18467">
        <ele>173.2</ele>
        <time>2024-03-27T15:45:31Z</time>
      </trkpt>
      <trkpt lat="43.49225" lon="6.18466">
        <ele>173.1</ele>
        <time>2024-03-27T15:45:32Z</time>
      </trkpt>
      <trkpt lat="43.49226" lon="6.18465">
        <ele>173</ele>
        <time>2024-03-27T15:45:33Z</time>
      </trkpt>
      <trkpt lat="43.49226" lon="6.18464">
        <ele>173</ele>
        <time>2024-03-27T15:45:34Z</time>
      </trkpt>
      <trkpt lat="43.49226" lon="6.18462">
        <ele>173</ele>
        <time>2024-03-27T15:45:35Z</time>
      </trkpt>
      <trkpt lat="43.49227" lon="6.18461">
        <ele>173</ele>
        <time>2024-03-27T15:45:36Z</time>
      </trkpt>
      <trkpt lat="43.49227" lon="6.1846">
        <ele>173</ele>
        <time>2024-03-27T15:45:37Z</time>
      </trkpt>
      <trkpt lat="43.49228" lon="6.18459">
        <ele>173</ele>
        <time>2024-03-27T15:45:38Z</time>
      </trkpt>
      <trkpt lat="43.49228" lon="6.18457">
        <ele>173</ele>
        <time>2024-03-27T15:45:39Z</time>
      </trkpt>
      <trkpt lat="43.49229" lon="6.18456">
        <ele>173</ele>
        <time>2024-03-27T15:45:40Z</time>
      </trkpt>
      <trkpt lat="43.4923" lon="6.18454">
        <ele>172.9</ele>
        <time>2024-03-27T15:45:41Z</time>
      </trkpt>
      <trkpt lat="43.4923" lon="6.18453">
        <ele>172.8</ele>
        <time>2024-03-27T15:45:42Z</time>
      </trkpt>
      <trkpt lat="43.49231" lon="6.18452">
        <ele>172.7</ele>
        <time>2024-03-27T15:45:43Z</time>
      </trkpt>
      <trkpt lat="43.49231" lon="6.1845">
        <ele>172.7</ele>
        <time>2024-03-27T15:45:44Z</time>
      </trkpt>
      <trkpt lat="43.4923" lon="6.18449">
        <ele>172.8</ele>
        <time>2024-03-27T15:45:45Z</time>
      </trkpt>
      <trkpt lat="43.49231" lon="6.18447">
        <ele>172.8</ele>
        <time>2024-03-27T15:45:46Z</time>
      </trkpt>
      <trkpt lat="43.4923" lon="6.18445">
        <ele>172.8</ele>
        <time>2024-03-27T15:45:47Z</time>
      </trkpt>
      <trkpt lat="43.4923" lon="6.18444">
        <ele>172.8</ele>
        <time>2024-03-27T15:45:48Z</time>
      </trkpt>
      <trkpt lat="43.49229" lon="6.18443">
        <ele>172.9</ele>
        <time>2024-03-27T15:45:49Z</time>
      </trkpt>
      <trkpt lat="43.49228" lon="6.18441">
        <ele>173</ele>
        <time>2024-03-27T15:45:50Z</time>
      </trkpt>
      <trkpt lat="43.49227" lon="6.1844">
        <ele>173.1</ele>
        <time>2024-03-27T15:45:51Z</time>
      </trkpt>
      <trkpt lat="43.49227" lon="6.18439">
        <ele>173.2</ele>
        <time>2024-03-27T15:45:52Z</time>
      </trkpt>
      <trkpt lat="43.49226" lon="6.18438">
        <ele>173.2</ele>
        <time>2024-03-27T15:45:53Z</time>
      </trkpt>
      <trkpt lat="43.49225" lon="6.18437">
        <ele>173.3</ele>
        <time>2024-03-27T15:45:54Z</time>
      </trkpt>
      <trkpt lat="43.49224" lon="6.18436">
        <ele>173.4</ele>
        <time>2024-03-27T15:45:55Z</time>
      </trkpt>
      <trkpt lat="43.49223" lon="6.18435">
        <ele>173.6</ele>
        <time>2024-03-27T15:45:56Z</time>
      </trkpt>
      <trkpt lat="43.49222" lon="6.18434">
        <ele>173.8</ele>
        <time>2024-03-27T15:45:57Z</time>
      </trkpt>
      <trkpt lat="43.49221" lon="6.18433">
        <ele>174.1</ele>
        <time>2024-03-27T15:45:58Z</time>
      </trkpt>
      <trkpt lat="43.4922" lon="6.18432">
        <ele>174.3</ele>
        <time>2024-03-27T15:45:59Z</time>
      </trkpt>
      <trkpt lat="43.49219" lon="6.18431">
        <ele>174.5</ele>
        <time>2024-03-27T15:46:00Z</time>
      </trkpt>
      <trkpt lat="43.49218" lon="6.18431">
        <ele>174.7</ele>
        <time>2024-03-27T15:46:01Z</time>
      </trkpt>
      <trkpt lat="43.49218" lon="6.1843">
        <ele>174.8</ele>
        <time>2024-03-27T15:46:02Z</time>
      </trkpt>
      <trkpt lat="43.49217" lon="6.18429">
        <ele>175.1</ele>
        <time>2024-03-27T15:46:03Z</time>
      </trkpt>
      <trkpt lat="43.49216" lon="6.18428">
        <ele>175.3</ele>
        <time>2024-03-27T15:46:04Z</time>
      </trkpt>
      <trkpt lat="43.49216" lon="6.18428">
        <ele>175.5</ele>
        <time>2024-03-27T15:46:05Z</time>
      </trkpt>
      <trkpt lat="43.49215" lon="6.18427">
        <ele>175.8</ele>
        <time>2024-03-27T15:46:06Z</time>
      </trkpt>
      <trkpt lat="43.49215" lon="6.18426">
        <ele>175.9</ele>
        <time>2024-03-27T15:46:07Z</time>
      </trkpt>
      <trkpt lat="43.49214" lon="6.18424">
        <ele>176</ele>
        <time>2024-03-27T15:46:08Z</time>
      </trkpt>
      <trkpt lat="43.49213" lon="6.18423">
        <ele>176.1</ele>
        <time>2024-03-27T15:46:09Z</time>
      </trkpt>
      <trkpt lat="43.49212" lon="6.18422">
        <ele>176.2</ele>
        <time>2024-03-27T15:46:10Z</time>
      </trkpt>
      <trkpt lat="43.4921" lon="6.18421">
        <ele>176.3</ele>
        <time>2024-03-27T15:46:11Z</time>
      </trkpt>
      <trkpt lat="43.49209" lon="6.1842">
        <ele>176.3</ele>
        <time>2024-03-27T15:46:12Z</time>
      </trkpt>
      <trkpt lat="43.49208" lon="6.1842">
        <ele>176.4</ele>
        <time>2024-03-27T15:46:13Z</time>
      </trkpt>
      <trkpt lat="43.49208" lon="6.1842">
        <ele>176.6</ele>
        <time>2024-03-27T15:46:14Z</time>
      </trkpt>
      <trkpt lat="43.49206" lon="6.18419">
        <ele>176.8</ele>
        <time>2024-03-27T15:46:15Z</time>
      </trkpt>
      <trkpt lat="43.49205" lon="6.18418">
        <ele>177</ele>
        <time>2024-03-27T15:46:16Z</time>
      </trkpt>
      <trkpt lat="43.49204" lon="6.18417">
        <ele>177.1</ele>
        <time>2024-03-27T15:46:17Z</time>
      </trkpt>
      <trkpt lat="43.49202" lon="6.18416">
        <ele>177</ele>
        <time>2024-03-27T15:46:18Z</time>
      </trkpt>
      <trkpt lat="43.49201" lon="6.18415">
        <ele>177.1</ele>
        <time>2024-03-27T15:46:19Z</time>
      </trkpt>
      <trkpt lat="43.492" lon="6.18413">
        <ele>177.2</ele>
        <time>2024-03-27T15:46:20Z</time>
      </trkpt>
      <trkpt lat="43.49199" lon="6.18412">
        <ele>177.3</ele>
        <time>2024-03-27T15:46:21Z</time>
      </trkpt>
      <trkpt lat="43.49198" lon="6.18411">
        <ele>177.3</ele>
        <time>2024-03-27T15:46:22Z</time>
      </trkpt>
      <trkpt lat="43.49196" lon="6.18411">
        <ele>177.4</ele>
        <time>2024-03-27T15:46:23Z</time>
      </trkpt>
      <trkpt lat="43.49195" lon="6.1841">
        <ele>177.5</ele>
        <time>2024-03-27T15:46:24Z</time>
      </trkpt>
      <trkpt lat="43.49194" lon="6.18409">
        <ele>177.5</ele>
        <time>2024-03-27T15:46:25Z</time>
      </trkpt>
      <trkpt lat="43.49193" lon="6.18409">
        <ele>177.6</ele>
        <time>2024-03-27T15:46:26Z</time>
      </trkpt>
      <trkpt lat="43.49192" lon="6.18409">
        <ele>177.7</ele>
        <time>2024-03-27T15:46:27Z</time>
      </trkpt>
      <trkpt lat="43.49191" lon="6.18408">
        <ele>177.9</ele>
        <time>2024-03-27T15:46:28Z</time>
      </trkpt>
      <trkpt lat="43.49191" lon="6.18407">
        <ele>178.1</ele>
        <time>2024-03-27T15:46:29Z</time>
      </trkpt>
      <trkpt lat="43.4919" lon="6.18406">
        <ele>178.4</ele>
        <time>2024-03-27T15:46:30Z</time>
      </trkpt>
      <trkpt lat="43.49189" lon="6.18406">
        <ele>178.5</ele>
        <time>2024-03-27T15:46:31Z</time>
      </trkpt>
      <trkpt lat="43.49189" lon="6.18404">
        <ele>178.7</ele>
        <time>2024-03-27T15:46:32Z</time>
      </trkpt>
      <trkpt lat="43.49187" lon="6.18403">
        <ele>178.9</ele>
        <time>2024-03-27T15:46:33Z</time>
      </trkpt>
      <trkpt lat="43.49186" lon="6.18402">
        <ele>179.1</ele>
        <time>2024-03-27T15:46:34Z</time>
      </trkpt>
      <trkpt lat="43.49185" lon="6.18401">
        <ele>179.3</ele>
        <time>2024-03-27T15:46:35Z</time>
      </trkpt>
      <trkpt lat="43.49184" lon="6.184">
        <ele>179.4</ele>
        <time>2024-03-27T15:46:36Z</time>
      </trkpt>
      <trkpt lat="43.49184" lon="6.18399">
        <ele>179.7</ele>
        <time>2024-03-27T15:46:37Z</time>
      </trkpt>
      <trkpt lat="43.49183" lon="6.18398">
        <ele>179.8</ele>
        <time>2024-03-27T15:46:38Z</time>
      </trkpt>
      <trkpt lat="43.49183" lon="6.18397">
        <ele>180.1</ele>
        <time>2024-03-27T15:46:39Z</time>
      </trkpt>
      <trkpt lat="43.49182" lon="6.18396">
        <ele>180.2</ele>
        <time>2024-03-27T15:46:40Z</time>
      </trkpt>
      <trkpt lat="43.49182" lon="6.18395">
        <ele>180.4</ele>
        <time>2024-03-27T15:46:41Z</time>
      </trkpt>
      <trkpt lat="43.49181" lon="6.18393">
        <ele>180.7</ele>
        <time>2024-03-27T15:46:42Z</time>
      </trkpt>
      <trkpt lat="43.4918" lon="6.18392">
        <ele>180.9</ele>
        <time>2024-03-27T15:46:43Z</time>
      </trkpt>
      <trkpt lat="43.49178" lon="6.18391">
        <ele>181</ele>
        <time>2024-03-27T15:46:44Z</time>
      </trkpt>
      <trkpt lat="43.49177" lon="6.1839">
        <ele>181.2</ele>
        <time>2024-03-27T15:46:45Z</time>
      </trkpt>
      <trkpt lat="43.49175" lon="6.18389">
        <ele>181.2</ele>
        <time>2024-03-27T15:46:46Z</time>
      </trkpt>
      <trkpt lat="43.49173" lon="6.18388">
        <ele>181.2</ele>
        <time>2024-03-27T15:46:47Z</time>
      </trkpt>
      <trkpt lat="43.49172" lon="6.18387">
        <ele>181.3</ele>
        <time>2024-03-27T15:46:48Z</time>
      </trkpt>
      <trkpt lat="43.4917" lon="6.18385">
        <ele>181.3</ele>
        <time>2024-03-27T15:46:49Z</time>
      </trkpt>
      <trkpt lat="43.49169" lon="6.18385">
        <ele>181.2</ele>
        <time>2024-03-27T15:46:50Z</time>
      </trkpt>
      <trkpt lat="43.49168" lon="6.18384">
        <ele>181.1</ele>
        <time>2024-03-27T15:46:51Z</time>
      </trkpt>
      <trkpt lat="43.49167" lon="6.18383">
        <ele>181.1</ele>
        <time>2024-03-27T15:46:52Z</time>
      </trkpt>
      <trkpt lat="43.49166" lon="6.18381">
        <ele>181</ele>
        <time>2024-03-27T15:46:53Z</time>
      </trkpt>
      <trkpt lat="43.49166" lon="6.18379">
        <ele>180.9</ele>
        <time>2024-03-27T15:46:54Z</time>
      </trkpt>
      <trkpt lat="43.49165" lon="6.18378">
        <ele>181</ele>
        <time>2024-03-27T15:46:55Z</time>
      </trkpt>
      <trkpt lat="43.49164" lon="6.18377">
        <ele>181</ele>
        <time>2024-03-27T15:46:56Z</time>
      </trkpt>
      <trkpt lat="43.49163" lon="6.18376">
        <ele>181.1</ele>
        <time>2024-03-27T15:46:57Z</time>
      </trkpt>
      <trkpt lat="43.49162" lon="6.18375">
        <ele>181.3</ele>
        <time>2024-03-27T15:46:58Z</time>
      </trkpt>
      <trkpt lat="43.49162" lon="6.18373">
        <ele>181.4</ele>
        <time>2024-03-27T15:46:59Z</time>
      </trkpt>
      <trkpt lat="43.49161" lon="6.18372">
        <ele>181.6</ele>
        <time>2024-03-27T15:47:00Z</time>
      </trkpt>
      <trkpt lat="43.49161" lon="6.18371">
        <ele>181.8</ele>
        <time>2024-03-27T15:47:01Z</time>
      </trkpt>
      <trkpt lat="43.4916" lon="6.1837">
        <ele>181.9</ele>
        <time>2024-03-27T15:47:02Z</time>
      </trkpt>
      <trkpt lat="43.49159" lon="6.18368">
        <ele>181.9</ele>
        <time>2024-03-27T15:47:03Z</time>
      </trkpt>
      <trkpt lat="43.49158" lon="6.18367">
        <ele>182</ele>
        <time>2024-03-27T15:47:04Z</time>
      </trkpt>
      <trkpt lat="43.49157" lon="6.18366">
        <ele>182</ele>
        <time>2024-03-27T15:47:05Z</time>
      </trkpt>
      <trkpt lat="43.49156" lon="6.18365">
        <ele>182</ele>
        <time>2024-03-27T15:47:06Z</time>
      </trkpt>
      <trkpt lat="43.49155" lon="6.18364">
        <ele>181.9</ele>
        <time>2024-03-27T15:47:07Z</time>
      </trkpt>
      <trkpt lat="43.49155" lon="6.18362">
        <ele>181.8</ele>
        <time>2024-03-27T15:47:08Z</time>
      </trkpt>
      <trkpt lat="43.49154" lon="6.18361">
        <ele>181.7</ele>
        <time>2024-03-27T15:47:09Z</time>
      </trkpt>
      <trkpt lat="43.49152" lon="6.1836">
        <ele>181.7</ele>
        <time>2024-03-27T15:47:10Z</time>
      </trkpt>
      <trkpt lat="43.49152" lon="6.18359">
        <ele>181.7</ele>
        <time>2024-03-27T15:47:11Z</time>
      </trkpt>
      <trkpt lat="43.49151" lon="6.18358">
        <ele>181.7</ele>
        <time>2024-03-27T15:47:12Z</time>
      </trkpt>
      <trkpt lat="43.4915" lon="6.18356">
        <ele>181.7</ele>
        <time>2024-03-27T15:47:13Z</time>
      </trkpt>
      <trkpt lat="43.49149" lon="6.18355">
        <ele>181.8</ele>
        <time>2024-03-27T15:47:14Z</time>
      </trkpt>
      <trkpt lat="43.49148" lon="6.18354">
        <ele>181.8</ele>
        <time>2024-03-27T15:47:15Z</time>
      </trkpt>
      <trkpt lat="43.49147" lon="6.18353">
        <ele>181.8</ele>
        <time>2024-03-27T15:47:16Z</time>
      </trkpt>
      <trkpt lat="43.49146" lon="6.18352">
        <ele>181.8</ele>
        <time>2024-03-27T15:47:17Z</time>
      </trkpt>
      <trkpt lat="43.49145" lon="6.18352">
        <ele>181.8</ele>
        <time>2024-03-27T15:47:18Z</time>
      </trkpt>
      <trkpt lat="43.49144" lon="6.18351">
        <ele>181.9</ele>
        <time>2024-03-27T15:47:19Z</time>
      </trkpt>
      <trkpt lat="43.49142" lon="6.1835">
        <ele>182</ele>
        <time>2024-03-27T15:47:20Z</time>
      </trkpt>
      <trkpt lat="43.49141" lon="6.1835">
        <ele>182</ele>
        <time>2024-03-27T15:47:21Z</time>
      </trkpt>
      <trkpt lat="43.4914" lon="6.18349">
        <ele>182</ele>
        <time>2024-03-27T15:47:22Z</time>
      </trkpt>
      <trkpt lat="43.49139" lon="6.18348">
        <ele>182.1</ele>
        <time>2024-03-27T15:47:23Z</time>
      </trkpt>
      <trkpt lat="43.49138" lon="6.18348">
        <ele>182.1</ele>
        <time>2024-03-27T15:47:24Z</time>
      </trkpt>
      <trkpt lat="43.49136" lon="6.18347">
        <ele>182.1</ele>
        <time>2024-03-27T15:47:25Z</time>
      </trkpt>
      <trkpt lat="43.49135" lon="6.18346">
        <ele>182.1</ele>
        <time>2024-03-27T15:47:26Z</time>
      </trkpt>
      <trkpt lat="43.49134" lon="6.18346">
        <ele>182.1</ele>
        <time>2024-03-27T15:47:27Z</time>
      </trkpt>
      <trkpt lat="43.49133" lon="6.18345">
        <ele>182.2</ele>
        <time>2024-03-27T15:47:28Z</time>
      </trkpt>
      <trkpt lat="43.49132" lon="6.18344">
        <ele>182.3</ele>
        <time>2024-03-27T15:47:29Z</time>
      </trkpt>
      <trkpt lat="43.49131" lon="6.18344">
        <ele>182.3</ele>
        <time>2024-03-27T15:47:30Z</time>
      </trkpt>
      <trkpt lat="43.4913" lon="6.18343">
        <ele>182.3</ele>
        <time>2024-03-27T15:47:31Z</time>
      </trkpt>
      <trkpt lat="43.49129" lon="6.18342">
        <ele>182.1</ele>
        <time>2024-03-27T15:47:32Z</time>
      </trkpt>
      <trkpt lat="43.49127" lon="6.18341">
        <ele>182</ele>
        <time>2024-03-27T15:47:33Z</time>
      </trkpt>
      <trkpt lat="43.49126" lon="6.1834">
        <ele>182</ele>
        <time>2024-03-27T15:47:34Z</time>
      </trkpt>
      <trkpt lat="43.49125" lon="6.1834">
        <ele>182.1</ele>
        <time>2024-03-27T15:47:35Z</time>
      </trkpt>
      <trkpt lat="43.49124" lon="6.18339">
        <ele>182.2</ele>
        <time>2024-03-27T15:47:36Z</time>
      </trkpt>
      <trkpt lat="43.49124" lon="6.18339">
        <ele>182.3</ele>
        <time>2024-03-27T15:47:37Z</time>
      </trkpt>
      <trkpt lat="43.49123" lon="6.18338">
        <ele>182.5</ele>
        <time>2024-03-27T15:47:38Z</time>
      </trkpt>
      <trkpt lat="43.49122" lon="6.18338">
        <ele>182.6</ele>
        <time>2024-03-27T15:47:39Z</time>
      </trkpt>
      <trkpt lat="43.49121" lon="6.18337">
        <ele>182.6</ele>
        <time>2024-03-27T15:47:40Z</time>
      </trkpt>
      <trkpt lat="43.4912" lon="6.18337">
        <ele>182.7</ele>
        <time>2024-03-27T15:47:41Z</time>
      </trkpt>
      <trkpt lat="43.49119" lon="6.18335">
        <ele>182.8</ele>
        <time>2024-03-27T15:47:42Z</time>
      </trkpt>
      <trkpt lat="43.49118" lon="6.18334">
        <ele>182.8</ele>
        <time>2024-03-27T15:47:43Z</time>
      </trkpt>
      <trkpt lat="43.49117" lon="6.18333">
        <ele>183</ele>
        <time>2024-03-27T15:47:44Z</time>
      </trkpt>
      <trkpt lat="43.49116" lon="6.18332">
        <ele>183.2</ele>
        <time>2024-03-27T15:47:45Z</time>
      </trkpt>
      <trkpt lat="43.49116" lon="6.18332">
        <ele>183.3</ele>
        <time>2024-03-27T15:47:46Z</time>
      </trkpt>
      <trkpt lat="43.49115" lon="6.18331">
        <ele>183.5</ele>
        <time>2024-03-27T15:47:47Z</time>
      </trkpt>
      <trkpt lat="43.49114" lon="6.18331">
        <ele>183.7</ele>
        <time>2024-03-27T15:47:48Z</time>
      </trkpt>
      <trkpt lat="43.49113" lon="6.18331">
        <ele>183.8</ele>
        <time>2024-03-27T15:47:49Z</time>
      </trkpt>
      <trkpt lat="43.49112" lon="6.1833">
        <ele>184</ele>
        <time>2024-03-27T15:47:50Z</time>
      </trkpt>
      <trkpt lat="43.49111" lon="6.1833">
        <ele>184.2</ele>
        <time>2024-03-27T15:47:51Z</time>
      </trkpt>
      <trkpt lat="43.4911" lon="6.18329">
        <ele>184.3</ele>
        <time>2024-03-27T15:47:52Z</time>
      </trkpt>
      <trkpt lat="43.49109" lon="6.18328">
        <ele>184.3</ele>
        <time>2024-03-27T15:47:53Z</time>
      </trkpt>
      <trkpt lat="43.49108" lon="6.18328">
        <ele>184.4</ele>
        <time>2024-03-27T15:47:54Z</time>
      </trkpt>
      <trkpt lat="43.49107" lon="6.18327">
        <ele>184.5</ele>
        <time>2024-03-27T15:47:55Z</time>
      </trkpt>
      <trkpt lat="43.49105" lon="6.18327">
        <ele>184.6</ele>
        <time>2024-03-27T15:47:56Z</time>
      </trkpt>
      <trkpt lat="43.49104" lon="6.18326">
        <ele>184.8</ele>
        <time>2024-03-27T15:47:57Z</time>
      </trkpt>
      <trkpt lat="43.49103" lon="6.18326">
        <ele>185</ele>
        <time>2024-03-27T15:47:58Z</time>
      </trkpt>
      <trkpt lat="43.49102" lon="6.18325">
        <ele>185.2</ele>
        <time>2024-03-27T15:47:59Z</time>
      </trkpt>
      <trkpt lat="43.49101" lon="6.18325">
        <ele>185.4</ele>
        <time>2024-03-27T15:48:00Z</time>
      </trkpt>
      <trkpt lat="43.49099" lon="6.18325">
        <ele>185.6</ele>
        <time>2024-03-27T15:48:01Z</time>
      </trkpt>
      <trkpt lat="43.49098" lon="6.18325">
        <ele>185.7</ele>
        <time>2024-03-27T15:48:02Z</time>
      </trkpt>
      <trkpt lat="43.49097" lon="6.18324">
        <ele>185.8</ele>
        <time>2024-03-27T15:48:03Z</time>
      </trkpt>
      <trkpt lat="43.49096" lon="6.18324">
        <ele>185.8</ele>
        <time>2024-03-27T15:48:04Z</time>
      </trkpt>
      <trkpt lat="43.49094" lon="6.18324">
        <ele>185.9</ele>
        <time>2024-03-27T15:48:05Z</time>
      </trkpt>
      <trkpt lat="43.49093" lon="6.18324">
        <ele>186</ele>
        <time>2024-03-27T15:48:06Z</time>
      </trkpt>
      <trkpt lat="43.49091" lon="6.18324">
        <ele>186.1</ele>
        <time>2024-03-27T15:48:07Z</time>
      </trkpt>
      <trkpt lat="43.4909" lon="6.18324">
        <ele>186.2</ele>
        <time>2024-03-27T15:48:08Z</time>
      </trkpt>
      <trkpt lat="43.49088" lon="6.18324">
        <ele>186.3</ele>
        <time>2024-03-27T15:48:09Z</time>
      </trkpt>
      <trkpt lat="43.49087" lon="6.18324">
        <ele>186.5</ele>
        <time>2024-03-27T15:48:10Z</time>
      </trkpt>
      <trkpt lat="43.49085" lon="6.18324">
        <ele>186.6</ele>
        <time>2024-03-27T15:48:11Z</time>
      </trkpt>
      <trkpt lat="43.49084" lon="6.18325">
        <ele>186.8</ele>
        <time>2024-03-27T15:48:12Z</time>
      </trkpt>
      <trkpt lat="43.49082" lon="6.18325">
        <ele>186.9</ele>
        <time>2024-03-27T15:48:13Z</time>
      </trkpt>
      <trkpt lat="43.49081" lon="6.18325">
        <ele>187</ele>
        <time>2024-03-27T15:48:14Z</time>
      </trkpt>
      <trkpt lat="43.4908" lon="6.18326">
        <ele>187.1</ele>
        <time>2024-03-27T15:48:15Z</time>
      </trkpt>
      <trkpt lat="43.49079" lon="6.18326">
        <ele>187.2</ele>
        <time>2024-03-27T15:48:16Z</time>
      </trkpt>
      <trkpt lat="43.49078" lon="6.18326">
        <ele>187.3</ele>
        <time>2024-03-27T15:48:17Z</time>
      </trkpt>
      <trkpt lat="43.49077" lon="6.18326">
        <ele>187.4</ele>
        <time>2024-03-27T15:48:18Z</time>
      </trkpt>
      <trkpt lat="43.49076" lon="6.18326">
        <ele>187.7</ele>
        <time>2024-03-27T15:48:19Z</time>
      </trkpt>
      <trkpt lat="43.49075" lon="6.18327">
        <ele>187.9</ele>
        <time>2024-03-27T15:48:20Z</time>
      </trkpt>
      <trkpt lat="43.49074" lon="6.18327">
        <ele>188.1</ele>
        <time>2024-03-27T15:48:21Z</time>
      </trkpt>
      <trkpt lat="43.49074" lon="6.18328">
        <ele>188.2</ele>
        <time>2024-03-27T15:48:22Z</time>
      </trkpt>
      <trkpt lat="43.49072" lon="6.18329">
        <ele>188.4</ele>
        <time>2024-03-27T15:48:23Z</time>
      </trkpt>
      <trkpt lat="43.49071" lon="6.18329">
        <ele>188.6</ele>
        <time>2024-03-27T15:48:24Z</time>
      </trkpt>
      <trkpt lat="43.4907" lon="6.1833">
        <ele>188.6</ele>
        <time>2024-03-27T15:48:25Z</time>
      </trkpt>
      <trkpt lat="43.49069" lon="6.1833">
        <ele>188.8</ele>
        <time>2024-03-27T15:48:26Z</time>
      </trkpt>
      <trkpt lat="43.49067" lon="6.18331">
        <ele>188.9</ele>
        <time>2024-03-27T15:48:27Z</time>
      </trkpt>
      <trkpt lat="43.49066" lon="6.18331">
        <ele>189.1</ele>
        <time>2024-03-27T15:48:28Z</time>
      </trkpt>
      <trkpt lat="43.49064" lon="6.18332">
        <ele>189.2</ele>
        <time>2024-03-27T15:48:29Z</time>
      </trkpt>
      <trkpt lat="43.49063" lon="6.18332">
        <ele>189.3</ele>
        <time>2024-03-27T15:48:30Z</time>
      </trkpt>
      <trkpt lat="43.4906" lon="6.18333">
        <ele>189.4</ele>
        <time>2024-03-27T15:48:31Z</time>
      </trkpt>
      <trkpt lat="43.49059" lon="6.18334">
        <ele>189.4</ele>
        <time>2024-03-27T15:48:32Z</time>
      </trkpt>
      <trkpt lat="43.49058" lon="6.18336">
        <ele>189.6</ele>
        <time>2024-03-27T15:48:33Z</time>
      </trkpt>
      <trkpt lat="43.49057" lon="6.18336">
        <ele>189.7</ele>
        <time>2024-03-27T15:48:34Z</time>
      </trkpt>
      <trkpt lat="43.49055" lon="6.18337">
        <ele>189.7</ele>
        <time>2024-03-27T15:48:35Z</time>
      </trkpt>
      <trkpt lat="43.49053" lon="6.18338">
        <ele>189.7</ele>
        <time>2024-03-27T15:48:36Z</time>
      </trkpt>
      <trkpt lat="43.49052" lon="6.1834">
        <ele>189.6</ele>
        <time>2024-03-27T15:48:37Z</time>
      </trkpt>
      <trkpt lat="43.49051" lon="6.18341">
        <ele>189.6</ele>
        <time>2024-03-27T15:48:38Z</time>
      </trkpt>
      <trkpt lat="43.4905" lon="6.18342">
        <ele>189.6</ele>
        <time>2024-03-27T15:48:39Z</time>
      </trkpt>
      <trkpt lat="43.49048" lon="6.18342">
        <ele>189.6</ele>
        <time>2024-03-27T15:48:40Z</time>
      </trkpt>
      <trkpt lat="43.49048" lon="6.18343">
        <ele>189.5</ele>
        <time>2024-03-27T15:48:41Z</time>
      </trkpt>
      <trkpt lat="43.49047" lon="6.18344">
        <ele>189.5</ele>
        <time>2024-03-27T15:48:42Z</time>
      </trkpt>
      <trkpt lat="43.49045" lon="6.18344">
        <ele>189.4</ele>
        <time>2024-03-27T15:48:43Z</time>
      </trkpt>
      <trkpt lat="43.49044" lon="6.18345">
        <ele>189.4</ele>
        <time>2024-03-27T15:48:44Z</time>
      </trkpt>
      <trkpt lat="43.49043" lon="6.18346">
        <ele>189.4</ele>
        <time>2024-03-27T15:48:45Z</time>
      </trkpt>
      <trkpt lat="43.49041" lon="6.18347">
        <ele>189.3</ele>
        <time>2024-03-27T15:48:46Z</time>
      </trkpt>
      <trkpt lat="43.4904" lon="6.18348">
        <ele>189.2</ele>
        <time>2024-03-27T15:48:47Z</time>
      </trkpt>
      <trkpt lat="43.49038" lon="6.18349">
        <ele>189.1</ele>
        <time>2024-03-27T15:48:48Z</time>
      </trkpt>
      <trkpt lat="43.49037" lon="6.1835">
        <ele>189.1</ele>
        <time>2024-03-27T15:48:49Z</time>
      </trkpt>
      <trkpt lat="43.49036" lon="6.18351">
        <ele>189.1</ele>
        <time>2024-03-27T15:48:50Z</time>
      </trkpt>
      <trkpt lat="43.49034" lon="6.18352">
        <ele>189</ele>
        <time>2024-03-27T15:48:51Z</time>
      </trkpt>
      <trkpt lat="43.49033" lon="6.18353">
        <ele>189.1</ele>
        <time>2024-03-27T15:48:52Z</time>
      </trkpt>
      <trkpt lat="43.49032" lon="6.18354">
        <ele>189.1</ele>
        <time>2024-03-27T15:48:53Z</time>
      </trkpt>
      <trkpt lat="43.49031" lon="6.18356">
        <ele>189.2</ele>
        <time>2024-03-27T15:48:54Z</time>
      </trkpt>
      <trkpt lat="43.4903" lon="6.18357">
        <ele>189.3</ele>
        <time>2024-03-27T15:48:55Z</time>
      </trkpt>
      <trkpt lat="43.49029" lon="6.18358">
        <ele>189.3</ele>
        <time>2024-03-27T15:48:56Z</time>
      </trkpt>
      <trkpt lat="43.49027" lon="6.1836">
        <ele>189.3</ele>
        <time>2024-03-27T15:48:57Z</time>
      </trkpt>
      <trkpt lat="43.49026" lon="6.18361">
        <ele>189.3</ele>
        <time>2024-03-27T15:48:58Z</time>
      </trkpt>
      <trkpt lat="43.49025" lon="6.18362">
        <ele>189.3</ele>
        <time>2024-03-27T15:48:59Z</time>
      </trkpt>
      <trkpt lat="43.49023" lon="6.18363">
        <ele>189.3</ele>
        <time>2024-03-27T15:49:00Z</time>
      </trkpt>
      <trkpt lat="43.49022" lon="6.18363">
        <ele>189.2</ele>
        <time>2024-03-27T15:49:01Z</time>
      </trkpt>
      <trkpt lat="43.4902" lon="6.18363">
        <ele>189.2</ele>
        <time>2024-03-27T15:49:02Z</time>
      </trkpt>
      <trkpt lat="43.49019" lon="6.18364">
        <ele>189.2</ele>
        <time>2024-03-27T15:49:03Z</time>
      </trkpt>
      <trkpt lat="43.49018" lon="6.18365">
        <ele>189.3</ele>
        <time>2024-03-27T15:49:04Z</time>
      </trkpt>
      <trkpt lat="43.49017" lon="6.18366">
        <ele>189.2</ele>
        <time>2024-03-27T15:49:05Z</time>
      </trkpt>
      <trkpt lat="43.49016" lon="6.18366">
        <ele>189.2</ele>
        <time>2024-03-27T15:49:06Z</time>
      </trkpt>
      <trkpt lat="43.49015" lon="6.18367">
        <ele>189.2</ele>
        <time>2024-03-27T15:49:07Z</time>
      </trkpt>
      <trkpt lat="43.49013" lon="6.18368">
        <ele>189.3</ele>
        <time>2024-03-27T15:49:08Z</time>
      </trkpt>
      <trkpt lat="43.49012" lon="6.18368">
        <ele>189.4</ele>
        <time>2024-03-27T15:49:09Z</time>
      </trkpt>
      <trkpt lat="43.49011" lon="6.18369">
        <ele>189.4</ele>
        <time>2024-03-27T15:49:10Z</time>
      </trkpt>
      <trkpt lat="43.4901" lon="6.1837">
        <ele>189.5</ele>
        <time>2024-03-27T15:49:11Z</time>
      </trkpt>
      <trkpt lat="43.49008" lon="6.1837">
        <ele>189.5</ele>
        <time>2024-03-27T15:49:12Z</time>
      </trkpt>
      <trkpt lat="43.49007" lon="6.1837">
        <ele>189.5</ele>
        <time>2024-03-27T15:49:13Z</time>
      </trkpt>
      <trkpt lat="43.49006" lon="6.1837">
        <ele>189.5</ele>
        <time>2024-03-27T15:49:14Z</time>
      </trkpt>
      <trkpt lat="43.49005" lon="6.18371">
        <ele>189.4</ele>
        <time>2024-03-27T15:49:15Z</time>
      </trkpt>
      <trkpt lat="43.49004" lon="6.18372">
        <ele>189.4</ele>
        <time>2024-03-27T15:49:16Z</time>
      </trkpt>
      <trkpt lat="43.49002" lon="6.18373">
        <ele>189.3</ele>
        <time>2024-03-27T15:49:17Z</time>
      </trkpt>
      <trkpt lat="43.49002" lon="6.18374">
        <ele>189.2</ele>
        <time>2024-03-27T15:49:18Z</time>
      </trkpt>
      <trkpt lat="43.49002" lon="6.18375">
        <ele>189.2</ele>
        <time>2024-03-27T15:49:19Z</time>
      </trkpt>
      <trkpt lat="43.49001" lon="6.18375">
        <ele>189.1</ele>
        <time>2024-03-27T15:49:20Z</time>
      </trkpt>
      <trkpt lat="43.49001" lon="6.18376">
        <ele>189.1</ele>
        <time>2024-03-27T15:49:21Z</time>
      </trkpt>
      <trkpt lat="43.49001" lon="6.18377">
        <ele>189.1</ele>
        <time>2024-03-27T15:49:22Z</time>
      </trkpt>
      <trkpt lat="43.49001" lon="6.18377">
        <ele>189</ele>
        <time>2024-03-27T15:49:23Z</time>
      </trkpt>
      <trkpt lat="43.49001" lon="6.18377">
        <ele>189</ele>
        <time>2024-03-27T15:49:24Z</time>
      </trkpt>
      <trkpt lat="43.49" lon="6.18377">
        <ele>189.1</ele>
        <time>2024-03-27T15:49:25Z</time>
      </trkpt>
      <trkpt lat="43.49" lon="6.18377">
        <ele>189.1</ele>
        <time>2024-03-27T15:49:26Z</time>
      </trkpt>
      <trkpt lat="43.49" lon="6.18378">
        <ele>189.1</ele>
        <time>2024-03-27T15:49:27Z</time>
      </trkpt>
      <trkpt lat="43.49" lon="6.18377">
        <ele>189.2</ele>
        <time>2024-03-27T15:49:28Z</time>
      </trkpt>
      <trkpt lat="43.49" lon="6.18377">
        <ele>189.2</ele>
        <time>2024-03-27T15:49:29Z</time>
      </trkpt>
      <trkpt lat="43.48999" lon="6.18378">
        <ele>189.2</ele>
        <time>2024-03-27T15:49:30Z</time>
      </trkpt>
      <trkpt lat="43.48999" lon="6.18378">
        <ele>189.2</ele>
        <time>2024-03-27T15:49:31Z</time>
      </trkpt>
      <trkpt lat="43.48999" lon="6.18379">
        <ele>189.3</ele>
        <time>2024-03-27T15:49:32Z</time>
      </trkpt>
      <trkpt lat="43.48999" lon="6.1838">
        <ele>189.4</ele>
        <time>2024-03-27T15:49:33Z</time>
      </trkpt>
      <trkpt lat="43.48999" lon="6.1838">
        <ele>189.4</ele>
        <time>2024-03-27T15:49:34Z</time>
      </trkpt>
      <trkpt lat="43.48998" lon="6.18381">
        <ele>189.4</ele>
        <time>2024-03-27T15:49:35Z</time>
      </trkpt>
      <trkpt lat="43.48998" lon="6.18381">
        <ele>189.4</ele>
        <time>2024-03-27T15:49:36Z</time>
      </trkpt>
      <trkpt lat="43.48998" lon="6.18382">
        <ele>189.4</ele>
        <time>2024-03-27T15:49:37Z</time>
      </trkpt>
      <trkpt lat="43.48999" lon="6.18382">
        <ele>189.2</ele>
        <time>2024-03-27T15:49:38Z</time>
      </trkpt>
      <trkpt lat="43.48998" lon="6.18382">
        <ele>189.1</ele>
        <time>2024-03-27T15:49:39Z</time>
      </trkpt>
      <trkpt lat="43.48998" lon="6.18382">
        <ele>189.1</ele>
        <time>2024-03-27T15:49:40Z</time>
      </trkpt>
      <trkpt lat="43.48998" lon="6.18382">
        <ele>189.1</ele>
        <time>2024-03-27T15:49:41Z</time>
      </trkpt>
      <trkpt lat="43.48998" lon="6.18382">
        <ele>189</ele>
        <time>2024-03-27T15:49:42Z</time>
      </trkpt>
      <trkpt lat="43.48998" lon="6.18383">
        <ele>189</ele>
        <time>2024-03-27T15:49:43Z</time>
      </trkpt>
      <trkpt lat="43.48998" lon="6.18384">
        <ele>189</ele>
        <time>2024-03-27T15:49:44Z</time>
      </trkpt>
      <trkpt lat="43.48997" lon="6.18384">
        <ele>189</ele>
        <time>2024-03-27T15:49:45Z</time>
      </trkpt>
      <trkpt lat="43.48997" lon="6.18384">
        <ele>189</ele>
        <time>2024-03-27T15:49:46Z</time>
      </trkpt>
      <trkpt lat="43.48997" lon="6.18385">
        <ele>189</ele>
        <time>2024-03-27T15:49:47Z</time>
      </trkpt>
      <trkpt lat="43.48997" lon="6.18385">
        <ele>189</ele>
        <time>2024-03-27T15:49:48Z</time>
      </trkpt>
      <trkpt lat="43.48996" lon="6.18386">
        <ele>189</ele>
        <time>2024-03-27T15:49:49Z</time>
      </trkpt>
      <trkpt lat="43.48996" lon="6.18386">
        <ele>189</ele>
        <time>2024-03-27T15:49:50Z</time>
      </trkpt>
      <trkpt lat="43.48996" lon="6.18386">
        <ele>188.9</ele>
        <time>2024-03-27T15:49:51Z</time>
      </trkpt>
      <trkpt lat="43.48996" lon="6.18386">
        <ele>189</ele>
        <time>2024-03-27T15:49:52Z</time>
      </trkpt>
      <trkpt lat="43.48995" lon="6.18387">
        <ele>189</ele>
        <time>2024-03-27T15:49:53Z</time>
      </trkpt>
      <trkpt lat="43.48995" lon="6.18387">
        <ele>189.1</ele>
        <time>2024-03-27T15:49:54Z</time>
      </trkpt>
      <trkpt lat="43.48995" lon="6.18387">
        <ele>189.1</ele>
        <time>2024-03-27T15:49:55Z</time>
      </trkpt>
      <trkpt lat="43.48995" lon="6.18388">
        <ele>189.2</ele>
        <time>2024-03-27T15:49:56Z</time>
      </trkpt>
      <trkpt lat="43.48995" lon="6.18388">
        <ele>189.2</ele>
        <time>2024-03-27T15:49:57Z</time>
      </trkpt>
      <trkpt lat="43.48995" lon="6.18388">
        <ele>189.3</ele>
        <time>2024-03-27T15:49:58Z</time>
      </trkpt>
      <trkpt lat="43.48995" lon="6.18389">
        <ele>189.3</ele>
        <time>2024-03-27T15:49:59Z</time>
      </trkpt>
      <trkpt lat="43.48994" lon="6.18389">
        <ele>189.3</ele>
        <time>2024-03-27T15:50:00Z</time>
      </trkpt>
      <trkpt lat="43.48994" lon="6.18389">
        <ele>189.3</ele>
        <time>2024-03-27T15:50:01Z</time>
      </trkpt>
      <trkpt lat="43.48994" lon="6.18389">
        <ele>189.3</ele>
        <time>2024-03-27T15:50:02Z</time>
      </trkpt>
      <trkpt lat="43.48994" lon="6.1839">
        <ele>189.3</ele>
        <time>2024-03-27T15:50:03Z</time>
      </trkpt>
      <trkpt lat="43.48993" lon="6.1839">
        <ele>189.3</ele>
        <time>2024-03-27T15:50:04Z</time>
      </trkpt>
      <trkpt lat="43.48993" lon="6.1839">
        <ele>189.3</ele>
        <time>2024-03-27T15:50:05Z</time>
      </trkpt>
      <trkpt lat="43.48993" lon="6.1839">
        <ele>189.3</ele>
        <time>2024-03-27T15:50:06Z</time>
      </trkpt>
      <trkpt lat="43.48992" lon="6.1839">
        <ele>189.2</ele>
        <time>2024-03-27T15:50:07Z</time>
      </trkpt>
      <trkpt lat="43.48992" lon="6.1839">
        <ele>189.2</ele>
        <time>2024-03-27T15:50:08Z</time>
      </trkpt>
      <trkpt lat="43.48992" lon="6.18391">
        <ele>189.2</ele>
        <time>2024-03-27T15:50:09Z</time>
      </trkpt>
      <trkpt lat="43.48992" lon="6.18391">
        <ele>189.2</ele>
        <time>2024-03-27T15:50:10Z</time>
      </trkpt>
      <trkpt lat="43.48992" lon="6.18391">
        <ele>189.2</ele>
        <time>2024-03-27T15:50:11Z</time>
      </trkpt>
      <trkpt lat="43.48992" lon="6.18391">
        <ele>189.3</ele>
        <time>2024-03-27T15:50:12Z</time>
      </trkpt>
      <trkpt lat="43.48992" lon="6.18391">
        <ele>189.3</ele>
        <time>2024-03-27T15:50:13Z</time>
      </trkpt>
      <trkpt lat="43.48992" lon="6.18391">
        <ele>189.3</ele>
        <time>2024-03-27T15:50:14Z</time>
      </trkpt>
      <trkpt lat="43.48992" lon="6.18391">
        <ele>189.3</ele>
        <time>2024-03-27T15:50:15Z</time>
      </trkpt>
      <trkpt lat="43.48992" lon="6.18392">
        <ele>189.2</ele>
        <time>2024-03-27T15:50:16Z</time>
      </trkpt>
      <trkpt lat="43.48991" lon="6.18392">
        <ele>189.2</ele>
        <time>2024-03-27T15:50:17Z</time>
      </trkpt>
      <trkpt lat="43.48991" lon="6.18392">
        <ele>189.2</ele>
        <time>2024-03-27T15:50:18Z</time>
      </trkpt>
      <trkpt lat="43.48991" lon="6.18392">
        <ele>189.2</ele>
        <time>2024-03-27T15:50:19Z</time>
      </trkpt>
      <trkpt lat="43.48991" lon="6.18392">
        <ele>189.1</ele>
        <time>2024-03-27T15:50:20Z</time>
      </trkpt>
      <trkpt lat="43.48991" lon="6.18392">
        <ele>189.1</ele>
        <time>2024-03-27T15:50:21Z</time>
      </trkpt>
      <trkpt lat="43.48991" lon="6.18392">
        <ele>189.1</ele>
        <time>2024-03-27T15:50:22Z</time>
      </trkpt>
      <trkpt lat="43.48991" lon="6.18392">
        <ele>189</ele>
        <time>2024-03-27T15:50:23Z</time>
      </trkpt>
      <trkpt lat="43.4899" lon="6.18393">
        <ele>189.1</ele>
        <time>2024-03-27T15:50:24Z</time>
      </trkpt>
      <trkpt lat="43.4899" lon="6.18393">
        <ele>189.1</ele>
        <time>2024-03-27T15:50:25Z</time>
      </trkpt>
      <trkpt lat="43.4899" lon="6.18393">
        <ele>189.1</ele>
        <time>2024-03-27T15:50:26Z</time>
      </trkpt>
      <trkpt lat="43.4899" lon="6.18394">
        <ele>189.2</ele>
        <time>2024-03-27T15:50:27Z</time>
      </trkpt>
      <trkpt lat="43.4899" lon="6.18394">
        <ele>189.2</ele>
        <time>2024-03-27T15:50:28Z</time>
      </trkpt>
      <trkpt lat="43.4899" lon="6.18394">
        <ele>189.2</ele>
        <time>2024-03-27T15:50:29Z</time>
      </trkpt>
      <trkpt lat="43.4899" lon="6.18394">
        <ele>189.3</ele>
        <time>2024-03-27T15:50:30Z</time>
      </trkpt>
      <trkpt lat="43.4899" lon="6.18395">
        <ele>189.2</ele>
        <time>2024-03-27T15:50:31Z</time>
      </trkpt>
      <trkpt lat="43.4899" lon="6.18395">
        <ele>189.2</ele>
        <time>2024-03-27T15:50:32Z</time>
      </trkpt>
      <trkpt lat="43.4899" lon="6.18395">
        <ele>189.2</ele>
        <time>2024-03-27T15:50:33Z</time>
      </trkpt>
      <trkpt lat="43.4899" lon="6.18395">
        <ele>189.2</ele>
        <time>2024-03-27T15:50:34Z</time>
      </trkpt>
      <trkpt lat="43.4899" lon="6.18395">
        <ele>189.1</ele>
        <time>2024-03-27T15:50:35Z</time>
      </trkpt>
      <trkpt lat="43.4899" lon="6.18396">
        <ele>189</ele>
        <time>2024-03-27T15:50:36Z</time>
      </trkpt>
      <trkpt lat="43.4899" lon="6.18396">
        <ele>188.9</ele>
        <time>2024-03-27T15:50:37Z</time>
      </trkpt>
      <trkpt lat="43.4899" lon="6.18396">
        <ele>188.9</ele>
        <time>2024-03-27T15:50:38Z</time>
      </trkpt>
      <trkpt lat="43.4899" lon="6.18396">
        <ele>188.9</ele>
        <time>2024-03-27T15:50:39Z</time>
      </trkpt>
      <trkpt lat="43.4899" lon="6.18396">
        <ele>188.8</ele>
        <time>2024-03-27T15:50:40Z</time>
      </trkpt>
      <trkpt lat="43.48989" lon="6.18396">
        <ele>188.8</ele>
        <time>2024-03-27T15:50:41Z</time>
      </trkpt>
      <trkpt lat="43.48989" lon="6.18397">
        <ele>188.8</ele>
        <time>2024-03-27T15:50:42Z</time>
      </trkpt>
      <trkpt lat="43.48989" lon="6.18397">
        <ele>188.8</ele>
        <time>2024-03-27T15:50:43Z</time>
      </trkpt>
      <trkpt lat="43.48989" lon="6.18397">
        <ele>188.9</ele>
        <time>2024-03-27T15:50:44Z</time>
      </trkpt>
      <trkpt lat="43.48989" lon="6.18397">
        <ele>188.9</ele>
        <time>2024-03-27T15:50:45Z</time>
      </trkpt>
      <trkpt lat="43.48989" lon="6.18397">
        <ele>189</ele>
        <time>2024-03-27T15:50:46Z</time>
      </trkpt>
      <trkpt lat="43.48989" lon="6.18397">
        <ele>189</ele>
        <time>2024-03-27T15:50:47Z</time>
      </trkpt>
      <trkpt lat="43.48989" lon="6.18397">
        <ele>189</ele>
        <time>2024-03-27T15:50:48Z</time>
      </trkpt>
      <trkpt lat="43.48989" lon="6.18398">
        <ele>189.1</ele>
        <time>2024-03-27T15:50:49Z</time>
      </trkpt>
      <trkpt lat="43.48989" lon="6.18398">
        <ele>189.1</ele>
        <time>2024-03-27T15:50:50Z</time>
      </trkpt>
      <trkpt lat="43.48989" lon="6.18398">
        <ele>189.2</ele>
        <time>2024-03-27T15:50:51Z</time>
      </trkpt>
      <trkpt lat="43.48989" lon="6.18398">
        <ele>189.2</ele>
        <time>2024-03-27T15:50:52Z</time>
      </trkpt>
      <trkpt lat="43.48989" lon="6.18398">
        <ele>189.3</ele>
        <time>2024-03-27T15:50:53Z</time>
      </trkpt>
      <trkpt lat="43.48989" lon="6.18397">
        <ele>189.3</ele>
        <time>2024-03-27T15:50:54Z</time>
      </trkpt>
      <trkpt lat="43.48989" lon="6.18397">
        <ele>189.4</ele>
        <time>2024-03-27T15:50:55Z</time>
      </trkpt>
      <trkpt lat="43.48989" lon="6.18397">
        <ele>189.4</ele>
        <time>2024-03-27T15:50:56Z</time>
      </trkpt>
      <trkpt lat="43.48989" lon="6.18397">
        <ele>189.4</ele>
        <time>2024-03-27T15:50:57Z</time>
      </trkpt>
      <trkpt lat="43.48989" lon="6.18397">
        <ele>189.4</ele>
        <time>2024-03-27T15:50:58Z</time>
      </trkpt>
      <trkpt lat="43.48989" lon="6.18397">
        <ele>189.4</ele>
        <time>2024-03-27T15:50:59Z</time>
      </trkpt>
      <trkpt lat="43.48989" lon="6.18397">
        <ele>189.5</ele>
        <time>2024-03-27T15:51:00Z</time>
      </trkpt>
      <trkpt lat="43.48989" lon="6.18397">
        <ele>189.5</ele>
        <time>2024-03-27T15:51:01Z</time>
      </trkpt>
      <trkpt lat="43.48989" lon="6.18396">
        <ele>189.5</ele>
        <time>2024-03-27T15:51:02Z</time>
      </trkpt>
      <trkpt lat="43.48989" lon="6.18396">
        <ele>189.5</ele>
        <time>2024-03-27T15:51:03Z</time>
      </trkpt>
      <trkpt lat="43.48989" lon="6.18396">
        <ele>189.5</ele>
        <time>2024-03-27T15:51:04Z</time>
      </trkpt>
      <trkpt lat="43.48989" lon="6.18396">
        <ele>189.5</ele>
        <time>2024-03-27T15:51:05Z</time>
      </trkpt>
      <trkpt lat="43.48989" lon="6.18396">
        <ele>189.5</ele>
        <time>2024-03-27T15:51:06Z</time>
      </trkpt>
      <trkpt lat="43.48989" lon="6.18396">
        <ele>189.5</ele>
        <time>2024-03-27T15:51:07Z</time>
      </trkpt>
      <trkpt lat="43.48989" lon="6.18396">
        <ele>189.5</ele>
        <time>2024-03-27T15:51:08Z</time>
      </trkpt>
      <trkpt lat="43.48989" lon="6.18396">
        <ele>189.4</ele>
        <time>2024-03-27T15:51:09Z</time>
      </trkpt>
      <trkpt lat="43.4899" lon="6.18395">
        <ele>189.5</ele>
        <time>2024-03-27T15:51:10Z</time>
      </trkpt>
      <trkpt lat="43.4899" lon="6.18395">
        <ele>189.6</ele>
        <time>2024-03-27T15:51:11Z</time>
      </trkpt>
      <trkpt lat="43.4899" lon="6.18395">
        <ele>189.7</ele>
        <time>2024-03-27T15:51:12Z</time>
      </trkpt>
      <trkpt lat="43.4899" lon="6.18395">
        <ele>189.6</ele>
        <time>2024-03-27T15:51:13Z</time>
      </trkpt>
      <trkpt lat="43.4899" lon="6.18395">
        <ele>189.6</ele>
        <time>2024-03-27T15:51:14Z</time>
      </trkpt>
      <trkpt lat="43.4899" lon="6.18395">
        <ele>189.6</ele>
        <time>2024-03-27T15:51:15Z</time>
      </trkpt>
      <trkpt lat="43.4899" lon="6.18395">
        <ele>189.6</ele>
        <time>2024-03-27T15:51:16Z</time>
      </trkpt>
      <trkpt lat="43.4899" lon="6.18395">
        <ele>189.6</ele>
        <time>2024-03-27T15:51:17Z</time>
      </trkpt>
      <trkpt lat="43.4899" lon="6.18395">
        <ele>189.6</ele>
        <time>2024-03-27T15:51:18Z</time>
      </trkpt>
      <trkpt lat="43.4899" lon="6.18395">
        <ele>189.6</ele>
        <time>2024-03-27T15:51:19Z</time>
      </trkpt>
      <trkpt lat="43.4899" lon="6.18395">
        <ele>189.6</ele>
        <time>2024-03-27T15:51:20Z</time>
      </trkpt>
      <trkpt lat="43.4899" lon="6.18395">
        <ele>189.5</ele>
        <time>2024-03-27T15:51:21Z</time>
      </trkpt>
      <trkpt lat="43.4899" lon="6.18395">
        <ele>189.5</ele>
        <time>2024-03-27T15:51:22Z</time>
      </trkpt>
      <trkpt lat="43.4899" lon="6.18395">
        <ele>189.4</ele>
        <time>2024-03-27T15:51:23Z</time>
      </trkpt>
      <trkpt lat="43.4899" lon="6.18395">
        <ele>189.4</ele>
        <time>2024-03-27T15:51:24Z</time>
      </trkpt>
      <trkpt lat="43.4899" lon="6.18395">
        <ele>189.4</ele>
        <time>2024-03-27T15:51:25Z</time>
      </trkpt>
      <trkpt lat="43.4899" lon="6.18395">
        <ele>189.5</ele>
        <time>2024-03-27T15:51:26Z</time>
      </trkpt>
      <trkpt lat="43.4899" lon="6.18394">
        <ele>189.6</ele>
        <time>2024-03-27T15:51:27Z</time>
      </trkpt>
      <trkpt lat="43.4899" lon="6.18394">
        <ele>189.5</ele>
        <time>2024-03-27T15:51:28Z</time>
      </trkpt>
      <trkpt lat="43.4899" lon="6.18394">
        <ele>189.7</ele>
        <time>2024-03-27T15:51:29Z</time>
      </trkpt>
      <trkpt lat="43.4899" lon="6.18394">
        <ele>189.7</ele>
        <time>2024-03-27T15:51:30Z</time>
      </trkpt>
      <trkpt lat="43.4899" lon="6.18394">
        <ele>189.6</ele>
        <time>2024-03-27T15:51:31Z</time>
      </trkpt>
      <trkpt lat="43.4899" lon="6.18394">
        <ele>189.7</ele>
        <time>2024-03-27T15:51:32Z</time>
      </trkpt>
      <trkpt lat="43.4899" lon="6.18394">
        <ele>189.8</ele>
        <time>2024-03-27T15:51:33Z</time>
      </trkpt>
      <trkpt lat="43.4899" lon="6.18394">
        <ele>189.8</ele>
        <time>2024-03-27T15:51:34Z</time>
      </trkpt>
      <trkpt lat="43.4899" lon="6.18394">
        <ele>189.8</ele>
        <time>2024-03-27T15:51:35Z</time>
      </trkpt>
      <trkpt lat="43.4899" lon="6.18394">
        <ele>189.8</ele>
        <time>2024-03-27T15:51:36Z</time>
      </trkpt>
      <trkpt lat="43.4899" lon="6.18394">
        <ele>189.8</ele>
        <time>2024-03-27T15:51:37Z</time>
      </trkpt>
      <trkpt lat="43.48991" lon="6.18394">
        <ele>189.8</ele>
        <time>2024-03-27T15:51:38Z</time>
      </trkpt>
      <trkpt lat="43.48991" lon="6.18394">
        <ele>189.8</ele>
        <time>2024-03-27T15:51:39Z</time>
      </trkpt>
      <trkpt lat="43.48991" lon="6.18395">
        <ele>189.8</ele>
        <time>2024-03-27T15:51:40Z</time>
      </trkpt>
      <trkpt lat="43.48991" lon="6.18395">
        <ele>189.8</ele>
        <time>2024-03-27T15:51:41Z</time>
      </trkpt>
      <trkpt lat="43.48991" lon="6.18395">
        <ele>189.8</ele>
        <time>2024-03-27T15:51:42Z</time>
      </trkpt>
      <trkpt lat="43.48991" lon="6.18396">
        <ele>189.9</ele>
        <time>2024-03-27T15:51:43Z</time>
      </trkpt>
      <trkpt lat="43.48992" lon="6.18397">
        <ele>189.8</ele>
        <time>2024-03-27T15:51:44Z</time>
      </trkpt>
      <trkpt lat="43.48992" lon="6.18398">
        <ele>189.8</ele>
        <time>2024-03-27T15:51:45Z</time>
      </trkpt>
      <trkpt lat="43.48993" lon="6.18399">
        <ele>189.8</ele>
        <time>2024-03-27T15:51:46Z</time>
      </trkpt>
      <trkpt lat="43.48993" lon="6.184">
        <ele>189.7</ele>
        <time>2024-03-27T15:51:47Z</time>
      </trkpt>
      <trkpt lat="43.48993" lon="6.18402">
        <ele>189.7</ele>
        <time>2024-03-27T15:51:48Z</time>
      </trkpt>
      <trkpt lat="43.48994" lon="6.18403">
        <ele>189.7</ele>
        <time>2024-03-27T15:51:49Z</time>
      </trkpt>
      <trkpt lat="43.48994" lon="6.18404">
        <ele>189.7</ele>
        <time>2024-03-27T15:51:50Z</time>
      </trkpt>
      <trkpt lat="43.48995" lon="6.18406">
        <ele>189.8</ele>
        <time>2024-03-27T15:51:51Z</time>
      </trkpt>
      <trkpt lat="43.48996" lon="6.18407">
        <ele>189.8</ele>
        <time>2024-03-27T15:51:52Z</time>
      </trkpt>
      <trkpt lat="43.48997" lon="6.18409">
        <ele>189.8</ele>
        <time>2024-03-27T15:51:53Z</time>
      </trkpt>
      <trkpt lat="43.48997" lon="6.1841">
        <ele>189.8</ele>
        <time>2024-03-27T15:51:54Z</time>
      </trkpt>
      <trkpt lat="43.48998" lon="6.18411">
        <ele>189.7</ele>
        <time>2024-03-27T15:51:55Z</time>
      </trkpt>
      <trkpt lat="43.48998" lon="6.18413">
        <ele>189.7</ele>
        <time>2024-03-27T15:51:56Z</time>
      </trkpt>
      <trkpt lat="43.48999" lon="6.18413">
        <ele>189.7</ele>
        <time>2024-03-27T15:51:57Z</time>
      </trkpt>
      <trkpt lat="43.49" lon="6.18414">
        <ele>189.7</ele>
        <time>2024-03-27T15:51:58Z</time>
      </trkpt>
      <trkpt lat="43.49" lon="6.18415">
        <ele>189.7</ele>
        <time>2024-03-27T15:51:59Z</time>
      </trkpt>
      <trkpt lat="43.49001" lon="6.18416">
        <ele>189.7</ele>
        <time>2024-03-27T15:52:00Z</time>
      </trkpt>
      <trkpt lat="43.49001" lon="6.18417">
        <ele>189.7</ele>
        <time>2024-03-27T15:52:01Z</time>
      </trkpt>
      <trkpt lat="43.49002" lon="6.18418">
        <ele>189.7</ele>
        <time>2024-03-27T15:52:02Z</time>
      </trkpt>
      <trkpt lat="43.49002" lon="6.18419">
        <ele>189.7</ele>
        <time>2024-03-27T15:52:03Z</time>
      </trkpt>
      <trkpt lat="43.49002" lon="6.1842">
        <ele>189.7</ele>
        <time>2024-03-27T15:52:04Z</time>
      </trkpt>
      <trkpt lat="43.49003" lon="6.18421">
        <ele>189.7</ele>
        <time>2024-03-27T15:52:05Z</time>
      </trkpt>
      <trkpt lat="43.49003" lon="6.18423">
        <ele>189.7</ele>
        <time>2024-03-27T15:52:06Z</time>
      </trkpt>
      <trkpt lat="43.49003" lon="6.18424">
        <ele>189.7</ele>
        <time>2024-03-27T15:52:07Z</time>
      </trkpt>
      <trkpt lat="43.49003" lon="6.18425">
        <ele>189.7</ele>
        <time>2024-03-27T15:52:08Z</time>
      </trkpt>
      <trkpt lat="43.49003" lon="6.18426">
        <ele>189.8</ele>
        <time>2024-03-27T15:52:09Z</time>
      </trkpt>
      <trkpt lat="43.49003" lon="6.18427">
        <ele>189.8</ele>
        <time>2024-03-27T15:52:10Z</time>
      </trkpt>
      <trkpt lat="43.49004" lon="6.18429">
        <ele>189.9</ele>
        <time>2024-03-27T15:52:11Z</time>
      </trkpt>
      <trkpt lat="43.49004" lon="6.18431">
        <ele>190</ele>
        <time>2024-03-27T15:52:12Z</time>
      </trkpt>
      <trkpt lat="43.49005" lon="6.18432">
        <ele>190.1</ele>
        <time>2024-03-27T15:52:13Z</time>
      </trkpt>
      <trkpt lat="43.49005" lon="6.18433">
        <ele>190.2</ele>
        <time>2024-03-27T15:52:14Z</time>
      </trkpt>
      <trkpt lat="43.49005" lon="6.18434">
        <ele>190.3</ele>
        <time>2024-03-27T15:52:15Z</time>
      </trkpt>
      <trkpt lat="43.49005" lon="6.18436">
        <ele>190.3</ele>
        <time>2024-03-27T15:52:16Z</time>
      </trkpt>
      <trkpt lat="43.49005" lon="6.18437">
        <ele>190.3</ele>
        <time>2024-03-27T15:52:17Z</time>
      </trkpt>
      <trkpt lat="43.49006" lon="6.18439">
        <ele>190.4</ele>
        <time>2024-03-27T15:52:18Z</time>
      </trkpt>
      <trkpt lat="43.49006" lon="6.1844">
        <ele>190.5</ele>
        <time>2024-03-27T15:52:19Z</time>
      </trkpt>
      <trkpt lat="43.49006" lon="6.18442">
        <ele>190.5</ele>
        <time>2024-03-27T15:52:20Z</time>
      </trkpt>
      <trkpt lat="43.49006" lon="6.18443">
        <ele>190.4</ele>
        <time>2024-03-27T15:52:21Z</time>
      </trkpt>
      <trkpt lat="43.49007" lon="6.18444">
        <ele>190.5</ele>
        <time>2024-03-27T15:52:22Z</time>
      </trkpt>
      <trkpt lat="43.49007" lon="6.18445">
        <ele>190.6</ele>
        <time>2024-03-27T15:52:23Z</time>
      </trkpt>
      <trkpt lat="43.49007" lon="6.18446">
        <ele>190.6</ele>
        <time>2024-03-27T15:52:24Z</time>
      </trkpt>
      <trkpt lat="43.49008" lon="6.18447">
        <ele>190.7</ele>
        <time>2024-03-27T15:52:25Z</time>
      </trkpt>
      <trkpt lat="43.49008" lon="6.18448">
        <ele>190.8</ele>
        <time>2024-03-27T15:52:26Z</time>
      </trkpt>
      <trkpt lat="43.49008" lon="6.1845">
        <ele>190.8</ele>
        <time>2024-03-27T15:52:27Z</time>
      </trkpt>
      <trkpt lat="43.49009" lon="6.18451">
        <ele>190.9</ele>
        <time>2024-03-27T15:52:28Z</time>
      </trkpt>
      <trkpt lat="43.49009" lon="6.18452">
        <ele>190.9</ele>
        <time>2024-03-27T15:52:29Z</time>
      </trkpt>
      <trkpt lat="43.4901" lon="6.18453">
        <ele>191</ele>
        <time>2024-03-27T15:52:30Z</time>
      </trkpt>
      <trkpt lat="43.4901" lon="6.18454">
        <ele>191.2</ele>
        <time>2024-03-27T15:52:31Z</time>
      </trkpt>
      <trkpt lat="43.49011" lon="6.18455">
        <ele>191.3</ele>
        <time>2024-03-27T15:52:32Z</time>
      </trkpt>
      <trkpt lat="43.49011" lon="6.18455">
        <ele>191.3</ele>
        <time>2024-03-27T15:52:33Z</time>
      </trkpt>
      <trkpt lat="43.49011" lon="6.18456">
        <ele>191.5</ele>
        <time>2024-03-27T15:52:34Z</time>
      </trkpt>
      <trkpt lat="43.49012" lon="6.18457">
        <ele>191.7</ele>
        <time>2024-03-27T15:52:35Z</time>
      </trkpt>
      <trkpt lat="43.49012" lon="6.18459">
        <ele>191.8</ele>
        <time>2024-03-27T15:52:36Z</time>
      </trkpt>
      <trkpt lat="43.49013" lon="6.18461">
        <ele>191.9</ele>
        <time>2024-03-27T15:52:37Z</time>
      </trkpt>
      <trkpt lat="43.49013" lon="6.18462">
        <ele>191.9</ele>
        <time>2024-03-27T15:52:38Z</time>
      </trkpt>
      <trkpt lat="43.49014" lon="6.18464">
        <ele>192</ele>
        <time>2024-03-27T15:52:39Z</time>
      </trkpt>
      <trkpt lat="43.49014" lon="6.18465">
        <ele>192.1</ele>
        <time>2024-03-27T15:52:40Z</time>
      </trkpt>
      <trkpt lat="43.49015" lon="6.18466">
        <ele>192.2</ele>
        <time>2024-03-27T15:52:41Z</time>
      </trkpt>
      <trkpt lat="43.49015" lon="6.18467">
        <ele>192.4</ele>
        <time>2024-03-27T15:52:42Z</time>
      </trkpt>
      <trkpt lat="43.49015" lon="6.18468">
        <ele>192.5</ele>
        <time>2024-03-27T15:52:43Z</time>
      </trkpt>
      <trkpt lat="43.49015" lon="6.18469">
        <ele>192.7</ele>
        <time>2024-03-27T15:52:44Z</time>
      </trkpt>
      <trkpt lat="43.49016" lon="6.18471">
        <ele>192.9</ele>
        <time>2024-03-27T15:52:45Z</time>
      </trkpt>
      <trkpt lat="43.49017" lon="6.18472">
        <ele>192.9</ele>
        <time>2024-03-27T15:52:46Z</time>
      </trkpt>
      <trkpt lat="43.49017" lon="6.18473">
        <ele>193</ele>
        <time>2024-03-27T15:52:47Z</time>
      </trkpt>
      <trkpt lat="43.49018" lon="6.18474">
        <ele>193.1</ele>
        <time>2024-03-27T15:52:48Z</time>
      </trkpt>
      <trkpt lat="43.49018" lon="6.18475">
        <ele>193.1</ele>
        <time>2024-03-27T15:52:49Z</time>
      </trkpt>
      <trkpt lat="43.49018" lon="6.18476">
        <ele>193.3</ele>
        <time>2024-03-27T15:52:50Z</time>
      </trkpt>
      <trkpt lat="43.49019" lon="6.18478">
        <ele>193.4</ele>
        <time>2024-03-27T15:52:51Z</time>
      </trkpt>
      <trkpt lat="43.4902" lon="6.18479">
        <ele>193.3</ele>
        <time>2024-03-27T15:52:52Z</time>
      </trkpt>
      <trkpt lat="43.4902" lon="6.1848">
        <ele>193.3</ele>
        <time>2024-03-27T15:52:53Z</time>
      </trkpt>
      <trkpt lat="43.4902" lon="6.18481">
        <ele>193.4</ele>
        <time>2024-03-27T15:52:54Z</time>
      </trkpt>
      <trkpt lat="43.49021" lon="6.18482">
        <ele>193.4</ele>
        <time>2024-03-27T15:52:55Z</time>
      </trkpt>
      <trkpt lat="43.49022" lon="6.18484">
        <ele>193.5</ele>
        <time>2024-03-27T15:52:56Z</time>
      </trkpt>
      <trkpt lat="43.49023" lon="6.18487">
        <ele>193.7</ele>
        <time>2024-03-27T15:52:57Z</time>
      </trkpt>
      <trkpt lat="43.49024" lon="6.18489">
        <ele>193.8</ele>
        <time>2024-03-27T15:52:58Z</time>
      </trkpt>
      <trkpt lat="43.49025" lon="6.1849">
        <ele>194</ele>
        <time>2024-03-27T15:52:59Z</time>
      </trkpt>
      <trkpt lat="43.49025" lon="6.18492">
        <ele>194.1</ele>
        <time>2024-03-27T15:53:00Z</time>
      </trkpt>
      <trkpt lat="43.49026" lon="6.18494">
        <ele>194.2</ele>
        <time>2024-03-27T15:53:01Z</time>
      </trkpt>
      <trkpt lat="43.49027" lon="6.18495">
        <ele>194.3</ele>
        <time>2024-03-27T15:53:02Z</time>
      </trkpt>
      <trkpt lat="43.49028" lon="6.18496">
        <ele>194.4</ele>
        <time>2024-03-27T15:53:03Z</time>
      </trkpt>
      <trkpt lat="43.49029" lon="6.18498">
        <ele>194.5</ele>
        <time>2024-03-27T15:53:04Z</time>
      </trkpt>
      <trkpt lat="43.4903" lon="6.185">
        <ele>194.6</ele>
        <time>2024-03-27T15:53:05Z</time>
      </trkpt>
      <trkpt lat="43.49031" lon="6.18501">
        <ele>194.7</ele>
        <time>2024-03-27T15:53:06Z</time>
      </trkpt>
      <trkpt lat="43.49032" lon="6.18503">
        <ele>194.8</ele>
        <time>2024-03-27T15:53:07Z</time>
      </trkpt>
      <trkpt lat="43.49032" lon="6.18504">
        <ele>194.8</ele>
        <time>2024-03-27T15:53:08Z</time>
      </trkpt>
      <trkpt lat="43.49033" lon="6.18506">
        <ele>195</ele>
        <time>2024-03-27T15:53:09Z</time>
      </trkpt>
      <trkpt lat="43.49034" lon="6.18507">
        <ele>195.2</ele>
        <time>2024-03-27T15:53:10Z</time>
      </trkpt>
      <trkpt lat="43.49035" lon="6.18508">
        <ele>195.2</ele>
        <time>2024-03-27T15:53:11Z</time>
      </trkpt>
      <trkpt lat="43.49037" lon="6.18509">
        <ele>195.3</ele>
        <time>2024-03-27T15:53:12Z</time>
      </trkpt>
      <trkpt lat="43.49037" lon="6.18509">
        <ele>195.4</ele>
        <time>2024-03-27T15:53:13Z</time>
      </trkpt>
      <trkpt lat="43.49038" lon="6.18511">
        <ele>195.6</ele>
        <time>2024-03-27T15:53:14Z</time>
      </trkpt>
      <trkpt lat="43.49038" lon="6.18512">
        <ele>195.6</ele>
        <time>2024-03-27T15:53:15Z</time>
      </trkpt>
      <trkpt lat="43.49039" lon="6.18514">
        <ele>195.6</ele>
        <time>2024-03-27T15:53:16Z</time>
      </trkpt>
      <trkpt lat="43.4904" lon="6.18515">
        <ele>195.7</ele>
        <time>2024-03-27T15:53:17Z</time>
      </trkpt>
      <trkpt lat="43.49042" lon="6.18516">
        <ele>195.7</ele>
        <time>2024-03-27T15:53:18Z</time>
      </trkpt>
      <trkpt lat="43.49043" lon="6.18518">
        <ele>195.8</ele>
        <time>2024-03-27T15:53:19Z</time>
      </trkpt>
      <trkpt lat="43.49045" lon="6.18519">
        <ele>195.9</ele>
        <time>2024-03-27T15:53:20Z</time>
      </trkpt>
      <trkpt lat="43.49046" lon="6.1852">
        <ele>195.9</ele>
        <time>2024-03-27T15:53:21Z</time>
      </trkpt>
      <trkpt lat="43.49048" lon="6.1852">
        <ele>195.9</ele>
        <time>2024-03-27T15:53:22Z</time>
      </trkpt>
      <trkpt lat="43.49049" lon="6.18521">
        <ele>195.9</ele>
        <time>2024-03-27T15:53:23Z</time>
      </trkpt>
      <trkpt lat="43.4905" lon="6.18522">
        <ele>195.9</ele>
        <time>2024-03-27T15:53:24Z</time>
      </trkpt>
      <trkpt lat="43.49052" lon="6.18522">
        <ele>195.8</ele>
        <time>2024-03-27T15:53:25Z</time>
      </trkpt>
      <trkpt lat="43.49053" lon="6.18523">
        <ele>195.7</ele>
        <time>2024-03-27T15:53:26Z</time>
      </trkpt>
      <trkpt lat="43.49054" lon="6.18524">
        <ele>195.7</ele>
        <time>2024-03-27T15:53:27Z</time>
      </trkpt>
      <trkpt lat="43.49055" lon="6.18525">
        <ele>195.6</ele>
        <time>2024-03-27T15:53:28Z</time>
      </trkpt>
      <trkpt lat="43.49055" lon="6.18526">
        <ele>195.5</ele>
        <time>2024-03-27T15:53:29Z</time>
      </trkpt>
      <trkpt lat="43.49056" lon="6.18528">
        <ele>195.5</ele>
        <time>2024-03-27T15:53:30Z</time>
      </trkpt>
      <trkpt lat="43.49057" lon="6.18529">
        <ele>195.4</ele>
        <time>2024-03-27T15:53:31Z</time>
      </trkpt>
      <trkpt lat="43.49058" lon="6.1853">
        <ele>195.4</ele>
        <time>2024-03-27T15:53:32Z</time>
      </trkpt>
      <trkpt lat="43.49059" lon="6.18532">
        <ele>195.3</ele>
        <time>2024-03-27T15:53:33Z</time>
      </trkpt>
      <trkpt lat="43.4906" lon="6.18534">
        <ele>195.3</ele>
        <time>2024-03-27T15:53:34Z</time>
      </trkpt>
      <trkpt lat="43.49061" lon="6.18536">
        <ele>195.3</ele>
        <time>2024-03-27T15:53:35Z</time>
      </trkpt>
      <trkpt lat="43.49061" lon="6.18537">
        <ele>195.3</ele>
        <time>2024-03-27T15:53:36Z</time>
      </trkpt>
      <trkpt lat="43.49062" lon="6.18539">
        <ele>195.2</ele>
        <time>2024-03-27T15:53:37Z</time>
      </trkpt>
      <trkpt lat="43.49062" lon="6.1854">
        <ele>195.1</ele>
        <time>2024-03-27T15:53:38Z</time>
      </trkpt>
      <trkpt lat="43.49063" lon="6.18542">
        <ele>195.1</ele>
        <time>2024-03-27T15:53:39Z</time>
      </trkpt>
      <trkpt lat="43.49063" lon="6.18544">
        <ele>195.1</ele>
        <time>2024-03-27T15:53:40Z</time>
      </trkpt>
      <trkpt lat="43.49064" lon="6.18545">
        <ele>195.2</ele>
        <time>2024-03-27T15:53:41Z</time>
      </trkpt>
      <trkpt lat="43.49065" lon="6.18547">
        <ele>195.2</ele>
        <time>2024-03-27T15:53:42Z</time>
      </trkpt>
      <trkpt lat="43.49066" lon="6.18549">
        <ele>195.2</ele>
        <time>2024-03-27T15:53:43Z</time>
      </trkpt>
      <trkpt lat="43.49067" lon="6.18551">
        <ele>195.2</ele>
        <time>2024-03-27T15:53:44Z</time>
      </trkpt>
      <trkpt lat="43.49068" lon="6.18552">
        <ele>195.4</ele>
        <time>2024-03-27T15:53:45Z</time>
      </trkpt>
      <trkpt lat="43.49069" lon="6.18554">
        <ele>195.4</ele>
        <time>2024-03-27T15:53:46Z</time>
      </trkpt>
      <trkpt lat="43.49069" lon="6.18555">
        <ele>195.4</ele>
        <time>2024-03-27T15:53:47Z</time>
      </trkpt>
      <trkpt lat="43.4907" lon="6.18557">
        <ele>195.4</ele>
        <time>2024-03-27T15:53:48Z</time>
      </trkpt>
      <trkpt lat="43.4907" lon="6.18558">
        <ele>195.4</ele>
        <time>2024-03-27T15:53:49Z</time>
      </trkpt>
      <trkpt lat="43.4907" lon="6.18559">
        <ele>195.4</ele>
        <time>2024-03-27T15:53:50Z</time>
      </trkpt>
      <trkpt lat="43.4907" lon="6.1856">
        <ele>195.5</ele>
        <time>2024-03-27T15:53:51Z</time>
      </trkpt>
      <trkpt lat="43.49071" lon="6.18561">
        <ele>195.5</ele>
        <time>2024-03-27T15:53:52Z</time>
      </trkpt>
      <trkpt lat="43.49071" lon="6.18563">
        <ele>195.5</ele>
        <time>2024-03-27T15:53:53Z</time>
      </trkpt>
      <trkpt lat="43.49072" lon="6.18564">
        <ele>195.6</ele>
        <time>2024-03-27T15:53:54Z</time>
      </trkpt>
      <trkpt lat="43.49073" lon="6.18565">
        <ele>195.6</ele>
        <time>2024-03-27T15:53:55Z</time>
      </trkpt>
      <trkpt lat="43.49074" lon="6.18567">
        <ele>195.7</ele>
        <time>2024-03-27T15:53:56Z</time>
      </trkpt>
      <trkpt lat="43.49074" lon="6.18568">
        <ele>195.7</ele>
        <time>2024-03-27T15:53:57Z</time>
      </trkpt>
      <trkpt lat="43.49075" lon="6.1857">
        <ele>195.8</ele>
        <time>2024-03-27T15:53:58Z</time>
      </trkpt>
      <trkpt lat="43.49076" lon="6.18572">
        <ele>195.8</ele>
        <time>2024-03-27T15:53:59Z</time>
      </trkpt>
      <trkpt lat="43.49077" lon="6.18573">
        <ele>195.9</ele>
        <time>2024-03-27T15:54:00Z</time>
      </trkpt>
      <trkpt lat="43.49078" lon="6.18574">
        <ele>195.9</ele>
        <time>2024-03-27T15:54:01Z</time>
      </trkpt>
      <trkpt lat="43.49079" lon="6.18575">
        <ele>195.9</ele>
        <time>2024-03-27T15:54:02Z</time>
      </trkpt>
      <trkpt lat="43.49079" lon="6.18576">
        <ele>195.9</ele>
        <time>2024-03-27T15:54:03Z</time>
      </trkpt>
      <trkpt lat="43.4908" lon="6.18577">
        <ele>195.9</ele>
        <time>2024-03-27T15:54:04Z</time>
      </trkpt>
      <trkpt lat="43.49081" lon="6.18577">
        <ele>196</ele>
        <time>2024-03-27T15:54:05Z</time>
      </trkpt>
      <trkpt lat="43.49082" lon="6.18579">
        <ele>196.1</ele>
        <time>2024-03-27T15:54:06Z</time>
      </trkpt>
      <trkpt lat="43.49083" lon="6.1858">
        <ele>196.1</ele>
        <time>2024-03-27T15:54:07Z</time>
      </trkpt>
      <trkpt lat="43.49083" lon="6.18582">
        <ele>196.1</ele>
        <time>2024-03-27T15:54:08Z</time>
      </trkpt>
      <trkpt lat="43.49084" lon="6.18583">
        <ele>196.2</ele>
        <time>2024-03-27T15:54:09Z</time>
      </trkpt>
      <trkpt lat="43.49085" lon="6.18585">
        <ele>196.2</ele>
        <time>2024-03-27T15:54:10Z</time>
      </trkpt>
      <trkpt lat="43.49085" lon="6.18587">
        <ele>196.2</ele>
        <time>2024-03-27T15:54:11Z</time>
      </trkpt>
      <trkpt lat="43.49085" lon="6.18588">
        <ele>196.2</ele>
        <time>2024-03-27T15:54:12Z</time>
      </trkpt>
      <trkpt lat="43.49085" lon="6.18589">
        <ele>196.3</ele>
        <time>2024-03-27T15:54:13Z</time>
      </trkpt>
      <trkpt lat="43.49086" lon="6.1859">
        <ele>196.3</ele>
        <time>2024-03-27T15:54:14Z</time>
      </trkpt>
      <trkpt lat="43.49086" lon="6.1859">
        <ele>196.4</ele>
        <time>2024-03-27T15:54:15Z</time>
      </trkpt>
      <trkpt lat="43.49086" lon="6.18591">
        <ele>196.4</ele>
        <time>2024-03-27T15:54:16Z</time>
      </trkpt>
      <trkpt lat="43.49087" lon="6.18593">
        <ele>196.4</ele>
        <time>2024-03-27T15:54:17Z</time>
      </trkpt>
      <trkpt lat="43.49087" lon="6.18594">
        <ele>196.4</ele>
        <time>2024-03-27T15:54:18Z</time>
      </trkpt>
      <trkpt lat="43.49088" lon="6.18595">
        <ele>196.3</ele>
        <time>2024-03-27T15:54:19Z</time>
      </trkpt>
      <trkpt lat="43.49088" lon="6.18597">
        <ele>196.3</ele>
        <time>2024-03-27T15:54:20Z</time>
      </trkpt>
      <trkpt lat="43.49088" lon="6.18599">
        <ele>196.3</ele>
        <time>2024-03-27T15:54:21Z</time>
      </trkpt>
      <trkpt lat="43.49089" lon="6.186">
        <ele>196.3</ele>
        <time>2024-03-27T15:54:22Z</time>
      </trkpt>
      <trkpt lat="43.49088" lon="6.18602">
        <ele>196.5</ele>
        <time>2024-03-27T15:54:23Z</time>
      </trkpt>
      <trkpt lat="43.49088" lon="6.18604">
        <ele>196.6</ele>
        <time>2024-03-27T15:54:24Z</time>
      </trkpt>
      <trkpt lat="43.49088" lon="6.18605">
        <ele>196.6</ele>
        <time>2024-03-27T15:54:25Z</time>
      </trkpt>
      <trkpt lat="43.49088" lon="6.18607">
        <ele>196.7</ele>
        <time>2024-03-27T15:54:26Z</time>
      </trkpt>
      <trkpt lat="43.49089" lon="6.18608">
        <ele>196.8</ele>
        <time>2024-03-27T15:54:27Z</time>
      </trkpt>
      <trkpt lat="43.49089" lon="6.18609">
        <ele>196.8</ele>
        <time>2024-03-27T15:54:28Z</time>
      </trkpt>
      <trkpt lat="43.4909" lon="6.1861">
        <ele>197.1</ele>
        <time>2024-03-27T15:54:29Z</time>
      </trkpt>
      <trkpt lat="43.49091" lon="6.18611">
        <ele>197.2</ele>
        <time>2024-03-27T15:54:30Z</time>
      </trkpt>
      <trkpt lat="43.49092" lon="6.18612">
        <ele>197.2</ele>
        <time>2024-03-27T15:54:31Z</time>
      </trkpt>
      <trkpt lat="43.49092" lon="6.18614">
        <ele>197.2</ele>
        <time>2024-03-27T15:54:32Z</time>
      </trkpt>
      <trkpt lat="43.49092" lon="6.18616">
        <ele>197.3</ele>
        <time>2024-03-27T15:54:33Z</time>
      </trkpt>
      <trkpt lat="43.49093" lon="6.18617">
        <ele>197.3</ele>
        <time>2024-03-27T15:54:34Z</time>
      </trkpt>
      <trkpt lat="43.49094" lon="6.18618">
        <ele>197.3</ele>
        <time>2024-03-27T15:54:35Z</time>
      </trkpt>
      <trkpt lat="43.49096" lon="6.18619">
        <ele>197.4</ele>
        <time>2024-03-27T15:54:36Z</time>
      </trkpt>
      <trkpt lat="43.49097" lon="6.1862">
        <ele>197.3</ele>
        <time>2024-03-27T15:54:37Z</time>
      </trkpt>
      <trkpt lat="43.49098" lon="6.18621">
        <ele>197.3</ele>
        <time>2024-03-27T15:54:38Z</time>
      </trkpt>
      <trkpt lat="43.491" lon="6.18622">
        <ele>197.2</ele>
        <time>2024-03-27T15:54:39Z</time>
      </trkpt>
      <trkpt lat="43.49101" lon="6.18622">
        <ele>197.1</ele>
        <time>2024-03-27T15:54:40Z</time>
      </trkpt>
      <trkpt lat="43.49102" lon="6.18624">
        <ele>197</ele>
        <time>2024-03-27T15:54:41Z</time>
      </trkpt>
      <trkpt lat="43.49103" lon="6.18625">
        <ele>197</ele>
        <time>2024-03-27T15:54:42Z</time>
      </trkpt>
      <trkpt lat="43.49104" lon="6.18627">
        <ele>196.9</ele>
        <time>2024-03-27T15:54:43Z</time>
      </trkpt>
      <trkpt lat="43.49105" lon="6.18628">
        <ele>196.9</ele>
        <time>2024-03-27T15:54:44Z</time>
      </trkpt>
      <trkpt lat="43.49105" lon="6.1863">
        <ele>196.8</ele>
        <time>2024-03-27T15:54:45Z</time>
      </trkpt>
      <trkpt lat="43.49107" lon="6.1863">
        <ele>196.8</ele>
        <time>2024-03-27T15:54:46Z</time>
      </trkpt>
      <trkpt lat="43.49107" lon="6.18632">
        <ele>196.8</ele>
        <time>2024-03-27T15:54:47Z</time>
      </trkpt>
      <trkpt lat="43.49108" lon="6.18634">
        <ele>196.7</ele>
        <time>2024-03-27T15:54:48Z</time>
      </trkpt>
      <trkpt lat="43.49108" lon="6.18635">
        <ele>196.6</ele>
        <time>2024-03-27T15:54:49Z</time>
      </trkpt>
      <trkpt lat="43.49109" lon="6.18637">
        <ele>196.6</ele>
        <time>2024-03-27T15:54:50Z</time>
      </trkpt>
      <trkpt lat="43.4911" lon="6.18638">
        <ele>196.6</ele>
        <time>2024-03-27T15:54:51Z</time>
      </trkpt>
      <trkpt lat="43.49111" lon="6.1864">
        <ele>196.6</ele>
        <time>2024-03-27T15:54:52Z</time>
      </trkpt>
      <trkpt lat="43.49112" lon="6.18641">
        <ele>196.6</ele>
        <time>2024-03-27T15:54:53Z</time>
      </trkpt>
      <trkpt lat="43.49112" lon="6.18643">
        <ele>196.7</ele>
        <time>2024-03-27T15:54:54Z</time>
      </trkpt>
      <trkpt lat="43.49113" lon="6.18644">
        <ele>196.6</ele>
        <time>2024-03-27T15:54:55Z</time>
      </trkpt>
      <trkpt lat="43.49113" lon="6.18645">
        <ele>196.5</ele>
        <time>2024-03-27T15:54:56Z</time>
      </trkpt>
      <trkpt lat="43.49114" lon="6.18647">
        <ele>196.5</ele>
        <time>2024-03-27T15:54:57Z</time>
      </trkpt>
      <trkpt lat="43.49115" lon="6.18648">
        <ele>196.4</ele>
        <time>2024-03-27T15:54:58Z</time>
      </trkpt>
      <trkpt lat="43.49117" lon="6.18649">
        <ele>196.4</ele>
        <time>2024-03-27T15:54:59Z</time>
      </trkpt>
      <trkpt lat="43.49117" lon="6.18651">
        <ele>196.4</ele>
        <time>2024-03-27T15:55:00Z</time>
      </trkpt>
      <trkpt lat="43.49118" lon="6.18652">
        <ele>196.3</ele>
        <time>2024-03-27T15:55:01Z</time>
      </trkpt>
      <trkpt lat="43.49119" lon="6.18653">
        <ele>196.2</ele>
        <time>2024-03-27T15:55:02Z</time>
      </trkpt>
      <trkpt lat="43.4912" lon="6.18654">
        <ele>196.1</ele>
        <time>2024-03-27T15:55:03Z</time>
      </trkpt>
      <trkpt lat="43.49121" lon="6.18656">
        <ele>196</ele>
        <time>2024-03-27T15:55:04Z</time>
      </trkpt>
      <trkpt lat="43.49122" lon="6.18657">
        <ele>196</ele>
        <time>2024-03-27T15:55:05Z</time>
      </trkpt>
      <trkpt lat="43.49123" lon="6.18657">
        <ele>196</ele>
        <time>2024-03-27T15:55:06Z</time>
      </trkpt>
      <trkpt lat="43.49124" lon="6.18659">
        <ele>196</ele>
        <time>2024-03-27T15:55:07Z</time>
      </trkpt>
      <trkpt lat="43.49125" lon="6.18659">
        <ele>195.9</ele>
        <time>2024-03-27T15:55:08Z</time>
      </trkpt>
      <trkpt lat="43.49125" lon="6.18662">
        <ele>195.9</ele>
        <time>2024-03-27T15:55:09Z</time>
      </trkpt>
      <trkpt lat="43.49125" lon="6.18664">
        <ele>195.9</ele>
        <time>2024-03-27T15:55:10Z</time>
      </trkpt>
      <trkpt lat="43.49125" lon="6.18666">
        <ele>195.8</ele>
        <time>2024-03-27T15:55:11Z</time>
      </trkpt>
      <trkpt lat="43.49125" lon="6.18668">
        <ele>195.8</ele>
        <time>2024-03-27T15:55:12Z</time>
      </trkpt>
      <trkpt lat="43.49125" lon="6.18671">
        <ele>195.8</ele>
        <time>2024-03-27T15:55:13Z</time>
      </trkpt>
      <trkpt lat="43.49126" lon="6.18673">
        <ele>195.8</ele>
        <time>2024-03-27T15:55:14Z</time>
      </trkpt>
      <trkpt lat="43.49126" lon="6.18675">
        <ele>195.7</ele>
        <time>2024-03-27T15:55:15Z</time>
      </trkpt>
      <trkpt lat="43.49126" lon="6.18677">
        <ele>195.7</ele>
        <time>2024-03-27T15:55:16Z</time>
      </trkpt>
      <trkpt lat="43.49126" lon="6.18679">
        <ele>195.7</ele>
        <time>2024-03-27T15:55:17Z</time>
      </trkpt>
      <trkpt lat="43.49125" lon="6.18681">
        <ele>195.7</ele>
        <time>2024-03-27T15:55:18Z</time>
      </trkpt>
      <trkpt lat="43.49125" lon="6.18683">
        <ele>195.7</ele>
        <time>2024-03-27T15:55:19Z</time>
      </trkpt>
      <trkpt lat="43.49125" lon="6.18684">
        <ele>195.7</ele>
        <time>2024-03-27T15:55:20Z</time>
      </trkpt>
      <trkpt lat="43.49125" lon="6.18686">
        <ele>195.8</ele>
        <time>2024-03-27T15:55:21Z</time>
      </trkpt>
      <trkpt lat="43.49125" lon="6.18688">
        <ele>195.8</ele>
        <time>2024-03-27T15:55:22Z</time>
      </trkpt>
      <trkpt lat="43.49125" lon="6.1869">
        <ele>195.9</ele>
        <time>2024-03-27T15:55:23Z</time>
      </trkpt>
      <trkpt lat="43.49125" lon="6.18692">
        <ele>195.9</ele>
        <time>2024-03-27T15:55:24Z</time>
      </trkpt>
      <trkpt lat="43.49125" lon="6.18694">
        <ele>196</ele>
        <time>2024-03-27T15:55:25Z</time>
      </trkpt>
      <trkpt lat="43.49126" lon="6.18696">
        <ele>196</ele>
        <time>2024-03-27T15:55:26Z</time>
      </trkpt>
      <trkpt lat="43.49126" lon="6.18697">
        <ele>196.1</ele>
        <time>2024-03-27T15:55:27Z</time>
      </trkpt>
      <trkpt lat="43.49126" lon="6.18699">
        <ele>196.1</ele>
        <time>2024-03-27T15:55:28Z</time>
      </trkpt>
      <trkpt lat="43.49126" lon="6.18701">
        <ele>196</ele>
        <time>2024-03-27T15:55:29Z</time>
      </trkpt>
      <trkpt lat="43.49127" lon="6.18703">
        <ele>196</ele>
        <time>2024-03-27T15:55:30Z</time>
      </trkpt>
      <trkpt lat="43.49127" lon="6.18705">
        <ele>195.9</ele>
        <time>2024-03-27T15:55:31Z</time>
      </trkpt>
      <trkpt lat="43.49127" lon="6.18707">
        <ele>195.9</ele>
        <time>2024-03-27T15:55:32Z</time>
      </trkpt>
      <trkpt lat="43.49127" lon="6.18709">
        <ele>195.9</ele>
        <time>2024-03-27T15:55:33Z</time>
      </trkpt>
      <trkpt lat="43.49127" lon="6.18711">
        <ele>195.9</ele>
        <time>2024-03-27T15:55:34Z</time>
      </trkpt>
      <trkpt lat="43.49127" lon="6.18713">
        <ele>195.8</ele>
        <time>2024-03-27T15:55:35Z</time>
      </trkpt>
      <trkpt lat="43.49127" lon="6.18715">
        <ele>195.9</ele>
        <time>2024-03-27T15:55:36Z</time>
      </trkpt>
      <trkpt lat="43.49128" lon="6.18716">
        <ele>195.9</ele>
        <time>2024-03-27T15:55:37Z</time>
      </trkpt>
      <trkpt lat="43.49128" lon="6.18718">
        <ele>195.9</ele>
        <time>2024-03-27T15:55:38Z</time>
      </trkpt>
      <trkpt lat="43.49128" lon="6.1872">
        <ele>195.9</ele>
        <time>2024-03-27T15:55:39Z</time>
      </trkpt>
      <trkpt lat="43.49128" lon="6.18722">
        <ele>195.9</ele>
        <time>2024-03-27T15:55:40Z</time>
      </trkpt>
      <trkpt lat="43.49128" lon="6.18723">
        <ele>195.9</ele>
        <time>2024-03-27T15:55:41Z</time>
      </trkpt>
      <trkpt lat="43.49128" lon="6.18725">
        <ele>195.9</ele>
        <time>2024-03-27T15:55:42Z</time>
      </trkpt>
      <trkpt lat="43.49128" lon="6.18726">
        <ele>195.8</ele>
        <time>2024-03-27T15:55:43Z</time>
      </trkpt>
      <trkpt lat="43.49128" lon="6.18728">
        <ele>195.9</ele>
        <time>2024-03-27T15:55:44Z</time>
      </trkpt>
      <trkpt lat="43.49128" lon="6.1873">
        <ele>195.9</ele>
        <time>2024-03-27T15:55:45Z</time>
      </trkpt>
      <trkpt lat="43.49128" lon="6.18731">
        <ele>196</ele>
        <time>2024-03-27T15:55:46Z</time>
      </trkpt>
      <trkpt lat="43.49128" lon="6.18733">
        <ele>196.1</ele>
        <time>2024-03-27T15:55:47Z</time>
      </trkpt>
      <trkpt lat="43.49127" lon="6.18734">
        <ele>196.1</ele>
        <time>2024-03-27T15:55:48Z</time>
      </trkpt>
      <trkpt lat="43.49126" lon="6.18736">
        <ele>196.1</ele>
        <time>2024-03-27T15:55:49Z</time>
      </trkpt>
      <trkpt lat="43.49126" lon="6.18737">
        <ele>196.1</ele>
        <time>2024-03-27T15:55:50Z</time>
      </trkpt>
      <trkpt lat="43.49127" lon="6.18739">
        <ele>196</ele>
        <time>2024-03-27T15:55:51Z</time>
      </trkpt>
      <trkpt lat="43.49127" lon="6.18741">
        <ele>196</ele>
        <time>2024-03-27T15:55:52Z</time>
      </trkpt>
      <trkpt lat="43.49128" lon="6.18743">
        <ele>196.1</ele>
        <time>2024-03-27T15:55:53Z</time>
      </trkpt>
      <trkpt lat="43.49129" lon="6.18744">
        <ele>196.1</ele>
        <time>2024-03-27T15:55:54Z</time>
      </trkpt>
      <trkpt lat="43.4913" lon="6.18746">
        <ele>196.1</ele>
        <time>2024-03-27T15:55:55Z</time>
      </trkpt>
      <trkpt lat="43.4913" lon="6.18747">
        <ele>196</ele>
        <time>2024-03-27T15:55:56Z</time>
      </trkpt>
      <trkpt lat="43.49131" lon="6.18748">
        <ele>195.9</ele>
        <time>2024-03-27T15:55:57Z</time>
      </trkpt>
      <trkpt lat="43.49132" lon="6.18749">
        <ele>195.8</ele>
        <time>2024-03-27T15:55:58Z</time>
      </trkpt>
      <trkpt lat="43.49133" lon="6.18751">
        <ele>195.7</ele>
        <time>2024-03-27T15:55:59Z</time>
      </trkpt>
      <trkpt lat="43.49134" lon="6.18752">
        <ele>195.6</ele>
        <time>2024-03-27T15:56:00Z</time>
      </trkpt>
      <trkpt lat="43.49134" lon="6.18754">
        <ele>195.5</ele>
        <time>2024-03-27T15:56:01Z</time>
      </trkpt>
      <trkpt lat="43.49135" lon="6.18755">
        <ele>195.3</ele>
        <time>2024-03-27T15:56:02Z</time>
      </trkpt>
      <trkpt lat="43.49135" lon="6.18757">
        <ele>195.2</ele>
        <time>2024-03-27T15:56:03Z</time>
      </trkpt>
      <trkpt lat="43.49135" lon="6.18759">
        <ele>195.1</ele>
        <time>2024-03-27T15:56:04Z</time>
      </trkpt>
      <trkpt lat="43.49135" lon="6.18761">
        <ele>195.1</ele>
        <time>2024-03-27T15:56:05Z</time>
      </trkpt>
      <trkpt lat="43.49135" lon="6.18762">
        <ele>195</ele>
        <time>2024-03-27T15:56:06Z</time>
      </trkpt>
      <trkpt lat="43.49135" lon="6.18763">
        <ele>195</ele>
        <time>2024-03-27T15:56:07Z</time>
      </trkpt>
      <trkpt lat="43.49135" lon="6.18764">
        <ele>194.9</ele>
        <time>2024-03-27T15:56:08Z</time>
      </trkpt>
      <trkpt lat="43.49135" lon="6.18765">
        <ele>194.9</ele>
        <time>2024-03-27T15:56:09Z</time>
      </trkpt>
      <trkpt lat="43.49134" lon="6.18766">
        <ele>194.9</ele>
        <time>2024-03-27T15:56:10Z</time>
      </trkpt>
      <trkpt lat="43.49134" lon="6.18768">
        <ele>194.9</ele>
        <time>2024-03-27T15:56:11Z</time>
      </trkpt>
      <trkpt lat="43.49134" lon="6.18769">
        <ele>194.9</ele>
        <time>2024-03-27T15:56:12Z</time>
      </trkpt>
      <trkpt lat="43.49133" lon="6.1877">
        <ele>194.9</ele>
        <time>2024-03-27T15:56:13Z</time>
      </trkpt>
      <trkpt lat="43.49133" lon="6.18771">
        <ele>195</ele>
        <time>2024-03-27T15:56:14Z</time>
      </trkpt>
      <trkpt lat="43.49133" lon="6.18772">
        <ele>195</ele>
        <time>2024-03-27T15:56:15Z</time>
      </trkpt>
      <trkpt lat="43.49133" lon="6.18773">
        <ele>195</ele>
        <time>2024-03-27T15:56:16Z</time>
      </trkpt>
      <trkpt lat="43.49133" lon="6.18774">
        <ele>194.9</ele>
        <time>2024-03-27T15:56:17Z</time>
      </trkpt>
      <trkpt lat="43.49133" lon="6.18775">
        <ele>194.9</ele>
        <time>2024-03-27T15:56:18Z</time>
      </trkpt>
      <trkpt lat="43.49133" lon="6.18777">
        <ele>194.9</ele>
        <time>2024-03-27T15:56:19Z</time>
      </trkpt>
      <trkpt lat="43.49133" lon="6.18778">
        <ele>194.9</ele>
        <time>2024-03-27T15:56:20Z</time>
      </trkpt>
      <trkpt lat="43.49133" lon="6.1878">
        <ele>194.8</ele>
        <time>2024-03-27T15:56:21Z</time>
      </trkpt>
      <trkpt lat="43.49133" lon="6.18781">
        <ele>194.8</ele>
        <time>2024-03-27T15:56:22Z</time>
      </trkpt>
      <trkpt lat="43.49133" lon="6.18783">
        <ele>194.8</ele>
        <time>2024-03-27T15:56:23Z</time>
      </trkpt>
      <trkpt lat="43.49133" lon="6.18784">
        <ele>194.7</ele>
        <time>2024-03-27T15:56:24Z</time>
      </trkpt>
      <trkpt lat="43.49133" lon="6.18786">
        <ele>194.7</ele>
        <time>2024-03-27T15:56:25Z</time>
      </trkpt>
      <trkpt lat="43.49133" lon="6.18788">
        <ele>194.6</ele>
        <time>2024-03-27T15:56:26Z</time>
      </trkpt>
      <trkpt lat="43.49132" lon="6.18789">
        <ele>194.5</ele>
        <time>2024-03-27T15:56:27Z</time>
      </trkpt>
      <trkpt lat="43.49132" lon="6.1879">
        <ele>194.4</ele>
        <time>2024-03-27T15:56:28Z</time>
      </trkpt>
      <trkpt lat="43.49131" lon="6.18792">
        <ele>194.4</ele>
        <time>2024-03-27T15:56:29Z</time>
      </trkpt>
      <trkpt lat="43.49131" lon="6.18794">
        <ele>194.4</ele>
        <time>2024-03-27T15:56:30Z</time>
      </trkpt>
      <trkpt lat="43.49131" lon="6.18796">
        <ele>194.3</ele>
        <time>2024-03-27T15:56:31Z</time>
      </trkpt>
      <trkpt lat="43.49131" lon="6.18797">
        <ele>194.1</ele>
        <time>2024-03-27T15:56:32Z</time>
      </trkpt>
      <trkpt lat="43.4913" lon="6.18798">
        <ele>194.1</ele>
        <time>2024-03-27T15:56:33Z</time>
      </trkpt>
      <trkpt lat="43.4913" lon="6.18799">
        <ele>194</ele>
        <time>2024-03-27T15:56:34Z</time>
      </trkpt>
      <trkpt lat="43.49129" lon="6.18801">
        <ele>194</ele>
        <time>2024-03-27T15:56:35Z</time>
      </trkpt>
      <trkpt lat="43.49128" lon="6.18802">
        <ele>194</ele>
        <time>2024-03-27T15:56:36Z</time>
      </trkpt>
      <trkpt lat="43.49128" lon="6.18804">
        <ele>194</ele>
        <time>2024-03-27T15:56:37Z</time>
      </trkpt>
      <trkpt lat="43.49127" lon="6.18805">
        <ele>193.9</ele>
        <time>2024-03-27T15:56:38Z</time>
      </trkpt>
      <trkpt lat="43.49127" lon="6.18807">
        <ele>193.9</ele>
        <time>2024-03-27T15:56:39Z</time>
      </trkpt>
      <trkpt lat="43.49127" lon="6.18808">
        <ele>193.7</ele>
        <time>2024-03-27T15:56:40Z</time>
      </trkpt>
      <trkpt lat="43.49128" lon="6.18809">
        <ele>193.7</ele>
        <time>2024-03-27T15:56:41Z</time>
      </trkpt>
      <trkpt lat="43.49127" lon="6.18809">
        <ele>193.6</ele>
        <time>2024-03-27T15:56:42Z</time>
      </trkpt>
      <trkpt lat="43.49128" lon="6.18809">
        <ele>193.6</ele>
        <time>2024-03-27T15:56:43Z</time>
      </trkpt>
      <trkpt lat="43.49127" lon="6.1881">
        <ele>193.5</ele>
        <time>2024-03-27T15:56:44Z</time>
      </trkpt>
      <trkpt lat="43.49127" lon="6.1881">
        <ele>193.5</ele>
        <time>2024-03-27T15:56:45Z</time>
      </trkpt>
      <trkpt lat="43.49126" lon="6.18811">
        <ele>193.5</ele>
        <time>2024-03-27T15:56:46Z</time>
      </trkpt>
      <trkpt lat="43.49126" lon="6.18812">
        <ele>193.4</ele>
        <time>2024-03-27T15:56:47Z</time>
      </trkpt>
      <trkpt lat="43.49126" lon="6.18813">
        <ele>193.5</ele>
        <time>2024-03-27T15:56:48Z</time>
      </trkpt>
      <trkpt lat="43.49126" lon="6.18814">
        <ele>193.5</ele>
        <time>2024-03-27T15:56:49Z</time>
      </trkpt>
      <trkpt lat="43.49125" lon="6.18815">
        <ele>193.5</ele>
        <time>2024-03-27T15:56:50Z</time>
      </trkpt>
      <trkpt lat="43.49125" lon="6.18817">
        <ele>193.3</ele>
        <time>2024-03-27T15:56:51Z</time>
      </trkpt>
      <trkpt lat="43.49124" lon="6.18817">
        <ele>193.4</ele>
        <time>2024-03-27T15:56:52Z</time>
      </trkpt>
      <trkpt lat="43.49123" lon="6.18819">
        <ele>193.5</ele>
        <time>2024-03-27T15:56:53Z</time>
      </trkpt>
      <trkpt lat="43.49123" lon="6.1882">
        <ele>193.5</ele>
        <time>2024-03-27T15:56:54Z</time>
      </trkpt>
      <trkpt lat="43.49123" lon="6.18821">
        <ele>193.6</ele>
        <time>2024-03-27T15:56:55Z</time>
      </trkpt>
      <trkpt lat="43.49122" lon="6.18822">
        <ele>193.7</ele>
        <time>2024-03-27T15:56:56Z</time>
      </trkpt>
      <trkpt lat="43.49122" lon="6.18823">
        <ele>193.9</ele>
        <time>2024-03-27T15:56:57Z</time>
      </trkpt>
      <trkpt lat="43.49122" lon="6.18825">
        <ele>194.1</ele>
        <time>2024-03-27T15:56:58Z</time>
      </trkpt>
      <trkpt lat="43.49121" lon="6.18825">
        <ele>194.2</ele>
        <time>2024-03-27T15:56:59Z</time>
      </trkpt>
      <trkpt lat="43.4912" lon="6.18826">
        <ele>194.2</ele>
        <time>2024-03-27T15:57:00Z</time>
      </trkpt>
      <trkpt lat="43.49119" lon="6.18827">
        <ele>194.5</ele>
        <time>2024-03-27T15:57:01Z</time>
      </trkpt>
      <trkpt lat="43.49118" lon="6.18829">
        <ele>194.6</ele>
        <time>2024-03-27T15:57:02Z</time>
      </trkpt>
      <trkpt lat="43.49116" lon="6.18831">
        <ele>194.6</ele>
        <time>2024-03-27T15:57:03Z</time>
      </trkpt>
      <trkpt lat="43.49115" lon="6.18832">
        <ele>194.6</ele>
        <time>2024-03-27T15:57:04Z</time>
      </trkpt>
      <trkpt lat="43.49114" lon="6.18834">
        <ele>194.6</ele>
        <time>2024-03-27T15:57:05Z</time>
      </trkpt>
      <trkpt lat="43.49114" lon="6.18835">
        <ele>194.7</ele>
        <time>2024-03-27T15:57:06Z</time>
      </trkpt>
      <trkpt lat="43.49113" lon="6.18835">
        <ele>194.7</ele>
        <time>2024-03-27T15:57:07Z</time>
      </trkpt>
      <trkpt lat="43.49113" lon="6.18837">
        <ele>194.8</ele>
        <time>2024-03-27T15:57:08Z</time>
      </trkpt>
      <trkpt lat="43.49112" lon="6.18839">
        <ele>194.9</ele>
        <time>2024-03-27T15:57:09Z</time>
      </trkpt>
      <trkpt lat="43.49112" lon="6.1884">
        <ele>194.8</ele>
        <time>2024-03-27T15:57:10Z</time>
      </trkpt>
      <trkpt lat="43.49111" lon="6.18841">
        <ele>194.9</ele>
        <time>2024-03-27T15:57:11Z</time>
      </trkpt>
      <trkpt lat="43.49111" lon="6.18841">
        <ele>194.9</ele>
        <time>2024-03-27T15:57:12Z</time>
      </trkpt>
      <trkpt lat="43.49109" lon="6.18842">
        <ele>194.9</ele>
        <time>2024-03-27T15:57:13Z</time>
      </trkpt>
      <trkpt lat="43.49109" lon="6.18844">
        <ele>195</ele>
        <time>2024-03-27T15:57:14Z</time>
      </trkpt>
      <trkpt lat="43.49108" lon="6.18845">
        <ele>195</ele>
        <time>2024-03-27T15:57:15Z</time>
      </trkpt>
      <trkpt lat="43.49107" lon="6.18846">
        <ele>195</ele>
        <time>2024-03-27T15:57:16Z</time>
      </trkpt>
      <trkpt lat="43.49106" lon="6.18847">
        <ele>195</ele>
        <time>2024-03-27T15:57:17Z</time>
      </trkpt>
      <trkpt lat="43.49105" lon="6.18847">
        <ele>195.1</ele>
        <time>2024-03-27T15:57:18Z</time>
      </trkpt>
      <trkpt lat="43.49104" lon="6.18848">
        <ele>195.1</ele>
        <time>2024-03-27T15:57:19Z</time>
      </trkpt>
      <trkpt lat="43.49104" lon="6.18849">
        <ele>195.1</ele>
        <time>2024-03-27T15:57:20Z</time>
      </trkpt>
      <trkpt lat="43.49103" lon="6.1885">
        <ele>195.1</ele>
        <time>2024-03-27T15:57:21Z</time>
      </trkpt>
      <trkpt lat="43.49103" lon="6.18851">
        <ele>195.1</ele>
        <time>2024-03-27T15:57:22Z</time>
      </trkpt>
      <trkpt lat="43.49103" lon="6.18853">
        <ele>195.2</ele>
        <time>2024-03-27T15:57:23Z</time>
      </trkpt>
      <trkpt lat="43.49103" lon="6.18853">
        <ele>195.4</ele>
        <time>2024-03-27T15:57:24Z</time>
      </trkpt>
      <trkpt lat="43.49102" lon="6.18855">
        <ele>195.5</ele>
        <time>2024-03-27T15:57:25Z</time>
      </trkpt>
      <trkpt lat="43.49102" lon="6.18855">
        <ele>195.6</ele>
        <time>2024-03-27T15:57:26Z</time>
      </trkpt>
      <trkpt lat="43.49101" lon="6.18856">
        <ele>195.8</ele>
        <time>2024-03-27T15:57:27Z</time>
      </trkpt>
      <trkpt lat="43.491" lon="6.18857">
        <ele>196</ele>
        <time>2024-03-27T15:57:28Z</time>
      </trkpt>
      <trkpt lat="43.49099" lon="6.18857">
        <ele>196.1</ele>
        <time>2024-03-27T15:57:29Z</time>
      </trkpt>
      <trkpt lat="43.49098" lon="6.18858">
        <ele>196.2</ele>
        <time>2024-03-27T15:57:30Z</time>
      </trkpt>
      <trkpt lat="43.49097" lon="6.18859">
        <ele>196.2</ele>
        <time>2024-03-27T15:57:31Z</time>
      </trkpt>
      <trkpt lat="43.49095" lon="6.18861">
        <ele>196.4</ele>
        <time>2024-03-27T15:57:32Z</time>
      </trkpt>
      <trkpt lat="43.49094" lon="6.18862">
        <ele>196.5</ele>
        <time>2024-03-27T15:57:33Z</time>
      </trkpt>
      <trkpt lat="43.49093" lon="6.18863">
        <ele>196.6</ele>
        <time>2024-03-27T15:57:34Z</time>
      </trkpt>
      <trkpt lat="43.49092" lon="6.18864">
        <ele>196.7</ele>
        <time>2024-03-27T15:57:35Z</time>
      </trkpt>
      <trkpt lat="43.49091" lon="6.18866">
        <ele>196.8</ele>
        <time>2024-03-27T15:57:36Z</time>
      </trkpt>
      <trkpt lat="43.4909" lon="6.18867">
        <ele>196.8</ele>
        <time>2024-03-27T15:57:37Z</time>
      </trkpt>
      <trkpt lat="43.4909" lon="6.18868">
        <ele>196.8</ele>
        <time>2024-03-27T15:57:38Z</time>
      </trkpt>
      <trkpt lat="43.49089" lon="6.18869">
        <ele>196.7</ele>
        <time>2024-03-27T15:57:39Z</time>
      </trkpt>
      <trkpt lat="43.49089" lon="6.1887">
        <ele>196.6</ele>
        <time>2024-03-27T15:57:40Z</time>
      </trkpt>
      <trkpt lat="43.49087" lon="6.18872">
        <ele>196.6</ele>
        <time>2024-03-27T15:57:41Z</time>
      </trkpt>
      <trkpt lat="43.49086" lon="6.18872">
        <ele>196.7</ele>
        <time>2024-03-27T15:57:42Z</time>
      </trkpt>
      <trkpt lat="43.49085" lon="6.18873">
        <ele>196.7</ele>
        <time>2024-03-27T15:57:43Z</time>
      </trkpt>
      <trkpt lat="43.49085" lon="6.18873">
        <ele>196.7</ele>
        <time>2024-03-27T15:57:44Z</time>
      </trkpt>
      <trkpt lat="43.49085" lon="6.18874">
        <ele>196.7</ele>
        <time>2024-03-27T15:57:45Z</time>
      </trkpt>
      <trkpt lat="43.49084" lon="6.18875">
        <ele>196.7</ele>
        <time>2024-03-27T15:57:46Z</time>
      </trkpt>
      <trkpt lat="43.49083" lon="6.18875">
        <ele>196.8</ele>
        <time>2024-03-27T15:57:47Z</time>
      </trkpt>
      <trkpt lat="43.49082" lon="6.18877">
        <ele>196.9</ele>
        <time>2024-03-27T15:57:48Z</time>
      </trkpt>
      <trkpt lat="43.49081" lon="6.18878">
        <ele>196.8</ele>
        <time>2024-03-27T15:57:49Z</time>
      </trkpt>
      <trkpt lat="43.49081" lon="6.18879">
        <ele>196.8</ele>
        <time>2024-03-27T15:57:50Z</time>
      </trkpt>
      <trkpt lat="43.4908" lon="6.1888">
        <ele>196.9</ele>
        <time>2024-03-27T15:57:51Z</time>
      </trkpt>
      <trkpt lat="43.49079" lon="6.18881">
        <ele>197</ele>
        <time>2024-03-27T15:57:52Z</time>
      </trkpt>
      <trkpt lat="43.49079" lon="6.18882">
        <ele>197</ele>
        <time>2024-03-27T15:57:53Z</time>
      </trkpt>
      <trkpt lat="43.49079" lon="6.18883">
        <ele>197.1</ele>
        <time>2024-03-27T15:57:54Z</time>
      </trkpt>
      <trkpt lat="43.49079" lon="6.18884">
        <ele>197.2</ele>
        <time>2024-03-27T15:57:55Z</time>
      </trkpt>
      <trkpt lat="43.4908" lon="6.18885">
        <ele>197.3</ele>
        <time>2024-03-27T15:57:56Z</time>
      </trkpt>
      <trkpt lat="43.4908" lon="6.18886">
        <ele>197.3</ele>
        <time>2024-03-27T15:57:57Z</time>
      </trkpt>
      <trkpt lat="43.4908" lon="6.18887">
        <ele>197.3</ele>
        <time>2024-03-27T15:57:58Z</time>
      </trkpt>
      <trkpt lat="43.4908" lon="6.18888">
        <ele>197.4</ele>
        <time>2024-03-27T15:57:59Z</time>
      </trkpt>
      <trkpt lat="43.4908" lon="6.18888">
        <ele>197.5</ele>
        <time>2024-03-27T15:58:00Z</time>
      </trkpt>
      <trkpt lat="43.4908" lon="6.18889">
        <ele>197.5</ele>
        <time>2024-03-27T15:58:01Z</time>
      </trkpt>
      <trkpt lat="43.4908" lon="6.18889">
        <ele>197.6</ele>
        <time>2024-03-27T15:58:02Z</time>
      </trkpt>
      <trkpt lat="43.4908" lon="6.1889">
        <ele>197.6</ele>
        <time>2024-03-27T15:58:03Z</time>
      </trkpt>
      <trkpt lat="43.4908" lon="6.1889">
        <ele>197.6</ele>
        <time>2024-03-27T15:58:04Z</time>
      </trkpt>
      <trkpt lat="43.4908" lon="6.18891">
        <ele>197.6</ele>
        <time>2024-03-27T15:58:05Z</time>
      </trkpt>
      <trkpt lat="43.4908" lon="6.18891">
        <ele>197.6</ele>
        <time>2024-03-27T15:58:06Z</time>
      </trkpt>
      <trkpt lat="43.4908" lon="6.18892">
        <ele>197.7</ele>
        <time>2024-03-27T15:58:07Z</time>
      </trkpt>
      <trkpt lat="43.4908" lon="6.18893">
        <ele>197.7</ele>
        <time>2024-03-27T15:58:08Z</time>
      </trkpt>
      <trkpt lat="43.4908" lon="6.18893">
        <ele>197.8</ele>
        <time>2024-03-27T15:58:09Z</time>
      </trkpt>
      <trkpt lat="43.4908" lon="6.18894">
        <ele>197.8</ele>
        <time>2024-03-27T15:58:10Z</time>
      </trkpt>
      <trkpt lat="43.4908" lon="6.18894">
        <ele>197.8</ele>
        <time>2024-03-27T15:58:11Z</time>
      </trkpt>
      <trkpt lat="43.4908" lon="6.18895">
        <ele>197.8</ele>
        <time>2024-03-27T15:58:12Z</time>
      </trkpt>
      <trkpt lat="43.4908" lon="6.18895">
        <ele>197.7</ele>
        <time>2024-03-27T15:58:13Z</time>
      </trkpt>
      <trkpt lat="43.49081" lon="6.18895">
        <ele>197.7</ele>
        <time>2024-03-27T15:58:14Z</time>
      </trkpt>
      <trkpt lat="43.49081" lon="6.18896">
        <ele>197.7</ele>
        <time>2024-03-27T15:58:15Z</time>
      </trkpt>
      <trkpt lat="43.49081" lon="6.18896">
        <ele>197.7</ele>
        <time>2024-03-27T15:58:16Z</time>
      </trkpt>
      <trkpt lat="43.49081" lon="6.18896">
        <ele>197.7</ele>
        <time>2024-03-27T15:58:17Z</time>
      </trkpt>
      <trkpt lat="43.49081" lon="6.18897">
        <ele>197.8</ele>
        <time>2024-03-27T15:58:18Z</time>
      </trkpt>
      <trkpt lat="43.4908" lon="6.18897">
        <ele>197.8</ele>
        <time>2024-03-27T15:58:19Z</time>
      </trkpt>
      <trkpt lat="43.4908" lon="6.18897">
        <ele>197.8</ele>
        <time>2024-03-27T15:58:20Z</time>
      </trkpt>
      <trkpt lat="43.4908" lon="6.18897">
        <ele>197.8</ele>
        <time>2024-03-27T15:58:21Z</time>
      </trkpt>
      <trkpt lat="43.4908" lon="6.18898">
        <ele>197.9</ele>
        <time>2024-03-27T15:58:22Z</time>
      </trkpt>
      <trkpt lat="43.4908" lon="6.18898">
        <ele>197.9</ele>
        <time>2024-03-27T15:58:23Z</time>
      </trkpt>
      <trkpt lat="43.4908" lon="6.18898">
        <ele>197.9</ele>
        <time>2024-03-27T15:58:24Z</time>
      </trkpt>
      <trkpt lat="43.4908" lon="6.18898">
        <ele>197.9</ele>
        <time>2024-03-27T15:58:25Z</time>
      </trkpt>
      <trkpt lat="43.4908" lon="6.18899">
        <ele>197.9</ele>
        <time>2024-03-27T15:58:26Z</time>
      </trkpt>
      <trkpt lat="43.4908" lon="6.18899">
        <ele>198</ele>
        <time>2024-03-27T15:58:27Z</time>
      </trkpt>
      <trkpt lat="43.49081" lon="6.18899">
        <ele>198</ele>
        <time>2024-03-27T15:58:28Z</time>
      </trkpt>
      <trkpt lat="43.49081" lon="6.18899">
        <ele>198</ele>
        <time>2024-03-27T15:58:29Z</time>
      </trkpt>
      <trkpt lat="43.49081" lon="6.18899">
        <ele>198</ele>
        <time>2024-03-27T15:58:30Z</time>
      </trkpt>
      <trkpt lat="43.49081" lon="6.18899">
        <ele>198</ele>
        <time>2024-03-27T15:58:31Z</time>
      </trkpt>
      <trkpt lat="43.49081" lon="6.189">
        <ele>198</ele>
        <time>2024-03-27T15:58:32Z</time>
      </trkpt>
      <trkpt lat="43.4908" lon="6.189">
        <ele>198</ele>
        <time>2024-03-27T15:58:33Z</time>
      </trkpt>
      <trkpt lat="43.4908" lon="6.189">
        <ele>198</ele>
        <time>2024-03-27T15:58:34Z</time>
      </trkpt>
      <trkpt lat="43.4908" lon="6.189">
        <ele>197.9</ele>
        <time>2024-03-27T15:58:35Z</time>
      </trkpt>
      <trkpt lat="43.4908" lon="6.189">
        <ele>197.9</ele>
        <time>2024-03-27T15:58:36Z</time>
      </trkpt>
      <trkpt lat="43.4908" lon="6.189">
        <ele>197.8</ele>
        <time>2024-03-27T15:58:37Z</time>
      </trkpt>
      <trkpt lat="43.4908" lon="6.189">
        <ele>197.8</ele>
        <time>2024-03-27T15:58:38Z</time>
      </trkpt>
      <trkpt lat="43.4908" lon="6.18901">
        <ele>197.8</ele>
        <time>2024-03-27T15:58:39Z</time>
      </trkpt>
      <trkpt lat="43.4908" lon="6.18901">
        <ele>197.9</ele>
        <time>2024-03-27T15:58:40Z</time>
      </trkpt>
      <trkpt lat="43.4908" lon="6.18901">
        <ele>197.8</ele>
        <time>2024-03-27T15:58:41Z</time>
      </trkpt>
      <trkpt lat="43.4908" lon="6.18901">
        <ele>197.7</ele>
        <time>2024-03-27T15:58:42Z</time>
      </trkpt>
      <trkpt lat="43.4908" lon="6.18901">
        <ele>197.7</ele>
        <time>2024-03-27T15:58:43Z</time>
      </trkpt>
      <trkpt lat="43.49081" lon="6.18901">
        <ele>197.7</ele>
        <time>2024-03-27T15:58:44Z</time>
      </trkpt>
      <trkpt lat="43.49081" lon="6.18901">
        <ele>197.7</ele>
        <time>2024-03-27T15:58:45Z</time>
      </trkpt>
      <trkpt lat="43.49081" lon="6.18902">
        <ele>197.7</ele>
        <time>2024-03-27T15:58:46Z</time>
      </trkpt>
      <trkpt lat="43.49081" lon="6.18902">
        <ele>197.7</ele>
        <time>2024-03-27T15:58:47Z</time>
      </trkpt>
      <trkpt lat="43.49081" lon="6.18902">
        <ele>197.7</ele>
        <time>2024-03-27T15:58:48Z</time>
      </trkpt>
      <trkpt lat="43.49081" lon="6.18902">
        <ele>197.7</ele>
        <time>2024-03-27T15:58:49Z</time>
      </trkpt>
      <trkpt lat="43.49081" lon="6.18902">
        <ele>197.7</ele>
        <time>2024-03-27T15:58:50Z</time>
      </trkpt>
      <trkpt lat="43.49081" lon="6.18902">
        <ele>197.8</ele>
        <time>2024-03-27T15:58:51Z</time>
      </trkpt>
      <trkpt lat="43.49081" lon="6.18903">
        <ele>197.8</ele>
        <time>2024-03-27T15:58:52Z</time>
      </trkpt>
      <trkpt lat="43.49081" lon="6.18903">
        <ele>197.8</ele>
        <time>2024-03-27T15:58:53Z</time>
      </trkpt>
      <trkpt lat="43.49081" lon="6.18903">
        <ele>197.8</ele>
        <time>2024-03-27T15:58:54Z</time>
      </trkpt>
      <trkpt lat="43.49081" lon="6.18903">
        <ele>197.8</ele>
        <time>2024-03-27T15:58:55Z</time>
      </trkpt>
      <trkpt lat="43.49081" lon="6.18904">
        <ele>197.6</ele>
        <time>2024-03-27T15:58:56Z</time>
      </trkpt>
      <trkpt lat="43.49081" lon="6.18904">
        <ele>197.5</ele>
        <time>2024-03-27T15:58:57Z</time>
      </trkpt>
      <trkpt lat="43.49081" lon="6.18904">
        <ele>197.5</ele>
        <time>2024-03-27T15:58:58Z</time>
      </trkpt>
      <trkpt lat="43.49081" lon="6.18904">
        <ele>197.5</ele>
        <time>2024-03-27T15:58:59Z</time>
      </trkpt>
      <trkpt lat="43.49081" lon="6.18904">
        <ele>197.5</ele>
        <time>2024-03-27T15:59:00Z</time>
      </trkpt>
      <trkpt lat="43.49081" lon="6.18904">
        <ele>197.5</ele>
        <time>2024-03-27T15:59:01Z</time>
      </trkpt>
      <trkpt lat="43.49081" lon="6.18904">
        <ele>197.5</ele>
        <time>2024-03-27T15:59:02Z</time>
      </trkpt>
      <trkpt lat="43.4908" lon="6.18904">
        <ele>197.5</ele>
        <time>2024-03-27T15:59:03Z</time>
      </trkpt>
      <trkpt lat="43.49079" lon="6.18904">
        <ele>197.5</ele>
        <time>2024-03-27T15:59:04Z</time>
      </trkpt>
      <trkpt lat="43.49079" lon="6.18904">
        <ele>197.6</ele>
        <time>2024-03-27T15:59:05Z</time>
      </trkpt>
      <trkpt lat="43.49079" lon="6.18904">
        <ele>197.7</ele>
        <time>2024-03-27T15:59:06Z</time>
      </trkpt>
      <trkpt lat="43.49079" lon="6.18904">
        <ele>197.7</ele>
        <time>2024-03-27T15:59:07Z</time>
      </trkpt>
      <trkpt lat="43.49078" lon="6.18905">
        <ele>197.8</ele>
        <time>2024-03-27T15:59:08Z</time>
      </trkpt>
      <trkpt lat="43.49078" lon="6.18905">
        <ele>197.8</ele>
        <time>2024-03-27T15:59:09Z</time>
      </trkpt>
      <trkpt lat="43.49078" lon="6.18905">
        <ele>197.8</ele>
        <time>2024-03-27T15:59:10Z</time>
      </trkpt>
      <trkpt lat="43.49078" lon="6.18905">
        <ele>197.7</ele>
        <time>2024-03-27T15:59:11Z</time>
      </trkpt>
      <trkpt lat="43.49077" lon="6.18905">
        <ele>197.8</ele>
        <time>2024-03-27T15:59:12Z</time>
      </trkpt>
      <trkpt lat="43.49077" lon="6.18905">
        <ele>197.8</ele>
        <time>2024-03-27T15:59:13Z</time>
      </trkpt>
      <trkpt lat="43.49077" lon="6.18904">
        <ele>197.8</ele>
        <time>2024-03-27T15:59:14Z</time>
      </trkpt>
      <trkpt lat="43.49077" lon="6.18904">
        <ele>197.9</ele>
        <time>2024-03-27T15:59:15Z</time>
      </trkpt>
      <trkpt lat="43.49077" lon="6.18904">
        <ele>197.9</ele>
        <time>2024-03-27T15:59:16Z</time>
      </trkpt>
      <trkpt lat="43.49077" lon="6.18903">
        <ele>198</ele>
        <time>2024-03-27T15:59:17Z</time>
      </trkpt>
      <trkpt lat="43.49077" lon="6.18903">
        <ele>198</ele>
        <time>2024-03-27T15:59:18Z</time>
      </trkpt>
      <trkpt lat="43.49076" lon="6.18903">
        <ele>198</ele>
        <time>2024-03-27T15:59:19Z</time>
      </trkpt>
      <trkpt lat="43.49075" lon="6.18903">
        <ele>198</ele>
        <time>2024-03-27T15:59:20Z</time>
      </trkpt>
      <trkpt lat="43.49074" lon="6.18903">
        <ele>198.2</ele>
        <time>2024-03-27T15:59:21Z</time>
      </trkpt>
      <trkpt lat="43.49074" lon="6.18903">
        <ele>198.4</ele>
        <time>2024-03-27T15:59:22Z</time>
      </trkpt>
      <trkpt lat="43.49073" lon="6.18902">
        <ele>198.5</ele>
        <time>2024-03-27T15:59:23Z</time>
      </trkpt>
      <trkpt lat="43.49072" lon="6.18903">
        <ele>198.6</ele>
        <time>2024-03-27T15:59:24Z</time>
      </trkpt>
      <trkpt lat="43.49071" lon="6.18903">
        <ele>198.7</ele>
        <time>2024-03-27T15:59:25Z</time>
      </trkpt>
      <trkpt lat="43.49071" lon="6.18903">
        <ele>198.8</ele>
        <time>2024-03-27T15:59:26Z</time>
      </trkpt>
      <trkpt lat="43.4907" lon="6.18903">
        <ele>198.8</ele>
        <time>2024-03-27T15:59:27Z</time>
      </trkpt>
      <trkpt lat="43.4907" lon="6.18904">
        <ele>198.9</ele>
        <time>2024-03-27T15:59:28Z</time>
      </trkpt>
      <trkpt lat="43.4907" lon="6.18905">
        <ele>199</ele>
        <time>2024-03-27T15:59:29Z</time>
      </trkpt>
      <trkpt lat="43.49069" lon="6.18905">
        <ele>199</ele>
        <time>2024-03-27T15:59:30Z</time>
      </trkpt>
      <trkpt lat="43.49069" lon="6.18906">
        <ele>199.2</ele>
        <time>2024-03-27T15:59:31Z</time>
      </trkpt>
      <trkpt lat="43.49068" lon="6.18907">
        <ele>199.4</ele>
        <time>2024-03-27T15:59:32Z</time>
      </trkpt>
      <trkpt lat="43.49068" lon="6.18908">
        <ele>199.6</ele>
        <time>2024-03-27T15:59:33Z</time>
      </trkpt>
      <trkpt lat="43.49067" lon="6.18908">
        <ele>199.7</ele>
        <time>2024-03-27T15:59:34Z</time>
      </trkpt>
      <trkpt lat="43.49066" lon="6.18908">
        <ele>199.8</ele>
        <time>2024-03-27T15:59:35Z</time>
      </trkpt>
      <trkpt lat="43.49065" lon="6.18908">
        <ele>199.9</ele>
        <time>2024-03-27T15:59:36Z</time>
      </trkpt>
      <trkpt lat="43.49065" lon="6.18908">
        <ele>199.8</ele>
        <time>2024-03-27T15:59:37Z</time>
      </trkpt>
      <trkpt lat="43.49064" lon="6.18908">
        <ele>199.9</ele>
        <time>2024-03-27T15:59:38Z</time>
      </trkpt>
      <trkpt lat="43.49063" lon="6.18908">
        <ele>200</ele>
        <time>2024-03-27T15:59:39Z</time>
      </trkpt>
      <trkpt lat="43.49062" lon="6.18907">
        <ele>200.1</ele>
        <time>2024-03-27T15:59:40Z</time>
      </trkpt>
      <trkpt lat="43.49061" lon="6.18908">
        <ele>200.2</ele>
        <time>2024-03-27T15:59:41Z</time>
      </trkpt>
      <trkpt lat="43.49061" lon="6.18907">
        <ele>200.3</ele>
        <time>2024-03-27T15:59:42Z</time>
      </trkpt>
      <trkpt lat="43.4906" lon="6.18907">
        <ele>200.5</ele>
        <time>2024-03-27T15:59:43Z</time>
      </trkpt>
      <trkpt lat="43.4906" lon="6.18906">
        <ele>200.7</ele>
        <time>2024-03-27T15:59:44Z</time>
      </trkpt>
      <trkpt lat="43.4906" lon="6.18906">
        <ele>200.8</ele>
        <time>2024-03-27T15:59:45Z</time>
      </trkpt>
      <trkpt lat="43.4906" lon="6.18905">
        <ele>201</ele>
        <time>2024-03-27T15:59:46Z</time>
      </trkpt>
      <trkpt lat="43.4906" lon="6.18904">
        <ele>201.1</ele>
        <time>2024-03-27T15:59:47Z</time>
      </trkpt>
      <trkpt lat="43.49059" lon="6.18903">
        <ele>201.2</ele>
        <time>2024-03-27T15:59:48Z</time>
      </trkpt>
      <trkpt lat="43.49059" lon="6.18902">
        <ele>201.2</ele>
        <time>2024-03-27T15:59:49Z</time>
      </trkpt>
      <trkpt lat="43.49058" lon="6.18901">
        <ele>201.3</ele>
        <time>2024-03-27T15:59:50Z</time>
      </trkpt>
      <trkpt lat="43.49058" lon="6.189">
        <ele>201.3</ele>
        <time>2024-03-27T15:59:51Z</time>
      </trkpt>
      <trkpt lat="43.49058" lon="6.18898">
        <ele>201.3</ele>
        <time>2024-03-27T15:59:52Z</time>
      </trkpt>
      <trkpt lat="43.49058" lon="6.18898">
        <ele>201.3</ele>
        <time>2024-03-27T15:59:53Z</time>
      </trkpt>
      <trkpt lat="43.49057" lon="6.18897">
        <ele>201.4</ele>
        <time>2024-03-27T15:59:54Z</time>
      </trkpt>
      <trkpt lat="43.49057" lon="6.18896">
        <ele>201.4</ele>
        <time>2024-03-27T15:59:55Z</time>
      </trkpt>
      <trkpt lat="43.49057" lon="6.18895">
        <ele>201.4</ele>
        <time>2024-03-27T15:59:56Z</time>
      </trkpt>
      <trkpt lat="43.49057" lon="6.18894">
        <ele>201.5</ele>
        <time>2024-03-27T15:59:57Z</time>
      </trkpt>
      <trkpt lat="43.49057" lon="6.18892">
        <ele>201.5</ele>
        <time>2024-03-27T15:59:58Z</time>
      </trkpt>
      <trkpt lat="43.49057" lon="6.18891">
        <ele>201.5</ele>
        <time>2024-03-27T15:59:59Z</time>
      </trkpt>
      <trkpt lat="43.49056" lon="6.1889">
        <ele>201.5</ele>
        <time>2024-03-27T16:00:00Z</time>
      </trkpt>
      <trkpt lat="43.49056" lon="6.18889">
        <ele>201.6</ele>
        <time>2024-03-27T16:00:01Z</time>
      </trkpt>
      <trkpt lat="43.49057" lon="6.18887">
        <ele>201.7</ele>
        <time>2024-03-27T16:00:02Z</time>
      </trkpt>
      <trkpt lat="43.49057" lon="6.18886">
        <ele>201.8</ele>
        <time>2024-03-27T16:00:03Z</time>
      </trkpt>
      <trkpt lat="43.49057" lon="6.18886">
        <ele>201.8</ele>
        <time>2024-03-27T16:00:04Z</time>
      </trkpt>
      <trkpt lat="43.49057" lon="6.18884">
        <ele>201.9</ele>
        <time>2024-03-27T16:00:05Z</time>
      </trkpt>
      <trkpt lat="43.49056" lon="6.18883">
        <ele>201.9</ele>
        <time>2024-03-27T16:00:06Z</time>
      </trkpt>
      <trkpt lat="43.49056" lon="6.18882">
        <ele>201.9</ele>
        <time>2024-03-27T16:00:07Z</time>
      </trkpt>
      <trkpt lat="43.49056" lon="6.18881">
        <ele>201.9</ele>
        <time>2024-03-27T16:00:08Z</time>
      </trkpt>
      <trkpt lat="43.49057" lon="6.1888">
        <ele>201.9</ele>
        <time>2024-03-27T16:00:09Z</time>
      </trkpt>
      <trkpt lat="43.49057" lon="6.18878">
        <ele>201.9</ele>
        <time>2024-03-27T16:00:10Z</time>
      </trkpt>
      <trkpt lat="43.49057" lon="6.18877">
        <ele>202</ele>
        <time>2024-03-27T16:00:11Z</time>
      </trkpt>
      <trkpt lat="43.49056" lon="6.18875">
        <ele>202.1</ele>
        <time>2024-03-27T16:00:12Z</time>
      </trkpt>
      <trkpt lat="43.49057" lon="6.18874">
        <ele>202.2</ele>
        <time>2024-03-27T16:00:13Z</time>
      </trkpt>
      <trkpt lat="43.49056" lon="6.18873">
        <ele>202.2</ele>
        <time>2024-03-27T16:00:14Z</time>
      </trkpt>
      <trkpt lat="43.49056" lon="6.18871">
        <ele>202.3</ele>
        <time>2024-03-27T16:00:15Z</time>
      </trkpt>
      <trkpt lat="43.49055" lon="6.1887">
        <ele>202.3</ele>
        <time>2024-03-27T16:00:16Z</time>
      </trkpt>
      <trkpt lat="43.49054" lon="6.18869">
        <ele>202.4</ele>
        <time>2024-03-27T16:00:17Z</time>
      </trkpt>
      <trkpt lat="43.49053" lon="6.18869">
        <ele>202.5</ele>
        <time>2024-03-27T16:00:18Z</time>
      </trkpt>
      <trkpt lat="43.49053" lon="6.18868">
        <ele>202.4</ele>
        <time>2024-03-27T16:00:19Z</time>
      </trkpt>
      <trkpt lat="43.49052" lon="6.18868">
        <ele>202.5</ele>
        <time>2024-03-27T16:00:20Z</time>
      </trkpt>
      <trkpt lat="43.49052" lon="6.18867">
        <ele>202.5</ele>
        <time>2024-03-27T16:00:21Z</time>
      </trkpt>
      <trkpt lat="43.49051" lon="6.18866">
        <ele>202.6</ele>
        <time>2024-03-27T16:00:22Z</time>
      </trkpt>
      <trkpt lat="43.4905" lon="6.18866">
        <ele>202.6</ele>
        <time>2024-03-27T16:00:23Z</time>
      </trkpt>
      <trkpt lat="43.49049" lon="6.18866">
        <ele>202.6</ele>
        <time>2024-03-27T16:00:24Z</time>
      </trkpt>
      <trkpt lat="43.49049" lon="6.18865">
        <ele>202.8</ele>
        <time>2024-03-27T16:00:25Z</time>
      </trkpt>
      <trkpt lat="43.49049" lon="6.18863">
        <ele>202.8</ele>
        <time>2024-03-27T16:00:26Z</time>
      </trkpt>
      <trkpt lat="43.49048" lon="6.18862">
        <ele>202.9</ele>
        <time>2024-03-27T16:00:27Z</time>
      </trkpt>
      <trkpt lat="43.49048" lon="6.18861">
        <ele>203</ele>
        <time>2024-03-27T16:00:28Z</time>
      </trkpt>
      <trkpt lat="43.49047" lon="6.18861">
        <ele>203.1</ele>
        <time>2024-03-27T16:00:29Z</time>
      </trkpt>
      <trkpt lat="43.49046" lon="6.1886">
        <ele>203.3</ele>
        <time>2024-03-27T16:00:30Z</time>
      </trkpt>
      <trkpt lat="43.49045" lon="6.18859">
        <ele>203.3</ele>
        <time>2024-03-27T16:00:31Z</time>
      </trkpt>
      <trkpt lat="43.49044" lon="6.18858">
        <ele>203.4</ele>
        <time>2024-03-27T16:00:32Z</time>
      </trkpt>
      <trkpt lat="43.49044" lon="6.18857">
        <ele>203.5</ele>
        <time>2024-03-27T16:00:33Z</time>
      </trkpt>
      <trkpt lat="43.49044" lon="6.18856">
        <ele>203.6</ele>
        <time>2024-03-27T16:00:34Z</time>
      </trkpt>
      <trkpt lat="43.49044" lon="6.18855">
        <ele>203.6</ele>
        <time>2024-03-27T16:00:35Z</time>
      </trkpt>
      <trkpt lat="43.49044" lon="6.18854">
        <ele>203.7</ele>
        <time>2024-03-27T16:00:36Z</time>
      </trkpt>
      <trkpt lat="43.49044" lon="6.18853">
        <ele>203.9</ele>
        <time>2024-03-27T16:00:37Z</time>
      </trkpt>
      <trkpt lat="43.49044" lon="6.18851">
        <ele>204</ele>
        <time>2024-03-27T16:00:38Z</time>
      </trkpt>
      <trkpt lat="43.49043" lon="6.1885">
        <ele>204.1</ele>
        <time>2024-03-27T16:00:39Z</time>
      </trkpt>
      <trkpt lat="43.49043" lon="6.18849">
        <ele>204.2</ele>
        <time>2024-03-27T16:00:40Z</time>
      </trkpt>
      <trkpt lat="43.49043" lon="6.18848">
        <ele>204.3</ele>
        <time>2024-03-27T16:00:41Z</time>
      </trkpt>
      <trkpt lat="43.49044" lon="6.18847">
        <ele>204.4</ele>
        <time>2024-03-27T16:00:42Z</time>
      </trkpt>
      <trkpt lat="43.49043" lon="6.18846">
        <ele>204.5</ele>
        <time>2024-03-27T16:00:43Z</time>
      </trkpt>
      <trkpt lat="43.49043" lon="6.18845">
        <ele>204.5</ele>
        <time>2024-03-27T16:00:44Z</time>
      </trkpt>
      <trkpt lat="43.49043" lon="6.18844">
        <ele>204.6</ele>
        <time>2024-03-27T16:00:45Z</time>
      </trkpt>
      <trkpt lat="43.49043" lon="6.18842">
        <ele>204.6</ele>
        <time>2024-03-27T16:00:46Z</time>
      </trkpt>
      <trkpt lat="43.49043" lon="6.18841">
        <ele>204.7</ele>
        <time>2024-03-27T16:00:47Z</time>
      </trkpt>
      <trkpt lat="43.49042" lon="6.1884">
        <ele>204.8</ele>
        <time>2024-03-27T16:00:48Z</time>
      </trkpt>
      <trkpt lat="43.49043" lon="6.18839">
        <ele>204.8</ele>
        <time>2024-03-27T16:00:49Z</time>
      </trkpt>
      <trkpt lat="43.49043" lon="6.18837">
        <ele>204.9</ele>
        <time>2024-03-27T16:00:50Z</time>
      </trkpt>
      <trkpt lat="43.49043" lon="6.18835">
        <ele>204.9</ele>
        <time>2024-03-27T16:00:51Z</time>
      </trkpt>
      <trkpt lat="43.49043" lon="6.18834">
        <ele>205</ele>
        <time>2024-03-27T16:00:52Z</time>
      </trkpt>
      <trkpt lat="43.49043" lon="6.18832">
        <ele>204.9</ele>
        <time>2024-03-27T16:00:53Z</time>
      </trkpt>
      <trkpt lat="43.49043" lon="6.1883">
        <ele>205</ele>
        <time>2024-03-27T16:00:54Z</time>
      </trkpt>
      <trkpt lat="43.49042" lon="6.18829">
        <ele>205</ele>
        <time>2024-03-27T16:00:55Z</time>
      </trkpt>
      <trkpt lat="43.49042" lon="6.18827">
        <ele>205.1</ele>
        <time>2024-03-27T16:00:56Z</time>
      </trkpt>
      <trkpt lat="43.49042" lon="6.18826">
        <ele>205.1</ele>
        <time>2024-03-27T16:00:57Z</time>
      </trkpt>
      <trkpt lat="43.49042" lon="6.18824">
        <ele>205.1</ele>
        <time>2024-03-27T16:00:58Z</time>
      </trkpt>
      <trkpt lat="43.49042" lon="6.18822">
        <ele>205.2</ele>
        <time>2024-03-27T16:00:59Z</time>
      </trkpt>
      <trkpt lat="43.49042" lon="6.1882">
        <ele>205.3</ele>
        <time>2024-03-27T16:01:00Z</time>
      </trkpt>
      <trkpt lat="43.49041" lon="6.18818">
        <ele>205.3</ele>
        <time>2024-03-27T16:01:01Z</time>
      </trkpt>
      <trkpt lat="43.49041" lon="6.18817">
        <ele>205.4</ele>
        <time>2024-03-27T16:01:02Z</time>
      </trkpt>
      <trkpt lat="43.4904" lon="6.18815">
        <ele>205.4</ele>
        <time>2024-03-27T16:01:03Z</time>
      </trkpt>
      <trkpt lat="43.4904" lon="6.18814">
        <ele>205.4</ele>
        <time>2024-03-27T16:01:04Z</time>
      </trkpt>
      <trkpt lat="43.49039" lon="6.18813">
        <ele>205.4</ele>
        <time>2024-03-27T16:01:05Z</time>
      </trkpt>
      <trkpt lat="43.49039" lon="6.18812">
        <ele>205.5</ele>
        <time>2024-03-27T16:01:06Z</time>
      </trkpt>
      <trkpt lat="43.49039" lon="6.18811">
        <ele>205.5</ele>
        <time>2024-03-27T16:01:07Z</time>
      </trkpt>
      <trkpt lat="43.49039" lon="6.18809">
        <ele>205.5</ele>
        <time>2024-03-27T16:01:08Z</time>
      </trkpt>
      <trkpt lat="43.49038" lon="6.18808">
        <ele>205.5</ele>
        <time>2024-03-27T16:01:09Z</time>
      </trkpt>
      <trkpt lat="43.49038" lon="6.18807">
        <ele>205.5</ele>
        <time>2024-03-27T16:01:10Z</time>
      </trkpt>
      <trkpt lat="43.49037" lon="6.18805">
        <ele>205.5</ele>
        <time>2024-03-27T16:01:11Z</time>
      </trkpt>
      <trkpt lat="43.49037" lon="6.18803">
        <ele>205.5</ele>
        <time>2024-03-27T16:01:12Z</time>
      </trkpt>
      <trkpt lat="43.49036" lon="6.18801">
        <ele>205.5</ele>
        <time>2024-03-27T16:01:13Z</time>
      </trkpt>
      <trkpt lat="43.49036" lon="6.188">
        <ele>205.6</ele>
        <time>2024-03-27T16:01:14Z</time>
      </trkpt>
      <trkpt lat="43.49035" lon="6.18798">
        <ele>205.8</ele>
        <time>2024-03-27T16:01:15Z</time>
      </trkpt>
      <trkpt lat="43.49034" lon="6.18797">
        <ele>205.9</ele>
        <time>2024-03-27T16:01:16Z</time>
      </trkpt>
      <trkpt lat="43.49033" lon="6.18796">
        <ele>206</ele>
        <time>2024-03-27T16:01:17Z</time>
      </trkpt>
      <trkpt lat="43.49033" lon="6.18795">
        <ele>206</ele>
        <time>2024-03-27T16:01:18Z</time>
      </trkpt>
      <trkpt lat="43.49032" lon="6.18794">
        <ele>206.1</ele>
        <time>2024-03-27T16:01:19Z</time>
      </trkpt>
      <trkpt lat="43.49031" lon="6.18792">
        <ele>206.1</ele>
        <time>2024-03-27T16:01:20Z</time>
      </trkpt>
      <trkpt lat="43.4903" lon="6.18791">
        <ele>206.1</ele>
        <time>2024-03-27T16:01:21Z</time>
      </trkpt>
      <trkpt lat="43.4903" lon="6.18789">
        <ele>206.2</ele>
        <time>2024-03-27T16:01:22Z</time>
      </trkpt>
      <trkpt lat="43.49029" lon="6.18787">
        <ele>206.3</ele>
        <time>2024-03-27T16:01:23Z</time>
      </trkpt>
      <trkpt lat="43.49029" lon="6.18785">
        <ele>206.4</ele>
        <time>2024-03-27T16:01:24Z</time>
      </trkpt>
      <trkpt lat="43.49028" lon="6.18784">
        <ele>206.5</ele>
        <time>2024-03-27T16:01:25Z</time>
      </trkpt>
      <trkpt lat="43.49027" lon="6.18783">
        <ele>206.6</ele>
        <time>2024-03-27T16:01:26Z</time>
      </trkpt>
      <trkpt lat="43.49026" lon="6.18782">
        <ele>206.7</ele>
        <time>2024-03-27T16:01:27Z</time>
      </trkpt>
      <trkpt lat="43.49025" lon="6.18781">
        <ele>206.8</ele>
        <time>2024-03-27T16:01:28Z</time>
      </trkpt>
      <trkpt lat="43.49025" lon="6.1878">
        <ele>206.9</ele>
        <time>2024-03-27T16:01:29Z</time>
      </trkpt>
      <trkpt lat="43.49024" lon="6.18778">
        <ele>207</ele>
        <time>2024-03-27T16:01:30Z</time>
      </trkpt>
      <trkpt lat="43.49024" lon="6.18777">
        <ele>207</ele>
        <time>2024-03-27T16:01:31Z</time>
      </trkpt>
      <trkpt lat="43.49023" lon="6.18775">
        <ele>207.2</ele>
        <time>2024-03-27T16:01:32Z</time>
      </trkpt>
      <trkpt lat="43.49021" lon="6.18774">
        <ele>207.2</ele>
        <time>2024-03-27T16:01:33Z</time>
      </trkpt>
      <trkpt lat="43.49021" lon="6.18773">
        <ele>207.3</ele>
        <time>2024-03-27T16:01:34Z</time>
      </trkpt>
      <trkpt lat="43.49021" lon="6.18771">
        <ele>207.4</ele>
        <time>2024-03-27T16:01:35Z</time>
      </trkpt>
      <trkpt lat="43.4902" lon="6.1877">
        <ele>207.4</ele>
        <time>2024-03-27T16:01:36Z</time>
      </trkpt>
      <trkpt lat="43.49019" lon="6.18769">
        <ele>207.4</ele>
        <time>2024-03-27T16:01:37Z</time>
      </trkpt>
      <trkpt lat="43.49019" lon="6.18768">
        <ele>207.4</ele>
        <time>2024-03-27T16:01:38Z</time>
      </trkpt>
      <trkpt lat="43.4902" lon="6.18768">
        <ele>207.5</ele>
        <time>2024-03-27T16:01:39Z</time>
      </trkpt>
      <trkpt lat="43.49019" lon="6.18768">
        <ele>207.4</ele>
        <time>2024-03-27T16:01:40Z</time>
      </trkpt>
      <trkpt lat="43.49018" lon="6.18766">
        <ele>207.5</ele>
        <time>2024-03-27T16:01:41Z</time>
      </trkpt>
      <trkpt lat="43.49017" lon="6.18764">
        <ele>207.5</ele>
        <time>2024-03-27T16:01:42Z</time>
      </trkpt>
      <trkpt lat="43.49017" lon="6.18762">
        <ele>207.5</ele>
        <time>2024-03-27T16:01:43Z</time>
      </trkpt>
      <trkpt lat="43.49017" lon="6.18761">
        <ele>207.5</ele>
        <time>2024-03-27T16:01:44Z</time>
      </trkpt>
      <trkpt lat="43.49017" lon="6.1876">
        <ele>207.4</ele>
        <time>2024-03-27T16:01:45Z</time>
      </trkpt>
      <trkpt lat="43.49018" lon="6.18759">
        <ele>207.4</ele>
        <time>2024-03-27T16:01:46Z</time>
      </trkpt>
      <trkpt lat="43.49018" lon="6.18758">
        <ele>207.4</ele>
        <time>2024-03-27T16:01:47Z</time>
      </trkpt>
      <trkpt lat="43.49018" lon="6.18756">
        <ele>207.4</ele>
        <time>2024-03-27T16:01:48Z</time>
      </trkpt>
      <trkpt lat="43.49019" lon="6.18755">
        <ele>207.4</ele>
        <time>2024-03-27T16:01:49Z</time>
      </trkpt>
      <trkpt lat="43.4902" lon="6.18754">
        <ele>207.3</ele>
        <time>2024-03-27T16:01:50Z</time>
      </trkpt>
      <trkpt lat="43.4902" lon="6.18752">
        <ele>207.2</ele>
        <time>2024-03-27T16:01:51Z</time>
      </trkpt>
      <trkpt lat="43.4902" lon="6.1875">
        <ele>207.1</ele>
        <time>2024-03-27T16:01:52Z</time>
      </trkpt>
      <trkpt lat="43.49019" lon="6.18748">
        <ele>207.1</ele>
        <time>2024-03-27T16:01:53Z</time>
      </trkpt>
      <trkpt lat="43.49019" lon="6.18747">
        <ele>207</ele>
        <time>2024-03-27T16:01:54Z</time>
      </trkpt>
      <trkpt lat="43.49019" lon="6.18745">
        <ele>207</ele>
        <time>2024-03-27T16:01:55Z</time>
      </trkpt>
      <trkpt lat="43.4902" lon="6.18744">
        <ele>206.9</ele>
        <time>2024-03-27T16:01:56Z</time>
      </trkpt>
      <trkpt lat="43.4902" lon="6.18742">
        <ele>206.9</ele>
        <time>2024-03-27T16:01:57Z</time>
      </trkpt>
      <trkpt lat="43.4902" lon="6.18741">
        <ele>206.8</ele>
        <time>2024-03-27T16:01:58Z</time>
      </trkpt>
      <trkpt lat="43.4902" lon="6.18739">
        <ele>206.8</ele>
        <time>2024-03-27T16:01:59Z</time>
      </trkpt>
      <trkpt lat="43.4902" lon="6.18738">
        <ele>206.8</ele>
        <time>2024-03-27T16:02:00Z</time>
      </trkpt>
      <trkpt lat="43.4902" lon="6.18737">
        <ele>206.7</ele>
        <time>2024-03-27T16:02:01Z</time>
      </trkpt>
      <trkpt lat="43.4902" lon="6.18735">
        <ele>206.7</ele>
        <time>2024-03-27T16:02:02Z</time>
      </trkpt>
      <trkpt lat="43.4902" lon="6.18733">
        <ele>206.6</ele>
        <time>2024-03-27T16:02:03Z</time>
      </trkpt>
      <trkpt lat="43.4902" lon="6.18732">
        <ele>206.6</ele>
        <time>2024-03-27T16:02:04Z</time>
      </trkpt>
      <trkpt lat="43.49019" lon="6.1873">
        <ele>206.6</ele>
        <time>2024-03-27T16:02:05Z</time>
      </trkpt>
      <trkpt lat="43.49018" lon="6.18728">
        <ele>206.6</ele>
        <time>2024-03-27T16:02:06Z</time>
      </trkpt>
      <trkpt lat="43.49018" lon="6.18726">
        <ele>206.5</ele>
        <time>2024-03-27T16:02:07Z</time>
      </trkpt>
      <trkpt lat="43.49019" lon="6.18725">
        <ele>206.6</ele>
        <time>2024-03-27T16:02:08Z</time>
      </trkpt>
      <trkpt lat="43.49018" lon="6.18724">
        <ele>206.6</ele>
        <time>2024-03-27T16:02:09Z</time>
      </trkpt>
      <trkpt lat="43.49017" lon="6.18722">
        <ele>206.5</ele>
        <time>2024-03-27T16:02:10Z</time>
      </trkpt>
      <trkpt lat="43.49016" lon="6.18721">
        <ele>206.3</ele>
        <time>2024-03-27T16:02:11Z</time>
      </trkpt>
      <trkpt lat="43.49016" lon="6.1872">
        <ele>206.3</ele>
        <time>2024-03-27T16:02:12Z</time>
      </trkpt>
      <trkpt lat="43.49015" lon="6.18718">
        <ele>206.3</ele>
        <time>2024-03-27T16:02:13Z</time>
      </trkpt>
      <trkpt lat="43.49014" lon="6.18715">
        <ele>206.4</ele>
        <time>2024-03-27T16:02:14Z</time>
      </trkpt>
      <trkpt lat="43.49013" lon="6.18713">
        <ele>206.4</ele>
        <time>2024-03-27T16:02:15Z</time>
      </trkpt>
      <trkpt lat="43.49012" lon="6.18711">
        <ele>206.5</ele>
        <time>2024-03-27T16:02:16Z</time>
      </trkpt>
      <trkpt lat="43.4901" lon="6.1871">
        <ele>206.4</ele>
        <time>2024-03-27T16:02:17Z</time>
      </trkpt>
      <trkpt lat="43.4901" lon="6.18708">
        <ele>206.3</ele>
        <time>2024-03-27T16:02:18Z</time>
      </trkpt>
      <trkpt lat="43.49009" lon="6.18706">
        <ele>206.4</ele>
        <time>2024-03-27T16:02:19Z</time>
      </trkpt>
      <trkpt lat="43.49009" lon="6.18705">
        <ele>206.4</ele>
        <time>2024-03-27T16:02:20Z</time>
      </trkpt>
      <trkpt lat="43.49009" lon="6.18703">
        <ele>206.4</ele>
        <time>2024-03-27T16:02:21Z</time>
      </trkpt>
      <trkpt lat="43.49008" lon="6.18701">
        <ele>206.3</ele>
        <time>2024-03-27T16:02:22Z</time>
      </trkpt>
      <trkpt lat="43.49007" lon="6.18699">
        <ele>206.3</ele>
        <time>2024-03-27T16:02:23Z</time>
      </trkpt>
      <trkpt lat="43.49007" lon="6.18697">
        <ele>206.2</ele>
        <time>2024-03-27T16:02:24Z</time>
      </trkpt>
      <trkpt lat="43.49006" lon="6.18695">
        <ele>206.2</ele>
        <time>2024-03-27T16:02:25Z</time>
      </trkpt>
      <trkpt lat="43.49006" lon="6.18694">
        <ele>206.1</ele>
        <time>2024-03-27T16:02:26Z</time>
      </trkpt>
      <trkpt lat="43.49006" lon="6.18692">
        <ele>206.1</ele>
        <time>2024-03-27T16:02:27Z</time>
      </trkpt>
      <trkpt lat="43.49005" lon="6.1869">
        <ele>206</ele>
        <time>2024-03-27T16:02:28Z</time>
      </trkpt>
      <trkpt lat="43.49006" lon="6.18689">
        <ele>206</ele>
        <time>2024-03-27T16:02:29Z</time>
      </trkpt>
      <trkpt lat="43.49006" lon="6.18687">
        <ele>206</ele>
        <time>2024-03-27T16:02:30Z</time>
      </trkpt>
      <trkpt lat="43.49006" lon="6.18686">
        <ele>205.8</ele>
        <time>2024-03-27T16:02:31Z</time>
      </trkpt>
      <trkpt lat="43.49005" lon="6.18684">
        <ele>205.6</ele>
        <time>2024-03-27T16:02:32Z</time>
      </trkpt>
      <trkpt lat="43.49005" lon="6.18682">
        <ele>205.4</ele>
        <time>2024-03-27T16:02:33Z</time>
      </trkpt>
      <trkpt lat="43.49005" lon="6.1868">
        <ele>205.3</ele>
        <time>2024-03-27T16:02:34Z</time>
      </trkpt>
      <trkpt lat="43.49006" lon="6.18679">
        <ele>205.1</ele>
        <time>2024-03-27T16:02:35Z</time>
      </trkpt>
      <trkpt lat="43.49006" lon="6.18677">
        <ele>205.1</ele>
        <time>2024-03-27T16:02:36Z</time>
      </trkpt>
      <trkpt lat="43.49006" lon="6.18675">
        <ele>205</ele>
        <time>2024-03-27T16:02:37Z</time>
      </trkpt>
      <trkpt lat="43.49007" lon="6.18674">
        <ele>205</ele>
        <time>2024-03-27T16:02:38Z</time>
      </trkpt>
      <trkpt lat="43.49007" lon="6.18672">
        <ele>204.9</ele>
        <time>2024-03-27T16:02:39Z</time>
      </trkpt>
      <trkpt lat="43.49008" lon="6.1867">
        <ele>205</ele>
        <time>2024-03-27T16:02:40Z</time>
      </trkpt>
      <trkpt lat="43.49008" lon="6.18669">
        <ele>205</ele>
        <time>2024-03-27T16:02:41Z</time>
      </trkpt>
      <trkpt lat="43.49008" lon="6.18668">
        <ele>204.8</ele>
        <time>2024-03-27T16:02:42Z</time>
      </trkpt>
      <trkpt lat="43.49007" lon="6.18667">
        <ele>204.7</ele>
        <time>2024-03-27T16:02:43Z</time>
      </trkpt>
      <trkpt lat="43.49008" lon="6.18665">
        <ele>204.7</ele>
        <time>2024-03-27T16:02:44Z</time>
      </trkpt>
      <trkpt lat="43.49008" lon="6.18664">
        <ele>204.7</ele>
        <time>2024-03-27T16:02:45Z</time>
      </trkpt>
      <trkpt lat="43.49008" lon="6.18663">
        <ele>204.7</ele>
        <time>2024-03-27T16:02:46Z</time>
      </trkpt>
      <trkpt lat="43.49008" lon="6.18663">
        <ele>204.7</ele>
        <time>2024-03-27T16:02:47Z</time>
      </trkpt>
      <trkpt lat="43.49008" lon="6.18662">
        <ele>204.5</ele>
        <time>2024-03-27T16:02:48Z</time>
      </trkpt>
      <trkpt lat="43.49008" lon="6.1866">
        <ele>204.3</ele>
        <time>2024-03-27T16:02:49Z</time>
      </trkpt>
      <trkpt lat="43.49008" lon="6.18657">
        <ele>204.2</ele>
        <time>2024-03-27T16:02:50Z</time>
      </trkpt>
      <trkpt lat="43.49008" lon="6.18656">
        <ele>204.1</ele>
        <time>2024-03-27T16:02:51Z</time>
      </trkpt>
      <trkpt lat="43.49008" lon="6.18654">
        <ele>204</ele>
        <time>2024-03-27T16:02:52Z</time>
      </trkpt>
      <trkpt lat="43.49007" lon="6.18652">
        <ele>204</ele>
        <time>2024-03-27T16:02:53Z</time>
      </trkpt>
      <trkpt lat="43.49008" lon="6.18651">
        <ele>203.8</ele>
        <time>2024-03-27T16:02:54Z</time>
      </trkpt>
      <trkpt lat="43.49009" lon="6.1865">
        <ele>203.8</ele>
        <time>2024-03-27T16:02:55Z</time>
      </trkpt>
      <trkpt lat="43.4901" lon="6.18648">
        <ele>203.8</ele>
        <time>2024-03-27T16:02:56Z</time>
      </trkpt>
      <trkpt lat="43.49011" lon="6.18646">
        <ele>203.9</ele>
        <time>2024-03-27T16:02:57Z</time>
      </trkpt>
      <trkpt lat="43.49012" lon="6.18645">
        <ele>203.8</ele>
        <time>2024-03-27T16:02:58Z</time>
      </trkpt>
      <trkpt lat="43.49012" lon="6.18645">
        <ele>203.6</ele>
        <time>2024-03-27T16:02:59Z</time>
      </trkpt>
      <trkpt lat="43.49012" lon="6.18644">
        <ele>203.5</ele>
        <time>2024-03-27T16:03:00Z</time>
      </trkpt>
      <trkpt lat="43.49013" lon="6.18644">
        <ele>203.5</ele>
        <time>2024-03-27T16:03:01Z</time>
      </trkpt>
      <trkpt lat="43.49013" lon="6.18643">
        <ele>203.5</ele>
        <time>2024-03-27T16:03:02Z</time>
      </trkpt>
      <trkpt lat="43.49014" lon="6.18643">
        <ele>203.5</ele>
        <time>2024-03-27T16:03:03Z</time>
      </trkpt>
      <trkpt lat="43.49015" lon="6.18642">
        <ele>203.5</ele>
        <time>2024-03-27T16:03:04Z</time>
      </trkpt>
      <trkpt lat="43.49016" lon="6.1864">
        <ele>203.4</ele>
        <time>2024-03-27T16:03:05Z</time>
      </trkpt>
      <trkpt lat="43.49016" lon="6.18638">
        <ele>203.4</ele>
        <time>2024-03-27T16:03:06Z</time>
      </trkpt>
      <trkpt lat="43.49016" lon="6.18636">
        <ele>203.3</ele>
        <time>2024-03-27T16:03:07Z</time>
      </trkpt>
      <trkpt lat="43.49016" lon="6.18635">
        <ele>203.2</ele>
        <time>2024-03-27T16:03:08Z</time>
      </trkpt>
      <trkpt lat="43.49016" lon="6.18633">
        <ele>203.1</ele>
        <time>2024-03-27T16:03:09Z</time>
      </trkpt>
      <trkpt lat="43.49016" lon="6.18631">
        <ele>203</ele>
        <time>2024-03-27T16:03:10Z</time>
      </trkpt>
      <trkpt lat="43.49016" lon="6.18629">
        <ele>202.9</ele>
        <time>2024-03-27T16:03:11Z</time>
      </trkpt>
      <trkpt lat="43.49015" lon="6.18628">
        <ele>202.8</ele>
        <time>2024-03-27T16:03:12Z</time>
      </trkpt>
      <trkpt lat="43.49014" lon="6.18626">
        <ele>202.7</ele>
        <time>2024-03-27T16:03:13Z</time>
      </trkpt>
      <trkpt lat="43.49013" lon="6.18625">
        <ele>202.6</ele>
        <time>2024-03-27T16:03:14Z</time>
      </trkpt>
      <trkpt lat="43.49012" lon="6.18624">
        <ele>202.6</ele>
        <time>2024-03-27T16:03:15Z</time>
      </trkpt>
      <trkpt lat="43.49012" lon="6.18623">
        <ele>202.6</ele>
        <time>2024-03-27T16:03:16Z</time>
      </trkpt>
      <trkpt lat="43.49011" lon="6.18622">
        <ele>202.6</ele>
        <time>2024-03-27T16:03:17Z</time>
      </trkpt>
      <trkpt lat="43.4901" lon="6.1862">
        <ele>202.5</ele>
        <time>2024-03-27T16:03:18Z</time>
      </trkpt>
      <trkpt lat="43.49009" lon="6.18619">
        <ele>202.4</ele>
        <time>2024-03-27T16:03:19Z</time>
      </trkpt>
      <trkpt lat="43.49009" lon="6.18618">
        <ele>202.3</ele>
        <time>2024-03-27T16:03:20Z</time>
      </trkpt>
      <trkpt lat="43.49009" lon="6.18617">
        <ele>202.2</ele>
        <time>2024-03-27T16:03:21Z</time>
      </trkpt>
      <trkpt lat="43.49009" lon="6.18616">
        <ele>202.1</ele>
        <time>2024-03-27T16:03:22Z</time>
      </trkpt>
      <trkpt lat="43.49008" lon="6.18614">
        <ele>201.9</ele>
        <time>2024-03-27T16:03:23Z</time>
      </trkpt>
      <trkpt lat="43.49008" lon="6.18612">
        <ele>201.8</ele>
        <time>2024-03-27T16:03:24Z</time>
      </trkpt>
      <trkpt lat="43.49008" lon="6.18611">
        <ele>201.7</ele>
        <time>2024-03-27T16:03:25Z</time>
      </trkpt>
      <trkpt lat="43.49008" lon="6.18609">
        <ele>201.6</ele>
        <time>2024-03-27T16:03:26Z</time>
      </trkpt>
      <trkpt lat="43.49008" lon="6.18607">
        <ele>201.5</ele>
        <time>2024-03-27T16:03:27Z</time>
      </trkpt>
      <trkpt lat="43.49007" lon="6.18606">
        <ele>201.5</ele>
        <time>2024-03-27T16:03:28Z</time>
      </trkpt>
      <trkpt lat="43.49007" lon="6.18604">
        <ele>201.3</ele>
        <time>2024-03-27T16:03:29Z</time>
      </trkpt>
      <trkpt lat="43.49007" lon="6.18603">
        <ele>201.2</ele>
        <time>2024-03-27T16:03:30Z</time>
      </trkpt>
      <trkpt lat="43.49007" lon="6.18601">
        <ele>201.1</ele>
        <time>2024-03-27T16:03:31Z</time>
      </trkpt>
      <trkpt lat="43.49006" lon="6.186">
        <ele>201</ele>
        <time>2024-03-27T16:03:32Z</time>
      </trkpt>
      <trkpt lat="43.49005" lon="6.18599">
        <ele>200.9</ele>
        <time>2024-03-27T16:03:33Z</time>
      </trkpt>
      <trkpt lat="43.49004" lon="6.18599">
        <ele>200.8</ele>
        <time>2024-03-27T16:03:34Z</time>
      </trkpt>
      <trkpt lat="43.49004" lon="6.18598">
        <ele>200.7</ele>
        <time>2024-03-27T16:03:35Z</time>
      </trkpt>
      <trkpt lat="43.49003" lon="6.18597">
        <ele>200.5</ele>
        <time>2024-03-27T16:03:36Z</time>
      </trkpt>
      <trkpt lat="43.49002" lon="6.18595">
        <ele>200.4</ele>
        <time>2024-03-27T16:03:37Z</time>
      </trkpt>
      <trkpt lat="43.49001" lon="6.18594">
        <ele>200.2</ele>
        <time>2024-03-27T16:03:38Z</time>
      </trkpt>
      <trkpt lat="43.49001" lon="6.18592">
        <ele>200.1</ele>
        <time>2024-03-27T16:03:39Z</time>
      </trkpt>
      <trkpt lat="43.49" lon="6.18591">
        <ele>199.9</ele>
        <time>2024-03-27T16:03:40Z</time>
      </trkpt>
      <trkpt lat="43.48999" lon="6.1859">
        <ele>199.8</ele>
        <time>2024-03-27T16:03:41Z</time>
      </trkpt>
      <trkpt lat="43.48998" lon="6.18588">
        <ele>199.7</ele>
        <time>2024-03-27T16:03:42Z</time>
      </trkpt>
      <trkpt lat="43.48997" lon="6.18587">
        <ele>199.7</ele>
        <time>2024-03-27T16:03:43Z</time>
      </trkpt>
      <trkpt lat="43.48997" lon="6.18586">
        <ele>199.6</ele>
        <time>2024-03-27T16:03:44Z</time>
      </trkpt>
      <trkpt lat="43.48997" lon="6.18585">
        <ele>199.6</ele>
        <time>2024-03-27T16:03:45Z</time>
      </trkpt>
      <trkpt lat="43.48996" lon="6.18584">
        <ele>199.5</ele>
        <time>2024-03-27T16:03:46Z</time>
      </trkpt>
      <trkpt lat="43.48995" lon="6.18583">
        <ele>199.6</ele>
        <time>2024-03-27T16:03:47Z</time>
      </trkpt>
      <trkpt lat="43.48994" lon="6.18582">
        <ele>199.6</ele>
        <time>2024-03-27T16:03:48Z</time>
      </trkpt>
      <trkpt lat="43.48992" lon="6.18581">
        <ele>199.5</ele>
        <time>2024-03-27T16:03:49Z</time>
      </trkpt>
      <trkpt lat="43.48991" lon="6.1858">
        <ele>199.4</ele>
        <time>2024-03-27T16:03:50Z</time>
      </trkpt>
      <trkpt lat="43.48989" lon="6.18578">
        <ele>199.3</ele>
        <time>2024-03-27T16:03:51Z</time>
      </trkpt>
      <trkpt lat="43.48988" lon="6.18577">
        <ele>199.3</ele>
        <time>2024-03-27T16:03:52Z</time>
      </trkpt>
      <trkpt lat="43.48987" lon="6.18575">
        <ele>199.2</ele>
        <time>2024-03-27T16:03:53Z</time>
      </trkpt>
      <trkpt lat="43.48986" lon="6.18574">
        <ele>199.2</ele>
        <time>2024-03-27T16:03:54Z</time>
      </trkpt>
      <trkpt lat="43.48985" lon="6.18572">
        <ele>199.1</ele>
        <time>2024-03-27T16:03:55Z</time>
      </trkpt>
      <trkpt lat="43.48984" lon="6.1857">
        <ele>199</ele>
        <time>2024-03-27T16:03:56Z</time>
      </trkpt>
      <trkpt lat="43.48984" lon="6.18569">
        <ele>198.9</ele>
        <time>2024-03-27T16:03:57Z</time>
      </trkpt>
      <trkpt lat="43.48983" lon="6.18567">
        <ele>198.9</ele>
        <time>2024-03-27T16:03:58Z</time>
      </trkpt>
      <trkpt lat="43.48983" lon="6.18565">
        <ele>198.8</ele>
        <time>2024-03-27T16:03:59Z</time>
      </trkpt>
      <trkpt lat="43.48982" lon="6.18563">
        <ele>198.7</ele>
        <time>2024-03-27T16:04:00Z</time>
      </trkpt>
      <trkpt lat="43.48981" lon="6.18562">
        <ele>198.6</ele>
        <time>2024-03-27T16:04:01Z</time>
      </trkpt>
      <trkpt lat="43.48981" lon="6.1856">
        <ele>198.5</ele>
        <time>2024-03-27T16:04:02Z</time>
      </trkpt>
      <trkpt lat="43.4898" lon="6.1856">
        <ele>198.4</ele>
        <time>2024-03-27T16:04:03Z</time>
      </trkpt>
      <trkpt lat="43.4898" lon="6.18558">
        <ele>198.1</ele>
        <time>2024-03-27T16:04:04Z</time>
      </trkpt>
      <trkpt lat="43.48979" lon="6.18557">
        <ele>198</ele>
        <time>2024-03-27T16:04:05Z</time>
      </trkpt>
      <trkpt lat="43.48978" lon="6.18555">
        <ele>197.9</ele>
        <time>2024-03-27T16:04:06Z</time>
      </trkpt>
      <trkpt lat="43.48978" lon="6.18553">
        <ele>197.7</ele>
        <time>2024-03-27T16:04:07Z</time>
      </trkpt>
      <trkpt lat="43.48977" lon="6.18552">
        <ele>197.6</ele>
        <time>2024-03-27T16:04:08Z</time>
      </trkpt>
      <trkpt lat="43.48976" lon="6.1855">
        <ele>197.5</ele>
        <time>2024-03-27T16:04:09Z</time>
      </trkpt>
      <trkpt lat="43.48975" lon="6.18548">
        <ele>197.4</ele>
        <time>2024-03-27T16:04:10Z</time>
      </trkpt>
      <trkpt lat="43.48975" lon="6.18547">
        <ele>197.4</ele>
        <time>2024-03-27T16:04:11Z</time>
      </trkpt>
      <trkpt lat="43.48974" lon="6.18545">
        <ele>197.2</ele>
        <time>2024-03-27T16:04:12Z</time>
      </trkpt>
      <trkpt lat="43.48973" lon="6.18544">
        <ele>197</ele>
        <time>2024-03-27T16:04:13Z</time>
      </trkpt>
      <trkpt lat="43.48972" lon="6.18543">
        <ele>196.8</ele>
        <time>2024-03-27T16:04:14Z</time>
      </trkpt>
      <trkpt lat="43.48972" lon="6.18541">
        <ele>196.7</ele>
        <time>2024-03-27T16:04:15Z</time>
      </trkpt>
      <trkpt lat="43.48971" lon="6.18539">
        <ele>196.5</ele>
        <time>2024-03-27T16:04:16Z</time>
      </trkpt>
      <trkpt lat="43.4897" lon="6.18538">
        <ele>196.5</ele>
        <time>2024-03-27T16:04:17Z</time>
      </trkpt>
      <trkpt lat="43.48969" lon="6.18537">
        <ele>196.4</ele>
        <time>2024-03-27T16:04:18Z</time>
      </trkpt>
      <trkpt lat="43.48968" lon="6.18535">
        <ele>196.3</ele>
        <time>2024-03-27T16:04:19Z</time>
      </trkpt>
      <trkpt lat="43.48966" lon="6.18533">
        <ele>196.3</ele>
        <time>2024-03-27T16:04:20Z</time>
      </trkpt>
      <trkpt lat="43.48966" lon="6.18531">
        <ele>196.2</ele>
        <time>2024-03-27T16:04:21Z</time>
      </trkpt>
      <trkpt lat="43.48966" lon="6.1853">
        <ele>196.1</ele>
        <time>2024-03-27T16:04:22Z</time>
      </trkpt>
      <trkpt lat="43.48966" lon="6.18528">
        <ele>196.1</ele>
        <time>2024-03-27T16:04:23Z</time>
      </trkpt>
      <trkpt lat="43.48966" lon="6.18527">
        <ele>195.9</ele>
        <time>2024-03-27T16:04:24Z</time>
      </trkpt>
      <trkpt lat="43.48966" lon="6.18526">
        <ele>195.8</ele>
        <time>2024-03-27T16:04:25Z</time>
      </trkpt>
      <trkpt lat="43.48966" lon="6.18525">
        <ele>195.7</ele>
        <time>2024-03-27T16:04:26Z</time>
      </trkpt>
      <trkpt lat="43.48966" lon="6.18524">
        <ele>195.6</ele>
        <time>2024-03-27T16:04:27Z</time>
      </trkpt>
      <trkpt lat="43.48967" lon="6.18522">
        <ele>195.5</ele>
        <time>2024-03-27T16:04:28Z</time>
      </trkpt>
      <trkpt lat="43.48968" lon="6.18521">
        <ele>195.4</ele>
        <time>2024-03-27T16:04:29Z</time>
      </trkpt>
      <trkpt lat="43.48968" lon="6.1852">
        <ele>195.4</ele>
        <time>2024-03-27T16:04:30Z</time>
      </trkpt>
      <trkpt lat="43.48968" lon="6.18518">
        <ele>195.4</ele>
        <time>2024-03-27T16:04:31Z</time>
      </trkpt>
      <trkpt lat="43.48968" lon="6.18517">
        <ele>195.3</ele>
        <time>2024-03-27T16:04:32Z</time>
      </trkpt>
      <trkpt lat="43.48968" lon="6.18516">
        <ele>195.2</ele>
        <time>2024-03-27T16:04:33Z</time>
      </trkpt>
      <trkpt lat="43.48968" lon="6.18515">
        <ele>195.1</ele>
        <time>2024-03-27T16:04:34Z</time>
      </trkpt>
      <trkpt lat="43.48968" lon="6.18513">
        <ele>194.9</ele>
        <time>2024-03-27T16:04:35Z</time>
      </trkpt>
      <trkpt lat="43.48968" lon="6.18512">
        <ele>194.8</ele>
        <time>2024-03-27T16:04:36Z</time>
      </trkpt>
      <trkpt lat="43.48967" lon="6.18511">
        <ele>194.8</ele>
        <time>2024-03-27T16:04:37Z</time>
      </trkpt>
      <trkpt lat="43.48966" lon="6.18509">
        <ele>194.6</ele>
        <time>2024-03-27T16:04:38Z</time>
      </trkpt>
      <trkpt lat="43.48964" lon="6.18508">
        <ele>194.5</ele>
        <time>2024-03-27T16:04:39Z</time>
      </trkpt>
      <trkpt lat="43.48964" lon="6.18507">
        <ele>194.4</ele>
        <time>2024-03-27T16:04:40Z</time>
      </trkpt>
      <trkpt lat="43.48963" lon="6.18505">
        <ele>194.3</ele>
        <time>2024-03-27T16:04:41Z</time>
      </trkpt>
      <trkpt lat="43.48962" lon="6.18504">
        <ele>194.2</ele>
        <time>2024-03-27T16:04:42Z</time>
      </trkpt>
      <trkpt lat="43.48961" lon="6.18502">
        <ele>194.1</ele>
        <time>2024-03-27T16:04:43Z</time>
      </trkpt>
      <trkpt lat="43.4896" lon="6.18501">
        <ele>194</ele>
        <time>2024-03-27T16:04:44Z</time>
      </trkpt>
      <trkpt lat="43.48959" lon="6.185">
        <ele>194</ele>
        <time>2024-03-27T16:04:45Z</time>
      </trkpt>
      <trkpt lat="43.48957" lon="6.18499">
        <ele>193.9</ele>
        <time>2024-03-27T16:04:46Z</time>
      </trkpt>
      <trkpt lat="43.48956" lon="6.18499">
        <ele>193.9</ele>
        <time>2024-03-27T16:04:47Z</time>
      </trkpt>
      <trkpt lat="43.48955" lon="6.18498">
        <ele>193.8</ele>
        <time>2024-03-27T16:04:48Z</time>
      </trkpt>
      <trkpt lat="43.48953" lon="6.18498">
        <ele>193.7</ele>
        <time>2024-03-27T16:04:49Z</time>
      </trkpt>
      <trkpt lat="43.48952" lon="6.18499">
        <ele>193.8</ele>
        <time>2024-03-27T16:04:50Z</time>
      </trkpt>
      <trkpt lat="43.48951" lon="6.18499">
        <ele>193.7</ele>
        <time>2024-03-27T16:04:51Z</time>
      </trkpt>
      <trkpt lat="43.48949" lon="6.18499">
        <ele>193.7</ele>
        <time>2024-03-27T16:04:52Z</time>
      </trkpt>
      <trkpt lat="43.48948" lon="6.18499">
        <ele>193.7</ele>
        <time>2024-03-27T16:04:53Z</time>
      </trkpt>
      <trkpt lat="43.48946" lon="6.185">
        <ele>193.7</ele>
        <time>2024-03-27T16:04:54Z</time>
      </trkpt>
      <trkpt lat="43.48945" lon="6.185">
        <ele>193.7</ele>
        <time>2024-03-27T16:04:55Z</time>
      </trkpt>
      <trkpt lat="43.48944" lon="6.18501">
        <ele>193.7</ele>
        <time>2024-03-27T16:04:56Z</time>
      </trkpt>
      <trkpt lat="43.48943" lon="6.18501">
        <ele>193.7</ele>
        <time>2024-03-27T16:04:57Z</time>
      </trkpt>
      <trkpt lat="43.48942" lon="6.18502">
        <ele>193.7</ele>
        <time>2024-03-27T16:04:58Z</time>
      </trkpt>
      <trkpt lat="43.48941" lon="6.18502">
        <ele>193.7</ele>
        <time>2024-03-27T16:04:59Z</time>
      </trkpt>
      <trkpt lat="43.4894" lon="6.18503">
        <ele>193.7</ele>
        <time>2024-03-27T16:05:00Z</time>
      </trkpt>
      <trkpt lat="43.48939" lon="6.18503">
        <ele>193.7</ele>
        <time>2024-03-27T16:05:01Z</time>
      </trkpt>
      <trkpt lat="43.48938" lon="6.18503">
        <ele>193.7</ele>
        <time>2024-03-27T16:05:02Z</time>
      </trkpt>
      <trkpt lat="43.48937" lon="6.18504">
        <ele>193.7</ele>
        <time>2024-03-27T16:05:03Z</time>
      </trkpt>
      <trkpt lat="43.48935" lon="6.18506">
        <ele>193.7</ele>
        <time>2024-03-27T16:05:04Z</time>
      </trkpt>
      <trkpt lat="43.48934" lon="6.18507">
        <ele>193.8</ele>
        <time>2024-03-27T16:05:05Z</time>
      </trkpt>
      <trkpt lat="43.48933" lon="6.18508">
        <ele>193.8</ele>
        <time>2024-03-27T16:05:06Z</time>
      </trkpt>
      <trkpt lat="43.48932" lon="6.18509">
        <ele>193.9</ele>
        <time>2024-03-27T16:05:07Z</time>
      </trkpt>
      <trkpt lat="43.48931" lon="6.1851">
        <ele>193.9</ele>
        <time>2024-03-27T16:05:08Z</time>
      </trkpt>
      <trkpt lat="43.48931" lon="6.18511">
        <ele>194</ele>
        <time>2024-03-27T16:05:09Z</time>
      </trkpt>
      <trkpt lat="43.48929" lon="6.18513">
        <ele>194.2</ele>
        <time>2024-03-27T16:05:10Z</time>
      </trkpt>
      <trkpt lat="43.48929" lon="6.18514">
        <ele>194.3</ele>
        <time>2024-03-27T16:05:11Z</time>
      </trkpt>
      <trkpt lat="43.48928" lon="6.18516">
        <ele>194.3</ele>
        <time>2024-03-27T16:05:12Z</time>
      </trkpt>
      <trkpt lat="43.48927" lon="6.18518">
        <ele>194.3</ele>
        <time>2024-03-27T16:05:13Z</time>
      </trkpt>
      <trkpt lat="43.48927" lon="6.1852">
        <ele>194.3</ele>
        <time>2024-03-27T16:05:14Z</time>
      </trkpt>
      <trkpt lat="43.48926" lon="6.18521">
        <ele>194.3</ele>
        <time>2024-03-27T16:05:15Z</time>
      </trkpt>
      <trkpt lat="43.48925" lon="6.18523">
        <ele>194.4</ele>
        <time>2024-03-27T16:05:16Z</time>
      </trkpt>
      <trkpt lat="43.48924" lon="6.18525">
        <ele>194.4</ele>
        <time>2024-03-27T16:05:17Z</time>
      </trkpt>
      <trkpt lat="43.48923" lon="6.18526">
        <ele>194.5</ele>
        <time>2024-03-27T16:05:18Z</time>
      </trkpt>
      <trkpt lat="43.48922" lon="6.18528">
        <ele>194.6</ele>
        <time>2024-03-27T16:05:19Z</time>
      </trkpt>
      <trkpt lat="43.48922" lon="6.1853">
        <ele>194.7</ele>
        <time>2024-03-27T16:05:20Z</time>
      </trkpt>
      <trkpt lat="43.48922" lon="6.18532">
        <ele>194.8</ele>
        <time>2024-03-27T16:05:21Z</time>
      </trkpt>
      <trkpt lat="43.48922" lon="6.18533">
        <ele>194.8</ele>
        <time>2024-03-27T16:05:22Z</time>
      </trkpt>
      <trkpt lat="43.48922" lon="6.18535">
        <ele>195</ele>
        <time>2024-03-27T16:05:23Z</time>
      </trkpt>
      <trkpt lat="43.48922" lon="6.18537">
        <ele>195</ele>
        <time>2024-03-27T16:05:24Z</time>
      </trkpt>
      <trkpt lat="43.48923" lon="6.18538">
        <ele>195</ele>
        <time>2024-03-27T16:05:25Z</time>
      </trkpt>
      <trkpt lat="43.48923" lon="6.18539">
        <ele>195.1</ele>
        <time>2024-03-27T16:05:26Z</time>
      </trkpt>
      <trkpt lat="43.48923" lon="6.1854">
        <ele>195.2</ele>
        <time>2024-03-27T16:05:27Z</time>
      </trkpt>
      <trkpt lat="43.48923" lon="6.18542">
        <ele>195.4</ele>
        <time>2024-03-27T16:05:28Z</time>
      </trkpt>
      <trkpt lat="43.48923" lon="6.18543">
        <ele>195.5</ele>
        <time>2024-03-27T16:05:29Z</time>
      </trkpt>
      <trkpt lat="43.48922" lon="6.18544">
        <ele>195.6</ele>
        <time>2024-03-27T16:05:30Z</time>
      </trkpt>
      <trkpt lat="43.48921" lon="6.18546">
        <ele>195.6</ele>
        <time>2024-03-27T16:05:31Z</time>
      </trkpt>
      <trkpt lat="43.48919" lon="6.18546">
        <ele>195.6</ele>
        <time>2024-03-27T16:05:32Z</time>
      </trkpt>
      <trkpt lat="43.48918" lon="6.18547">
        <ele>195.6</ele>
        <time>2024-03-27T16:05:33Z</time>
      </trkpt>
      <trkpt lat="43.48917" lon="6.18548">
        <ele>195.7</ele>
        <time>2024-03-27T16:05:34Z</time>
      </trkpt>
      <trkpt lat="43.48915" lon="6.18548">
        <ele>195.7</ele>
        <time>2024-03-27T16:05:35Z</time>
      </trkpt>
      <trkpt lat="43.48914" lon="6.18549">
        <ele>195.8</ele>
        <time>2024-03-27T16:05:36Z</time>
      </trkpt>
      <trkpt lat="43.48913" lon="6.1855">
        <ele>195.7</ele>
        <time>2024-03-27T16:05:37Z</time>
      </trkpt>
      <trkpt lat="43.48912" lon="6.1855">
        <ele>195.6</ele>
        <time>2024-03-27T16:05:38Z</time>
      </trkpt>
      <trkpt lat="43.48911" lon="6.1855">
        <ele>195.5</ele>
        <time>2024-03-27T16:05:39Z</time>
      </trkpt>
      <trkpt lat="43.4891" lon="6.1855">
        <ele>195.4</ele>
        <time>2024-03-27T16:05:40Z</time>
      </trkpt>
      <trkpt lat="43.4891" lon="6.18551">
        <ele>195.4</ele>
        <time>2024-03-27T16:05:41Z</time>
      </trkpt>
      <trkpt lat="43.48909" lon="6.18551">
        <ele>195.4</ele>
        <time>2024-03-27T16:05:42Z</time>
      </trkpt>
      <trkpt lat="43.48908" lon="6.18551">
        <ele>195.3</ele>
        <time>2024-03-27T16:05:43Z</time>
      </trkpt>
      <trkpt lat="43.48907" lon="6.18551">
        <ele>195.2</ele>
        <time>2024-03-27T16:05:44Z</time>
      </trkpt>
      <trkpt lat="43.48906" lon="6.18552">
        <ele>195.2</ele>
        <time>2024-03-27T16:05:45Z</time>
      </trkpt>
      <trkpt lat="43.48905" lon="6.18553">
        <ele>195.2</ele>
        <time>2024-03-27T16:05:46Z</time>
      </trkpt>
      <trkpt lat="43.48904" lon="6.18554">
        <ele>195.1</ele>
        <time>2024-03-27T16:05:47Z</time>
      </trkpt>
      <trkpt lat="43.48903" lon="6.18555">
        <ele>195.2</ele>
        <time>2024-03-27T16:05:48Z</time>
      </trkpt>
      <trkpt lat="43.48901" lon="6.18556">
        <ele>195.2</ele>
        <time>2024-03-27T16:05:49Z</time>
      </trkpt>
      <trkpt lat="43.489" lon="6.18557">
        <ele>195.2</ele>
        <time>2024-03-27T16:05:50Z</time>
      </trkpt>
      <trkpt lat="43.48899" lon="6.18559">
        <ele>195.2</ele>
        <time>2024-03-27T16:05:51Z</time>
      </trkpt>
      <trkpt lat="43.48899" lon="6.18561">
        <ele>195.2</ele>
        <time>2024-03-27T16:05:52Z</time>
      </trkpt>
      <trkpt lat="43.48897" lon="6.18562">
        <ele>195.3</ele>
        <time>2024-03-27T16:05:53Z</time>
      </trkpt>
      <trkpt lat="43.48896" lon="6.18564">
        <ele>195.3</ele>
        <time>2024-03-27T16:05:54Z</time>
      </trkpt>
      <trkpt lat="43.48895" lon="6.18566">
        <ele>195.2</ele>
        <time>2024-03-27T16:05:55Z</time>
      </trkpt>
      <trkpt lat="43.48895" lon="6.18567">
        <ele>195.2</ele>
        <time>2024-03-27T16:05:56Z</time>
      </trkpt>
      <trkpt lat="43.48894" lon="6.18569">
        <ele>195.2</ele>
        <time>2024-03-27T16:05:57Z</time>
      </trkpt>
      <trkpt lat="43.48894" lon="6.18571">
        <ele>195.3</ele>
        <time>2024-03-27T16:05:58Z</time>
      </trkpt>
      <trkpt lat="43.48893" lon="6.18572">
        <ele>195.3</ele>
        <time>2024-03-27T16:05:59Z</time>
      </trkpt>
      <trkpt lat="43.48892" lon="6.18574">
        <ele>195.3</ele>
        <time>2024-03-27T16:06:00Z</time>
      </trkpt>
      <trkpt lat="43.48892" lon="6.18575">
        <ele>195.2</ele>
        <time>2024-03-27T16:06:01Z</time>
      </trkpt>
      <trkpt lat="43.48891" lon="6.18577">
        <ele>195.1</ele>
        <time>2024-03-27T16:06:02Z</time>
      </trkpt>
      <trkpt lat="43.48891" lon="6.18579">
        <ele>195.2</ele>
        <time>2024-03-27T16:06:03Z</time>
      </trkpt>
      <trkpt lat="43.4889" lon="6.1858">
        <ele>195.2</ele>
        <time>2024-03-27T16:06:04Z</time>
      </trkpt>
      <trkpt lat="43.48889" lon="6.18581">
        <ele>195.3</ele>
        <time>2024-03-27T16:06:05Z</time>
      </trkpt>
      <trkpt lat="43.48888" lon="6.18583">
        <ele>195.3</ele>
        <time>2024-03-27T16:06:06Z</time>
      </trkpt>
      <trkpt lat="43.48887" lon="6.18585">
        <ele>195.3</ele>
        <time>2024-03-27T16:06:07Z</time>
      </trkpt>
      <trkpt lat="43.48886" lon="6.18586">
        <ele>195.4</ele>
        <time>2024-03-27T16:06:08Z</time>
      </trkpt>
      <trkpt lat="43.48886" lon="6.18588">
        <ele>195.5</ele>
        <time>2024-03-27T16:06:09Z</time>
      </trkpt>
      <trkpt lat="43.48885" lon="6.1859">
        <ele>195.4</ele>
        <time>2024-03-27T16:06:10Z</time>
      </trkpt>
      <trkpt lat="43.48885" lon="6.18592">
        <ele>195.4</ele>
        <time>2024-03-27T16:06:11Z</time>
      </trkpt>
      <trkpt lat="43.48885" lon="6.18594">
        <ele>195.4</ele>
        <time>2024-03-27T16:06:12Z</time>
      </trkpt>
      <trkpt lat="43.48884" lon="6.18596">
        <ele>195.5</ele>
        <time>2024-03-27T16:06:13Z</time>
      </trkpt>
      <trkpt lat="43.48883" lon="6.18598">
        <ele>195.6</ele>
        <time>2024-03-27T16:06:14Z</time>
      </trkpt>
      <trkpt lat="43.48883" lon="6.18599">
        <ele>195.7</ele>
        <time>2024-03-27T16:06:15Z</time>
      </trkpt>
      <trkpt lat="43.48882" lon="6.18601">
        <ele>195.8</ele>
        <time>2024-03-27T16:06:16Z</time>
      </trkpt>
      <trkpt lat="43.4888" lon="6.18602">
        <ele>195.9</ele>
        <time>2024-03-27T16:06:17Z</time>
      </trkpt>
      <trkpt lat="43.48879" lon="6.18604">
        <ele>196</ele>
        <time>2024-03-27T16:06:18Z</time>
      </trkpt>
      <trkpt lat="43.48879" lon="6.18605">
        <ele>196.1</ele>
        <time>2024-03-27T16:06:19Z</time>
      </trkpt>
      <trkpt lat="43.48878" lon="6.18606">
        <ele>196.3</ele>
        <time>2024-03-27T16:06:20Z</time>
      </trkpt>
      <trkpt lat="43.48876" lon="6.18608">
        <ele>196.3</ele>
        <time>2024-03-27T16:06:21Z</time>
      </trkpt>
      <trkpt lat="43.48876" lon="6.1861">
        <ele>196.4</ele>
        <time>2024-03-27T16:06:22Z</time>
      </trkpt>
      <trkpt lat="43.48875" lon="6.18611">
        <ele>196.4</ele>
        <time>2024-03-27T16:06:23Z</time>
      </trkpt>
      <trkpt lat="43.48875" lon="6.18613">
        <ele>196.4</ele>
        <time>2024-03-27T16:06:24Z</time>
      </trkpt>
      <trkpt lat="43.48875" lon="6.18615">
        <ele>196.4</ele>
        <time>2024-03-27T16:06:25Z</time>
      </trkpt>
      <trkpt lat="43.48875" lon="6.18616">
        <ele>196.4</ele>
        <time>2024-03-27T16:06:26Z</time>
      </trkpt>
      <trkpt lat="43.48874" lon="6.18618">
        <ele>196.5</ele>
        <time>2024-03-27T16:06:27Z</time>
      </trkpt>
      <trkpt lat="43.48874" lon="6.18619">
        <ele>196.4</ele>
        <time>2024-03-27T16:06:28Z</time>
      </trkpt>
      <trkpt lat="43.48874" lon="6.18621">
        <ele>196.4</ele>
        <time>2024-03-27T16:06:29Z</time>
      </trkpt>
      <trkpt lat="43.48873" lon="6.18622">
        <ele>196.4</ele>
        <time>2024-03-27T16:06:30Z</time>
      </trkpt>
      <trkpt lat="43.48873" lon="6.18624">
        <ele>196.4</ele>
        <time>2024-03-27T16:06:31Z</time>
      </trkpt>
      <trkpt lat="43.48873" lon="6.18625">
        <ele>196.4</ele>
        <time>2024-03-27T16:06:32Z</time>
      </trkpt>
      <trkpt lat="43.48872" lon="6.18626">
        <ele>196.4</ele>
        <time>2024-03-27T16:06:33Z</time>
      </trkpt>
      <trkpt lat="43.48872" lon="6.18627">
        <ele>196.4</ele>
        <time>2024-03-27T16:06:34Z</time>
      </trkpt>
      <trkpt lat="43.48872" lon="6.18629">
        <ele>196.5</ele>
        <time>2024-03-27T16:06:35Z</time>
      </trkpt>
      <trkpt lat="43.48872" lon="6.18631">
        <ele>196.5</ele>
        <time>2024-03-27T16:06:36Z</time>
      </trkpt>
      <trkpt lat="43.48873" lon="6.18632">
        <ele>196.4</ele>
        <time>2024-03-27T16:06:37Z</time>
      </trkpt>
      <trkpt lat="43.48873" lon="6.18633">
        <ele>196.4</ele>
        <time>2024-03-27T16:06:38Z</time>
      </trkpt>
      <trkpt lat="43.48874" lon="6.18634">
        <ele>196.3</ele>
        <time>2024-03-27T16:06:39Z</time>
      </trkpt>
      <trkpt lat="43.48874" lon="6.18635">
        <ele>196.3</ele>
        <time>2024-03-27T16:06:40Z</time>
      </trkpt>
      <trkpt lat="43.48874" lon="6.18636">
        <ele>196.3</ele>
        <time>2024-03-27T16:06:41Z</time>
      </trkpt>
      <trkpt lat="43.48874" lon="6.18636">
        <ele>196.2</ele>
        <time>2024-03-27T16:06:42Z</time>
      </trkpt>
      <trkpt lat="43.48874" lon="6.18637">
        <ele>196.2</ele>
        <time>2024-03-27T16:06:43Z</time>
      </trkpt>
      <trkpt lat="43.48874" lon="6.18637">
        <ele>196.2</ele>
        <time>2024-03-27T16:06:44Z</time>
      </trkpt>
      <trkpt lat="43.48875" lon="6.18638">
        <ele>196.3</ele>
        <time>2024-03-27T16:06:45Z</time>
      </trkpt>
      <trkpt lat="43.48875" lon="6.18638">
        <ele>196.3</ele>
        <time>2024-03-27T16:06:46Z</time>
      </trkpt>
      <trkpt lat="43.48875" lon="6.18639">
        <ele>196.3</ele>
        <time>2024-03-27T16:06:47Z</time>
      </trkpt>
      <trkpt lat="43.48875" lon="6.18639">
        <ele>196.2</ele>
        <time>2024-03-27T16:06:48Z</time>
      </trkpt>
      <trkpt lat="43.48875" lon="6.18639">
        <ele>196.2</ele>
        <time>2024-03-27T16:06:49Z</time>
      </trkpt>
      <trkpt lat="43.48875" lon="6.1864">
        <ele>196.2</ele>
        <time>2024-03-27T16:06:50Z</time>
      </trkpt>
      <trkpt lat="43.48875" lon="6.1864">
        <ele>196.1</ele>
        <time>2024-03-27T16:06:51Z</time>
      </trkpt>
      <trkpt lat="43.48875" lon="6.1864">
        <ele>196.1</ele>
        <time>2024-03-27T16:06:52Z</time>
      </trkpt>
      <trkpt lat="43.48875" lon="6.1864">
        <ele>196</ele>
        <time>2024-03-27T16:06:53Z</time>
      </trkpt>
      <trkpt lat="43.48875" lon="6.18641">
        <ele>196.1</ele>
        <time>2024-03-27T16:06:54Z</time>
      </trkpt>
      <trkpt lat="43.48875" lon="6.18641">
        <ele>196.1</ele>
        <time>2024-03-27T16:06:55Z</time>
      </trkpt>
      <trkpt lat="43.48875" lon="6.18641">
        <ele>196.1</ele>
        <time>2024-03-27T16:06:56Z</time>
      </trkpt>
      <trkpt lat="43.48875" lon="6.18642">
        <ele>196</ele>
        <time>2024-03-27T16:06:57Z</time>
      </trkpt>
      <trkpt lat="43.48875" lon="6.18642">
        <ele>196.1</ele>
        <time>2024-03-27T16:06:58Z</time>
      </trkpt>
      <trkpt lat="43.48875" lon="6.18642">
        <ele>196.1</ele>
        <time>2024-03-27T16:06:59Z</time>
      </trkpt>
      <trkpt lat="43.48875" lon="6.18642">
        <ele>196.1</ele>
        <time>2024-03-27T16:07:00Z</time>
      </trkpt>
      <trkpt lat="43.48875" lon="6.18643">
        <ele>196.1</ele>
        <time>2024-03-27T16:07:01Z</time>
      </trkpt>
      <trkpt lat="43.48875" lon="6.18643">
        <ele>196.1</ele>
        <time>2024-03-27T16:07:02Z</time>
      </trkpt>
      <trkpt lat="43.48875" lon="6.18643">
        <ele>196.1</ele>
        <time>2024-03-27T16:07:03Z</time>
      </trkpt>
      <trkpt lat="43.48875" lon="6.18644">
        <ele>196.1</ele>
        <time>2024-03-27T16:07:04Z</time>
      </trkpt>
      <trkpt lat="43.48875" lon="6.18644">
        <ele>196</ele>
        <time>2024-03-27T16:07:05Z</time>
      </trkpt>
      <trkpt lat="43.48875" lon="6.18644">
        <ele>196.1</ele>
        <time>2024-03-27T16:07:06Z</time>
      </trkpt>
      <trkpt lat="43.48875" lon="6.18645">
        <ele>196</ele>
        <time>2024-03-27T16:07:07Z</time>
      </trkpt>
      <trkpt lat="43.48875" lon="6.18645">
        <ele>196</ele>
        <time>2024-03-27T16:07:08Z</time>
      </trkpt>
      <trkpt lat="43.48875" lon="6.18645">
        <ele>195.9</ele>
        <time>2024-03-27T16:07:09Z</time>
      </trkpt>
      <trkpt lat="43.48875" lon="6.18645">
        <ele>195.9</ele>
        <time>2024-03-27T16:07:10Z</time>
      </trkpt>
      <trkpt lat="43.48875" lon="6.18645">
        <ele>195.9</ele>
        <time>2024-03-27T16:07:11Z</time>
      </trkpt>
      <trkpt lat="43.48875" lon="6.18645">
        <ele>195.8</ele>
        <time>2024-03-27T16:07:12Z</time>
      </trkpt>
      <trkpt lat="43.48875" lon="6.18645">
        <ele>195.8</ele>
        <time>2024-03-27T16:07:13Z</time>
      </trkpt>
      <trkpt lat="43.48875" lon="6.18646">
        <ele>195.9</ele>
        <time>2024-03-27T16:07:14Z</time>
      </trkpt>
      <trkpt lat="43.48875" lon="6.18646">
        <ele>196</ele>
        <time>2024-03-27T16:07:15Z</time>
      </trkpt>
      <trkpt lat="43.48875" lon="6.18647">
        <ele>195.9</ele>
        <time>2024-03-27T16:07:16Z</time>
      </trkpt>
      <trkpt lat="43.48875" lon="6.18647">
        <ele>195.8</ele>
        <time>2024-03-27T16:07:17Z</time>
      </trkpt>
      <trkpt lat="43.48874" lon="6.18647">
        <ele>195.8</ele>
        <time>2024-03-27T16:07:18Z</time>
      </trkpt>
      <trkpt lat="43.48874" lon="6.18648">
        <ele>195.9</ele>
        <time>2024-03-27T16:07:19Z</time>
      </trkpt>
      <trkpt lat="43.48874" lon="6.18648">
        <ele>195.9</ele>
        <time>2024-03-27T16:07:20Z</time>
      </trkpt>
      <trkpt lat="43.48874" lon="6.18648">
        <ele>196</ele>
        <time>2024-03-27T16:07:21Z</time>
      </trkpt>
      <trkpt lat="43.48874" lon="6.18649">
        <ele>196.1</ele>
        <time>2024-03-27T16:07:22Z</time>
      </trkpt>
      <trkpt lat="43.48874" lon="6.18649">
        <ele>196.1</ele>
        <time>2024-03-27T16:07:23Z</time>
      </trkpt>
      <trkpt lat="43.48874" lon="6.18649">
        <ele>196.1</ele>
        <time>2024-03-27T16:07:24Z</time>
      </trkpt>
      <trkpt lat="43.48874" lon="6.1865">
        <ele>196.2</ele>
        <time>2024-03-27T16:07:25Z</time>
      </trkpt>
      <trkpt lat="43.48874" lon="6.1865">
        <ele>196.1</ele>
        <time>2024-03-27T16:07:26Z</time>
      </trkpt>
      <trkpt lat="43.48874" lon="6.1865">
        <ele>196.1</ele>
        <time>2024-03-27T16:07:27Z</time>
      </trkpt>
      <trkpt lat="43.48874" lon="6.1865">
        <ele>196.1</ele>
        <time>2024-03-27T16:07:28Z</time>
      </trkpt>
      <trkpt lat="43.48874" lon="6.1865">
        <ele>196.1</ele>
        <time>2024-03-27T16:07:29Z</time>
      </trkpt>
      <trkpt lat="43.48874" lon="6.1865">
        <ele>196.1</ele>
        <time>2024-03-27T16:07:30Z</time>
      </trkpt>
      <trkpt lat="43.48874" lon="6.1865">
        <ele>196</ele>
        <time>2024-03-27T16:07:31Z</time>
      </trkpt>
      <trkpt lat="43.48874" lon="6.1865">
        <ele>196</ele>
        <time>2024-03-27T16:07:32Z</time>
      </trkpt>
      <trkpt lat="43.48874" lon="6.1865">
        <ele>196.1</ele>
        <time>2024-03-27T16:07:33Z</time>
      </trkpt>
      <trkpt lat="43.48875" lon="6.1865">
        <ele>196.1</ele>
        <time>2024-03-27T16:07:34Z</time>
      </trkpt>
      <trkpt lat="43.48875" lon="6.1865">
        <ele>196.2</ele>
        <time>2024-03-27T16:07:35Z</time>
      </trkpt>
      <trkpt lat="43.48875" lon="6.18651">
        <ele>196.1</ele>
        <time>2024-03-27T16:07:36Z</time>
      </trkpt>
      <trkpt lat="43.48875" lon="6.18651">
        <ele>196.1</ele>
        <time>2024-03-27T16:07:37Z</time>
      </trkpt>
      <trkpt lat="43.48875" lon="6.18651">
        <ele>196.1</ele>
        <time>2024-03-27T16:07:38Z</time>
      </trkpt>
      <trkpt lat="43.48875" lon="6.18651">
        <ele>196.1</ele>
        <time>2024-03-27T16:07:39Z</time>
      </trkpt>
      <trkpt lat="43.48875" lon="6.18651">
        <ele>196.1</ele>
        <time>2024-03-27T16:07:40Z</time>
      </trkpt>
      <trkpt lat="43.48875" lon="6.18651">
        <ele>196.1</ele>
        <time>2024-03-27T16:07:41Z</time>
      </trkpt>
      <trkpt lat="43.48875" lon="6.18651">
        <ele>196.1</ele>
        <time>2024-03-27T16:07:42Z</time>
      </trkpt>
      <trkpt lat="43.48876" lon="6.18651">
        <ele>196.1</ele>
        <time>2024-03-27T16:07:43Z</time>
      </trkpt>
      <trkpt lat="43.48876" lon="6.18651">
        <ele>196.1</ele>
        <time>2024-03-27T16:07:44Z</time>
      </trkpt>
      <trkpt lat="43.48876" lon="6.18651">
        <ele>196</ele>
        <time>2024-03-27T16:07:45Z</time>
      </trkpt>
      <trkpt lat="43.48876" lon="6.18651">
        <ele>196</ele>
        <time>2024-03-27T16:07:46Z</time>
      </trkpt>
      <trkpt lat="43.48876" lon="6.18651">
        <ele>196</ele>
        <time>2024-03-27T16:07:47Z</time>
      </trkpt>
      <trkpt lat="43.48876" lon="6.18651">
        <ele>196</ele>
        <time>2024-03-27T16:07:48Z</time>
      </trkpt>
      <trkpt lat="43.48876" lon="6.18651">
        <ele>196</ele>
        <time>2024-03-27T16:07:49Z</time>
      </trkpt>
      <trkpt lat="43.48876" lon="6.18651">
        <ele>196</ele>
        <time>2024-03-27T16:07:50Z</time>
      </trkpt>
      <trkpt lat="43.48876" lon="6.18651">
        <ele>196</ele>
        <time>2024-03-27T16:07:51Z</time>
      </trkpt>
      <trkpt lat="43.48876" lon="6.18651">
        <ele>196</ele>
        <time>2024-03-27T16:07:52Z</time>
      </trkpt>
      <trkpt lat="43.48876" lon="6.18651">
        <ele>195.9</ele>
        <time>2024-03-27T16:07:53Z</time>
      </trkpt>
      <trkpt lat="43.48876" lon="6.18651">
        <ele>195.9</ele>
        <time>2024-03-27T16:07:54Z</time>
      </trkpt>
      <trkpt lat="43.48876" lon="6.1865">
        <ele>195.9</ele>
        <time>2024-03-27T16:07:55Z</time>
      </trkpt>
      <trkpt lat="43.48876" lon="6.1865">
        <ele>195.8</ele>
        <time>2024-03-27T16:07:56Z</time>
      </trkpt>
      <trkpt lat="43.48876" lon="6.18651">
        <ele>195.9</ele>
        <time>2024-03-27T16:07:57Z</time>
      </trkpt>
      <trkpt lat="43.48876" lon="6.18651">
        <ele>195.9</ele>
        <time>2024-03-27T16:07:58Z</time>
      </trkpt>
      <trkpt lat="43.48876" lon="6.18651">
        <ele>195.9</ele>
        <time>2024-03-27T16:07:59Z</time>
      </trkpt>
      <trkpt lat="43.48875" lon="6.18651">
        <ele>195.9</ele>
        <time>2024-03-27T16:08:00Z</time>
      </trkpt>
      <trkpt lat="43.48875" lon="6.18651">
        <ele>195.9</ele>
        <time>2024-03-27T16:08:01Z</time>
      </trkpt>
      <trkpt lat="43.48875" lon="6.18651">
        <ele>195.9</ele>
        <time>2024-03-27T16:08:02Z</time>
      </trkpt>
      <trkpt lat="43.48875" lon="6.18652">
        <ele>195.9</ele>
        <time>2024-03-27T16:08:03Z</time>
      </trkpt>
      <trkpt lat="43.48875" lon="6.18652">
        <ele>195.9</ele>
        <time>2024-03-27T16:08:04Z</time>
      </trkpt>
      <trkpt lat="43.48875" lon="6.18652">
        <ele>195.8</ele>
        <time>2024-03-27T16:08:05Z</time>
      </trkpt>
      <trkpt lat="43.48875" lon="6.18652">
        <ele>195.9</ele>
        <time>2024-03-27T16:08:06Z</time>
      </trkpt>
      <trkpt lat="43.48875" lon="6.18652">
        <ele>196</ele>
        <time>2024-03-27T16:08:07Z</time>
      </trkpt>
      <trkpt lat="43.48875" lon="6.18652">
        <ele>196.1</ele>
        <time>2024-03-27T16:08:08Z</time>
      </trkpt>
      <trkpt lat="43.48876" lon="6.18652">
        <ele>196.2</ele>
        <time>2024-03-27T16:08:09Z</time>
      </trkpt>
      <trkpt lat="43.48876" lon="6.18651">
        <ele>196.2</ele>
        <time>2024-03-27T16:08:10Z</time>
      </trkpt>
      <trkpt lat="43.48876" lon="6.18651">
        <ele>196.2</ele>
        <time>2024-03-27T16:08:11Z</time>
      </trkpt>
      <trkpt lat="43.48876" lon="6.18651">
        <ele>196.1</ele>
        <time>2024-03-27T16:08:12Z</time>
      </trkpt>
      <trkpt lat="43.48876" lon="6.18651">
        <ele>196.2</ele>
        <time>2024-03-27T16:08:13Z</time>
      </trkpt>
      <trkpt lat="43.48875" lon="6.18651">
        <ele>196.1</ele>
        <time>2024-03-27T16:08:14Z</time>
      </trkpt>
      <trkpt lat="43.48874" lon="6.18652">
        <ele>196</ele>
        <time>2024-03-27T16:08:15Z</time>
      </trkpt>
      <trkpt lat="43.48873" lon="6.18653">
        <ele>195.9</ele>
        <time>2024-03-27T16:08:16Z</time>
      </trkpt>
      <trkpt lat="43.48873" lon="6.18654">
        <ele>196</ele>
        <time>2024-03-27T16:08:17Z</time>
      </trkpt>
      <trkpt lat="43.48872" lon="6.18655">
        <ele>196.1</ele>
        <time>2024-03-27T16:08:18Z</time>
      </trkpt>
      <trkpt lat="43.48872" lon="6.18657">
        <ele>196.1</ele>
        <time>2024-03-27T16:08:19Z</time>
      </trkpt>
      <trkpt lat="43.48872" lon="6.18658">
        <ele>196.2</ele>
        <time>2024-03-27T16:08:20Z</time>
      </trkpt>
      <trkpt lat="43.48873" lon="6.18659">
        <ele>196.2</ele>
        <time>2024-03-27T16:08:21Z</time>
      </trkpt>
      <trkpt lat="43.48873" lon="6.1866">
        <ele>196.3</ele>
        <time>2024-03-27T16:08:22Z</time>
      </trkpt>
      <trkpt lat="43.48873" lon="6.18661">
        <ele>196.4</ele>
        <time>2024-03-27T16:08:23Z</time>
      </trkpt>
      <trkpt lat="43.48874" lon="6.18663">
        <ele>196.4</ele>
        <time>2024-03-27T16:08:24Z</time>
      </trkpt>
      <trkpt lat="43.48875" lon="6.18664">
        <ele>196.5</ele>
        <time>2024-03-27T16:08:25Z</time>
      </trkpt>
      <trkpt lat="43.48875" lon="6.18665">
        <ele>196.6</ele>
        <time>2024-03-27T16:08:26Z</time>
      </trkpt>
      <trkpt lat="43.48875" lon="6.18667">
        <ele>196.8</ele>
        <time>2024-03-27T16:08:27Z</time>
      </trkpt>
      <trkpt lat="43.48876" lon="6.18668">
        <ele>196.9</ele>
        <time>2024-03-27T16:08:28Z</time>
      </trkpt>
      <trkpt lat="43.48876" lon="6.18669">
        <ele>197</ele>
        <time>2024-03-27T16:08:29Z</time>
      </trkpt>
      <trkpt lat="43.48876" lon="6.1867">
        <ele>197</ele>
        <time>2024-03-27T16:08:30Z</time>
      </trkpt>
      <trkpt lat="43.48876" lon="6.18671">
        <ele>197.2</ele>
        <time>2024-03-27T16:08:31Z</time>
      </trkpt>
      <trkpt lat="43.48876" lon="6.18673">
        <ele>197.3</ele>
        <time>2024-03-27T16:08:32Z</time>
      </trkpt>
      <trkpt lat="43.48876" lon="6.18674">
        <ele>197.4</ele>
        <time>2024-03-27T16:08:33Z</time>
      </trkpt>
      <trkpt lat="43.48876" lon="6.18675">
        <ele>197.4</ele>
        <time>2024-03-27T16:08:34Z</time>
      </trkpt>
      <trkpt lat="43.48876" lon="6.18677">
        <ele>197.5</ele>
        <time>2024-03-27T16:08:35Z</time>
      </trkpt>
      <trkpt lat="43.48876" lon="6.18678">
        <ele>197.5</ele>
        <time>2024-03-27T16:08:36Z</time>
      </trkpt>
      <trkpt lat="43.48876" lon="6.1868">
        <ele>197.5</ele>
        <time>2024-03-27T16:08:37Z</time>
      </trkpt>
      <trkpt lat="43.48876" lon="6.18681">
        <ele>197.6</ele>
        <time>2024-03-27T16:08:38Z</time>
      </trkpt>
      <trkpt lat="43.48875" lon="6.18683">
        <ele>197.5</ele>
        <time>2024-03-27T16:08:39Z</time>
      </trkpt>
      <trkpt lat="43.48875" lon="6.18684">
        <ele>197.5</ele>
        <time>2024-03-27T16:08:40Z</time>
      </trkpt>
      <trkpt lat="43.48875" lon="6.18686">
        <ele>197.6</ele>
        <time>2024-03-27T16:08:41Z</time>
      </trkpt>
      <trkpt lat="43.48875" lon="6.18688">
        <ele>197.6</ele>
        <time>2024-03-27T16:08:42Z</time>
      </trkpt>
      <trkpt lat="43.48876" lon="6.18689">
        <ele>197.7</ele>
        <time>2024-03-27T16:08:43Z</time>
      </trkpt>
      <trkpt lat="43.48876" lon="6.18691">
        <ele>197.7</ele>
        <time>2024-03-27T16:08:44Z</time>
      </trkpt>
      <trkpt lat="43.48876" lon="6.18692">
        <ele>197.7</ele>
        <time>2024-03-27T16:08:45Z</time>
      </trkpt>
      <trkpt lat="43.48877" lon="6.18693">
        <ele>197.8</ele>
        <time>2024-03-27T16:08:46Z</time>
      </trkpt>
      <trkpt lat="43.48877" lon="6.18694">
        <ele>197.9</ele>
        <time>2024-03-27T16:08:47Z</time>
      </trkpt>
      <trkpt lat="43.48878" lon="6.18695">
        <ele>198</ele>
        <time>2024-03-27T16:08:48Z</time>
      </trkpt>
      <trkpt lat="43.48879" lon="6.18696">
        <ele>198.1</ele>
        <time>2024-03-27T16:08:49Z</time>
      </trkpt>
      <trkpt lat="43.4888" lon="6.18697">
        <ele>198.2</ele>
        <time>2024-03-27T16:08:50Z</time>
      </trkpt>
      <trkpt lat="43.48881" lon="6.18698">
        <ele>198.3</ele>
        <time>2024-03-27T16:08:51Z</time>
      </trkpt>
      <trkpt lat="43.48882" lon="6.18699">
        <ele>198.5</ele>
        <time>2024-03-27T16:08:52Z</time>
      </trkpt>
      <trkpt lat="43.48882" lon="6.187">
        <ele>198.6</ele>
        <time>2024-03-27T16:08:53Z</time>
      </trkpt>
      <trkpt lat="43.48884" lon="6.187">
        <ele>198.8</ele>
        <time>2024-03-27T16:08:54Z</time>
      </trkpt>
      <trkpt lat="43.48885" lon="6.18701">
        <ele>198.9</ele>
        <time>2024-03-27T16:08:55Z</time>
      </trkpt>
      <trkpt lat="43.48886" lon="6.18702">
        <ele>199</ele>
        <time>2024-03-27T16:08:56Z</time>
      </trkpt>
      <trkpt lat="43.48887" lon="6.18703">
        <ele>199.1</ele>
        <time>2024-03-27T16:08:57Z</time>
      </trkpt>
      <trkpt lat="43.48888" lon="6.18705">
        <ele>199.4</ele>
        <time>2024-03-27T16:08:58Z</time>
      </trkpt>
      <trkpt lat="43.48888" lon="6.18706">
        <ele>199.6</ele>
        <time>2024-03-27T16:08:59Z</time>
      </trkpt>
      <trkpt lat="43.48889" lon="6.18708">
        <ele>199.8</ele>
        <time>2024-03-27T16:09:00Z</time>
      </trkpt>
      <trkpt lat="43.48889" lon="6.18709">
        <ele>200</ele>
        <time>2024-03-27T16:09:01Z</time>
      </trkpt>
      <trkpt lat="43.48889" lon="6.1871">
        <ele>200.1</ele>
        <time>2024-03-27T16:09:02Z</time>
      </trkpt>
      <trkpt lat="43.48889" lon="6.18712">
        <ele>200.2</ele>
        <time>2024-03-27T16:09:03Z</time>
      </trkpt>
      <trkpt lat="43.48889" lon="6.18713">
        <ele>200.3</ele>
        <time>2024-03-27T16:09:04Z</time>
      </trkpt>
      <trkpt lat="43.48888" lon="6.18714">
        <ele>200.5</ele>
        <time>2024-03-27T16:09:05Z</time>
      </trkpt>
      <trkpt lat="43.48888" lon="6.18715">
        <ele>200.7</ele>
        <time>2024-03-27T16:09:06Z</time>
      </trkpt>
      <trkpt lat="43.48887" lon="6.18716">
        <ele>200.9</ele>
        <time>2024-03-27T16:09:07Z</time>
      </trkpt>
      <trkpt lat="43.48887" lon="6.18717">
        <ele>201</ele>
        <time>2024-03-27T16:09:08Z</time>
      </trkpt>
      <trkpt lat="43.48886" lon="6.18718">
        <ele>201.1</ele>
        <time>2024-03-27T16:09:09Z</time>
      </trkpt>
      <trkpt lat="43.48886" lon="6.1872">
        <ele>201.2</ele>
        <time>2024-03-27T16:09:10Z</time>
      </trkpt>
      <trkpt lat="43.48886" lon="6.18721">
        <ele>201.4</ele>
        <time>2024-03-27T16:09:11Z</time>
      </trkpt>
      <trkpt lat="43.48887" lon="6.18723">
        <ele>201.6</ele>
        <time>2024-03-27T16:09:12Z</time>
      </trkpt>
      <trkpt lat="43.48887" lon="6.18724">
        <ele>201.7</ele>
        <time>2024-03-27T16:09:13Z</time>
      </trkpt>
      <trkpt lat="43.48886" lon="6.18726">
        <ele>201.9</ele>
        <time>2024-03-27T16:09:14Z</time>
      </trkpt>
      <trkpt lat="43.48886" lon="6.18728">
        <ele>202</ele>
        <time>2024-03-27T16:09:15Z</time>
      </trkpt>
      <trkpt lat="43.48885" lon="6.18729">
        <ele>202.1</ele>
        <time>2024-03-27T16:09:16Z</time>
      </trkpt>
      <trkpt lat="43.48885" lon="6.1873">
        <ele>202.2</ele>
        <time>2024-03-27T16:09:17Z</time>
      </trkpt>
      <trkpt lat="43.48885" lon="6.18732">
        <ele>202.3</ele>
        <time>2024-03-27T16:09:18Z</time>
      </trkpt>
      <trkpt lat="43.48884" lon="6.18733">
        <ele>202.3</ele>
        <time>2024-03-27T16:09:19Z</time>
      </trkpt>
      <trkpt lat="43.48884" lon="6.18734">
        <ele>202.3</ele>
        <time>2024-03-27T16:09:20Z</time>
      </trkpt>
      <trkpt lat="43.48883" lon="6.18735">
        <ele>202.4</ele>
        <time>2024-03-27T16:09:21Z</time>
      </trkpt>
      <trkpt lat="43.48882" lon="6.18737">
        <ele>202.4</ele>
        <time>2024-03-27T16:09:22Z</time>
      </trkpt>
      <trkpt lat="43.48882" lon="6.18738">
        <ele>202.5</ele>
        <time>2024-03-27T16:09:23Z</time>
      </trkpt>
      <trkpt lat="43.48881" lon="6.18739">
        <ele>202.5</ele>
        <time>2024-03-27T16:09:24Z</time>
      </trkpt>
      <trkpt lat="43.48881" lon="6.18741">
        <ele>202.6</ele>
        <time>2024-03-27T16:09:25Z</time>
      </trkpt>
      <trkpt lat="43.4888" lon="6.18742">
        <ele>202.6</ele>
        <time>2024-03-27T16:09:26Z</time>
      </trkpt>
      <trkpt lat="43.4888" lon="6.18743">
        <ele>202.6</ele>
        <time>2024-03-27T16:09:27Z</time>
      </trkpt>
      <trkpt lat="43.48879" lon="6.18744">
        <ele>202.7</ele>
        <time>2024-03-27T16:09:28Z</time>
      </trkpt>
      <trkpt lat="43.48879" lon="6.18745">
        <ele>202.8</ele>
        <time>2024-03-27T16:09:29Z</time>
      </trkpt>
      <trkpt lat="43.48879" lon="6.18746">
        <ele>202.8</ele>
        <time>2024-03-27T16:09:30Z</time>
      </trkpt>
      <trkpt lat="43.48878" lon="6.18747">
        <ele>202.8</ele>
        <time>2024-03-27T16:09:31Z</time>
      </trkpt>
      <trkpt lat="43.48878" lon="6.18748">
        <ele>202.8</ele>
        <time>2024-03-27T16:09:32Z</time>
      </trkpt>
      <trkpt lat="43.48878" lon="6.18749">
        <ele>202.8</ele>
        <time>2024-03-27T16:09:33Z</time>
      </trkpt>
      <trkpt lat="43.48877" lon="6.18749">
        <ele>202.8</ele>
        <time>2024-03-27T16:09:34Z</time>
      </trkpt>
      <trkpt lat="43.48877" lon="6.1875">
        <ele>202.8</ele>
        <time>2024-03-27T16:09:35Z</time>
      </trkpt>
      <trkpt lat="43.48877" lon="6.18751">
        <ele>202.8</ele>
        <time>2024-03-27T16:09:36Z</time>
      </trkpt>
      <trkpt lat="43.48877" lon="6.18751">
        <ele>202.8</ele>
        <time>2024-03-27T16:09:37Z</time>
      </trkpt>
      <trkpt lat="43.48877" lon="6.18751">
        <ele>202.8</ele>
        <time>2024-03-27T16:09:38Z</time>
      </trkpt>
      <trkpt lat="43.48877" lon="6.18752">
        <ele>202.8</ele>
        <time>2024-03-27T16:09:39Z</time>
      </trkpt>
      <trkpt lat="43.48877" lon="6.18752">
        <ele>202.9</ele>
        <time>2024-03-27T16:09:40Z</time>
      </trkpt>
      <trkpt lat="43.48877" lon="6.18752">
        <ele>202.9</ele>
        <time>2024-03-27T16:09:41Z</time>
      </trkpt>
      <trkpt lat="43.48877" lon="6.18753">
        <ele>202.9</ele>
        <time>2024-03-27T16:09:42Z</time>
      </trkpt>
      <trkpt lat="43.48877" lon="6.18753">
        <ele>202.9</ele>
        <time>2024-03-27T16:09:43Z</time>
      </trkpt>
      <trkpt lat="43.48877" lon="6.18753">
        <ele>203</ele>
        <time>2024-03-27T16:09:44Z</time>
      </trkpt>
      <trkpt lat="43.48877" lon="6.18754">
        <ele>203</ele>
        <time>2024-03-27T16:09:45Z</time>
      </trkpt>
      <trkpt lat="43.48876" lon="6.18754">
        <ele>203</ele>
        <time>2024-03-27T16:09:46Z</time>
      </trkpt>
      <trkpt lat="43.48876" lon="6.18755">
        <ele>203</ele>
        <time>2024-03-27T16:09:47Z</time>
      </trkpt>
      <trkpt lat="43.48876" lon="6.18755">
        <ele>203</ele>
        <time>2024-03-27T16:09:48Z</time>
      </trkpt>
      <trkpt lat="43.48876" lon="6.18755">
        <ele>203</ele>
        <time>2024-03-27T16:09:49Z</time>
      </trkpt>
      <trkpt lat="43.48876" lon="6.18756">
        <ele>203</ele>
        <time>2024-03-27T16:09:50Z</time>
      </trkpt>
      <trkpt lat="43.48876" lon="6.18756">
        <ele>202.9</ele>
        <time>2024-03-27T16:09:51Z</time>
      </trkpt>
      <trkpt lat="43.48875" lon="6.18756">
        <ele>203</ele>
        <time>2024-03-27T16:09:52Z</time>
      </trkpt>
      <trkpt lat="43.48876" lon="6.18756">
        <ele>202.9</ele>
        <time>2024-03-27T16:09:53Z</time>
      </trkpt>
      <trkpt lat="43.48875" lon="6.18757">
        <ele>203</ele>
        <time>2024-03-27T16:09:54Z</time>
      </trkpt>
      <trkpt lat="43.48875" lon="6.18757">
        <ele>202.9</ele>
        <time>2024-03-27T16:09:55Z</time>
      </trkpt>
      <trkpt lat="43.48875" lon="6.18758">
        <ele>202.8</ele>
        <time>2024-03-27T16:09:56Z</time>
      </trkpt>
      <trkpt lat="43.48875" lon="6.18758">
        <ele>202.9</ele>
        <time>2024-03-27T16:09:57Z</time>
      </trkpt>
      <trkpt lat="43.48875" lon="6.18758">
        <ele>202.9</ele>
        <time>2024-03-27T16:09:58Z</time>
      </trkpt>
      <trkpt lat="43.48875" lon="6.18758">
        <ele>202.9</ele>
        <time>2024-03-27T16:09:59Z</time>
      </trkpt>
      <trkpt lat="43.48875" lon="6.18758">
        <ele>202.9</ele>
        <time>2024-03-27T16:10:00Z</time>
      </trkpt>
      <trkpt lat="43.48875" lon="6.18758">
        <ele>202.9</ele>
        <time>2024-03-27T16:10:01Z</time>
      </trkpt>
      <trkpt lat="43.48875" lon="6.18759">
        <ele>202.9</ele>
        <time>2024-03-27T16:10:02Z</time>
      </trkpt>
      <trkpt lat="43.48875" lon="6.18759">
        <ele>202.9</ele>
        <time>2024-03-27T16:10:03Z</time>
      </trkpt>
      <trkpt lat="43.48875" lon="6.18759">
        <ele>202.9</ele>
        <time>2024-03-27T16:10:04Z</time>
      </trkpt>
      <trkpt lat="43.48875" lon="6.18759">
        <ele>203</ele>
        <time>2024-03-27T16:10:05Z</time>
      </trkpt>
      <trkpt lat="43.48875" lon="6.1876">
        <ele>203</ele>
        <time>2024-03-27T16:10:06Z</time>
      </trkpt>
      <trkpt lat="43.48875" lon="6.18759">
        <ele>203</ele>
        <time>2024-03-27T16:10:07Z</time>
      </trkpt>
      <trkpt lat="43.48875" lon="6.18759">
        <ele>202.9</ele>
        <time>2024-03-27T16:10:08Z</time>
      </trkpt>
      <trkpt lat="43.48875" lon="6.1876">
        <ele>202.9</ele>
        <time>2024-03-27T16:10:09Z</time>
      </trkpt>
      <trkpt lat="43.48875" lon="6.1876">
        <ele>202.8</ele>
        <time>2024-03-27T16:10:10Z</time>
      </trkpt>
      <trkpt lat="43.48875" lon="6.1876">
        <ele>202.8</ele>
        <time>2024-03-27T16:10:11Z</time>
      </trkpt>
      <trkpt lat="43.48876" lon="6.18761">
        <ele>202.8</ele>
        <time>2024-03-27T16:10:12Z</time>
      </trkpt>
      <trkpt lat="43.48876" lon="6.18761">
        <ele>202.7</ele>
        <time>2024-03-27T16:10:13Z</time>
      </trkpt>
      <trkpt lat="43.48876" lon="6.18762">
        <ele>202.7</ele>
        <time>2024-03-27T16:10:14Z</time>
      </trkpt>
      <trkpt lat="43.48876" lon="6.18763">
        <ele>202.8</ele>
        <time>2024-03-27T16:10:15Z</time>
      </trkpt>
      <trkpt lat="43.48877" lon="6.18764">
        <ele>202.9</ele>
        <time>2024-03-27T16:10:16Z</time>
      </trkpt>
      <trkpt lat="43.48877" lon="6.18764">
        <ele>202.9</ele>
        <time>2024-03-27T16:10:17Z</time>
      </trkpt>
      <trkpt lat="43.48877" lon="6.18765">
        <ele>203</ele>
        <time>2024-03-27T16:10:18Z</time>
      </trkpt>
      <trkpt lat="43.48877" lon="6.18766">
        <ele>203</ele>
        <time>2024-03-27T16:10:19Z</time>
      </trkpt>
      <trkpt lat="43.48878" lon="6.18766">
        <ele>203</ele>
        <time>2024-03-27T16:10:20Z</time>
      </trkpt>
      <trkpt lat="43.48879" lon="6.18766">
        <ele>203.1</ele>
        <time>2024-03-27T16:10:21Z</time>
      </trkpt>
      <trkpt lat="43.4888" lon="6.18766">
        <ele>203.1</ele>
        <time>2024-03-27T16:10:22Z</time>
      </trkpt>
      <trkpt lat="43.4888" lon="6.18765">
        <ele>203.2</ele>
        <time>2024-03-27T16:10:23Z</time>
      </trkpt>
      <trkpt lat="43.4888" lon="6.18765">
        <ele>203.2</ele>
        <time>2024-03-27T16:10:24Z</time>
      </trkpt>
      <trkpt lat="43.4888" lon="6.18765">
        <ele>203.3</ele>
        <time>2024-03-27T16:10:25Z</time>
      </trkpt>
      <trkpt lat="43.48881" lon="6.18764">
        <ele>203.3</ele>
        <time>2024-03-27T16:10:26Z</time>
      </trkpt>
      <trkpt lat="43.48881" lon="6.18763">
        <ele>203.3</ele>
        <time>2024-03-27T16:10:27Z</time>
      </trkpt>
      <trkpt lat="43.48881" lon="6.18762">
        <ele>203.3</ele>
        <time>2024-03-27T16:10:28Z</time>
      </trkpt>
      <trkpt lat="43.48881" lon="6.18762">
        <ele>203.2</ele>
        <time>2024-03-27T16:10:29Z</time>
      </trkpt>
      <trkpt lat="43.48881" lon="6.18762">
        <ele>203.1</ele>
        <time>2024-03-27T16:10:30Z</time>
      </trkpt>
      <trkpt lat="43.48881" lon="6.18761">
        <ele>203.1</ele>
        <time>2024-03-27T16:10:31Z</time>
      </trkpt>
      <trkpt lat="43.48881" lon="6.18761">
        <ele>203</ele>
        <time>2024-03-27T16:10:32Z</time>
      </trkpt>
      <trkpt lat="43.48881" lon="6.18761">
        <ele>203.1</ele>
        <time>2024-03-27T16:10:33Z</time>
      </trkpt>
      <trkpt lat="43.48881" lon="6.18761">
        <ele>203.1</ele>
        <time>2024-03-27T16:10:34Z</time>
      </trkpt>
      <trkpt lat="43.48881" lon="6.18761">
        <ele>203.1</ele>
        <time>2024-03-27T16:10:35Z</time>
      </trkpt>
      <trkpt lat="43.48881" lon="6.18761">
        <ele>203</ele>
        <time>2024-03-27T16:10:36Z</time>
      </trkpt>
      <trkpt lat="43.48881" lon="6.18761">
        <ele>203</ele>
        <time>2024-03-27T16:10:37Z</time>
      </trkpt>
      <trkpt lat="43.48881" lon="6.1876">
        <ele>203</ele>
        <time>2024-03-27T16:10:38Z</time>
      </trkpt>
      <trkpt lat="43.48881" lon="6.1876">
        <ele>202.8</ele>
        <time>2024-03-27T16:10:39Z</time>
      </trkpt>
      <trkpt lat="43.48881" lon="6.1876">
        <ele>202.9</ele>
        <time>2024-03-27T16:10:40Z</time>
      </trkpt>
      <trkpt lat="43.48881" lon="6.1876">
        <ele>202.9</ele>
        <time>2024-03-27T16:10:41Z</time>
      </trkpt>
      <trkpt lat="43.48881" lon="6.1876">
        <ele>202.9</ele>
        <time>2024-03-27T16:10:42Z</time>
      </trkpt>
      <trkpt lat="43.48881" lon="6.1876">
        <ele>202.9</ele>
        <time>2024-03-27T16:10:43Z</time>
      </trkpt>
      <trkpt lat="43.48881" lon="6.1876">
        <ele>202.9</ele>
        <time>2024-03-27T16:10:44Z</time>
      </trkpt>
      <trkpt lat="43.48881" lon="6.1876">
        <ele>202.9</ele>
        <time>2024-03-27T16:10:45Z</time>
      </trkpt>
      <trkpt lat="43.48881" lon="6.1876">
        <ele>202.8</ele>
        <time>2024-03-27T16:10:46Z</time>
      </trkpt>
      <trkpt lat="43.48881" lon="6.1876">
        <ele>202.8</ele>
        <time>2024-03-27T16:10:47Z</time>
      </trkpt>
      <trkpt lat="43.48881" lon="6.1876">
        <ele>202.8</ele>
        <time>2024-03-27T16:10:48Z</time>
      </trkpt>
      <trkpt lat="43.48881" lon="6.1876">
        <ele>202.9</ele>
        <time>2024-03-27T16:10:49Z</time>
      </trkpt>
      <trkpt lat="43.48881" lon="6.1876">
        <ele>202.9</ele>
        <time>2024-03-27T16:10:50Z</time>
      </trkpt>
      <trkpt lat="43.48881" lon="6.1876">
        <ele>202.8</ele>
        <time>2024-03-27T16:10:51Z</time>
      </trkpt>
      <trkpt lat="43.48881" lon="6.1876">
        <ele>202.7</ele>
        <time>2024-03-27T16:10:52Z</time>
      </trkpt>
      <trkpt lat="43.48881" lon="6.1876">
        <ele>202.7</ele>
        <time>2024-03-27T16:10:53Z</time>
      </trkpt>
      <trkpt lat="43.48881" lon="6.1876">
        <ele>202.6</ele>
        <time>2024-03-27T16:10:54Z</time>
      </trkpt>
      <trkpt lat="43.48881" lon="6.18759">
        <ele>202.6</ele>
        <time>2024-03-27T16:10:55Z</time>
      </trkpt>
      <trkpt lat="43.4888" lon="6.18759">
        <ele>202.6</ele>
        <time>2024-03-27T16:10:56Z</time>
      </trkpt>
      <trkpt lat="43.4888" lon="6.18759">
        <ele>202.6</ele>
        <time>2024-03-27T16:10:57Z</time>
      </trkpt>
      <trkpt lat="43.4888" lon="6.1876">
        <ele>202.6</ele>
        <time>2024-03-27T16:10:58Z</time>
      </trkpt>
      <trkpt lat="43.4888" lon="6.1876">
        <ele>202.6</ele>
        <time>2024-03-27T16:10:59Z</time>
      </trkpt>
      <trkpt lat="43.4888" lon="6.1876">
        <ele>202.6</ele>
        <time>2024-03-27T16:11:00Z</time>
      </trkpt>
      <trkpt lat="43.4888" lon="6.1876">
        <ele>202.7</ele>
        <time>2024-03-27T16:11:01Z</time>
      </trkpt>
      <trkpt lat="43.48881" lon="6.1876">
        <ele>202.7</ele>
        <time>2024-03-27T16:11:02Z</time>
      </trkpt>
      <trkpt lat="43.48881" lon="6.1876">
        <ele>202.6</ele>
        <time>2024-03-27T16:11:03Z</time>
      </trkpt>
      <trkpt lat="43.48881" lon="6.18759">
        <ele>202.6</ele>
        <time>2024-03-27T16:11:04Z</time>
      </trkpt>
      <trkpt lat="43.48882" lon="6.18759">
        <ele>202.7</ele>
        <time>2024-03-27T16:11:05Z</time>
      </trkpt>
      <trkpt lat="43.48882" lon="6.18759">
        <ele>202.8</ele>
        <time>2024-03-27T16:11:06Z</time>
      </trkpt>
      <trkpt lat="43.48882" lon="6.18759">
        <ele>202.8</ele>
        <time>2024-03-27T16:11:07Z</time>
      </trkpt>
      <trkpt lat="43.48883" lon="6.18759">
        <ele>202.9</ele>
        <time>2024-03-27T16:11:08Z</time>
      </trkpt>
      <trkpt lat="43.48883" lon="6.18759">
        <ele>202.8</ele>
        <time>2024-03-27T16:11:09Z</time>
      </trkpt>
      <trkpt lat="43.48883" lon="6.18759">
        <ele>202.9</ele>
        <time>2024-03-27T16:11:10Z</time>
      </trkpt>
      <trkpt lat="43.48883" lon="6.18759">
        <ele>202.9</ele>
        <time>2024-03-27T16:11:11Z</time>
      </trkpt>
      <trkpt lat="43.48883" lon="6.18759">
        <ele>202.9</ele>
        <time>2024-03-27T16:11:12Z</time>
      </trkpt>
      <trkpt lat="43.48883" lon="6.18759">
        <ele>202.9</ele>
        <time>2024-03-27T16:11:13Z</time>
      </trkpt>
      <trkpt lat="43.48883" lon="6.18758">
        <ele>203</ele>
        <time>2024-03-27T16:11:14Z</time>
      </trkpt>
      <trkpt lat="43.48883" lon="6.18758">
        <ele>202.9</ele>
        <time>2024-03-27T16:11:15Z</time>
      </trkpt>
      <trkpt lat="43.48883" lon="6.18758">
        <ele>202.9</ele>
        <time>2024-03-27T16:11:16Z</time>
      </trkpt>
      <trkpt lat="43.48883" lon="6.18758">
        <ele>202.9</ele>
        <time>2024-03-27T16:11:17Z</time>
      </trkpt>
      <trkpt lat="43.48883" lon="6.18758">
        <ele>202.9</ele>
        <time>2024-03-27T16:11:18Z</time>
      </trkpt>
      <trkpt lat="43.48883" lon="6.18757">
        <ele>202.9</ele>
        <time>2024-03-27T16:11:19Z</time>
      </trkpt>
      <trkpt lat="43.48883" lon="6.18757">
        <ele>203</ele>
        <time>2024-03-27T16:11:20Z</time>
      </trkpt>
      <trkpt lat="43.48883" lon="6.18757">
        <ele>203</ele>
        <time>2024-03-27T16:11:21Z</time>
      </trkpt>
      <trkpt lat="43.48882" lon="6.18757">
        <ele>203.1</ele>
        <time>2024-03-27T16:11:22Z</time>
      </trkpt>
      <trkpt lat="43.48883" lon="6.18757">
        <ele>203.1</ele>
        <time>2024-03-27T16:11:23Z</time>
      </trkpt>
      <trkpt lat="43.48883" lon="6.18757">
        <ele>203.3</ele>
        <time>2024-03-27T16:11:24Z</time>
      </trkpt>
      <trkpt lat="43.48883" lon="6.18757">
        <ele>203.4</ele>
        <time>2024-03-27T16:11:25Z</time>
      </trkpt>
      <trkpt lat="43.48883" lon="6.18757">
        <ele>203.4</ele>
        <time>2024-03-27T16:11:26Z</time>
      </trkpt>
      <trkpt lat="43.48883" lon="6.18756">
        <ele>203.4</ele>
        <time>2024-03-27T16:11:27Z</time>
      </trkpt>
      <trkpt lat="43.48883" lon="6.18756">
        <ele>203.3</ele>
        <time>2024-03-27T16:11:28Z</time>
      </trkpt>
      <trkpt lat="43.48882" lon="6.18756">
        <ele>203.3</ele>
        <time>2024-03-27T16:11:29Z</time>
      </trkpt>
      <trkpt lat="43.48882" lon="6.18757">
        <ele>203.3</ele>
        <time>2024-03-27T16:11:30Z</time>
      </trkpt>
      <trkpt lat="43.48882" lon="6.18757">
        <ele>203.2</ele>
        <time>2024-03-27T16:11:31Z</time>
      </trkpt>
      <trkpt lat="43.48882" lon="6.18757">
        <ele>203.2</ele>
        <time>2024-03-27T16:11:32Z</time>
      </trkpt>
      <trkpt lat="43.48882" lon="6.18758">
        <ele>203.2</ele>
        <time>2024-03-27T16:11:33Z</time>
      </trkpt>
      <trkpt lat="43.48882" lon="6.18758">
        <ele>203.3</ele>
        <time>2024-03-27T16:11:34Z</time>
      </trkpt>
      <trkpt lat="43.48882" lon="6.18758">
        <ele>203.3</ele>
        <time>2024-03-27T16:11:35Z</time>
      </trkpt>
      <trkpt lat="43.48882" lon="6.18758">
        <ele>203.3</ele>
        <time>2024-03-27T16:11:36Z</time>
      </trkpt>
      <trkpt lat="43.48883" lon="6.18758">
        <ele>203.2</ele>
        <time>2024-03-27T16:11:37Z</time>
      </trkpt>
      <trkpt lat="43.48883" lon="6.18758">
        <ele>203</ele>
        <time>2024-03-27T16:11:38Z</time>
      </trkpt>
      <trkpt lat="43.48883" lon="6.18758">
        <ele>202.9</ele>
        <time>2024-03-27T16:11:39Z</time>
      </trkpt>
      <trkpt lat="43.48883" lon="6.18758">
        <ele>202.8</ele>
        <time>2024-03-27T16:11:40Z</time>
      </trkpt>
      <trkpt lat="43.48883" lon="6.18758">
        <ele>202.8</ele>
        <time>2024-03-27T16:11:41Z</time>
      </trkpt>
      <trkpt lat="43.48883" lon="6.18758">
        <ele>202.8</ele>
        <time>2024-03-27T16:11:42Z</time>
      </trkpt>
      <trkpt lat="43.48883" lon="6.18758">
        <ele>202.8</ele>
        <time>2024-03-27T16:11:43Z</time>
      </trkpt>
      <trkpt lat="43.48883" lon="6.18758">
        <ele>202.8</ele>
        <time>2024-03-27T16:11:44Z</time>
      </trkpt>
      <trkpt lat="43.48883" lon="6.18758">
        <ele>202.8</ele>
        <time>2024-03-27T16:11:45Z</time>
      </trkpt>
      <trkpt lat="43.48884" lon="6.18759">
        <ele>202.8</ele>
        <time>2024-03-27T16:11:46Z</time>
      </trkpt>
      <trkpt lat="43.48884" lon="6.18759">
        <ele>202.8</ele>
        <time>2024-03-27T16:11:47Z</time>
      </trkpt>
      <trkpt lat="43.48884" lon="6.18759">
        <ele>202.9</ele>
        <time>2024-03-27T16:11:48Z</time>
      </trkpt>
      <trkpt lat="43.48884" lon="6.18759">
        <ele>203</ele>
        <time>2024-03-27T16:11:49Z</time>
      </trkpt>
      <trkpt lat="43.48884" lon="6.18759">
        <ele>203</ele>
        <time>2024-03-27T16:11:50Z</time>
      </trkpt>
      <trkpt lat="43.48885" lon="6.18759">
        <ele>203</ele>
        <time>2024-03-27T16:11:51Z</time>
      </trkpt>
      <trkpt lat="43.48885" lon="6.18759">
        <ele>203.1</ele>
        <time>2024-03-27T16:11:52Z</time>
      </trkpt>
      <trkpt lat="43.48885" lon="6.1876">
        <ele>203.1</ele>
        <time>2024-03-27T16:11:53Z</time>
      </trkpt>
      <trkpt lat="43.48885" lon="6.1876">
        <ele>203.1</ele>
        <time>2024-03-27T16:11:54Z</time>
      </trkpt>
      <trkpt lat="43.48885" lon="6.1876">
        <ele>203.2</ele>
        <time>2024-03-27T16:11:55Z</time>
      </trkpt>
      <trkpt lat="43.48885" lon="6.1876">
        <ele>203.2</ele>
        <time>2024-03-27T16:11:56Z</time>
      </trkpt>
      <trkpt lat="43.48885" lon="6.1876">
        <ele>203.2</ele>
        <time>2024-03-27T16:11:57Z</time>
      </trkpt>
      <trkpt lat="43.48885" lon="6.1876">
        <ele>203.2</ele>
        <time>2024-03-27T16:11:58Z</time>
      </trkpt>
      <trkpt lat="43.48885" lon="6.1876">
        <ele>203.1</ele>
        <time>2024-03-27T16:11:59Z</time>
      </trkpt>
      <trkpt lat="43.48885" lon="6.1876">
        <ele>203.1</ele>
        <time>2024-03-27T16:12:00Z</time>
      </trkpt>
      <trkpt lat="43.48885" lon="6.1876">
        <ele>203.1</ele>
        <time>2024-03-27T16:12:01Z</time>
      </trkpt>
      <trkpt lat="43.48885" lon="6.1876">
        <ele>203</ele>
        <time>2024-03-27T16:12:02Z</time>
      </trkpt>
      <trkpt lat="43.48886" lon="6.1876">
        <ele>203</ele>
        <time>2024-03-27T16:12:03Z</time>
      </trkpt>
      <trkpt lat="43.48886" lon="6.1876">
        <ele>203</ele>
        <time>2024-03-27T16:12:04Z</time>
      </trkpt>
      <trkpt lat="43.48886" lon="6.18761">
        <ele>202.9</ele>
        <time>2024-03-27T16:12:05Z</time>
      </trkpt>
      <trkpt lat="43.48886" lon="6.18761">
        <ele>202.9</ele>
        <time>2024-03-27T16:12:06Z</time>
      </trkpt>
      <trkpt lat="43.48886" lon="6.18761">
        <ele>202.8</ele>
        <time>2024-03-27T16:12:07Z</time>
      </trkpt>
      <trkpt lat="43.48887" lon="6.18761">
        <ele>202.8</ele>
        <time>2024-03-27T16:12:08Z</time>
      </trkpt>
      <trkpt lat="43.48887" lon="6.18761">
        <ele>202.8</ele>
        <time>2024-03-27T16:12:09Z</time>
      </trkpt>
      <trkpt lat="43.48886" lon="6.18761">
        <ele>202.8</ele>
        <time>2024-03-27T16:12:10Z</time>
      </trkpt>
      <trkpt lat="43.48886" lon="6.18761">
        <ele>202.9</ele>
        <time>2024-03-27T16:12:11Z</time>
      </trkpt>
      <trkpt lat="43.48886" lon="6.1876">
        <ele>203</ele>
        <time>2024-03-27T16:12:12Z</time>
      </trkpt>
      <trkpt lat="43.48887" lon="6.1876">
        <ele>203.1</ele>
        <time>2024-03-27T16:12:13Z</time>
      </trkpt>
      <trkpt lat="43.48887" lon="6.1876">
        <ele>203.1</ele>
        <time>2024-03-27T16:12:14Z</time>
      </trkpt>
      <trkpt lat="43.48886" lon="6.1876">
        <ele>203.1</ele>
        <time>2024-03-27T16:12:15Z</time>
      </trkpt>
      <trkpt lat="43.48886" lon="6.1876">
        <ele>203.1</ele>
        <time>2024-03-27T16:12:16Z</time>
      </trkpt>
      <trkpt lat="43.48886" lon="6.1876">
        <ele>203.1</ele>
        <time>2024-03-27T16:12:17Z</time>
      </trkpt>
      <trkpt lat="43.48886" lon="6.18759">
        <ele>203</ele>
        <time>2024-03-27T16:12:18Z</time>
      </trkpt>
      <trkpt lat="43.48886" lon="6.18759">
        <ele>203</ele>
        <time>2024-03-27T16:12:19Z</time>
      </trkpt>
      <trkpt lat="43.48886" lon="6.1876">
        <ele>203</ele>
        <time>2024-03-27T16:12:20Z</time>
      </trkpt>
      <trkpt lat="43.48886" lon="6.1876">
        <ele>202.9</ele>
        <time>2024-03-27T16:12:21Z</time>
      </trkpt>
      <trkpt lat="43.48886" lon="6.1876">
        <ele>202.9</ele>
        <time>2024-03-27T16:12:22Z</time>
      </trkpt>
      <trkpt lat="43.48886" lon="6.1876">
        <ele>202.9</ele>
        <time>2024-03-27T16:12:23Z</time>
      </trkpt>
      <trkpt lat="43.48886" lon="6.1876">
        <ele>202.9</ele>
        <time>2024-03-27T16:12:24Z</time>
      </trkpt>
      <trkpt lat="43.48886" lon="6.1876">
        <ele>202.9</ele>
        <time>2024-03-27T16:12:25Z</time>
      </trkpt>
      <trkpt lat="43.48886" lon="6.1876">
        <ele>202.9</ele>
        <time>2024-03-27T16:12:26Z</time>
      </trkpt>
      <trkpt lat="43.48886" lon="6.1876">
        <ele>202.9</ele>
        <time>2024-03-27T16:12:27Z</time>
      </trkpt>
      <trkpt lat="43.48886" lon="6.1876">
        <ele>202.9</ele>
        <time>2024-03-27T16:12:28Z</time>
      </trkpt>
      <trkpt lat="43.48886" lon="6.1876">
        <ele>202.8</ele>
        <time>2024-03-27T16:12:29Z</time>
      </trkpt>
      <trkpt lat="43.48886" lon="6.1876">
        <ele>202.9</ele>
        <time>2024-03-27T16:12:30Z</time>
      </trkpt>
      <trkpt lat="43.48886" lon="6.1876">
        <ele>202.9</ele>
        <time>2024-03-27T16:12:31Z</time>
      </trkpt>
      <trkpt lat="43.48886" lon="6.1876">
        <ele>203</ele>
        <time>2024-03-27T16:12:32Z</time>
      </trkpt>
      <trkpt lat="43.48886" lon="6.1876">
        <ele>203</ele>
        <time>2024-03-27T16:12:33Z</time>
      </trkpt>
      <trkpt lat="43.48886" lon="6.1876">
        <ele>203</ele>
        <time>2024-03-27T16:12:34Z</time>
      </trkpt>
      <trkpt lat="43.48887" lon="6.1876">
        <ele>203.1</ele>
        <time>2024-03-27T16:12:35Z</time>
      </trkpt>
      <trkpt lat="43.48887" lon="6.1876">
        <ele>203.1</ele>
        <time>2024-03-27T16:12:36Z</time>
      </trkpt>
      <trkpt lat="43.48887" lon="6.1876">
        <ele>203.1</ele>
        <time>2024-03-27T16:12:37Z</time>
      </trkpt>
      <trkpt lat="43.48887" lon="6.1876">
        <ele>203.2</ele>
        <time>2024-03-27T16:12:38Z</time>
      </trkpt>
      <trkpt lat="43.48887" lon="6.1876">
        <ele>203.2</ele>
        <time>2024-03-27T16:12:39Z</time>
      </trkpt>
      <trkpt lat="43.48887" lon="6.1876">
        <ele>203.2</ele>
        <time>2024-03-27T16:12:40Z</time>
      </trkpt>
      <trkpt lat="43.48888" lon="6.1876">
        <ele>203.3</ele>
        <time>2024-03-27T16:12:41Z</time>
      </trkpt>
      <trkpt lat="43.48888" lon="6.1876">
        <ele>203.2</ele>
        <time>2024-03-27T16:12:42Z</time>
      </trkpt>
      <trkpt lat="43.48888" lon="6.1876">
        <ele>203.2</ele>
        <time>2024-03-27T16:12:43Z</time>
      </trkpt>
      <trkpt lat="43.48888" lon="6.1876">
        <ele>203.2</ele>
        <time>2024-03-27T16:12:44Z</time>
      </trkpt>
      <trkpt lat="43.48888" lon="6.18761">
        <ele>203.3</ele>
        <time>2024-03-27T16:12:45Z</time>
      </trkpt>
      <trkpt lat="43.48888" lon="6.18761">
        <ele>203.3</ele>
        <time>2024-03-27T16:12:46Z</time>
      </trkpt>
      <trkpt lat="43.48888" lon="6.18761">
        <ele>203.3</ele>
        <time>2024-03-27T16:12:47Z</time>
      </trkpt>
      <trkpt lat="43.48888" lon="6.18761">
        <ele>203.2</ele>
        <time>2024-03-27T16:12:48Z</time>
      </trkpt>
      <trkpt lat="43.48888" lon="6.18761">
        <ele>203.1</ele>
        <time>2024-03-27T16:12:49Z</time>
      </trkpt>
      <trkpt lat="43.48888" lon="6.18761">
        <ele>203.2</ele>
        <time>2024-03-27T16:12:50Z</time>
      </trkpt>
      <trkpt lat="43.48888" lon="6.18761">
        <ele>203.2</ele>
        <time>2024-03-27T16:12:51Z</time>
      </trkpt>
      <trkpt lat="43.48888" lon="6.18761">
        <ele>203.2</ele>
        <time>2024-03-27T16:12:52Z</time>
      </trkpt>
      <trkpt lat="43.48888" lon="6.18761">
        <ele>203.2</ele>
        <time>2024-03-27T16:12:53Z</time>
      </trkpt>
      <trkpt lat="43.48888" lon="6.18762">
        <ele>203.2</ele>
        <time>2024-03-27T16:12:54Z</time>
      </trkpt>
      <trkpt lat="43.48889" lon="6.18762">
        <ele>203.2</ele>
        <time>2024-03-27T16:12:55Z</time>
      </trkpt>
      <trkpt lat="43.48889" lon="6.18762">
        <ele>203.2</ele>
        <time>2024-03-27T16:12:56Z</time>
      </trkpt>
      <trkpt lat="43.48889" lon="6.18762">
        <ele>203.3</ele>
        <time>2024-03-27T16:12:57Z</time>
      </trkpt>
      <trkpt lat="43.48889" lon="6.18762">
        <ele>203.3</ele>
        <time>2024-03-27T16:12:58Z</time>
      </trkpt>
      <trkpt lat="43.48889" lon="6.18762">
        <ele>203.1</ele>
        <time>2024-03-27T16:12:59Z</time>
      </trkpt>
      <trkpt lat="43.48889" lon="6.18762">
        <ele>203</ele>
        <time>2024-03-27T16:13:00Z</time>
      </trkpt>
      <trkpt lat="43.4889" lon="6.18762">
        <ele>203</ele>
        <time>2024-03-27T16:13:01Z</time>
      </trkpt>
      <trkpt lat="43.4889" lon="6.18762">
        <ele>203</ele>
        <time>2024-03-27T16:13:02Z</time>
      </trkpt>
      <trkpt lat="43.4889" lon="6.18762">
        <ele>202.9</ele>
        <time>2024-03-27T16:13:03Z</time>
      </trkpt>
      <trkpt lat="43.4889" lon="6.18762">
        <ele>202.9</ele>
        <time>2024-03-27T16:13:04Z</time>
      </trkpt>
      <trkpt lat="43.4889" lon="6.18762">
        <ele>202.9</ele>
        <time>2024-03-27T16:13:05Z</time>
      </trkpt>
      <trkpt lat="43.4889" lon="6.18762">
        <ele>202.9</ele>
        <time>2024-03-27T16:13:06Z</time>
      </trkpt>
      <trkpt lat="43.48891" lon="6.18762">
        <ele>202.9</ele>
        <time>2024-03-27T16:13:07Z</time>
      </trkpt>
      <trkpt lat="43.48891" lon="6.18762">
        <ele>202.9</ele>
        <time>2024-03-27T16:13:08Z</time>
      </trkpt>
      <trkpt lat="43.48891" lon="6.18762">
        <ele>202.9</ele>
        <time>2024-03-27T16:13:09Z</time>
      </trkpt>
      <trkpt lat="43.48891" lon="6.18762">
        <ele>202.9</ele>
        <time>2024-03-27T16:13:10Z</time>
      </trkpt>
      <trkpt lat="43.48892" lon="6.18762">
        <ele>202.9</ele>
        <time>2024-03-27T16:13:11Z</time>
      </trkpt>
      <trkpt lat="43.48892" lon="6.18762">
        <ele>202.9</ele>
        <time>2024-03-27T16:13:12Z</time>
      </trkpt>
      <trkpt lat="43.48892" lon="6.18762">
        <ele>203</ele>
        <time>2024-03-27T16:13:13Z</time>
      </trkpt>
      <trkpt lat="43.48892" lon="6.18762">
        <ele>203.1</ele>
        <time>2024-03-27T16:13:14Z</time>
      </trkpt>
      <trkpt lat="43.48892" lon="6.18763">
        <ele>203</ele>
        <time>2024-03-27T16:13:15Z</time>
      </trkpt>
      <trkpt lat="43.48892" lon="6.18763">
        <ele>203</ele>
        <time>2024-03-27T16:13:16Z</time>
      </trkpt>
      <trkpt lat="43.48892" lon="6.18763">
        <ele>202.9</ele>
        <time>2024-03-27T16:13:17Z</time>
      </trkpt>
      <trkpt lat="43.48892" lon="6.18763">
        <ele>202.9</ele>
        <time>2024-03-27T16:13:18Z</time>
      </trkpt>
      <trkpt lat="43.48893" lon="6.18762">
        <ele>202.9</ele>
        <time>2024-03-27T16:13:19Z</time>
      </trkpt>
      <trkpt lat="43.48893" lon="6.18762">
        <ele>202.9</ele>
        <time>2024-03-27T16:13:20Z</time>
      </trkpt>
      <trkpt lat="43.48892" lon="6.18762">
        <ele>202.9</ele>
        <time>2024-03-27T16:13:21Z</time>
      </trkpt>
      <trkpt lat="43.48893" lon="6.18762">
        <ele>203</ele>
        <time>2024-03-27T16:13:22Z</time>
      </trkpt>
      <trkpt lat="43.48892" lon="6.18762">
        <ele>203</ele>
        <time>2024-03-27T16:13:23Z</time>
      </trkpt>
      <trkpt lat="43.48892" lon="6.18762">
        <ele>203</ele>
        <time>2024-03-27T16:13:24Z</time>
      </trkpt>
      <trkpt lat="43.48892" lon="6.18762">
        <ele>203</ele>
        <time>2024-03-27T16:13:25Z</time>
      </trkpt>
      <trkpt lat="43.48892" lon="6.18762">
        <ele>203</ele>
        <time>2024-03-27T16:13:26Z</time>
      </trkpt>
      <trkpt lat="43.48892" lon="6.18762">
        <ele>203</ele>
        <time>2024-03-27T16:13:27Z</time>
      </trkpt>
      <trkpt lat="43.48892" lon="6.18762">
        <ele>202.9</ele>
        <time>2024-03-27T16:13:28Z</time>
      </trkpt>
      <trkpt lat="43.48893" lon="6.18762">
        <ele>202.9</ele>
        <time>2024-03-27T16:13:29Z</time>
      </trkpt>
      <trkpt lat="43.48893" lon="6.18762">
        <ele>202.9</ele>
        <time>2024-03-27T16:13:30Z</time>
      </trkpt>
      <trkpt lat="43.48893" lon="6.18762">
        <ele>203</ele>
        <time>2024-03-27T16:13:31Z</time>
      </trkpt>
      <trkpt lat="43.48893" lon="6.18762">
        <ele>202.9</ele>
        <time>2024-03-27T16:13:32Z</time>
      </trkpt>
      <trkpt lat="43.48893" lon="6.18762">
        <ele>202.9</ele>
        <time>2024-03-27T16:13:33Z</time>
      </trkpt>
      <trkpt lat="43.48893" lon="6.18762">
        <ele>202.8</ele>
        <time>2024-03-27T16:13:34Z</time>
      </trkpt>
      <trkpt lat="43.48892" lon="6.18762">
        <ele>202.8</ele>
        <time>2024-03-27T16:13:35Z</time>
      </trkpt>
      <trkpt lat="43.48892" lon="6.18762">
        <ele>202.8</ele>
        <time>2024-03-27T16:13:36Z</time>
      </trkpt>
      <trkpt lat="43.48892" lon="6.18762">
        <ele>202.8</ele>
        <time>2024-03-27T16:13:37Z</time>
      </trkpt>
      <trkpt lat="43.48892" lon="6.18762">
        <ele>202.8</ele>
        <time>2024-03-27T16:13:38Z</time>
      </trkpt>
      <trkpt lat="43.48892" lon="6.18762">
        <ele>202.8</ele>
        <time>2024-03-27T16:13:39Z</time>
      </trkpt>
      <trkpt lat="43.48893" lon="6.18762">
        <ele>202.8</ele>
        <time>2024-03-27T16:13:40Z</time>
      </trkpt>
      <trkpt lat="43.48893" lon="6.18762">
        <ele>202.9</ele>
        <time>2024-03-27T16:13:41Z</time>
      </trkpt>
      <trkpt lat="43.48893" lon="6.18762">
        <ele>202.9</ele>
        <time>2024-03-27T16:13:42Z</time>
      </trkpt>
      <trkpt lat="43.48893" lon="6.18761">
        <ele>202.9</ele>
        <time>2024-03-27T16:13:43Z</time>
      </trkpt>
      <trkpt lat="43.48893" lon="6.18761">
        <ele>202.9</ele>
        <time>2024-03-27T16:13:44Z</time>
      </trkpt>
      <trkpt lat="43.48893" lon="6.18761">
        <ele>202.9</ele>
        <time>2024-03-27T16:13:45Z</time>
      </trkpt>
      <trkpt lat="43.48893" lon="6.18761">
        <ele>202.9</ele>
        <time>2024-03-27T16:13:46Z</time>
      </trkpt>
      <trkpt lat="43.48893" lon="6.18761">
        <ele>202.9</ele>
        <time>2024-03-27T16:13:47Z</time>
      </trkpt>
      <trkpt lat="43.48892" lon="6.18761">
        <ele>202.9</ele>
        <time>2024-03-27T16:13:48Z</time>
      </trkpt>
      <trkpt lat="43.48892" lon="6.18761">
        <ele>202.8</ele>
        <time>2024-03-27T16:13:49Z</time>
      </trkpt>
      <trkpt lat="43.48891" lon="6.18761">
        <ele>202.7</ele>
        <time>2024-03-27T16:13:50Z</time>
      </trkpt>
      <trkpt lat="43.48891" lon="6.18761">
        <ele>202.6</ele>
        <time>2024-03-27T16:13:51Z</time>
      </trkpt>
      <trkpt lat="43.48891" lon="6.18761">
        <ele>202.6</ele>
        <time>2024-03-27T16:13:52Z</time>
      </trkpt>
      <trkpt lat="43.48891" lon="6.18761">
        <ele>202.6</ele>
        <time>2024-03-27T16:13:53Z</time>
      </trkpt>
      <trkpt lat="43.48891" lon="6.18761">
        <ele>202.6</ele>
        <time>2024-03-27T16:13:54Z</time>
      </trkpt>
      <trkpt lat="43.48891" lon="6.18761">
        <ele>202.6</ele>
        <time>2024-03-27T16:13:55Z</time>
      </trkpt>
      <trkpt lat="43.48891" lon="6.18761">
        <ele>202.6</ele>
        <time>2024-03-27T16:13:56Z</time>
      </trkpt>
      <trkpt lat="43.48891" lon="6.18761">
        <ele>202.7</ele>
        <time>2024-03-27T16:13:57Z</time>
      </trkpt>
      <trkpt lat="43.48891" lon="6.18761">
        <ele>202.7</ele>
        <time>2024-03-27T16:13:58Z</time>
      </trkpt>
      <trkpt lat="43.48891" lon="6.18761">
        <ele>202.8</ele>
        <time>2024-03-27T16:13:59Z</time>
      </trkpt>
      <trkpt lat="43.48891" lon="6.18761">
        <ele>202.8</ele>
        <time>2024-03-27T16:14:00Z</time>
      </trkpt>
      <trkpt lat="43.48891" lon="6.18761">
        <ele>202.8</ele>
        <time>2024-03-27T16:14:01Z</time>
      </trkpt>
      <trkpt lat="43.48891" lon="6.18761">
        <ele>202.9</ele>
        <time>2024-03-27T16:14:02Z</time>
      </trkpt>
      <trkpt lat="43.48891" lon="6.18761">
        <ele>202.9</ele>
        <time>2024-03-27T16:14:03Z</time>
      </trkpt>
      <trkpt lat="43.48891" lon="6.18761">
        <ele>202.9</ele>
        <time>2024-03-27T16:14:04Z</time>
      </trkpt>
      <trkpt lat="43.48891" lon="6.18761">
        <ele>202.9</ele>
        <time>2024-03-27T16:14:05Z</time>
      </trkpt>
      <trkpt lat="43.48891" lon="6.18761">
        <ele>202.9</ele>
        <time>2024-03-27T16:14:06Z</time>
      </trkpt>
      <trkpt lat="43.48891" lon="6.18761">
        <ele>202.9</ele>
        <time>2024-03-27T16:14:07Z</time>
      </trkpt>
      <trkpt lat="43.48891" lon="6.18761">
        <ele>203</ele>
        <time>2024-03-27T16:14:08Z</time>
      </trkpt>
      <trkpt lat="43.48891" lon="6.18761">
        <ele>203</ele>
        <time>2024-03-27T16:14:09Z</time>
      </trkpt>
      <trkpt lat="43.48891" lon="6.18761">
        <ele>202.9</ele>
        <time>2024-03-27T16:14:10Z</time>
      </trkpt>
      <trkpt lat="43.48891" lon="6.18761">
        <ele>202.9</ele>
        <time>2024-03-27T16:14:11Z</time>
      </trkpt>
      <trkpt lat="43.4889" lon="6.18761">
        <ele>202.9</ele>
        <time>2024-03-27T16:14:12Z</time>
      </trkpt>
      <trkpt lat="43.4889" lon="6.18761">
        <ele>202.9</ele>
        <time>2024-03-27T16:14:13Z</time>
      </trkpt>
      <trkpt lat="43.4889" lon="6.18761">
        <ele>202.9</ele>
        <time>2024-03-27T16:14:14Z</time>
      </trkpt>
      <trkpt lat="43.4889" lon="6.18761">
        <ele>202.8</ele>
        <time>2024-03-27T16:14:15Z</time>
      </trkpt>
      <trkpt lat="43.48889" lon="6.18761">
        <ele>202.9</ele>
        <time>2024-03-27T16:14:16Z</time>
      </trkpt>
      <trkpt lat="43.48889" lon="6.1876">
        <ele>202.8</ele>
        <time>2024-03-27T16:14:17Z</time>
      </trkpt>
      <trkpt lat="43.48889" lon="6.1876">
        <ele>202.8</ele>
        <time>2024-03-27T16:14:18Z</time>
      </trkpt>
      <trkpt lat="43.48889" lon="6.1876">
        <ele>202.8</ele>
        <time>2024-03-27T16:14:19Z</time>
      </trkpt>
      <trkpt lat="43.48889" lon="6.1876">
        <ele>202.7</ele>
        <time>2024-03-27T16:14:20Z</time>
      </trkpt>
      <trkpt lat="43.48889" lon="6.1876">
        <ele>202.8</ele>
        <time>2024-03-27T16:14:21Z</time>
      </trkpt>
      <trkpt lat="43.48889" lon="6.1876">
        <ele>202.8</ele>
        <time>2024-03-27T16:14:22Z</time>
      </trkpt>
      <trkpt lat="43.48889" lon="6.18761">
        <ele>202.9</ele>
        <time>2024-03-27T16:14:23Z</time>
      </trkpt>
      <trkpt lat="43.48889" lon="6.18761">
        <ele>202.9</ele>
        <time>2024-03-27T16:14:24Z</time>
      </trkpt>
      <trkpt lat="43.48889" lon="6.18761">
        <ele>203</ele>
        <time>2024-03-27T16:14:25Z</time>
      </trkpt>
      <trkpt lat="43.48889" lon="6.1876">
        <ele>203</ele>
        <time>2024-03-27T16:14:26Z</time>
      </trkpt>
      <trkpt lat="43.48889" lon="6.1876">
        <ele>203</ele>
        <time>2024-03-27T16:14:27Z</time>
      </trkpt>
      <trkpt lat="43.48889" lon="6.1876">
        <ele>203</ele>
        <time>2024-03-27T16:14:28Z</time>
      </trkpt>
      <trkpt lat="43.48888" lon="6.1876">
        <ele>203</ele>
        <time>2024-03-27T16:14:29Z</time>
      </trkpt>
      <trkpt lat="43.48888" lon="6.1876">
        <ele>202.9</ele>
        <time>2024-03-27T16:14:30Z</time>
      </trkpt>
      <trkpt lat="43.48888" lon="6.1876">
        <ele>202.9</ele>
        <time>2024-03-27T16:14:31Z</time>
      </trkpt>
      <trkpt lat="43.48889" lon="6.18759">
        <ele>203</ele>
        <time>2024-03-27T16:14:32Z</time>
      </trkpt>
      <trkpt lat="43.48889" lon="6.18759">
        <ele>203</ele>
        <time>2024-03-27T16:14:33Z</time>
      </trkpt>
      <trkpt lat="43.48889" lon="6.18759">
        <ele>203</ele>
        <time>2024-03-27T16:14:34Z</time>
      </trkpt>
      <trkpt lat="43.4889" lon="6.18759">
        <ele>202.9</ele>
        <time>2024-03-27T16:14:35Z</time>
      </trkpt>
      <trkpt lat="43.4889" lon="6.18759">
        <ele>202.9</ele>
        <time>2024-03-27T16:14:36Z</time>
      </trkpt>
      <trkpt lat="43.4889" lon="6.18759">
        <ele>202.9</ele>
        <time>2024-03-27T16:14:37Z</time>
      </trkpt>
      <trkpt lat="43.4889" lon="6.18759">
        <ele>203</ele>
        <time>2024-03-27T16:14:38Z</time>
      </trkpt>
      <trkpt lat="43.4889" lon="6.18759">
        <ele>203</ele>
        <time>2024-03-27T16:14:39Z</time>
      </trkpt>
      <trkpt lat="43.48891" lon="6.18759">
        <ele>203</ele>
        <time>2024-03-27T16:14:40Z</time>
      </trkpt>
      <trkpt lat="43.48891" lon="6.18759">
        <ele>203</ele>
        <time>2024-03-27T16:14:41Z</time>
      </trkpt>
      <trkpt lat="43.48891" lon="6.18759">
        <ele>202.9</ele>
        <time>2024-03-27T16:14:42Z</time>
      </trkpt>
      <trkpt lat="43.48891" lon="6.18759">
        <ele>202.9</ele>
        <time>2024-03-27T16:14:43Z</time>
      </trkpt>
      <trkpt lat="43.48891" lon="6.1876">
        <ele>202.9</ele>
        <time>2024-03-27T16:14:44Z</time>
      </trkpt>
      <trkpt lat="43.48891" lon="6.1876">
        <ele>202.9</ele>
        <time>2024-03-27T16:14:45Z</time>
      </trkpt>
      <trkpt lat="43.48891" lon="6.1876">
        <ele>202.9</ele>
        <time>2024-03-27T16:14:46Z</time>
      </trkpt>
      <trkpt lat="43.48892" lon="6.1876">
        <ele>202.9</ele>
        <time>2024-03-27T16:14:47Z</time>
      </trkpt>
      <trkpt lat="43.48892" lon="6.1876">
        <ele>202.9</ele>
        <time>2024-03-27T16:14:48Z</time>
      </trkpt>
      <trkpt lat="43.48892" lon="6.1876">
        <ele>202.9</ele>
        <time>2024-03-27T16:14:49Z</time>
      </trkpt>
      <trkpt lat="43.48892" lon="6.1876">
        <ele>202.9</ele>
        <time>2024-03-27T16:14:50Z</time>
      </trkpt>
      <trkpt lat="43.48892" lon="6.1876">
        <ele>202.9</ele>
        <time>2024-03-27T16:14:51Z</time>
      </trkpt>
      <trkpt lat="43.48892" lon="6.1876">
        <ele>202.9</ele>
        <time>2024-03-27T16:14:52Z</time>
      </trkpt>
      <trkpt lat="43.48892" lon="6.1876">
        <ele>202.9</ele>
        <time>2024-03-27T16:14:53Z</time>
      </trkpt>
      <trkpt lat="43.48892" lon="6.1876">
        <ele>202.9</ele>
        <time>2024-03-27T16:14:54Z</time>
      </trkpt>
      <trkpt lat="43.48892" lon="6.1876">
        <ele>202.9</ele>
        <time>2024-03-27T16:14:55Z</time>
      </trkpt>
      <trkpt lat="43.48892" lon="6.1876">
        <ele>202.9</ele>
        <time>2024-03-27T16:14:56Z</time>
      </trkpt>
      <trkpt lat="43.48892" lon="6.1876">
        <ele>202.9</ele>
        <time>2024-03-27T16:14:57Z</time>
      </trkpt>
      <trkpt lat="43.48892" lon="6.1876">
        <ele>202.9</ele>
        <time>2024-03-27T16:14:58Z</time>
      </trkpt>
      <trkpt lat="43.48892" lon="6.1876">
        <ele>202.8</ele>
        <time>2024-03-27T16:14:59Z</time>
      </trkpt>
      <trkpt lat="43.48892" lon="6.1876">
        <ele>202.8</ele>
        <time>2024-03-27T16:15:00Z</time>
      </trkpt>
      <trkpt lat="43.48892" lon="6.1876">
        <ele>202.8</ele>
        <time>2024-03-27T16:15:01Z</time>
      </trkpt>
      <trkpt lat="43.48892" lon="6.1876">
        <ele>202.8</ele>
        <time>2024-03-27T16:15:02Z</time>
      </trkpt>
      <trkpt lat="43.48892" lon="6.1876">
        <ele>202.7</ele>
        <time>2024-03-27T16:15:03Z</time>
      </trkpt>
      <trkpt lat="43.48892" lon="6.18759">
        <ele>202.8</ele>
        <time>2024-03-27T16:15:04Z</time>
      </trkpt>
      <trkpt lat="43.48892" lon="6.18759">
        <ele>202.8</ele>
        <time>2024-03-27T16:15:05Z</time>
      </trkpt>
      <trkpt lat="43.48892" lon="6.18759">
        <ele>202.9</ele>
        <time>2024-03-27T16:15:06Z</time>
      </trkpt>
      <trkpt lat="43.48892" lon="6.18759">
        <ele>202.8</ele>
        <time>2024-03-27T16:15:07Z</time>
      </trkpt>
      <trkpt lat="43.48892" lon="6.18759">
        <ele>202.9</ele>
        <time>2024-03-27T16:15:08Z</time>
      </trkpt>
      <trkpt lat="43.48892" lon="6.18759">
        <ele>203</ele>
        <time>2024-03-27T16:15:09Z</time>
      </trkpt>
      <trkpt lat="43.48893" lon="6.18759">
        <ele>203</ele>
        <time>2024-03-27T16:15:10Z</time>
      </trkpt>
      <trkpt lat="43.48894" lon="6.18759">
        <ele>203</ele>
        <time>2024-03-27T16:15:11Z</time>
      </trkpt>
      <trkpt lat="43.48894" lon="6.18759">
        <ele>203</ele>
        <time>2024-03-27T16:15:12Z</time>
      </trkpt>
      <trkpt lat="43.48894" lon="6.18759">
        <ele>203</ele>
        <time>2024-03-27T16:15:13Z</time>
      </trkpt>
      <trkpt lat="43.48893" lon="6.18759">
        <ele>203</ele>
        <time>2024-03-27T16:15:14Z</time>
      </trkpt>
      <trkpt lat="43.48893" lon="6.18759">
        <ele>202.9</ele>
        <time>2024-03-27T16:15:15Z</time>
      </trkpt>
      <trkpt lat="43.48893" lon="6.18759">
        <ele>202.9</ele>
        <time>2024-03-27T16:15:16Z</time>
      </trkpt>
      <trkpt lat="43.48892" lon="6.1876">
        <ele>203</ele>
        <time>2024-03-27T16:15:17Z</time>
      </trkpt>
      <trkpt lat="43.48892" lon="6.1876">
        <ele>203</ele>
        <time>2024-03-27T16:15:18Z</time>
      </trkpt>
      <trkpt lat="43.48892" lon="6.1876">
        <ele>203</ele>
        <time>2024-03-27T16:15:19Z</time>
      </trkpt>
      <trkpt lat="43.48892" lon="6.1876">
        <ele>203</ele>
        <time>2024-03-27T16:15:20Z</time>
      </trkpt>
      <trkpt lat="43.48892" lon="6.1876">
        <ele>203</ele>
        <time>2024-03-27T16:15:21Z</time>
      </trkpt>
      <trkpt lat="43.48891" lon="6.1876">
        <ele>203</ele>
        <time>2024-03-27T16:15:22Z</time>
      </trkpt>
      <trkpt lat="43.48892" lon="6.1876">
        <ele>203</ele>
        <time>2024-03-27T16:15:23Z</time>
      </trkpt>
      <trkpt lat="43.48892" lon="6.1876">
        <ele>203</ele>
        <time>2024-03-27T16:15:24Z</time>
      </trkpt>
      <trkpt lat="43.48892" lon="6.1876">
        <ele>202.9</ele>
        <time>2024-03-27T16:15:25Z</time>
      </trkpt>
      <trkpt lat="43.48892" lon="6.1876">
        <ele>202.9</ele>
        <time>2024-03-27T16:15:26Z</time>
      </trkpt>
      <trkpt lat="43.48891" lon="6.1876">
        <ele>203</ele>
        <time>2024-03-27T16:15:27Z</time>
      </trkpt>
      <trkpt lat="43.48891" lon="6.1876">
        <ele>203</ele>
        <time>2024-03-27T16:15:28Z</time>
      </trkpt>
      <trkpt lat="43.48891" lon="6.1876">
        <ele>203</ele>
        <time>2024-03-27T16:15:29Z</time>
      </trkpt>
      <trkpt lat="43.4889" lon="6.1876">
        <ele>203</ele>
        <time>2024-03-27T16:15:30Z</time>
      </trkpt>
      <trkpt lat="43.4889" lon="6.1876">
        <ele>203</ele>
        <time>2024-03-27T16:15:31Z</time>
      </trkpt>
      <trkpt lat="43.4889" lon="6.1876">
        <ele>203</ele>
        <time>2024-03-27T16:15:32Z</time>
      </trkpt>
      <trkpt lat="43.4889" lon="6.1876">
        <ele>203</ele>
        <time>2024-03-27T16:15:33Z</time>
      </trkpt>
      <trkpt lat="43.4889" lon="6.1876">
        <ele>203</ele>
        <time>2024-03-27T16:15:34Z</time>
      </trkpt>
      <trkpt lat="43.4889" lon="6.1876">
        <ele>203</ele>
        <time>2024-03-27T16:15:35Z</time>
      </trkpt>
      <trkpt lat="43.4889" lon="6.1876">
        <ele>202.9</ele>
        <time>2024-03-27T16:15:36Z</time>
      </trkpt>
      <trkpt lat="43.4889" lon="6.1876">
        <ele>202.9</ele>
        <time>2024-03-27T16:15:37Z</time>
      </trkpt>
      <trkpt lat="43.4889" lon="6.1876">
        <ele>202.9</ele>
        <time>2024-03-27T16:15:38Z</time>
      </trkpt>
      <trkpt lat="43.48891" lon="6.1876">
        <ele>202.9</ele>
        <time>2024-03-27T16:15:39Z</time>
      </trkpt>
      <trkpt lat="43.48891" lon="6.1876">
        <ele>202.9</ele>
        <time>2024-03-27T16:15:40Z</time>
      </trkpt>
      <trkpt lat="43.4889" lon="6.1876">
        <ele>202.9</ele>
        <time>2024-03-27T16:15:41Z</time>
      </trkpt>
      <trkpt lat="43.4889" lon="6.1876">
        <ele>202.9</ele>
        <time>2024-03-27T16:15:42Z</time>
      </trkpt>
      <trkpt lat="43.48889" lon="6.1876">
        <ele>202.9</ele>
        <time>2024-03-27T16:15:43Z</time>
      </trkpt>
      <trkpt lat="43.48888" lon="6.18761">
        <ele>202.9</ele>
        <time>2024-03-27T16:15:44Z</time>
      </trkpt>
      <trkpt lat="43.48888" lon="6.18762">
        <ele>202.9</ele>
        <time>2024-03-27T16:15:45Z</time>
      </trkpt>
      <trkpt lat="43.48886" lon="6.18762">
        <ele>202.8</ele>
        <time>2024-03-27T16:15:46Z</time>
      </trkpt>
      <trkpt lat="43.48885" lon="6.18763">
        <ele>202.7</ele>
        <time>2024-03-27T16:15:47Z</time>
      </trkpt>
      <trkpt lat="43.48884" lon="6.18764">
        <ele>202.7</ele>
        <time>2024-03-27T16:15:48Z</time>
      </trkpt>
      <trkpt lat="43.48882" lon="6.18765">
        <ele>202.6</ele>
        <time>2024-03-27T16:15:49Z</time>
      </trkpt>
      <trkpt lat="43.48881" lon="6.18765">
        <ele>202.6</ele>
        <time>2024-03-27T16:15:50Z</time>
      </trkpt>
      <trkpt lat="43.4888" lon="6.18766">
        <ele>202.5</ele>
        <time>2024-03-27T16:15:51Z</time>
      </trkpt>
      <trkpt lat="43.48878" lon="6.18766">
        <ele>202.5</ele>
        <time>2024-03-27T16:15:52Z</time>
      </trkpt>
      <trkpt lat="43.48876" lon="6.18767">
        <ele>202.5</ele>
        <time>2024-03-27T16:15:53Z</time>
      </trkpt>
      <trkpt lat="43.48875" lon="6.18767">
        <ele>202.4</ele>
        <time>2024-03-27T16:15:54Z</time>
      </trkpt>
      <trkpt lat="43.48874" lon="6.18767">
        <ele>202.4</ele>
        <time>2024-03-27T16:15:55Z</time>
      </trkpt>
      <trkpt lat="43.48873" lon="6.18768">
        <ele>202.3</ele>
        <time>2024-03-27T16:15:56Z</time>
      </trkpt>
      <trkpt lat="43.48872" lon="6.18768">
        <ele>202.2</ele>
        <time>2024-03-27T16:15:57Z</time>
      </trkpt>
      <trkpt lat="43.4887" lon="6.18767">
        <ele>202.1</ele>
        <time>2024-03-27T16:15:58Z</time>
      </trkpt>
      <trkpt lat="43.4887" lon="6.18767">
        <ele>202.1</ele>
        <time>2024-03-27T16:15:59Z</time>
      </trkpt>
      <trkpt lat="43.48868" lon="6.18768">
        <ele>201.9</ele>
        <time>2024-03-27T16:16:00Z</time>
      </trkpt>
      <trkpt lat="43.48867" lon="6.18768">
        <ele>201.7</ele>
        <time>2024-03-27T16:16:01Z</time>
      </trkpt>
      <trkpt lat="43.48866" lon="6.18768">
        <ele>201.6</ele>
        <time>2024-03-27T16:16:02Z</time>
      </trkpt>
      <trkpt lat="43.48864" lon="6.18769">
        <ele>201.5</ele>
        <time>2024-03-27T16:16:03Z</time>
      </trkpt>
      <trkpt lat="43.48862" lon="6.18768">
        <ele>201.4</ele>
        <time>2024-03-27T16:16:04Z</time>
      </trkpt>
      <trkpt lat="43.48861" lon="6.18768">
        <ele>201.2</ele>
        <time>2024-03-27T16:16:05Z</time>
      </trkpt>
      <trkpt lat="43.48861" lon="6.18768">
        <ele>201.1</ele>
        <time>2024-03-27T16:16:06Z</time>
      </trkpt>
      <trkpt lat="43.4886" lon="6.18767">
        <ele>201</ele>
        <time>2024-03-27T16:16:07Z</time>
      </trkpt>
      <trkpt lat="43.4886" lon="6.18767">
        <ele>200.7</ele>
        <time>2024-03-27T16:16:08Z</time>
      </trkpt>
      <trkpt lat="43.48859" lon="6.18766">
        <ele>200.5</ele>
        <time>2024-03-27T16:16:09Z</time>
      </trkpt>
      <trkpt lat="43.48859" lon="6.18766">
        <ele>200.3</ele>
        <time>2024-03-27T16:16:10Z</time>
      </trkpt>
      <trkpt lat="43.48859" lon="6.18766">
        <ele>200.1</ele>
        <time>2024-03-27T16:16:11Z</time>
      </trkpt>
      <trkpt lat="43.48858" lon="6.18766">
        <ele>199.9</ele>
        <time>2024-03-27T16:16:12Z</time>
      </trkpt>
      <trkpt lat="43.48857" lon="6.18767">
        <ele>199.8</ele>
        <time>2024-03-27T16:16:13Z</time>
      </trkpt>
      <trkpt lat="43.48857" lon="6.18767">
        <ele>199.6</ele>
        <time>2024-03-27T16:16:14Z</time>
      </trkpt>
      <trkpt lat="43.48856" lon="6.18767">
        <ele>199.5</ele>
        <time>2024-03-27T16:16:15Z</time>
      </trkpt>
      <trkpt lat="43.48856" lon="6.18766">
        <ele>199.5</ele>
        <time>2024-03-27T16:16:16Z</time>
      </trkpt>
      <trkpt lat="43.48855" lon="6.18765">
        <ele>199.3</ele>
        <time>2024-03-27T16:16:17Z</time>
      </trkpt>
      <trkpt lat="43.48854" lon="6.18765">
        <ele>199.1</ele>
        <time>2024-03-27T16:16:18Z</time>
      </trkpt>
      <trkpt lat="43.48853" lon="6.18764">
        <ele>198.9</ele>
        <time>2024-03-27T16:16:19Z</time>
      </trkpt>
      <trkpt lat="43.48852" lon="6.18762">
        <ele>198.7</ele>
        <time>2024-03-27T16:16:20Z</time>
      </trkpt>
      <trkpt lat="43.48851" lon="6.18762">
        <ele>198.5</ele>
        <time>2024-03-27T16:16:21Z</time>
      </trkpt>
      <trkpt lat="43.4885" lon="6.18761">
        <ele>198.4</ele>
        <time>2024-03-27T16:16:22Z</time>
      </trkpt>
      <trkpt lat="43.4885" lon="6.1876">
        <ele>198.3</ele>
        <time>2024-03-27T16:16:23Z</time>
      </trkpt>
      <trkpt lat="43.48848" lon="6.18758">
        <ele>198.1</ele>
        <time>2024-03-27T16:16:24Z</time>
      </trkpt>
      <trkpt lat="43.48847" lon="6.18757">
        <ele>198</ele>
        <time>2024-03-27T16:16:25Z</time>
      </trkpt>
      <trkpt lat="43.48846" lon="6.18756">
        <ele>197.8</ele>
        <time>2024-03-27T16:16:26Z</time>
      </trkpt>
      <trkpt lat="43.48844" lon="6.18755">
        <ele>197.7</ele>
        <time>2024-03-27T16:16:27Z</time>
      </trkpt>
      <trkpt lat="43.48843" lon="6.18754">
        <ele>197.5</ele>
        <time>2024-03-27T16:16:28Z</time>
      </trkpt>
      <trkpt lat="43.48842" lon="6.18754">
        <ele>197.3</ele>
        <time>2024-03-27T16:16:29Z</time>
      </trkpt>
      <trkpt lat="43.48841" lon="6.18753">
        <ele>197.1</ele>
        <time>2024-03-27T16:16:30Z</time>
      </trkpt>
      <trkpt lat="43.4884" lon="6.18752">
        <ele>196.9</ele>
        <time>2024-03-27T16:16:31Z</time>
      </trkpt>
      <trkpt lat="43.4884" lon="6.18751">
        <ele>196.6</ele>
        <time>2024-03-27T16:16:32Z</time>
      </trkpt>
      <trkpt lat="43.48838" lon="6.1875">
        <ele>196.5</ele>
        <time>2024-03-27T16:16:33Z</time>
      </trkpt>
      <trkpt lat="43.48838" lon="6.18749">
        <ele>196.3</ele>
        <time>2024-03-27T16:16:34Z</time>
      </trkpt>
      <trkpt lat="43.48837" lon="6.18747">
        <ele>196.2</ele>
        <time>2024-03-27T16:16:35Z</time>
      </trkpt>
      <trkpt lat="43.48838" lon="6.18746">
        <ele>196.1</ele>
        <time>2024-03-27T16:16:36Z</time>
      </trkpt>
      <trkpt lat="43.48837" lon="6.18745">
        <ele>195.9</ele>
        <time>2024-03-27T16:16:37Z</time>
      </trkpt>
      <trkpt lat="43.48837" lon="6.18743">
        <ele>195.8</ele>
        <time>2024-03-27T16:16:38Z</time>
      </trkpt>
      <trkpt lat="43.48837" lon="6.18742">
        <ele>195.6</ele>
        <time>2024-03-27T16:16:39Z</time>
      </trkpt>
      <trkpt lat="43.48837" lon="6.18741">
        <ele>195.4</ele>
        <time>2024-03-27T16:16:40Z</time>
      </trkpt>
      <trkpt lat="43.48836" lon="6.18739">
        <ele>195.3</ele>
        <time>2024-03-27T16:16:41Z</time>
      </trkpt>
      <trkpt lat="43.48835" lon="6.18737">
        <ele>195.2</ele>
        <time>2024-03-27T16:16:42Z</time>
      </trkpt>
      <trkpt lat="43.48835" lon="6.18736">
        <ele>195.1</ele>
        <time>2024-03-27T16:16:43Z</time>
      </trkpt>
      <trkpt lat="43.48835" lon="6.18734">
        <ele>195</ele>
        <time>2024-03-27T16:16:44Z</time>
      </trkpt>
      <trkpt lat="43.48834" lon="6.18733">
        <ele>194.7</ele>
        <time>2024-03-27T16:16:45Z</time>
      </trkpt>
      <trkpt lat="43.48834" lon="6.18732">
        <ele>194.5</ele>
        <time>2024-03-27T16:16:46Z</time>
      </trkpt>
      <trkpt lat="43.48833" lon="6.18731">
        <ele>194.4</ele>
        <time>2024-03-27T16:16:47Z</time>
      </trkpt>
      <trkpt lat="43.48834" lon="6.1873">
        <ele>194.3</ele>
        <time>2024-03-27T16:16:48Z</time>
      </trkpt>
      <trkpt lat="43.48833" lon="6.18729">
        <ele>194.3</ele>
        <time>2024-03-27T16:16:49Z</time>
      </trkpt>
      <trkpt lat="43.48833" lon="6.18728">
        <ele>194.3</ele>
        <time>2024-03-27T16:16:50Z</time>
      </trkpt>
      <trkpt lat="43.48832" lon="6.18726">
        <ele>194.3</ele>
        <time>2024-03-27T16:16:51Z</time>
      </trkpt>
      <trkpt lat="43.48832" lon="6.18725">
        <ele>194.3</ele>
        <time>2024-03-27T16:16:52Z</time>
      </trkpt>
      <trkpt lat="43.48832" lon="6.18723">
        <ele>194.2</ele>
        <time>2024-03-27T16:16:53Z</time>
      </trkpt>
      <trkpt lat="43.4883" lon="6.18722">
        <ele>194.1</ele>
        <time>2024-03-27T16:16:54Z</time>
      </trkpt>
      <trkpt lat="43.4883" lon="6.1872">
        <ele>193.9</ele>
        <time>2024-03-27T16:16:55Z</time>
      </trkpt>
      <trkpt lat="43.48829" lon="6.18719">
        <ele>193.6</ele>
        <time>2024-03-27T16:16:56Z</time>
      </trkpt>
      <trkpt lat="43.48829" lon="6.18718">
        <ele>193.4</ele>
        <time>2024-03-27T16:16:57Z</time>
      </trkpt>
      <trkpt lat="43.48828" lon="6.18717">
        <ele>193.3</ele>
        <time>2024-03-27T16:16:58Z</time>
      </trkpt>
      <trkpt lat="43.48827" lon="6.18716">
        <ele>193.2</ele>
        <time>2024-03-27T16:16:59Z</time>
      </trkpt>
      <trkpt lat="43.48827" lon="6.18715">
        <ele>193</ele>
        <time>2024-03-27T16:17:00Z</time>
      </trkpt>
      <trkpt lat="43.48827" lon="6.18713">
        <ele>192.9</ele>
        <time>2024-03-27T16:17:01Z</time>
      </trkpt>
      <trkpt lat="43.48827" lon="6.18711">
        <ele>192.8</ele>
        <time>2024-03-27T16:17:02Z</time>
      </trkpt>
      <trkpt lat="43.48828" lon="6.1871">
        <ele>192.6</ele>
        <time>2024-03-27T16:17:03Z</time>
      </trkpt>
      <trkpt lat="43.48828" lon="6.18708">
        <ele>192.5</ele>
        <time>2024-03-27T16:17:04Z</time>
      </trkpt>
      <trkpt lat="43.48828" lon="6.18706">
        <ele>192.4</ele>
        <time>2024-03-27T16:17:05Z</time>
      </trkpt>
      <trkpt lat="43.48827" lon="6.18704">
        <ele>192.2</ele>
        <time>2024-03-27T16:17:06Z</time>
      </trkpt>
      <trkpt lat="43.48825" lon="6.18702">
        <ele>192.1</ele>
        <time>2024-03-27T16:17:07Z</time>
      </trkpt>
      <trkpt lat="43.48825" lon="6.18701">
        <ele>191.9</ele>
        <time>2024-03-27T16:17:08Z</time>
      </trkpt>
      <trkpt lat="43.48824" lon="6.18699">
        <ele>191.8</ele>
        <time>2024-03-27T16:17:09Z</time>
      </trkpt>
      <trkpt lat="43.48822" lon="6.18697">
        <ele>191.6</ele>
        <time>2024-03-27T16:17:10Z</time>
      </trkpt>
      <trkpt lat="43.48821" lon="6.18695">
        <ele>191.5</ele>
        <time>2024-03-27T16:17:11Z</time>
      </trkpt>
      <trkpt lat="43.4882" lon="6.18693">
        <ele>191.3</ele>
        <time>2024-03-27T16:17:12Z</time>
      </trkpt>
      <trkpt lat="43.4882" lon="6.18692">
        <ele>191.2</ele>
        <time>2024-03-27T16:17:13Z</time>
      </trkpt>
      <trkpt lat="43.4882" lon="6.18691">
        <ele>191</ele>
        <time>2024-03-27T16:17:14Z</time>
      </trkpt>
      <trkpt lat="43.4882" lon="6.18689">
        <ele>191</ele>
        <time>2024-03-27T16:17:15Z</time>
      </trkpt>
      <trkpt lat="43.48819" lon="6.18687">
        <ele>190.8</ele>
        <time>2024-03-27T16:17:16Z</time>
      </trkpt>
      <trkpt lat="43.48818" lon="6.18684">
        <ele>190.7</ele>
        <time>2024-03-27T16:17:17Z</time>
      </trkpt>
      <trkpt lat="43.48817" lon="6.18682">
        <ele>190.5</ele>
        <time>2024-03-27T16:17:18Z</time>
      </trkpt>
      <trkpt lat="43.48815" lon="6.1868">
        <ele>190.3</ele>
        <time>2024-03-27T16:17:19Z</time>
      </trkpt>
      <trkpt lat="43.48814" lon="6.18678">
        <ele>190.2</ele>
        <time>2024-03-27T16:17:20Z</time>
      </trkpt>
      <trkpt lat="43.48813" lon="6.18676">
        <ele>190.1</ele>
        <time>2024-03-27T16:17:21Z</time>
      </trkpt>
      <trkpt lat="43.48812" lon="6.18674">
        <ele>190</ele>
        <time>2024-03-27T16:17:22Z</time>
      </trkpt>
      <trkpt lat="43.48812" lon="6.18673">
        <ele>189.9</ele>
        <time>2024-03-27T16:17:23Z</time>
      </trkpt>
      <trkpt lat="43.48811" lon="6.18671">
        <ele>189.7</ele>
        <time>2024-03-27T16:17:24Z</time>
      </trkpt>
      <trkpt lat="43.4881" lon="6.1867">
        <ele>189.6</ele>
        <time>2024-03-27T16:17:25Z</time>
      </trkpt>
      <trkpt lat="43.48809" lon="6.18669">
        <ele>189.5</ele>
        <time>2024-03-27T16:17:26Z</time>
      </trkpt>
      <trkpt lat="43.48808" lon="6.18669">
        <ele>189.5</ele>
        <time>2024-03-27T16:17:27Z</time>
      </trkpt>
      <trkpt lat="43.48808" lon="6.18668">
        <ele>189.4</ele>
        <time>2024-03-27T16:17:28Z</time>
      </trkpt>
      <trkpt lat="43.48807" lon="6.18668">
        <ele>189.3</ele>
        <time>2024-03-27T16:17:29Z</time>
      </trkpt>
      <trkpt lat="43.48806" lon="6.18668">
        <ele>189.1</ele>
        <time>2024-03-27T16:17:30Z</time>
      </trkpt>
      <trkpt lat="43.48805" lon="6.18668">
        <ele>189</ele>
        <time>2024-03-27T16:17:31Z</time>
      </trkpt>
      <trkpt lat="43.48804" lon="6.18667">
        <ele>188.9</ele>
        <time>2024-03-27T16:17:32Z</time>
      </trkpt>
      <trkpt lat="43.48803" lon="6.18667">
        <ele>188.8</ele>
        <time>2024-03-27T16:17:33Z</time>
      </trkpt>
      <trkpt lat="43.48802" lon="6.18666">
        <ele>188.7</ele>
        <time>2024-03-27T16:17:34Z</time>
      </trkpt>
      <trkpt lat="43.48801" lon="6.18666">
        <ele>188.7</ele>
        <time>2024-03-27T16:17:35Z</time>
      </trkpt>
      <trkpt lat="43.48799" lon="6.18665">
        <ele>188.6</ele>
        <time>2024-03-27T16:17:36Z</time>
      </trkpt>
      <trkpt lat="43.48798" lon="6.18665">
        <ele>188.5</ele>
        <time>2024-03-27T16:17:37Z</time>
      </trkpt>
      <trkpt lat="43.48798" lon="6.18664">
        <ele>188.3</ele>
        <time>2024-03-27T16:17:38Z</time>
      </trkpt>
      <trkpt lat="43.48798" lon="6.18664">
        <ele>188.1</ele>
        <time>2024-03-27T16:17:39Z</time>
      </trkpt>
      <trkpt lat="43.48797" lon="6.18663">
        <ele>187.8</ele>
        <time>2024-03-27T16:17:40Z</time>
      </trkpt>
      <trkpt lat="43.48796" lon="6.18661">
        <ele>187.5</ele>
        <time>2024-03-27T16:17:41Z</time>
      </trkpt>
      <trkpt lat="43.48796" lon="6.1866">
        <ele>187.2</ele>
        <time>2024-03-27T16:17:42Z</time>
      </trkpt>
      <trkpt lat="43.48794" lon="6.1866">
        <ele>187</ele>
        <time>2024-03-27T16:17:43Z</time>
      </trkpt>
      <trkpt lat="43.48793" lon="6.18659">
        <ele>186.8</ele>
        <time>2024-03-27T16:17:44Z</time>
      </trkpt>
      <trkpt lat="43.48792" lon="6.18657">
        <ele>186.6</ele>
        <time>2024-03-27T16:17:45Z</time>
      </trkpt>
      <trkpt lat="43.4879" lon="6.18656">
        <ele>186.5</ele>
        <time>2024-03-27T16:17:46Z</time>
      </trkpt>
      <trkpt lat="43.4879" lon="6.18654">
        <ele>186.3</ele>
        <time>2024-03-27T16:17:47Z</time>
      </trkpt>
      <trkpt lat="43.48788" lon="6.18652">
        <ele>186.1</ele>
        <time>2024-03-27T16:17:48Z</time>
      </trkpt>
      <trkpt lat="43.48787" lon="6.18651">
        <ele>185.9</ele>
        <time>2024-03-27T16:17:49Z</time>
      </trkpt>
      <trkpt lat="43.48786" lon="6.18649">
        <ele>185.6</ele>
        <time>2024-03-27T16:17:50Z</time>
      </trkpt>
      <trkpt lat="43.48785" lon="6.18648">
        <ele>185.4</ele>
        <time>2024-03-27T16:17:51Z</time>
      </trkpt>
      <trkpt lat="43.48784" lon="6.18647">
        <ele>185.2</ele>
        <time>2024-03-27T16:17:52Z</time>
      </trkpt>
      <trkpt lat="43.48783" lon="6.18646">
        <ele>185</ele>
        <time>2024-03-27T16:17:53Z</time>
      </trkpt>
      <trkpt lat="43.48782" lon="6.18645">
        <ele>184.8</ele>
        <time>2024-03-27T16:17:54Z</time>
      </trkpt>
      <trkpt lat="43.4878" lon="6.18644">
        <ele>184.6</ele>
        <time>2024-03-27T16:17:55Z</time>
      </trkpt>
      <trkpt lat="43.48779" lon="6.18643">
        <ele>184.4</ele>
        <time>2024-03-27T16:17:56Z</time>
      </trkpt>
      <trkpt lat="43.48777" lon="6.18642">
        <ele>184.3</ele>
        <time>2024-03-27T16:17:57Z</time>
      </trkpt>
      <trkpt lat="43.48776" lon="6.18641">
        <ele>184.1</ele>
        <time>2024-03-27T16:17:58Z</time>
      </trkpt>
      <trkpt lat="43.48774" lon="6.1864">
        <ele>184</ele>
        <time>2024-03-27T16:17:59Z</time>
      </trkpt>
      <trkpt lat="43.48773" lon="6.1864">
        <ele>183.9</ele>
        <time>2024-03-27T16:18:00Z</time>
      </trkpt>
      <trkpt lat="43.48771" lon="6.18639">
        <ele>183.6</ele>
        <time>2024-03-27T16:18:01Z</time>
      </trkpt>
      <trkpt lat="43.48769" lon="6.18639">
        <ele>183.4</ele>
        <time>2024-03-27T16:18:02Z</time>
      </trkpt>
      <trkpt lat="43.48768" lon="6.18639">
        <ele>183.2</ele>
        <time>2024-03-27T16:18:03Z</time>
      </trkpt>
      <trkpt lat="43.48767" lon="6.18639">
        <ele>183.2</ele>
        <time>2024-03-27T16:18:04Z</time>
      </trkpt>
      <trkpt lat="43.48765" lon="6.18639">
        <ele>183.1</ele>
        <time>2024-03-27T16:18:05Z</time>
      </trkpt>
      <trkpt lat="43.48764" lon="6.1864">
        <ele>182.9</ele>
        <time>2024-03-27T16:18:06Z</time>
      </trkpt>
      <trkpt lat="43.48763" lon="6.1864">
        <ele>182.8</ele>
        <time>2024-03-27T16:18:07Z</time>
      </trkpt>
      <trkpt lat="43.48762" lon="6.1864">
        <ele>182.7</ele>
        <time>2024-03-27T16:18:08Z</time>
      </trkpt>
      <trkpt lat="43.48761" lon="6.1864">
        <ele>182.5</ele>
        <time>2024-03-27T16:18:09Z</time>
      </trkpt>
      <trkpt lat="43.4876" lon="6.1864">
        <ele>182.1</ele>
        <time>2024-03-27T16:18:10Z</time>
      </trkpt>
      <trkpt lat="43.48758" lon="6.1864">
        <ele>181.8</ele>
        <time>2024-03-27T16:18:11Z</time>
      </trkpt>
      <trkpt lat="43.48756" lon="6.1864">
        <ele>181.6</ele>
        <time>2024-03-27T16:18:12Z</time>
      </trkpt>
      <trkpt lat="43.48755" lon="6.18641">
        <ele>181.5</ele>
        <time>2024-03-27T16:18:13Z</time>
      </trkpt>
      <trkpt lat="43.48754" lon="6.18642">
        <ele>181.3</ele>
        <time>2024-03-27T16:18:14Z</time>
      </trkpt>
      <trkpt lat="43.48753" lon="6.18643">
        <ele>181.1</ele>
        <time>2024-03-27T16:18:15Z</time>
      </trkpt>
      <trkpt lat="43.48753" lon="6.18644">
        <ele>181</ele>
        <time>2024-03-27T16:18:16Z</time>
      </trkpt>
      <trkpt lat="43.48752" lon="6.18645">
        <ele>180.8</ele>
        <time>2024-03-27T16:18:17Z</time>
      </trkpt>
      <trkpt lat="43.4875" lon="6.18647">
        <ele>180.5</ele>
        <time>2024-03-27T16:18:18Z</time>
      </trkpt>
      <trkpt lat="43.48749" lon="6.18649">
        <ele>180.4</ele>
        <time>2024-03-27T16:18:19Z</time>
      </trkpt>
      <trkpt lat="43.48748" lon="6.1865">
        <ele>180.2</ele>
        <time>2024-03-27T16:18:20Z</time>
      </trkpt>
      <trkpt lat="43.48746" lon="6.18652">
        <ele>180.1</ele>
        <time>2024-03-27T16:18:21Z</time>
      </trkpt>
      <trkpt lat="43.48745" lon="6.18653">
        <ele>180</ele>
        <time>2024-03-27T16:18:22Z</time>
      </trkpt>
      <trkpt lat="43.48744" lon="6.18654">
        <ele>180</ele>
        <time>2024-03-27T16:18:23Z</time>
      </trkpt>
      <trkpt lat="43.48743" lon="6.18655">
        <ele>179.9</ele>
        <time>2024-03-27T16:18:24Z</time>
      </trkpt>
      <trkpt lat="43.48742" lon="6.18657">
        <ele>179.8</ele>
        <time>2024-03-27T16:18:25Z</time>
      </trkpt>
      <trkpt lat="43.48741" lon="6.18657">
        <ele>179.7</ele>
        <time>2024-03-27T16:18:26Z</time>
      </trkpt>
      <trkpt lat="43.4874" lon="6.18659">
        <ele>179.7</ele>
        <time>2024-03-27T16:18:27Z</time>
      </trkpt>
      <trkpt lat="43.4874" lon="6.18661">
        <ele>179.6</ele>
        <time>2024-03-27T16:18:28Z</time>
      </trkpt>
      <trkpt lat="43.48739" lon="6.18662">
        <ele>179.5</ele>
        <time>2024-03-27T16:18:29Z</time>
      </trkpt>
      <trkpt lat="43.48738" lon="6.18664">
        <ele>179.4</ele>
        <time>2024-03-27T16:18:30Z</time>
      </trkpt>
      <trkpt lat="43.48738" lon="6.18665">
        <ele>179.2</ele>
        <time>2024-03-27T16:18:31Z</time>
      </trkpt>
      <trkpt lat="43.48738" lon="6.18667">
        <ele>179.1</ele>
        <time>2024-03-27T16:18:32Z</time>
      </trkpt>
      <trkpt lat="43.48737" lon="6.18667">
        <ele>179</ele>
        <time>2024-03-27T16:18:33Z</time>
      </trkpt>
      <trkpt lat="43.48736" lon="6.18668">
        <ele>178.8</ele>
        <time>2024-03-27T16:18:34Z</time>
      </trkpt>
      <trkpt lat="43.48736" lon="6.18671">
        <ele>178.6</ele>
        <time>2024-03-27T16:18:35Z</time>
      </trkpt>
      <trkpt lat="43.48735" lon="6.18672">
        <ele>178.5</ele>
        <time>2024-03-27T16:18:36Z</time>
      </trkpt>
      <trkpt lat="43.48735" lon="6.18674">
        <ele>178.3</ele>
        <time>2024-03-27T16:18:37Z</time>
      </trkpt>
      <trkpt lat="43.48734" lon="6.18676">
        <ele>178.2</ele>
        <time>2024-03-27T16:18:38Z</time>
      </trkpt>
      <trkpt lat="43.48734" lon="6.18678">
        <ele>178.1</ele>
        <time>2024-03-27T16:18:39Z</time>
      </trkpt>
      <trkpt lat="43.48733" lon="6.18678">
        <ele>178.1</ele>
        <time>2024-03-27T16:18:40Z</time>
      </trkpt>
      <trkpt lat="43.48733" lon="6.18678">
        <ele>178</ele>
        <time>2024-03-27T16:18:41Z</time>
      </trkpt>
      <trkpt lat="43.48733" lon="6.18679">
        <ele>177.9</ele>
        <time>2024-03-27T16:18:42Z</time>
      </trkpt>
      <trkpt lat="43.48732" lon="6.1868">
        <ele>177.8</ele>
        <time>2024-03-27T16:18:43Z</time>
      </trkpt>
      <trkpt lat="43.48732" lon="6.18682">
        <ele>177.7</ele>
        <time>2024-03-27T16:18:44Z</time>
      </trkpt>
      <trkpt lat="43.48732" lon="6.18683">
        <ele>177.7</ele>
        <time>2024-03-27T16:18:45Z</time>
      </trkpt>
      <trkpt lat="43.48731" lon="6.18685">
        <ele>177.7</ele>
        <time>2024-03-27T16:18:46Z</time>
      </trkpt>
      <trkpt lat="43.48731" lon="6.18687">
        <ele>177.5</ele>
        <time>2024-03-27T16:18:47Z</time>
      </trkpt>
      <trkpt lat="43.4873" lon="6.18689">
        <ele>177.4</ele>
        <time>2024-03-27T16:18:48Z</time>
      </trkpt>
      <trkpt lat="43.4873" lon="6.1869">
        <ele>177.3</ele>
        <time>2024-03-27T16:18:49Z</time>
      </trkpt>
      <trkpt lat="43.48729" lon="6.18692">
        <ele>177.2</ele>
        <time>2024-03-27T16:18:50Z</time>
      </trkpt>
      <trkpt lat="43.48729" lon="6.18695">
        <ele>177.4</ele>
        <time>2024-03-27T16:18:51Z</time>
      </trkpt>
      <trkpt lat="43.48729" lon="6.18697">
        <ele>177.3</ele>
        <time>2024-03-27T16:18:52Z</time>
      </trkpt>
      <trkpt lat="43.48729" lon="6.18699">
        <ele>177.2</ele>
        <time>2024-03-27T16:18:53Z</time>
      </trkpt>
      <trkpt lat="43.48729" lon="6.18701">
        <ele>177.1</ele>
        <time>2024-03-27T16:18:54Z</time>
      </trkpt>
      <trkpt lat="43.48729" lon="6.18704">
        <ele>177</ele>
        <time>2024-03-27T16:18:55Z</time>
      </trkpt>
      <trkpt lat="43.48728" lon="6.18706">
        <ele>176.9</ele>
        <time>2024-03-27T16:18:56Z</time>
      </trkpt>
      <trkpt lat="43.48728" lon="6.18708">
        <ele>176.8</ele>
        <time>2024-03-27T16:18:57Z</time>
      </trkpt>
      <trkpt lat="43.48727" lon="6.1871">
        <ele>176.7</ele>
        <time>2024-03-27T16:18:58Z</time>
      </trkpt>
      <trkpt lat="43.48727" lon="6.18712">
        <ele>176.6</ele>
        <time>2024-03-27T16:18:59Z</time>
      </trkpt>
      <trkpt lat="43.48726" lon="6.18714">
        <ele>176.5</ele>
        <time>2024-03-27T16:19:00Z</time>
      </trkpt>
      <trkpt lat="43.48726" lon="6.18716">
        <ele>176.4</ele>
        <time>2024-03-27T16:19:01Z</time>
      </trkpt>
      <trkpt lat="43.48725" lon="6.18718">
        <ele>176.4</ele>
        <time>2024-03-27T16:19:02Z</time>
      </trkpt>
      <trkpt lat="43.48725" lon="6.18721">
        <ele>176.2</ele>
        <time>2024-03-27T16:19:03Z</time>
      </trkpt>
      <trkpt lat="43.48725" lon="6.18723">
        <ele>176.1</ele>
        <time>2024-03-27T16:19:04Z</time>
      </trkpt>
      <trkpt lat="43.48725" lon="6.18725">
        <ele>176</ele>
        <time>2024-03-27T16:19:05Z</time>
      </trkpt>
      <trkpt lat="43.48725" lon="6.18727">
        <ele>175.8</ele>
        <time>2024-03-27T16:19:06Z</time>
      </trkpt>
      <trkpt lat="43.48724" lon="6.18728">
        <ele>175.8</ele>
        <time>2024-03-27T16:19:07Z</time>
      </trkpt>
      <trkpt lat="43.48724" lon="6.1873">
        <ele>175.7</ele>
        <time>2024-03-27T16:19:08Z</time>
      </trkpt>
      <trkpt lat="43.48724" lon="6.18732">
        <ele>175.7</ele>
        <time>2024-03-27T16:19:09Z</time>
      </trkpt>
      <trkpt lat="43.48723" lon="6.18735">
        <ele>175.7</ele>
        <time>2024-03-27T16:19:10Z</time>
      </trkpt>
      <trkpt lat="43.48723" lon="6.18736">
        <ele>175.7</ele>
        <time>2024-03-27T16:19:11Z</time>
      </trkpt>
      <trkpt lat="43.48723" lon="6.18738">
        <ele>175.6</ele>
        <time>2024-03-27T16:19:12Z</time>
      </trkpt>
      <trkpt lat="43.48722" lon="6.1874">
        <ele>175.5</ele>
        <time>2024-03-27T16:19:13Z</time>
      </trkpt>
      <trkpt lat="43.48722" lon="6.18742">
        <ele>175.4</ele>
        <time>2024-03-27T16:19:14Z</time>
      </trkpt>
      <trkpt lat="43.48721" lon="6.18744">
        <ele>175.4</ele>
        <time>2024-03-27T16:19:15Z</time>
      </trkpt>
      <trkpt lat="43.48721" lon="6.18746">
        <ele>175.3</ele>
        <time>2024-03-27T16:19:16Z</time>
      </trkpt>
      <trkpt lat="43.48719" lon="6.18748">
        <ele>175.2</ele>
        <time>2024-03-27T16:19:17Z</time>
      </trkpt>
      <trkpt lat="43.48718" lon="6.18749">
        <ele>175.1</ele>
        <time>2024-03-27T16:19:18Z</time>
      </trkpt>
      <trkpt lat="43.48717" lon="6.1875">
        <ele>175.1</ele>
        <time>2024-03-27T16:19:19Z</time>
      </trkpt>
      <trkpt lat="43.48715" lon="6.18752">
        <ele>174.9</ele>
        <time>2024-03-27T16:19:20Z</time>
      </trkpt>
      <trkpt lat="43.48714" lon="6.18754">
        <ele>174.9</ele>
        <time>2024-03-27T16:19:21Z</time>
      </trkpt>
      <trkpt lat="43.48713" lon="6.18755">
        <ele>174.6</ele>
        <time>2024-03-27T16:19:22Z</time>
      </trkpt>
      <trkpt lat="43.48712" lon="6.18757">
        <ele>174.3</ele>
        <time>2024-03-27T16:19:23Z</time>
      </trkpt>
      <trkpt lat="43.48711" lon="6.18758">
        <ele>174.1</ele>
        <time>2024-03-27T16:19:24Z</time>
      </trkpt>
      <trkpt lat="43.48711" lon="6.1876">
        <ele>173.9</ele>
        <time>2024-03-27T16:19:25Z</time>
      </trkpt>
      <trkpt lat="43.48711" lon="6.18761">
        <ele>173.9</ele>
        <time>2024-03-27T16:19:26Z</time>
      </trkpt>
      <trkpt lat="43.4871" lon="6.18763">
        <ele>173.8</ele>
        <time>2024-03-27T16:19:27Z</time>
      </trkpt>
      <trkpt lat="43.4871" lon="6.18764">
        <ele>173.6</ele>
        <time>2024-03-27T16:19:28Z</time>
      </trkpt>
      <trkpt lat="43.48709" lon="6.18765">
        <ele>173.5</ele>
        <time>2024-03-27T16:19:29Z</time>
      </trkpt>
      <trkpt lat="43.48708" lon="6.18766">
        <ele>173.2</ele>
        <time>2024-03-27T16:19:30Z</time>
      </trkpt>
      <trkpt lat="43.48706" lon="6.18765">
        <ele>173</ele>
        <time>2024-03-27T16:19:31Z</time>
      </trkpt>
      <trkpt lat="43.48705" lon="6.18765">
        <ele>172.8</ele>
        <time>2024-03-27T16:19:32Z</time>
      </trkpt>
      <trkpt lat="43.48705" lon="6.18764">
        <ele>172.6</ele>
        <time>2024-03-27T16:19:33Z</time>
      </trkpt>
      <trkpt lat="43.48705" lon="6.18763">
        <ele>172.3</ele>
        <time>2024-03-27T16:19:34Z</time>
      </trkpt>
      <trkpt lat="43.48705" lon="6.18762">
        <ele>172.1</ele>
        <time>2024-03-27T16:19:35Z</time>
      </trkpt>
      <trkpt lat="43.48706" lon="6.18761">
        <ele>171.9</ele>
        <time>2024-03-27T16:19:36Z</time>
      </trkpt>
      <trkpt lat="43.48706" lon="6.1876">
        <ele>171.6</ele>
        <time>2024-03-27T16:19:37Z</time>
      </trkpt>
      <trkpt lat="43.48706" lon="6.18759">
        <ele>171.4</ele>
        <time>2024-03-27T16:19:38Z</time>
      </trkpt>
      <trkpt lat="43.48705" lon="6.18758">
        <ele>171.2</ele>
        <time>2024-03-27T16:19:39Z</time>
      </trkpt>
      <trkpt lat="43.48704" lon="6.18758">
        <ele>171</ele>
        <time>2024-03-27T16:19:40Z</time>
      </trkpt>
      <trkpt lat="43.48703" lon="6.18757">
        <ele>170.7</ele>
        <time>2024-03-27T16:19:41Z</time>
      </trkpt>
      <trkpt lat="43.48702" lon="6.18756">
        <ele>170.4</ele>
        <time>2024-03-27T16:19:42Z</time>
      </trkpt>
      <trkpt lat="43.48701" lon="6.18755">
        <ele>170.1</ele>
        <time>2024-03-27T16:19:43Z</time>
      </trkpt>
      <trkpt lat="43.487" lon="6.18754">
        <ele>169.8</ele>
        <time>2024-03-27T16:19:44Z</time>
      </trkpt>
      <trkpt lat="43.48699" lon="6.18754">
        <ele>169.5</ele>
        <time>2024-03-27T16:19:45Z</time>
      </trkpt>
      <trkpt lat="43.48698" lon="6.18754">
        <ele>169.1</ele>
        <time>2024-03-27T16:19:46Z</time>
      </trkpt>
      <trkpt lat="43.48697" lon="6.18754">
        <ele>168.8</ele>
        <time>2024-03-27T16:19:47Z</time>
      </trkpt>
      <trkpt lat="43.48696" lon="6.18753">
        <ele>168.5</ele>
        <time>2024-03-27T16:19:48Z</time>
      </trkpt>
      <trkpt lat="43.48695" lon="6.18752">
        <ele>168.2</ele>
        <time>2024-03-27T16:19:49Z</time>
      </trkpt>
      <trkpt lat="43.48694" lon="6.18752">
        <ele>167.9</ele>
        <time>2024-03-27T16:19:50Z</time>
      </trkpt>
      <trkpt lat="43.48693" lon="6.1875">
        <ele>167.7</ele>
        <time>2024-03-27T16:19:51Z</time>
      </trkpt>
      <trkpt lat="43.48693" lon="6.18748">
        <ele>167.3</ele>
        <time>2024-03-27T16:19:52Z</time>
      </trkpt>
      <trkpt lat="43.48693" lon="6.18747">
        <ele>167.1</ele>
        <time>2024-03-27T16:19:53Z</time>
      </trkpt>
      <trkpt lat="43.48693" lon="6.18745">
        <ele>166.9</ele>
        <time>2024-03-27T16:19:54Z</time>
      </trkpt>
      <trkpt lat="43.48693" lon="6.18743">
        <ele>166.7</ele>
        <time>2024-03-27T16:19:55Z</time>
      </trkpt>
      <trkpt lat="43.48693" lon="6.18741">
        <ele>166.5</ele>
        <time>2024-03-27T16:19:56Z</time>
      </trkpt>
      <trkpt lat="43.48693" lon="6.18739">
        <ele>166.4</ele>
        <time>2024-03-27T16:19:57Z</time>
      </trkpt>
      <trkpt lat="43.48694" lon="6.18737">
        <ele>166.3</ele>
        <time>2024-03-27T16:19:58Z</time>
      </trkpt>
      <trkpt lat="43.48694" lon="6.18734">
        <ele>166.2</ele>
        <time>2024-03-27T16:19:59Z</time>
      </trkpt>
      <trkpt lat="43.48694" lon="6.18731">
        <ele>164.9</ele>
        <time>2024-03-27T16:20:00Z</time>
      </trkpt>
      <trkpt lat="43.48693" lon="6.18728">
        <ele>165</ele>
        <time>2024-03-27T16:20:01Z</time>
      </trkpt>
      <trkpt lat="43.48692" lon="6.18724">
        <ele>165.1</ele>
        <time>2024-03-27T16:20:02Z</time>
      </trkpt>
      <trkpt lat="43.48691" lon="6.18722">
        <ele>165.1</ele>
        <time>2024-03-27T16:20:03Z</time>
      </trkpt>
      <trkpt lat="43.48689" lon="6.1872">
        <ele>165.2</ele>
        <time>2024-03-27T16:20:04Z</time>
      </trkpt>
      <trkpt lat="43.48688" lon="6.18717">
        <ele>165.1</ele>
        <time>2024-03-27T16:20:05Z</time>
      </trkpt>
      <trkpt lat="43.48687" lon="6.18715">
        <ele>165.2</ele>
        <time>2024-03-27T16:20:06Z</time>
      </trkpt>
      <trkpt lat="43.48686" lon="6.18711">
        <ele>164.9</ele>
        <time>2024-03-27T16:20:07Z</time>
      </trkpt>
      <trkpt lat="43.48686" lon="6.18707">
        <ele>164.9</ele>
        <time>2024-03-27T16:20:08Z</time>
      </trkpt>
      <trkpt lat="43.48685" lon="6.18705">
        <ele>164.8</ele>
        <time>2024-03-27T16:20:09Z</time>
      </trkpt>
      <trkpt lat="43.48685" lon="6.18704">
        <ele>164.7</ele>
        <time>2024-03-27T16:20:10Z</time>
      </trkpt>
      <trkpt lat="43.48684" lon="6.18702">
        <ele>164.5</ele>
        <time>2024-03-27T16:20:11Z</time>
      </trkpt>
      <trkpt lat="43.48683" lon="6.18701">
        <ele>164.3</ele>
        <time>2024-03-27T16:20:12Z</time>
      </trkpt>
      <trkpt lat="43.48682" lon="6.18699">
        <ele>164</ele>
        <time>2024-03-27T16:20:13Z</time>
      </trkpt>
      <trkpt lat="43.48682" lon="6.18697">
        <ele>163.8</ele>
        <time>2024-03-27T16:20:14Z</time>
      </trkpt>
      <trkpt lat="43.48682" lon="6.18696">
        <ele>163.7</ele>
        <time>2024-03-27T16:20:15Z</time>
      </trkpt>
      <trkpt lat="43.48682" lon="6.18694">
        <ele>163.5</ele>
        <time>2024-03-27T16:20:16Z</time>
      </trkpt>
      <trkpt lat="43.48681" lon="6.18693">
        <ele>163.4</ele>
        <time>2024-03-27T16:20:17Z</time>
      </trkpt>
      <trkpt lat="43.48681" lon="6.18692">
        <ele>163.3</ele>
        <time>2024-03-27T16:20:18Z</time>
      </trkpt>
      <trkpt lat="43.4868" lon="6.1869">
        <ele>163.1</ele>
        <time>2024-03-27T16:20:19Z</time>
      </trkpt>
      <trkpt lat="43.4868" lon="6.18689">
        <ele>163</ele>
        <time>2024-03-27T16:20:20Z</time>
      </trkpt>
      <trkpt lat="43.48679" lon="6.18688">
        <ele>162.8</ele>
        <time>2024-03-27T16:20:21Z</time>
      </trkpt>
      <trkpt lat="43.48679" lon="6.18687">
        <ele>162.7</ele>
        <time>2024-03-27T16:20:22Z</time>
      </trkpt>
      <trkpt lat="43.48678" lon="6.18686">
        <ele>162.5</ele>
        <time>2024-03-27T16:20:23Z</time>
      </trkpt>
      <trkpt lat="43.48677" lon="6.18685">
        <ele>162.3</ele>
        <time>2024-03-27T16:20:24Z</time>
      </trkpt>
      <trkpt lat="43.48677" lon="6.18683">
        <ele>162.2</ele>
        <time>2024-03-27T16:20:25Z</time>
      </trkpt>
      <trkpt lat="43.48676" lon="6.18682">
        <ele>162</ele>
        <time>2024-03-27T16:20:26Z</time>
      </trkpt>
      <trkpt lat="43.48676" lon="6.1868">
        <ele>161.9</ele>
        <time>2024-03-27T16:20:27Z</time>
      </trkpt>
      <trkpt lat="43.48675" lon="6.18679">
        <ele>161.7</ele>
        <time>2024-03-27T16:20:28Z</time>
      </trkpt>
      <trkpt lat="43.48674" lon="6.18677">
        <ele>161.6</ele>
        <time>2024-03-27T16:20:29Z</time>
      </trkpt>
      <trkpt lat="43.48673" lon="6.18675">
        <ele>161.6</ele>
        <time>2024-03-27T16:20:30Z</time>
      </trkpt>
      <trkpt lat="43.48672" lon="6.18674">
        <ele>161.5</ele>
        <time>2024-03-27T16:20:31Z</time>
      </trkpt>
      <trkpt lat="43.48672" lon="6.18673">
        <ele>161.5</ele>
        <time>2024-03-27T16:20:32Z</time>
      </trkpt>
      <trkpt lat="43.48671" lon="6.18672">
        <ele>161.5</ele>
        <time>2024-03-27T16:20:33Z</time>
      </trkpt>
      <trkpt lat="43.4867" lon="6.1867">
        <ele>161.3</ele>
        <time>2024-03-27T16:20:34Z</time>
      </trkpt>
      <trkpt lat="43.4867" lon="6.18669">
        <ele>161.2</ele>
        <time>2024-03-27T16:20:35Z</time>
      </trkpt>
      <trkpt lat="43.48669" lon="6.18668">
        <ele>161</ele>
        <time>2024-03-27T16:20:36Z</time>
      </trkpt>
      <trkpt lat="43.48668" lon="6.18668">
        <ele>160.8</ele>
        <time>2024-03-27T16:20:37Z</time>
      </trkpt>
      <trkpt lat="43.48667" lon="6.18666">
        <ele>160.6</ele>
        <time>2024-03-27T16:20:38Z</time>
      </trkpt>
      <trkpt lat="43.48666" lon="6.18665">
        <ele>160.5</ele>
        <time>2024-03-27T16:20:39Z</time>
      </trkpt>
      <trkpt lat="43.48665" lon="6.18664">
        <ele>160.3</ele>
        <time>2024-03-27T16:20:40Z</time>
      </trkpt>
      <trkpt lat="43.48664" lon="6.18663">
        <ele>160.1</ele>
        <time>2024-03-27T16:20:41Z</time>
      </trkpt>
      <trkpt lat="43.48663" lon="6.18661">
        <ele>159.9</ele>
        <time>2024-03-27T16:20:42Z</time>
      </trkpt>
      <trkpt lat="43.48662" lon="6.18659">
        <ele>159.6</ele>
        <time>2024-03-27T16:20:43Z</time>
      </trkpt>
      <trkpt lat="43.48662" lon="6.18658">
        <ele>159.5</ele>
        <time>2024-03-27T16:20:44Z</time>
      </trkpt>
      <trkpt lat="43.48661" lon="6.18657">
        <ele>159.3</ele>
        <time>2024-03-27T16:20:45Z</time>
      </trkpt>
      <trkpt lat="43.48659" lon="6.18655">
        <ele>159.1</ele>
        <time>2024-03-27T16:20:46Z</time>
      </trkpt>
      <trkpt lat="43.48659" lon="6.18654">
        <ele>159</ele>
        <time>2024-03-27T16:20:47Z</time>
      </trkpt>
      <trkpt lat="43.48658" lon="6.18654">
        <ele>158.8</ele>
        <time>2024-03-27T16:20:48Z</time>
      </trkpt>
      <trkpt lat="43.48657" lon="6.18653">
        <ele>158.7</ele>
        <time>2024-03-27T16:20:49Z</time>
      </trkpt>
      <trkpt lat="43.48656" lon="6.18652">
        <ele>158.6</ele>
        <time>2024-03-27T16:20:50Z</time>
      </trkpt>
      <trkpt lat="43.48655" lon="6.1865">
        <ele>158.4</ele>
        <time>2024-03-27T16:20:51Z</time>
      </trkpt>
      <trkpt lat="43.48654" lon="6.18649">
        <ele>158.3</ele>
        <time>2024-03-27T16:20:52Z</time>
      </trkpt>
      <trkpt lat="43.48653" lon="6.18648">
        <ele>158.1</ele>
        <time>2024-03-27T16:20:53Z</time>
      </trkpt>
      <trkpt lat="43.48652" lon="6.18647">
        <ele>158</ele>
        <time>2024-03-27T16:20:54Z</time>
      </trkpt>
      <trkpt lat="43.48652" lon="6.18645">
        <ele>157.9</ele>
        <time>2024-03-27T16:20:55Z</time>
      </trkpt>
      <trkpt lat="43.48651" lon="6.18645">
        <ele>157.8</ele>
        <time>2024-03-27T16:20:56Z</time>
      </trkpt>
      <trkpt lat="43.4865" lon="6.18644">
        <ele>157.6</ele>
        <time>2024-03-27T16:20:57Z</time>
      </trkpt>
      <trkpt lat="43.4865" lon="6.18643">
        <ele>157.5</ele>
        <time>2024-03-27T16:20:58Z</time>
      </trkpt>
      <trkpt lat="43.48649" lon="6.18642">
        <ele>157.4</ele>
        <time>2024-03-27T16:20:59Z</time>
      </trkpt>
      <trkpt lat="43.48648" lon="6.18641">
        <ele>157.4</ele>
        <time>2024-03-27T16:21:00Z</time>
      </trkpt>
      <trkpt lat="43.48648" lon="6.1864">
        <ele>157.2</ele>
        <time>2024-03-27T16:21:01Z</time>
      </trkpt>
      <trkpt lat="43.48647" lon="6.18639">
        <ele>157.1</ele>
        <time>2024-03-27T16:21:02Z</time>
      </trkpt>
      <trkpt lat="43.48646" lon="6.18638">
        <ele>157</ele>
        <time>2024-03-27T16:21:03Z</time>
      </trkpt>
      <trkpt lat="43.48645" lon="6.18637">
        <ele>156.9</ele>
        <time>2024-03-27T16:21:04Z</time>
      </trkpt>
      <trkpt lat="43.48645" lon="6.18636">
        <ele>156.8</ele>
        <time>2024-03-27T16:21:05Z</time>
      </trkpt>
      <trkpt lat="43.48644" lon="6.18636">
        <ele>156.7</ele>
        <time>2024-03-27T16:21:06Z</time>
      </trkpt>
      <trkpt lat="43.48644" lon="6.18636">
        <ele>156.5</ele>
        <time>2024-03-27T16:21:07Z</time>
      </trkpt>
      <trkpt lat="43.48644" lon="6.18636">
        <ele>156.3</ele>
        <time>2024-03-27T16:21:08Z</time>
      </trkpt>
      <trkpt lat="43.48643" lon="6.18636">
        <ele>156.1</ele>
        <time>2024-03-27T16:21:09Z</time>
      </trkpt>
      <trkpt lat="43.48643" lon="6.18636">
        <ele>155.9</ele>
        <time>2024-03-27T16:21:10Z</time>
      </trkpt>
      <trkpt lat="43.48642" lon="6.18636">
        <ele>155.6</ele>
        <time>2024-03-27T16:21:11Z</time>
      </trkpt>
      <trkpt lat="43.48642" lon="6.18636">
        <ele>155.5</ele>
        <time>2024-03-27T16:21:12Z</time>
      </trkpt>
      <trkpt lat="43.48641" lon="6.18636">
        <ele>155.4</ele>
        <time>2024-03-27T16:21:13Z</time>
      </trkpt>
      <trkpt lat="43.48641" lon="6.18636">
        <ele>155.3</ele>
        <time>2024-03-27T16:21:14Z</time>
      </trkpt>
      <trkpt lat="43.4864" lon="6.18636">
        <ele>155.3</ele>
        <time>2024-03-27T16:21:15Z</time>
      </trkpt>
      <trkpt lat="43.4864" lon="6.18636">
        <ele>155.3</ele>
        <time>2024-03-27T16:21:16Z</time>
      </trkpt>
      <trkpt lat="43.48639" lon="6.18636">
        <ele>155.3</ele>
        <time>2024-03-27T16:21:17Z</time>
      </trkpt>
      <trkpt lat="43.48639" lon="6.18636">
        <ele>155.3</ele>
        <time>2024-03-27T16:21:18Z</time>
      </trkpt>
      <trkpt lat="43.48639" lon="6.18636">
        <ele>155.3</ele>
        <time>2024-03-27T16:21:19Z</time>
      </trkpt>
      <trkpt lat="43.48638" lon="6.18636">
        <ele>155.3</ele>
        <time>2024-03-27T16:21:20Z</time>
      </trkpt>
      <trkpt lat="43.48638" lon="6.18636">
        <ele>155.3</ele>
        <time>2024-03-27T16:21:21Z</time>
      </trkpt>
      <trkpt lat="43.48637" lon="6.18636">
        <ele>155.4</ele>
        <time>2024-03-27T16:21:22Z</time>
      </trkpt>
      <trkpt lat="43.48637" lon="6.18635">
        <ele>155.4</ele>
        <time>2024-03-27T16:21:23Z</time>
      </trkpt>
      <trkpt lat="43.48637" lon="6.18634">
        <ele>155.4</ele>
        <time>2024-03-27T16:21:24Z</time>
      </trkpt>
      <trkpt lat="43.48636" lon="6.18633">
        <ele>155.4</ele>
        <time>2024-03-27T16:21:25Z</time>
      </trkpt>
      <trkpt lat="43.48636" lon="6.18632">
        <ele>155.3</ele>
        <time>2024-03-27T16:21:26Z</time>
      </trkpt>
      <trkpt lat="43.48637" lon="6.18631">
        <ele>155.2</ele>
        <time>2024-03-27T16:21:27Z</time>
      </trkpt>
      <trkpt lat="43.48636" lon="6.1863">
        <ele>155.3</ele>
        <time>2024-03-27T16:21:28Z</time>
      </trkpt>
      <trkpt lat="43.48635" lon="6.1863">
        <ele>155.3</ele>
        <time>2024-03-27T16:21:29Z</time>
      </trkpt>
      <trkpt lat="43.48635" lon="6.1863">
        <ele>155.3</ele>
        <time>2024-03-27T16:21:30Z</time>
      </trkpt>
      <trkpt lat="43.48634" lon="6.1863">
        <ele>155.2</ele>
        <time>2024-03-27T16:21:31Z</time>
      </trkpt>
      <trkpt lat="43.48634" lon="6.1863">
        <ele>155.1</ele>
        <time>2024-03-27T16:21:32Z</time>
      </trkpt>
      <trkpt lat="43.48633" lon="6.1863">
        <ele>154.9</ele>
        <time>2024-03-27T16:21:33Z</time>
      </trkpt>
      <trkpt lat="43.48633" lon="6.18631">
        <ele>154.8</ele>
        <time>2024-03-27T16:21:34Z</time>
      </trkpt>
      <trkpt lat="43.48633" lon="6.18631">
        <ele>154.7</ele>
        <time>2024-03-27T16:21:35Z</time>
      </trkpt>
      <trkpt lat="43.48632" lon="6.18631">
        <ele>154.7</ele>
        <time>2024-03-27T16:21:36Z</time>
      </trkpt>
      <trkpt lat="43.48632" lon="6.18631">
        <ele>154.6</ele>
        <time>2024-03-27T16:21:37Z</time>
      </trkpt>
      <trkpt lat="43.48632" lon="6.18631">
        <ele>154.6</ele>
        <time>2024-03-27T16:21:38Z</time>
      </trkpt>
      <trkpt lat="43.48631" lon="6.18631">
        <ele>154.6</ele>
        <time>2024-03-27T16:21:39Z</time>
      </trkpt>
      <trkpt lat="43.48631" lon="6.18631">
        <ele>154.7</ele>
        <time>2024-03-27T16:21:40Z</time>
      </trkpt>
      <trkpt lat="43.48631" lon="6.18631">
        <ele>154.8</ele>
        <time>2024-03-27T16:21:41Z</time>
      </trkpt>
      <trkpt lat="43.48631" lon="6.18631">
        <ele>154.8</ele>
        <time>2024-03-27T16:21:42Z</time>
      </trkpt>
      <trkpt lat="43.48631" lon="6.18631">
        <ele>154.9</ele>
        <time>2024-03-27T16:21:43Z</time>
      </trkpt>
      <trkpt lat="43.4863" lon="6.18632">
        <ele>155</ele>
        <time>2024-03-27T16:21:44Z</time>
      </trkpt>
      <trkpt lat="43.4863" lon="6.18632">
        <ele>155.1</ele>
        <time>2024-03-27T16:21:45Z</time>
      </trkpt>
      <trkpt lat="43.4863" lon="6.18632">
        <ele>155.2</ele>
        <time>2024-03-27T16:21:46Z</time>
      </trkpt>
      <trkpt lat="43.4863" lon="6.18632">
        <ele>155.3</ele>
        <time>2024-03-27T16:21:47Z</time>
      </trkpt>
      <trkpt lat="43.4863" lon="6.18632">
        <ele>155.2</ele>
        <time>2024-03-27T16:21:48Z</time>
      </trkpt>
      <trkpt lat="43.4863" lon="6.18632">
        <ele>155.2</ele>
        <time>2024-03-27T16:21:49Z</time>
      </trkpt>
      <trkpt lat="43.48629" lon="6.18631">
        <ele>155.2</ele>
        <time>2024-03-27T16:21:50Z</time>
      </trkpt>
      <trkpt lat="43.48629" lon="6.1863">
        <ele>155.3</ele>
        <time>2024-03-27T16:21:51Z</time>
      </trkpt>
      <trkpt lat="43.48629" lon="6.1863">
        <ele>155.3</ele>
        <time>2024-03-27T16:21:52Z</time>
      </trkpt>
      <trkpt lat="43.48629" lon="6.18629">
        <ele>155.3</ele>
        <time>2024-03-27T16:21:53Z</time>
      </trkpt>
      <trkpt lat="43.48628" lon="6.18629">
        <ele>155.3</ele>
        <time>2024-03-27T16:21:54Z</time>
      </trkpt>
      <trkpt lat="43.48627" lon="6.18629">
        <ele>155.2</ele>
        <time>2024-03-27T16:21:55Z</time>
      </trkpt>
      <trkpt lat="43.48627" lon="6.18628">
        <ele>155.2</ele>
        <time>2024-03-27T16:21:56Z</time>
      </trkpt>
      <trkpt lat="43.48626" lon="6.18627">
        <ele>155.1</ele>
        <time>2024-03-27T16:21:57Z</time>
      </trkpt>
      <trkpt lat="43.48625" lon="6.18626">
        <ele>155</ele>
        <time>2024-03-27T16:21:58Z</time>
      </trkpt>
      <trkpt lat="43.48624" lon="6.18625">
        <ele>154.9</ele>
        <time>2024-03-27T16:21:59Z</time>
      </trkpt>
      <trkpt lat="43.48623" lon="6.18625">
        <ele>154.8</ele>
        <time>2024-03-27T16:22:00Z</time>
      </trkpt>
      <trkpt lat="43.48622" lon="6.18624">
        <ele>154.7</ele>
        <time>2024-03-27T16:22:01Z</time>
      </trkpt>
      <trkpt lat="43.48621" lon="6.18624">
        <ele>154.7</ele>
        <time>2024-03-27T16:22:02Z</time>
      </trkpt>
      <trkpt lat="43.48621" lon="6.18623">
        <ele>154.6</ele>
        <time>2024-03-27T16:22:03Z</time>
      </trkpt>
      <trkpt lat="43.4862" lon="6.18623">
        <ele>154.4</ele>
        <time>2024-03-27T16:22:04Z</time>
      </trkpt>
      <trkpt lat="43.4862" lon="6.18622">
        <ele>154.3</ele>
        <time>2024-03-27T16:22:05Z</time>
      </trkpt>
      <trkpt lat="43.4862" lon="6.18621">
        <ele>154.2</ele>
        <time>2024-03-27T16:22:06Z</time>
      </trkpt>
      <trkpt lat="43.4862" lon="6.1862">
        <ele>154.1</ele>
        <time>2024-03-27T16:22:07Z</time>
      </trkpt>
      <trkpt lat="43.48619" lon="6.1862">
        <ele>154.1</ele>
        <time>2024-03-27T16:22:08Z</time>
      </trkpt>
      <trkpt lat="43.48619" lon="6.18619">
        <ele>153.9</ele>
        <time>2024-03-27T16:22:09Z</time>
      </trkpt>
      <trkpt lat="43.48618" lon="6.18618">
        <ele>153.9</ele>
        <time>2024-03-27T16:22:10Z</time>
      </trkpt>
      <trkpt lat="43.48618" lon="6.18616">
        <ele>153.8</ele>
        <time>2024-03-27T16:22:11Z</time>
      </trkpt>
      <trkpt lat="43.48617" lon="6.18615">
        <ele>153.7</ele>
        <time>2024-03-27T16:22:12Z</time>
      </trkpt>
      <trkpt lat="43.48616" lon="6.18614">
        <ele>153.6</ele>
        <time>2024-03-27T16:22:13Z</time>
      </trkpt>
      <trkpt lat="43.48616" lon="6.18614">
        <ele>153.6</ele>
        <time>2024-03-27T16:22:14Z</time>
      </trkpt>
      <trkpt lat="43.48615" lon="6.18613">
        <ele>153.4</ele>
        <time>2024-03-27T16:22:15Z</time>
      </trkpt>
      <trkpt lat="43.48614" lon="6.18612">
        <ele>153.3</ele>
        <time>2024-03-27T16:22:16Z</time>
      </trkpt>
      <trkpt lat="43.48614" lon="6.18611">
        <ele>153.2</ele>
        <time>2024-03-27T16:22:17Z</time>
      </trkpt>
      <trkpt lat="43.48613" lon="6.1861">
        <ele>153.1</ele>
        <time>2024-03-27T16:22:18Z</time>
      </trkpt>
      <trkpt lat="43.48613" lon="6.18609">
        <ele>153.1</ele>
        <time>2024-03-27T16:22:19Z</time>
      </trkpt>
      <trkpt lat="43.48612" lon="6.18609">
        <ele>153</ele>
        <time>2024-03-27T16:22:20Z</time>
      </trkpt>
      <trkpt lat="43.48612" lon="6.18608">
        <ele>152.9</ele>
        <time>2024-03-27T16:22:21Z</time>
      </trkpt>
      <trkpt lat="43.48611" lon="6.18607">
        <ele>152.8</ele>
        <time>2024-03-27T16:22:22Z</time>
      </trkpt>
      <trkpt lat="43.48611" lon="6.18606">
        <ele>152.7</ele>
        <time>2024-03-27T16:22:23Z</time>
      </trkpt>
      <trkpt lat="43.4861" lon="6.18605">
        <ele>152.6</ele>
        <time>2024-03-27T16:22:24Z</time>
      </trkpt>
      <trkpt lat="43.4861" lon="6.18604">
        <ele>152.7</ele>
        <time>2024-03-27T16:22:25Z</time>
      </trkpt>
      <trkpt lat="43.4861" lon="6.18603">
        <ele>152.7</ele>
        <time>2024-03-27T16:22:26Z</time>
      </trkpt>
      <trkpt lat="43.48609" lon="6.18602">
        <ele>152.7</ele>
        <time>2024-03-27T16:22:27Z</time>
      </trkpt>
      <trkpt lat="43.48609" lon="6.18602">
        <ele>152.7</ele>
        <time>2024-03-27T16:22:28Z</time>
      </trkpt>
      <trkpt lat="43.48609" lon="6.18602">
        <ele>152.6</ele>
        <time>2024-03-27T16:22:29Z</time>
      </trkpt>
      <trkpt lat="43.48609" lon="6.18602">
        <ele>152.6</ele>
        <time>2024-03-27T16:22:30Z</time>
      </trkpt>
      <trkpt lat="43.48608" lon="6.18602">
        <ele>152.6</ele>
        <time>2024-03-27T16:22:31Z</time>
      </trkpt>
      <trkpt lat="43.48608" lon="6.18602">
        <ele>152.6</ele>
        <time>2024-03-27T16:22:32Z</time>
      </trkpt>
      <trkpt lat="43.48608" lon="6.18603">
        <ele>152.6</ele>
        <time>2024-03-27T16:22:33Z</time>
      </trkpt>
      <trkpt lat="43.48608" lon="6.18604">
        <ele>152.6</ele>
        <time>2024-03-27T16:22:34Z</time>
      </trkpt>
      <trkpt lat="43.48609" lon="6.18604">
        <ele>152.5</ele>
        <time>2024-03-27T16:22:35Z</time>
      </trkpt>
      <trkpt lat="43.48608" lon="6.18604">
        <ele>152.5</ele>
        <time>2024-03-27T16:22:36Z</time>
      </trkpt>
      <trkpt lat="43.48608" lon="6.18604">
        <ele>152.5</ele>
        <time>2024-03-27T16:22:37Z</time>
      </trkpt>
      <trkpt lat="43.48608" lon="6.18604">
        <ele>152.5</ele>
        <time>2024-03-27T16:22:38Z</time>
      </trkpt>
      <trkpt lat="43.48608" lon="6.18604">
        <ele>152.4</ele>
        <time>2024-03-27T16:22:39Z</time>
      </trkpt>
      <trkpt lat="43.48608" lon="6.18604">
        <ele>152.4</ele>
        <time>2024-03-27T16:22:40Z</time>
      </trkpt>
      <trkpt lat="43.48608" lon="6.18604">
        <ele>152.4</ele>
        <time>2024-03-27T16:22:41Z</time>
      </trkpt>
      <trkpt lat="43.48608" lon="6.18605">
        <ele>152.4</ele>
        <time>2024-03-27T16:22:42Z</time>
      </trkpt>
      <trkpt lat="43.48608" lon="6.18605">
        <ele>152.3</ele>
        <time>2024-03-27T16:22:43Z</time>
      </trkpt>
      <trkpt lat="43.48608" lon="6.18606">
        <ele>152.3</ele>
        <time>2024-03-27T16:22:44Z</time>
      </trkpt>
      <trkpt lat="43.48608" lon="6.18606">
        <ele>152.3</ele>
        <time>2024-03-27T16:22:45Z</time>
      </trkpt>
      <trkpt lat="43.48608" lon="6.18607">
        <ele>152.2</ele>
        <time>2024-03-27T16:22:46Z</time>
      </trkpt>
      <trkpt lat="43.48607" lon="6.18608">
        <ele>152.1</ele>
        <time>2024-03-27T16:22:47Z</time>
      </trkpt>
      <trkpt lat="43.48607" lon="6.18608">
        <ele>152.1</ele>
        <time>2024-03-27T16:22:48Z</time>
      </trkpt>
      <trkpt lat="43.48607" lon="6.18608">
        <ele>152.1</ele>
        <time>2024-03-27T16:22:49Z</time>
      </trkpt>
      <trkpt lat="43.48607" lon="6.18608">
        <ele>152.1</ele>
        <time>2024-03-27T16:22:50Z</time>
      </trkpt>
      <trkpt lat="43.48607" lon="6.18608">
        <ele>152.1</ele>
        <time>2024-03-27T16:22:51Z</time>
      </trkpt>
      <trkpt lat="43.48607" lon="6.18608">
        <ele>152.1</ele>
        <time>2024-03-27T16:22:52Z</time>
      </trkpt>
      <trkpt lat="43.48607" lon="6.18607">
        <ele>152</ele>
        <time>2024-03-27T16:22:53Z</time>
      </trkpt>
      <trkpt lat="43.48607" lon="6.18607">
        <ele>152</ele>
        <time>2024-03-27T16:22:54Z</time>
      </trkpt>
      <trkpt lat="43.48607" lon="6.18607">
        <ele>151.9</ele>
        <time>2024-03-27T16:22:55Z</time>
      </trkpt>
      <trkpt lat="43.48607" lon="6.18607">
        <ele>151.8</ele>
        <time>2024-03-27T16:22:56Z</time>
      </trkpt>
      <trkpt lat="43.48607" lon="6.18606">
        <ele>151.9</ele>
        <time>2024-03-27T16:22:57Z</time>
      </trkpt>
      <trkpt lat="43.48607" lon="6.18606">
        <ele>151.9</ele>
        <time>2024-03-27T16:22:58Z</time>
      </trkpt>
      <trkpt lat="43.48607" lon="6.18606">
        <ele>151.9</ele>
        <time>2024-03-27T16:22:59Z</time>
      </trkpt>
      <trkpt lat="43.48607" lon="6.18606">
        <ele>152</ele>
        <time>2024-03-27T16:23:00Z</time>
      </trkpt>
      <trkpt lat="43.48607" lon="6.18606">
        <ele>151.9</ele>
        <time>2024-03-27T16:23:01Z</time>
      </trkpt>
      <trkpt lat="43.48607" lon="6.18606">
        <ele>151.9</ele>
        <time>2024-03-27T16:23:02Z</time>
      </trkpt>
      <trkpt lat="43.48607" lon="6.18606">
        <ele>151.8</ele>
        <time>2024-03-27T16:23:03Z</time>
      </trkpt>
      <trkpt lat="43.48607" lon="6.18606">
        <ele>151.8</ele>
        <time>2024-03-27T16:23:04Z</time>
      </trkpt>
      <trkpt lat="43.48607" lon="6.18606">
        <ele>151.8</ele>
        <time>2024-03-27T16:23:05Z</time>
      </trkpt>
      <trkpt lat="43.48607" lon="6.18606">
        <ele>151.8</ele>
        <time>2024-03-27T16:23:06Z</time>
      </trkpt>
      <trkpt lat="43.48607" lon="6.18606">
        <ele>151.8</ele>
        <time>2024-03-27T16:23:07Z</time>
      </trkpt>
      <trkpt lat="43.48607" lon="6.18605">
        <ele>151.7</ele>
        <time>2024-03-27T16:23:08Z</time>
      </trkpt>
      <trkpt lat="43.48607" lon="6.18605">
        <ele>151.7</ele>
        <time>2024-03-27T16:23:09Z</time>
      </trkpt>
      <trkpt lat="43.48607" lon="6.18605">
        <ele>151.7</ele>
        <time>2024-03-27T16:23:10Z</time>
      </trkpt>
      <trkpt lat="43.48607" lon="6.18605">
        <ele>151.7</ele>
        <time>2024-03-27T16:23:11Z</time>
      </trkpt>
      <trkpt lat="43.48607" lon="6.18605">
        <ele>151.7</ele>
        <time>2024-03-27T16:23:12Z</time>
      </trkpt>
      <trkpt lat="43.48607" lon="6.18605">
        <ele>151.7</ele>
        <time>2024-03-27T16:23:13Z</time>
      </trkpt>
      <trkpt lat="43.48607" lon="6.18605">
        <ele>151.7</ele>
        <time>2024-03-27T16:23:14Z</time>
      </trkpt>
      <trkpt lat="43.48607" lon="6.18605">
        <ele>151.8</ele>
        <time>2024-03-27T16:23:15Z</time>
      </trkpt>
      <trkpt lat="43.48607" lon="6.18605">
        <ele>151.8</ele>
        <time>2024-03-27T16:23:16Z</time>
      </trkpt>
      <trkpt lat="43.48607" lon="6.18605">
        <ele>151.8</ele>
        <time>2024-03-27T16:23:17Z</time>
      </trkpt>
      <trkpt lat="43.48607" lon="6.18605">
        <ele>151.8</ele>
        <time>2024-03-27T16:23:18Z</time>
      </trkpt>
      <trkpt lat="43.48607" lon="6.18605">
        <ele>151.8</ele>
        <time>2024-03-27T16:23:19Z</time>
      </trkpt>
      <trkpt lat="43.48607" lon="6.18605">
        <ele>151.8</ele>
        <time>2024-03-27T16:23:20Z</time>
      </trkpt>
      <trkpt lat="43.48607" lon="6.18605">
        <ele>151.7</ele>
        <time>2024-03-27T16:23:21Z</time>
      </trkpt>
      <trkpt lat="43.48607" lon="6.18605">
        <ele>151.7</ele>
        <time>2024-03-27T16:23:22Z</time>
      </trkpt>
      <trkpt lat="43.48607" lon="6.18605">
        <ele>151.6</ele>
        <time>2024-03-27T16:23:23Z</time>
      </trkpt>
      <trkpt lat="43.48607" lon="6.18605">
        <ele>151.6</ele>
        <time>2024-03-27T16:23:24Z</time>
      </trkpt>
      <trkpt lat="43.48607" lon="6.18605">
        <ele>151.6</ele>
        <time>2024-03-27T16:23:25Z</time>
      </trkpt>
      <trkpt lat="43.48606" lon="6.18605">
        <ele>151.6</ele>
        <time>2024-03-27T16:23:26Z</time>
      </trkpt>
      <trkpt lat="43.48606" lon="6.18605">
        <ele>151.6</ele>
        <time>2024-03-27T16:23:27Z</time>
      </trkpt>
      <trkpt lat="43.48606" lon="6.18605">
        <ele>151.5</ele>
        <time>2024-03-27T16:23:28Z</time>
      </trkpt>
      <trkpt lat="43.48606" lon="6.18605">
        <ele>151.5</ele>
        <time>2024-03-27T16:23:29Z</time>
      </trkpt>
      <trkpt lat="43.48607" lon="6.18605">
        <ele>151.6</ele>
        <time>2024-03-27T16:23:30Z</time>
      </trkpt>
      <trkpt lat="43.48607" lon="6.18605">
        <ele>151.6</ele>
        <time>2024-03-27T16:23:31Z</time>
      </trkpt>
      <trkpt lat="43.48607" lon="6.18605">
        <ele>151.6</ele>
        <time>2024-03-27T16:23:32Z</time>
      </trkpt>
      <trkpt lat="43.48607" lon="6.18605">
        <ele>151.6</ele>
        <time>2024-03-27T16:23:33Z</time>
      </trkpt>
      <trkpt lat="43.48607" lon="6.18605">
        <ele>151.6</ele>
        <time>2024-03-27T16:23:34Z</time>
      </trkpt>
      <trkpt lat="43.48607" lon="6.18605">
        <ele>151.6</ele>
        <time>2024-03-27T16:23:35Z</time>
      </trkpt>
      <trkpt lat="43.48607" lon="6.18605">
        <ele>151.6</ele>
        <time>2024-03-27T16:23:36Z</time>
      </trkpt>
      <trkpt lat="43.48607" lon="6.18605">
        <ele>151.6</ele>
        <time>2024-03-27T16:23:37Z</time>
      </trkpt>
      <trkpt lat="43.48607" lon="6.18605">
        <ele>151.6</ele>
        <time>2024-03-27T16:23:38Z</time>
      </trkpt>
      <trkpt lat="43.48607" lon="6.18606">
        <ele>151.7</ele>
        <time>2024-03-27T16:23:39Z</time>
      </trkpt>
      <trkpt lat="43.48607" lon="6.18606">
        <ele>151.8</ele>
        <time>2024-03-27T16:23:40Z</time>
      </trkpt>
      <trkpt lat="43.48607" lon="6.18607">
        <ele>151.8</ele>
        <time>2024-03-27T16:23:41Z</time>
      </trkpt>
      <trkpt lat="43.48607" lon="6.18607">
        <ele>151.8</ele>
        <time>2024-03-27T16:23:42Z</time>
      </trkpt>
      <trkpt lat="43.48607" lon="6.18607">
        <ele>151.9</ele>
        <time>2024-03-27T16:23:43Z</time>
      </trkpt>
      <trkpt lat="43.48607" lon="6.18607">
        <ele>151.8</ele>
        <time>2024-03-27T16:23:44Z</time>
      </trkpt>
      <trkpt lat="43.48606" lon="6.18608">
        <ele>151.9</ele>
        <time>2024-03-27T16:23:45Z</time>
      </trkpt>
      <trkpt lat="43.48606" lon="6.18608">
        <ele>152</ele>
        <time>2024-03-27T16:23:46Z</time>
      </trkpt>
      <trkpt lat="43.48606" lon="6.18609">
        <ele>152</ele>
        <time>2024-03-27T16:23:47Z</time>
      </trkpt>
      <trkpt lat="43.48605" lon="6.18609">
        <ele>152.1</ele>
        <time>2024-03-27T16:23:48Z</time>
      </trkpt>
      <trkpt lat="43.48604" lon="6.18609">
        <ele>152</ele>
        <time>2024-03-27T16:23:49Z</time>
      </trkpt>
      <trkpt lat="43.48604" lon="6.18608">
        <ele>152.1</ele>
        <time>2024-03-27T16:23:50Z</time>
      </trkpt>
      <trkpt lat="43.48604" lon="6.18608">
        <ele>152.1</ele>
        <time>2024-03-27T16:23:51Z</time>
      </trkpt>
      <trkpt lat="43.48604" lon="6.18608">
        <ele>152.1</ele>
        <time>2024-03-27T16:23:52Z</time>
      </trkpt>
      <trkpt lat="43.48604" lon="6.18608">
        <ele>152.1</ele>
        <time>2024-03-27T16:23:53Z</time>
      </trkpt>
      <trkpt lat="43.48604" lon="6.18608">
        <ele>152.1</ele>
        <time>2024-03-27T16:23:54Z</time>
      </trkpt>
      <trkpt lat="43.48603" lon="6.18609">
        <ele>152.1</ele>
        <time>2024-03-27T16:23:55Z</time>
      </trkpt>
      <trkpt lat="43.48603" lon="6.18609">
        <ele>152</ele>
        <time>2024-03-27T16:23:56Z</time>
      </trkpt>
      <trkpt lat="43.48603" lon="6.18609">
        <ele>152</ele>
        <time>2024-03-27T16:23:57Z</time>
      </trkpt>
      <trkpt lat="43.48603" lon="6.18609">
        <ele>151.9</ele>
        <time>2024-03-27T16:23:58Z</time>
      </trkpt>
      <trkpt lat="43.48603" lon="6.18609">
        <ele>151.9</ele>
        <time>2024-03-27T16:23:59Z</time>
      </trkpt>
      <trkpt lat="43.48603" lon="6.18609">
        <ele>151.8</ele>
        <time>2024-03-27T16:24:00Z</time>
      </trkpt>
      <trkpt lat="43.48603" lon="6.18609">
        <ele>151.8</ele>
        <time>2024-03-27T16:24:01Z</time>
      </trkpt>
      <trkpt lat="43.48603" lon="6.18609">
        <ele>151.8</ele>
        <time>2024-03-27T16:24:02Z</time>
      </trkpt>
      <trkpt lat="43.48603" lon="6.18609">
        <ele>151.8</ele>
        <time>2024-03-27T16:24:03Z</time>
      </trkpt>
      <trkpt lat="43.48603" lon="6.18609">
        <ele>151.8</ele>
        <time>2024-03-27T16:24:04Z</time>
      </trkpt>
      <trkpt lat="43.48603" lon="6.18609">
        <ele>151.8</ele>
        <time>2024-03-27T16:24:05Z</time>
      </trkpt>
      <trkpt lat="43.48603" lon="6.18609">
        <ele>151.8</ele>
        <time>2024-03-27T16:24:06Z</time>
      </trkpt>
      <trkpt lat="43.48603" lon="6.18609">
        <ele>151.8</ele>
        <time>2024-03-27T16:24:07Z</time>
      </trkpt>
      <trkpt lat="43.48603" lon="6.18609">
        <ele>151.7</ele>
        <time>2024-03-27T16:24:08Z</time>
      </trkpt>
      <trkpt lat="43.48603" lon="6.18609">
        <ele>151.7</ele>
        <time>2024-03-27T16:24:09Z</time>
      </trkpt>
      <trkpt lat="43.48603" lon="6.18609">
        <ele>151.8</ele>
        <time>2024-03-27T16:24:10Z</time>
      </trkpt>
      <trkpt lat="43.48602" lon="6.18609">
        <ele>151.8</ele>
        <time>2024-03-27T16:24:11Z</time>
      </trkpt>
      <trkpt lat="43.48602" lon="6.18609">
        <ele>151.8</ele>
        <time>2024-03-27T16:24:12Z</time>
      </trkpt>
      <trkpt lat="43.48602" lon="6.18609">
        <ele>151.8</ele>
        <time>2024-03-27T16:24:13Z</time>
      </trkpt>
      <trkpt lat="43.48602" lon="6.18609">
        <ele>151.8</ele>
        <time>2024-03-27T16:24:14Z</time>
      </trkpt>
      <trkpt lat="43.48601" lon="6.1861">
        <ele>151.8</ele>
        <time>2024-03-27T16:24:15Z</time>
      </trkpt>
      <trkpt lat="43.486" lon="6.1861">
        <ele>151.8</ele>
        <time>2024-03-27T16:24:16Z</time>
      </trkpt>
      <trkpt lat="43.486" lon="6.1861">
        <ele>151.8</ele>
        <time>2024-03-27T16:24:17Z</time>
      </trkpt>
      <trkpt lat="43.48599" lon="6.18609">
        <ele>151.8</ele>
        <time>2024-03-27T16:24:18Z</time>
      </trkpt>
      <trkpt lat="43.48599" lon="6.18608">
        <ele>151.8</ele>
        <time>2024-03-27T16:24:19Z</time>
      </trkpt>
      <trkpt lat="43.48598" lon="6.18608">
        <ele>151.7</ele>
        <time>2024-03-27T16:24:20Z</time>
      </trkpt>
      <trkpt lat="43.48597" lon="6.18607">
        <ele>151.7</ele>
        <time>2024-03-27T16:24:21Z</time>
      </trkpt>
      <trkpt lat="43.48597" lon="6.18607">
        <ele>151.7</ele>
        <time>2024-03-27T16:24:22Z</time>
      </trkpt>
      <trkpt lat="43.48595" lon="6.18607">
        <ele>151.6</ele>
        <time>2024-03-27T16:24:23Z</time>
      </trkpt>
      <trkpt lat="43.48595" lon="6.18607">
        <ele>151.5</ele>
        <time>2024-03-27T16:24:24Z</time>
      </trkpt>
      <trkpt lat="43.48594" lon="6.18607">
        <ele>151.4</ele>
        <time>2024-03-27T16:24:25Z</time>
      </trkpt>
      <trkpt lat="43.48593" lon="6.18608">
        <ele>151.3</ele>
        <time>2024-03-27T16:24:26Z</time>
      </trkpt>
      <trkpt lat="43.48592" lon="6.18608">
        <ele>151.2</ele>
        <time>2024-03-27T16:24:27Z</time>
      </trkpt>
      <trkpt lat="43.48591" lon="6.18608">
        <ele>151.1</ele>
        <time>2024-03-27T16:24:28Z</time>
      </trkpt>
      <trkpt lat="43.48589" lon="6.18608">
        <ele>151.1</ele>
        <time>2024-03-27T16:24:29Z</time>
      </trkpt>
      <trkpt lat="43.48588" lon="6.18608">
        <ele>151</ele>
        <time>2024-03-27T16:24:30Z</time>
      </trkpt>
      <trkpt lat="43.48587" lon="6.18609">
        <ele>150.9</ele>
        <time>2024-03-27T16:24:31Z</time>
      </trkpt>
      <trkpt lat="43.48586" lon="6.18609">
        <ele>150.8</ele>
        <time>2024-03-27T16:24:32Z</time>
      </trkpt>
      <trkpt lat="43.48586" lon="6.18609">
        <ele>150.7</ele>
        <time>2024-03-27T16:24:33Z</time>
      </trkpt>
      <trkpt lat="43.48586" lon="6.1861">
        <ele>150.6</ele>
        <time>2024-03-27T16:24:34Z</time>
      </trkpt>
      <trkpt lat="43.48585" lon="6.18611">
        <ele>150.5</ele>
        <time>2024-03-27T16:24:35Z</time>
      </trkpt>
      <trkpt lat="43.48585" lon="6.18612">
        <ele>150.4</ele>
        <time>2024-03-27T16:24:36Z</time>
      </trkpt>
      <trkpt lat="43.48584" lon="6.18613">
        <ele>150.4</ele>
        <time>2024-03-27T16:24:37Z</time>
      </trkpt>
      <trkpt lat="43.48583" lon="6.18614">
        <ele>150.2</ele>
        <time>2024-03-27T16:24:38Z</time>
      </trkpt>
      <trkpt lat="43.48582" lon="6.18614">
        <ele>150.1</ele>
        <time>2024-03-27T16:24:39Z</time>
      </trkpt>
      <trkpt lat="43.4858" lon="6.18615">
        <ele>150</ele>
        <time>2024-03-27T16:24:40Z</time>
      </trkpt>
      <trkpt lat="43.48579" lon="6.18616">
        <ele>149.9</ele>
        <time>2024-03-27T16:24:41Z</time>
      </trkpt>
      <trkpt lat="43.48578" lon="6.18617">
        <ele>149.8</ele>
        <time>2024-03-27T16:24:42Z</time>
      </trkpt>
      <trkpt lat="43.48577" lon="6.18617">
        <ele>149.7</ele>
        <time>2024-03-27T16:24:43Z</time>
      </trkpt>
      <trkpt lat="43.48576" lon="6.18617">
        <ele>149.6</ele>
        <time>2024-03-27T16:24:44Z</time>
      </trkpt>
      <trkpt lat="43.48575" lon="6.18617">
        <ele>149.5</ele>
        <time>2024-03-27T16:24:45Z</time>
      </trkpt>
      <trkpt lat="43.48575" lon="6.18617">
        <ele>149.5</ele>
        <time>2024-03-27T16:24:46Z</time>
      </trkpt>
      <trkpt lat="43.48574" lon="6.18617">
        <ele>149.3</ele>
        <time>2024-03-27T16:24:47Z</time>
      </trkpt>
      <trkpt lat="43.48574" lon="6.18618">
        <ele>149.1</ele>
        <time>2024-03-27T16:24:48Z</time>
      </trkpt>
      <trkpt lat="43.48573" lon="6.18619">
        <ele>149</ele>
        <time>2024-03-27T16:24:49Z</time>
      </trkpt>
      <trkpt lat="43.48572" lon="6.18619">
        <ele>148.9</ele>
        <time>2024-03-27T16:24:50Z</time>
      </trkpt>
      <trkpt lat="43.48571" lon="6.18618">
        <ele>148.8</ele>
        <time>2024-03-27T16:24:51Z</time>
      </trkpt>
      <trkpt lat="43.48569" lon="6.18619">
        <ele>148.8</ele>
        <time>2024-03-27T16:24:52Z</time>
      </trkpt>
      <trkpt lat="43.48568" lon="6.18619">
        <ele>148.8</ele>
        <time>2024-03-27T16:24:53Z</time>
      </trkpt>
      <trkpt lat="43.48567" lon="6.18619">
        <ele>148.7</ele>
        <time>2024-03-27T16:24:54Z</time>
      </trkpt>
      <trkpt lat="43.48566" lon="6.1862">
        <ele>148.7</ele>
        <time>2024-03-27T16:24:55Z</time>
      </trkpt>
      <trkpt lat="43.48565" lon="6.1862">
        <ele>148.7</ele>
        <time>2024-03-27T16:24:56Z</time>
      </trkpt>
      <trkpt lat="43.48564" lon="6.18621">
        <ele>148.6</ele>
        <time>2024-03-27T16:24:57Z</time>
      </trkpt>
      <trkpt lat="43.48564" lon="6.18622">
        <ele>148.4</ele>
        <time>2024-03-27T16:24:58Z</time>
      </trkpt>
      <trkpt lat="43.48563" lon="6.18622">
        <ele>148.3</ele>
        <time>2024-03-27T16:24:59Z</time>
      </trkpt>
      <trkpt lat="43.48562" lon="6.18622">
        <ele>148.2</ele>
        <time>2024-03-27T16:25:00Z</time>
      </trkpt>
      <trkpt lat="43.48562" lon="6.18621">
        <ele>148.2</ele>
        <time>2024-03-27T16:25:01Z</time>
      </trkpt>
      <trkpt lat="43.48561" lon="6.1862">
        <ele>148</ele>
        <time>2024-03-27T16:25:02Z</time>
      </trkpt>
      <trkpt lat="43.4856" lon="6.18619">
        <ele>147.9</ele>
        <time>2024-03-27T16:25:03Z</time>
      </trkpt>
      <trkpt lat="43.48559" lon="6.18618">
        <ele>147.9</ele>
        <time>2024-03-27T16:25:04Z</time>
      </trkpt>
      <trkpt lat="43.48559" lon="6.18618">
        <ele>147.8</ele>
        <time>2024-03-27T16:25:05Z</time>
      </trkpt>
      <trkpt lat="43.48558" lon="6.18618">
        <ele>147.8</ele>
        <time>2024-03-27T16:25:06Z</time>
      </trkpt>
      <trkpt lat="43.48558" lon="6.18618">
        <ele>147.7</ele>
        <time>2024-03-27T16:25:07Z</time>
      </trkpt>
      <trkpt lat="43.48557" lon="6.18618">
        <ele>147.7</ele>
        <time>2024-03-27T16:25:08Z</time>
      </trkpt>
      <trkpt lat="43.48557" lon="6.18618">
        <ele>147.6</ele>
        <time>2024-03-27T16:25:09Z</time>
      </trkpt>
      <trkpt lat="43.48556" lon="6.18617">
        <ele>147.5</ele>
        <time>2024-03-27T16:25:10Z</time>
      </trkpt>
      <trkpt lat="43.48555" lon="6.18617">
        <ele>147.5</ele>
        <time>2024-03-27T16:25:11Z</time>
      </trkpt>
      <trkpt lat="43.48554" lon="6.18617">
        <ele>147.5</ele>
        <time>2024-03-27T16:25:12Z</time>
      </trkpt>
      <trkpt lat="43.48553" lon="6.18616">
        <ele>147.5</ele>
        <time>2024-03-27T16:25:13Z</time>
      </trkpt>
      <trkpt lat="43.48553" lon="6.18616">
        <ele>147.3</ele>
        <time>2024-03-27T16:25:14Z</time>
      </trkpt>
      <trkpt lat="43.48552" lon="6.18615">
        <ele>147.2</ele>
        <time>2024-03-27T16:25:15Z</time>
      </trkpt>
      <trkpt lat="43.48551" lon="6.18614">
        <ele>147.2</ele>
        <time>2024-03-27T16:25:16Z</time>
      </trkpt>
      <trkpt lat="43.48551" lon="6.18614">
        <ele>147.3</ele>
        <time>2024-03-27T16:25:17Z</time>
      </trkpt>
      <trkpt lat="43.4855" lon="6.18614">
        <ele>147.2</ele>
        <time>2024-03-27T16:25:18Z</time>
      </trkpt>
      <trkpt lat="43.48549" lon="6.18614">
        <ele>147.1</ele>
        <time>2024-03-27T16:25:19Z</time>
      </trkpt>
      <trkpt lat="43.48548" lon="6.18613">
        <ele>147.1</ele>
        <time>2024-03-27T16:25:20Z</time>
      </trkpt>
      <trkpt lat="43.48547" lon="6.18613">
        <ele>147.1</ele>
        <time>2024-03-27T16:25:21Z</time>
      </trkpt>
      <trkpt lat="43.48546" lon="6.18612">
        <ele>147.1</ele>
        <time>2024-03-27T16:25:22Z</time>
      </trkpt>
      <trkpt lat="43.48545" lon="6.18613">
        <ele>147</ele>
        <time>2024-03-27T16:25:23Z</time>
      </trkpt>
      <trkpt lat="43.48544" lon="6.18613">
        <ele>146.9</ele>
        <time>2024-03-27T16:25:24Z</time>
      </trkpt>
      <trkpt lat="43.48543" lon="6.18613">
        <ele>146.7</ele>
        <time>2024-03-27T16:25:25Z</time>
      </trkpt>
      <trkpt lat="43.48542" lon="6.18613">
        <ele>146.5</ele>
        <time>2024-03-27T16:25:26Z</time>
      </trkpt>
      <trkpt lat="43.48541" lon="6.18613">
        <ele>146.4</ele>
        <time>2024-03-27T16:25:27Z</time>
      </trkpt>
      <trkpt lat="43.4854" lon="6.18613">
        <ele>146.3</ele>
        <time>2024-03-27T16:25:28Z</time>
      </trkpt>
      <trkpt lat="43.48539" lon="6.18613">
        <ele>146.2</ele>
        <time>2024-03-27T16:25:29Z</time>
      </trkpt>
      <trkpt lat="43.48538" lon="6.18613">
        <ele>146.1</ele>
        <time>2024-03-27T16:25:30Z</time>
      </trkpt>
      <trkpt lat="43.48537" lon="6.18612">
        <ele>146.1</ele>
        <time>2024-03-27T16:25:31Z</time>
      </trkpt>
      <trkpt lat="43.48536" lon="6.18612">
        <ele>146</ele>
        <time>2024-03-27T16:25:32Z</time>
      </trkpt>
      <trkpt lat="43.48535" lon="6.18612">
        <ele>146</ele>
        <time>2024-03-27T16:25:33Z</time>
      </trkpt>
      <trkpt lat="43.48534" lon="6.18611">
        <ele>146</ele>
        <time>2024-03-27T16:25:34Z</time>
      </trkpt>
      <trkpt lat="43.48533" lon="6.18611">
        <ele>145.9</ele>
        <time>2024-03-27T16:25:35Z</time>
      </trkpt>
      <trkpt lat="43.48532" lon="6.1861">
        <ele>145.9</ele>
        <time>2024-03-27T16:25:36Z</time>
      </trkpt>
      <trkpt lat="43.48531" lon="6.1861">
        <ele>145.8</ele>
        <time>2024-03-27T16:25:37Z</time>
      </trkpt>
      <trkpt lat="43.4853" lon="6.1861">
        <ele>145.8</ele>
        <time>2024-03-27T16:25:38Z</time>
      </trkpt>
      <trkpt lat="43.48529" lon="6.18609">
        <ele>145.8</ele>
        <time>2024-03-27T16:25:39Z</time>
      </trkpt>
      <trkpt lat="43.48529" lon="6.18609">
        <ele>145.9</ele>
        <time>2024-03-27T16:25:40Z</time>
      </trkpt>
      <trkpt lat="43.48527" lon="6.18609">
        <ele>145.7</ele>
        <time>2024-03-27T16:25:41Z</time>
      </trkpt>
      <trkpt lat="43.48527" lon="6.18609">
        <ele>145.6</ele>
        <time>2024-03-27T16:25:42Z</time>
      </trkpt>
      <trkpt lat="43.48525" lon="6.18608">
        <ele>145.6</ele>
        <time>2024-03-27T16:25:43Z</time>
      </trkpt>
      <trkpt lat="43.48524" lon="6.18607">
        <ele>145.6</ele>
        <time>2024-03-27T16:25:44Z</time>
      </trkpt>
      <trkpt lat="43.48523" lon="6.18607">
        <ele>145.6</ele>
        <time>2024-03-27T16:25:45Z</time>
      </trkpt>
      <trkpt lat="43.48522" lon="6.18606">
        <ele>145.5</ele>
        <time>2024-03-27T16:25:46Z</time>
      </trkpt>
      <trkpt lat="43.48522" lon="6.18606">
        <ele>145.4</ele>
        <time>2024-03-27T16:25:47Z</time>
      </trkpt>
      <trkpt lat="43.4852" lon="6.18605">
        <ele>145.3</ele>
        <time>2024-03-27T16:25:48Z</time>
      </trkpt>
      <trkpt lat="43.48519" lon="6.18605">
        <ele>145.3</ele>
        <time>2024-03-27T16:25:49Z</time>
      </trkpt>
      <trkpt lat="43.48518" lon="6.18605">
        <ele>145.2</ele>
        <time>2024-03-27T16:25:50Z</time>
      </trkpt>
      <trkpt lat="43.48518" lon="6.18605">
        <ele>145</ele>
        <time>2024-03-27T16:25:51Z</time>
      </trkpt>
      <trkpt lat="43.48517" lon="6.18604">
        <ele>145</ele>
        <time>2024-03-27T16:25:52Z</time>
      </trkpt>
      <trkpt lat="43.48517" lon="6.18604">
        <ele>144.9</ele>
        <time>2024-03-27T16:25:53Z</time>
      </trkpt>
      <trkpt lat="43.48515" lon="6.18604">
        <ele>144.8</ele>
        <time>2024-03-27T16:25:54Z</time>
      </trkpt>
      <trkpt lat="43.48515" lon="6.18604">
        <ele>144.8</ele>
        <time>2024-03-27T16:25:55Z</time>
      </trkpt>
      <trkpt lat="43.48513" lon="6.18605">
        <ele>144.7</ele>
        <time>2024-03-27T16:25:56Z</time>
      </trkpt>
      <trkpt lat="43.48512" lon="6.18604">
        <ele>144.7</ele>
        <time>2024-03-27T16:25:57Z</time>
      </trkpt>
      <trkpt lat="43.48511" lon="6.18604">
        <ele>144.5</ele>
        <time>2024-03-27T16:25:58Z</time>
      </trkpt>
      <trkpt lat="43.48509" lon="6.18604">
        <ele>144.4</ele>
        <time>2024-03-27T16:25:59Z</time>
      </trkpt>
      <trkpt lat="43.48508" lon="6.18604">
        <ele>144.3</ele>
        <time>2024-03-27T16:26:00Z</time>
      </trkpt>
      <trkpt lat="43.48507" lon="6.18604">
        <ele>144.2</ele>
        <time>2024-03-27T16:26:01Z</time>
      </trkpt>
      <trkpt lat="43.48506" lon="6.18604">
        <ele>144.2</ele>
        <time>2024-03-27T16:26:02Z</time>
      </trkpt>
      <trkpt lat="43.48505" lon="6.18605">
        <ele>144.1</ele>
        <time>2024-03-27T16:26:03Z</time>
      </trkpt>
      <trkpt lat="43.48504" lon="6.18605">
        <ele>144.1</ele>
        <time>2024-03-27T16:26:04Z</time>
      </trkpt>
      <trkpt lat="43.48503" lon="6.18605">
        <ele>144</ele>
        <time>2024-03-27T16:26:05Z</time>
      </trkpt>
      <trkpt lat="43.48502" lon="6.18605">
        <ele>144</ele>
        <time>2024-03-27T16:26:06Z</time>
      </trkpt>
      <trkpt lat="43.48501" lon="6.18605">
        <ele>144</ele>
        <time>2024-03-27T16:26:07Z</time>
      </trkpt>
      <trkpt lat="43.485" lon="6.18605">
        <ele>144</ele>
        <time>2024-03-27T16:26:08Z</time>
      </trkpt>
      <trkpt lat="43.48499" lon="6.18605">
        <ele>143.9</ele>
        <time>2024-03-27T16:26:09Z</time>
      </trkpt>
      <trkpt lat="43.48498" lon="6.18605">
        <ele>143.9</ele>
        <time>2024-03-27T16:26:10Z</time>
      </trkpt>
      <trkpt lat="43.48497" lon="6.18605">
        <ele>143.9</ele>
        <time>2024-03-27T16:26:11Z</time>
      </trkpt>
      <trkpt lat="43.48496" lon="6.18606">
        <ele>143.8</ele>
        <time>2024-03-27T16:26:12Z</time>
      </trkpt>
      <trkpt lat="43.48495" lon="6.18606">
        <ele>143.8</ele>
        <time>2024-03-27T16:26:13Z</time>
      </trkpt>
      <trkpt lat="43.48493" lon="6.18606">
        <ele>143.7</ele>
        <time>2024-03-27T16:26:14Z</time>
      </trkpt>
      <trkpt lat="43.48492" lon="6.18606">
        <ele>143.7</ele>
        <time>2024-03-27T16:26:15Z</time>
      </trkpt>
      <trkpt lat="43.48491" lon="6.18606">
        <ele>143.7</ele>
        <time>2024-03-27T16:26:16Z</time>
      </trkpt>
      <trkpt lat="43.4849" lon="6.18606">
        <ele>143.6</ele>
        <time>2024-03-27T16:26:17Z</time>
      </trkpt>
      <trkpt lat="43.48489" lon="6.18606">
        <ele>143.5</ele>
        <time>2024-03-27T16:26:18Z</time>
      </trkpt>
      <trkpt lat="43.48488" lon="6.18606">
        <ele>143.4</ele>
        <time>2024-03-27T16:26:19Z</time>
      </trkpt>
      <trkpt lat="43.48487" lon="6.18606">
        <ele>143.4</ele>
        <time>2024-03-27T16:26:20Z</time>
      </trkpt>
      <trkpt lat="43.48486" lon="6.18606">
        <ele>143.3</ele>
        <time>2024-03-27T16:26:21Z</time>
      </trkpt>
      <trkpt lat="43.48485" lon="6.18606">
        <ele>143.2</ele>
        <time>2024-03-27T16:26:22Z</time>
      </trkpt>
      <trkpt lat="43.48484" lon="6.18606">
        <ele>143.1</ele>
        <time>2024-03-27T16:26:23Z</time>
      </trkpt>
      <trkpt lat="43.48483" lon="6.18606">
        <ele>143</ele>
        <time>2024-03-27T16:26:24Z</time>
      </trkpt>
      <trkpt lat="43.48481" lon="6.18606">
        <ele>142.9</ele>
        <time>2024-03-27T16:26:25Z</time>
      </trkpt>
      <trkpt lat="43.4848" lon="6.18606">
        <ele>142.8</ele>
        <time>2024-03-27T16:26:26Z</time>
      </trkpt>
      <trkpt lat="43.48479" lon="6.18606">
        <ele>142.7</ele>
        <time>2024-03-27T16:26:27Z</time>
      </trkpt>
      <trkpt lat="43.48478" lon="6.18606">
        <ele>142.6</ele>
        <time>2024-03-27T16:26:28Z</time>
      </trkpt>
      <trkpt lat="43.48477" lon="6.18606">
        <ele>142.5</ele>
        <time>2024-03-27T16:26:29Z</time>
      </trkpt>
      <trkpt lat="43.48476" lon="6.18606">
        <ele>142.4</ele>
        <time>2024-03-27T16:26:30Z</time>
      </trkpt>
      <trkpt lat="43.48475" lon="6.18605">
        <ele>142.3</ele>
        <time>2024-03-27T16:26:31Z</time>
      </trkpt>
      <trkpt lat="43.48474" lon="6.18605">
        <ele>142.3</ele>
        <time>2024-03-27T16:26:32Z</time>
      </trkpt>
      <trkpt lat="43.48472" lon="6.18605">
        <ele>142.2</ele>
        <time>2024-03-27T16:26:33Z</time>
      </trkpt>
      <trkpt lat="43.48471" lon="6.18606">
        <ele>142.1</ele>
        <time>2024-03-27T16:26:34Z</time>
      </trkpt>
      <trkpt lat="43.4847" lon="6.18605">
        <ele>141.9</ele>
        <time>2024-03-27T16:26:35Z</time>
      </trkpt>
      <trkpt lat="43.48469" lon="6.18605">
        <ele>141.9</ele>
        <time>2024-03-27T16:26:36Z</time>
      </trkpt>
      <trkpt lat="43.48468" lon="6.18605">
        <ele>141.8</ele>
        <time>2024-03-27T16:26:37Z</time>
      </trkpt>
      <trkpt lat="43.48467" lon="6.18604">
        <ele>141.8</ele>
        <time>2024-03-27T16:26:38Z</time>
      </trkpt>
      <trkpt lat="43.48465" lon="6.18604">
        <ele>141.7</ele>
        <time>2024-03-27T16:26:39Z</time>
      </trkpt>
      <trkpt lat="43.48464" lon="6.18603">
        <ele>141.7</ele>
        <time>2024-03-27T16:26:40Z</time>
      </trkpt>
      <trkpt lat="43.48463" lon="6.18603">
        <ele>141.6</ele>
        <time>2024-03-27T16:26:41Z</time>
      </trkpt>
      <trkpt lat="43.48462" lon="6.18603">
        <ele>141.7</ele>
        <time>2024-03-27T16:26:42Z</time>
      </trkpt>
      <trkpt lat="43.4846" lon="6.18603">
        <ele>141.6</ele>
        <time>2024-03-27T16:26:43Z</time>
      </trkpt>
      <trkpt lat="43.48459" lon="6.18603">
        <ele>141.4</ele>
        <time>2024-03-27T16:26:44Z</time>
      </trkpt>
      <trkpt lat="43.48458" lon="6.18603">
        <ele>141.3</ele>
        <time>2024-03-27T16:26:45Z</time>
      </trkpt>
      <trkpt lat="43.48457" lon="6.18602">
        <ele>141.2</ele>
        <time>2024-03-27T16:26:46Z</time>
      </trkpt>
      <trkpt lat="43.48457" lon="6.18603">
        <ele>141.2</ele>
        <time>2024-03-27T16:26:47Z</time>
      </trkpt>
      <trkpt lat="43.48456" lon="6.18602">
        <ele>141.1</ele>
        <time>2024-03-27T16:26:48Z</time>
      </trkpt>
      <trkpt lat="43.48456" lon="6.18602">
        <ele>141.1</ele>
        <time>2024-03-27T16:26:49Z</time>
      </trkpt>
      <trkpt lat="43.48456" lon="6.18602">
        <ele>141.1</ele>
        <time>2024-03-27T16:26:50Z</time>
      </trkpt>
      <trkpt lat="43.48455" lon="6.18602">
        <ele>141.1</ele>
        <time>2024-03-27T16:26:51Z</time>
      </trkpt>
      <trkpt lat="43.48454" lon="6.18602">
        <ele>141.1</ele>
        <time>2024-03-27T16:26:52Z</time>
      </trkpt>
      <trkpt lat="43.48453" lon="6.18601">
        <ele>141.2</ele>
        <time>2024-03-27T16:26:53Z</time>
      </trkpt>
      <trkpt lat="43.48451" lon="6.18601">
        <ele>141.1</ele>
        <time>2024-03-27T16:26:54Z</time>
      </trkpt>
      <trkpt lat="43.4845" lon="6.18601">
        <ele>141</ele>
        <time>2024-03-27T16:26:55Z</time>
      </trkpt>
      <trkpt lat="43.48449" lon="6.18601">
        <ele>140.9</ele>
        <time>2024-03-27T16:26:56Z</time>
      </trkpt>
      <trkpt lat="43.48447" lon="6.18601">
        <ele>140.8</ele>
        <time>2024-03-27T16:26:57Z</time>
      </trkpt>
      <trkpt lat="43.48446" lon="6.18601">
        <ele>140.7</ele>
        <time>2024-03-27T16:26:58Z</time>
      </trkpt>
      <trkpt lat="43.48445" lon="6.18601">
        <ele>140.6</ele>
        <time>2024-03-27T16:26:59Z</time>
      </trkpt>
      <trkpt lat="43.48444" lon="6.186">
        <ele>140.5</ele>
        <time>2024-03-27T16:27:00Z</time>
      </trkpt>
      <trkpt lat="43.48443" lon="6.186">
        <ele>140.4</ele>
        <time>2024-03-27T16:27:01Z</time>
      </trkpt>
      <trkpt lat="43.48442" lon="6.18599">
        <ele>140.2</ele>
        <time>2024-03-27T16:27:02Z</time>
      </trkpt>
      <trkpt lat="43.48441" lon="6.18598">
        <ele>140.1</ele>
        <time>2024-03-27T16:27:03Z</time>
      </trkpt>
      <trkpt lat="43.48441" lon="6.18597">
        <ele>140</ele>
        <time>2024-03-27T16:27:04Z</time>
      </trkpt>
      <trkpt lat="43.4844" lon="6.18597">
        <ele>139.9</ele>
        <time>2024-03-27T16:27:05Z</time>
      </trkpt>
      <trkpt lat="43.48439" lon="6.18596">
        <ele>139.7</ele>
        <time>2024-03-27T16:27:06Z</time>
      </trkpt>
      <trkpt lat="43.48438" lon="6.18596">
        <ele>139.6</ele>
        <time>2024-03-27T16:27:07Z</time>
      </trkpt>
      <trkpt lat="43.48437" lon="6.18595">
        <ele>139.5</ele>
        <time>2024-03-27T16:27:08Z</time>
      </trkpt>
      <trkpt lat="43.48436" lon="6.18595">
        <ele>139.3</ele>
        <time>2024-03-27T16:27:09Z</time>
      </trkpt>
      <trkpt lat="43.48435" lon="6.18595">
        <ele>139.3</ele>
        <time>2024-03-27T16:27:10Z</time>
      </trkpt>
      <trkpt lat="43.48434" lon="6.18595">
        <ele>139.3</ele>
        <time>2024-03-27T16:27:11Z</time>
      </trkpt>
      <trkpt lat="43.48433" lon="6.18595">
        <ele>139.1</ele>
        <time>2024-03-27T16:27:12Z</time>
      </trkpt>
      <trkpt lat="43.48432" lon="6.18596">
        <ele>138.9</ele>
        <time>2024-03-27T16:27:13Z</time>
      </trkpt>
      <trkpt lat="43.48431" lon="6.18596">
        <ele>138.8</ele>
        <time>2024-03-27T16:27:14Z</time>
      </trkpt>
      <trkpt lat="43.4843" lon="6.18597">
        <ele>138.8</ele>
        <time>2024-03-27T16:27:15Z</time>
      </trkpt>
      <trkpt lat="43.48429" lon="6.18597">
        <ele>138.8</ele>
        <time>2024-03-27T16:27:16Z</time>
      </trkpt>
      <trkpt lat="43.48428" lon="6.18597">
        <ele>138.7</ele>
        <time>2024-03-27T16:27:17Z</time>
      </trkpt>
      <trkpt lat="43.48427" lon="6.18597">
        <ele>138.7</ele>
        <time>2024-03-27T16:27:18Z</time>
      </trkpt>
      <trkpt lat="43.48426" lon="6.18597">
        <ele>138.5</ele>
        <time>2024-03-27T16:27:19Z</time>
      </trkpt>
      <trkpt lat="43.48426" lon="6.18597">
        <ele>138.5</ele>
        <time>2024-03-27T16:27:20Z</time>
      </trkpt>
      <trkpt lat="43.48426" lon="6.18597">
        <ele>138.4</ele>
        <time>2024-03-27T16:27:21Z</time>
      </trkpt>
      <trkpt lat="43.48425" lon="6.18597">
        <ele>138.2</ele>
        <time>2024-03-27T16:27:22Z</time>
      </trkpt>
      <trkpt lat="43.48425" lon="6.18597">
        <ele>138.1</ele>
        <time>2024-03-27T16:27:23Z</time>
      </trkpt>
      <trkpt lat="43.48425" lon="6.18597">
        <ele>138.1</ele>
        <time>2024-03-27T16:27:24Z</time>
      </trkpt>
      <trkpt lat="43.48425" lon="6.18597">
        <ele>137.8</ele>
        <time>2024-03-27T16:27:25Z</time>
      </trkpt>
      <trkpt lat="43.48424" lon="6.18597">
        <ele>137.7</ele>
        <time>2024-03-27T16:27:26Z</time>
      </trkpt>
      <trkpt lat="43.48424" lon="6.18597">
        <ele>137.7</ele>
        <time>2024-03-27T16:27:27Z</time>
      </trkpt>
      <trkpt lat="43.48423" lon="6.18596">
        <ele>137.6</ele>
        <time>2024-03-27T16:27:28Z</time>
      </trkpt>
      <trkpt lat="43.48422" lon="6.18597">
        <ele>137.4</ele>
        <time>2024-03-27T16:27:29Z</time>
      </trkpt>
      <trkpt lat="43.48421" lon="6.18597">
        <ele>137.3</ele>
        <time>2024-03-27T16:27:30Z</time>
      </trkpt>
      <trkpt lat="43.4842" lon="6.18597">
        <ele>137.2</ele>
        <time>2024-03-27T16:27:31Z</time>
      </trkpt>
      <trkpt lat="43.48419" lon="6.18597">
        <ele>137.1</ele>
        <time>2024-03-27T16:27:32Z</time>
      </trkpt>
      <trkpt lat="43.48418" lon="6.18597">
        <ele>137.1</ele>
        <time>2024-03-27T16:27:33Z</time>
      </trkpt>
      <trkpt lat="43.48417" lon="6.18598">
        <ele>137</ele>
        <time>2024-03-27T16:27:34Z</time>
      </trkpt>
      <trkpt lat="43.48416" lon="6.18598">
        <ele>137</ele>
        <time>2024-03-27T16:27:35Z</time>
      </trkpt>
      <trkpt lat="43.48414" lon="6.18598">
        <ele>136.9</ele>
        <time>2024-03-27T16:27:36Z</time>
      </trkpt>
      <trkpt lat="43.48413" lon="6.18598">
        <ele>136.9</ele>
        <time>2024-03-27T16:27:37Z</time>
      </trkpt>
      <trkpt lat="43.48412" lon="6.18599">
        <ele>136.8</ele>
        <time>2024-03-27T16:27:38Z</time>
      </trkpt>
      <trkpt lat="43.48411" lon="6.18599">
        <ele>136.7</ele>
        <time>2024-03-27T16:27:39Z</time>
      </trkpt>
      <trkpt lat="43.4841" lon="6.18599">
        <ele>136.7</ele>
        <time>2024-03-27T16:27:40Z</time>
      </trkpt>
      <trkpt lat="43.48409" lon="6.18599">
        <ele>136.7</ele>
        <time>2024-03-27T16:27:41Z</time>
      </trkpt>
      <trkpt lat="43.48408" lon="6.186">
        <ele>136.7</ele>
        <time>2024-03-27T16:27:42Z</time>
      </trkpt>
      <trkpt lat="43.48407" lon="6.186">
        <ele>136.8</ele>
        <time>2024-03-27T16:27:43Z</time>
      </trkpt>
      <trkpt lat="43.48406" lon="6.186">
        <ele>136.8</ele>
        <time>2024-03-27T16:27:44Z</time>
      </trkpt>
      <trkpt lat="43.48404" lon="6.186">
        <ele>136.8</ele>
        <time>2024-03-27T16:27:45Z</time>
      </trkpt>
      <trkpt lat="43.48403" lon="6.186">
        <ele>136.8</ele>
        <time>2024-03-27T16:27:46Z</time>
      </trkpt>
      <trkpt lat="43.48402" lon="6.186">
        <ele>136.7</ele>
        <time>2024-03-27T16:27:47Z</time>
      </trkpt>
      <trkpt lat="43.48401" lon="6.186">
        <ele>136.7</ele>
        <time>2024-03-27T16:27:48Z</time>
      </trkpt>
      <trkpt lat="43.484" lon="6.18601">
        <ele>136.7</ele>
        <time>2024-03-27T16:27:49Z</time>
      </trkpt>
      <trkpt lat="43.48399" lon="6.18601">
        <ele>136.6</ele>
        <time>2024-03-27T16:27:50Z</time>
      </trkpt>
      <trkpt lat="43.48397" lon="6.18601">
        <ele>136.6</ele>
        <time>2024-03-27T16:27:51Z</time>
      </trkpt>
      <trkpt lat="43.48396" lon="6.18601">
        <ele>136.6</ele>
        <time>2024-03-27T16:27:52Z</time>
      </trkpt>
      <trkpt lat="43.48395" lon="6.18601">
        <ele>136.6</ele>
        <time>2024-03-27T16:27:53Z</time>
      </trkpt>
      <trkpt lat="43.48394" lon="6.18601">
        <ele>136.5</ele>
        <time>2024-03-27T16:27:54Z</time>
      </trkpt>
      <trkpt lat="43.48393" lon="6.18601">
        <ele>136.4</ele>
        <time>2024-03-27T16:27:55Z</time>
      </trkpt>
      <trkpt lat="43.48391" lon="6.18601">
        <ele>136.4</ele>
        <time>2024-03-27T16:27:56Z</time>
      </trkpt>
      <trkpt lat="43.4839" lon="6.18601">
        <ele>136.3</ele>
        <time>2024-03-27T16:27:57Z</time>
      </trkpt>
      <trkpt lat="43.48389" lon="6.18602">
        <ele>136.3</ele>
        <time>2024-03-27T16:27:58Z</time>
      </trkpt>
      <trkpt lat="43.48388" lon="6.18602">
        <ele>136.3</ele>
        <time>2024-03-27T16:27:59Z</time>
      </trkpt>
      <trkpt lat="43.48387" lon="6.18602">
        <ele>136.3</ele>
        <time>2024-03-27T16:28:00Z</time>
      </trkpt>
      <trkpt lat="43.48385" lon="6.18602">
        <ele>136.2</ele>
        <time>2024-03-27T16:28:01Z</time>
      </trkpt>
      <trkpt lat="43.48384" lon="6.18603">
        <ele>136.2</ele>
        <time>2024-03-27T16:28:02Z</time>
      </trkpt>
      <trkpt lat="43.48383" lon="6.18603">
        <ele>136.1</ele>
        <time>2024-03-27T16:28:03Z</time>
      </trkpt>
      <trkpt lat="43.48382" lon="6.18603">
        <ele>136</ele>
        <time>2024-03-27T16:28:04Z</time>
      </trkpt>
      <trkpt lat="43.48381" lon="6.18603">
        <ele>135.9</ele>
        <time>2024-03-27T16:28:05Z</time>
      </trkpt>
      <trkpt lat="43.4838" lon="6.18602">
        <ele>135.8</ele>
        <time>2024-03-27T16:28:06Z</time>
      </trkpt>
      <trkpt lat="43.48378" lon="6.18602">
        <ele>135.8</ele>
        <time>2024-03-27T16:28:07Z</time>
      </trkpt>
      <trkpt lat="43.48377" lon="6.18602">
        <ele>135.8</ele>
        <time>2024-03-27T16:28:08Z</time>
      </trkpt>
      <trkpt lat="43.48376" lon="6.18602">
        <ele>135.7</ele>
        <time>2024-03-27T16:28:09Z</time>
      </trkpt>
      <trkpt lat="43.48375" lon="6.18603">
        <ele>135.7</ele>
        <time>2024-03-27T16:28:10Z</time>
      </trkpt>
      <trkpt lat="43.48374" lon="6.18603">
        <ele>135.6</ele>
        <time>2024-03-27T16:28:11Z</time>
      </trkpt>
      <trkpt lat="43.48372" lon="6.18604">
        <ele>135.5</ele>
        <time>2024-03-27T16:28:12Z</time>
      </trkpt>
      <trkpt lat="43.48371" lon="6.18604">
        <ele>135.4</ele>
        <time>2024-03-27T16:28:13Z</time>
      </trkpt>
      <trkpt lat="43.4837" lon="6.18605">
        <ele>135.3</ele>
        <time>2024-03-27T16:28:14Z</time>
      </trkpt>
      <trkpt lat="43.48368" lon="6.18605">
        <ele>135.2</ele>
        <time>2024-03-27T16:28:15Z</time>
      </trkpt>
      <trkpt lat="43.48367" lon="6.18606">
        <ele>135.1</ele>
        <time>2024-03-27T16:28:16Z</time>
      </trkpt>
      <trkpt lat="43.48366" lon="6.18606">
        <ele>135</ele>
        <time>2024-03-27T16:28:17Z</time>
      </trkpt>
      <trkpt lat="43.48365" lon="6.18606">
        <ele>134.9</ele>
        <time>2024-03-27T16:28:18Z</time>
      </trkpt>
      <trkpt lat="43.48364" lon="6.18606">
        <ele>134.8</ele>
        <time>2024-03-27T16:28:19Z</time>
      </trkpt>
      <trkpt lat="43.48363" lon="6.18606">
        <ele>134.7</ele>
        <time>2024-03-27T16:28:20Z</time>
      </trkpt>
      <trkpt lat="43.48361" lon="6.18607">
        <ele>134.7</ele>
        <time>2024-03-27T16:28:21Z</time>
      </trkpt>
      <trkpt lat="43.4836" lon="6.18607">
        <ele>134.5</ele>
        <time>2024-03-27T16:28:22Z</time>
      </trkpt>
      <trkpt lat="43.48359" lon="6.18607">
        <ele>134.5</ele>
        <time>2024-03-27T16:28:23Z</time>
      </trkpt>
      <trkpt lat="43.48358" lon="6.18608">
        <ele>134.4</ele>
        <time>2024-03-27T16:28:24Z</time>
      </trkpt>
      <trkpt lat="43.48357" lon="6.18608">
        <ele>134.3</ele>
        <time>2024-03-27T16:28:25Z</time>
      </trkpt>
      <trkpt lat="43.48356" lon="6.18609">
        <ele>134.3</ele>
        <time>2024-03-27T16:28:26Z</time>
      </trkpt>
      <trkpt lat="43.48355" lon="6.18609">
        <ele>134.2</ele>
        <time>2024-03-27T16:28:27Z</time>
      </trkpt>
      <trkpt lat="43.48354" lon="6.18609">
        <ele>134.2</ele>
        <time>2024-03-27T16:28:28Z</time>
      </trkpt>
      <trkpt lat="43.48353" lon="6.1861">
        <ele>134</ele>
        <time>2024-03-27T16:28:29Z</time>
      </trkpt>
      <trkpt lat="43.48351" lon="6.1861">
        <ele>134.1</ele>
        <time>2024-03-27T16:28:30Z</time>
      </trkpt>
      <trkpt lat="43.4835" lon="6.18611">
        <ele>134.1</ele>
        <time>2024-03-27T16:28:31Z</time>
      </trkpt>
      <trkpt lat="43.48349" lon="6.18611">
        <ele>133.9</ele>
        <time>2024-03-27T16:28:32Z</time>
      </trkpt>
      <trkpt lat="43.48348" lon="6.18612">
        <ele>133.9</ele>
        <time>2024-03-27T16:28:33Z</time>
      </trkpt>
      <trkpt lat="43.48347" lon="6.18612">
        <ele>133.9</ele>
        <time>2024-03-27T16:28:34Z</time>
      </trkpt>
      <trkpt lat="43.48346" lon="6.18613">
        <ele>133.9</ele>
        <time>2024-03-27T16:28:35Z</time>
      </trkpt>
      <trkpt lat="43.48345" lon="6.18614">
        <ele>134</ele>
        <time>2024-03-27T16:28:36Z</time>
      </trkpt>
      <trkpt lat="43.48343" lon="6.18614">
        <ele>134</ele>
        <time>2024-03-27T16:28:37Z</time>
      </trkpt>
      <trkpt lat="43.48342" lon="6.18615">
        <ele>133.8</ele>
        <time>2024-03-27T16:28:38Z</time>
      </trkpt>
      <trkpt lat="43.48341" lon="6.18615">
        <ele>133.8</ele>
        <time>2024-03-27T16:28:39Z</time>
      </trkpt>
      <trkpt lat="43.4834" lon="6.18616">
        <ele>133.7</ele>
        <time>2024-03-27T16:28:40Z</time>
      </trkpt>
      <trkpt lat="43.48338" lon="6.18616">
        <ele>133.8</ele>
        <time>2024-03-27T16:28:41Z</time>
      </trkpt>
      <trkpt lat="43.48337" lon="6.18617">
        <ele>133.7</ele>
        <time>2024-03-27T16:28:42Z</time>
      </trkpt>
      <trkpt lat="43.48336" lon="6.18617">
        <ele>133.7</ele>
        <time>2024-03-27T16:28:43Z</time>
      </trkpt>
      <trkpt lat="43.48335" lon="6.18618">
        <ele>133.6</ele>
        <time>2024-03-27T16:28:44Z</time>
      </trkpt>
      <trkpt lat="43.48334" lon="6.18618">
        <ele>133.6</ele>
        <time>2024-03-27T16:28:45Z</time>
      </trkpt>
      <trkpt lat="43.48333" lon="6.18619">
        <ele>133.5</ele>
        <time>2024-03-27T16:28:46Z</time>
      </trkpt>
      <trkpt lat="43.48332" lon="6.18619">
        <ele>133.5</ele>
        <time>2024-03-27T16:28:47Z</time>
      </trkpt>
      <trkpt lat="43.48331" lon="6.18619">
        <ele>133.4</ele>
        <time>2024-03-27T16:28:48Z</time>
      </trkpt>
      <trkpt lat="43.4833" lon="6.1862">
        <ele>133.4</ele>
        <time>2024-03-27T16:28:49Z</time>
      </trkpt>
      <trkpt lat="43.48328" lon="6.1862">
        <ele>133.4</ele>
        <time>2024-03-27T16:28:50Z</time>
      </trkpt>
      <trkpt lat="43.48327" lon="6.18621">
        <ele>133.3</ele>
        <time>2024-03-27T16:28:51Z</time>
      </trkpt>
      <trkpt lat="43.48327" lon="6.18621">
        <ele>133.2</ele>
        <time>2024-03-27T16:28:52Z</time>
      </trkpt>
      <trkpt lat="43.48326" lon="6.18622">
        <ele>133.2</ele>
        <time>2024-03-27T16:28:53Z</time>
      </trkpt>
      <trkpt lat="43.48326" lon="6.18622">
        <ele>133.1</ele>
        <time>2024-03-27T16:28:54Z</time>
      </trkpt>
      <trkpt lat="43.48325" lon="6.18623">
        <ele>133.1</ele>
        <time>2024-03-27T16:28:55Z</time>
      </trkpt>
      <trkpt lat="43.48323" lon="6.18624">
        <ele>133.1</ele>
        <time>2024-03-27T16:28:56Z</time>
      </trkpt>
      <trkpt lat="43.48322" lon="6.18624">
        <ele>133.1</ele>
        <time>2024-03-27T16:28:57Z</time>
      </trkpt>
      <trkpt lat="43.48321" lon="6.18624">
        <ele>133.1</ele>
        <time>2024-03-27T16:28:58Z</time>
      </trkpt>
      <trkpt lat="43.4832" lon="6.18624">
        <ele>133.1</ele>
        <time>2024-03-27T16:28:59Z</time>
      </trkpt>
      <trkpt lat="43.48318" lon="6.18624">
        <ele>133</ele>
        <time>2024-03-27T16:29:00Z</time>
      </trkpt>
      <trkpt lat="43.48317" lon="6.18624">
        <ele>132.9</ele>
        <time>2024-03-27T16:29:01Z</time>
      </trkpt>
      <trkpt lat="43.48316" lon="6.18624">
        <ele>132.8</ele>
        <time>2024-03-27T16:29:02Z</time>
      </trkpt>
      <trkpt lat="43.48315" lon="6.18624">
        <ele>132.8</ele>
        <time>2024-03-27T16:29:03Z</time>
      </trkpt>
      <trkpt lat="43.48314" lon="6.18624">
        <ele>132.8</ele>
        <time>2024-03-27T16:29:04Z</time>
      </trkpt>
      <trkpt lat="43.48312" lon="6.18624">
        <ele>132.7</ele>
        <time>2024-03-27T16:29:05Z</time>
      </trkpt>
      <trkpt lat="43.48311" lon="6.18624">
        <ele>132.7</ele>
        <time>2024-03-27T16:29:06Z</time>
      </trkpt>
      <trkpt lat="43.4831" lon="6.18624">
        <ele>132.7</ele>
        <time>2024-03-27T16:29:07Z</time>
      </trkpt>
      <trkpt lat="43.48309" lon="6.18624">
        <ele>132.6</ele>
        <time>2024-03-27T16:29:08Z</time>
      </trkpt>
      <trkpt lat="43.48307" lon="6.18623">
        <ele>132.7</ele>
        <time>2024-03-27T16:29:09Z</time>
      </trkpt>
      <trkpt lat="43.48306" lon="6.18624">
        <ele>132.7</ele>
        <time>2024-03-27T16:29:10Z</time>
      </trkpt>
      <trkpt lat="43.48305" lon="6.18624">
        <ele>132.7</ele>
        <time>2024-03-27T16:29:11Z</time>
      </trkpt>
      <trkpt lat="43.48304" lon="6.18624">
        <ele>132.6</ele>
        <time>2024-03-27T16:29:12Z</time>
      </trkpt>
      <trkpt lat="43.48303" lon="6.18624">
        <ele>132.6</ele>
        <time>2024-03-27T16:29:13Z</time>
      </trkpt>
      <trkpt lat="43.48302" lon="6.18624">
        <ele>132.5</ele>
        <time>2024-03-27T16:29:14Z</time>
      </trkpt>
      <trkpt lat="43.483" lon="6.18624">
        <ele>132.5</ele>
        <time>2024-03-27T16:29:15Z</time>
      </trkpt>
      <trkpt lat="43.48299" lon="6.18624">
        <ele>132.4</ele>
        <time>2024-03-27T16:29:16Z</time>
      </trkpt>
      <trkpt lat="43.48298" lon="6.18624">
        <ele>132.3</ele>
        <time>2024-03-27T16:29:17Z</time>
      </trkpt>
      <trkpt lat="43.48297" lon="6.18624">
        <ele>132.3</ele>
        <time>2024-03-27T16:29:18Z</time>
      </trkpt>
      <trkpt lat="43.48296" lon="6.18624">
        <ele>132.3</ele>
        <time>2024-03-27T16:29:19Z</time>
      </trkpt>
      <trkpt lat="43.48295" lon="6.18623">
        <ele>132.3</ele>
        <time>2024-03-27T16:29:20Z</time>
      </trkpt>
      <trkpt lat="43.48293" lon="6.18623">
        <ele>132.3</ele>
        <time>2024-03-27T16:29:21Z</time>
      </trkpt>
      <trkpt lat="43.48292" lon="6.18623">
        <ele>132.3</ele>
        <time>2024-03-27T16:29:22Z</time>
      </trkpt>
      <trkpt lat="43.48291" lon="6.18623">
        <ele>132.2</ele>
        <time>2024-03-27T16:29:23Z</time>
      </trkpt>
      <trkpt lat="43.4829" lon="6.18623">
        <ele>132.3</ele>
        <time>2024-03-27T16:29:24Z</time>
      </trkpt>
      <trkpt lat="43.48289" lon="6.18622">
        <ele>132.3</ele>
        <time>2024-03-27T16:29:25Z</time>
      </trkpt>
      <trkpt lat="43.48288" lon="6.18622">
        <ele>132.3</ele>
        <time>2024-03-27T16:29:26Z</time>
      </trkpt>
      <trkpt lat="43.48287" lon="6.18622">
        <ele>132.3</ele>
        <time>2024-03-27T16:29:27Z</time>
      </trkpt>
      <trkpt lat="43.48286" lon="6.18622">
        <ele>132.3</ele>
        <time>2024-03-27T16:29:28Z</time>
      </trkpt>
      <trkpt lat="43.48285" lon="6.18622">
        <ele>132.3</ele>
        <time>2024-03-27T16:29:29Z</time>
      </trkpt>
      <trkpt lat="43.48283" lon="6.18622">
        <ele>132.2</ele>
        <time>2024-03-27T16:29:30Z</time>
      </trkpt>
      <trkpt lat="43.48282" lon="6.18622">
        <ele>132.3</ele>
        <time>2024-03-27T16:29:31Z</time>
      </trkpt>
      <trkpt lat="43.48281" lon="6.18622">
        <ele>132.2</ele>
        <time>2024-03-27T16:29:32Z</time>
      </trkpt>
      <trkpt lat="43.4828" lon="6.18622">
        <ele>132.2</ele>
        <time>2024-03-27T16:29:33Z</time>
      </trkpt>
      <trkpt lat="43.48279" lon="6.18622">
        <ele>132.1</ele>
        <time>2024-03-27T16:29:34Z</time>
      </trkpt>
      <trkpt lat="43.48278" lon="6.18621">
        <ele>132.1</ele>
        <time>2024-03-27T16:29:35Z</time>
      </trkpt>
      <trkpt lat="43.48278" lon="6.1862">
        <ele>132.1</ele>
        <time>2024-03-27T16:29:36Z</time>
      </trkpt>
      <trkpt lat="43.48278" lon="6.1862">
        <ele>132</ele>
        <time>2024-03-27T16:29:37Z</time>
      </trkpt>
      <trkpt lat="43.48278" lon="6.18619">
        <ele>132</ele>
        <time>2024-03-27T16:29:38Z</time>
      </trkpt>
      <trkpt lat="43.48278" lon="6.18618">
        <ele>131.9</ele>
        <time>2024-03-27T16:29:39Z</time>
      </trkpt>
      <trkpt lat="43.48278" lon="6.18617">
        <ele>131.9</ele>
        <time>2024-03-27T16:29:40Z</time>
      </trkpt>
      <trkpt lat="43.48278" lon="6.18616">
        <ele>131.8</ele>
        <time>2024-03-27T16:29:41Z</time>
      </trkpt>
      <trkpt lat="43.48278" lon="6.18615">
        <ele>131.9</ele>
        <time>2024-03-27T16:29:42Z</time>
      </trkpt>
      <trkpt lat="43.48278" lon="6.18613">
        <ele>131.9</ele>
        <time>2024-03-27T16:29:43Z</time>
      </trkpt>
      <trkpt lat="43.48277" lon="6.18612">
        <ele>131.9</ele>
        <time>2024-03-27T16:29:44Z</time>
      </trkpt>
      <trkpt lat="43.48277" lon="6.1861">
        <ele>132</ele>
        <time>2024-03-27T16:29:45Z</time>
      </trkpt>
      <trkpt lat="43.48277" lon="6.18609">
        <ele>132</ele>
        <time>2024-03-27T16:29:46Z</time>
      </trkpt>
      <trkpt lat="43.48276" lon="6.18608">
        <ele>132</ele>
        <time>2024-03-27T16:29:47Z</time>
      </trkpt>
      <trkpt lat="43.48275" lon="6.18608">
        <ele>132.1</ele>
        <time>2024-03-27T16:29:48Z</time>
      </trkpt>
      <trkpt lat="43.48274" lon="6.18607">
        <ele>132.1</ele>
        <time>2024-03-27T16:29:49Z</time>
      </trkpt>
      <trkpt lat="43.48273" lon="6.18607">
        <ele>132</ele>
        <time>2024-03-27T16:29:50Z</time>
      </trkpt>
      <trkpt lat="43.48273" lon="6.18607">
        <ele>132</ele>
        <time>2024-03-27T16:29:51Z</time>
      </trkpt>
      <trkpt lat="43.48273" lon="6.18607">
        <ele>132</ele>
        <time>2024-03-27T16:29:52Z</time>
      </trkpt>
      <trkpt lat="43.48273" lon="6.18607">
        <ele>132</ele>
        <time>2024-03-27T16:29:53Z</time>
      </trkpt>
      <trkpt lat="43.48273" lon="6.18607">
        <ele>132</ele>
        <time>2024-03-27T16:29:54Z</time>
      </trkpt>
      <trkpt lat="43.48272" lon="6.18607">
        <ele>132</ele>
        <time>2024-03-27T16:29:55Z</time>
      </trkpt>
      <trkpt lat="43.48272" lon="6.18607">
        <ele>131.9</ele>
        <time>2024-03-27T16:29:56Z</time>
      </trkpt>
      <trkpt lat="43.48271" lon="6.18607">
        <ele>131.8</ele>
        <time>2024-03-27T16:29:57Z</time>
      </trkpt>
      <trkpt lat="43.48271" lon="6.18607">
        <ele>131.8</ele>
        <time>2024-03-27T16:29:58Z</time>
      </trkpt>
      <trkpt lat="43.4827" lon="6.18607">
        <ele>131.7</ele>
        <time>2024-03-27T16:29:59Z</time>
      </trkpt>
      <trkpt lat="43.48269" lon="6.18606">
        <ele>131.8</ele>
        <time>2024-03-27T16:30:00Z</time>
      </trkpt>
      <trkpt lat="43.48268" lon="6.18606">
        <ele>131.8</ele>
        <time>2024-03-27T16:30:01Z</time>
      </trkpt>
      <trkpt lat="43.48267" lon="6.18605">
        <ele>131.7</ele>
        <time>2024-03-27T16:30:02Z</time>
      </trkpt>
      <trkpt lat="43.48266" lon="6.18605">
        <ele>131.7</ele>
        <time>2024-03-27T16:30:03Z</time>
      </trkpt>
      <trkpt lat="43.48265" lon="6.18605">
        <ele>131.6</ele>
        <time>2024-03-27T16:30:04Z</time>
      </trkpt>
      <trkpt lat="43.48264" lon="6.18604">
        <ele>131.5</ele>
        <time>2024-03-27T16:30:05Z</time>
      </trkpt>
      <trkpt lat="43.48263" lon="6.18604">
        <ele>131.4</ele>
        <time>2024-03-27T16:30:06Z</time>
      </trkpt>
      <trkpt lat="43.48262" lon="6.18604">
        <ele>131.5</ele>
        <time>2024-03-27T16:30:07Z</time>
      </trkpt>
      <trkpt lat="43.48261" lon="6.18603">
        <ele>131.5</ele>
        <time>2024-03-27T16:30:08Z</time>
      </trkpt>
      <trkpt lat="43.4826" lon="6.18603">
        <ele>131.5</ele>
        <time>2024-03-27T16:30:09Z</time>
      </trkpt>
      <trkpt lat="43.48259" lon="6.18603">
        <ele>131.5</ele>
        <time>2024-03-27T16:30:10Z</time>
      </trkpt>
      <trkpt lat="43.48258" lon="6.18602">
        <ele>131.4</ele>
        <time>2024-03-27T16:30:11Z</time>
      </trkpt>
      <trkpt lat="43.48256" lon="6.18602">
        <ele>131.3</ele>
        <time>2024-03-27T16:30:12Z</time>
      </trkpt>
      <trkpt lat="43.48255" lon="6.18601">
        <ele>131.4</ele>
        <time>2024-03-27T16:30:13Z</time>
      </trkpt>
      <trkpt lat="43.48254" lon="6.18601">
        <ele>131.3</ele>
        <time>2024-03-27T16:30:14Z</time>
      </trkpt>
      <trkpt lat="43.48253" lon="6.186">
        <ele>131.2</ele>
        <time>2024-03-27T16:30:15Z</time>
      </trkpt>
      <trkpt lat="43.48252" lon="6.186">
        <ele>131.1</ele>
        <time>2024-03-27T16:30:16Z</time>
      </trkpt>
      <trkpt lat="43.48251" lon="6.186">
        <ele>131.2</ele>
        <time>2024-03-27T16:30:17Z</time>
      </trkpt>
      <trkpt lat="43.4825" lon="6.186">
        <ele>131.2</ele>
        <time>2024-03-27T16:30:18Z</time>
      </trkpt>
      <trkpt lat="43.48248" lon="6.18599">
        <ele>131.2</ele>
        <time>2024-03-27T16:30:19Z</time>
      </trkpt>
      <trkpt lat="43.48247" lon="6.18599">
        <ele>131.1</ele>
        <time>2024-03-27T16:30:20Z</time>
      </trkpt>
      <trkpt lat="43.48246" lon="6.18599">
        <ele>131</ele>
        <time>2024-03-27T16:30:21Z</time>
      </trkpt>
      <trkpt lat="43.48245" lon="6.18599">
        <ele>131.1</ele>
        <time>2024-03-27T16:30:22Z</time>
      </trkpt>
      <trkpt lat="43.48244" lon="6.18598">
        <ele>131.2</ele>
        <time>2024-03-27T16:30:23Z</time>
      </trkpt>
      <trkpt lat="43.48243" lon="6.18598">
        <ele>131.2</ele>
        <time>2024-03-27T16:30:24Z</time>
      </trkpt>
      <trkpt lat="43.48242" lon="6.18597">
        <ele>131.2</ele>
        <time>2024-03-27T16:30:25Z</time>
      </trkpt>
      <trkpt lat="43.48241" lon="6.18597">
        <ele>131.1</ele>
        <time>2024-03-27T16:30:26Z</time>
      </trkpt>
      <trkpt lat="43.4824" lon="6.18596">
        <ele>131.1</ele>
        <time>2024-03-27T16:30:27Z</time>
      </trkpt>
      <trkpt lat="43.48238" lon="6.18595">
        <ele>131</ele>
        <time>2024-03-27T16:30:28Z</time>
      </trkpt>
      <trkpt lat="43.48237" lon="6.18595">
        <ele>131</ele>
        <time>2024-03-27T16:30:29Z</time>
      </trkpt>
      <trkpt lat="43.48236" lon="6.18594">
        <ele>131</ele>
        <time>2024-03-27T16:30:30Z</time>
      </trkpt>
      <trkpt lat="43.48235" lon="6.18594">
        <ele>131</ele>
        <time>2024-03-27T16:30:31Z</time>
      </trkpt>
      <trkpt lat="43.48234" lon="6.18594">
        <ele>130.9</ele>
        <time>2024-03-27T16:30:32Z</time>
      </trkpt>
      <trkpt lat="43.48233" lon="6.18594">
        <ele>130.9</ele>
        <time>2024-03-27T16:30:33Z</time>
      </trkpt>
      <trkpt lat="43.48231" lon="6.18593">
        <ele>130.8</ele>
        <time>2024-03-27T16:30:34Z</time>
      </trkpt>
      <trkpt lat="43.4823" lon="6.18593">
        <ele>130.7</ele>
        <time>2024-03-27T16:30:35Z</time>
      </trkpt>
      <trkpt lat="43.48229" lon="6.18593">
        <ele>130.7</ele>
        <time>2024-03-27T16:30:36Z</time>
      </trkpt>
      <trkpt lat="43.48228" lon="6.18592">
        <ele>130.7</ele>
        <time>2024-03-27T16:30:37Z</time>
      </trkpt>
      <trkpt lat="43.48227" lon="6.18592">
        <ele>130.6</ele>
        <time>2024-03-27T16:30:38Z</time>
      </trkpt>
      <trkpt lat="43.48226" lon="6.18591">
        <ele>130.6</ele>
        <time>2024-03-27T16:30:39Z</time>
      </trkpt>
      <trkpt lat="43.48224" lon="6.1859">
        <ele>130.6</ele>
        <time>2024-03-27T16:30:40Z</time>
      </trkpt>
      <trkpt lat="43.48223" lon="6.1859">
        <ele>130.6</ele>
        <time>2024-03-27T16:30:41Z</time>
      </trkpt>
      <trkpt lat="43.48222" lon="6.18589">
        <ele>130.6</ele>
        <time>2024-03-27T16:30:42Z</time>
      </trkpt>
      <trkpt lat="43.48221" lon="6.18589">
        <ele>130.6</ele>
        <time>2024-03-27T16:30:43Z</time>
      </trkpt>
      <trkpt lat="43.4822" lon="6.18588">
        <ele>130.5</ele>
        <time>2024-03-27T16:30:44Z</time>
      </trkpt>
      <trkpt lat="43.48219" lon="6.18588">
        <ele>130.5</ele>
        <time>2024-03-27T16:30:45Z</time>
      </trkpt>
      <trkpt lat="43.48217" lon="6.18588">
        <ele>130.6</ele>
        <time>2024-03-27T16:30:46Z</time>
      </trkpt>
      <trkpt lat="43.48216" lon="6.18587">
        <ele>130.6</ele>
        <time>2024-03-27T16:30:47Z</time>
      </trkpt>
      <trkpt lat="43.48215" lon="6.18587">
        <ele>130.5</ele>
        <time>2024-03-27T16:30:48Z</time>
      </trkpt>
      <trkpt lat="43.48213" lon="6.18587">
        <ele>130.5</ele>
        <time>2024-03-27T16:30:49Z</time>
      </trkpt>
      <trkpt lat="43.48212" lon="6.18586">
        <ele>130.5</ele>
        <time>2024-03-27T16:30:50Z</time>
      </trkpt>
      <trkpt lat="43.48211" lon="6.18586">
        <ele>130.5</ele>
        <time>2024-03-27T16:30:51Z</time>
      </trkpt>
      <trkpt lat="43.4821" lon="6.18586">
        <ele>130.5</ele>
        <time>2024-03-27T16:30:52Z</time>
      </trkpt>
      <trkpt lat="43.48209" lon="6.18585">
        <ele>130.6</ele>
        <time>2024-03-27T16:30:53Z</time>
      </trkpt>
      <trkpt lat="43.48208" lon="6.18585">
        <ele>130.6</ele>
        <time>2024-03-27T16:30:54Z</time>
      </trkpt>
      <trkpt lat="43.48207" lon="6.18584">
        <ele>130.7</ele>
        <time>2024-03-27T16:30:55Z</time>
      </trkpt>
      <trkpt lat="43.48206" lon="6.18584">
        <ele>130.6</ele>
        <time>2024-03-27T16:30:56Z</time>
      </trkpt>
      <trkpt lat="43.48205" lon="6.18583">
        <ele>130.5</ele>
        <time>2024-03-27T16:30:57Z</time>
      </trkpt>
      <trkpt lat="43.48204" lon="6.18583">
        <ele>130.5</ele>
        <time>2024-03-27T16:30:58Z</time>
      </trkpt>
      <trkpt lat="43.48203" lon="6.18582">
        <ele>130.5</ele>
        <time>2024-03-27T16:30:59Z</time>
      </trkpt>
      <trkpt lat="43.48202" lon="6.18581">
        <ele>130.3</ele>
        <time>2024-03-27T16:31:00Z</time>
      </trkpt>
      <trkpt lat="43.48201" lon="6.18581">
        <ele>130.3</ele>
        <time>2024-03-27T16:31:01Z</time>
      </trkpt>
      <trkpt lat="43.482" lon="6.1858">
        <ele>130.2</ele>
        <time>2024-03-27T16:31:02Z</time>
      </trkpt>
      <trkpt lat="43.48199" lon="6.1858">
        <ele>130.2</ele>
        <time>2024-03-27T16:31:03Z</time>
      </trkpt>
      <trkpt lat="43.48198" lon="6.18579">
        <ele>130.1</ele>
        <time>2024-03-27T16:31:04Z</time>
      </trkpt>
      <trkpt lat="43.48196" lon="6.18579">
        <ele>130.2</ele>
        <time>2024-03-27T16:31:05Z</time>
      </trkpt>
      <trkpt lat="43.48195" lon="6.18578">
        <ele>130.2</ele>
        <time>2024-03-27T16:31:06Z</time>
      </trkpt>
      <trkpt lat="43.48193" lon="6.18577">
        <ele>130.2</ele>
        <time>2024-03-27T16:31:07Z</time>
      </trkpt>
      <trkpt lat="43.48192" lon="6.18577">
        <ele>130.1</ele>
        <time>2024-03-27T16:31:08Z</time>
      </trkpt>
      <trkpt lat="43.48191" lon="6.18577">
        <ele>130.1</ele>
        <time>2024-03-27T16:31:09Z</time>
      </trkpt>
      <trkpt lat="43.4819" lon="6.18577">
        <ele>130.1</ele>
        <time>2024-03-27T16:31:10Z</time>
      </trkpt>
      <trkpt lat="43.48188" lon="6.18576">
        <ele>130.1</ele>
        <time>2024-03-27T16:31:11Z</time>
      </trkpt>
      <trkpt lat="43.48187" lon="6.18576">
        <ele>130</ele>
        <time>2024-03-27T16:31:12Z</time>
      </trkpt>
      <trkpt lat="43.48186" lon="6.18576">
        <ele>130</ele>
        <time>2024-03-27T16:31:13Z</time>
      </trkpt>
      <trkpt lat="43.48185" lon="6.18577">
        <ele>130</ele>
        <time>2024-03-27T16:31:14Z</time>
      </trkpt>
      <trkpt lat="43.48184" lon="6.18576">
        <ele>129.9</ele>
        <time>2024-03-27T16:31:15Z</time>
      </trkpt>
      <trkpt lat="43.48183" lon="6.18575">
        <ele>129.8</ele>
        <time>2024-03-27T16:31:16Z</time>
      </trkpt>
      <trkpt lat="43.48182" lon="6.18574">
        <ele>129.8</ele>
        <time>2024-03-27T16:31:17Z</time>
      </trkpt>
      <trkpt lat="43.48181" lon="6.18574">
        <ele>129.7</ele>
        <time>2024-03-27T16:31:18Z</time>
      </trkpt>
      <trkpt lat="43.4818" lon="6.18573">
        <ele>129.7</ele>
        <time>2024-03-27T16:31:19Z</time>
      </trkpt>
      <trkpt lat="43.48179" lon="6.18573">
        <ele>129.7</ele>
        <time>2024-03-27T16:31:20Z</time>
      </trkpt>
      <trkpt lat="43.48178" lon="6.18572">
        <ele>129.8</ele>
        <time>2024-03-27T16:31:21Z</time>
      </trkpt>
      <trkpt lat="43.48177" lon="6.18572">
        <ele>129.8</ele>
        <time>2024-03-27T16:31:22Z</time>
      </trkpt>
      <trkpt lat="43.48175" lon="6.18571">
        <ele>129.8</ele>
        <time>2024-03-27T16:31:23Z</time>
      </trkpt>
      <trkpt lat="43.48174" lon="6.1857">
        <ele>129.9</ele>
        <time>2024-03-27T16:31:24Z</time>
      </trkpt>
      <trkpt lat="43.48173" lon="6.1857">
        <ele>129.9</ele>
        <time>2024-03-27T16:31:25Z</time>
      </trkpt>
      <trkpt lat="43.48172" lon="6.18569">
        <ele>129.8</ele>
        <time>2024-03-27T16:31:26Z</time>
      </trkpt>
      <trkpt lat="43.4817" lon="6.18569">
        <ele>129.8</ele>
        <time>2024-03-27T16:31:27Z</time>
      </trkpt>
      <trkpt lat="43.48169" lon="6.18568">
        <ele>129.7</ele>
        <time>2024-03-27T16:31:28Z</time>
      </trkpt>
      <trkpt lat="43.48168" lon="6.18568">
        <ele>129.6</ele>
        <time>2024-03-27T16:31:29Z</time>
      </trkpt>
      <trkpt lat="43.48167" lon="6.18568">
        <ele>129.5</ele>
        <time>2024-03-27T16:31:30Z</time>
      </trkpt>
      <trkpt lat="43.48166" lon="6.18568">
        <ele>129.5</ele>
        <time>2024-03-27T16:31:31Z</time>
      </trkpt>
      <trkpt lat="43.48164" lon="6.18567">
        <ele>129.4</ele>
        <time>2024-03-27T16:31:32Z</time>
      </trkpt>
      <trkpt lat="43.48163" lon="6.18567">
        <ele>129.5</ele>
        <time>2024-03-27T16:31:33Z</time>
      </trkpt>
      <trkpt lat="43.48162" lon="6.18567">
        <ele>129.5</ele>
        <time>2024-03-27T16:31:34Z</time>
      </trkpt>
      <trkpt lat="43.48161" lon="6.18566">
        <ele>129.5</ele>
        <time>2024-03-27T16:31:35Z</time>
      </trkpt>
      <trkpt lat="43.4816" lon="6.18566">
        <ele>129.5</ele>
        <time>2024-03-27T16:31:36Z</time>
      </trkpt>
      <trkpt lat="43.48159" lon="6.18565">
        <ele>129.4</ele>
        <time>2024-03-27T16:31:37Z</time>
      </trkpt>
      <trkpt lat="43.48158" lon="6.18565">
        <ele>129.4</ele>
        <time>2024-03-27T16:31:38Z</time>
      </trkpt>
      <trkpt lat="43.48156" lon="6.18564">
        <ele>129.5</ele>
        <time>2024-03-27T16:31:39Z</time>
      </trkpt>
      <trkpt lat="43.48155" lon="6.18564">
        <ele>129.4</ele>
        <time>2024-03-27T16:31:40Z</time>
      </trkpt>
      <trkpt lat="43.48154" lon="6.18564">
        <ele>129.4</ele>
        <time>2024-03-27T16:31:41Z</time>
      </trkpt>
      <trkpt lat="43.48153" lon="6.18563">
        <ele>129.3</ele>
        <time>2024-03-27T16:31:42Z</time>
      </trkpt>
      <trkpt lat="43.48152" lon="6.18563">
        <ele>129.3</ele>
        <time>2024-03-27T16:31:43Z</time>
      </trkpt>
      <trkpt lat="43.48151" lon="6.18562">
        <ele>129.3</ele>
        <time>2024-03-27T16:31:44Z</time>
      </trkpt>
      <trkpt lat="43.4815" lon="6.18562">
        <ele>129.3</ele>
        <time>2024-03-27T16:31:45Z</time>
      </trkpt>
      <trkpt lat="43.48149" lon="6.18561">
        <ele>129.3</ele>
        <time>2024-03-27T16:31:46Z</time>
      </trkpt>
      <trkpt lat="43.48148" lon="6.18561">
        <ele>129.4</ele>
        <time>2024-03-27T16:31:47Z</time>
      </trkpt>
      <trkpt lat="43.48147" lon="6.18561">
        <ele>129.4</ele>
        <time>2024-03-27T16:31:48Z</time>
      </trkpt>
      <trkpt lat="43.48146" lon="6.1856">
        <ele>129.4</ele>
        <time>2024-03-27T16:31:49Z</time>
      </trkpt>
      <trkpt lat="43.48144" lon="6.1856">
        <ele>129.4</ele>
        <time>2024-03-27T16:31:50Z</time>
      </trkpt>
      <trkpt lat="43.48143" lon="6.1856">
        <ele>129.3</ele>
        <time>2024-03-27T16:31:51Z</time>
      </trkpt>
      <trkpt lat="43.48143" lon="6.18559">
        <ele>129.2</ele>
        <time>2024-03-27T16:31:52Z</time>
      </trkpt>
      <trkpt lat="43.48142" lon="6.18558">
        <ele>129.2</ele>
        <time>2024-03-27T16:31:53Z</time>
      </trkpt>
      <trkpt lat="43.4814" lon="6.18557">
        <ele>129.2</ele>
        <time>2024-03-27T16:31:54Z</time>
      </trkpt>
      <trkpt lat="43.48139" lon="6.18556">
        <ele>129.2</ele>
        <time>2024-03-27T16:31:55Z</time>
      </trkpt>
      <trkpt lat="43.48138" lon="6.18556">
        <ele>129.1</ele>
        <time>2024-03-27T16:31:56Z</time>
      </trkpt>
      <trkpt lat="43.48137" lon="6.18555">
        <ele>129</ele>
        <time>2024-03-27T16:31:57Z</time>
      </trkpt>
      <trkpt lat="43.48136" lon="6.18554">
        <ele>129</ele>
        <time>2024-03-27T16:31:58Z</time>
      </trkpt>
      <trkpt lat="43.48135" lon="6.18553">
        <ele>129</ele>
        <time>2024-03-27T16:31:59Z</time>
      </trkpt>
      <trkpt lat="43.48134" lon="6.18552">
        <ele>129</ele>
        <time>2024-03-27T16:32:00Z</time>
      </trkpt>
      <trkpt lat="43.48134" lon="6.18551">
        <ele>129.1</ele>
        <time>2024-03-27T16:32:01Z</time>
      </trkpt>
      <trkpt lat="43.48133" lon="6.1855">
        <ele>129.1</ele>
        <time>2024-03-27T16:32:02Z</time>
      </trkpt>
      <trkpt lat="43.48133" lon="6.18548">
        <ele>129.1</ele>
        <time>2024-03-27T16:32:03Z</time>
      </trkpt>
      <trkpt lat="43.48132" lon="6.18547">
        <ele>129.1</ele>
        <time>2024-03-27T16:32:04Z</time>
      </trkpt>
      <trkpt lat="43.48131" lon="6.18546">
        <ele>129.1</ele>
        <time>2024-03-27T16:32:05Z</time>
      </trkpt>
      <trkpt lat="43.48131" lon="6.18544">
        <ele>129.1</ele>
        <time>2024-03-27T16:32:06Z</time>
      </trkpt>
      <trkpt lat="43.4813" lon="6.18543">
        <ele>129</ele>
        <time>2024-03-27T16:32:07Z</time>
      </trkpt>
      <trkpt lat="43.48129" lon="6.18542">
        <ele>129</ele>
        <time>2024-03-27T16:32:08Z</time>
      </trkpt>
      <trkpt lat="43.48128" lon="6.18541">
        <ele>128.9</ele>
        <time>2024-03-27T16:32:09Z</time>
      </trkpt>
      <trkpt lat="43.48127" lon="6.1854">
        <ele>129</ele>
        <time>2024-03-27T16:32:10Z</time>
      </trkpt>
      <trkpt lat="43.48126" lon="6.18538">
        <ele>128.9</ele>
        <time>2024-03-27T16:32:11Z</time>
      </trkpt>
      <trkpt lat="43.48126" lon="6.18537">
        <ele>128.9</ele>
        <time>2024-03-27T16:32:12Z</time>
      </trkpt>
      <trkpt lat="43.48125" lon="6.18536">
        <ele>128.9</ele>
        <time>2024-03-27T16:32:13Z</time>
      </trkpt>
      <trkpt lat="43.48124" lon="6.18535">
        <ele>129</ele>
        <time>2024-03-27T16:32:14Z</time>
      </trkpt>
      <trkpt lat="43.48124" lon="6.18533">
        <ele>128.9</ele>
        <time>2024-03-27T16:32:15Z</time>
      </trkpt>
      <trkpt lat="43.48124" lon="6.18532">
        <ele>128.9</ele>
        <time>2024-03-27T16:32:16Z</time>
      </trkpt>
      <trkpt lat="43.48123" lon="6.18531">
        <ele>128.9</ele>
        <time>2024-03-27T16:32:17Z</time>
      </trkpt>
      <trkpt lat="43.48122" lon="6.1853">
        <ele>128.9</ele>
        <time>2024-03-27T16:32:18Z</time>
      </trkpt>
      <trkpt lat="43.48122" lon="6.18528">
        <ele>129</ele>
        <time>2024-03-27T16:32:19Z</time>
      </trkpt>
      <trkpt lat="43.48121" lon="6.18527">
        <ele>128.9</ele>
        <time>2024-03-27T16:32:20Z</time>
      </trkpt>
      <trkpt lat="43.4812" lon="6.18527">
        <ele>128.9</ele>
        <time>2024-03-27T16:32:21Z</time>
      </trkpt>
      <trkpt lat="43.48119" lon="6.18526">
        <ele>128.9</ele>
        <time>2024-03-27T16:32:22Z</time>
      </trkpt>
      <trkpt lat="43.48118" lon="6.18525">
        <ele>128.8</ele>
        <time>2024-03-27T16:32:23Z</time>
      </trkpt>
      <trkpt lat="43.48117" lon="6.18523">
        <ele>128.8</ele>
        <time>2024-03-27T16:32:24Z</time>
      </trkpt>
      <trkpt lat="43.48116" lon="6.18522">
        <ele>128.8</ele>
        <time>2024-03-27T16:32:25Z</time>
      </trkpt>
      <trkpt lat="43.48116" lon="6.18521">
        <ele>128.7</ele>
        <time>2024-03-27T16:32:26Z</time>
      </trkpt>
      <trkpt lat="43.48115" lon="6.1852">
        <ele>128.6</ele>
        <time>2024-03-27T16:32:27Z</time>
      </trkpt>
      <trkpt lat="43.48114" lon="6.18518">
        <ele>128.5</ele>
        <time>2024-03-27T16:32:28Z</time>
      </trkpt>
      <trkpt lat="43.48113" lon="6.18517">
        <ele>128.5</ele>
        <time>2024-03-27T16:32:29Z</time>
      </trkpt>
      <trkpt lat="43.48112" lon="6.18516">
        <ele>128.5</ele>
        <time>2024-03-27T16:32:30Z</time>
      </trkpt>
      <trkpt lat="43.48112" lon="6.18514">
        <ele>128.5</ele>
        <time>2024-03-27T16:32:31Z</time>
      </trkpt>
      <trkpt lat="43.48111" lon="6.18513">
        <ele>128.4</ele>
        <time>2024-03-27T16:32:32Z</time>
      </trkpt>
      <trkpt lat="43.4811" lon="6.18512">
        <ele>128.3</ele>
        <time>2024-03-27T16:32:33Z</time>
      </trkpt>
      <trkpt lat="43.4811" lon="6.18511">
        <ele>128.3</ele>
        <time>2024-03-27T16:32:34Z</time>
      </trkpt>
      <trkpt lat="43.4811" lon="6.18509">
        <ele>128.3</ele>
        <time>2024-03-27T16:32:35Z</time>
      </trkpt>
      <trkpt lat="43.48109" lon="6.18508">
        <ele>128.3</ele>
        <time>2024-03-27T16:32:36Z</time>
      </trkpt>
      <trkpt lat="43.48108" lon="6.18507">
        <ele>128.3</ele>
        <time>2024-03-27T16:32:37Z</time>
      </trkpt>
      <trkpt lat="43.48107" lon="6.18506">
        <ele>128.3</ele>
        <time>2024-03-27T16:32:38Z</time>
      </trkpt>
      <trkpt lat="43.48106" lon="6.18505">
        <ele>128.3</ele>
        <time>2024-03-27T16:32:39Z</time>
      </trkpt>
      <trkpt lat="43.48105" lon="6.18504">
        <ele>128.3</ele>
        <time>2024-03-27T16:32:40Z</time>
      </trkpt>
      <trkpt lat="43.48104" lon="6.18503">
        <ele>128.2</ele>
        <time>2024-03-27T16:32:41Z</time>
      </trkpt>
      <trkpt lat="43.48103" lon="6.18502">
        <ele>128.2</ele>
        <time>2024-03-27T16:32:42Z</time>
      </trkpt>
      <trkpt lat="43.48102" lon="6.18502">
        <ele>128.2</ele>
        <time>2024-03-27T16:32:43Z</time>
      </trkpt>
      <trkpt lat="43.48101" lon="6.18501">
        <ele>128.2</ele>
        <time>2024-03-27T16:32:44Z</time>
      </trkpt>
      <trkpt lat="43.481" lon="6.18499">
        <ele>128.2</ele>
        <time>2024-03-27T16:32:45Z</time>
      </trkpt>
      <trkpt lat="43.48099" lon="6.18498">
        <ele>128.2</ele>
        <time>2024-03-27T16:32:46Z</time>
      </trkpt>
      <trkpt lat="43.48098" lon="6.18497">
        <ele>128.3</ele>
        <time>2024-03-27T16:32:47Z</time>
      </trkpt>
      <trkpt lat="43.48097" lon="6.18496">
        <ele>128.2</ele>
        <time>2024-03-27T16:32:48Z</time>
      </trkpt>
      <trkpt lat="43.48096" lon="6.18496">
        <ele>128.1</ele>
        <time>2024-03-27T16:32:49Z</time>
      </trkpt>
      <trkpt lat="43.48095" lon="6.18495">
        <ele>128.1</ele>
        <time>2024-03-27T16:32:50Z</time>
      </trkpt>
      <trkpt lat="43.48095" lon="6.18494">
        <ele>128</ele>
        <time>2024-03-27T16:32:51Z</time>
      </trkpt>
      <trkpt lat="43.48094" lon="6.18493">
        <ele>127.9</ele>
        <time>2024-03-27T16:32:52Z</time>
      </trkpt>
      <trkpt lat="43.48093" lon="6.18493">
        <ele>127.9</ele>
        <time>2024-03-27T16:32:53Z</time>
      </trkpt>
      <trkpt lat="43.48092" lon="6.18492">
        <ele>127.8</ele>
        <time>2024-03-27T16:32:54Z</time>
      </trkpt>
      <trkpt lat="43.48091" lon="6.1849">
        <ele>127.9</ele>
        <time>2024-03-27T16:32:55Z</time>
      </trkpt>
      <trkpt lat="43.4809" lon="6.18489">
        <ele>127.9</ele>
        <time>2024-03-27T16:32:56Z</time>
      </trkpt>
      <trkpt lat="43.48089" lon="6.18488">
        <ele>127.9</ele>
        <time>2024-03-27T16:32:57Z</time>
      </trkpt>
      <trkpt lat="43.48088" lon="6.18487">
        <ele>127.9</ele>
        <time>2024-03-27T16:32:58Z</time>
      </trkpt>
      <trkpt lat="43.48087" lon="6.18486">
        <ele>128</ele>
        <time>2024-03-27T16:32:59Z</time>
      </trkpt>
      <trkpt lat="43.48086" lon="6.18485">
        <ele>128</ele>
        <time>2024-03-27T16:33:00Z</time>
      </trkpt>
      <trkpt lat="43.48085" lon="6.18484">
        <ele>128</ele>
        <time>2024-03-27T16:33:01Z</time>
      </trkpt>
      <trkpt lat="43.48084" lon="6.18483">
        <ele>128</ele>
        <time>2024-03-27T16:33:02Z</time>
      </trkpt>
      <trkpt lat="43.48083" lon="6.18483">
        <ele>128</ele>
        <time>2024-03-27T16:33:03Z</time>
      </trkpt>
      <trkpt lat="43.48082" lon="6.18482">
        <ele>128</ele>
        <time>2024-03-27T16:33:04Z</time>
      </trkpt>
      <trkpt lat="43.48082" lon="6.1848">
        <ele>127.8</ele>
        <time>2024-03-27T16:33:05Z</time>
      </trkpt>
      <trkpt lat="43.48081" lon="6.18479">
        <ele>127.7</ele>
        <time>2024-03-27T16:33:06Z</time>
      </trkpt>
      <trkpt lat="43.4808" lon="6.18478">
        <ele>127.7</ele>
        <time>2024-03-27T16:33:07Z</time>
      </trkpt>
      <trkpt lat="43.48079" lon="6.18477">
        <ele>127.7</ele>
        <time>2024-03-27T16:33:08Z</time>
      </trkpt>
      <trkpt lat="43.48078" lon="6.18476">
        <ele>127.6</ele>
        <time>2024-03-27T16:33:09Z</time>
      </trkpt>
      <trkpt lat="43.48077" lon="6.18475">
        <ele>127.6</ele>
        <time>2024-03-27T16:33:10Z</time>
      </trkpt>
      <trkpt lat="43.48076" lon="6.18475">
        <ele>127.6</ele>
        <time>2024-03-27T16:33:11Z</time>
      </trkpt>
      <trkpt lat="43.48075" lon="6.18474">
        <ele>127.6</ele>
        <time>2024-03-27T16:33:12Z</time>
      </trkpt>
      <trkpt lat="43.48074" lon="6.18473">
        <ele>127.5</ele>
        <time>2024-03-27T16:33:13Z</time>
      </trkpt>
      <trkpt lat="43.48073" lon="6.18472">
        <ele>127.5</ele>
        <time>2024-03-27T16:33:14Z</time>
      </trkpt>
      <trkpt lat="43.48072" lon="6.18472">
        <ele>127.4</ele>
        <time>2024-03-27T16:33:15Z</time>
      </trkpt>
      <trkpt lat="43.48071" lon="6.1847">
        <ele>127.4</ele>
        <time>2024-03-27T16:33:16Z</time>
      </trkpt>
      <trkpt lat="43.4807" lon="6.18469">
        <ele>127.4</ele>
        <time>2024-03-27T16:33:17Z</time>
      </trkpt>
      <trkpt lat="43.48069" lon="6.18468">
        <ele>127.3</ele>
        <time>2024-03-27T16:33:18Z</time>
      </trkpt>
      <trkpt lat="43.48068" lon="6.18467">
        <ele>127.2</ele>
        <time>2024-03-27T16:33:19Z</time>
      </trkpt>
      <trkpt lat="43.48068" lon="6.18466">
        <ele>127.2</ele>
        <time>2024-03-27T16:33:20Z</time>
      </trkpt>
      <trkpt lat="43.48067" lon="6.18465">
        <ele>127.1</ele>
        <time>2024-03-27T16:33:21Z</time>
      </trkpt>
      <trkpt lat="43.48066" lon="6.18464">
        <ele>127.1</ele>
        <time>2024-03-27T16:33:22Z</time>
      </trkpt>
      <trkpt lat="43.48064" lon="6.18464">
        <ele>127.1</ele>
        <time>2024-03-27T16:33:23Z</time>
      </trkpt>
      <trkpt lat="43.48063" lon="6.18463">
        <ele>127.1</ele>
        <time>2024-03-27T16:33:24Z</time>
      </trkpt>
      <trkpt lat="43.48062" lon="6.18462">
        <ele>127.1</ele>
        <time>2024-03-27T16:33:25Z</time>
      </trkpt>
      <trkpt lat="43.48061" lon="6.18461">
        <ele>127.1</ele>
        <time>2024-03-27T16:33:26Z</time>
      </trkpt>
      <trkpt lat="43.4806" lon="6.1846">
        <ele>127</ele>
        <time>2024-03-27T16:33:27Z</time>
      </trkpt>
      <trkpt lat="43.48059" lon="6.18459">
        <ele>127</ele>
        <time>2024-03-27T16:33:28Z</time>
      </trkpt>
      <trkpt lat="43.48058" lon="6.18458">
        <ele>127</ele>
        <time>2024-03-27T16:33:29Z</time>
      </trkpt>
      <trkpt lat="43.48057" lon="6.18458">
        <ele>127</ele>
        <time>2024-03-27T16:33:30Z</time>
      </trkpt>
      <trkpt lat="43.48055" lon="6.18456">
        <ele>127.1</ele>
        <time>2024-03-27T16:33:31Z</time>
      </trkpt>
      <trkpt lat="43.48054" lon="6.18455">
        <ele>127.1</ele>
        <time>2024-03-27T16:33:32Z</time>
      </trkpt>
      <trkpt lat="43.48053" lon="6.18454">
        <ele>127.1</ele>
        <time>2024-03-27T16:33:33Z</time>
      </trkpt>
      <trkpt lat="43.48052" lon="6.18453">
        <ele>127.2</ele>
        <time>2024-03-27T16:33:34Z</time>
      </trkpt>
      <trkpt lat="43.48051" lon="6.18452">
        <ele>127.2</ele>
        <time>2024-03-27T16:33:35Z</time>
      </trkpt>
      <trkpt lat="43.4805" lon="6.18451">
        <ele>127.1</ele>
        <time>2024-03-27T16:33:36Z</time>
      </trkpt>
      <trkpt lat="43.48049" lon="6.18451">
        <ele>127.2</ele>
        <time>2024-03-27T16:33:37Z</time>
      </trkpt>
      <trkpt lat="43.48048" lon="6.1845">
        <ele>127.2</ele>
        <time>2024-03-27T16:33:38Z</time>
      </trkpt>
      <trkpt lat="43.48047" lon="6.18449">
        <ele>127.2</ele>
        <time>2024-03-27T16:33:39Z</time>
      </trkpt>
      <trkpt lat="43.48046" lon="6.18448">
        <ele>127.1</ele>
        <time>2024-03-27T16:33:40Z</time>
      </trkpt>
      <trkpt lat="43.48045" lon="6.18447">
        <ele>127.1</ele>
        <time>2024-03-27T16:33:41Z</time>
      </trkpt>
      <trkpt lat="43.48044" lon="6.18446">
        <ele>127</ele>
        <time>2024-03-27T16:33:42Z</time>
      </trkpt>
      <trkpt lat="43.48043" lon="6.18446">
        <ele>127</ele>
        <time>2024-03-27T16:33:43Z</time>
      </trkpt>
      <trkpt lat="43.48041" lon="6.18445">
        <ele>127</ele>
        <time>2024-03-27T16:33:44Z</time>
      </trkpt>
      <trkpt lat="43.4804" lon="6.18444">
        <ele>127</ele>
        <time>2024-03-27T16:33:45Z</time>
      </trkpt>
      <trkpt lat="43.48039" lon="6.18443">
        <ele>126.8</ele>
        <time>2024-03-27T16:33:46Z</time>
      </trkpt>
      <trkpt lat="43.48038" lon="6.18442">
        <ele>126.7</ele>
        <time>2024-03-27T16:33:47Z</time>
      </trkpt>
      <trkpt lat="43.48038" lon="6.18441">
        <ele>126.6</ele>
        <time>2024-03-27T16:33:48Z</time>
      </trkpt>
      <trkpt lat="43.48037" lon="6.1844">
        <ele>126.5</ele>
        <time>2024-03-27T16:33:49Z</time>
      </trkpt>
      <trkpt lat="43.48035" lon="6.18439">
        <ele>126.5</ele>
        <time>2024-03-27T16:33:50Z</time>
      </trkpt>
      <trkpt lat="43.48034" lon="6.18438">
        <ele>126.5</ele>
        <time>2024-03-27T16:33:51Z</time>
      </trkpt>
      <trkpt lat="43.48033" lon="6.18436">
        <ele>126.6</ele>
        <time>2024-03-27T16:33:52Z</time>
      </trkpt>
      <trkpt lat="43.48032" lon="6.18435">
        <ele>126.7</ele>
        <time>2024-03-27T16:33:53Z</time>
      </trkpt>
      <trkpt lat="43.4803" lon="6.18435">
        <ele>126.7</ele>
        <time>2024-03-27T16:33:54Z</time>
      </trkpt>
      <trkpt lat="43.48029" lon="6.18434">
        <ele>126.6</ele>
        <time>2024-03-27T16:33:55Z</time>
      </trkpt>
      <trkpt lat="43.48028" lon="6.18433">
        <ele>126.6</ele>
        <time>2024-03-27T16:33:56Z</time>
      </trkpt>
      <trkpt lat="43.48027" lon="6.18432">
        <ele>126.6</ele>
        <time>2024-03-27T16:33:57Z</time>
      </trkpt>
      <trkpt lat="43.48026" lon="6.18431">
        <ele>126.6</ele>
        <time>2024-03-27T16:33:58Z</time>
      </trkpt>
      <trkpt lat="43.48025" lon="6.1843">
        <ele>126.6</ele>
        <time>2024-03-27T16:33:59Z</time>
      </trkpt>
      <trkpt lat="43.48024" lon="6.1843">
        <ele>126.7</ele>
        <time>2024-03-27T16:34:00Z</time>
      </trkpt>
      <trkpt lat="43.48023" lon="6.18429">
        <ele>126.7</ele>
        <time>2024-03-27T16:34:01Z</time>
      </trkpt>
      <trkpt lat="43.48022" lon="6.18428">
        <ele>126.7</ele>
        <time>2024-03-27T16:34:02Z</time>
      </trkpt>
      <trkpt lat="43.4802" lon="6.18428">
        <ele>126.7</ele>
        <time>2024-03-27T16:34:03Z</time>
      </trkpt>
      <trkpt lat="43.48019" lon="6.18427">
        <ele>126.7</ele>
        <time>2024-03-27T16:34:04Z</time>
      </trkpt>
      <trkpt lat="43.48018" lon="6.18426">
        <ele>126.7</ele>
        <time>2024-03-27T16:34:05Z</time>
      </trkpt>
      <trkpt lat="43.48017" lon="6.18425">
        <ele>126.7</ele>
        <time>2024-03-27T16:34:06Z</time>
      </trkpt>
      <trkpt lat="43.48016" lon="6.18424">
        <ele>126.6</ele>
        <time>2024-03-27T16:34:07Z</time>
      </trkpt>
      <trkpt lat="43.48015" lon="6.18423">
        <ele>126.6</ele>
        <time>2024-03-27T16:34:08Z</time>
      </trkpt>
      <trkpt lat="43.48014" lon="6.18422">
        <ele>126.6</ele>
        <time>2024-03-27T16:34:09Z</time>
      </trkpt>
      <trkpt lat="43.48012" lon="6.18421">
        <ele>126.6</ele>
        <time>2024-03-27T16:34:10Z</time>
      </trkpt>
      <trkpt lat="43.48011" lon="6.1842">
        <ele>126.6</ele>
        <time>2024-03-27T16:34:11Z</time>
      </trkpt>
      <trkpt lat="43.4801" lon="6.18419">
        <ele>126.6</ele>
        <time>2024-03-27T16:34:12Z</time>
      </trkpt>
      <trkpt lat="43.48009" lon="6.18419">
        <ele>126.5</ele>
        <time>2024-03-27T16:34:13Z</time>
      </trkpt>
      <trkpt lat="43.48008" lon="6.18418">
        <ele>126.4</ele>
        <time>2024-03-27T16:34:14Z</time>
      </trkpt>
      <trkpt lat="43.48007" lon="6.18417">
        <ele>126.4</ele>
        <time>2024-03-27T16:34:15Z</time>
      </trkpt>
      <trkpt lat="43.48006" lon="6.18416">
        <ele>126.5</ele>
        <time>2024-03-27T16:34:16Z</time>
      </trkpt>
      <trkpt lat="43.48005" lon="6.18415">
        <ele>126.6</ele>
        <time>2024-03-27T16:34:17Z</time>
      </trkpt>
      <trkpt lat="43.48004" lon="6.18413">
        <ele>126.4</ele>
        <time>2024-03-27T16:34:18Z</time>
      </trkpt>
      <trkpt lat="43.48003" lon="6.18412">
        <ele>126.4</ele>
        <time>2024-03-27T16:34:19Z</time>
      </trkpt>
      <trkpt lat="43.48001" lon="6.18412">
        <ele>126.3</ele>
        <time>2024-03-27T16:34:20Z</time>
      </trkpt>
      <trkpt lat="43.48" lon="6.18411">
        <ele>126.3</ele>
        <time>2024-03-27T16:34:21Z</time>
      </trkpt>
      <trkpt lat="43.47999" lon="6.1841">
        <ele>126.3</ele>
        <time>2024-03-27T16:34:22Z</time>
      </trkpt>
      <trkpt lat="43.47998" lon="6.1841">
        <ele>126.3</ele>
        <time>2024-03-27T16:34:23Z</time>
      </trkpt>
      <trkpt lat="43.47997" lon="6.18408">
        <ele>126.5</ele>
        <time>2024-03-27T16:34:24Z</time>
      </trkpt>
      <trkpt lat="43.47996" lon="6.18407">
        <ele>126.5</ele>
        <time>2024-03-27T16:34:25Z</time>
      </trkpt>
      <trkpt lat="43.47995" lon="6.18406">
        <ele>126.5</ele>
        <time>2024-03-27T16:34:26Z</time>
      </trkpt>
      <trkpt lat="43.47994" lon="6.18405">
        <ele>126.5</ele>
        <time>2024-03-27T16:34:27Z</time>
      </trkpt>
      <trkpt lat="43.47992" lon="6.18404">
        <ele>126.4</ele>
        <time>2024-03-27T16:34:28Z</time>
      </trkpt>
      <trkpt lat="43.47991" lon="6.18404">
        <ele>126.5</ele>
        <time>2024-03-27T16:34:29Z</time>
      </trkpt>
      <trkpt lat="43.4799" lon="6.18403">
        <ele>126.4</ele>
        <time>2024-03-27T16:34:30Z</time>
      </trkpt>
      <trkpt lat="43.47989" lon="6.18402">
        <ele>126.4</ele>
        <time>2024-03-27T16:34:31Z</time>
      </trkpt>
      <trkpt lat="43.47988" lon="6.18401">
        <ele>126.4</ele>
        <time>2024-03-27T16:34:32Z</time>
      </trkpt>
      <trkpt lat="43.47987" lon="6.184">
        <ele>126.4</ele>
        <time>2024-03-27T16:34:33Z</time>
      </trkpt>
      <trkpt lat="43.47986" lon="6.18399">
        <ele>126.3</ele>
        <time>2024-03-27T16:34:34Z</time>
      </trkpt>
      <trkpt lat="43.47986" lon="6.18398">
        <ele>126.3</ele>
        <time>2024-03-27T16:34:35Z</time>
      </trkpt>
      <trkpt lat="43.47985" lon="6.18397">
        <ele>126.3</ele>
        <time>2024-03-27T16:34:36Z</time>
      </trkpt>
      <trkpt lat="43.47984" lon="6.18395">
        <ele>126.4</ele>
        <time>2024-03-27T16:34:37Z</time>
      </trkpt>
      <trkpt lat="43.47983" lon="6.18394">
        <ele>126.2</ele>
        <time>2024-03-27T16:34:38Z</time>
      </trkpt>
      <trkpt lat="43.47982" lon="6.18393">
        <ele>126.2</ele>
        <time>2024-03-27T16:34:39Z</time>
      </trkpt>
      <trkpt lat="43.47981" lon="6.18392">
        <ele>126.1</ele>
        <time>2024-03-27T16:34:40Z</time>
      </trkpt>
      <trkpt lat="43.4798" lon="6.18391">
        <ele>126.1</ele>
        <time>2024-03-27T16:34:41Z</time>
      </trkpt>
      <trkpt lat="43.47979" lon="6.1839">
        <ele>125.9</ele>
        <time>2024-03-27T16:34:42Z</time>
      </trkpt>
      <trkpt lat="43.47978" lon="6.18389">
        <ele>125.8</ele>
        <time>2024-03-27T16:34:43Z</time>
      </trkpt>
      <trkpt lat="43.47977" lon="6.18388">
        <ele>125.7</ele>
        <time>2024-03-27T16:34:44Z</time>
      </trkpt>
      <trkpt lat="43.47976" lon="6.18387">
        <ele>125.7</ele>
        <time>2024-03-27T16:34:45Z</time>
      </trkpt>
      <trkpt lat="43.47975" lon="6.18386">
        <ele>125.6</ele>
        <time>2024-03-27T16:34:46Z</time>
      </trkpt>
      <trkpt lat="43.47975" lon="6.18385">
        <ele>125.7</ele>
        <time>2024-03-27T16:34:47Z</time>
      </trkpt>
      <trkpt lat="43.47975" lon="6.18383">
        <ele>125.7</ele>
        <time>2024-03-27T16:34:48Z</time>
      </trkpt>
      <trkpt lat="43.47974" lon="6.18382">
        <ele>125.7</ele>
        <time>2024-03-27T16:34:49Z</time>
      </trkpt>
      <trkpt lat="43.47973" lon="6.18381">
        <ele>125.6</ele>
        <time>2024-03-27T16:34:50Z</time>
      </trkpt>
      <trkpt lat="43.47972" lon="6.1838">
        <ele>125.6</ele>
        <time>2024-03-27T16:34:51Z</time>
      </trkpt>
      <trkpt lat="43.4797" lon="6.18378">
        <ele>125.6</ele>
        <time>2024-03-27T16:34:52Z</time>
      </trkpt>
      <trkpt lat="43.47969" lon="6.18377">
        <ele>125.7</ele>
        <time>2024-03-27T16:34:53Z</time>
      </trkpt>
      <trkpt lat="43.47969" lon="6.18377">
        <ele>125.5</ele>
        <time>2024-03-27T16:34:54Z</time>
      </trkpt>
      <trkpt lat="43.47968" lon="6.18376">
        <ele>125.5</ele>
        <time>2024-03-27T16:34:55Z</time>
      </trkpt>
      <trkpt lat="43.47967" lon="6.18374">
        <ele>125.4</ele>
        <time>2024-03-27T16:34:56Z</time>
      </trkpt>
      <trkpt lat="43.47967" lon="6.18373">
        <ele>125.5</ele>
        <time>2024-03-27T16:34:57Z</time>
      </trkpt>
      <trkpt lat="43.47967" lon="6.18371">
        <ele>125.5</ele>
        <time>2024-03-27T16:34:58Z</time>
      </trkpt>
      <trkpt lat="43.47966" lon="6.1837">
        <ele>125.5</ele>
        <time>2024-03-27T16:34:59Z</time>
      </trkpt>
      <trkpt lat="43.47966" lon="6.18368">
        <ele>125.6</ele>
        <time>2024-03-27T16:35:00Z</time>
      </trkpt>
      <trkpt lat="43.47966" lon="6.18366">
        <ele>125.6</ele>
        <time>2024-03-27T16:35:01Z</time>
      </trkpt>
      <trkpt lat="43.47966" lon="6.18365">
        <ele>125.7</ele>
        <time>2024-03-27T16:35:02Z</time>
      </trkpt>
      <trkpt lat="43.47966" lon="6.18363">
        <ele>125.7</ele>
        <time>2024-03-27T16:35:03Z</time>
      </trkpt>
      <trkpt lat="43.47965" lon="6.18362">
        <ele>125.7</ele>
        <time>2024-03-27T16:35:04Z</time>
      </trkpt>
      <trkpt lat="43.47965" lon="6.1836">
        <ele>125.7</ele>
        <time>2024-03-27T16:35:05Z</time>
      </trkpt>
      <trkpt lat="43.47965" lon="6.18359">
        <ele>125.6</ele>
        <time>2024-03-27T16:35:06Z</time>
      </trkpt>
      <trkpt lat="43.47964" lon="6.18358">
        <ele>125.6</ele>
        <time>2024-03-27T16:35:07Z</time>
      </trkpt>
      <trkpt lat="43.47963" lon="6.18357">
        <ele>125.6</ele>
        <time>2024-03-27T16:35:08Z</time>
      </trkpt>
      <trkpt lat="43.47963" lon="6.18356">
        <ele>125.5</ele>
        <time>2024-03-27T16:35:09Z</time>
      </trkpt>
      <trkpt lat="43.47963" lon="6.18354">
        <ele>125.5</ele>
        <time>2024-03-27T16:35:10Z</time>
      </trkpt>
      <trkpt lat="43.47963" lon="6.18352">
        <ele>125.5</ele>
        <time>2024-03-27T16:35:11Z</time>
      </trkpt>
      <trkpt lat="43.47962" lon="6.18351">
        <ele>125.5</ele>
        <time>2024-03-27T16:35:12Z</time>
      </trkpt>
      <trkpt lat="43.47961" lon="6.1835">
        <ele>125.5</ele>
        <time>2024-03-27T16:35:13Z</time>
      </trkpt>
      <trkpt lat="43.4796" lon="6.18348">
        <ele>125.5</ele>
        <time>2024-03-27T16:35:14Z</time>
      </trkpt>
      <trkpt lat="43.4796" lon="6.18346">
        <ele>125.4</ele>
        <time>2024-03-27T16:35:15Z</time>
      </trkpt>
      <trkpt lat="43.47959" lon="6.18345">
        <ele>125.4</ele>
        <time>2024-03-27T16:35:16Z</time>
      </trkpt>
      <trkpt lat="43.47958" lon="6.18345">
        <ele>125.4</ele>
        <time>2024-03-27T16:35:17Z</time>
      </trkpt>
      <trkpt lat="43.47957" lon="6.18345">
        <ele>125.4</ele>
        <time>2024-03-27T16:35:18Z</time>
      </trkpt>
      <trkpt lat="43.47956" lon="6.18345">
        <ele>125.4</ele>
        <time>2024-03-27T16:35:19Z</time>
      </trkpt>
      <trkpt lat="43.47956" lon="6.18345">
        <ele>125.4</ele>
        <time>2024-03-27T16:35:20Z</time>
      </trkpt>
      <trkpt lat="43.47956" lon="6.18345">
        <ele>125.4</ele>
        <time>2024-03-27T16:35:21Z</time>
      </trkpt>
      <trkpt lat="43.47956" lon="6.18345">
        <ele>125.4</ele>
        <time>2024-03-27T16:35:22Z</time>
      </trkpt>
      <trkpt lat="43.47955" lon="6.18345">
        <ele>125.4</ele>
        <time>2024-03-27T16:35:23Z</time>
      </trkpt>
      <trkpt lat="43.47955" lon="6.18345">
        <ele>125.4</ele>
        <time>2024-03-27T16:35:24Z</time>
      </trkpt>
      <trkpt lat="43.47955" lon="6.18344">
        <ele>125.4</ele>
        <time>2024-03-27T16:35:25Z</time>
      </trkpt>
      <trkpt lat="43.47955" lon="6.18344">
        <ele>125.4</ele>
        <time>2024-03-27T16:35:26Z</time>
      </trkpt>
      <trkpt lat="43.47955" lon="6.18343">
        <ele>125.5</ele>
        <time>2024-03-27T16:35:27Z</time>
      </trkpt>
      <trkpt lat="43.47955" lon="6.18343">
        <ele>125.5</ele>
        <time>2024-03-27T16:35:28Z</time>
      </trkpt>
      <trkpt lat="43.47955" lon="6.18342">
        <ele>125.6</ele>
        <time>2024-03-27T16:35:29Z</time>
      </trkpt>
      <trkpt lat="43.47954" lon="6.18342">
        <ele>125.7</ele>
        <time>2024-03-27T16:35:30Z</time>
      </trkpt>
      <trkpt lat="43.47954" lon="6.18342">
        <ele>125.6</ele>
        <time>2024-03-27T16:35:31Z</time>
      </trkpt>
      <trkpt lat="43.47954" lon="6.18342">
        <ele>125.6</ele>
        <time>2024-03-27T16:35:32Z</time>
      </trkpt>
      <trkpt lat="43.47954" lon="6.18342">
        <ele>125.6</ele>
        <time>2024-03-27T16:35:33Z</time>
      </trkpt>
      <trkpt lat="43.47953" lon="6.18342">
        <ele>125.6</ele>
        <time>2024-03-27T16:35:34Z</time>
      </trkpt>
      <trkpt lat="43.47953" lon="6.18342">
        <ele>125.5</ele>
        <time>2024-03-27T16:35:35Z</time>
      </trkpt>
      <trkpt lat="43.47953" lon="6.18342">
        <ele>125.5</ele>
        <time>2024-03-27T16:35:36Z</time>
      </trkpt>
      <trkpt lat="43.47953" lon="6.18342">
        <ele>125.4</ele>
        <time>2024-03-27T16:35:37Z</time>
      </trkpt>
      <trkpt lat="43.47953" lon="6.18342">
        <ele>125.4</ele>
        <time>2024-03-27T16:35:38Z</time>
      </trkpt>
      <trkpt lat="43.47953" lon="6.18342">
        <ele>125.4</ele>
        <time>2024-03-27T16:35:39Z</time>
      </trkpt>
      <trkpt lat="43.47953" lon="6.18342">
        <ele>125.4</ele>
        <time>2024-03-27T16:35:40Z</time>
      </trkpt>
      <trkpt lat="43.47953" lon="6.18342">
        <ele>125.4</ele>
        <time>2024-03-27T16:35:41Z</time>
      </trkpt>
      <trkpt lat="43.47953" lon="6.18342">
        <ele>125.4</ele>
        <time>2024-03-27T16:35:42Z</time>
      </trkpt>
      <trkpt lat="43.47953" lon="6.18342">
        <ele>125.4</ele>
        <time>2024-03-27T16:35:43Z</time>
      </trkpt>
      <trkpt lat="43.47953" lon="6.18342">
        <ele>125.5</ele>
        <time>2024-03-27T16:35:44Z</time>
      </trkpt>
      <trkpt lat="43.47952" lon="6.18342">
        <ele>125.5</ele>
        <time>2024-03-27T16:35:45Z</time>
      </trkpt>
      <trkpt lat="43.47952" lon="6.18342">
        <ele>125.5</ele>
        <time>2024-03-27T16:35:46Z</time>
      </trkpt>
      <trkpt lat="43.47951" lon="6.18342">
        <ele>125.4</ele>
        <time>2024-03-27T16:35:47Z</time>
      </trkpt>
      <trkpt lat="43.47951" lon="6.18343">
        <ele>125.3</ele>
        <time>2024-03-27T16:35:48Z</time>
      </trkpt>
      <trkpt lat="43.47951" lon="6.18343">
        <ele>125.2</ele>
        <time>2024-03-27T16:35:49Z</time>
      </trkpt>
      <trkpt lat="43.47951" lon="6.18343">
        <ele>125.2</ele>
        <time>2024-03-27T16:35:50Z</time>
      </trkpt>
      <trkpt lat="43.47951" lon="6.18343">
        <ele>125.2</ele>
        <time>2024-03-27T16:35:51Z</time>
      </trkpt>
      <trkpt lat="43.47951" lon="6.18343">
        <ele>125.2</ele>
        <time>2024-03-27T16:35:52Z</time>
      </trkpt>
      <trkpt lat="43.47951" lon="6.18342">
        <ele>125.2</ele>
        <time>2024-03-27T16:35:53Z</time>
      </trkpt>
      <trkpt lat="43.47951" lon="6.18342">
        <ele>125.1</ele>
        <time>2024-03-27T16:35:54Z</time>
      </trkpt>
      <trkpt lat="43.47951" lon="6.18342">
        <ele>125.1</ele>
        <time>2024-03-27T16:35:55Z</time>
      </trkpt>
      <trkpt lat="43.47951" lon="6.18342">
        <ele>125</ele>
        <time>2024-03-27T16:35:56Z</time>
      </trkpt>
      <trkpt lat="43.4795" lon="6.18341">
        <ele>125</ele>
        <time>2024-03-27T16:35:57Z</time>
      </trkpt>
      <trkpt lat="43.4795" lon="6.18341">
        <ele>125.1</ele>
        <time>2024-03-27T16:35:58Z</time>
      </trkpt>
      <trkpt lat="43.4795" lon="6.1834">
        <ele>125.1</ele>
        <time>2024-03-27T16:35:59Z</time>
      </trkpt>
      <trkpt lat="43.47951" lon="6.1834">
        <ele>125.2</ele>
        <time>2024-03-27T16:36:00Z</time>
      </trkpt>
      <trkpt lat="43.47951" lon="6.18341">
        <ele>125.2</ele>
        <time>2024-03-27T16:36:01Z</time>
      </trkpt>
      <trkpt lat="43.47952" lon="6.18341">
        <ele>125.2</ele>
        <time>2024-03-27T16:36:02Z</time>
      </trkpt>
      <trkpt lat="43.47952" lon="6.18341">
        <ele>125.3</ele>
        <time>2024-03-27T16:36:03Z</time>
      </trkpt>
      <trkpt lat="43.47952" lon="6.18341">
        <ele>125.2</ele>
        <time>2024-03-27T16:36:04Z</time>
      </trkpt>
      <trkpt lat="43.47953" lon="6.18341">
        <ele>125.1</ele>
        <time>2024-03-27T16:36:05Z</time>
      </trkpt>
      <trkpt lat="43.47953" lon="6.18341">
        <ele>125.1</ele>
        <time>2024-03-27T16:36:06Z</time>
      </trkpt>
      <trkpt lat="43.47953" lon="6.18341">
        <ele>125.1</ele>
        <time>2024-03-27T16:36:07Z</time>
      </trkpt>
      <trkpt lat="43.47953" lon="6.18341">
        <ele>125.2</ele>
        <time>2024-03-27T16:36:08Z</time>
      </trkpt>
      <trkpt lat="43.47953" lon="6.18341">
        <ele>125.1</ele>
        <time>2024-03-27T16:36:09Z</time>
      </trkpt>
      <trkpt lat="43.47953" lon="6.18341">
        <ele>125.1</ele>
        <time>2024-03-27T16:36:10Z</time>
      </trkpt>
      <trkpt lat="43.47953" lon="6.18341">
        <ele>125.2</ele>
        <time>2024-03-27T16:36:11Z</time>
      </trkpt>
      <trkpt lat="43.47953" lon="6.18341">
        <ele>125.3</ele>
        <time>2024-03-27T16:36:12Z</time>
      </trkpt>
      <trkpt lat="43.47952" lon="6.18341">
        <ele>125.4</ele>
        <time>2024-03-27T16:36:13Z</time>
      </trkpt>
      <trkpt lat="43.47952" lon="6.18341">
        <ele>125.6</ele>
        <time>2024-03-27T16:36:14Z</time>
      </trkpt>
      <trkpt lat="43.47952" lon="6.18341">
        <ele>125.6</ele>
        <time>2024-03-27T16:36:15Z</time>
      </trkpt>
      <trkpt lat="43.47952" lon="6.1834">
        <ele>125.6</ele>
        <time>2024-03-27T16:36:16Z</time>
      </trkpt>
      <trkpt lat="43.47952" lon="6.1834">
        <ele>125.6</ele>
        <time>2024-03-27T16:36:17Z</time>
      </trkpt>
      <trkpt lat="43.47952" lon="6.1834">
        <ele>125.5</ele>
        <time>2024-03-27T16:36:18Z</time>
      </trkpt>
      <trkpt lat="43.47951" lon="6.1834">
        <ele>125.5</ele>
        <time>2024-03-27T16:36:19Z</time>
      </trkpt>
      <trkpt lat="43.47951" lon="6.1834">
        <ele>125.5</ele>
        <time>2024-03-27T16:36:20Z</time>
      </trkpt>
      <trkpt lat="43.47951" lon="6.1834">
        <ele>125.4</ele>
        <time>2024-03-27T16:36:21Z</time>
      </trkpt>
      <trkpt lat="43.47952" lon="6.1834">
        <ele>125.4</ele>
        <time>2024-03-27T16:36:22Z</time>
      </trkpt>
      <trkpt lat="43.47952" lon="6.18339">
        <ele>125.4</ele>
        <time>2024-03-27T16:36:23Z</time>
      </trkpt>
      <trkpt lat="43.47951" lon="6.18338">
        <ele>125.3</ele>
        <time>2024-03-27T16:36:24Z</time>
      </trkpt>
      <trkpt lat="43.47951" lon="6.18338">
        <ele>125.3</ele>
        <time>2024-03-27T16:36:25Z</time>
      </trkpt>
      <trkpt lat="43.4795" lon="6.18337">
        <ele>125.3</ele>
        <time>2024-03-27T16:36:26Z</time>
      </trkpt>
      <trkpt lat="43.4795" lon="6.18337">
        <ele>125.3</ele>
        <time>2024-03-27T16:36:27Z</time>
      </trkpt>
      <trkpt lat="43.47949" lon="6.18337">
        <ele>125.3</ele>
        <time>2024-03-27T16:36:28Z</time>
      </trkpt>
      <trkpt lat="43.47949" lon="6.18337">
        <ele>125.3</ele>
        <time>2024-03-27T16:36:29Z</time>
      </trkpt>
      <trkpt lat="43.47949" lon="6.18337">
        <ele>125.3</ele>
        <time>2024-03-27T16:36:30Z</time>
      </trkpt>
      <trkpt lat="43.47949" lon="6.18337">
        <ele>125.3</ele>
        <time>2024-03-27T16:36:31Z</time>
      </trkpt>
      <trkpt lat="43.47948" lon="6.18337">
        <ele>125.3</ele>
        <time>2024-03-27T16:36:32Z</time>
      </trkpt>
      <trkpt lat="43.47948" lon="6.18337">
        <ele>125.2</ele>
        <time>2024-03-27T16:36:33Z</time>
      </trkpt>
      <trkpt lat="43.47947" lon="6.18338">
        <ele>125.2</ele>
        <time>2024-03-27T16:36:34Z</time>
      </trkpt>
      <trkpt lat="43.47947" lon="6.18338">
        <ele>125.2</ele>
        <time>2024-03-27T16:36:35Z</time>
      </trkpt>
      <trkpt lat="43.47946" lon="6.18338">
        <ele>125.1</ele>
        <time>2024-03-27T16:36:36Z</time>
      </trkpt>
      <trkpt lat="43.47945" lon="6.18339">
        <ele>125.1</ele>
        <time>2024-03-27T16:36:37Z</time>
      </trkpt>
      <trkpt lat="43.47944" lon="6.18339">
        <ele>125.2</ele>
        <time>2024-03-27T16:36:38Z</time>
      </trkpt>
      <trkpt lat="43.47943" lon="6.1834">
        <ele>125.3</ele>
        <time>2024-03-27T16:36:39Z</time>
      </trkpt>
      <trkpt lat="43.47942" lon="6.1834">
        <ele>125.4</ele>
        <time>2024-03-27T16:36:40Z</time>
      </trkpt>
      <trkpt lat="43.47941" lon="6.18341">
        <ele>125.4</ele>
        <time>2024-03-27T16:36:41Z</time>
      </trkpt>
      <trkpt lat="43.4794" lon="6.18341">
        <ele>125.3</ele>
        <time>2024-03-27T16:36:42Z</time>
      </trkpt>
      <trkpt lat="43.47939" lon="6.18342">
        <ele>125.3</ele>
        <time>2024-03-27T16:36:43Z</time>
      </trkpt>
      <trkpt lat="43.47938" lon="6.18343">
        <ele>125.3</ele>
        <time>2024-03-27T16:36:44Z</time>
      </trkpt>
      <trkpt lat="43.47937" lon="6.18344">
        <ele>125.2</ele>
        <time>2024-03-27T16:36:45Z</time>
      </trkpt>
      <trkpt lat="43.47936" lon="6.18344">
        <ele>125.1</ele>
        <time>2024-03-27T16:36:46Z</time>
      </trkpt>
      <trkpt lat="43.47936" lon="6.18345">
        <ele>125</ele>
        <time>2024-03-27T16:36:47Z</time>
      </trkpt>
      <trkpt lat="43.47935" lon="6.18345">
        <ele>125</ele>
        <time>2024-03-27T16:36:48Z</time>
      </trkpt>
      <trkpt lat="43.47934" lon="6.18346">
        <ele>125</ele>
        <time>2024-03-27T16:36:49Z</time>
      </trkpt>
      <trkpt lat="43.47933" lon="6.18347">
        <ele>124.9</ele>
        <time>2024-03-27T16:36:50Z</time>
      </trkpt>
      <trkpt lat="43.47932" lon="6.18347">
        <ele>124.8</ele>
        <time>2024-03-27T16:36:51Z</time>
      </trkpt>
      <trkpt lat="43.47931" lon="6.18348">
        <ele>124.7</ele>
        <time>2024-03-27T16:36:52Z</time>
      </trkpt>
      <trkpt lat="43.4793" lon="6.18349">
        <ele>124.7</ele>
        <time>2024-03-27T16:36:53Z</time>
      </trkpt>
      <trkpt lat="43.47929" lon="6.1835">
        <ele>124.6</ele>
        <time>2024-03-27T16:36:54Z</time>
      </trkpt>
      <trkpt lat="43.47927" lon="6.1835">
        <ele>124.7</ele>
        <time>2024-03-27T16:36:55Z</time>
      </trkpt>
      <trkpt lat="43.47927" lon="6.18351">
        <ele>124.7</ele>
        <time>2024-03-27T16:36:56Z</time>
      </trkpt>
      <trkpt lat="43.47926" lon="6.18351">
        <ele>124.6</ele>
        <time>2024-03-27T16:36:57Z</time>
      </trkpt>
      <trkpt lat="43.47925" lon="6.18352">
        <ele>124.7</ele>
        <time>2024-03-27T16:36:58Z</time>
      </trkpt>
      <trkpt lat="43.47923" lon="6.18352">
        <ele>124.7</ele>
        <time>2024-03-27T16:36:59Z</time>
      </trkpt>
      <trkpt lat="43.47922" lon="6.18352">
        <ele>124.7</ele>
        <time>2024-03-27T16:37:00Z</time>
      </trkpt>
      <trkpt lat="43.47921" lon="6.18352">
        <ele>124.6</ele>
        <time>2024-03-27T16:37:01Z</time>
      </trkpt>
      <trkpt lat="43.47921" lon="6.18352">
        <ele>124.6</ele>
        <time>2024-03-27T16:37:02Z</time>
      </trkpt>
      <trkpt lat="43.4792" lon="6.18351">
        <ele>124.6</ele>
        <time>2024-03-27T16:37:03Z</time>
      </trkpt>
      <trkpt lat="43.47919" lon="6.18351">
        <ele>124.6</ele>
        <time>2024-03-27T16:37:04Z</time>
      </trkpt>
      <trkpt lat="43.47919" lon="6.18351">
        <ele>124.6</ele>
        <time>2024-03-27T16:37:05Z</time>
      </trkpt>
      <trkpt lat="43.47918" lon="6.1835">
        <ele>124.8</ele>
        <time>2024-03-27T16:37:06Z</time>
      </trkpt>
      <trkpt lat="43.47917" lon="6.1835">
        <ele>124.7</ele>
        <time>2024-03-27T16:37:07Z</time>
      </trkpt>
      <trkpt lat="43.47916" lon="6.18349">
        <ele>124.8</ele>
        <time>2024-03-27T16:37:08Z</time>
      </trkpt>
      <trkpt lat="43.47915" lon="6.18348">
        <ele>124.7</ele>
        <time>2024-03-27T16:37:09Z</time>
      </trkpt>
      <trkpt lat="43.47915" lon="6.18347">
        <ele>124.7</ele>
        <time>2024-03-27T16:37:10Z</time>
      </trkpt>
      <trkpt lat="43.47914" lon="6.18346">
        <ele>124.6</ele>
        <time>2024-03-27T16:37:11Z</time>
      </trkpt>
      <trkpt lat="43.47914" lon="6.18344">
        <ele>124.5</ele>
        <time>2024-03-27T16:37:12Z</time>
      </trkpt>
      <trkpt lat="43.47914" lon="6.18343">
        <ele>124.3</ele>
        <time>2024-03-27T16:37:13Z</time>
      </trkpt>
      <trkpt lat="43.47913" lon="6.18342">
        <ele>124.2</ele>
        <time>2024-03-27T16:37:14Z</time>
      </trkpt>
      <trkpt lat="43.47913" lon="6.1834">
        <ele>124.1</ele>
        <time>2024-03-27T16:37:15Z</time>
      </trkpt>
      <trkpt lat="43.47912" lon="6.18339">
        <ele>123.8</ele>
        <time>2024-03-27T16:37:16Z</time>
      </trkpt>
      <trkpt lat="43.47911" lon="6.18338">
        <ele>123.6</ele>
        <time>2024-03-27T16:37:17Z</time>
      </trkpt>
      <trkpt lat="43.47911" lon="6.18338">
        <ele>123.4</ele>
        <time>2024-03-27T16:37:18Z</time>
      </trkpt>
      <trkpt lat="43.4791" lon="6.18337">
        <ele>123.4</ele>
        <time>2024-03-27T16:37:19Z</time>
      </trkpt>
      <trkpt lat="43.4791" lon="6.18335">
        <ele>123.2</ele>
        <time>2024-03-27T16:37:20Z</time>
      </trkpt>
      <trkpt lat="43.47909" lon="6.18334">
        <ele>123.1</ele>
        <time>2024-03-27T16:37:21Z</time>
      </trkpt>
      <trkpt lat="43.47908" lon="6.18333">
        <ele>123</ele>
        <time>2024-03-27T16:37:22Z</time>
      </trkpt>
      <trkpt lat="43.47907" lon="6.18332">
        <ele>122.9</ele>
        <time>2024-03-27T16:37:23Z</time>
      </trkpt>
      <trkpt lat="43.47906" lon="6.18331">
        <ele>122.8</ele>
        <time>2024-03-27T16:37:24Z</time>
      </trkpt>
      <trkpt lat="43.47906" lon="6.18329">
        <ele>122.7</ele>
        <time>2024-03-27T16:37:25Z</time>
      </trkpt>
      <trkpt lat="43.47905" lon="6.18328">
        <ele>122.6</ele>
        <time>2024-03-27T16:37:26Z</time>
      </trkpt>
      <trkpt lat="43.47904" lon="6.18327">
        <ele>122.6</ele>
        <time>2024-03-27T16:37:27Z</time>
      </trkpt>
      <trkpt lat="43.47904" lon="6.18325">
        <ele>122.6</ele>
        <time>2024-03-27T16:37:28Z</time>
      </trkpt>
      <trkpt lat="43.47903" lon="6.18324">
        <ele>122.5</ele>
        <time>2024-03-27T16:37:29Z</time>
      </trkpt>
      <trkpt lat="43.47903" lon="6.18322">
        <ele>122.5</ele>
        <time>2024-03-27T16:37:30Z</time>
      </trkpt>
      <trkpt lat="43.47902" lon="6.18321">
        <ele>122.6</ele>
        <time>2024-03-27T16:37:31Z</time>
      </trkpt>
      <trkpt lat="43.47902" lon="6.1832">
        <ele>122.6</ele>
        <time>2024-03-27T16:37:32Z</time>
      </trkpt>
      <trkpt lat="43.47901" lon="6.18318">
        <ele>122.6</ele>
        <time>2024-03-27T16:37:33Z</time>
      </trkpt>
      <trkpt lat="43.47901" lon="6.18317">
        <ele>122.6</ele>
        <time>2024-03-27T16:37:34Z</time>
      </trkpt>
      <trkpt lat="43.479" lon="6.18315">
        <ele>122.6</ele>
        <time>2024-03-27T16:37:35Z</time>
      </trkpt>
      <trkpt lat="43.479" lon="6.18314">
        <ele>122.5</ele>
        <time>2024-03-27T16:37:36Z</time>
      </trkpt>
      <trkpt lat="43.479" lon="6.18313">
        <ele>122.5</ele>
        <time>2024-03-27T16:37:37Z</time>
      </trkpt>
      <trkpt lat="43.47899" lon="6.18311">
        <ele>122.5</ele>
        <time>2024-03-27T16:37:38Z</time>
      </trkpt>
      <trkpt lat="43.47899" lon="6.1831">
        <ele>122.6</ele>
        <time>2024-03-27T16:37:39Z</time>
      </trkpt>
      <trkpt lat="43.47899" lon="6.18309">
        <ele>122.6</ele>
        <time>2024-03-27T16:37:40Z</time>
      </trkpt>
      <trkpt lat="43.47898" lon="6.18309">
        <ele>122.6</ele>
        <time>2024-03-27T16:37:41Z</time>
      </trkpt>
      <trkpt lat="43.47898" lon="6.18308">
        <ele>122.6</ele>
        <time>2024-03-27T16:37:42Z</time>
      </trkpt>
      <trkpt lat="43.47898" lon="6.18308">
        <ele>122.5</ele>
        <time>2024-03-27T16:37:43Z</time>
      </trkpt>
      <trkpt lat="43.47897" lon="6.18308">
        <ele>122.5</ele>
        <time>2024-03-27T16:37:44Z</time>
      </trkpt>
      <trkpt lat="43.47896" lon="6.18307">
        <ele>122.5</ele>
        <time>2024-03-27T16:37:45Z</time>
      </trkpt>
      <trkpt lat="43.47895" lon="6.18307">
        <ele>122.5</ele>
        <time>2024-03-27T16:37:46Z</time>
      </trkpt>
      <trkpt lat="43.47894" lon="6.18307">
        <ele>122.5</ele>
        <time>2024-03-27T16:37:47Z</time>
      </trkpt>
      <trkpt lat="43.47893" lon="6.18306">
        <ele>122.4</ele>
        <time>2024-03-27T16:37:48Z</time>
      </trkpt>
      <trkpt lat="43.47892" lon="6.18305">
        <ele>122.4</ele>
        <time>2024-03-27T16:37:49Z</time>
      </trkpt>
      <trkpt lat="43.47891" lon="6.18305">
        <ele>122.4</ele>
        <time>2024-03-27T16:37:50Z</time>
      </trkpt>
      <trkpt lat="43.4789" lon="6.18304">
        <ele>122.4</ele>
        <time>2024-03-27T16:37:51Z</time>
      </trkpt>
      <trkpt lat="43.4789" lon="6.18303">
        <ele>122.4</ele>
        <time>2024-03-27T16:37:52Z</time>
      </trkpt>
      <trkpt lat="43.47889" lon="6.18303">
        <ele>122.4</ele>
        <time>2024-03-27T16:37:53Z</time>
      </trkpt>
      <trkpt lat="43.47887" lon="6.18302">
        <ele>122.4</ele>
        <time>2024-03-27T16:37:54Z</time>
      </trkpt>
      <trkpt lat="43.47886" lon="6.18302">
        <ele>122.3</ele>
        <time>2024-03-27T16:37:55Z</time>
      </trkpt>
      <trkpt lat="43.47885" lon="6.18302">
        <ele>122.3</ele>
        <time>2024-03-27T16:37:56Z</time>
      </trkpt>
      <trkpt lat="43.47884" lon="6.18302">
        <ele>122.3</ele>
        <time>2024-03-27T16:37:57Z</time>
      </trkpt>
      <trkpt lat="43.47883" lon="6.18302">
        <ele>122.4</ele>
        <time>2024-03-27T16:37:58Z</time>
      </trkpt>
      <trkpt lat="43.47881" lon="6.18302">
        <ele>122.4</ele>
        <time>2024-03-27T16:37:59Z</time>
      </trkpt>
      <trkpt lat="43.4788" lon="6.18302">
        <ele>122.4</ele>
        <time>2024-03-27T16:38:00Z</time>
      </trkpt>
      <trkpt lat="43.47879" lon="6.18303">
        <ele>122.4</ele>
        <time>2024-03-27T16:38:01Z</time>
      </trkpt>
      <trkpt lat="43.47878" lon="6.18303">
        <ele>122.4</ele>
        <time>2024-03-27T16:38:02Z</time>
      </trkpt>
      <trkpt lat="43.47877" lon="6.18303">
        <ele>122.4</ele>
        <time>2024-03-27T16:38:03Z</time>
      </trkpt>
      <trkpt lat="43.47875" lon="6.18302">
        <ele>122.4</ele>
        <time>2024-03-27T16:38:04Z</time>
      </trkpt>
      <trkpt lat="43.47874" lon="6.18301">
        <ele>122.4</ele>
        <time>2024-03-27T16:38:05Z</time>
      </trkpt>
      <trkpt lat="43.47873" lon="6.18301">
        <ele>122.5</ele>
        <time>2024-03-27T16:38:06Z</time>
      </trkpt>
      <trkpt lat="43.47872" lon="6.18301">
        <ele>122.4</ele>
        <time>2024-03-27T16:38:07Z</time>
      </trkpt>
      <trkpt lat="43.4787" lon="6.18301">
        <ele>122.4</ele>
        <time>2024-03-27T16:38:08Z</time>
      </trkpt>
      <trkpt lat="43.47869" lon="6.18301">
        <ele>122.4</ele>
        <time>2024-03-27T16:38:09Z</time>
      </trkpt>
      <trkpt lat="43.47868" lon="6.18301">
        <ele>122.4</ele>
        <time>2024-03-27T16:38:10Z</time>
      </trkpt>
      <trkpt lat="43.47866" lon="6.18301">
        <ele>122.4</ele>
        <time>2024-03-27T16:38:11Z</time>
      </trkpt>
      <trkpt lat="43.47865" lon="6.18301">
        <ele>122.3</ele>
        <time>2024-03-27T16:38:12Z</time>
      </trkpt>
      <trkpt lat="43.47865" lon="6.183">
        <ele>122.3</ele>
        <time>2024-03-27T16:38:13Z</time>
      </trkpt>
      <trkpt lat="43.47864" lon="6.183">
        <ele>122.3</ele>
        <time>2024-03-27T16:38:14Z</time>
      </trkpt>
      <trkpt lat="43.47863" lon="6.183">
        <ele>122.3</ele>
        <time>2024-03-27T16:38:15Z</time>
      </trkpt>
      <trkpt lat="43.47862" lon="6.183">
        <ele>122.3</ele>
        <time>2024-03-27T16:38:16Z</time>
      </trkpt>
      <trkpt lat="43.47861" lon="6.183">
        <ele>122.3</ele>
        <time>2024-03-27T16:38:17Z</time>
      </trkpt>
      <trkpt lat="43.47859" lon="6.18299">
        <ele>122.2</ele>
        <time>2024-03-27T16:38:18Z</time>
      </trkpt>
      <trkpt lat="43.47858" lon="6.18299">
        <ele>122.2</ele>
        <time>2024-03-27T16:38:19Z</time>
      </trkpt>
      <trkpt lat="43.47857" lon="6.18299">
        <ele>122.2</ele>
        <time>2024-03-27T16:38:20Z</time>
      </trkpt>
      <trkpt lat="43.47856" lon="6.18299">
        <ele>122.1</ele>
        <time>2024-03-27T16:38:21Z</time>
      </trkpt>
      <trkpt lat="43.47855" lon="6.18299">
        <ele>122.1</ele>
        <time>2024-03-27T16:38:22Z</time>
      </trkpt>
      <trkpt lat="43.47854" lon="6.18298">
        <ele>122</ele>
        <time>2024-03-27T16:38:23Z</time>
      </trkpt>
      <trkpt lat="43.47852" lon="6.18298">
        <ele>122</ele>
        <time>2024-03-27T16:38:24Z</time>
      </trkpt>
      <trkpt lat="43.47851" lon="6.18298">
        <ele>122</ele>
        <time>2024-03-27T16:38:25Z</time>
      </trkpt>
      <trkpt lat="43.4785" lon="6.18298">
        <ele>122.1</ele>
        <time>2024-03-27T16:38:26Z</time>
      </trkpt>
      <trkpt lat="43.47848" lon="6.18297">
        <ele>122</ele>
        <time>2024-03-27T16:38:27Z</time>
      </trkpt>
      <trkpt lat="43.47847" lon="6.18298">
        <ele>122</ele>
        <time>2024-03-27T16:38:28Z</time>
      </trkpt>
      <trkpt lat="43.47846" lon="6.18298">
        <ele>122</ele>
        <time>2024-03-27T16:38:29Z</time>
      </trkpt>
      <trkpt lat="43.47845" lon="6.18297">
        <ele>121.9</ele>
        <time>2024-03-27T16:38:30Z</time>
      </trkpt>
      <trkpt lat="43.47844" lon="6.18297">
        <ele>121.9</ele>
        <time>2024-03-27T16:38:31Z</time>
      </trkpt>
      <trkpt lat="43.47842" lon="6.18296">
        <ele>121.8</ele>
        <time>2024-03-27T16:38:32Z</time>
      </trkpt>
      <trkpt lat="43.47842" lon="6.18296">
        <ele>121.8</ele>
        <time>2024-03-27T16:38:33Z</time>
      </trkpt>
      <trkpt lat="43.4784" lon="6.18295">
        <ele>121.8</ele>
        <time>2024-03-27T16:38:34Z</time>
      </trkpt>
      <trkpt lat="43.47839" lon="6.18295">
        <ele>121.7</ele>
        <time>2024-03-27T16:38:35Z</time>
      </trkpt>
      <trkpt lat="43.47838" lon="6.18295">
        <ele>121.7</ele>
        <time>2024-03-27T16:38:36Z</time>
      </trkpt>
      <trkpt lat="43.47837" lon="6.18295">
        <ele>121.6</ele>
        <time>2024-03-27T16:38:37Z</time>
      </trkpt>
      <trkpt lat="43.47837" lon="6.18294">
        <ele>121.6</ele>
        <time>2024-03-27T16:38:38Z</time>
      </trkpt>
      <trkpt lat="43.47836" lon="6.18294">
        <ele>121.6</ele>
        <time>2024-03-27T16:38:39Z</time>
      </trkpt>
      <trkpt lat="43.47834" lon="6.18294">
        <ele>121.6</ele>
        <time>2024-03-27T16:38:40Z</time>
      </trkpt>
      <trkpt lat="43.47834" lon="6.18294">
        <ele>121.6</ele>
        <time>2024-03-27T16:38:41Z</time>
      </trkpt>
      <trkpt lat="43.47833" lon="6.18294">
        <ele>121.7</ele>
        <time>2024-03-27T16:38:42Z</time>
      </trkpt>
      <trkpt lat="43.47831" lon="6.18294">
        <ele>121.6</ele>
        <time>2024-03-27T16:38:43Z</time>
      </trkpt>
      <trkpt lat="43.4783" lon="6.18294">
        <ele>121.6</ele>
        <time>2024-03-27T16:38:44Z</time>
      </trkpt>
      <trkpt lat="43.47829" lon="6.18293">
        <ele>121.6</ele>
        <time>2024-03-27T16:38:45Z</time>
      </trkpt>
      <trkpt lat="43.47828" lon="6.18293">
        <ele>121.5</ele>
        <time>2024-03-27T16:38:46Z</time>
      </trkpt>
      <trkpt lat="43.47827" lon="6.18293">
        <ele>121.5</ele>
        <time>2024-03-27T16:38:47Z</time>
      </trkpt>
      <trkpt lat="43.47826" lon="6.18293">
        <ele>121.5</ele>
        <time>2024-03-27T16:38:48Z</time>
      </trkpt>
      <trkpt lat="43.47825" lon="6.18293">
        <ele>121.5</ele>
        <time>2024-03-27T16:38:49Z</time>
      </trkpt>
      <trkpt lat="43.47824" lon="6.18293">
        <ele>121.5</ele>
        <time>2024-03-27T16:38:50Z</time>
      </trkpt>
      <trkpt lat="43.47823" lon="6.18293">
        <ele>121.5</ele>
        <time>2024-03-27T16:38:51Z</time>
      </trkpt>
      <trkpt lat="43.47821" lon="6.18293">
        <ele>121.4</ele>
        <time>2024-03-27T16:38:52Z</time>
      </trkpt>
      <trkpt lat="43.4782" lon="6.18293">
        <ele>121.5</ele>
        <time>2024-03-27T16:38:53Z</time>
      </trkpt>
      <trkpt lat="43.47819" lon="6.18293">
        <ele>121.5</ele>
        <time>2024-03-27T16:38:54Z</time>
      </trkpt>
      <trkpt lat="43.47818" lon="6.18292">
        <ele>121.5</ele>
        <time>2024-03-27T16:38:55Z</time>
      </trkpt>
      <trkpt lat="43.47817" lon="6.18292">
        <ele>121.5</ele>
        <time>2024-03-27T16:38:56Z</time>
      </trkpt>
      <trkpt lat="43.47816" lon="6.18292">
        <ele>121.5</ele>
        <time>2024-03-27T16:38:57Z</time>
      </trkpt>
      <trkpt lat="43.47816" lon="6.18292">
        <ele>121.5</ele>
        <time>2024-03-27T16:38:58Z</time>
      </trkpt>
      <trkpt lat="43.47815" lon="6.18292">
        <ele>121.5</ele>
        <time>2024-03-27T16:38:59Z</time>
      </trkpt>
      <trkpt lat="43.47815" lon="6.18292">
        <ele>121.5</ele>
        <time>2024-03-27T16:39:00Z</time>
      </trkpt>
      <trkpt lat="43.47815" lon="6.18292">
        <ele>121.5</ele>
        <time>2024-03-27T16:39:01Z</time>
      </trkpt>
      <trkpt lat="43.47815" lon="6.18293">
        <ele>121.6</ele>
        <time>2024-03-27T16:39:02Z</time>
      </trkpt>
      <trkpt lat="43.47815" lon="6.18293">
        <ele>121.6</ele>
        <time>2024-03-27T16:39:03Z</time>
      </trkpt>
      <trkpt lat="43.47815" lon="6.18293">
        <ele>121.6</ele>
        <time>2024-03-27T16:39:04Z</time>
      </trkpt>
      <trkpt lat="43.47815" lon="6.18293">
        <ele>121.6</ele>
        <time>2024-03-27T16:39:05Z</time>
      </trkpt>
      <trkpt lat="43.47815" lon="6.18293">
        <ele>121.6</ele>
        <time>2024-03-27T16:39:06Z</time>
      </trkpt>
      <trkpt lat="43.47814" lon="6.18293">
        <ele>121.6</ele>
        <time>2024-03-27T16:39:07Z</time>
      </trkpt>
      <trkpt lat="43.47814" lon="6.18293">
        <ele>121.5</ele>
        <time>2024-03-27T16:39:08Z</time>
      </trkpt>
      <trkpt lat="43.47814" lon="6.18293">
        <ele>121.5</ele>
        <time>2024-03-27T16:39:09Z</time>
      </trkpt>
      <trkpt lat="43.47814" lon="6.18293">
        <ele>121.5</ele>
        <time>2024-03-27T16:39:10Z</time>
      </trkpt>
      <trkpt lat="43.47813" lon="6.18292">
        <ele>121.5</ele>
        <time>2024-03-27T16:39:11Z</time>
      </trkpt>
      <trkpt lat="43.47812" lon="6.18292">
        <ele>121.6</ele>
        <time>2024-03-27T16:39:12Z</time>
      </trkpt>
      <trkpt lat="43.47811" lon="6.18292">
        <ele>121.6</ele>
        <time>2024-03-27T16:39:13Z</time>
      </trkpt>
      <trkpt lat="43.4781" lon="6.18292">
        <ele>121.6</ele>
        <time>2024-03-27T16:39:14Z</time>
      </trkpt>
      <trkpt lat="43.4781" lon="6.18292">
        <ele>121.6</ele>
        <time>2024-03-27T16:39:15Z</time>
      </trkpt>
      <trkpt lat="43.4781" lon="6.18292">
        <ele>121.6</ele>
        <time>2024-03-27T16:39:16Z</time>
      </trkpt>
      <trkpt lat="43.4781" lon="6.18292">
        <ele>121.6</ele>
        <time>2024-03-27T16:39:17Z</time>
      </trkpt>
      <trkpt lat="43.47809" lon="6.18292">
        <ele>121.6</ele>
        <time>2024-03-27T16:39:18Z</time>
      </trkpt>
      <trkpt lat="43.47809" lon="6.18292">
        <ele>121.6</ele>
        <time>2024-03-27T16:39:19Z</time>
      </trkpt>
      <trkpt lat="43.47808" lon="6.18292">
        <ele>121.6</ele>
        <time>2024-03-27T16:39:20Z</time>
      </trkpt>
      <trkpt lat="43.47807" lon="6.18292">
        <ele>121.6</ele>
        <time>2024-03-27T16:39:21Z</time>
      </trkpt>
      <trkpt lat="43.47806" lon="6.18292">
        <ele>121.6</ele>
        <time>2024-03-27T16:39:22Z</time>
      </trkpt>
      <trkpt lat="43.47805" lon="6.18291">
        <ele>121.6</ele>
        <time>2024-03-27T16:39:23Z</time>
      </trkpt>
      <trkpt lat="43.47804" lon="6.18291">
        <ele>121.6</ele>
        <time>2024-03-27T16:39:24Z</time>
      </trkpt>
      <trkpt lat="43.47803" lon="6.18291">
        <ele>121.6</ele>
        <time>2024-03-27T16:39:25Z</time>
      </trkpt>
      <trkpt lat="43.47802" lon="6.18291">
        <ele>121.6</ele>
        <time>2024-03-27T16:39:26Z</time>
      </trkpt>
      <trkpt lat="43.47801" lon="6.18291">
        <ele>121.6</ele>
        <time>2024-03-27T16:39:27Z</time>
      </trkpt>
      <trkpt lat="43.478" lon="6.18291">
        <ele>121.6</ele>
        <time>2024-03-27T16:39:28Z</time>
      </trkpt>
      <trkpt lat="43.47799" lon="6.18291">
        <ele>121.6</ele>
        <time>2024-03-27T16:39:29Z</time>
      </trkpt>
      <trkpt lat="43.47798" lon="6.18291">
        <ele>121.6</ele>
        <time>2024-03-27T16:39:30Z</time>
      </trkpt>
      <trkpt lat="43.47797" lon="6.18291">
        <ele>121.7</ele>
        <time>2024-03-27T16:39:31Z</time>
      </trkpt>
      <trkpt lat="43.47796" lon="6.18291">
        <ele>121.7</ele>
        <time>2024-03-27T16:39:32Z</time>
      </trkpt>
      <trkpt lat="43.47796" lon="6.18291">
        <ele>121.5</ele>
        <time>2024-03-27T16:39:33Z</time>
      </trkpt>
      <trkpt lat="43.47795" lon="6.18291">
        <ele>121.5</ele>
        <time>2024-03-27T16:39:34Z</time>
      </trkpt>
      <trkpt lat="43.47794" lon="6.18292">
        <ele>121.5</ele>
        <time>2024-03-27T16:39:35Z</time>
      </trkpt>
      <trkpt lat="43.47793" lon="6.18292">
        <ele>121.5</ele>
        <time>2024-03-27T16:39:36Z</time>
      </trkpt>
      <trkpt lat="43.47792" lon="6.18292">
        <ele>121.4</ele>
        <time>2024-03-27T16:39:37Z</time>
      </trkpt>
      <trkpt lat="43.4779" lon="6.18293">
        <ele>121.5</ele>
        <time>2024-03-27T16:39:38Z</time>
      </trkpt>
      <trkpt lat="43.4779" lon="6.18292">
        <ele>121.4</ele>
        <time>2024-03-27T16:39:39Z</time>
      </trkpt>
      <trkpt lat="43.47789" lon="6.18292">
        <ele>121.4</ele>
        <time>2024-03-27T16:39:40Z</time>
      </trkpt>
      <trkpt lat="43.47789" lon="6.18292">
        <ele>121.4</ele>
        <time>2024-03-27T16:39:41Z</time>
      </trkpt>
      <trkpt lat="43.47788" lon="6.18293">
        <ele>121.3</ele>
        <time>2024-03-27T16:39:42Z</time>
      </trkpt>
      <trkpt lat="43.47786" lon="6.18292">
        <ele>121.3</ele>
        <time>2024-03-27T16:39:43Z</time>
      </trkpt>
      <trkpt lat="43.47785" lon="6.18291">
        <ele>121.3</ele>
        <time>2024-03-27T16:39:44Z</time>
      </trkpt>
      <trkpt lat="43.47784" lon="6.18289">
        <ele>121.3</ele>
        <time>2024-03-27T16:39:45Z</time>
      </trkpt>
      <trkpt lat="43.47783" lon="6.18289">
        <ele>121.4</ele>
        <time>2024-03-27T16:39:46Z</time>
      </trkpt>
      <trkpt lat="43.47782" lon="6.1829">
        <ele>121.4</ele>
        <time>2024-03-27T16:39:47Z</time>
      </trkpt>
      <trkpt lat="43.47782" lon="6.18289">
        <ele>121.4</ele>
        <time>2024-03-27T16:39:48Z</time>
      </trkpt>
      <trkpt lat="43.47782" lon="6.18289">
        <ele>121.4</ele>
        <time>2024-03-27T16:39:49Z</time>
      </trkpt>
      <trkpt lat="43.47781" lon="6.18289">
        <ele>121.5</ele>
        <time>2024-03-27T16:39:50Z</time>
      </trkpt>
      <trkpt lat="43.47781" lon="6.18288">
        <ele>121.4</ele>
        <time>2024-03-27T16:39:51Z</time>
      </trkpt>
      <trkpt lat="43.4778" lon="6.18288">
        <ele>121.4</ele>
        <time>2024-03-27T16:39:52Z</time>
      </trkpt>
      <trkpt lat="43.47779" lon="6.18287">
        <ele>121.4</ele>
        <time>2024-03-27T16:39:53Z</time>
      </trkpt>
      <trkpt lat="43.47779" lon="6.18287">
        <ele>121.5</ele>
        <time>2024-03-27T16:39:54Z</time>
      </trkpt>
      <trkpt lat="43.47778" lon="6.18287">
        <ele>121.5</ele>
        <time>2024-03-27T16:39:55Z</time>
      </trkpt>
      <trkpt lat="43.47777" lon="6.18286">
        <ele>121.5</ele>
        <time>2024-03-27T16:39:56Z</time>
      </trkpt>
      <trkpt lat="43.47777" lon="6.18286">
        <ele>121.5</ele>
        <time>2024-03-27T16:39:57Z</time>
      </trkpt>
      <trkpt lat="43.47776" lon="6.18286">
        <ele>121.6</ele>
        <time>2024-03-27T16:39:58Z</time>
      </trkpt>
      <trkpt lat="43.47776" lon="6.18285">
        <ele>121.8</ele>
        <time>2024-03-27T16:39:59Z</time>
      </trkpt>
      <trkpt lat="43.47775" lon="6.18285">
        <ele>121.9</ele>
        <time>2024-03-27T16:40:00Z</time>
      </trkpt>
      <trkpt lat="43.47774" lon="6.18283">
        <ele>121.9</ele>
        <time>2024-03-27T16:40:01Z</time>
      </trkpt>
      <trkpt lat="43.47774" lon="6.18283">
        <ele>121.9</ele>
        <time>2024-03-27T16:40:02Z</time>
      </trkpt>
      <trkpt lat="43.47773" lon="6.18283">
        <ele>121.9</ele>
        <time>2024-03-27T16:40:03Z</time>
      </trkpt>
      <trkpt lat="43.47773" lon="6.18283">
        <ele>121.9</ele>
        <time>2024-03-27T16:40:04Z</time>
      </trkpt>
      <trkpt lat="43.47772" lon="6.18283">
        <ele>121.9</ele>
        <time>2024-03-27T16:40:05Z</time>
      </trkpt>
      <trkpt lat="43.47772" lon="6.18283">
        <ele>121.9</ele>
        <time>2024-03-27T16:40:06Z</time>
      </trkpt>
      <trkpt lat="43.47771" lon="6.18283">
        <ele>122</ele>
        <time>2024-03-27T16:40:07Z</time>
      </trkpt>
      <trkpt lat="43.4777" lon="6.18285">
        <ele>122.1</ele>
        <time>2024-03-27T16:40:08Z</time>
      </trkpt>
      <trkpt lat="43.47769" lon="6.18287">
        <ele>122.3</ele>
        <time>2024-03-27T16:40:09Z</time>
      </trkpt>
      <trkpt lat="43.47768" lon="6.18288">
        <ele>122.3</ele>
        <time>2024-03-27T16:40:10Z</time>
      </trkpt>
      <trkpt lat="43.47768" lon="6.18289">
        <ele>122.3</ele>
        <time>2024-03-27T16:40:11Z</time>
      </trkpt>
      <trkpt lat="43.47767" lon="6.1829">
        <ele>122.3</ele>
        <time>2024-03-27T16:40:12Z</time>
      </trkpt>
      <trkpt lat="43.47766" lon="6.18291">
        <ele>122.5</ele>
        <time>2024-03-27T16:40:13Z</time>
      </trkpt>
      <trkpt lat="43.47765" lon="6.18293">
        <ele>122.5</ele>
        <time>2024-03-27T16:40:14Z</time>
      </trkpt>
      <trkpt lat="43.47764" lon="6.18294">
        <ele>122.4</ele>
        <time>2024-03-27T16:40:15Z</time>
      </trkpt>
      <trkpt lat="43.47764" lon="6.18296">
        <ele>122.4</ele>
        <time>2024-03-27T16:40:16Z</time>
      </trkpt>
      <trkpt lat="43.47763" lon="6.18298">
        <ele>122.3</ele>
        <time>2024-03-27T16:40:17Z</time>
      </trkpt>
      <trkpt lat="43.47762" lon="6.18299">
        <ele>122.3</ele>
        <time>2024-03-27T16:40:18Z</time>
      </trkpt>
      <trkpt lat="43.47762" lon="6.18301">
        <ele>122.3</ele>
        <time>2024-03-27T16:40:19Z</time>
      </trkpt>
      <trkpt lat="43.47761" lon="6.18303">
        <ele>122.2</ele>
        <time>2024-03-27T16:40:20Z</time>
      </trkpt>
      <trkpt lat="43.47761" lon="6.18304">
        <ele>122.3</ele>
        <time>2024-03-27T16:40:21Z</time>
      </trkpt>
      <trkpt lat="43.4776" lon="6.18306">
        <ele>122.3</ele>
        <time>2024-03-27T16:40:22Z</time>
      </trkpt>
      <trkpt lat="43.47759" lon="6.18307">
        <ele>122.3</ele>
        <time>2024-03-27T16:40:23Z</time>
      </trkpt>
      <trkpt lat="43.47758" lon="6.18308">
        <ele>122.3</ele>
        <time>2024-03-27T16:40:24Z</time>
      </trkpt>
      <trkpt lat="43.47758" lon="6.1831">
        <ele>122.2</ele>
        <time>2024-03-27T16:40:25Z</time>
      </trkpt>
      <trkpt lat="43.47758" lon="6.18312">
        <ele>122.1</ele>
        <time>2024-03-27T16:40:26Z</time>
      </trkpt>
      <trkpt lat="43.47757" lon="6.18313">
        <ele>122.2</ele>
        <time>2024-03-27T16:40:27Z</time>
      </trkpt>
      <trkpt lat="43.47757" lon="6.18315">
        <ele>122.2</ele>
        <time>2024-03-27T16:40:28Z</time>
      </trkpt>
      <trkpt lat="43.47756" lon="6.18316">
        <ele>122.2</ele>
        <time>2024-03-27T16:40:29Z</time>
      </trkpt>
      <trkpt lat="43.47756" lon="6.18317">
        <ele>122.2</ele>
        <time>2024-03-27T16:40:30Z</time>
      </trkpt>
      <trkpt lat="43.47754" lon="6.18318">
        <ele>122.3</ele>
        <time>2024-03-27T16:40:31Z</time>
      </trkpt>
      <trkpt lat="43.47753" lon="6.18319">
        <ele>122.2</ele>
        <time>2024-03-27T16:40:32Z</time>
      </trkpt>
      <trkpt lat="43.47753" lon="6.1832">
        <ele>122.3</ele>
        <time>2024-03-27T16:40:33Z</time>
      </trkpt>
      <trkpt lat="43.47753" lon="6.18322">
        <ele>122.2</ele>
        <time>2024-03-27T16:40:34Z</time>
      </trkpt>
      <trkpt lat="43.47754" lon="6.18324">
        <ele>122.2</ele>
        <time>2024-03-27T16:40:35Z</time>
      </trkpt>
      <trkpt lat="43.47755" lon="6.18324">
        <ele>122.2</ele>
        <time>2024-03-27T16:40:36Z</time>
      </trkpt>
      <trkpt lat="43.47756" lon="6.18325">
        <ele>122.2</ele>
        <time>2024-03-27T16:40:37Z</time>
      </trkpt>
      <trkpt lat="43.47756" lon="6.18325">
        <ele>122.2</ele>
        <time>2024-03-27T16:40:38Z</time>
      </trkpt>
      <trkpt lat="43.47757" lon="6.18326">
        <ele>122.2</ele>
        <time>2024-03-27T16:40:39Z</time>
      </trkpt>
      <trkpt lat="43.47757" lon="6.18326">
        <ele>122.1</ele>
        <time>2024-03-27T16:40:40Z</time>
      </trkpt>
      <trkpt lat="43.47757" lon="6.18326">
        <ele>122.1</ele>
        <time>2024-03-27T16:40:41Z</time>
      </trkpt>
      <trkpt lat="43.47757" lon="6.18327">
        <ele>122</ele>
        <time>2024-03-27T16:40:42Z</time>
      </trkpt>
      <trkpt lat="43.47757" lon="6.18327">
        <ele>122</ele>
        <time>2024-03-27T16:40:43Z</time>
      </trkpt>
      <trkpt lat="43.47757" lon="6.18328">
        <ele>122</ele>
        <time>2024-03-27T16:40:44Z</time>
      </trkpt>
      <trkpt lat="43.47758" lon="6.18329">
        <ele>122</ele>
        <time>2024-03-27T16:40:45Z</time>
      </trkpt>
      <trkpt lat="43.47758" lon="6.18329">
        <ele>122.1</ele>
        <time>2024-03-27T16:40:46Z</time>
      </trkpt>
      <trkpt lat="43.47758" lon="6.18329">
        <ele>122</ele>
        <time>2024-03-27T16:40:47Z</time>
      </trkpt>
      <trkpt lat="43.47758" lon="6.18329">
        <ele>122</ele>
        <time>2024-03-27T16:40:48Z</time>
      </trkpt>
      <trkpt lat="43.47758" lon="6.1833">
        <ele>122</ele>
        <time>2024-03-27T16:40:49Z</time>
      </trkpt>
      <trkpt lat="43.47758" lon="6.1833">
        <ele>122</ele>
        <time>2024-03-27T16:40:50Z</time>
      </trkpt>
      <trkpt lat="43.47758" lon="6.1833">
        <ele>122</ele>
        <time>2024-03-27T16:40:51Z</time>
      </trkpt>
      <trkpt lat="43.47758" lon="6.1833">
        <ele>122</ele>
        <time>2024-03-27T16:40:52Z</time>
      </trkpt>
      <trkpt lat="43.47759" lon="6.18331">
        <ele>122</ele>
        <time>2024-03-27T16:40:53Z</time>
      </trkpt>
      <trkpt lat="43.4776" lon="6.18331">
        <ele>122</ele>
        <time>2024-03-27T16:40:54Z</time>
      </trkpt>
      <trkpt lat="43.47762" lon="6.18332">
        <ele>121.9</ele>
        <time>2024-03-27T16:40:55Z</time>
      </trkpt>
      <trkpt lat="43.47763" lon="6.18333">
        <ele>121.9</ele>
        <time>2024-03-27T16:40:56Z</time>
      </trkpt>
      <trkpt lat="43.47763" lon="6.18333">
        <ele>121.8</ele>
        <time>2024-03-27T16:40:57Z</time>
      </trkpt>
      <trkpt lat="43.47764" lon="6.18334">
        <ele>121.8</ele>
        <time>2024-03-27T16:40:58Z</time>
      </trkpt>
      <trkpt lat="43.47764" lon="6.18334">
        <ele>121.7</ele>
        <time>2024-03-27T16:40:59Z</time>
      </trkpt>
      <trkpt lat="43.47765" lon="6.18335">
        <ele>121.7</ele>
        <time>2024-03-27T16:41:00Z</time>
      </trkpt>
      <trkpt lat="43.47766" lon="6.18336">
        <ele>121.7</ele>
        <time>2024-03-27T16:41:01Z</time>
      </trkpt>
      <trkpt lat="43.47767" lon="6.18337">
        <ele>121.7</ele>
        <time>2024-03-27T16:41:02Z</time>
      </trkpt>
      <trkpt lat="43.47768" lon="6.18337">
        <ele>121.7</ele>
        <time>2024-03-27T16:41:03Z</time>
      </trkpt>
      <trkpt lat="43.47769" lon="6.18337">
        <ele>121.7</ele>
        <time>2024-03-27T16:41:04Z</time>
      </trkpt>
      <trkpt lat="43.4777" lon="6.18338">
        <ele>121.7</ele>
        <time>2024-03-27T16:41:05Z</time>
      </trkpt>
      <trkpt lat="43.4777" lon="6.18338">
        <ele>121.8</ele>
        <time>2024-03-27T16:41:06Z</time>
      </trkpt>
      <trkpt lat="43.47771" lon="6.18338">
        <ele>121.8</ele>
        <time>2024-03-27T16:41:07Z</time>
      </trkpt>
      <trkpt lat="43.47771" lon="6.18338">
        <ele>121.9</ele>
        <time>2024-03-27T16:41:08Z</time>
      </trkpt>
      <trkpt lat="43.47772" lon="6.18338">
        <ele>121.9</ele>
        <time>2024-03-27T16:41:09Z</time>
      </trkpt>
      <trkpt lat="43.47772" lon="6.18339">
        <ele>121.9</ele>
        <time>2024-03-27T16:41:10Z</time>
      </trkpt>
      <trkpt lat="43.47773" lon="6.18339">
        <ele>121.9</ele>
        <time>2024-03-27T16:41:11Z</time>
      </trkpt>
      <trkpt lat="43.47773" lon="6.18339">
        <ele>121.9</ele>
        <time>2024-03-27T16:41:12Z</time>
      </trkpt>
      <trkpt lat="43.47773" lon="6.18339">
        <ele>121.9</ele>
        <time>2024-03-27T16:41:13Z</time>
      </trkpt>
      <trkpt lat="43.47773" lon="6.18339">
        <ele>121.9</ele>
        <time>2024-03-27T16:41:14Z</time>
      </trkpt>
      <trkpt lat="43.47773" lon="6.18339">
        <ele>121.9</ele>
        <time>2024-03-27T16:41:15Z</time>
      </trkpt>
      <trkpt lat="43.47773" lon="6.1834">
        <ele>121.9</ele>
        <time>2024-03-27T16:41:16Z</time>
      </trkpt>
      <trkpt lat="43.47772" lon="6.1834">
        <ele>121.9</ele>
        <time>2024-03-27T16:41:17Z</time>
      </trkpt>
      <trkpt lat="43.47772" lon="6.1834">
        <ele>121.8</ele>
        <time>2024-03-27T16:41:18Z</time>
      </trkpt>
      <trkpt lat="43.47772" lon="6.18339">
        <ele>121.8</ele>
        <time>2024-03-27T16:41:19Z</time>
      </trkpt>
      <trkpt lat="43.47772" lon="6.18339">
        <ele>121.7</ele>
        <time>2024-03-27T16:41:20Z</time>
      </trkpt>
      <trkpt lat="43.47772" lon="6.1834">
        <ele>121.6</ele>
        <time>2024-03-27T16:41:21Z</time>
      </trkpt>
      <trkpt lat="43.47772" lon="6.1834">
        <ele>121.6</ele>
        <time>2024-03-27T16:41:22Z</time>
      </trkpt>
      <trkpt lat="43.47771" lon="6.1834">
        <ele>121.5</ele>
        <time>2024-03-27T16:41:23Z</time>
      </trkpt>
      <trkpt lat="43.47771" lon="6.18341">
        <ele>121.5</ele>
        <time>2024-03-27T16:41:24Z</time>
      </trkpt>
      <trkpt lat="43.47771" lon="6.18341">
        <ele>121.4</ele>
        <time>2024-03-27T16:41:25Z</time>
      </trkpt>
      <trkpt lat="43.47771" lon="6.1834">
        <ele>121.4</ele>
        <time>2024-03-27T16:41:26Z</time>
      </trkpt>
      <trkpt lat="43.47771" lon="6.1834">
        <ele>121.5</ele>
        <time>2024-03-27T16:41:27Z</time>
      </trkpt>
      <trkpt lat="43.47771" lon="6.1834">
        <ele>121.5</ele>
        <time>2024-03-27T16:41:28Z</time>
      </trkpt>
      <trkpt lat="43.47771" lon="6.1834">
        <ele>121.5</ele>
        <time>2024-03-27T16:41:29Z</time>
      </trkpt>
      <trkpt lat="43.47771" lon="6.1834">
        <ele>121.5</ele>
        <time>2024-03-27T16:41:30Z</time>
      </trkpt>
      <trkpt lat="43.47771" lon="6.1834">
        <ele>121.5</ele>
        <time>2024-03-27T16:41:31Z</time>
      </trkpt>
      <trkpt lat="43.47771" lon="6.1834">
        <ele>121.5</ele>
        <time>2024-03-27T16:41:32Z</time>
      </trkpt>
      <trkpt lat="43.47771" lon="6.1834">
        <ele>121.5</ele>
        <time>2024-03-27T16:41:33Z</time>
      </trkpt>
      <trkpt lat="43.4777" lon="6.1834">
        <ele>121.5</ele>
        <time>2024-03-27T16:41:34Z</time>
      </trkpt>
      <trkpt lat="43.4777" lon="6.18341">
        <ele>121.5</ele>
        <time>2024-03-27T16:41:35Z</time>
      </trkpt>
      <trkpt lat="43.4777" lon="6.18341">
        <ele>121.5</ele>
        <time>2024-03-27T16:41:36Z</time>
      </trkpt>
      <trkpt lat="43.4777" lon="6.18341">
        <ele>121.6</ele>
        <time>2024-03-27T16:41:37Z</time>
      </trkpt>
      <trkpt lat="43.4777" lon="6.1834">
        <ele>121.6</ele>
        <time>2024-03-27T16:41:38Z</time>
      </trkpt>
      <trkpt lat="43.4777" lon="6.1834">
        <ele>121.5</ele>
        <time>2024-03-27T16:41:39Z</time>
      </trkpt>
      <trkpt lat="43.4777" lon="6.1834">
        <ele>121.5</ele>
        <time>2024-03-27T16:41:40Z</time>
      </trkpt>
      <trkpt lat="43.4777" lon="6.1834">
        <ele>121.5</ele>
        <time>2024-03-27T16:41:41Z</time>
      </trkpt>
      <trkpt lat="43.4777" lon="6.1834">
        <ele>121.5</ele>
        <time>2024-03-27T16:41:42Z</time>
      </trkpt>
      <trkpt lat="43.47771" lon="6.18341">
        <ele>121.5</ele>
        <time>2024-03-27T16:41:43Z</time>
      </trkpt>
      <trkpt lat="43.47771" lon="6.18341">
        <ele>121.5</ele>
        <time>2024-03-27T16:41:44Z</time>
      </trkpt>
      <trkpt lat="43.47771" lon="6.18341">
        <ele>121.6</ele>
        <time>2024-03-27T16:41:45Z</time>
      </trkpt>
      <trkpt lat="43.47771" lon="6.18341">
        <ele>121.6</ele>
        <time>2024-03-27T16:41:46Z</time>
      </trkpt>
      <trkpt lat="43.47771" lon="6.18341">
        <ele>121.6</ele>
        <time>2024-03-27T16:41:47Z</time>
      </trkpt>
      <trkpt lat="43.47771" lon="6.18341">
        <ele>121.6</ele>
        <time>2024-03-27T16:41:48Z</time>
      </trkpt>
      <trkpt lat="43.47771" lon="6.18341">
        <ele>121.6</ele>
        <time>2024-03-27T16:41:49Z</time>
      </trkpt>
      <trkpt lat="43.47771" lon="6.18341">
        <ele>121.5</ele>
        <time>2024-03-27T16:41:50Z</time>
      </trkpt>
      <trkpt lat="43.47771" lon="6.18341">
        <ele>121.5</ele>
        <time>2024-03-27T16:41:51Z</time>
      </trkpt>
      <trkpt lat="43.47771" lon="6.18341">
        <ele>121.4</ele>
        <time>2024-03-27T16:41:52Z</time>
      </trkpt>
      <trkpt lat="43.47771" lon="6.18341">
        <ele>121.4</ele>
        <time>2024-03-27T16:41:53Z</time>
      </trkpt>
      <trkpt lat="43.47771" lon="6.1834">
        <ele>121.3</ele>
        <time>2024-03-27T16:41:54Z</time>
      </trkpt>
      <trkpt lat="43.47771" lon="6.1834">
        <ele>121.3</ele>
        <time>2024-03-27T16:41:55Z</time>
      </trkpt>
      <trkpt lat="43.4777" lon="6.1834">
        <ele>121.3</ele>
        <time>2024-03-27T16:41:56Z</time>
      </trkpt>
      <trkpt lat="43.4777" lon="6.1834">
        <ele>121.3</ele>
        <time>2024-03-27T16:41:57Z</time>
      </trkpt>
      <trkpt lat="43.4777" lon="6.18341">
        <ele>121.3</ele>
        <time>2024-03-27T16:41:58Z</time>
      </trkpt>
      <trkpt lat="43.4777" lon="6.18341">
        <ele>121.3</ele>
        <time>2024-03-27T16:41:59Z</time>
      </trkpt>
      <trkpt lat="43.4777" lon="6.18341">
        <ele>121.3</ele>
        <time>2024-03-27T16:42:00Z</time>
      </trkpt>
      <trkpt lat="43.4777" lon="6.18341">
        <ele>121.3</ele>
        <time>2024-03-27T16:42:01Z</time>
      </trkpt>
      <trkpt lat="43.4777" lon="6.18341">
        <ele>121.3</ele>
        <time>2024-03-27T16:42:02Z</time>
      </trkpt>
      <trkpt lat="43.4777" lon="6.18341">
        <ele>121.3</ele>
        <time>2024-03-27T16:42:03Z</time>
      </trkpt>
      <trkpt lat="43.47771" lon="6.18341">
        <ele>121.3</ele>
        <time>2024-03-27T16:42:04Z</time>
      </trkpt>
      <trkpt lat="43.47771" lon="6.18341">
        <ele>121.3</ele>
        <time>2024-03-27T16:42:05Z</time>
      </trkpt>
      <trkpt lat="43.47771" lon="6.18341">
        <ele>121.2</ele>
        <time>2024-03-27T16:42:06Z</time>
      </trkpt>
      <trkpt lat="43.47771" lon="6.18341">
        <ele>121.2</ele>
        <time>2024-03-27T16:42:07Z</time>
      </trkpt>
      <trkpt lat="43.47771" lon="6.18341">
        <ele>121.1</ele>
        <time>2024-03-27T16:42:08Z</time>
      </trkpt>
      <trkpt lat="43.4777" lon="6.18341">
        <ele>121.1</ele>
        <time>2024-03-27T16:42:09Z</time>
      </trkpt>
      <trkpt lat="43.4777" lon="6.18341">
        <ele>121.1</ele>
        <time>2024-03-27T16:42:10Z</time>
      </trkpt>
      <trkpt lat="43.4777" lon="6.18341">
        <ele>121</ele>
        <time>2024-03-27T16:42:11Z</time>
      </trkpt>
      <trkpt lat="43.4777" lon="6.18341">
        <ele>121</ele>
        <time>2024-03-27T16:42:12Z</time>
      </trkpt>
      <trkpt lat="43.4777" lon="6.18341">
        <ele>121</ele>
        <time>2024-03-27T16:42:13Z</time>
      </trkpt>
      <trkpt lat="43.4777" lon="6.18341">
        <ele>121</ele>
        <time>2024-03-27T16:42:14Z</time>
      </trkpt>
      <trkpt lat="43.4777" lon="6.18341">
        <ele>120.9</ele>
        <time>2024-03-27T16:42:15Z</time>
      </trkpt>
      <trkpt lat="43.4777" lon="6.18341">
        <ele>120.9</ele>
        <time>2024-03-27T16:42:16Z</time>
      </trkpt>
      <trkpt lat="43.4777" lon="6.18341">
        <ele>120.9</ele>
        <time>2024-03-27T16:42:17Z</time>
      </trkpt>
      <trkpt lat="43.4777" lon="6.18341">
        <ele>120.9</ele>
        <time>2024-03-27T16:42:18Z</time>
      </trkpt>
      <trkpt lat="43.4777" lon="6.18341">
        <ele>121</ele>
        <time>2024-03-27T16:42:19Z</time>
      </trkpt>
      <trkpt lat="43.4777" lon="6.18341">
        <ele>121.2</ele>
        <time>2024-03-27T16:42:20Z</time>
      </trkpt>
      <trkpt lat="43.4777" lon="6.18341">
        <ele>121.2</ele>
        <time>2024-03-27T16:42:21Z</time>
      </trkpt>
      <trkpt lat="43.47771" lon="6.18341">
        <ele>121.3</ele>
        <time>2024-03-27T16:42:22Z</time>
      </trkpt>
      <trkpt lat="43.47771" lon="6.18341">
        <ele>121.3</ele>
        <time>2024-03-27T16:42:23Z</time>
      </trkpt>
      <trkpt lat="43.47771" lon="6.1834">
        <ele>121.3</ele>
        <time>2024-03-27T16:42:24Z</time>
      </trkpt>
      <trkpt lat="43.47771" lon="6.1834">
        <ele>121.2</ele>
        <time>2024-03-27T16:42:25Z</time>
      </trkpt>
      <trkpt lat="43.4777" lon="6.18341">
        <ele>121.2</ele>
        <time>2024-03-27T16:42:26Z</time>
      </trkpt>
      <trkpt lat="43.4777" lon="6.1834">
        <ele>121.3</ele>
        <time>2024-03-27T16:42:27Z</time>
      </trkpt>
      <trkpt lat="43.4777" lon="6.1834">
        <ele>121.3</ele>
        <time>2024-03-27T16:42:28Z</time>
      </trkpt>
      <trkpt lat="43.4777" lon="6.1834">
        <ele>121.4</ele>
        <time>2024-03-27T16:42:29Z</time>
      </trkpt>
      <trkpt lat="43.4777" lon="6.18339">
        <ele>121.5</ele>
        <time>2024-03-27T16:42:30Z</time>
      </trkpt>
      <trkpt lat="43.4777" lon="6.18339">
        <ele>121.5</ele>
        <time>2024-03-27T16:42:31Z</time>
      </trkpt>
      <trkpt lat="43.4777" lon="6.18339">
        <ele>121.6</ele>
        <time>2024-03-27T16:42:32Z</time>
      </trkpt>
      <trkpt lat="43.4777" lon="6.18339">
        <ele>121.6</ele>
        <time>2024-03-27T16:42:33Z</time>
      </trkpt>
      <trkpt lat="43.4777" lon="6.18339">
        <ele>121.6</ele>
        <time>2024-03-27T16:42:34Z</time>
      </trkpt>
      <trkpt lat="43.4777" lon="6.18339">
        <ele>121.6</ele>
        <time>2024-03-27T16:42:35Z</time>
      </trkpt>
      <trkpt lat="43.4777" lon="6.18339">
        <ele>121.6</ele>
        <time>2024-03-27T16:42:36Z</time>
      </trkpt>
      <trkpt lat="43.4777" lon="6.18339">
        <ele>121.6</ele>
        <time>2024-03-27T16:42:37Z</time>
      </trkpt>
      <trkpt lat="43.4777" lon="6.18339">
        <ele>121.6</ele>
        <time>2024-03-27T16:42:38Z</time>
      </trkpt>
      <trkpt lat="43.4777" lon="6.18339">
        <ele>121.5</ele>
        <time>2024-03-27T16:42:39Z</time>
      </trkpt>
      <trkpt lat="43.47771" lon="6.18338">
        <ele>121.5</ele>
        <time>2024-03-27T16:42:40Z</time>
      </trkpt>
      <trkpt lat="43.47771" lon="6.18338">
        <ele>121.5</ele>
        <time>2024-03-27T16:42:41Z</time>
      </trkpt>
      <trkpt lat="43.47771" lon="6.18338">
        <ele>121.5</ele>
        <time>2024-03-27T16:42:42Z</time>
      </trkpt>
      <trkpt lat="43.47771" lon="6.18338">
        <ele>121.4</ele>
        <time>2024-03-27T16:42:43Z</time>
      </trkpt>
      <trkpt lat="43.47771" lon="6.18338">
        <ele>121.4</ele>
        <time>2024-03-27T16:42:43Z</time>
      </trkpt>
      <trkpt lat="43.47771" lon="6.18338">
        <ele>121.4</ele>
        <time>2024-03-27T16:42:44Z</time>
      </trkpt>
      <trkpt lat="43.47771" lon="6.18338">
        <ele>121.5</ele>
        <time>2024-03-27T16:42:44Z</time>
      </trkpt>
    </trkseg>
  </trk>
</gpx>